<?xml version="1.0" encoding="UTF-8"?>
<gpx creator="Garmin Connect" version="1.1"
  xsi:schemaLocation="http://www.topografix.com/GPX/1/1 http://www.topografix.com/GPX/11.xsd"
  xmlns:ns3="http://www.garmin.com/xmlschemas/TrackPointExtension/v1"
  xmlns="http://www.topografix.com/GPX/1/1"
  xmlns:xsi="http://www.w3.org/2001/XMLSchema-instance" xmlns:ns2="http://www.garmin.com/xmlschemas/GpxExtensions/v3">
  <metadata>
    <link href="connect.garmin.com">
      <text>Garmin Connect</text>
    </link>
    <time>2021-06-25T15:16:21.000Z</time>
  </metadata>
  <trk>
    <name>Fresno County Hiking</name>
    <type>hiking</type>
    <trkseg>
      <trkpt lat="36.7589007318019866943359375" lon="-118.41409712098538875579833984375">
        <ele>2906</ele>
        <time>2021-06-25T15:16:21.000Z</time>
        <extensions>
          <ns3:TrackPointExtension>
            <ns3:atemp>23.0</ns3:atemp>
            <ns3:hr>83</ns3:hr>
          </ns3:TrackPointExtension>
        </extensions>
      </trkpt>
      <trkpt lat="36.75890249200165271759033203125" lon="-118.41409712098538875579833984375">
        <ele>2906</ele>
        <time>2021-06-25T15:16:24.000Z</time>
        <extensions>
          <ns3:TrackPointExtension>
            <ns3:atemp>23.0</ns3:atemp>
            <ns3:hr>80</ns3:hr>
          </ns3:TrackPointExtension>
        </extensions>
      </trkpt>
      <trkpt lat="36.75898966379463672637939453125" lon="-118.414043895900249481201171875">
        <ele>2906.199951171875</ele>
        <time>2021-06-25T15:16:41.000Z</time>
        <extensions>
          <ns3:TrackPointExtension>
            <ns3:atemp>23.0</ns3:atemp>
            <ns3:hr>79</ns3:hr>
          </ns3:TrackPointExtension>
        </extensions>
      </trkpt>
      <trkpt lat="36.7590241134166717529296875" lon="-118.41404733248054981231689453125">
        <ele>2906.39990234375</ele>
        <time>2021-06-25T15:16:43.000Z</time>
        <extensions>
          <ns3:TrackPointExtension>
            <ns3:atemp>23.0</ns3:atemp>
            <ns3:hr>79</ns3:hr>
          </ns3:TrackPointExtension>
        </extensions>
      </trkpt>
      <trkpt lat="36.75908354111015796661376953125" lon="-118.41404649429023265838623046875">
        <ele>2906.800048828125</ele>
        <time>2021-06-25T15:16:48.000Z</time>
        <extensions>
          <ns3:TrackPointExtension>
            <ns3:atemp>23.0</ns3:atemp>
            <ns3:hr>79</ns3:hr>
          </ns3:TrackPointExtension>
        </extensions>
      </trkpt>
      <trkpt lat="36.7590910010039806365966796875" lon="-118.414026796817779541015625">
        <ele>2907</ele>
        <time>2021-06-25T15:16:49.000Z</time>
        <extensions>
          <ns3:TrackPointExtension>
            <ns3:atemp>23.0</ns3:atemp>
            <ns3:hr>80</ns3:hr>
          </ns3:TrackPointExtension>
        </extensions>
      </trkpt>
      <trkpt lat="36.75912796519696712493896484375" lon="-118.41391171328723430633544921875">
        <ele>2906.800048828125</ele>
        <time>2021-06-25T15:16:56.000Z</time>
        <extensions>
          <ns3:TrackPointExtension>
            <ns3:atemp>23.0</ns3:atemp>
            <ns3:hr>82</ns3:hr>
          </ns3:TrackPointExtension>
        </extensions>
      </trkpt>
      <trkpt lat="36.75916585139930248260498046875" lon="-118.413832671940326690673828125">
        <ele>2906.60009765625</ele>
        <time>2021-06-25T15:17:02.000Z</time>
        <extensions>
          <ns3:TrackPointExtension>
            <ns3:atemp>23.0</ns3:atemp>
            <ns3:hr>84</ns3:hr>
          </ns3:TrackPointExtension>
        </extensions>
      </trkpt>
      <trkpt lat="36.7592200823128223419189453125" lon="-118.41376050375401973724365234375">
        <ele>2906.800048828125</ele>
        <time>2021-06-25T15:17:07.000Z</time>
        <extensions>
          <ns3:TrackPointExtension>
            <ns3:atemp>23.0</ns3:atemp>
            <ns3:hr>84</ns3:hr>
          </ns3:TrackPointExtension>
        </extensions>
      </trkpt>
      <trkpt lat="36.75923944450914859771728515625" lon="-118.41370736248791217803955078125">
        <ele>2906.39990234375</ele>
        <time>2021-06-25T15:17:11.000Z</time>
        <extensions>
          <ns3:TrackPointExtension>
            <ns3:atemp>23.0</ns3:atemp>
            <ns3:hr>86</ns3:hr>
          </ns3:TrackPointExtension>
        </extensions>
      </trkpt>
      <trkpt lat="36.75923575647175312042236328125" lon="-118.41369755566120147705078125">
        <ele>2906.60009765625</ele>
        <time>2021-06-25T15:17:13.000Z</time>
        <extensions>
          <ns3:TrackPointExtension>
            <ns3:atemp>23.0</ns3:atemp>
            <ns3:hr>87</ns3:hr>
          </ns3:TrackPointExtension>
        </extensions>
      </trkpt>
      <trkpt lat="36.75924145616590976715087890625" lon="-118.41368171386420726776123046875">
        <ele>2906.60009765625</ele>
        <time>2021-06-25T15:17:15.000Z</time>
        <extensions>
          <ns3:TrackPointExtension>
            <ns3:atemp>23.0</ns3:atemp>
            <ns3:hr>87</ns3:hr>
          </ns3:TrackPointExtension>
        </extensions>
      </trkpt>
      <trkpt lat="36.7592606507241725921630859375" lon="-118.41364148072898387908935546875">
        <ele>2906.199951171875</ele>
        <time>2021-06-25T15:17:18.000Z</time>
        <extensions>
          <ns3:TrackPointExtension>
            <ns3:atemp>23.0</ns3:atemp>
            <ns3:hr>86</ns3:hr>
          </ns3:TrackPointExtension>
        </extensions>
      </trkpt>
      <trkpt lat="36.75929727964103221893310546875" lon="-118.4135592542588710784912109375">
        <ele>2906</ele>
        <time>2021-06-25T15:17:24.000Z</time>
        <extensions>
          <ns3:TrackPointExtension>
            <ns3:atemp>23.0</ns3:atemp>
            <ns3:hr>85</ns3:hr>
          </ns3:TrackPointExtension>
        </extensions>
      </trkpt>
      <trkpt lat="36.759300045669078826904296875" lon="-118.4135445021092891693115234375">
        <ele>2906.199951171875</ele>
        <time>2021-06-25T15:17:25.000Z</time>
        <extensions>
          <ns3:TrackPointExtension>
            <ns3:atemp>23.0</ns3:atemp>
            <ns3:hr>85</ns3:hr>
          </ns3:TrackPointExtension>
        </extensions>
      </trkpt>
      <trkpt lat="36.7593263648450374603271484375" lon="-118.41347551904618740081787109375">
        <ele>2906.199951171875</ele>
        <time>2021-06-25T15:17:28.000Z</time>
        <extensions>
          <ns3:TrackPointExtension>
            <ns3:atemp>23.0</ns3:atemp>
            <ns3:hr>82</ns3:hr>
          </ns3:TrackPointExtension>
        </extensions>
      </trkpt>
      <trkpt lat="36.7593736387789249420166015625" lon="-118.4133778698742389678955078125">
        <ele>2906</ele>
        <time>2021-06-25T15:17:34.000Z</time>
        <extensions>
          <ns3:TrackPointExtension>
            <ns3:atemp>23.0</ns3:atemp>
            <ns3:hr>80</ns3:hr>
          </ns3:TrackPointExtension>
        </extensions>
      </trkpt>
      <trkpt lat="36.75939165987074375152587890625" lon="-118.41331508941948413848876953125">
        <ele>2906</ele>
        <time>2021-06-25T15:17:38.000Z</time>
        <extensions>
          <ns3:TrackPointExtension>
            <ns3:atemp>23.0</ns3:atemp>
            <ns3:hr>76</ns3:hr>
          </ns3:TrackPointExtension>
        </extensions>
      </trkpt>
      <trkpt lat="36.75938646309077739715576171875" lon="-118.41328843496739864349365234375">
        <ele>2906</ele>
        <time>2021-06-25T15:17:40.000Z</time>
        <extensions>
          <ns3:TrackPointExtension>
            <ns3:atemp>23.0</ns3:atemp>
            <ns3:hr>75</ns3:hr>
          </ns3:TrackPointExtension>
        </extensions>
      </trkpt>
      <trkpt lat="36.75938428379595279693603515625" lon="-118.41327066533267498016357421875">
        <ele>2906</ele>
        <time>2021-06-25T15:17:41.000Z</time>
        <extensions>
          <ns3:TrackPointExtension>
            <ns3:atemp>23.0</ns3:atemp>
            <ns3:hr>76</ns3:hr>
          </ns3:TrackPointExtension>
        </extensions>
      </trkpt>
      <trkpt lat="36.75941345281898975372314453125" lon="-118.41320796869695186614990234375">
        <ele>2906</ele>
        <time>2021-06-25T15:17:46.000Z</time>
        <extensions>
          <ns3:TrackPointExtension>
            <ns3:atemp>23.0</ns3:atemp>
            <ns3:hr>78</ns3:hr>
          </ns3:TrackPointExtension>
        </extensions>
      </trkpt>
      <trkpt lat="36.75943256355822086334228515625" lon="-118.41318030841648578643798828125">
        <ele>2906.199951171875</ele>
        <time>2021-06-25T15:17:49.000Z</time>
        <extensions>
          <ns3:TrackPointExtension>
            <ns3:atemp>23.0</ns3:atemp>
            <ns3:hr>78</ns3:hr>
          </ns3:TrackPointExtension>
        </extensions>
      </trkpt>
      <trkpt lat="36.75946827046573162078857421875" lon="-118.413131944835186004638671875">
        <ele>2906.800048828125</ele>
        <time>2021-06-25T15:17:56.000Z</time>
        <extensions>
          <ns3:TrackPointExtension>
            <ns3:atemp>23.0</ns3:atemp>
            <ns3:hr>77</ns3:hr>
          </ns3:TrackPointExtension>
        </extensions>
      </trkpt>
      <trkpt lat="36.759476400911808013916015625" lon="-118.413129933178424835205078125">
        <ele>2907.39990234375</ele>
        <time>2021-06-25T15:17:57.000Z</time>
        <extensions>
          <ns3:TrackPointExtension>
            <ns3:atemp>23.0</ns3:atemp>
            <ns3:hr>76</ns3:hr>
          </ns3:TrackPointExtension>
        </extensions>
      </trkpt>
      <trkpt lat="36.759509257972240447998046875" lon="-118.41307469643652439117431640625">
        <ele>2907.60009765625</ele>
        <time>2021-06-25T15:18:01.000Z</time>
        <extensions>
          <ns3:TrackPointExtension>
            <ns3:atemp>23.0</ns3:atemp>
            <ns3:hr>79</ns3:hr>
          </ns3:TrackPointExtension>
        </extensions>
      </trkpt>
      <trkpt lat="36.759513281285762786865234375" lon="-118.413055837154388427734375">
        <ele>2907.60009765625</ele>
        <time>2021-06-25T15:18:03.000Z</time>
        <extensions>
          <ns3:TrackPointExtension>
            <ns3:atemp>23.0</ns3:atemp>
            <ns3:hr>82</ns3:hr>
          </ns3:TrackPointExtension>
        </extensions>
      </trkpt>
      <trkpt lat="36.75951906479895114898681640625" lon="-118.41304468922317028045654296875">
        <ele>2907.800048828125</ele>
        <time>2021-06-25T15:18:04.000Z</time>
        <extensions>
          <ns3:TrackPointExtension>
            <ns3:atemp>23.0</ns3:atemp>
            <ns3:hr>84</ns3:hr>
          </ns3:TrackPointExtension>
        </extensions>
      </trkpt>
      <trkpt lat="36.75953247584402561187744140625" lon="-118.41302834451198577880859375">
        <ele>2907.800048828125</ele>
        <time>2021-06-25T15:18:06.000Z</time>
        <extensions>
          <ns3:TrackPointExtension>
            <ns3:atemp>23.0</ns3:atemp>
            <ns3:hr>88</ns3:hr>
          </ns3:TrackPointExtension>
        </extensions>
      </trkpt>
      <trkpt lat="36.7595523409545421600341796875" lon="-118.41300931759178638458251953125">
        <ele>2907.800048828125</ele>
        <time>2021-06-25T15:18:09.000Z</time>
        <extensions>
          <ns3:TrackPointExtension>
            <ns3:atemp>23.0</ns3:atemp>
            <ns3:hr>91</ns3:hr>
          </ns3:TrackPointExtension>
        </extensions>
      </trkpt>
      <trkpt lat="36.75955946557223796844482421875" lon="-118.41300420463085174560546875">
        <ele>2907.800048828125</ele>
        <time>2021-06-25T15:18:10.000Z</time>
        <extensions>
          <ns3:TrackPointExtension>
            <ns3:atemp>23.0</ns3:atemp>
            <ns3:hr>93</ns3:hr>
          </ns3:TrackPointExtension>
        </extensions>
      </trkpt>
      <trkpt lat="36.75957052968442440032958984375" lon="-118.4129933081567287445068359375">
        <ele>2907.60009765625</ele>
        <time>2021-06-25T15:18:12.000Z</time>
        <extensions>
          <ns3:TrackPointExtension>
            <ns3:atemp>23.0</ns3:atemp>
            <ns3:hr>93</ns3:hr>
          </ns3:TrackPointExtension>
        </extensions>
      </trkpt>
      <trkpt lat="36.75959215499460697174072265625" lon="-118.4129735268652439117431640625">
        <ele>2907.39990234375</ele>
        <time>2021-06-25T15:18:14.000Z</time>
        <extensions>
          <ns3:TrackPointExtension>
            <ns3:atemp>23.0</ns3:atemp>
            <ns3:hr>89</ns3:hr>
          </ns3:TrackPointExtension>
        </extensions>
      </trkpt>
      <trkpt lat="36.75961109809577465057373046875" lon="-118.41294745914638042449951171875">
        <ele>2907.60009765625</ele>
        <time>2021-06-25T15:18:16.000Z</time>
        <extensions>
          <ns3:TrackPointExtension>
            <ns3:atemp>23.0</ns3:atemp>
            <ns3:hr>90</ns3:hr>
          </ns3:TrackPointExtension>
        </extensions>
      </trkpt>
      <trkpt lat="36.75965468399226665496826171875" lon="-118.41290454380214214324951171875">
        <ele>2907.60009765625</ele>
        <time>2021-06-25T15:18:19.000Z</time>
        <extensions>
          <ns3:TrackPointExtension>
            <ns3:atemp>23.0</ns3:atemp>
            <ns3:hr>89</ns3:hr>
          </ns3:TrackPointExtension>
        </extensions>
      </trkpt>
      <trkpt lat="36.7596693523228168487548828125" lon="-118.4128850139677524566650390625">
        <ele>2907.60009765625</ele>
        <time>2021-06-25T15:18:21.000Z</time>
        <extensions>
          <ns3:TrackPointExtension>
            <ns3:atemp>23.0</ns3:atemp>
            <ns3:hr>89</ns3:hr>
          </ns3:TrackPointExtension>
        </extensions>
      </trkpt>
      <trkpt lat="36.75968335010111331939697265625" lon="-118.41280865482985973358154296875">
        <ele>2908.199951171875</ele>
        <time>2021-06-25T15:18:26.000Z</time>
        <extensions>
          <ns3:TrackPointExtension>
            <ns3:atemp>23.0</ns3:atemp>
            <ns3:hr>90</ns3:hr>
          </ns3:TrackPointExtension>
        </extensions>
      </trkpt>
      <trkpt lat="36.75968653522431850433349609375" lon="-118.41279675252735614776611328125">
        <ele>2908.199951171875</ele>
        <time>2021-06-25T15:18:27.000Z</time>
        <extensions>
          <ns3:TrackPointExtension>
            <ns3:atemp>23.0</ns3:atemp>
            <ns3:hr>90</ns3:hr>
          </ns3:TrackPointExtension>
        </extensions>
      </trkpt>
      <trkpt lat="36.75971386022865772247314453125" lon="-118.412750065326690673828125">
        <ele>2908.39990234375</ele>
        <time>2021-06-25T15:18:32.000Z</time>
        <extensions>
          <ns3:TrackPointExtension>
            <ns3:atemp>23.0</ns3:atemp>
            <ns3:hr>91</ns3:hr>
          </ns3:TrackPointExtension>
        </extensions>
      </trkpt>
      <trkpt lat="36.75971553660929203033447265625" lon="-118.41274478472769260406494140625">
        <ele>2908.60009765625</ele>
        <time>2021-06-25T15:18:33.000Z</time>
        <extensions>
          <ns3:TrackPointExtension>
            <ns3:atemp>23.0</ns3:atemp>
            <ns3:hr>91</ns3:hr>
          </ns3:TrackPointExtension>
        </extensions>
      </trkpt>
      <trkpt lat="36.75971570424735546112060546875" lon="-118.412733972072601318359375">
        <ele>2908.60009765625</ele>
        <time>2021-06-25T15:18:34.000Z</time>
        <extensions>
          <ns3:TrackPointExtension>
            <ns3:atemp>23.0</ns3:atemp>
            <ns3:hr>88</ns3:hr>
          </ns3:TrackPointExtension>
        </extensions>
      </trkpt>
      <trkpt lat="36.759718470275402069091796875" lon="-118.41271477751433849334716796875">
        <ele>2908.60009765625</ele>
        <time>2021-06-25T15:18:35.000Z</time>
        <extensions>
          <ns3:TrackPointExtension>
            <ns3:atemp>23.0</ns3:atemp>
            <ns3:hr>91</ns3:hr>
          </ns3:TrackPointExtension>
        </extensions>
      </trkpt>
      <trkpt lat="36.7597250081598758697509765625" lon="-118.41269868426024913787841796875">
        <ele>2908.800048828125</ele>
        <time>2021-06-25T15:18:36.000Z</time>
        <extensions>
          <ns3:TrackPointExtension>
            <ns3:atemp>23.0</ns3:atemp>
            <ns3:hr>91</ns3:hr>
          </ns3:TrackPointExtension>
        </extensions>
      </trkpt>
      <trkpt lat="36.75974856130778789520263671875" lon="-118.41265711002051830291748046875">
        <ele>2909.199951171875</ele>
        <time>2021-06-25T15:18:39.000Z</time>
        <extensions>
          <ns3:TrackPointExtension>
            <ns3:atemp>23.0</ns3:atemp>
            <ns3:hr>91</ns3:hr>
          </ns3:TrackPointExtension>
        </extensions>
      </trkpt>
      <trkpt lat="36.759753338992595672607421875" lon="-118.41265057213604450225830078125">
        <ele>2909.199951171875</ele>
        <time>2021-06-25T15:18:40.000Z</time>
        <extensions>
          <ns3:TrackPointExtension>
            <ns3:atemp>23.0</ns3:atemp>
            <ns3:hr>91</ns3:hr>
          </ns3:TrackPointExtension>
        </extensions>
      </trkpt>
      <trkpt lat="36.7597759701311588287353515625" lon="-118.4126312099397182464599609375">
        <ele>2909.39990234375</ele>
        <time>2021-06-25T15:18:43.000Z</time>
        <extensions>
          <ns3:TrackPointExtension>
            <ns3:atemp>23.0</ns3:atemp>
            <ns3:hr>92</ns3:hr>
          </ns3:TrackPointExtension>
        </extensions>
      </trkpt>
      <trkpt lat="36.75978460349142551422119140625" lon="-118.41261469759047031402587890625">
        <ele>2909.60009765625</ele>
        <time>2021-06-25T15:18:45.000Z</time>
        <extensions>
          <ns3:TrackPointExtension>
            <ns3:atemp>23.0</ns3:atemp>
            <ns3:hr>93</ns3:hr>
          </ns3:TrackPointExtension>
        </extensions>
      </trkpt>
      <trkpt lat="36.75978929735720157623291015625" lon="-118.41260547749698162078857421875">
        <ele>2909.60009765625</ele>
        <time>2021-06-25T15:18:46.000Z</time>
        <extensions>
          <ns3:TrackPointExtension>
            <ns3:atemp>23.0</ns3:atemp>
            <ns3:hr>94</ns3:hr>
          </ns3:TrackPointExtension>
        </extensions>
      </trkpt>
      <trkpt lat="36.75979591906070709228515625" lon="-118.41260078363120555877685546875">
        <ele>2909.800048828125</ele>
        <time>2021-06-25T15:18:47.000Z</time>
        <extensions>
          <ns3:TrackPointExtension>
            <ns3:atemp>23.0</ns3:atemp>
            <ns3:hr>94</ns3:hr>
          </ns3:TrackPointExtension>
        </extensions>
      </trkpt>
      <trkpt lat="36.7598265968263149261474609375" lon="-118.4126067347824573516845703125">
        <ele>2910.60009765625</ele>
        <time>2021-06-25T15:18:51.000Z</time>
        <extensions>
          <ns3:TrackPointExtension>
            <ns3:atemp>23.0</ns3:atemp>
            <ns3:hr>97</ns3:hr>
          </ns3:TrackPointExtension>
        </extensions>
      </trkpt>
      <trkpt lat="36.75983036868274211883544921875" lon="-118.412613607943058013916015625">
        <ele>2910.60009765625</ele>
        <time>2021-06-25T15:18:52.000Z</time>
        <extensions>
          <ns3:TrackPointExtension>
            <ns3:atemp>23.0</ns3:atemp>
            <ns3:hr>95</ns3:hr>
          </ns3:TrackPointExtension>
        </extensions>
      </trkpt>
      <trkpt lat="36.7598356492817401885986328125" lon="-118.41262022964656352996826171875">
        <ele>2910.60009765625</ele>
        <time>2021-06-25T15:18:53.000Z</time>
        <extensions>
          <ns3:TrackPointExtension>
            <ns3:atemp>23.0</ns3:atemp>
            <ns3:hr>96</ns3:hr>
          </ns3:TrackPointExtension>
        </extensions>
      </trkpt>
      <trkpt lat="36.7598775587975978851318359375" lon="-118.41260212473571300506591796875">
        <ele>2911.39990234375</ele>
        <time>2021-06-25T15:18:59.000Z</time>
        <extensions>
          <ns3:TrackPointExtension>
            <ns3:atemp>23.0</ns3:atemp>
            <ns3:hr>98</ns3:hr>
          </ns3:TrackPointExtension>
        </extensions>
      </trkpt>
      <trkpt lat="36.759890802204608917236328125" lon="-118.41258938424289226531982421875">
        <ele>2911.800048828125</ele>
        <time>2021-06-25T15:19:01.000Z</time>
        <extensions>
          <ns3:TrackPointExtension>
            <ns3:atemp>23.0</ns3:atemp>
            <ns3:hr>99</ns3:hr>
          </ns3:TrackPointExtension>
        </extensions>
      </trkpt>
      <trkpt lat="36.75990588963031768798828125" lon="-118.41258636675775051116943359375">
        <ele>2912.199951171875</ele>
        <time>2021-06-25T15:19:03.000Z</time>
        <extensions>
          <ns3:TrackPointExtension>
            <ns3:atemp>23.0</ns3:atemp>
            <ns3:hr>99</ns3:hr>
          </ns3:TrackPointExtension>
        </extensions>
      </trkpt>
      <trkpt lat="36.7599399201571941375732421875" lon="-118.4125809185206890106201171875">
        <ele>2912.800048828125</ele>
        <time>2021-06-25T15:19:07.000Z</time>
        <extensions>
          <ns3:TrackPointExtension>
            <ns3:atemp>23.0</ns3:atemp>
            <ns3:hr>101</ns3:hr>
          </ns3:TrackPointExtension>
        </extensions>
      </trkpt>
      <trkpt lat="36.75994838587939739227294921875" lon="-118.41257463209331035614013671875">
        <ele>2913</ele>
        <time>2021-06-25T15:19:08.000Z</time>
        <extensions>
          <ns3:TrackPointExtension>
            <ns3:atemp>23.0</ns3:atemp>
            <ns3:hr>101</ns3:hr>
          </ns3:TrackPointExtension>
        </extensions>
      </trkpt>
      <trkpt lat="36.7599682509899139404296875" lon="-118.41255652718245983123779296875">
        <ele>2913.39990234375</ele>
        <time>2021-06-25T15:19:10.000Z</time>
        <extensions>
          <ns3:TrackPointExtension>
            <ns3:atemp>23.0</ns3:atemp>
            <ns3:hr>104</ns3:hr>
          </ns3:TrackPointExtension>
        </extensions>
      </trkpt>
      <trkpt lat="36.760004460811614990234375" lon="-118.41251763515174388885498046875">
        <ele>2913.60009765625</ele>
        <time>2021-06-25T15:19:13.000Z</time>
        <extensions>
          <ns3:TrackPointExtension>
            <ns3:atemp>23.0</ns3:atemp>
            <ns3:hr>104</ns3:hr>
          </ns3:TrackPointExtension>
        </extensions>
      </trkpt>
      <trkpt lat="36.760012842714786529541015625" lon="-118.41251646168529987335205078125">
        <ele>2914</ele>
        <time>2021-06-25T15:19:16.000Z</time>
        <extensions>
          <ns3:TrackPointExtension>
            <ns3:atemp>23.0</ns3:atemp>
            <ns3:hr>104</ns3:hr>
          </ns3:TrackPointExtension>
        </extensions>
      </trkpt>
      <trkpt lat="36.7600180394947528839111328125" lon="-118.4125121869146823883056640625">
        <ele>2914.39990234375</ele>
        <time>2021-06-25T15:19:17.000Z</time>
        <extensions>
          <ns3:TrackPointExtension>
            <ns3:atemp>23.0</ns3:atemp>
            <ns3:hr>105</ns3:hr>
          </ns3:TrackPointExtension>
        </extensions>
      </trkpt>
      <trkpt lat="36.7600354738533496856689453125" lon="-118.41250254772603511810302734375">
        <ele>2914.800048828125</ele>
        <time>2021-06-25T15:19:19.000Z</time>
        <extensions>
          <ns3:TrackPointExtension>
            <ns3:atemp>23.0</ns3:atemp>
            <ns3:hr>108</ns3:hr>
          </ns3:TrackPointExtension>
        </extensions>
      </trkpt>
      <trkpt lat="36.7600485496222972869873046875" lon="-118.41249047778546810150146484375">
        <ele>2915</ele>
        <time>2021-06-25T15:19:21.000Z</time>
        <extensions>
          <ns3:TrackPointExtension>
            <ns3:atemp>23.0</ns3:atemp>
            <ns3:hr>111</ns3:hr>
          </ns3:TrackPointExtension>
        </extensions>
      </trkpt>
      <trkpt lat="36.76006573252379894256591796875" lon="-118.41247312724590301513671875">
        <ele>2915.39990234375</ele>
        <time>2021-06-25T15:19:23.000Z</time>
        <extensions>
          <ns3:TrackPointExtension>
            <ns3:atemp>23.0</ns3:atemp>
            <ns3:hr>105</ns3:hr>
          </ns3:TrackPointExtension>
        </extensions>
      </trkpt>
      <trkpt lat="36.76007461734116077423095703125" lon="-118.4124672599136829376220703125">
        <ele>2915.39990234375</ele>
        <time>2021-06-25T15:19:24.000Z</time>
        <extensions>
          <ns3:TrackPointExtension>
            <ns3:atemp>23.0</ns3:atemp>
            <ns3:hr>105</ns3:hr>
          </ns3:TrackPointExtension>
        </extensions>
      </trkpt>
      <trkpt lat="36.76008266396820545196533203125" lon="-118.41245745308697223663330078125">
        <ele>2915.60009765625</ele>
        <time>2021-06-25T15:19:25.000Z</time>
        <extensions>
          <ns3:TrackPointExtension>
            <ns3:atemp>23.0</ns3:atemp>
            <ns3:hr>104</ns3:hr>
          </ns3:TrackPointExtension>
        </extensions>
      </trkpt>
      <trkpt lat="36.76009490154683589935302734375" lon="-118.41243750415742397308349609375">
        <ele>2916.199951171875</ele>
        <time>2021-06-25T15:19:28.000Z</time>
        <extensions>
          <ns3:TrackPointExtension>
            <ns3:atemp>23.0</ns3:atemp>
            <ns3:hr>107</ns3:hr>
          </ns3:TrackPointExtension>
        </extensions>
      </trkpt>
      <trkpt lat="36.7600943148136138916015625" lon="-118.4124317206442356109619140625">
        <ele>2916.39990234375</ele>
        <time>2021-06-25T15:19:29.000Z</time>
        <extensions>
          <ns3:TrackPointExtension>
            <ns3:atemp>23.0</ns3:atemp>
            <ns3:hr>107</ns3:hr>
          </ns3:TrackPointExtension>
        </extensions>
      </trkpt>
      <trkpt lat="36.76009322516620159149169921875" lon="-118.412411101162433624267578125">
        <ele>2917</ele>
        <time>2021-06-25T15:19:32.000Z</time>
        <extensions>
          <ns3:TrackPointExtension>
            <ns3:atemp>23.0</ns3:atemp>
            <ns3:hr>109</ns3:hr>
          </ns3:TrackPointExtension>
        </extensions>
      </trkpt>
      <trkpt lat="36.7600929737091064453125" lon="-118.4123948402702808380126953125">
        <ele>2917.800048828125</ele>
        <time>2021-06-25T15:19:34.000Z</time>
        <extensions>
          <ns3:TrackPointExtension>
            <ns3:atemp>23.0</ns3:atemp>
            <ns3:hr>109</ns3:hr>
          </ns3:TrackPointExtension>
        </extensions>
      </trkpt>
      <trkpt lat="36.76010906696319580078125" lon="-118.41236961074173450469970703125">
        <ele>2917.800048828125</ele>
        <time>2021-06-25T15:19:37.000Z</time>
        <extensions>
          <ns3:TrackPointExtension>
            <ns3:atemp>23.0</ns3:atemp>
            <ns3:hr>105</ns3:hr>
          </ns3:TrackPointExtension>
        </extensions>
      </trkpt>
      <trkpt lat="36.7601145990192890167236328125" lon="-118.412364162504673004150390625">
        <ele>2917.800048828125</ele>
        <time>2021-06-25T15:19:38.000Z</time>
        <extensions>
          <ns3:TrackPointExtension>
            <ns3:atemp>23.0</ns3:atemp>
            <ns3:hr>104</ns3:hr>
          </ns3:TrackPointExtension>
        </extensions>
      </trkpt>
      <trkpt lat="36.76011518575251102447509765625" lon="-118.41237656772136688232421875">
        <ele>2918</ele>
        <time>2021-06-25T15:19:41.000Z</time>
        <extensions>
          <ns3:TrackPointExtension>
            <ns3:atemp>23.0</ns3:atemp>
            <ns3:hr>101</ns3:hr>
          </ns3:TrackPointExtension>
        </extensions>
      </trkpt>
      <trkpt lat="36.76012490876019001007080078125" lon="-118.41238059103488922119140625">
        <ele>2918.60009765625</ele>
        <time>2021-06-25T15:19:44.000Z</time>
        <extensions>
          <ns3:TrackPointExtension>
            <ns3:atemp>23.0</ns3:atemp>
            <ns3:hr>98</ns3:hr>
          </ns3:TrackPointExtension>
        </extensions>
      </trkpt>
      <trkpt lat="36.76013044081628322601318359375" lon="-118.4123814292252063751220703125">
        <ele>2919</ele>
        <time>2021-06-25T15:19:46.000Z</time>
        <extensions>
          <ns3:TrackPointExtension>
            <ns3:atemp>23.0</ns3:atemp>
            <ns3:hr>98</ns3:hr>
          </ns3:TrackPointExtension>
        </extensions>
      </trkpt>
      <trkpt lat="36.76015793345868587493896484375" lon="-118.41236290521919727325439453125">
        <ele>2919.60009765625</ele>
        <time>2021-06-25T15:19:50.000Z</time>
        <extensions>
          <ns3:TrackPointExtension>
            <ns3:atemp>23.0</ns3:atemp>
            <ns3:hr>97</ns3:hr>
          </ns3:TrackPointExtension>
        </extensions>
      </trkpt>
      <trkpt lat="36.7601806484162807464599609375" lon="-118.41233306564390659332275390625">
        <ele>2919.60009765625</ele>
        <time>2021-06-25T15:19:52.000Z</time>
        <extensions>
          <ns3:TrackPointExtension>
            <ns3:atemp>23.0</ns3:atemp>
            <ns3:hr>97</ns3:hr>
          </ns3:TrackPointExtension>
        </extensions>
      </trkpt>
      <trkpt lat="36.7602000944316387176513671875" lon="-118.41232602484524250030517578125">
        <ele>2919.800048828125</ele>
        <time>2021-06-25T15:19:54.000Z</time>
        <extensions>
          <ns3:TrackPointExtension>
            <ns3:atemp>23.0</ns3:atemp>
            <ns3:hr>98</ns3:hr>
          </ns3:TrackPointExtension>
        </extensions>
      </trkpt>
      <trkpt lat="36.760205291211605072021484375" lon="-118.412324599921703338623046875">
        <ele>2920.199951171875</ele>
        <time>2021-06-25T15:19:55.000Z</time>
        <extensions>
          <ns3:TrackPointExtension>
            <ns3:atemp>23.0</ns3:atemp>
            <ns3:hr>98</ns3:hr>
          </ns3:TrackPointExtension>
        </extensions>
      </trkpt>
      <trkpt lat="36.7602285929024219512939453125" lon="-118.41229283250868320465087890625">
        <ele>2920.800048828125</ele>
        <time>2021-06-25T15:19:59.000Z</time>
        <extensions>
          <ns3:TrackPointExtension>
            <ns3:atemp>23.0</ns3:atemp>
            <ns3:hr>100</ns3:hr>
          </ns3:TrackPointExtension>
        </extensions>
      </trkpt>
      <trkpt lat="36.7602430097758769989013671875" lon="-118.412276320159435272216796875">
        <ele>2921</ele>
        <time>2021-06-25T15:20:01.000Z</time>
        <extensions>
          <ns3:TrackPointExtension>
            <ns3:atemp>23.0</ns3:atemp>
            <ns3:hr>100</ns3:hr>
          </ns3:TrackPointExtension>
        </extensions>
      </trkpt>
      <trkpt lat="36.76026740111410617828369140625" lon="-118.4122654236853122711181640625">
        <ele>2921.199951171875</ele>
        <time>2021-06-25T15:20:04.000Z</time>
        <extensions>
          <ns3:TrackPointExtension>
            <ns3:atemp>23.0</ns3:atemp>
            <ns3:hr>102</ns3:hr>
          </ns3:TrackPointExtension>
        </extensions>
      </trkpt>
      <trkpt lat="36.76026807166635990142822265625" lon="-118.41227053664624691009521484375">
        <ele>2921.60009765625</ele>
        <time>2021-06-25T15:20:05.000Z</time>
        <extensions>
          <ns3:TrackPointExtension>
            <ns3:atemp>23.0</ns3:atemp>
            <ns3:hr>103</ns3:hr>
          </ns3:TrackPointExtension>
        </extensions>
      </trkpt>
      <trkpt lat="36.7602808959782123565673828125" lon="-118.4122811816632747650146484375">
        <ele>2922</ele>
        <time>2021-06-25T15:20:07.000Z</time>
        <extensions>
          <ns3:TrackPointExtension>
            <ns3:atemp>23.0</ns3:atemp>
            <ns3:hr>104</ns3:hr>
          </ns3:TrackPointExtension>
        </extensions>
      </trkpt>
      <trkpt lat="36.76029053516685962677001953125" lon="-118.412253856658935546875">
        <ele>2922.60009765625</ele>
        <time>2021-06-25T15:20:10.000Z</time>
        <extensions>
          <ns3:TrackPointExtension>
            <ns3:atemp>23.0</ns3:atemp>
            <ns3:hr>105</ns3:hr>
          </ns3:TrackPointExtension>
        </extensions>
      </trkpt>
      <trkpt lat="36.760297827422618865966796875" lon="-118.4122456423938274383544921875">
        <ele>2922.60009765625</ele>
        <time>2021-06-25T15:20:12.000Z</time>
        <extensions>
          <ns3:TrackPointExtension>
            <ns3:atemp>23.0</ns3:atemp>
            <ns3:hr>105</ns3:hr>
          </ns3:TrackPointExtension>
        </extensions>
      </trkpt>
      <trkpt lat="36.76030553877353668212890625" lon="-118.41223935596644878387451171875">
        <ele>2922.800048828125</ele>
        <time>2021-06-25T15:20:13.000Z</time>
        <extensions>
          <ns3:TrackPointExtension>
            <ns3:atemp>23.0</ns3:atemp>
            <ns3:hr>105</ns3:hr>
          </ns3:TrackPointExtension>
        </extensions>
      </trkpt>
      <trkpt lat="36.7603224702179431915283203125" lon="-118.41221203096210956573486328125">
        <ele>2923.39990234375</ele>
        <time>2021-06-25T15:20:18.000Z</time>
        <extensions>
          <ns3:TrackPointExtension>
            <ns3:atemp>23.0</ns3:atemp>
            <ns3:hr>107</ns3:hr>
          </ns3:TrackPointExtension>
        </extensions>
      </trkpt>
      <trkpt lat="36.76032355986535549163818359375" lon="-118.412207923829555511474609375">
        <ele>2923.60009765625</ele>
        <time>2021-06-25T15:20:19.000Z</time>
        <extensions>
          <ns3:TrackPointExtension>
            <ns3:atemp>23.0</ns3:atemp>
            <ns3:hr>108</ns3:hr>
          </ns3:TrackPointExtension>
        </extensions>
      </trkpt>
      <trkpt lat="36.760326661169528961181640625" lon="-118.4122007153928279876708984375">
        <ele>2923.800048828125</ele>
        <time>2021-06-25T15:20:20.000Z</time>
        <extensions>
          <ns3:TrackPointExtension>
            <ns3:atemp>23.0</ns3:atemp>
            <ns3:hr>107</ns3:hr>
          </ns3:TrackPointExtension>
        </extensions>
      </trkpt>
      <trkpt lat="36.7603278346359729766845703125" lon="-118.41218856163322925567626953125">
        <ele>2924.199951171875</ele>
        <time>2021-06-25T15:20:22.000Z</time>
        <extensions>
          <ns3:TrackPointExtension>
            <ns3:atemp>23.0</ns3:atemp>
            <ns3:hr>107</ns3:hr>
          </ns3:TrackPointExtension>
        </extensions>
      </trkpt>
      <trkpt lat="36.76032959483563899993896484375" lon="-118.41218336485326290130615234375">
        <ele>2924.800048828125</ele>
        <time>2021-06-25T15:20:23.000Z</time>
        <extensions>
          <ns3:TrackPointExtension>
            <ns3:atemp>23.0</ns3:atemp>
            <ns3:hr>107</ns3:hr>
          </ns3:TrackPointExtension>
        </extensions>
      </trkpt>
      <trkpt lat="36.7603435926139354705810546875" lon="-118.4121705405414104461669921875">
        <ele>2925</ele>
        <time>2021-06-25T15:20:25.000Z</time>
        <extensions>
          <ns3:TrackPointExtension>
            <ns3:atemp>23.0</ns3:atemp>
            <ns3:hr>106</ns3:hr>
          </ns3:TrackPointExtension>
        </extensions>
      </trkpt>
      <trkpt lat="36.7603707499802112579345703125" lon="-118.4121313132345676422119140625">
        <ele>2925.199951171875</ele>
        <time>2021-06-25T15:20:29.000Z</time>
        <extensions>
          <ns3:TrackPointExtension>
            <ns3:atemp>23.0</ns3:atemp>
            <ns3:hr>103</ns3:hr>
          </ns3:TrackPointExtension>
        </extensions>
      </trkpt>
      <trkpt lat="36.76037527620792388916015625" lon="-118.41211178340017795562744140625">
        <ele>2925.39990234375</ele>
        <time>2021-06-25T15:20:30.000Z</time>
        <extensions>
          <ns3:TrackPointExtension>
            <ns3:atemp>23.0</ns3:atemp>
            <ns3:hr>103</ns3:hr>
          </ns3:TrackPointExtension>
        </extensions>
      </trkpt>
      <trkpt lat="36.7604042775928974151611328125" lon="-118.41205311007797718048095703125">
        <ele>2925.60009765625</ele>
        <time>2021-06-25T15:20:35.000Z</time>
        <extensions>
          <ns3:TrackPointExtension>
            <ns3:atemp>23.0</ns3:atemp>
            <ns3:hr>106</ns3:hr>
          </ns3:TrackPointExtension>
        </extensions>
      </trkpt>
      <trkpt lat="36.76040687598288059234619140625" lon="-118.41205176897346973419189453125">
        <ele>2926.199951171875</ele>
        <time>2021-06-25T15:20:36.000Z</time>
        <extensions>
          <ns3:TrackPointExtension>
            <ns3:atemp>23.0</ns3:atemp>
            <ns3:hr>107</ns3:hr>
          </ns3:TrackPointExtension>
        </extensions>
      </trkpt>
      <trkpt lat="36.76041626371443271636962890625" lon="-118.412050344049930572509765625">
        <ele>2927</ele>
        <time>2021-06-25T15:20:38.000Z</time>
        <extensions>
          <ns3:TrackPointExtension>
            <ns3:atemp>23.0</ns3:atemp>
            <ns3:hr>108</ns3:hr>
          </ns3:TrackPointExtension>
        </extensions>
      </trkpt>
      <trkpt lat="36.76043428480625152587890625" lon="-118.41203835792839527130126953125">
        <ele>2927.39990234375</ele>
        <time>2021-06-25T15:20:41.000Z</time>
        <extensions>
          <ns3:TrackPointExtension>
            <ns3:atemp>23.0</ns3:atemp>
            <ns3:hr>111</ns3:hr>
          </ns3:TrackPointExtension>
        </extensions>
      </trkpt>
      <trkpt lat="36.76043923012912273406982421875" lon="-118.41203852556645870208740234375">
        <ele>2927.60009765625</ele>
        <time>2021-06-25T15:20:44.000Z</time>
        <extensions>
          <ns3:TrackPointExtension>
            <ns3:atemp>23.0</ns3:atemp>
            <ns3:hr>115</ns3:hr>
          </ns3:TrackPointExtension>
        </extensions>
      </trkpt>
      <trkpt lat="36.760437972843647003173828125" lon="-118.41203860938549041748046875">
        <ele>2927.60009765625</ele>
        <time>2021-06-25T15:20:45.000Z</time>
        <extensions>
          <ns3:TrackPointExtension>
            <ns3:atemp>23.0</ns3:atemp>
            <ns3:hr>116</ns3:hr>
          </ns3:TrackPointExtension>
        </extensions>
      </trkpt>
      <trkpt lat="36.76043855957686901092529296875" lon="-118.412033580243587493896484375">
        <ele>2928</ele>
        <time>2021-06-25T15:20:46.000Z</time>
        <extensions>
          <ns3:TrackPointExtension>
            <ns3:atemp>23.0</ns3:atemp>
            <ns3:hr>117</ns3:hr>
          </ns3:TrackPointExtension>
        </extensions>
      </trkpt>
      <trkpt lat="36.7604404874145984649658203125" lon="-118.4120273776352405548095703125">
        <ele>2928.39990234375</ele>
        <time>2021-06-25T15:20:48.000Z</time>
        <extensions>
          <ns3:TrackPointExtension>
            <ns3:atemp>23.0</ns3:atemp>
            <ns3:hr>120</ns3:hr>
          </ns3:TrackPointExtension>
        </extensions>
      </trkpt>
      <trkpt lat="36.76045699976384639739990234375" lon="-118.41202159412205219268798828125">
        <ele>2927.60009765625</ele>
        <time>2021-06-25T15:20:50.000Z</time>
        <extensions>
          <ns3:TrackPointExtension>
            <ns3:atemp>23.0</ns3:atemp>
            <ns3:hr>121</ns3:hr>
          </ns3:TrackPointExtension>
        </extensions>
      </trkpt>
      <trkpt lat="36.760471165180206298828125" lon="-118.41199292801320552825927734375">
        <ele>2927.60009765625</ele>
        <time>2021-06-25T15:20:52.000Z</time>
        <extensions>
          <ns3:TrackPointExtension>
            <ns3:atemp>23.0</ns3:atemp>
            <ns3:hr>124</ns3:hr>
          </ns3:TrackPointExtension>
        </extensions>
      </trkpt>
      <trkpt lat="36.7604805529117584228515625" lon="-118.4119760803878307342529296875">
        <ele>2927.199951171875</ele>
        <time>2021-06-25T15:20:53.000Z</time>
        <extensions>
          <ns3:TrackPointExtension>
            <ns3:atemp>23.0</ns3:atemp>
            <ns3:hr>125</ns3:hr>
          </ns3:TrackPointExtension>
        </extensions>
      </trkpt>
      <trkpt lat="36.7604966461658477783203125" lon="-118.41195973567664623260498046875">
        <ele>2927</ele>
        <time>2021-06-25T15:20:55.000Z</time>
        <extensions>
          <ns3:TrackPointExtension>
            <ns3:atemp>23.0</ns3:atemp>
            <ns3:hr>125</ns3:hr>
          </ns3:TrackPointExtension>
        </extensions>
      </trkpt>
      <trkpt lat="36.76050310023128986358642578125" lon="-118.4119459055364131927490234375">
        <ele>2927.199951171875</ele>
        <time>2021-06-25T15:20:57.000Z</time>
        <extensions>
          <ns3:TrackPointExtension>
            <ns3:atemp>23.0</ns3:atemp>
            <ns3:hr>124</ns3:hr>
          </ns3:TrackPointExtension>
        </extensions>
      </trkpt>
      <trkpt lat="36.76052489317953586578369140625" lon="-118.411922268569469451904296875">
        <ele>2927.800048828125</ele>
        <time>2021-06-25T15:21:00.000Z</time>
        <extensions>
          <ns3:TrackPointExtension>
            <ns3:atemp>23.0</ns3:atemp>
            <ns3:hr>121</ns3:hr>
          </ns3:TrackPointExtension>
        </extensions>
      </trkpt>
      <trkpt lat="36.7605333589017391204833984375" lon="-118.41191799379885196685791015625">
        <ele>2928</ele>
        <time>2021-06-25T15:21:01.000Z</time>
        <extensions>
          <ns3:TrackPointExtension>
            <ns3:atemp>23.0</ns3:atemp>
            <ns3:hr>121</ns3:hr>
          </ns3:TrackPointExtension>
        </extensions>
      </trkpt>
      <trkpt lat="36.76054182462394237518310546875" lon="-118.41191112063825130462646484375">
        <ele>2928</ele>
        <time>2021-06-25T15:21:02.000Z</time>
        <extensions>
          <ns3:TrackPointExtension>
            <ns3:atemp>23.0</ns3:atemp>
            <ns3:hr>121</ns3:hr>
          </ns3:TrackPointExtension>
        </extensions>
      </trkpt>
      <trkpt lat="36.76055967807769775390625" lon="-118.41188798658549785614013671875">
        <ele>2928.39990234375</ele>
        <time>2021-06-25T15:21:05.000Z</time>
        <extensions>
          <ns3:TrackPointExtension>
            <ns3:atemp>23.0</ns3:atemp>
            <ns3:hr>124</ns3:hr>
          </ns3:TrackPointExtension>
        </extensions>
      </trkpt>
      <trkpt lat="36.7605621926486492156982421875" lon="-118.41188111342489719390869140625">
        <ele>2928.60009765625</ele>
        <time>2021-06-25T15:21:06.000Z</time>
        <extensions>
          <ns3:TrackPointExtension>
            <ns3:atemp>23.0</ns3:atemp>
            <ns3:hr>121</ns3:hr>
          </ns3:TrackPointExtension>
        </extensions>
      </trkpt>
      <trkpt lat="36.76057501696050167083740234375" lon="-118.41186887584626674652099609375">
        <ele>2929.39990234375</ele>
        <time>2021-06-25T15:21:09.000Z</time>
        <extensions>
          <ns3:TrackPointExtension>
            <ns3:atemp>23.0</ns3:atemp>
            <ns3:hr>124</ns3:hr>
          </ns3:TrackPointExtension>
        </extensions>
      </trkpt>
      <trkpt lat="36.7605796270072460174560546875" lon="-118.4118635952472686767578125">
        <ele>2929.60009765625</ele>
        <time>2021-06-25T15:21:10.000Z</time>
        <extensions>
          <ns3:TrackPointExtension>
            <ns3:atemp>23.0</ns3:atemp>
            <ns3:hr>123</ns3:hr>
          </ns3:TrackPointExtension>
        </extensions>
      </trkpt>
      <trkpt lat="36.7605865001678466796875" lon="-118.41185496188700199127197265625">
        <ele>2930</ele>
        <time>2021-06-25T15:21:11.000Z</time>
        <extensions>
          <ns3:TrackPointExtension>
            <ns3:atemp>23.0</ns3:atemp>
            <ns3:hr>123</ns3:hr>
          </ns3:TrackPointExtension>
        </extensions>
      </trkpt>
      <trkpt lat="36.7606084607541561126708984375" lon="-118.41181724332273006439208984375">
        <ele>2930</ele>
        <time>2021-06-25T15:21:15.000Z</time>
        <extensions>
          <ns3:TrackPointExtension>
            <ns3:atemp>23.0</ns3:atemp>
            <ns3:hr>120</ns3:hr>
          </ns3:TrackPointExtension>
        </extensions>
      </trkpt>
      <trkpt lat="36.7606111429631710052490234375" lon="-118.41180835850536823272705078125">
        <ele>2930</ele>
        <time>2021-06-25T15:21:16.000Z</time>
        <extensions>
          <ns3:TrackPointExtension>
            <ns3:atemp>23.0</ns3:atemp>
            <ns3:hr>120</ns3:hr>
          </ns3:TrackPointExtension>
        </extensions>
      </trkpt>
      <trkpt lat="36.76059848628938198089599609375" lon="-118.411756642162799835205078125">
        <ele>2929.60009765625</ele>
        <time>2021-06-25T15:21:20.000Z</time>
        <extensions>
          <ns3:TrackPointExtension>
            <ns3:atemp>23.0</ns3:atemp>
            <ns3:hr>117</ns3:hr>
          </ns3:TrackPointExtension>
        </extensions>
      </trkpt>
      <trkpt lat="36.7606305889785289764404296875" lon="-118.41168883256614208221435546875">
        <ele>2930.60009765625</ele>
        <time>2021-06-25T15:21:28.000Z</time>
        <extensions>
          <ns3:TrackPointExtension>
            <ns3:atemp>23.0</ns3:atemp>
            <ns3:hr>119</ns3:hr>
          </ns3:TrackPointExtension>
        </extensions>
      </trkpt>
      <trkpt lat="36.76063410937786102294921875" lon="-118.41168187558650970458984375">
        <ele>2930.60009765625</ele>
        <time>2021-06-25T15:21:29.000Z</time>
        <extensions>
          <ns3:TrackPointExtension>
            <ns3:atemp>23.0</ns3:atemp>
            <ns3:hr>118</ns3:hr>
          </ns3:TrackPointExtension>
        </extensions>
      </trkpt>
      <trkpt lat="36.7606443352997303009033203125" lon="-118.4116570651531219482421875">
        <ele>2931.199951171875</ele>
        <time>2021-06-25T15:21:33.000Z</time>
        <extensions>
          <ns3:TrackPointExtension>
            <ns3:atemp>23.0</ns3:atemp>
            <ns3:hr>117</ns3:hr>
          </ns3:TrackPointExtension>
        </extensions>
      </trkpt>
      <trkpt lat="36.76065380685031414031982421875" lon="-118.41163091361522674560546875">
        <ele>2931.39990234375</ele>
        <time>2021-06-25T15:21:36.000Z</time>
        <extensions>
          <ns3:TrackPointExtension>
            <ns3:atemp>23.0</ns3:atemp>
            <ns3:hr>117</ns3:hr>
          </ns3:TrackPointExtension>
        </extensions>
      </trkpt>
      <trkpt lat="36.76070694811642169952392578125" lon="-118.41157031245529651641845703125">
        <ele>2932.39990234375</ele>
        <time>2021-06-25T15:21:42.000Z</time>
        <extensions>
          <ns3:TrackPointExtension>
            <ns3:atemp>23.0</ns3:atemp>
            <ns3:hr>115</ns3:hr>
          </ns3:TrackPointExtension>
        </extensions>
      </trkpt>
      <trkpt lat="36.760708875954151153564453125" lon="-118.411561511456966400146484375">
        <ele>2932.39990234375</ele>
        <time>2021-06-25T15:21:44.000Z</time>
        <extensions>
          <ns3:TrackPointExtension>
            <ns3:atemp>23.0</ns3:atemp>
            <ns3:hr>115</ns3:hr>
          </ns3:TrackPointExtension>
        </extensions>
      </trkpt>
      <trkpt lat="36.760719604790210723876953125" lon="-118.411556817591190338134765625">
        <ele>2933.39990234375</ele>
        <time>2021-06-25T15:21:47.000Z</time>
        <extensions>
          <ns3:TrackPointExtension>
            <ns3:atemp>23.0</ns3:atemp>
            <ns3:hr>114</ns3:hr>
          </ns3:TrackPointExtension>
        </extensions>
      </trkpt>
      <trkpt lat="36.76073041744530200958251953125" lon="-118.41150225140154361724853515625">
        <ele>2934.60009765625</ele>
        <time>2021-06-25T15:21:54.000Z</time>
        <extensions>
          <ns3:TrackPointExtension>
            <ns3:atemp>23.0</ns3:atemp>
            <ns3:hr>111</ns3:hr>
          </ns3:TrackPointExtension>
        </extensions>
      </trkpt>
      <trkpt lat="36.76075371913611888885498046875" lon="-118.4114678017795085906982421875">
        <ele>2935.60009765625</ele>
        <time>2021-06-25T15:22:00.000Z</time>
        <extensions>
          <ns3:TrackPointExtension>
            <ns3:atemp>23.0</ns3:atemp>
            <ns3:hr>111</ns3:hr>
          </ns3:TrackPointExtension>
        </extensions>
      </trkpt>
      <trkpt lat="36.76075480878353118896484375" lon="-118.4114647842943668365478515625">
        <ele>2935.199951171875</ele>
        <time>2021-06-25T15:22:02.000Z</time>
        <extensions>
          <ns3:TrackPointExtension>
            <ns3:atemp>23.0</ns3:atemp>
            <ns3:hr>112</ns3:hr>
          </ns3:TrackPointExtension>
        </extensions>
      </trkpt>
      <trkpt lat="36.76073779352009296417236328125" lon="-118.411513231694698333740234375">
        <ele>2935.60009765625</ele>
        <time>2021-06-25T15:22:08.000Z</time>
        <extensions>
          <ns3:TrackPointExtension>
            <ns3:atemp>23.0</ns3:atemp>
            <ns3:hr>115</ns3:hr>
          </ns3:TrackPointExtension>
        </extensions>
      </trkpt>
      <trkpt lat="36.76075120456516742706298828125" lon="-118.41154038906097412109375">
        <ele>2935.800048828125</ele>
        <time>2021-06-25T15:22:13.000Z</time>
        <extensions>
          <ns3:TrackPointExtension>
            <ns3:atemp>23.0</ns3:atemp>
            <ns3:hr>118</ns3:hr>
          </ns3:TrackPointExtension>
        </extensions>
      </trkpt>
      <trkpt lat="36.76072555594146251678466796875" lon="-118.4115861542522907257080078125">
        <ele>2936.60009765625</ele>
        <time>2021-06-25T15:22:17.000Z</time>
        <extensions>
          <ns3:TrackPointExtension>
            <ns3:atemp>23.0</ns3:atemp>
            <ns3:hr>118</ns3:hr>
          </ns3:TrackPointExtension>
        </extensions>
      </trkpt>
      <trkpt lat="36.76072069443762302398681640625" lon="-118.41161440126597881317138671875">
        <ele>2937.60009765625</ele>
        <time>2021-06-25T15:22:20.000Z</time>
        <extensions>
          <ns3:TrackPointExtension>
            <ns3:atemp>23.0</ns3:atemp>
            <ns3:hr>118</ns3:hr>
          </ns3:TrackPointExtension>
        </extensions>
      </trkpt>
      <trkpt lat="36.76073108799755573272705078125" lon="-118.41162680648267269134521484375">
        <ele>2937.800048828125</ele>
        <time>2021-06-25T15:22:22.000Z</time>
        <extensions>
          <ns3:TrackPointExtension>
            <ns3:atemp>23.0</ns3:atemp>
            <ns3:hr>118</ns3:hr>
          </ns3:TrackPointExtension>
        </extensions>
      </trkpt>
      <trkpt lat="36.76077517680823802947998046875" lon="-118.4116277284920215606689453125">
        <ele>2938.800048828125</ele>
        <time>2021-06-25T15:22:27.000Z</time>
        <extensions>
          <ns3:TrackPointExtension>
            <ns3:atemp>22.0</ns3:atemp>
            <ns3:hr>117</ns3:hr>
          </ns3:TrackPointExtension>
        </extensions>
      </trkpt>
      <trkpt lat="36.76077517680823802947998046875" lon="-118.4116277284920215606689453125">
        <ele>2939</ele>
        <time>2021-06-25T15:22:28.000Z</time>
        <extensions>
          <ns3:TrackPointExtension>
            <ns3:atemp>22.0</ns3:atemp>
            <ns3:hr>117</ns3:hr>
          </ns3:TrackPointExtension>
        </extensions>
      </trkpt>
      <trkpt lat="36.76080971024930477142333984375" lon="-118.41162160970270633697509765625">
        <ele>2939.800048828125</ele>
        <time>2021-06-25T15:22:33.000Z</time>
        <extensions>
          <ns3:TrackPointExtension>
            <ns3:atemp>22.0</ns3:atemp>
            <ns3:hr>117</ns3:hr>
          </ns3:TrackPointExtension>
        </extensions>
      </trkpt>
      <trkpt lat="36.76082228310406208038330078125" lon="-118.41158724389970302581787109375">
        <ele>2940</ele>
        <time>2021-06-25T15:22:35.000Z</time>
        <extensions>
          <ns3:TrackPointExtension>
            <ns3:atemp>22.0</ns3:atemp>
            <ns3:hr>118</ns3:hr>
          </ns3:TrackPointExtension>
        </extensions>
      </trkpt>
      <trkpt lat="36.7608297429978847503662109375" lon="-118.411570899188518524169921875">
        <ele>2940.199951171875</ele>
        <time>2021-06-25T15:22:36.000Z</time>
        <extensions>
          <ns3:TrackPointExtension>
            <ns3:atemp>22.0</ns3:atemp>
            <ns3:hr>123</ns3:hr>
          </ns3:TrackPointExtension>
        </extensions>
      </trkpt>
      <trkpt lat="36.76083267666399478912353515625" lon="-118.4115605056285858154296875">
        <ele>2940.199951171875</ele>
        <time>2021-06-25T15:22:37.000Z</time>
        <extensions>
          <ns3:TrackPointExtension>
            <ns3:atemp>22.0</ns3:atemp>
            <ns3:hr>121</ns3:hr>
          </ns3:TrackPointExtension>
        </extensions>
      </trkpt>
      <trkpt lat="36.7608364485204219818115234375" lon="-118.41154600493609905242919921875">
        <ele>2940.60009765625</ele>
        <time>2021-06-25T15:22:39.000Z</time>
        <extensions>
          <ns3:TrackPointExtension>
            <ns3:atemp>22.0</ns3:atemp>
            <ns3:hr>118</ns3:hr>
          </ns3:TrackPointExtension>
        </extensions>
      </trkpt>
      <trkpt lat="36.76083820872008800506591796875" lon="-118.4115398861467838287353515625">
        <ele>2940.800048828125</ele>
        <time>2021-06-25T15:22:40.000Z</time>
        <extensions>
          <ns3:TrackPointExtension>
            <ns3:atemp>22.0</ns3:atemp>
            <ns3:hr>118</ns3:hr>
          </ns3:TrackPointExtension>
        </extensions>
      </trkpt>
      <trkpt lat="36.7608434893190860748291015625" lon="-118.4115254692733287811279296875">
        <ele>2941.199951171875</ele>
        <time>2021-06-25T15:22:42.000Z</time>
        <extensions>
          <ns3:TrackPointExtension>
            <ns3:atemp>22.0</ns3:atemp>
            <ns3:hr>117</ns3:hr>
          </ns3:TrackPointExtension>
        </extensions>
      </trkpt>
      <trkpt lat="36.76085212267935276031494140625" lon="-118.41150887310504913330078125">
        <ele>2941.39990234375</ele>
        <time>2021-06-25T15:22:45.000Z</time>
        <extensions>
          <ns3:TrackPointExtension>
            <ns3:atemp>22.0</ns3:atemp>
            <ns3:hr>115</ns3:hr>
          </ns3:TrackPointExtension>
        </extensions>
      </trkpt>
      <trkpt lat="36.76088062115013599395751953125" lon="-118.4115093760192394256591796875">
        <ele>2942.60009765625</ele>
        <time>2021-06-25T15:22:50.000Z</time>
        <extensions>
          <ns3:TrackPointExtension>
            <ns3:atemp>22.0</ns3:atemp>
            <ns3:hr>112</ns3:hr>
          </ns3:TrackPointExtension>
        </extensions>
      </trkpt>
      <trkpt lat="36.7608967982232570648193359375" lon="-118.4114993177354335784912109375">
        <ele>2942.800048828125</ele>
        <time>2021-06-25T15:22:53.000Z</time>
        <extensions>
          <ns3:TrackPointExtension>
            <ns3:atemp>22.0</ns3:atemp>
            <ns3:hr>112</ns3:hr>
          </ns3:TrackPointExtension>
        </extensions>
      </trkpt>
      <trkpt lat="36.76091817207634449005126953125" lon="-118.41147375293076038360595703125">
        <ele>2943.60009765625</ele>
        <time>2021-06-25T15:22:59.000Z</time>
        <extensions>
          <ns3:TrackPointExtension>
            <ns3:atemp>22.0</ns3:atemp>
            <ns3:hr>111</ns3:hr>
          </ns3:TrackPointExtension>
        </extensions>
      </trkpt>
      <trkpt lat="36.76092169247567653656005859375" lon="-118.41145866550505161285400390625">
        <ele>2944.199951171875</ele>
        <time>2021-06-25T15:23:02.000Z</time>
        <extensions>
          <ns3:TrackPointExtension>
            <ns3:atemp>23.0</ns3:atemp>
            <ns3:hr>110</ns3:hr>
          </ns3:TrackPointExtension>
        </extensions>
      </trkpt>
      <trkpt lat="36.760932169854640960693359375" lon="-118.41143871657550334930419921875">
        <ele>2944.60009765625</ele>
        <time>2021-06-25T15:23:04.000Z</time>
        <extensions>
          <ns3:TrackPointExtension>
            <ns3:atemp>23.0</ns3:atemp>
            <ns3:hr>110</ns3:hr>
          </ns3:TrackPointExtension>
        </extensions>
      </trkpt>
      <trkpt lat="36.76093854010105133056640625" lon="-118.41142916120588779449462890625">
        <ele>2944.800048828125</ele>
        <time>2021-06-25T15:23:05.000Z</time>
        <extensions>
          <ns3:TrackPointExtension>
            <ns3:atemp>22.0</ns3:atemp>
            <ns3:hr>107</ns3:hr>
          </ns3:TrackPointExtension>
        </extensions>
      </trkpt>
      <trkpt lat="36.76094926893711090087890625" lon="-118.41142128221690654754638671875">
        <ele>2945</ele>
        <time>2021-06-25T15:23:08.000Z</time>
        <extensions>
          <ns3:TrackPointExtension>
            <ns3:atemp>23.0</ns3:atemp>
            <ns3:hr>110</ns3:hr>
          </ns3:TrackPointExtension>
        </extensions>
      </trkpt>
      <trkpt lat="36.76096670329570770263671875" lon="-118.41141960583627223968505859375">
        <ele>2945.199951171875</ele>
        <time>2021-06-25T15:23:11.000Z</time>
        <extensions>
          <ns3:TrackPointExtension>
            <ns3:atemp>22.0</ns3:atemp>
            <ns3:hr>109</ns3:hr>
          </ns3:TrackPointExtension>
        </extensions>
      </trkpt>
      <trkpt lat="36.76099863834679126739501953125" lon="-118.4114024229347705841064453125">
        <ele>2946</ele>
        <time>2021-06-25T15:23:17.000Z</time>
        <extensions>
          <ns3:TrackPointExtension>
            <ns3:atemp>23.0</ns3:atemp>
            <ns3:hr>112</ns3:hr>
          </ns3:TrackPointExtension>
        </extensions>
      </trkpt>
      <trkpt lat="36.7610009014606475830078125" lon="-118.4113873355090618133544921875">
        <ele>2946.39990234375</ele>
        <time>2021-06-25T15:23:19.000Z</time>
        <extensions>
          <ns3:TrackPointExtension>
            <ns3:atemp>23.0</ns3:atemp>
            <ns3:hr>113</ns3:hr>
          </ns3:TrackPointExtension>
        </extensions>
      </trkpt>
      <trkpt lat="36.76102194003760814666748046875" lon="-118.4113598428666591644287109375">
        <ele>2947</ele>
        <time>2021-06-25T15:23:23.000Z</time>
        <extensions>
          <ns3:TrackPointExtension>
            <ns3:atemp>23.0</ns3:atemp>
            <ns3:hr>115</ns3:hr>
          </ns3:TrackPointExtension>
        </extensions>
      </trkpt>
      <trkpt lat="36.761040128767490386962890625" lon="-118.411333523690700531005859375">
        <ele>2947.60009765625</ele>
        <time>2021-06-25T15:23:28.000Z</time>
        <extensions>
          <ns3:TrackPointExtension>
            <ns3:atemp>23.0</ns3:atemp>
            <ns3:hr>116</ns3:hr>
          </ns3:TrackPointExtension>
        </extensions>
      </trkpt>
      <trkpt lat="36.7611016519367694854736328125" lon="-118.4112800471484661102294921875">
        <ele>2948</ele>
        <time>2021-06-25T15:23:35.000Z</time>
        <extensions>
          <ns3:TrackPointExtension>
            <ns3:atemp>23.0</ns3:atemp>
            <ns3:hr>114</ns3:hr>
          </ns3:TrackPointExtension>
        </extensions>
      </trkpt>
      <trkpt lat="36.7611063458025455474853515625" lon="-118.41127191670238971710205078125">
        <ele>2948.199951171875</ele>
        <time>2021-06-25T15:23:36.000Z</time>
        <extensions>
          <ns3:TrackPointExtension>
            <ns3:atemp>23.0</ns3:atemp>
            <ns3:hr>114</ns3:hr>
          </ns3:TrackPointExtension>
        </extensions>
      </trkpt>
      <trkpt lat="36.76112201996147632598876953125" lon="-118.4112599305808544158935546875">
        <ele>2948.60009765625</ele>
        <time>2021-06-25T15:23:38.000Z</time>
        <extensions>
          <ns3:TrackPointExtension>
            <ns3:atemp>23.0</ns3:atemp>
            <ns3:hr>115</ns3:hr>
          </ns3:TrackPointExtension>
        </extensions>
      </trkpt>
      <trkpt lat="36.76113895140588283538818359375" lon="-118.41124425642192363739013671875">
        <ele>2948.800048828125</ele>
        <time>2021-06-25T15:23:41.000Z</time>
        <extensions>
          <ns3:TrackPointExtension>
            <ns3:atemp>23.0</ns3:atemp>
            <ns3:hr>116</ns3:hr>
          </ns3:TrackPointExtension>
        </extensions>
      </trkpt>
      <trkpt lat="36.7611485905945301055908203125" lon="-118.41122698970139026641845703125">
        <ele>2949</ele>
        <time>2021-06-25T15:23:43.000Z</time>
        <extensions>
          <ns3:TrackPointExtension>
            <ns3:atemp>23.0</ns3:atemp>
            <ns3:hr>116</ns3:hr>
          </ns3:TrackPointExtension>
        </extensions>
      </trkpt>
      <trkpt lat="36.7611502669751644134521484375" lon="-118.41121944598853588104248046875">
        <ele>2949.199951171875</ele>
        <time>2021-06-25T15:23:45.000Z</time>
        <extensions>
          <ns3:TrackPointExtension>
            <ns3:atemp>23.0</ns3:atemp>
            <ns3:hr>116</ns3:hr>
          </ns3:TrackPointExtension>
        </extensions>
      </trkpt>
      <trkpt lat="36.76115772686898708343505859375" lon="-118.411210142076015472412109375">
        <ele>2949.39990234375</ele>
        <time>2021-06-25T15:23:46.000Z</time>
        <extensions>
          <ns3:TrackPointExtension>
            <ns3:atemp>23.0</ns3:atemp>
            <ns3:hr>116</ns3:hr>
          </ns3:TrackPointExtension>
        </extensions>
      </trkpt>
      <trkpt lat="36.761176586151123046875" lon="-118.41117560863494873046875">
        <ele>2949.800048828125</ele>
        <time>2021-06-25T15:23:49.000Z</time>
        <extensions>
          <ns3:TrackPointExtension>
            <ns3:atemp>23.0</ns3:atemp>
            <ns3:hr>118</ns3:hr>
          </ns3:TrackPointExtension>
        </extensions>
      </trkpt>
      <trkpt lat="36.7611884884536266326904296875" lon="-118.4111740998923778533935546875">
        <ele>2950.39990234375</ele>
        <time>2021-06-25T15:23:53.000Z</time>
        <extensions>
          <ns3:TrackPointExtension>
            <ns3:atemp>23.0</ns3:atemp>
            <ns3:hr>116</ns3:hr>
          </ns3:TrackPointExtension>
        </extensions>
      </trkpt>
      <trkpt lat="36.7611801065504550933837890625" lon="-118.41118273325264453887939453125">
        <ele>2950.60009765625</ele>
        <time>2021-06-25T15:23:54.000Z</time>
        <extensions>
          <ns3:TrackPointExtension>
            <ns3:atemp>23.0</ns3:atemp>
            <ns3:hr>116</ns3:hr>
          </ns3:TrackPointExtension>
        </extensions>
      </trkpt>
      <trkpt lat="36.76118262112140655517578125" lon="-118.41121877543628215789794921875">
        <ele>2951.60009765625</ele>
        <time>2021-06-25T15:24:00.000Z</time>
        <extensions>
          <ns3:TrackPointExtension>
            <ns3:atemp>23.0</ns3:atemp>
            <ns3:hr>113</ns3:hr>
          </ns3:TrackPointExtension>
        </extensions>
      </trkpt>
      <trkpt lat="36.761184297502040863037109375" lon="-118.4112257324159145355224609375">
        <ele>2951.60009765625</ele>
        <time>2021-06-25T15:24:02.000Z</time>
        <extensions>
          <ns3:TrackPointExtension>
            <ns3:atemp>23.0</ns3:atemp>
            <ns3:hr>111</ns3:hr>
          </ns3:TrackPointExtension>
        </extensions>
      </trkpt>
      <trkpt lat="36.76117868162691593170166015625" lon="-118.411227576434612274169921875">
        <ele>2952.60009765625</ele>
        <time>2021-06-25T15:24:05.000Z</time>
        <extensions>
          <ns3:TrackPointExtension>
            <ns3:atemp>22.0</ns3:atemp>
            <ns3:hr>110</ns3:hr>
          </ns3:TrackPointExtension>
        </extensions>
      </trkpt>
      <trkpt lat="36.76119125448167324066162109375" lon="-118.4112441726028919219970703125">
        <ele>2953</ele>
        <time>2021-06-25T15:24:09.000Z</time>
        <extensions>
          <ns3:TrackPointExtension>
            <ns3:atemp>22.0</ns3:atemp>
            <ns3:hr>111</ns3:hr>
          </ns3:TrackPointExtension>
        </extensions>
      </trkpt>
      <trkpt lat="36.76119594834744930267333984375" lon="-118.41127359308302402496337890625">
        <ele>2953.800048828125</ele>
        <time>2021-06-25T15:24:13.000Z</time>
        <extensions>
          <ns3:TrackPointExtension>
            <ns3:atemp>22.0</ns3:atemp>
            <ns3:hr>113</ns3:hr>
          </ns3:TrackPointExtension>
        </extensions>
      </trkpt>
      <trkpt lat="36.761189997196197509765625" lon="-118.411313407123088836669921875">
        <ele>2954.199951171875</ele>
        <time>2021-06-25T15:24:19.000Z</time>
        <extensions>
          <ns3:TrackPointExtension>
            <ns3:atemp>22.0</ns3:atemp>
            <ns3:hr>114</ns3:hr>
          </ns3:TrackPointExtension>
        </extensions>
      </trkpt>
      <trkpt lat="36.761206090450286865234375" lon="-118.41134928166866302490234375">
        <ele>2955</ele>
        <time>2021-06-25T15:24:23.000Z</time>
        <extensions>
          <ns3:TrackPointExtension>
            <ns3:atemp>22.0</ns3:atemp>
            <ns3:hr>114</ns3:hr>
          </ns3:TrackPointExtension>
        </extensions>
      </trkpt>
      <trkpt lat="36.76122562028467655181884765625" lon="-118.41138071380555629730224609375">
        <ele>2955.199951171875</ele>
        <time>2021-06-25T15:24:27.000Z</time>
        <extensions>
          <ns3:TrackPointExtension>
            <ns3:atemp>22.0</ns3:atemp>
            <ns3:hr>116</ns3:hr>
          </ns3:TrackPointExtension>
        </extensions>
      </trkpt>
      <trkpt lat="36.76122553646564483642578125" lon="-118.4113926999270915985107421875">
        <ele>2955.39990234375</ele>
        <time>2021-06-25T15:24:28.000Z</time>
        <extensions>
          <ns3:TrackPointExtension>
            <ns3:atemp>22.0</ns3:atemp>
            <ns3:hr>115</ns3:hr>
          </ns3:TrackPointExtension>
        </extensions>
      </trkpt>
      <trkpt lat="36.76122779957950115203857421875" lon="-118.4114175103604793548583984375">
        <ele>2955.800048828125</ele>
        <time>2021-06-25T15:24:30.000Z</time>
        <extensions>
          <ns3:TrackPointExtension>
            <ns3:atemp>22.0</ns3:atemp>
            <ns3:hr>114</ns3:hr>
          </ns3:TrackPointExtension>
        </extensions>
      </trkpt>
      <trkpt lat="36.76122955977916717529296875" lon="-118.41143167577683925628662109375">
        <ele>2956.199951171875</ele>
        <time>2021-06-25T15:24:32.000Z</time>
        <extensions>
          <ns3:TrackPointExtension>
            <ns3:atemp>22.0</ns3:atemp>
            <ns3:hr>117</ns3:hr>
          </ns3:TrackPointExtension>
        </extensions>
      </trkpt>
      <trkpt lat="36.76123852841556072235107421875" lon="-118.4114439971745014190673828125">
        <ele>2957</ele>
        <time>2021-06-25T15:24:35.000Z</time>
        <extensions>
          <ns3:TrackPointExtension>
            <ns3:atemp>22.0</ns3:atemp>
            <ns3:hr>116</ns3:hr>
          </ns3:TrackPointExtension>
        </extensions>
      </trkpt>
      <trkpt lat="36.761246658861637115478515625" lon="-118.41146017424762248992919921875">
        <ele>2957.199951171875</ele>
        <time>2021-06-25T15:24:37.000Z</time>
        <extensions>
          <ns3:TrackPointExtension>
            <ns3:atemp>22.0</ns3:atemp>
            <ns3:hr>115</ns3:hr>
          </ns3:TrackPointExtension>
        </extensions>
      </trkpt>
      <trkpt lat="36.76124573685228824615478515625" lon="-118.41150241903960704803466796875">
        <ele>2958.199951171875</ele>
        <time>2021-06-25T15:24:42.000Z</time>
        <extensions>
          <ns3:TrackPointExtension>
            <ns3:atemp>22.0</ns3:atemp>
            <ns3:hr>118</ns3:hr>
          </ns3:TrackPointExtension>
        </extensions>
      </trkpt>
      <trkpt lat="36.7612444795668125152587890625" lon="-118.4115090407431125640869140625">
        <ele>2958.199951171875</ele>
        <time>2021-06-25T15:24:43.000Z</time>
        <extensions>
          <ns3:TrackPointExtension>
            <ns3:atemp>22.0</ns3:atemp>
            <ns3:hr>119</ns3:hr>
          </ns3:TrackPointExtension>
        </extensions>
      </trkpt>
      <trkpt lat="36.761269457638263702392578125" lon="-118.41154684312641620635986328125">
        <ele>2959</ele>
        <time>2021-06-25T15:24:51.000Z</time>
        <extensions>
          <ns3:TrackPointExtension>
            <ns3:atemp>22.0</ns3:atemp>
            <ns3:hr>119</ns3:hr>
          </ns3:TrackPointExtension>
        </extensions>
      </trkpt>
      <trkpt lat="36.76128127612173557281494140625" lon="-118.41155438683927059173583984375">
        <ele>2959.39990234375</ele>
        <time>2021-06-25T15:24:52.000Z</time>
        <extensions>
          <ns3:TrackPointExtension>
            <ns3:atemp>22.0</ns3:atemp>
            <ns3:hr>119</ns3:hr>
          </ns3:TrackPointExtension>
        </extensions>
      </trkpt>
      <trkpt lat="36.76134045235812664031982421875" lon="-118.41155488975346088409423828125">
        <ele>2960</ele>
        <time>2021-06-25T15:24:58.000Z</time>
        <extensions>
          <ns3:TrackPointExtension>
            <ns3:atemp>22.0</ns3:atemp>
            <ns3:hr>120</ns3:hr>
          </ns3:TrackPointExtension>
        </extensions>
      </trkpt>
      <trkpt lat="36.7613500915467739105224609375" lon="-118.41156377457082271575927734375">
        <ele>2960.39990234375</ele>
        <time>2021-06-25T15:25:00.000Z</time>
        <extensions>
          <ns3:TrackPointExtension>
            <ns3:atemp>22.0</ns3:atemp>
            <ns3:hr>119</ns3:hr>
          </ns3:TrackPointExtension>
        </extensions>
      </trkpt>
      <trkpt lat="36.76138420589268207550048828125" lon="-118.4115596674382686614990234375">
        <ele>2961.199951171875</ele>
        <time>2021-06-25T15:25:06.000Z</time>
        <extensions>
          <ns3:TrackPointExtension>
            <ns3:atemp>22.0</ns3:atemp>
            <ns3:hr>116</ns3:hr>
          </ns3:TrackPointExtension>
        </extensions>
      </trkpt>
      <trkpt lat="36.7613966949284076690673828125" lon="-118.41154181398451328277587890625">
        <ele>2961.800048828125</ele>
        <time>2021-06-25T15:25:08.000Z</time>
        <extensions>
          <ns3:TrackPointExtension>
            <ns3:atemp>22.0</ns3:atemp>
            <ns3:hr>115</ns3:hr>
          </ns3:TrackPointExtension>
        </extensions>
      </trkpt>
      <trkpt lat="36.76139929331839084625244140625" lon="-118.4115405566990375518798828125">
        <ele>2961.800048828125</ele>
        <time>2021-06-25T15:25:09.000Z</time>
        <extensions>
          <ns3:TrackPointExtension>
            <ns3:atemp>22.0</ns3:atemp>
            <ns3:hr>111</ns3:hr>
          </ns3:TrackPointExtension>
        </extensions>
      </trkpt>
      <trkpt lat="36.76141186617314815521240234375" lon="-118.41154064051806926727294921875">
        <ele>2962</ele>
        <time>2021-06-25T15:25:11.000Z</time>
        <extensions>
          <ns3:TrackPointExtension>
            <ns3:atemp>22.0</ns3:atemp>
            <ns3:hr>114</ns3:hr>
          </ns3:TrackPointExtension>
        </extensions>
      </trkpt>
      <trkpt lat="36.76143080927431583404541015625" lon="-118.41153712011873722076416015625">
        <ele>2962.199951171875</ele>
        <time>2021-06-25T15:25:14.000Z</time>
        <extensions>
          <ns3:TrackPointExtension>
            <ns3:atemp>22.0</ns3:atemp>
            <ns3:hr>113</ns3:hr>
          </ns3:TrackPointExtension>
        </extensions>
      </trkpt>
      <trkpt lat="36.7614406161010265350341796875" lon="-118.411515913903713226318359375">
        <ele>2962.800048828125</ele>
        <time>2021-06-25T15:25:16.000Z</time>
        <extensions>
          <ns3:TrackPointExtension>
            <ns3:atemp>22.0</ns3:atemp>
            <ns3:hr>112</ns3:hr>
          </ns3:TrackPointExtension>
        </extensions>
      </trkpt>
      <trkpt lat="36.7614925839006900787353515625" lon="-118.41147056780755519866943359375">
        <ele>2962.800048828125</ele>
        <time>2021-06-25T15:25:22.000Z</time>
        <extensions>
          <ns3:TrackPointExtension>
            <ns3:atemp>23.0</ns3:atemp>
            <ns3:hr>111</ns3:hr>
          </ns3:TrackPointExtension>
        </extensions>
      </trkpt>
      <trkpt lat="36.7614944279193878173828125" lon="-118.41145883314311504364013671875">
        <ele>2963.800048828125</ele>
        <time>2021-06-25T15:25:28.000Z</time>
        <extensions>
          <ns3:TrackPointExtension>
            <ns3:atemp>23.0</ns3:atemp>
            <ns3:hr>108</ns3:hr>
          </ns3:TrackPointExtension>
        </extensions>
      </trkpt>
      <trkpt lat="36.761496104300022125244140625" lon="-118.41145229525864124298095703125">
        <ele>2963.800048828125</ele>
        <time>2021-06-25T15:25:29.000Z</time>
        <extensions>
          <ns3:TrackPointExtension>
            <ns3:atemp>23.0</ns3:atemp>
            <ns3:hr>108</ns3:hr>
          </ns3:TrackPointExtension>
        </extensions>
      </trkpt>
      <trkpt lat="36.76150691695511341094970703125" lon="-118.4114336036145687103271484375">
        <ele>2963.39990234375</ele>
        <time>2021-06-25T15:25:43.000Z</time>
        <extensions>
          <ns3:TrackPointExtension>
            <ns3:atemp>23.0</ns3:atemp>
            <ns3:hr>107</ns3:hr>
          </ns3:TrackPointExtension>
        </extensions>
      </trkpt>
      <trkpt lat="36.76150691695511341094970703125" lon="-118.4114336036145687103271484375">
        <ele>2963.199951171875</ele>
        <time>2021-06-25T15:25:47.000Z</time>
        <extensions>
          <ns3:TrackPointExtension>
            <ns3:atemp>23.0</ns3:atemp>
            <ns3:hr>110</ns3:hr>
          </ns3:TrackPointExtension>
        </extensions>
      </trkpt>
      <trkpt lat="36.76151010207831859588623046875" lon="-118.411383144557476043701171875">
        <ele>2963.199951171875</ele>
        <time>2021-06-25T15:26:09.000Z</time>
        <extensions>
          <ns3:TrackPointExtension>
            <ns3:atemp>23.0</ns3:atemp>
            <ns3:hr>107</ns3:hr>
          </ns3:TrackPointExtension>
        </extensions>
      </trkpt>
      <trkpt lat="36.76150507293641567230224609375" lon="-118.411387503147125244140625">
        <ele>2963</ele>
        <time>2021-06-25T15:26:18.000Z</time>
        <extensions>
          <ns3:TrackPointExtension>
            <ns3:atemp>23.0</ns3:atemp>
            <ns3:hr>104</ns3:hr>
          </ns3:TrackPointExtension>
        </extensions>
      </trkpt>
      <trkpt lat="36.76150507293641567230224609375" lon="-118.4113910235464572906494140625">
        <ele>2963</ele>
        <time>2021-06-25T15:26:22.000Z</time>
        <extensions>
          <ns3:TrackPointExtension>
            <ns3:atemp>23.0</ns3:atemp>
            <ns3:hr>101</ns3:hr>
          </ns3:TrackPointExtension>
        </extensions>
      </trkpt>
      <trkpt lat="36.76150507293641567230224609375" lon="-118.41139948926866054534912109375">
        <ele>2962.800048828125</ele>
        <time>2021-06-25T15:26:24.000Z</time>
        <extensions>
          <ns3:TrackPointExtension>
            <ns3:atemp>23.0</ns3:atemp>
            <ns3:hr>98</ns3:hr>
          </ns3:TrackPointExtension>
        </extensions>
      </trkpt>
      <trkpt lat="36.76150892861187458038330078125" lon="-118.41141424141824245452880859375">
        <ele>2963</ele>
        <time>2021-06-25T15:26:27.000Z</time>
        <extensions>
          <ns3:TrackPointExtension>
            <ns3:atemp>23.0</ns3:atemp>
            <ns3:hr>95</ns3:hr>
          </ns3:TrackPointExtension>
        </extensions>
      </trkpt>
      <trkpt lat="36.761539019644260406494140625" lon="-118.4114315919578075408935546875">
        <ele>2964.800048828125</ele>
        <time>2021-06-25T15:26:45.000Z</time>
        <extensions>
          <ns3:TrackPointExtension>
            <ns3:atemp>23.0</ns3:atemp>
            <ns3:hr>95</ns3:hr>
          </ns3:TrackPointExtension>
        </extensions>
      </trkpt>
      <trkpt lat="36.7615884728729724884033203125" lon="-118.41137669049203395843505859375">
        <ele>2966</ele>
        <time>2021-06-25T15:26:59.000Z</time>
        <extensions>
          <ns3:TrackPointExtension>
            <ns3:atemp>23.0</ns3:atemp>
            <ns3:hr>97</ns3:hr>
          </ns3:TrackPointExtension>
        </extensions>
      </trkpt>
      <trkpt lat="36.76160079427063465118408203125" lon="-118.41135598719120025634765625">
        <ele>2966.60009765625</ele>
        <time>2021-06-25T15:27:00.000Z</time>
        <extensions>
          <ns3:TrackPointExtension>
            <ns3:atemp>23.0</ns3:atemp>
            <ns3:hr>97</ns3:hr>
          </ns3:TrackPointExtension>
        </extensions>
      </trkpt>
      <trkpt lat="36.76165603101253509521484375" lon="-118.4112565778195858001708984375">
        <ele>2966.60009765625</ele>
        <time>2021-06-25T15:27:05.000Z</time>
        <extensions>
          <ns3:TrackPointExtension>
            <ns3:atemp>23.0</ns3:atemp>
            <ns3:hr>96</ns3:hr>
          </ns3:TrackPointExtension>
        </extensions>
      </trkpt>
      <trkpt lat="36.761676482856273651123046875" lon="-118.41121642850339412689208984375">
        <ele>2966.800048828125</ele>
        <time>2021-06-25T15:27:07.000Z</time>
        <extensions>
          <ns3:TrackPointExtension>
            <ns3:atemp>23.0</ns3:atemp>
            <ns3:hr>96</ns3:hr>
          </ns3:TrackPointExtension>
        </extensions>
      </trkpt>
      <trkpt lat="36.76170766353607177734375" lon="-118.4111600182950496673583984375">
        <ele>2967</ele>
        <time>2021-06-25T15:27:11.000Z</time>
        <extensions>
          <ns3:TrackPointExtension>
            <ns3:atemp>23.0</ns3:atemp>
            <ns3:hr>99</ns3:hr>
          </ns3:TrackPointExtension>
        </extensions>
      </trkpt>
      <trkpt lat="36.7617128603160381317138671875" lon="-118.41113847680389881134033203125">
        <ele>2966.800048828125</ele>
        <time>2021-06-25T15:27:13.000Z</time>
        <extensions>
          <ns3:TrackPointExtension>
            <ns3:atemp>23.0</ns3:atemp>
            <ns3:hr>101</ns3:hr>
          </ns3:TrackPointExtension>
        </extensions>
      </trkpt>
      <trkpt lat="36.761737503111362457275390625" lon="-118.4110768698155879974365234375">
        <ele>2967.199951171875</ele>
        <time>2021-06-25T15:27:19.000Z</time>
        <extensions>
          <ns3:TrackPointExtension>
            <ns3:atemp>23.0</ns3:atemp>
            <ns3:hr>100</ns3:hr>
          </ns3:TrackPointExtension>
        </extensions>
      </trkpt>
      <trkpt lat="36.7617557756602764129638671875" lon="-118.4110416658222675323486328125">
        <ele>2967.199951171875</ele>
        <time>2021-06-25T15:27:22.000Z</time>
        <extensions>
          <ns3:TrackPointExtension>
            <ns3:atemp>24.0</ns3:atemp>
            <ns3:hr>98</ns3:hr>
          </ns3:TrackPointExtension>
        </extensions>
      </trkpt>
      <trkpt lat="36.7617782391607761383056640625" lon="-118.41097100637853145599365234375">
        <ele>2967.39990234375</ele>
        <time>2021-06-25T15:27:28.000Z</time>
        <extensions>
          <ns3:TrackPointExtension>
            <ns3:atemp>24.0</ns3:atemp>
            <ns3:hr>101</ns3:hr>
          </ns3:TrackPointExtension>
        </extensions>
      </trkpt>
      <trkpt lat="36.761774383485317230224609375" lon="-118.4109516441822052001953125">
        <ele>2967.39990234375</ele>
        <time>2021-06-25T15:27:30.000Z</time>
        <extensions>
          <ns3:TrackPointExtension>
            <ns3:atemp>24.0</ns3:atemp>
            <ns3:hr>103</ns3:hr>
          </ns3:TrackPointExtension>
        </extensions>
      </trkpt>
      <trkpt lat="36.761767677962779998779296875" lon="-118.41094904579222202301025390625">
        <ele>2967.199951171875</ele>
        <time>2021-06-25T15:27:31.000Z</time>
        <extensions>
          <ns3:TrackPointExtension>
            <ns3:atemp>24.0</ns3:atemp>
            <ns3:hr>104</ns3:hr>
          </ns3:TrackPointExtension>
        </extensions>
      </trkpt>
      <trkpt lat="36.76175669766962528228759765625" lon="-118.4109407477080821990966796875">
        <ele>2967.199951171875</ele>
        <time>2021-06-25T15:27:35.000Z</time>
        <extensions>
          <ns3:TrackPointExtension>
            <ns3:atemp>24.0</ns3:atemp>
            <ns3:hr>107</ns3:hr>
          </ns3:TrackPointExtension>
        </extensions>
      </trkpt>
      <trkpt lat="36.7617614753544330596923828125" lon="-118.4109167754650115966796875">
        <ele>2967.39990234375</ele>
        <time>2021-06-25T15:27:41.000Z</time>
        <extensions>
          <ns3:TrackPointExtension>
            <ns3:atemp>24.0</ns3:atemp>
            <ns3:hr>108</ns3:hr>
          </ns3:TrackPointExtension>
        </extensions>
      </trkpt>
      <trkpt lat="36.7617614753544330596923828125" lon="-118.4109167754650115966796875">
        <ele>2967.39990234375</ele>
        <time>2021-06-25T15:27:44.000Z</time>
        <extensions>
          <ns3:TrackPointExtension>
            <ns3:atemp>24.0</ns3:atemp>
            <ns3:hr>107</ns3:hr>
          </ns3:TrackPointExtension>
        </extensions>
      </trkpt>
      <trkpt lat="36.7617614753544330596923828125" lon="-118.4109167754650115966796875">
        <ele>2967.60009765625</ele>
        <time>2021-06-25T15:27:53.000Z</time>
        <extensions>
          <ns3:TrackPointExtension>
            <ns3:atemp>24.0</ns3:atemp>
            <ns3:hr>104</ns3:hr>
          </ns3:TrackPointExtension>
        </extensions>
      </trkpt>
      <trkpt lat="36.7617614753544330596923828125" lon="-118.4109167754650115966796875">
        <ele>2967.800048828125</ele>
        <time>2021-06-25T15:27:56.000Z</time>
        <extensions>
          <ns3:TrackPointExtension>
            <ns3:atemp>24.0</ns3:atemp>
            <ns3:hr>101</ns3:hr>
          </ns3:TrackPointExtension>
        </extensions>
      </trkpt>
      <trkpt lat="36.76176197826862335205078125" lon="-118.4109099023044109344482421875">
        <ele>2967.800048828125</ele>
        <time>2021-06-25T15:28:00.000Z</time>
        <extensions>
          <ns3:TrackPointExtension>
            <ns3:atemp>24.0</ns3:atemp>
            <ns3:hr>98</ns3:hr>
          </ns3:TrackPointExtension>
        </extensions>
      </trkpt>
      <trkpt lat="36.7617950029671192169189453125" lon="-118.4108374826610088348388671875">
        <ele>2968.199951171875</ele>
        <time>2021-06-25T15:28:05.000Z</time>
        <extensions>
          <ns3:TrackPointExtension>
            <ns3:atemp>24.0</ns3:atemp>
            <ns3:hr>96</ns3:hr>
          </ns3:TrackPointExtension>
        </extensions>
      </trkpt>
      <trkpt lat="36.76180480979382991790771484375" lon="-118.41081820428371429443359375">
        <ele>2967.199951171875</ele>
        <time>2021-06-25T15:28:06.000Z</time>
        <extensions>
          <ns3:TrackPointExtension>
            <ns3:atemp>24.0</ns3:atemp>
            <ns3:hr>95</ns3:hr>
          </ns3:TrackPointExtension>
        </extensions>
      </trkpt>
      <trkpt lat="36.76181570626795291900634765625" lon="-118.41079783625900745391845703125">
        <ele>2967.199951171875</ele>
        <time>2021-06-25T15:28:07.000Z</time>
        <extensions>
          <ns3:TrackPointExtension>
            <ns3:atemp>24.0</ns3:atemp>
            <ns3:hr>96</ns3:hr>
          </ns3:TrackPointExtension>
        </extensions>
      </trkpt>
      <trkpt lat="36.76183364354074001312255859375" lon="-118.41076430864632129669189453125">
        <ele>2967.199951171875</ele>
        <time>2021-06-25T15:28:09.000Z</time>
        <extensions>
          <ns3:TrackPointExtension>
            <ns3:atemp>24.0</ns3:atemp>
            <ns3:hr>98</ns3:hr>
          </ns3:TrackPointExtension>
        </extensions>
      </trkpt>
      <trkpt lat="36.7618550173938274383544921875" lon="-118.4107224829494953155517578125">
        <ele>2967.39990234375</ele>
        <time>2021-06-25T15:28:12.000Z</time>
        <extensions>
          <ns3:TrackPointExtension>
            <ns3:atemp>24.0</ns3:atemp>
            <ns3:hr>96</ns3:hr>
          </ns3:TrackPointExtension>
        </extensions>
      </trkpt>
      <trkpt lat="36.761877648532390594482421875" lon="-118.4106762148439884185791015625">
        <ele>2967.60009765625</ele>
        <time>2021-06-25T15:28:16.000Z</time>
        <extensions>
          <ns3:TrackPointExtension>
            <ns3:atemp>24.0</ns3:atemp>
            <ns3:hr>99</ns3:hr>
          </ns3:TrackPointExtension>
        </extensions>
      </trkpt>
      <trkpt lat="36.76189365796744823455810546875" lon="-118.410644866526126861572265625">
        <ele>2968.199951171875</ele>
        <time>2021-06-25T15:28:19.000Z</time>
        <extensions>
          <ns3:TrackPointExtension>
            <ns3:atemp>24.0</ns3:atemp>
            <ns3:hr>101</ns3:hr>
          </ns3:TrackPointExtension>
        </extensions>
      </trkpt>
      <trkpt lat="36.76191913895308971405029296875" lon="-118.4105970896780490875244140625">
        <ele>2968.39990234375</ele>
        <time>2021-06-25T15:28:25.000Z</time>
        <extensions>
          <ns3:TrackPointExtension>
            <ns3:atemp>24.0</ns3:atemp>
            <ns3:hr>104</ns3:hr>
          </ns3:TrackPointExtension>
        </extensions>
      </trkpt>
      <trkpt lat="36.7619214020669460296630859375" lon="-118.4105868637561798095703125">
        <ele>2968.39990234375</ele>
        <time>2021-06-25T15:28:26.000Z</time>
        <extensions>
          <ns3:TrackPointExtension>
            <ns3:atemp>24.0</ns3:atemp>
            <ns3:hr>105</ns3:hr>
          </ns3:TrackPointExtension>
        </extensions>
      </trkpt>
      <trkpt lat="36.761990301311016082763671875" lon="-118.410478569567203521728515625">
        <ele>2969</ele>
        <time>2021-06-25T15:28:34.000Z</time>
        <extensions>
          <ns3:TrackPointExtension>
            <ns3:atemp>24.0</ns3:atemp>
            <ns3:hr>106</ns3:hr>
          </ns3:TrackPointExtension>
        </extensions>
      </trkpt>
      <trkpt lat="36.76199222914874553680419921875" lon="-118.4104462154209613800048828125">
        <ele>2969.60009765625</ele>
        <time>2021-06-25T15:28:37.000Z</time>
        <extensions>
          <ns3:TrackPointExtension>
            <ns3:atemp>24.0</ns3:atemp>
            <ns3:hr>105</ns3:hr>
          </ns3:TrackPointExtension>
        </extensions>
      </trkpt>
      <trkpt lat="36.76200664602220058441162109375" lon="-118.41038594953715801239013671875">
        <ele>2970.199951171875</ele>
        <time>2021-06-25T15:28:42.000Z</time>
        <extensions>
          <ns3:TrackPointExtension>
            <ns3:atemp>24.0</ns3:atemp>
            <ns3:hr>104</ns3:hr>
          </ns3:TrackPointExtension>
        </extensions>
      </trkpt>
      <trkpt lat="36.7620266787707805633544921875" lon="-118.410320319235324859619140625">
        <ele>2970.60009765625</ele>
        <time>2021-06-25T15:28:48.000Z</time>
        <extensions>
          <ns3:TrackPointExtension>
            <ns3:atemp>24.0</ns3:atemp>
            <ns3:hr>102</ns3:hr>
          </ns3:TrackPointExtension>
        </extensions>
      </trkpt>
      <trkpt lat="36.762041933834552764892578125" lon="-118.41025829315185546875">
        <ele>2970.800048828125</ele>
        <time>2021-06-25T15:28:54.000Z</time>
        <extensions>
          <ns3:TrackPointExtension>
            <ns3:atemp>24.0</ns3:atemp>
            <ns3:hr>101</ns3:hr>
          </ns3:TrackPointExtension>
        </extensions>
      </trkpt>
      <trkpt lat="36.7620456218719482421875" lon="-118.4102410264313220977783203125">
        <ele>2971</ele>
        <time>2021-06-25T15:28:56.000Z</time>
        <extensions>
          <ns3:TrackPointExtension>
            <ns3:atemp>24.0</ns3:atemp>
            <ns3:hr>104</ns3:hr>
          </ns3:TrackPointExtension>
        </extensions>
      </trkpt>
      <trkpt lat="36.7620447836816310882568359375" lon="-118.41021881438791751861572265625">
        <ele>2971</ele>
        <time>2021-06-25T15:28:58.000Z</time>
        <extensions>
          <ns3:TrackPointExtension>
            <ns3:atemp>24.0</ns3:atemp>
            <ns3:hr>107</ns3:hr>
          </ns3:TrackPointExtension>
        </extensions>
      </trkpt>
      <trkpt lat="36.7620558477938175201416015625" lon="-118.41018394567072391510009765625">
        <ele>2971.60009765625</ele>
        <time>2021-06-25T15:29:02.000Z</time>
        <extensions>
          <ns3:TrackPointExtension>
            <ns3:atemp>24.0</ns3:atemp>
            <ns3:hr>108</ns3:hr>
          </ns3:TrackPointExtension>
        </extensions>
      </trkpt>
      <trkpt lat="36.76205626688897609710693359375" lon="-118.410176150500774383544921875">
        <ele>2972.199951171875</ele>
        <time>2021-06-25T15:29:03.000Z</time>
        <extensions>
          <ns3:TrackPointExtension>
            <ns3:atemp>24.0</ns3:atemp>
            <ns3:hr>110</ns3:hr>
          </ns3:TrackPointExtension>
        </extensions>
      </trkpt>
      <trkpt lat="36.762070767581462860107421875" lon="-118.41008193790912628173828125">
        <ele>2972.60009765625</ele>
        <time>2021-06-25T15:29:11.000Z</time>
        <extensions>
          <ns3:TrackPointExtension>
            <ns3:atemp>24.0</ns3:atemp>
            <ns3:hr>110</ns3:hr>
          </ns3:TrackPointExtension>
        </extensions>
      </trkpt>
      <trkpt lat="36.76208040677011013031005859375" lon="-118.41006760485470294952392578125">
        <ele>2973.39990234375</ele>
        <time>2021-06-25T15:29:14.000Z</time>
        <extensions>
          <ns3:TrackPointExtension>
            <ns3:atemp>24.0</ns3:atemp>
            <ns3:hr>111</ns3:hr>
          </ns3:TrackPointExtension>
        </extensions>
      </trkpt>
      <trkpt lat="36.7620826698839664459228515625" lon="-118.41005737893283367156982421875">
        <ele>2973.60009765625</ele>
        <time>2021-06-25T15:29:16.000Z</time>
        <extensions>
          <ns3:TrackPointExtension>
            <ns3:atemp>24.0</ns3:atemp>
            <ns3:hr>111</ns3:hr>
          </ns3:TrackPointExtension>
        </extensions>
      </trkpt>
      <trkpt lat="36.76210395991802215576171875" lon="-118.41001966036856174468994140625">
        <ele>2974.199951171875</ele>
        <time>2021-06-25T15:29:20.000Z</time>
        <extensions>
          <ns3:TrackPointExtension>
            <ns3:atemp>24.0</ns3:atemp>
            <ns3:hr>112</ns3:hr>
          </ns3:TrackPointExtension>
        </extensions>
      </trkpt>
      <trkpt lat="36.762106977403163909912109375" lon="-118.41000951826572418212890625">
        <ele>2974.39990234375</ele>
        <time>2021-06-25T15:29:21.000Z</time>
        <extensions>
          <ns3:TrackPointExtension>
            <ns3:atemp>24.0</ns3:atemp>
            <ns3:hr>113</ns3:hr>
          </ns3:TrackPointExtension>
        </extensions>
      </trkpt>
      <trkpt lat="36.762115694582462310791015625" lon="-118.4099852107465267181396484375">
        <ele>2974.800048828125</ele>
        <time>2021-06-25T15:29:24.000Z</time>
        <extensions>
          <ns3:TrackPointExtension>
            <ns3:atemp>24.0</ns3:atemp>
            <ns3:hr>112</ns3:hr>
          </ns3:TrackPointExtension>
        </extensions>
      </trkpt>
      <trkpt lat="36.76212248392403125762939453125" lon="-118.40996316634118556976318359375">
        <ele>2975.39990234375</ele>
        <time>2021-06-25T15:29:26.000Z</time>
        <extensions>
          <ns3:TrackPointExtension>
            <ns3:atemp>24.0</ns3:atemp>
            <ns3:hr>110</ns3:hr>
          </ns3:TrackPointExtension>
        </extensions>
      </trkpt>
      <trkpt lat="36.76212273538112640380859375" lon="-118.4099533595144748687744140625">
        <ele>2975.39990234375</ele>
        <time>2021-06-25T15:29:27.000Z</time>
        <extensions>
          <ns3:TrackPointExtension>
            <ns3:atemp>24.0</ns3:atemp>
            <ns3:hr>110</ns3:hr>
          </ns3:TrackPointExtension>
        </extensions>
      </trkpt>
      <trkpt lat="36.76214528270065784454345703125" lon="-118.409908600151538848876953125">
        <ele>2976.199951171875</ele>
        <time>2021-06-25T15:29:33.000Z</time>
        <extensions>
          <ns3:TrackPointExtension>
            <ns3:atemp>24.0</ns3:atemp>
            <ns3:hr>110</ns3:hr>
          </ns3:TrackPointExtension>
        </extensions>
      </trkpt>
      <trkpt lat="36.76214662380516529083251953125" lon="-118.4099034033715724945068359375">
        <ele>2976.199951171875</ele>
        <time>2021-06-25T15:29:34.000Z</time>
        <extensions>
          <ns3:TrackPointExtension>
            <ns3:atemp>24.0</ns3:atemp>
            <ns3:hr>110</ns3:hr>
          </ns3:TrackPointExtension>
        </extensions>
      </trkpt>
      <trkpt lat="36.76215282641351222991943359375" lon="-118.40989644639194011688232421875">
        <ele>2976.39990234375</ele>
        <time>2021-06-25T15:29:35.000Z</time>
        <extensions>
          <ns3:TrackPointExtension>
            <ns3:atemp>24.0</ns3:atemp>
            <ns3:hr>109</ns3:hr>
          </ns3:TrackPointExtension>
        </extensions>
      </trkpt>
      <trkpt lat="36.76218015141785144805908203125" lon="-118.4098712168633937835693359375">
        <ele>2976.800048828125</ele>
        <time>2021-06-25T15:29:39.000Z</time>
        <extensions>
          <ns3:TrackPointExtension>
            <ns3:atemp>24.0</ns3:atemp>
            <ns3:hr>108</ns3:hr>
          </ns3:TrackPointExtension>
        </extensions>
      </trkpt>
      <trkpt lat="36.76218065433204174041748046875" lon="-118.40986107476055622100830078125">
        <ele>2977</ele>
        <time>2021-06-25T15:29:40.000Z</time>
        <extensions>
          <ns3:TrackPointExtension>
            <ns3:atemp>24.0</ns3:atemp>
            <ns3:hr>108</ns3:hr>
          </ns3:TrackPointExtension>
        </extensions>
      </trkpt>
      <trkpt lat="36.762182414531707763671875" lon="-118.409851603209972381591796875">
        <ele>2977</ele>
        <time>2021-06-25T15:29:41.000Z</time>
        <extensions>
          <ns3:TrackPointExtension>
            <ns3:atemp>24.0</ns3:atemp>
            <ns3:hr>110</ns3:hr>
          </ns3:TrackPointExtension>
        </extensions>
      </trkpt>
      <trkpt lat="36.762182749807834625244140625" lon="-118.40980944223701953887939453125">
        <ele>2977.60009765625</ele>
        <time>2021-06-25T15:29:45.000Z</time>
        <extensions>
          <ns3:TrackPointExtension>
            <ns3:atemp>24.0</ns3:atemp>
            <ns3:hr>109</ns3:hr>
          </ns3:TrackPointExtension>
        </extensions>
      </trkpt>
      <trkpt lat="36.76218710839748382568359375" lon="-118.40980240143835544586181640625">
        <ele>2977.800048828125</ele>
        <time>2021-06-25T15:29:46.000Z</time>
        <extensions>
          <ns3:TrackPointExtension>
            <ns3:atemp>24.0</ns3:atemp>
            <ns3:hr>110</ns3:hr>
          </ns3:TrackPointExtension>
        </extensions>
      </trkpt>
      <trkpt lat="36.762217618525028228759765625" lon="-118.409775160253047943115234375">
        <ele>2978.199951171875</ele>
        <time>2021-06-25T15:29:49.000Z</time>
        <extensions>
          <ns3:TrackPointExtension>
            <ns3:atemp>24.0</ns3:atemp>
            <ns3:hr>112</ns3:hr>
          </ns3:TrackPointExtension>
        </extensions>
      </trkpt>
      <trkpt lat="36.76223396323621273040771484375" lon="-118.4097635932266712188720703125">
        <ele>2978.199951171875</ele>
        <time>2021-06-25T15:29:51.000Z</time>
        <extensions>
          <ns3:TrackPointExtension>
            <ns3:atemp>24.0</ns3:atemp>
            <ns3:hr>113</ns3:hr>
          </ns3:TrackPointExtension>
        </extensions>
      </trkpt>
      <trkpt lat="36.76224905066192150115966796875" lon="-118.40974942781031131744384765625">
        <ele>2979</ele>
        <time>2021-06-25T15:29:53.000Z</time>
        <extensions>
          <ns3:TrackPointExtension>
            <ns3:atemp>24.0</ns3:atemp>
            <ns3:hr>114</ns3:hr>
          </ns3:TrackPointExtension>
        </extensions>
      </trkpt>
      <trkpt lat="36.7622539959847927093505859375" lon="-118.40974540449678897857666015625">
        <ele>2979.199951171875</ele>
        <time>2021-06-25T15:29:54.000Z</time>
        <extensions>
          <ns3:TrackPointExtension>
            <ns3:atemp>24.0</ns3:atemp>
            <ns3:hr>114</ns3:hr>
          </ns3:TrackPointExtension>
        </extensions>
      </trkpt>
      <trkpt lat="36.762253157794475555419921875" lon="-118.40974322520196437835693359375">
        <ele>2979.199951171875</ele>
        <time>2021-06-25T15:29:55.000Z</time>
        <extensions>
          <ns3:TrackPointExtension>
            <ns3:atemp>24.0</ns3:atemp>
            <ns3:hr>115</ns3:hr>
          </ns3:TrackPointExtension>
        </extensions>
      </trkpt>
      <trkpt lat="36.76226363517343997955322265625" lon="-118.409715481102466583251953125">
        <ele>2979.39990234375</ele>
        <time>2021-06-25T15:30:00.000Z</time>
        <extensions>
          <ns3:TrackPointExtension>
            <ns3:atemp>24.0</ns3:atemp>
            <ns3:hr>116</ns3:hr>
          </ns3:TrackPointExtension>
        </extensions>
      </trkpt>
      <trkpt lat="36.7622667364776134490966796875" lon="-118.40970869176089763641357421875">
        <ele>2980</ele>
        <time>2021-06-25T15:30:01.000Z</time>
        <extensions>
          <ns3:TrackPointExtension>
            <ns3:atemp>24.0</ns3:atemp>
            <ns3:hr>114</ns3:hr>
          </ns3:TrackPointExtension>
        </extensions>
      </trkpt>
      <trkpt lat="36.76227025687694549560546875" lon="-118.4097052551805973052978515625">
        <ele>2980.199951171875</ele>
        <time>2021-06-25T15:30:02.000Z</time>
        <extensions>
          <ns3:TrackPointExtension>
            <ns3:atemp>24.0</ns3:atemp>
            <ns3:hr>115</ns3:hr>
          </ns3:TrackPointExtension>
        </extensions>
      </trkpt>
      <trkpt lat="36.7622737772762775421142578125" lon="-118.409692682325839996337890625">
        <ele>2980.199951171875</ele>
        <time>2021-06-25T15:30:04.000Z</time>
        <extensions>
          <ns3:TrackPointExtension>
            <ns3:atemp>24.0</ns3:atemp>
            <ns3:hr>116</ns3:hr>
          </ns3:TrackPointExtension>
        </extensions>
      </trkpt>
      <trkpt lat="36.7622788064181804656982421875" lon="-118.40967650525271892547607421875">
        <ele>2980.60009765625</ele>
        <time>2021-06-25T15:30:06.000Z</time>
        <extensions>
          <ns3:TrackPointExtension>
            <ns3:atemp>24.0</ns3:atemp>
            <ns3:hr>117</ns3:hr>
          </ns3:TrackPointExtension>
        </extensions>
      </trkpt>
      <trkpt lat="36.76227788440883159637451171875" lon="-118.4096507728099822998046875">
        <ele>2981.199951171875</ele>
        <time>2021-06-25T15:30:09.000Z</time>
        <extensions>
          <ns3:TrackPointExtension>
            <ns3:atemp>24.0</ns3:atemp>
            <ns3:hr>119</ns3:hr>
          </ns3:TrackPointExtension>
        </extensions>
      </trkpt>
      <trkpt lat="36.76227855496108531951904296875" lon="-118.40960978530347347259521484375">
        <ele>2981.60009765625</ele>
        <time>2021-06-25T15:30:15.000Z</time>
        <extensions>
          <ns3:TrackPointExtension>
            <ns3:atemp>24.0</ns3:atemp>
            <ns3:hr>122</ns3:hr>
          </ns3:TrackPointExtension>
        </extensions>
      </trkpt>
      <trkpt lat="36.7622871883213520050048828125" lon="-118.40959872119128704071044921875">
        <ele>2981.60009765625</ele>
        <time>2021-06-25T15:30:16.000Z</time>
        <extensions>
          <ns3:TrackPointExtension>
            <ns3:atemp>24.0</ns3:atemp>
            <ns3:hr>121</ns3:hr>
          </ns3:TrackPointExtension>
        </extensions>
      </trkpt>
      <trkpt lat="36.7623277567327022552490234375" lon="-118.4095543809235095977783203125">
        <ele>2982.800048828125</ele>
        <time>2021-06-25T15:30:23.000Z</time>
        <extensions>
          <ns3:TrackPointExtension>
            <ns3:atemp>23.0</ns3:atemp>
            <ns3:hr>122</ns3:hr>
          </ns3:TrackPointExtension>
        </extensions>
      </trkpt>
      <trkpt lat="36.7623267509043216705322265625" lon="-118.40954390354454517364501953125">
        <ele>2983.199951171875</ele>
        <time>2021-06-25T15:30:27.000Z</time>
        <extensions>
          <ns3:TrackPointExtension>
            <ns3:atemp>23.0</ns3:atemp>
            <ns3:hr>125</ns3:hr>
          </ns3:TrackPointExtension>
        </extensions>
      </trkpt>
      <trkpt lat="36.7623317800462245941162109375" lon="-118.40953954495489597320556640625">
        <ele>2983.800048828125</ele>
        <time>2021-06-25T15:30:28.000Z</time>
        <extensions>
          <ns3:TrackPointExtension>
            <ns3:atemp>23.0</ns3:atemp>
            <ns3:hr>126</ns3:hr>
          </ns3:TrackPointExtension>
        </extensions>
      </trkpt>
      <trkpt lat="36.762357763946056365966796875" lon="-118.40950249694287776947021484375">
        <ele>2984.199951171875</ele>
        <time>2021-06-25T15:30:32.000Z</time>
        <extensions>
          <ns3:TrackPointExtension>
            <ns3:atemp>23.0</ns3:atemp>
            <ns3:hr>126</ns3:hr>
          </ns3:TrackPointExtension>
        </extensions>
      </trkpt>
      <trkpt lat="36.762391626834869384765625" lon="-118.4094705618917942047119140625">
        <ele>2984.60009765625</ele>
        <time>2021-06-25T15:30:37.000Z</time>
        <extensions>
          <ns3:TrackPointExtension>
            <ns3:atemp>23.0</ns3:atemp>
            <ns3:hr>122</ns3:hr>
          </ns3:TrackPointExtension>
        </extensions>
      </trkpt>
      <trkpt lat="36.7624082230031490325927734375" lon="-118.4094708971679210662841796875">
        <ele>2985</ele>
        <time>2021-06-25T15:30:39.000Z</time>
        <extensions>
          <ns3:TrackPointExtension>
            <ns3:atemp>23.0</ns3:atemp>
            <ns3:hr>118</ns3:hr>
          </ns3:TrackPointExtension>
        </extensions>
      </trkpt>
      <trkpt lat="36.76241098903119564056396484375" lon="-118.409470058977603912353515625">
        <ele>2985.199951171875</ele>
        <time>2021-06-25T15:30:40.000Z</time>
        <extensions>
          <ns3:TrackPointExtension>
            <ns3:atemp>23.0</ns3:atemp>
            <ns3:hr>116</ns3:hr>
          </ns3:TrackPointExtension>
        </extensions>
      </trkpt>
      <trkpt lat="36.762421466410160064697265625" lon="-118.40945941396057605743408203125">
        <ele>2985.60009765625</ele>
        <time>2021-06-25T15:30:44.000Z</time>
        <extensions>
          <ns3:TrackPointExtension>
            <ns3:atemp>23.0</ns3:atemp>
            <ns3:hr>113</ns3:hr>
          </ns3:TrackPointExtension>
        </extensions>
      </trkpt>
      <trkpt lat="36.7624253220856189727783203125" lon="-118.40945773757994174957275390625">
        <ele>2986.39990234375</ele>
        <time>2021-06-25T15:30:45.000Z</time>
        <extensions>
          <ns3:TrackPointExtension>
            <ns3:atemp>23.0</ns3:atemp>
            <ns3:hr>112</ns3:hr>
          </ns3:TrackPointExtension>
        </extensions>
      </trkpt>
      <trkpt lat="36.76243026740849018096923828125" lon="-118.40944935567677021026611328125">
        <ele>2986.60009765625</ele>
        <time>2021-06-25T15:30:47.000Z</time>
        <extensions>
          <ns3:TrackPointExtension>
            <ns3:atemp>23.0</ns3:atemp>
            <ns3:hr>111</ns3:hr>
          </ns3:TrackPointExtension>
        </extensions>
      </trkpt>
      <trkpt lat="36.76243118941783905029296875" lon="-118.4094413928687572479248046875">
        <ele>2987</ele>
        <time>2021-06-25T15:30:48.000Z</time>
        <extensions>
          <ns3:TrackPointExtension>
            <ns3:atemp>23.0</ns3:atemp>
            <ns3:hr>111</ns3:hr>
          </ns3:TrackPointExtension>
        </extensions>
      </trkpt>
      <trkpt lat="36.7624534852802753448486328125" lon="-118.4093957953155040740966796875">
        <ele>2987.39990234375</ele>
        <time>2021-06-25T15:30:53.000Z</time>
        <extensions>
          <ns3:TrackPointExtension>
            <ns3:atemp>23.0</ns3:atemp>
            <ns3:hr>112</ns3:hr>
          </ns3:TrackPointExtension>
        </extensions>
      </trkpt>
      <trkpt lat="36.762482821941375732421875" lon="-118.40937542729079723358154296875">
        <ele>2988.39990234375</ele>
        <time>2021-06-25T15:30:56.000Z</time>
        <extensions>
          <ns3:TrackPointExtension>
            <ns3:atemp>23.0</ns3:atemp>
            <ns3:hr>112</ns3:hr>
          </ns3:TrackPointExtension>
        </extensions>
      </trkpt>
      <trkpt lat="36.76248927600681781768798828125" lon="-118.40937324799597263336181640625">
        <ele>2988.60009765625</ele>
        <time>2021-06-25T15:30:57.000Z</time>
        <extensions>
          <ns3:TrackPointExtension>
            <ns3:atemp>23.0</ns3:atemp>
            <ns3:hr>112</ns3:hr>
          </ns3:TrackPointExtension>
        </extensions>
      </trkpt>
      <trkpt lat="36.76250872202217578887939453125" lon="-118.40936302207410335540771484375">
        <ele>2989.60009765625</ele>
        <time>2021-06-25T15:31:06.000Z</time>
        <extensions>
          <ns3:TrackPointExtension>
            <ns3:atemp>23.0</ns3:atemp>
            <ns3:hr>112</ns3:hr>
          </ns3:TrackPointExtension>
        </extensions>
      </trkpt>
      <trkpt lat="36.7625104822218418121337890625" lon="-118.409321196377277374267578125">
        <ele>2990.800048828125</ele>
        <time>2021-06-25T15:31:12.000Z</time>
        <extensions>
          <ns3:TrackPointExtension>
            <ns3:atemp>23.0</ns3:atemp>
            <ns3:hr>113</ns3:hr>
          </ns3:TrackPointExtension>
        </extensions>
      </trkpt>
      <trkpt lat="36.7625339515507221221923828125" lon="-118.4092819690704345703125">
        <ele>2991.199951171875</ele>
        <time>2021-06-25T15:31:16.000Z</time>
        <extensions>
          <ns3:TrackPointExtension>
            <ns3:atemp>23.0</ns3:atemp>
            <ns3:hr>117</ns3:hr>
          </ns3:TrackPointExtension>
        </extensions>
      </trkpt>
      <trkpt lat="36.7625450156629085540771484375" lon="-118.40925908647477626800537109375">
        <ele>2991.60009765625</ele>
        <time>2021-06-25T15:31:18.000Z</time>
        <extensions>
          <ns3:TrackPointExtension>
            <ns3:atemp>23.0</ns3:atemp>
            <ns3:hr>120</ns3:hr>
          </ns3:TrackPointExtension>
        </extensions>
      </trkpt>
      <trkpt lat="36.76255884580314159393310546875" lon="-118.40925372205674648284912109375">
        <ele>2992</ele>
        <time>2021-06-25T15:31:20.000Z</time>
        <extensions>
          <ns3:TrackPointExtension>
            <ns3:atemp>23.0</ns3:atemp>
            <ns3:hr>121</ns3:hr>
          </ns3:TrackPointExtension>
        </extensions>
      </trkpt>
      <trkpt lat="36.762581728398799896240234375" lon="-118.40920527465641498565673828125">
        <ele>2992.39990234375</ele>
        <time>2021-06-25T15:31:26.000Z</time>
        <extensions>
          <ns3:TrackPointExtension>
            <ns3:atemp>23.0</ns3:atemp>
            <ns3:hr>119</ns3:hr>
          </ns3:TrackPointExtension>
        </extensions>
      </trkpt>
      <trkpt lat="36.76258700899779796600341796875" lon="-118.409166634082794189453125">
        <ele>2992.199951171875</ele>
        <time>2021-06-25T15:31:30.000Z</time>
        <extensions>
          <ns3:TrackPointExtension>
            <ns3:atemp>23.0</ns3:atemp>
            <ns3:hr>122</ns3:hr>
          </ns3:TrackPointExtension>
        </extensions>
      </trkpt>
      <trkpt lat="36.7625943012535572052001953125" lon="-118.40910972096025943756103515625">
        <ele>2992.39990234375</ele>
        <time>2021-06-25T15:31:35.000Z</time>
        <extensions>
          <ns3:TrackPointExtension>
            <ns3:atemp>23.0</ns3:atemp>
            <ns3:hr>121</ns3:hr>
          </ns3:TrackPointExtension>
        </extensions>
      </trkpt>
      <trkpt lat="36.762603186070919036865234375" lon="-118.4090740978717803955078125">
        <ele>2993.199951171875</ele>
        <time>2021-06-25T15:31:40.000Z</time>
        <extensions>
          <ns3:TrackPointExtension>
            <ns3:atemp>23.0</ns3:atemp>
            <ns3:hr>121</ns3:hr>
          </ns3:TrackPointExtension>
        </extensions>
      </trkpt>
      <trkpt lat="36.76260528154671192169189453125" lon="-118.40906563214957714080810546875">
        <ele>2993.39990234375</ele>
        <time>2021-06-25T15:31:41.000Z</time>
        <extensions>
          <ns3:TrackPointExtension>
            <ns3:atemp>23.0</ns3:atemp>
            <ns3:hr>120</ns3:hr>
          </ns3:TrackPointExtension>
        </extensions>
      </trkpt>
      <trkpt lat="36.7626291699707508087158203125" lon="-118.40904165990650653839111328125">
        <ele>2994.199951171875</ele>
        <time>2021-06-25T15:31:48.000Z</time>
        <extensions>
          <ns3:TrackPointExtension>
            <ns3:atemp>23.0</ns3:atemp>
            <ns3:hr>118</ns3:hr>
          </ns3:TrackPointExtension>
        </extensions>
      </trkpt>
      <trkpt lat="36.76264367066323757171630859375" lon="-118.40900226496160030364990234375">
        <ele>2995</ele>
        <time>2021-06-25T15:31:52.000Z</time>
        <extensions>
          <ns3:TrackPointExtension>
            <ns3:atemp>23.0</ns3:atemp>
            <ns3:hr>115</ns3:hr>
          </ns3:TrackPointExtension>
        </extensions>
      </trkpt>
      <trkpt lat="36.76264844834804534912109375" lon="-118.4089844115078449249267578125">
        <ele>2995.60009765625</ele>
        <time>2021-06-25T15:31:54.000Z</time>
        <extensions>
          <ns3:TrackPointExtension>
            <ns3:atemp>23.0</ns3:atemp>
            <ns3:hr>116</ns3:hr>
          </ns3:TrackPointExtension>
        </extensions>
      </trkpt>
      <trkpt lat="36.76265222020447254180908203125" lon="-118.40898080728948116302490234375">
        <ele>2995.800048828125</ele>
        <time>2021-06-25T15:31:55.000Z</time>
        <extensions>
          <ns3:TrackPointExtension>
            <ns3:atemp>23.0</ns3:atemp>
            <ns3:hr>115</ns3:hr>
          </ns3:TrackPointExtension>
        </extensions>
      </trkpt>
      <trkpt lat="36.762659847736358642578125" lon="-118.40897141955792903900146484375">
        <ele>2996</ele>
        <time>2021-06-25T15:31:57.000Z</time>
        <extensions>
          <ns3:TrackPointExtension>
            <ns3:atemp>23.0</ns3:atemp>
            <ns3:hr>115</ns3:hr>
          </ns3:TrackPointExtension>
        </extensions>
      </trkpt>
      <trkpt lat="36.76267401315271854400634765625" lon="-118.40893135406076908111572265625">
        <ele>2997</ele>
        <time>2021-06-25T15:32:02.000Z</time>
        <extensions>
          <ns3:TrackPointExtension>
            <ns3:atemp>23.0</ns3:atemp>
            <ns3:hr>114</ns3:hr>
          </ns3:TrackPointExtension>
        </extensions>
      </trkpt>
      <trkpt lat="36.76268172450363636016845703125" lon="-118.40889279730618000030517578125">
        <ele>2998</ele>
        <time>2021-06-25T15:32:07.000Z</time>
        <extensions>
          <ns3:TrackPointExtension>
            <ns3:atemp>23.0</ns3:atemp>
            <ns3:hr>116</ns3:hr>
          </ns3:TrackPointExtension>
        </extensions>
      </trkpt>
      <trkpt lat="36.76268306560814380645751953125" lon="-118.40888525359332561492919921875">
        <ele>2998</ele>
        <time>2021-06-25T15:32:08.000Z</time>
        <extensions>
          <ns3:TrackPointExtension>
            <ns3:atemp>23.0</ns3:atemp>
            <ns3:hr>114</ns3:hr>
          </ns3:TrackPointExtension>
        </extensions>
      </trkpt>
      <trkpt lat="36.7626814730465412139892578125" lon="-118.40887670405209064483642578125">
        <ele>2998.39990234375</ele>
        <time>2021-06-25T15:32:11.000Z</time>
        <extensions>
          <ns3:TrackPointExtension>
            <ns3:atemp>23.0</ns3:atemp>
            <ns3:hr>117</ns3:hr>
          </ns3:TrackPointExtension>
        </extensions>
      </trkpt>
      <trkpt lat="36.7626965604722499847412109375" lon="-118.40884887613356113433837890625">
        <ele>2999</ele>
        <time>2021-06-25T15:32:14.000Z</time>
        <extensions>
          <ns3:TrackPointExtension>
            <ns3:atemp>23.0</ns3:atemp>
            <ns3:hr>116</ns3:hr>
          </ns3:TrackPointExtension>
        </extensions>
      </trkpt>
      <trkpt lat="36.7626933753490447998046875" lon="-118.40881937183439731597900390625">
        <ele>2999.800048828125</ele>
        <time>2021-06-25T15:32:19.000Z</time>
        <extensions>
          <ns3:TrackPointExtension>
            <ns3:atemp>23.0</ns3:atemp>
            <ns3:hr>113</ns3:hr>
          </ns3:TrackPointExtension>
        </extensions>
      </trkpt>
      <trkpt lat="36.76270687021315097808837890625" lon="-118.4087832458317279815673828125">
        <ele>2999.800048828125</ele>
        <time>2021-06-25T15:32:21.000Z</time>
        <extensions>
          <ns3:TrackPointExtension>
            <ns3:atemp>23.0</ns3:atemp>
            <ns3:hr>112</ns3:hr>
          </ns3:TrackPointExtension>
        </extensions>
      </trkpt>
      <trkpt lat="36.76272380165755748748779296875" lon="-118.4087483771145343780517578125">
        <ele>3000</ele>
        <time>2021-06-25T15:32:24.000Z</time>
        <extensions>
          <ns3:TrackPointExtension>
            <ns3:atemp>23.0</ns3:atemp>
            <ns3:hr>109</ns3:hr>
          </ns3:TrackPointExtension>
        </extensions>
      </trkpt>
      <trkpt lat="36.7627257294952869415283203125" lon="-118.40873253531754016876220703125">
        <ele>3000.199951171875</ele>
        <time>2021-06-25T15:32:26.000Z</time>
        <extensions>
          <ns3:TrackPointExtension>
            <ns3:atemp>23.0</ns3:atemp>
            <ns3:hr>112</ns3:hr>
          </ns3:TrackPointExtension>
        </extensions>
      </trkpt>
      <trkpt lat="36.762727238237857818603515625" lon="-118.40872650034725666046142578125">
        <ele>3000.60009765625</ele>
        <time>2021-06-25T15:32:27.000Z</time>
        <extensions>
          <ns3:TrackPointExtension>
            <ns3:atemp>23.0</ns3:atemp>
            <ns3:hr>112</ns3:hr>
          </ns3:TrackPointExtension>
        </extensions>
      </trkpt>
      <trkpt lat="36.76275598816573619842529296875" lon="-118.40868609957396984100341796875">
        <ele>3001</ele>
        <time>2021-06-25T15:32:32.000Z</time>
        <extensions>
          <ns3:TrackPointExtension>
            <ns3:atemp>22.0</ns3:atemp>
            <ns3:hr>111</ns3:hr>
          </ns3:TrackPointExtension>
        </extensions>
      </trkpt>
      <trkpt lat="36.76276646554470062255859375" lon="-118.4086672402918338775634765625">
        <ele>3001.39990234375</ele>
        <time>2021-06-25T15:32:34.000Z</time>
        <extensions>
          <ns3:TrackPointExtension>
            <ns3:atemp>22.0</ns3:atemp>
            <ns3:hr>109</ns3:hr>
          </ns3:TrackPointExtension>
        </extensions>
      </trkpt>
      <trkpt lat="36.76279018633067607879638671875" lon="-118.40862792916595935821533203125">
        <ele>3001.800048828125</ele>
        <time>2021-06-25T15:32:37.000Z</time>
        <extensions>
          <ns3:TrackPointExtension>
            <ns3:atemp>22.0</ns3:atemp>
            <ns3:hr>108</ns3:hr>
          </ns3:TrackPointExtension>
        </extensions>
      </trkpt>
      <trkpt lat="36.7627994902431964874267578125" lon="-118.408615775406360626220703125">
        <ele>3002</ele>
        <time>2021-06-25T15:32:40.000Z</time>
        <extensions>
          <ns3:TrackPointExtension>
            <ns3:atemp>22.0</ns3:atemp>
            <ns3:hr>110</ns3:hr>
          </ns3:TrackPointExtension>
        </extensions>
      </trkpt>
      <trkpt lat="36.76280535757541656494140625" lon="-118.4086092375218868255615234375">
        <ele>3002.199951171875</ele>
        <time>2021-06-25T15:32:41.000Z</time>
        <extensions>
          <ns3:TrackPointExtension>
            <ns3:atemp>22.0</ns3:atemp>
            <ns3:hr>110</ns3:hr>
          </ns3:TrackPointExtension>
        </extensions>
      </trkpt>
      <trkpt lat="36.76282522268593311309814453125" lon="-118.40857713483273983001708984375">
        <ele>3003.199951171875</ele>
        <time>2021-06-25T15:32:47.000Z</time>
        <extensions>
          <ns3:TrackPointExtension>
            <ns3:atemp>22.0</ns3:atemp>
            <ns3:hr>113</ns3:hr>
          </ns3:TrackPointExtension>
        </extensions>
      </trkpt>
      <trkpt lat="36.76281197927892208099365234375" lon="-118.40859272517263889312744140625">
        <ele>3003.199951171875</ele>
        <time>2021-06-25T15:32:48.000Z</time>
        <extensions>
          <ns3:TrackPointExtension>
            <ns3:atemp>22.0</ns3:atemp>
            <ns3:hr>114</ns3:hr>
          </ns3:TrackPointExtension>
        </extensions>
      </trkpt>
      <trkpt lat="36.76280275918543338775634765625" lon="-118.408608734607696533203125">
        <ele>3003.800048828125</ele>
        <time>2021-06-25T15:32:52.000Z</time>
        <extensions>
          <ns3:TrackPointExtension>
            <ns3:atemp>22.0</ns3:atemp>
            <ns3:hr>117</ns3:hr>
          </ns3:TrackPointExtension>
        </extensions>
      </trkpt>
      <trkpt lat="36.76280410028994083404541015625" lon="-118.40861116535961627960205078125">
        <ele>3003.800048828125</ele>
        <time>2021-06-25T15:32:53.000Z</time>
        <extensions>
          <ns3:TrackPointExtension>
            <ns3:atemp>22.0</ns3:atemp>
            <ns3:hr>117</ns3:hr>
          </ns3:TrackPointExtension>
        </extensions>
      </trkpt>
      <trkpt lat="36.76279907114803791046142578125" lon="-118.40863094665110111236572265625">
        <ele>3004.800048828125</ele>
        <time>2021-06-25T15:32:57.000Z</time>
        <extensions>
          <ns3:TrackPointExtension>
            <ns3:atemp>22.0</ns3:atemp>
            <ns3:hr>117</ns3:hr>
          </ns3:TrackPointExtension>
        </extensions>
      </trkpt>
      <trkpt lat="36.762784235179424285888671875" lon="-118.40865240432322025299072265625">
        <ele>3005.39990234375</ele>
        <time>2021-06-25T15:33:01.000Z</time>
        <extensions>
          <ns3:TrackPointExtension>
            <ns3:atemp>22.0</ns3:atemp>
            <ns3:hr>117</ns3:hr>
          </ns3:TrackPointExtension>
        </extensions>
      </trkpt>
      <trkpt lat="36.76278800703585147857666015625" lon="-118.40865827165544033050537109375">
        <ele>3006</ele>
        <time>2021-06-25T15:33:03.000Z</time>
        <extensions>
          <ns3:TrackPointExtension>
            <ns3:atemp>22.0</ns3:atemp>
            <ns3:hr>118</ns3:hr>
          </ns3:TrackPointExtension>
        </extensions>
      </trkpt>
      <trkpt lat="36.76279286853969097137451171875" lon="-118.40866170823574066162109375">
        <ele>3006.199951171875</ele>
        <time>2021-06-25T15:33:05.000Z</time>
        <extensions>
          <ns3:TrackPointExtension>
            <ns3:atemp>22.0</ns3:atemp>
            <ns3:hr>118</ns3:hr>
          </ns3:TrackPointExtension>
        </extensions>
      </trkpt>
      <trkpt lat="36.76280938088893890380859375" lon="-118.40868048369884490966796875">
        <ele>3007</ele>
        <time>2021-06-25T15:33:09.000Z</time>
        <extensions>
          <ns3:TrackPointExtension>
            <ns3:atemp>22.0</ns3:atemp>
            <ns3:hr>115</ns3:hr>
          </ns3:TrackPointExtension>
        </extensions>
      </trkpt>
      <trkpt lat="36.76281902007758617401123046875" lon="-118.4086960740387439727783203125">
        <ele>3007.199951171875</ele>
        <time>2021-06-25T15:33:11.000Z</time>
        <extensions>
          <ns3:TrackPointExtension>
            <ns3:atemp>22.0</ns3:atemp>
            <ns3:hr>113</ns3:hr>
          </ns3:TrackPointExtension>
        </extensions>
      </trkpt>
      <trkpt lat="36.76284869201481342315673828125" lon="-118.40867511928081512451171875">
        <ele>3008.199951171875</ele>
        <time>2021-06-25T15:33:16.000Z</time>
        <extensions>
          <ns3:TrackPointExtension>
            <ns3:atemp>22.0</ns3:atemp>
            <ns3:hr>112</ns3:hr>
          </ns3:TrackPointExtension>
        </extensions>
      </trkpt>
      <trkpt lat="36.76287802867591381072998046875" lon="-118.4086377359926700592041015625">
        <ele>3009</ele>
        <time>2021-06-25T15:33:23.000Z</time>
        <extensions>
          <ns3:TrackPointExtension>
            <ns3:atemp>22.0</ns3:atemp>
            <ns3:hr>113</ns3:hr>
          </ns3:TrackPointExtension>
        </extensions>
      </trkpt>
      <trkpt lat="36.7628829739987850189208984375" lon="-118.4086323715746402740478515625">
        <ele>3009.199951171875</ele>
        <time>2021-06-25T15:33:24.000Z</time>
        <extensions>
          <ns3:TrackPointExtension>
            <ns3:atemp>22.0</ns3:atemp>
            <ns3:hr>113</ns3:hr>
          </ns3:TrackPointExtension>
        </extensions>
      </trkpt>
      <trkpt lat="36.7628876678645610809326171875" lon="-118.40862005017697811126708984375">
        <ele>3009.39990234375</ele>
        <time>2021-06-25T15:33:26.000Z</time>
        <extensions>
          <ns3:TrackPointExtension>
            <ns3:atemp>22.0</ns3:atemp>
            <ns3:hr>117</ns3:hr>
          </ns3:TrackPointExtension>
        </extensions>
      </trkpt>
      <trkpt lat="36.7628906853497028350830078125" lon="-118.40861166827380657196044921875">
        <ele>3009.39990234375</ele>
        <time>2021-06-25T15:33:28.000Z</time>
        <extensions>
          <ns3:TrackPointExtension>
            <ns3:atemp>22.0</ns3:atemp>
            <ns3:hr>113</ns3:hr>
          </ns3:TrackPointExtension>
        </extensions>
      </trkpt>
      <trkpt lat="36.76288825459778308868408203125" lon="-118.4085743688046932220458984375">
        <ele>3010</ele>
        <time>2021-06-25T15:33:31.000Z</time>
        <extensions>
          <ns3:TrackPointExtension>
            <ns3:atemp>22.0</ns3:atemp>
            <ns3:hr>113</ns3:hr>
          </ns3:TrackPointExtension>
        </extensions>
      </trkpt>
      <trkpt lat="36.7628809623420238494873046875" lon="-118.4085633046925067901611328125">
        <ele>3010.199951171875</ele>
        <time>2021-06-25T15:33:33.000Z</time>
        <extensions>
          <ns3:TrackPointExtension>
            <ns3:atemp>22.0</ns3:atemp>
            <ns3:hr>113</ns3:hr>
          </ns3:TrackPointExtension>
        </extensions>
      </trkpt>
      <trkpt lat="36.76289546303451061248779296875" lon="-118.4085512347519397735595703125">
        <ele>3010.39990234375</ele>
        <time>2021-06-25T15:33:36.000Z</time>
        <extensions>
          <ns3:TrackPointExtension>
            <ns3:atemp>22.0</ns3:atemp>
            <ns3:hr>116</ns3:hr>
          </ns3:TrackPointExtension>
        </extensions>
      </trkpt>
      <trkpt lat="36.76292379386723041534423828125" lon="-118.40852198190987110137939453125">
        <ele>3010.60009765625</ele>
        <time>2021-06-25T15:33:39.000Z</time>
        <extensions>
          <ns3:TrackPointExtension>
            <ns3:atemp>22.0</ns3:atemp>
            <ns3:hr>117</ns3:hr>
          </ns3:TrackPointExtension>
        </extensions>
      </trkpt>
      <trkpt lat="36.76292630843818187713623046875" lon="-118.4085136838257312774658203125">
        <ele>3010.800048828125</ele>
        <time>2021-06-25T15:33:41.000Z</time>
        <extensions>
          <ns3:TrackPointExtension>
            <ns3:atemp>22.0</ns3:atemp>
            <ns3:hr>120</ns3:hr>
          </ns3:TrackPointExtension>
        </extensions>
      </trkpt>
      <trkpt lat="36.7629374563694000244140625" lon="-118.40848024003207683563232421875">
        <ele>3011.199951171875</ele>
        <time>2021-06-25T15:33:45.000Z</time>
        <extensions>
          <ns3:TrackPointExtension>
            <ns3:atemp>22.0</ns3:atemp>
            <ns3:hr>121</ns3:hr>
          </ns3:TrackPointExtension>
        </extensions>
      </trkpt>
      <trkpt lat="36.76294407807290554046630859375" lon="-118.40847236104309558868408203125">
        <ele>3011.199951171875</ele>
        <time>2021-06-25T15:33:46.000Z</time>
        <extensions>
          <ns3:TrackPointExtension>
            <ns3:atemp>22.0</ns3:atemp>
            <ns3:hr>122</ns3:hr>
          </ns3:TrackPointExtension>
        </extensions>
      </trkpt>
      <trkpt lat="36.76298850215971469879150390625" lon="-118.40842902660369873046875">
        <ele>3012.39990234375</ele>
        <time>2021-06-25T15:33:53.000Z</time>
        <extensions>
          <ns3:TrackPointExtension>
            <ns3:atemp>22.0</ns3:atemp>
            <ns3:hr>121</ns3:hr>
          </ns3:TrackPointExtension>
        </extensions>
      </trkpt>
      <trkpt lat="36.76304114051163196563720703125" lon="-118.40833338908851146697998046875">
        <ele>3013</ele>
        <time>2021-06-25T15:34:00.000Z</time>
        <extensions>
          <ns3:TrackPointExtension>
            <ns3:atemp>22.0</ns3:atemp>
            <ns3:hr>118</ns3:hr>
          </ns3:TrackPointExtension>
        </extensions>
      </trkpt>
      <trkpt lat="36.763037033379077911376953125" lon="-118.408302627503871917724609375">
        <ele>3013.39990234375</ele>
        <time>2021-06-25T15:34:04.000Z</time>
        <extensions>
          <ns3:TrackPointExtension>
            <ns3:atemp>22.0</ns3:atemp>
            <ns3:hr>117</ns3:hr>
          </ns3:TrackPointExtension>
        </extensions>
      </trkpt>
      <trkpt lat="36.76303426735103130340576171875" lon="-118.4082694351673126220703125">
        <ele>3013.60009765625</ele>
        <time>2021-06-25T15:34:06.000Z</time>
        <extensions>
          <ns3:TrackPointExtension>
            <ns3:atemp>22.0</ns3:atemp>
            <ns3:hr>114</ns3:hr>
          </ns3:TrackPointExtension>
        </extensions>
      </trkpt>
      <trkpt lat="36.7630351893603801727294921875" lon="-118.408242277801036834716796875">
        <ele>3013.800048828125</ele>
        <time>2021-06-25T15:34:08.000Z</time>
        <extensions>
          <ns3:TrackPointExtension>
            <ns3:atemp>22.0</ns3:atemp>
            <ns3:hr>115</ns3:hr>
          </ns3:TrackPointExtension>
        </extensions>
      </trkpt>
      <trkpt lat="36.763033680617809295654296875" lon="-118.4082327224314212799072265625">
        <ele>3014.60009765625</ele>
        <time>2021-06-25T15:34:11.000Z</time>
        <extensions>
          <ns3:TrackPointExtension>
            <ns3:atemp>22.0</ns3:atemp>
            <ns3:hr>114</ns3:hr>
          </ns3:TrackPointExtension>
        </extensions>
      </trkpt>
      <trkpt lat="36.76304466091096401214599609375" lon="-118.4081908129155635833740234375">
        <ele>3015.60009765625</ele>
        <time>2021-06-25T15:34:16.000Z</time>
        <extensions>
          <ns3:TrackPointExtension>
            <ns3:atemp>22.0</ns3:atemp>
            <ns3:hr>114</ns3:hr>
          </ns3:TrackPointExtension>
        </extensions>
      </trkpt>
      <trkpt lat="36.76306561566889286041259765625" lon="-118.408122919499874114990234375">
        <ele>3016.39990234375</ele>
        <time>2021-06-25T15:34:22.000Z</time>
        <extensions>
          <ns3:TrackPointExtension>
            <ns3:atemp>22.0</ns3:atemp>
            <ns3:hr>111</ns3:hr>
          </ns3:TrackPointExtension>
        </extensions>
      </trkpt>
      <trkpt lat="36.76310299895703792572021484375" lon="-118.40809785760939121246337890625">
        <ele>3016.800048828125</ele>
        <time>2021-06-25T15:34:26.000Z</time>
        <extensions>
          <ns3:TrackPointExtension>
            <ns3:atemp>22.0</ns3:atemp>
            <ns3:hr>113</ns3:hr>
          </ns3:TrackPointExtension>
        </extensions>
      </trkpt>
      <trkpt lat="36.763116158545017242431640625" lon="-118.40807958506047725677490234375">
        <ele>3017</ele>
        <time>2021-06-25T15:34:29.000Z</time>
        <extensions>
          <ns3:TrackPointExtension>
            <ns3:atemp>22.0</ns3:atemp>
            <ns3:hr>113</ns3:hr>
          </ns3:TrackPointExtension>
        </extensions>
      </trkpt>
      <trkpt lat="36.76313501782715320587158203125" lon="-118.40801873244345188140869140625">
        <ele>3018</ele>
        <time>2021-06-25T15:34:36.000Z</time>
        <extensions>
          <ns3:TrackPointExtension>
            <ns3:atemp>22.0</ns3:atemp>
            <ns3:hr>112</ns3:hr>
          </ns3:TrackPointExtension>
        </extensions>
      </trkpt>
      <trkpt lat="36.76314993761479854583740234375" lon="-118.40799895115196704864501953125">
        <ele>3019.199951171875</ele>
        <time>2021-06-25T15:34:40.000Z</time>
        <extensions>
          <ns3:TrackPointExtension>
            <ns3:atemp>21.0</ns3:atemp>
            <ns3:hr>113</ns3:hr>
          </ns3:TrackPointExtension>
        </extensions>
      </trkpt>
      <trkpt lat="36.76314675249159336090087890625" lon="-118.4080057404935359954833984375">
        <ele>3019.60009765625</ele>
        <time>2021-06-25T15:34:42.000Z</time>
        <extensions>
          <ns3:TrackPointExtension>
            <ns3:atemp>21.0</ns3:atemp>
            <ns3:hr>113</ns3:hr>
          </ns3:TrackPointExtension>
        </extensions>
      </trkpt>
      <trkpt lat="36.763139627873897552490234375" lon="-118.40804521925747394561767578125">
        <ele>3020.199951171875</ele>
        <time>2021-06-25T15:34:46.000Z</time>
        <extensions>
          <ns3:TrackPointExtension>
            <ns3:atemp>21.0</ns3:atemp>
            <ns3:hr>115</ns3:hr>
          </ns3:TrackPointExtension>
        </extensions>
      </trkpt>
      <trkpt lat="36.7631485126912593841552734375" lon="-118.4080548584461212158203125">
        <ele>3020.800048828125</ele>
        <time>2021-06-25T15:34:50.000Z</time>
        <extensions>
          <ns3:TrackPointExtension>
            <ns3:atemp>21.0</ns3:atemp>
            <ns3:hr>117</ns3:hr>
          </ns3:TrackPointExtension>
        </extensions>
      </trkpt>
      <trkpt lat="36.76314524374902248382568359375" lon="-118.40805376879870891571044921875">
        <ele>3021.39990234375</ele>
        <time>2021-06-25T15:34:53.000Z</time>
        <extensions>
          <ns3:TrackPointExtension>
            <ns3:atemp>21.0</ns3:atemp>
            <ns3:hr>118</ns3:hr>
          </ns3:TrackPointExtension>
        </extensions>
      </trkpt>
      <trkpt lat="36.76315681077539920806884765625" lon="-118.4080781601369380950927734375">
        <ele>3022</ele>
        <time>2021-06-25T15:34:58.000Z</time>
        <extensions>
          <ns3:TrackPointExtension>
            <ns3:atemp>21.0</ns3:atemp>
            <ns3:hr>118</ns3:hr>
          </ns3:TrackPointExtension>
        </extensions>
      </trkpt>
      <trkpt lat="36.7631619237363338470458984375" lon="-118.4081063233315944671630859375">
        <ele>3022.39990234375</ele>
        <time>2021-06-25T15:35:03.000Z</time>
        <extensions>
          <ns3:TrackPointExtension>
            <ns3:atemp>21.0</ns3:atemp>
            <ns3:hr>115</ns3:hr>
          </ns3:TrackPointExtension>
        </extensions>
      </trkpt>
      <trkpt lat="36.76316075026988983154296875" lon="-118.40814596973359584808349609375">
        <ele>3022.60009765625</ele>
        <time>2021-06-25T15:35:06.000Z</time>
        <extensions>
          <ns3:TrackPointExtension>
            <ns3:atemp>21.0</ns3:atemp>
            <ns3:hr>114</ns3:hr>
          </ns3:TrackPointExtension>
        </extensions>
      </trkpt>
      <trkpt lat="36.7631895840167999267578125" lon="-118.4081998653709888458251953125">
        <ele>3023.39990234375</ele>
        <time>2021-06-25T15:35:13.000Z</time>
        <extensions>
          <ns3:TrackPointExtension>
            <ns3:atemp>21.0</ns3:atemp>
            <ns3:hr>111</ns3:hr>
          </ns3:TrackPointExtension>
        </extensions>
      </trkpt>
      <trkpt lat="36.7632043361663818359375" lon="-118.408288545906543731689453125">
        <ele>3024.60009765625</ele>
        <time>2021-06-25T15:35:21.000Z</time>
        <extensions>
          <ns3:TrackPointExtension>
            <ns3:atemp>21.0</ns3:atemp>
            <ns3:hr>109</ns3:hr>
          </ns3:TrackPointExtension>
        </extensions>
      </trkpt>
      <trkpt lat="36.76319159567356109619140625" lon="-118.4083044715225696563720703125">
        <ele>3025</ele>
        <time>2021-06-25T15:35:23.000Z</time>
        <extensions>
          <ns3:TrackPointExtension>
            <ns3:atemp>21.0</ns3:atemp>
            <ns3:hr>109</ns3:hr>
          </ns3:TrackPointExtension>
        </extensions>
      </trkpt>
      <trkpt lat="36.76317282021045684814453125" lon="-118.40833992697298526763916015625">
        <ele>3025.39990234375</ele>
        <time>2021-06-25T15:35:30.000Z</time>
        <extensions>
          <ns3:TrackPointExtension>
            <ns3:atemp>21.0</ns3:atemp>
            <ns3:hr>109</ns3:hr>
          </ns3:TrackPointExtension>
        </extensions>
      </trkpt>
      <trkpt lat="36.76318028010427951812744140625" lon="-118.408351577818393707275390625">
        <ele>3025.800048828125</ele>
        <time>2021-06-25T15:35:31.000Z</time>
        <extensions>
          <ns3:TrackPointExtension>
            <ns3:atemp>21.0</ns3:atemp>
            <ns3:hr>109</ns3:hr>
          </ns3:TrackPointExtension>
        </extensions>
      </trkpt>
      <trkpt lat="36.763204000890254974365234375" lon="-118.4083980135619640350341796875">
        <ele>3026.800048828125</ele>
        <time>2021-06-25T15:35:37.000Z</time>
        <extensions>
          <ns3:TrackPointExtension>
            <ns3:atemp>21.0</ns3:atemp>
            <ns3:hr>108</ns3:hr>
          </ns3:TrackPointExtension>
        </extensions>
      </trkpt>
      <trkpt lat="36.7632108740508556365966796875" lon="-118.40840153396129608154296875">
        <ele>3026.800048828125</ele>
        <time>2021-06-25T15:35:38.000Z</time>
        <extensions>
          <ns3:TrackPointExtension>
            <ns3:atemp>21.0</ns3:atemp>
            <ns3:hr>108</ns3:hr>
          </ns3:TrackPointExtension>
        </extensions>
      </trkpt>
      <trkpt lat="36.7632366903126239776611328125" lon="-118.40843145735561847686767578125">
        <ele>3027.800048828125</ele>
        <time>2021-06-25T15:35:43.000Z</time>
        <extensions>
          <ns3:TrackPointExtension>
            <ns3:atemp>21.0</ns3:atemp>
            <ns3:hr>110</ns3:hr>
          </ns3:TrackPointExtension>
        </extensions>
      </trkpt>
      <trkpt lat="36.76323895342648029327392578125" lon="-118.40844319202005863189697265625">
        <ele>3027.800048828125</ele>
        <time>2021-06-25T15:35:44.000Z</time>
        <extensions>
          <ns3:TrackPointExtension>
            <ns3:atemp>21.0</ns3:atemp>
            <ns3:hr>110</ns3:hr>
          </ns3:TrackPointExtension>
        </extensions>
      </trkpt>
      <trkpt lat="36.76325152628123760223388671875" lon="-118.40846733190119266510009765625">
        <ele>3028.199951171875</ele>
        <time>2021-06-25T15:35:47.000Z</time>
        <extensions>
          <ns3:TrackPointExtension>
            <ns3:atemp>21.0</ns3:atemp>
            <ns3:hr>114</ns3:hr>
          </ns3:TrackPointExtension>
        </extensions>
      </trkpt>
      <trkpt lat="36.7632702179253101348876953125" lon="-118.40849004685878753662109375">
        <ele>3028.800048828125</ele>
        <time>2021-06-25T15:35:50.000Z</time>
        <extensions>
          <ns3:TrackPointExtension>
            <ns3:atemp>21.0</ns3:atemp>
            <ns3:hr>118</ns3:hr>
          </ns3:TrackPointExtension>
        </extensions>
      </trkpt>
      <trkpt lat="36.76327784545719623565673828125" lon="-118.40849566273391246795654296875">
        <ele>3029</ele>
        <time>2021-06-25T15:35:51.000Z</time>
        <extensions>
          <ns3:TrackPointExtension>
            <ns3:atemp>21.0</ns3:atemp>
            <ns3:hr>118</ns3:hr>
          </ns3:TrackPointExtension>
        </extensions>
      </trkpt>
      <trkpt lat="36.76328890956938266754150390625" lon="-118.4085079841315746307373046875">
        <ele>3029</ele>
        <time>2021-06-25T15:35:53.000Z</time>
        <extensions>
          <ns3:TrackPointExtension>
            <ns3:atemp>21.0</ns3:atemp>
            <ns3:hr>116</ns3:hr>
          </ns3:TrackPointExtension>
        </extensions>
      </trkpt>
      <trkpt lat="36.76329980604350566864013671875" lon="-118.40852784924209117889404296875">
        <ele>3030</ele>
        <time>2021-06-25T15:35:56.000Z</time>
        <extensions>
          <ns3:TrackPointExtension>
            <ns3:atemp>21.0</ns3:atemp>
            <ns3:hr>115</ns3:hr>
          </ns3:TrackPointExtension>
        </extensions>
      </trkpt>
      <trkpt lat="36.763349510729312896728515625" lon="-118.40853623114526271820068359375">
        <ele>3030.39990234375</ele>
        <time>2021-06-25T15:36:01.000Z</time>
        <extensions>
          <ns3:TrackPointExtension>
            <ns3:atemp>21.0</ns3:atemp>
            <ns3:hr>112</ns3:hr>
          </ns3:TrackPointExtension>
        </extensions>
      </trkpt>
      <trkpt lat="36.76336183212697505950927734375" lon="-118.40852491557598114013671875">
        <ele>3030.60009765625</ele>
        <time>2021-06-25T15:36:02.000Z</time>
        <extensions>
          <ns3:TrackPointExtension>
            <ns3:atemp>21.0</ns3:atemp>
            <ns3:hr>111</ns3:hr>
          </ns3:TrackPointExtension>
        </extensions>
      </trkpt>
      <trkpt lat="36.76337306387722492218017578125" lon="-118.40851812623441219329833984375">
        <ele>3031.199951171875</ele>
        <time>2021-06-25T15:36:03.000Z</time>
        <extensions>
          <ns3:TrackPointExtension>
            <ns3:atemp>21.0</ns3:atemp>
            <ns3:hr>110</ns3:hr>
          </ns3:TrackPointExtension>
        </extensions>
      </trkpt>
      <trkpt lat="36.7633915878832340240478515625" lon="-118.40847923420369625091552734375">
        <ele>3031.199951171875</ele>
        <time>2021-06-25T15:36:08.000Z</time>
        <extensions>
          <ns3:TrackPointExtension>
            <ns3:atemp>21.0</ns3:atemp>
            <ns3:hr>110</ns3:hr>
          </ns3:TrackPointExtension>
        </extensions>
      </trkpt>
      <trkpt lat="36.7634147219359874725341796875" lon="-118.4084442816674709320068359375">
        <ele>3032.199951171875</ele>
        <time>2021-06-25T15:36:15.000Z</time>
        <extensions>
          <ns3:TrackPointExtension>
            <ns3:atemp>21.0</ns3:atemp>
            <ns3:hr>111</ns3:hr>
          </ns3:TrackPointExtension>
        </extensions>
      </trkpt>
      <trkpt lat="36.7634143866598606109619140625" lon="-118.4084409289062023162841796875">
        <ele>3032.199951171875</ele>
        <time>2021-06-25T15:36:16.000Z</time>
        <extensions>
          <ns3:TrackPointExtension>
            <ns3:atemp>21.0</ns3:atemp>
            <ns3:hr>111</ns3:hr>
          </ns3:TrackPointExtension>
        </extensions>
      </trkpt>
      <trkpt lat="36.7634499259293079376220703125" lon="-118.40836892835795879364013671875">
        <ele>3032.800048828125</ele>
        <time>2021-06-25T15:36:21.000Z</time>
        <extensions>
          <ns3:TrackPointExtension>
            <ns3:atemp>21.0</ns3:atemp>
            <ns3:hr>108</ns3:hr>
          </ns3:TrackPointExtension>
        </extensions>
      </trkpt>
      <trkpt lat="36.76345772109925746917724609375" lon="-118.4083510749042034149169921875">
        <ele>3032.800048828125</ele>
        <time>2021-06-25T15:36:22.000Z</time>
        <extensions>
          <ns3:TrackPointExtension>
            <ns3:atemp>21.0</ns3:atemp>
            <ns3:hr>109</ns3:hr>
          </ns3:TrackPointExtension>
        </extensions>
      </trkpt>
      <trkpt lat="36.76346719264984130859375" lon="-118.40833020396530628204345703125">
        <ele>3033.39990234375</ele>
        <time>2021-06-25T15:36:24.000Z</time>
        <extensions>
          <ns3:TrackPointExtension>
            <ns3:atemp>21.0</ns3:atemp>
            <ns3:hr>109</ns3:hr>
          </ns3:TrackPointExtension>
        </extensions>
      </trkpt>
      <trkpt lat="36.76348219625651836395263671875" lon="-118.40830321423709392547607421875">
        <ele>3033.800048828125</ele>
        <time>2021-06-25T15:36:27.000Z</time>
        <extensions>
          <ns3:TrackPointExtension>
            <ns3:atemp>21.0</ns3:atemp>
            <ns3:hr>106</ns3:hr>
          </ns3:TrackPointExtension>
        </extensions>
      </trkpt>
      <trkpt lat="36.76348756067454814910888671875" lon="-118.40829215012490749359130859375">
        <ele>3033.800048828125</ele>
        <time>2021-06-25T15:36:28.000Z</time>
        <extensions>
          <ns3:TrackPointExtension>
            <ns3:atemp>21.0</ns3:atemp>
            <ns3:hr>109</ns3:hr>
          </ns3:TrackPointExtension>
        </extensions>
      </trkpt>
      <trkpt lat="36.76349795423448085784912109375" lon="-118.4082823432981967926025390625">
        <ele>3034.39990234375</ele>
        <time>2021-06-25T15:36:30.000Z</time>
        <extensions>
          <ns3:TrackPointExtension>
            <ns3:atemp>21.0</ns3:atemp>
            <ns3:hr>109</ns3:hr>
          </ns3:TrackPointExtension>
        </extensions>
      </trkpt>
      <trkpt lat="36.763502061367034912109375" lon="-118.40827169828116893768310546875">
        <ele>3034.39990234375</ele>
        <time>2021-06-25T15:36:31.000Z</time>
        <extensions>
          <ns3:TrackPointExtension>
            <ns3:atemp>21.0</ns3:atemp>
            <ns3:hr>109</ns3:hr>
          </ns3:TrackPointExtension>
        </extensions>
      </trkpt>
      <trkpt lat="36.76352494396269321441650390625" lon="-118.40824370272457599639892578125">
        <ele>3035.199951171875</ele>
        <time>2021-06-25T15:36:35.000Z</time>
        <extensions>
          <ns3:TrackPointExtension>
            <ns3:atemp>21.0</ns3:atemp>
            <ns3:hr>112</ns3:hr>
          </ns3:TrackPointExtension>
        </extensions>
      </trkpt>
      <trkpt lat="36.76352678798139095306396484375" lon="-118.408239595592021942138671875">
        <ele>3035.39990234375</ele>
        <time>2021-06-25T15:36:37.000Z</time>
        <extensions>
          <ns3:TrackPointExtension>
            <ns3:atemp>21.0</ns3:atemp>
            <ns3:hr>111</ns3:hr>
          </ns3:TrackPointExtension>
        </extensions>
      </trkpt>
      <trkpt lat="36.763529218733310699462890625" lon="-118.408228196203708648681640625">
        <ele>3035.60009765625</ele>
        <time>2021-06-25T15:36:39.000Z</time>
        <extensions>
          <ns3:TrackPointExtension>
            <ns3:atemp>21.0</ns3:atemp>
            <ns3:hr>112</ns3:hr>
          </ns3:TrackPointExtension>
        </extensions>
      </trkpt>
      <trkpt lat="36.76354430615901947021484375" lon="-118.408154435455799102783203125">
        <ele>3037</ele>
        <time>2021-06-25T15:36:46.000Z</time>
        <extensions>
          <ns3:TrackPointExtension>
            <ns3:atemp>21.0</ns3:atemp>
            <ns3:hr>110</ns3:hr>
          </ns3:TrackPointExtension>
        </extensions>
      </trkpt>
      <trkpt lat="36.7635490000247955322265625" lon="-118.40807958506047725677490234375">
        <ele>3037.199951171875</ele>
        <time>2021-06-25T15:36:52.000Z</time>
        <extensions>
          <ns3:TrackPointExtension>
            <ns3:atemp>21.0</ns3:atemp>
            <ns3:hr>110</ns3:hr>
          </ns3:TrackPointExtension>
        </extensions>
      </trkpt>
      <trkpt lat="36.763556040823459625244140625" lon="-118.40805611573159694671630859375">
        <ele>3037.60009765625</ele>
        <time>2021-06-25T15:36:57.000Z</time>
        <extensions>
          <ns3:TrackPointExtension>
            <ns3:atemp>21.0</ns3:atemp>
            <ns3:hr>109</ns3:hr>
          </ns3:TrackPointExtension>
        </extensions>
      </trkpt>
      <trkpt lat="36.76354975439608097076416015625" lon="-118.4080510027706623077392578125">
        <ele>3038.199951171875</ele>
        <time>2021-06-25T15:36:59.000Z</time>
        <extensions>
          <ns3:TrackPointExtension>
            <ns3:atemp>21.0</ns3:atemp>
            <ns3:hr>110</ns3:hr>
          </ns3:TrackPointExtension>
        </extensions>
      </trkpt>
      <trkpt lat="36.7635625787079334259033203125" lon="-118.40803750790655612945556640625">
        <ele>3038.60009765625</ele>
        <time>2021-06-25T15:37:05.000Z</time>
        <extensions>
          <ns3:TrackPointExtension>
            <ns3:atemp>21.0</ns3:atemp>
            <ns3:hr>113</ns3:hr>
          </ns3:TrackPointExtension>
        </extensions>
      </trkpt>
      <trkpt lat="36.7635823599994182586669921875" lon="-118.4079904854297637939453125">
        <ele>3039.199951171875</ele>
        <time>2021-06-25T15:37:11.000Z</time>
        <extensions>
          <ns3:TrackPointExtension>
            <ns3:atemp>21.0</ns3:atemp>
            <ns3:hr>113</ns3:hr>
          </ns3:TrackPointExtension>
        </extensions>
      </trkpt>
      <trkpt lat="36.76358512602746486663818359375" lon="-118.407970033586025238037109375">
        <ele>3040</ele>
        <time>2021-06-25T15:37:15.000Z</time>
        <extensions>
          <ns3:TrackPointExtension>
            <ns3:atemp>21.0</ns3:atemp>
            <ns3:hr>113</ns3:hr>
          </ns3:TrackPointExtension>
        </extensions>
      </trkpt>
      <trkpt lat="36.7636128701269626617431640625" lon="-118.40790960006415843963623046875">
        <ele>3040.39990234375</ele>
        <time>2021-06-25T15:37:22.000Z</time>
        <extensions>
          <ns3:TrackPointExtension>
            <ns3:atemp>21.0</ns3:atemp>
            <ns3:hr>115</ns3:hr>
          </ns3:TrackPointExtension>
        </extensions>
      </trkpt>
      <trkpt lat="36.763618402183055877685546875" lon="-118.40790842659771442413330078125">
        <ele>3040.60009765625</ele>
        <time>2021-06-25T15:37:23.000Z</time>
        <extensions>
          <ns3:TrackPointExtension>
            <ns3:atemp>21.0</ns3:atemp>
            <ns3:hr>113</ns3:hr>
          </ns3:TrackPointExtension>
        </extensions>
      </trkpt>
      <trkpt lat="36.763638518750667572021484375" lon="-118.40789794921875">
        <ele>3041.39990234375</ele>
        <time>2021-06-25T15:37:28.000Z</time>
        <extensions>
          <ns3:TrackPointExtension>
            <ns3:atemp>21.0</ns3:atemp>
            <ns3:hr>111</ns3:hr>
          </ns3:TrackPointExtension>
        </extensions>
      </trkpt>
      <trkpt lat="36.76365553401410579681396484375" lon="-118.407878167927265167236328125">
        <ele>3041.60009765625</ele>
        <time>2021-06-25T15:37:30.000Z</time>
        <extensions>
          <ns3:TrackPointExtension>
            <ns3:atemp>21.0</ns3:atemp>
            <ns3:hr>109</ns3:hr>
          </ns3:TrackPointExtension>
        </extensions>
      </trkpt>
      <trkpt lat="36.76370792090892791748046875" lon="-118.40782728977501392364501953125">
        <ele>3042.39990234375</ele>
        <time>2021-06-25T15:37:39.000Z</time>
        <extensions>
          <ns3:TrackPointExtension>
            <ns3:atemp>21.0</ns3:atemp>
            <ns3:hr>106</ns3:hr>
          </ns3:TrackPointExtension>
        </extensions>
      </trkpt>
      <trkpt lat="36.76371018402278423309326171875" lon="-118.40782427228987216949462890625">
        <ele>3042.800048828125</ele>
        <time>2021-06-25T15:37:40.000Z</time>
        <extensions>
          <ns3:TrackPointExtension>
            <ns3:atemp>21.0</ns3:atemp>
            <ns3:hr>106</ns3:hr>
          </ns3:TrackPointExtension>
        </extensions>
      </trkpt>
      <trkpt lat="36.76371521316468715667724609375" lon="-118.40781924314796924591064453125">
        <ele>3043</ele>
        <time>2021-06-25T15:37:41.000Z</time>
        <extensions>
          <ns3:TrackPointExtension>
            <ns3:atemp>21.0</ns3:atemp>
            <ns3:hr>105</ns3:hr>
          </ns3:TrackPointExtension>
        </extensions>
      </trkpt>
      <trkpt lat="36.763747148215770721435546875" lon="-118.4078163094818592071533203125">
        <ele>3043.199951171875</ele>
        <time>2021-06-25T15:37:45.000Z</time>
        <extensions>
          <ns3:TrackPointExtension>
            <ns3:atemp>21.0</ns3:atemp>
            <ns3:hr>101</ns3:hr>
          </ns3:TrackPointExtension>
        </extensions>
      </trkpt>
      <trkpt lat="36.7637362517416477203369140625" lon="-118.40784254483878612518310546875">
        <ele>3043.60009765625</ele>
        <time>2021-06-25T15:37:47.000Z</time>
        <extensions>
          <ns3:TrackPointExtension>
            <ns3:atemp>21.0</ns3:atemp>
            <ns3:hr>98</ns3:hr>
          </ns3:TrackPointExtension>
        </extensions>
      </trkpt>
      <trkpt lat="36.76374387927353382110595703125" lon="-118.40785478241741657257080078125">
        <ele>3043.60009765625</ele>
        <time>2021-06-25T15:37:49.000Z</time>
        <extensions>
          <ns3:TrackPointExtension>
            <ns3:atemp>21.0</ns3:atemp>
            <ns3:hr>98</ns3:hr>
          </ns3:TrackPointExtension>
        </extensions>
      </trkpt>
      <trkpt lat="36.763746477663516998291015625" lon="-118.40786375105381011962890625">
        <ele>3044.199951171875</ele>
        <time>2021-06-25T15:37:50.000Z</time>
        <extensions>
          <ns3:TrackPointExtension>
            <ns3:atemp>21.0</ns3:atemp>
            <ns3:hr>98</ns3:hr>
          </ns3:TrackPointExtension>
        </extensions>
      </trkpt>
      <trkpt lat="36.7637456394731998443603515625" lon="-118.40788445435464382171630859375">
        <ele>3044.800048828125</ele>
        <time>2021-06-25T15:37:53.000Z</time>
        <extensions>
          <ns3:TrackPointExtension>
            <ns3:atemp>21.0</ns3:atemp>
            <ns3:hr>100</ns3:hr>
          </ns3:TrackPointExtension>
        </extensions>
      </trkpt>
      <trkpt lat="36.763738431036472320556640625" lon="-118.40790934860706329345703125">
        <ele>3045.60009765625</ele>
        <time>2021-06-25T15:37:56.000Z</time>
        <extensions>
          <ns3:TrackPointExtension>
            <ns3:atemp>21.0</ns3:atemp>
            <ns3:hr>103</ns3:hr>
          </ns3:TrackPointExtension>
        </extensions>
      </trkpt>
      <trkpt lat="36.76373600028455257415771484375" lon="-118.40794497169554233551025390625">
        <ele>3046</ele>
        <time>2021-06-25T15:38:00.000Z</time>
        <extensions>
          <ns3:TrackPointExtension>
            <ns3:atemp>21.0</ns3:atemp>
            <ns3:hr>105</ns3:hr>
          </ns3:TrackPointExtension>
        </extensions>
      </trkpt>
      <trkpt lat="36.76373935304582118988037109375" lon="-118.4079561196267604827880859375">
        <ele>3046.199951171875</ele>
        <time>2021-06-25T15:38:01.000Z</time>
        <extensions>
          <ns3:TrackPointExtension>
            <ns3:atemp>21.0</ns3:atemp>
            <ns3:hr>105</ns3:hr>
          </ns3:TrackPointExtension>
        </extensions>
      </trkpt>
      <trkpt lat="36.7637419514358043670654296875" lon="-118.4079738892614841461181640625">
        <ele>3046.60009765625</ele>
        <time>2021-06-25T15:38:03.000Z</time>
        <extensions>
          <ns3:TrackPointExtension>
            <ns3:atemp>21.0</ns3:atemp>
            <ns3:hr>105</ns3:hr>
          </ns3:TrackPointExtension>
        </extensions>
      </trkpt>
      <trkpt lat="36.763748824596405029296875" lon="-118.4079976938664913177490234375">
        <ele>3046.800048828125</ele>
        <time>2021-06-25T15:38:06.000Z</time>
        <extensions>
          <ns3:TrackPointExtension>
            <ns3:atemp>21.0</ns3:atemp>
            <ns3:hr>104</ns3:hr>
          </ns3:TrackPointExtension>
        </extensions>
      </trkpt>
      <trkpt lat="36.763757206499576568603515625" lon="-118.4080040641129016876220703125">
        <ele>3047</ele>
        <time>2021-06-25T15:38:07.000Z</time>
        <extensions>
          <ns3:TrackPointExtension>
            <ns3:atemp>21.0</ns3:atemp>
            <ns3:hr>104</ns3:hr>
          </ns3:TrackPointExtension>
        </extensions>
      </trkpt>
      <trkpt lat="36.76376466639339923858642578125" lon="-118.408063240349292755126953125">
        <ele>3047.800048828125</ele>
        <time>2021-06-25T15:38:13.000Z</time>
        <extensions>
          <ns3:TrackPointExtension>
            <ns3:atemp>21.0</ns3:atemp>
            <ns3:hr>105</ns3:hr>
          </ns3:TrackPointExtension>
        </extensions>
      </trkpt>
      <trkpt lat="36.7637590505182743072509765625" lon="-118.4080754779279232025146484375">
        <ele>3047.800048828125</ele>
        <time>2021-06-25T15:38:14.000Z</time>
        <extensions>
          <ns3:TrackPointExtension>
            <ns3:atemp>21.0</ns3:atemp>
            <ns3:hr>105</ns3:hr>
          </ns3:TrackPointExtension>
        </extensions>
      </trkpt>
      <trkpt lat="36.7637399397790431976318359375" lon="-118.4081002883613109588623046875">
        <ele>3048</ele>
        <time>2021-06-25T15:38:17.000Z</time>
        <extensions>
          <ns3:TrackPointExtension>
            <ns3:atemp>21.0</ns3:atemp>
            <ns3:hr>106</ns3:hr>
          </ns3:TrackPointExtension>
        </extensions>
      </trkpt>
      <trkpt lat="36.76373474299907684326171875" lon="-118.40812451206147670745849609375">
        <ele>3047.800048828125</ele>
        <time>2021-06-25T15:38:20.000Z</time>
        <extensions>
          <ns3:TrackPointExtension>
            <ns3:atemp>21.0</ns3:atemp>
            <ns3:hr>105</ns3:hr>
          </ns3:TrackPointExtension>
        </extensions>
      </trkpt>
      <trkpt lat="36.7637516744434833526611328125" lon="-118.40817983262240886688232421875">
        <ele>3048.199951171875</ele>
        <time>2021-06-25T15:38:28.000Z</time>
        <extensions>
          <ns3:TrackPointExtension>
            <ns3:atemp>21.0</ns3:atemp>
            <ns3:hr>104</ns3:hr>
          </ns3:TrackPointExtension>
        </extensions>
      </trkpt>
      <trkpt lat="36.76374547183513641357421875" lon="-118.4082169644534587860107421875">
        <ele>3048.800048828125</ele>
        <time>2021-06-25T15:38:34.000Z</time>
        <extensions>
          <ns3:TrackPointExtension>
            <ns3:atemp>21.0</ns3:atemp>
            <ns3:hr>104</ns3:hr>
          </ns3:TrackPointExtension>
        </extensions>
      </trkpt>
      <trkpt lat="36.76374840550124645233154296875" lon="-118.4082520008087158203125">
        <ele>3048.60009765625</ele>
        <time>2021-06-25T15:38:38.000Z</time>
        <extensions>
          <ns3:TrackPointExtension>
            <ns3:atemp>21.0</ns3:atemp>
            <ns3:hr>105</ns3:hr>
          </ns3:TrackPointExtension>
        </extensions>
      </trkpt>
      <trkpt lat="36.763754189014434814453125" lon="-118.40830941684544086456298828125">
        <ele>3049</ele>
        <time>2021-06-25T15:38:45.000Z</time>
        <extensions>
          <ns3:TrackPointExtension>
            <ns3:atemp>21.0</ns3:atemp>
            <ns3:hr>101</ns3:hr>
          </ns3:TrackPointExtension>
        </extensions>
      </trkpt>
      <trkpt lat="36.76375678740441799163818359375" lon="-118.40831813402473926544189453125">
        <ele>3049</ele>
        <time>2021-06-25T15:38:46.000Z</time>
        <extensions>
          <ns3:TrackPointExtension>
            <ns3:atemp>21.0</ns3:atemp>
            <ns3:hr>104</ns3:hr>
          </ns3:TrackPointExtension>
        </extensions>
      </trkpt>
      <trkpt lat="36.7637593857944011688232421875" lon="-118.40832701884210109710693359375">
        <ele>3049</ele>
        <time>2021-06-25T15:38:47.000Z</time>
        <extensions>
          <ns3:TrackPointExtension>
            <ns3:atemp>21.0</ns3:atemp>
            <ns3:hr>104</ns3:hr>
          </ns3:TrackPointExtension>
        </extensions>
      </trkpt>
      <trkpt lat="36.76379132084548473358154296875" lon="-118.4083772264420986175537109375">
        <ele>3050</ele>
        <time>2021-06-25T15:38:52.000Z</time>
        <extensions>
          <ns3:TrackPointExtension>
            <ns3:atemp>21.0</ns3:atemp>
            <ns3:hr>104</ns3:hr>
          </ns3:TrackPointExtension>
        </extensions>
      </trkpt>
      <trkpt lat="36.76379735581576824188232421875" lon="-118.40838653035461902618408203125">
        <ele>3050</ele>
        <time>2021-06-25T15:38:53.000Z</time>
        <extensions>
          <ns3:TrackPointExtension>
            <ns3:atemp>21.0</ns3:atemp>
            <ns3:hr>105</ns3:hr>
          </ns3:TrackPointExtension>
        </extensions>
      </trkpt>
      <trkpt lat="36.763814203441143035888671875" lon="-118.40845174156129360198974609375">
        <ele>3051</ele>
        <time>2021-06-25T15:39:02.000Z</time>
        <extensions>
          <ns3:TrackPointExtension>
            <ns3:atemp>21.0</ns3:atemp>
            <ns3:hr>103</ns3:hr>
          </ns3:TrackPointExtension>
        </extensions>
      </trkpt>
      <trkpt lat="36.76381797529757022857666015625" lon="-118.4085113368928432464599609375">
        <ele>3051.800048828125</ele>
        <time>2021-06-25T15:39:08.000Z</time>
        <extensions>
          <ns3:TrackPointExtension>
            <ns3:atemp>21.0</ns3:atemp>
            <ns3:hr>103</ns3:hr>
          </ns3:TrackPointExtension>
        </extensions>
      </trkpt>
      <trkpt lat="36.7638172209262847900390625" lon="-118.4085224010050296783447265625">
        <ele>3052.199951171875</ele>
        <time>2021-06-25T15:39:11.000Z</time>
        <extensions>
          <ns3:TrackPointExtension>
            <ns3:atemp>21.0</ns3:atemp>
            <ns3:hr>104</ns3:hr>
          </ns3:TrackPointExtension>
        </extensions>
      </trkpt>
      <trkpt lat="36.7638056538999080657958984375" lon="-118.40856137685477733612060546875">
        <ele>3052.60009765625</ele>
        <time>2021-06-25T15:39:14.000Z</time>
        <extensions>
          <ns3:TrackPointExtension>
            <ns3:atemp>21.0</ns3:atemp>
            <ns3:hr>107</ns3:hr>
          </ns3:TrackPointExtension>
        </extensions>
      </trkpt>
      <trkpt lat="36.76381110213696956634521484375" lon="-118.40858417563140392303466796875">
        <ele>3052.800048828125</ele>
        <time>2021-06-25T15:39:16.000Z</time>
        <extensions>
          <ns3:TrackPointExtension>
            <ns3:atemp>21.0</ns3:atemp>
            <ns3:hr>108</ns3:hr>
          </ns3:TrackPointExtension>
        </extensions>
      </trkpt>
      <trkpt lat="36.76382350735366344451904296875" lon="-118.408576883375644683837890625">
        <ele>3052.800048828125</ele>
        <time>2021-06-25T15:39:19.000Z</time>
        <extensions>
          <ns3:TrackPointExtension>
            <ns3:atemp>21.0</ns3:atemp>
            <ns3:hr>111</ns3:hr>
          </ns3:TrackPointExtension>
        </extensions>
      </trkpt>
      <trkpt lat="36.7638291232287883758544921875" lon="-118.40856288559734821319580078125">
        <ele>3052.800048828125</ele>
        <time>2021-06-25T15:39:21.000Z</time>
        <extensions>
          <ns3:TrackPointExtension>
            <ns3:atemp>21.0</ns3:atemp>
            <ns3:hr>114</ns3:hr>
          </ns3:TrackPointExtension>
        </extensions>
      </trkpt>
      <trkpt lat="36.7638381756842136383056640625" lon="-118.40855115093290805816650390625">
        <ele>3053.39990234375</ele>
        <time>2021-06-25T15:39:23.000Z</time>
        <extensions>
          <ns3:TrackPointExtension>
            <ns3:atemp>21.0</ns3:atemp>
            <ns3:hr>115</ns3:hr>
          </ns3:TrackPointExtension>
        </extensions>
      </trkpt>
      <trkpt lat="36.76384605467319488525390625" lon="-118.40853606350719928741455078125">
        <ele>3054.199951171875</ele>
        <time>2021-06-25T15:39:27.000Z</time>
        <extensions>
          <ns3:TrackPointExtension>
            <ns3:atemp>21.0</ns3:atemp>
            <ns3:hr>118</ns3:hr>
          </ns3:TrackPointExtension>
        </extensions>
      </trkpt>
      <trkpt lat="36.76386323757469654083251953125" lon="-118.40852634049952030181884765625">
        <ele>3054.39990234375</ele>
        <time>2021-06-25T15:39:30.000Z</time>
        <extensions>
          <ns3:TrackPointExtension>
            <ns3:atemp>21.0</ns3:atemp>
            <ns3:hr>117</ns3:hr>
          </ns3:TrackPointExtension>
        </extensions>
      </trkpt>
      <trkpt lat="36.76387245766818523406982421875" lon="-118.4085224010050296783447265625">
        <ele>3054.39990234375</ele>
        <time>2021-06-25T15:39:31.000Z</time>
        <extensions>
          <ns3:TrackPointExtension>
            <ns3:atemp>21.0</ns3:atemp>
            <ns3:hr>120</ns3:hr>
          </ns3:TrackPointExtension>
        </extensions>
      </trkpt>
      <trkpt lat="36.7639048956334590911865234375" lon="-118.40854880400002002716064453125">
        <ele>3055.800048828125</ele>
        <time>2021-06-25T15:39:37.000Z</time>
        <extensions>
          <ns3:TrackPointExtension>
            <ns3:atemp>21.0</ns3:atemp>
            <ns3:hr>122</ns3:hr>
          </ns3:TrackPointExtension>
        </extensions>
      </trkpt>
      <trkpt lat="36.76391134969890117645263671875" lon="-118.4085502289235591888427734375">
        <ele>3056.199951171875</ele>
        <time>2021-06-25T15:39:40.000Z</time>
        <extensions>
          <ns3:TrackPointExtension>
            <ns3:atemp>21.0</ns3:atemp>
            <ns3:hr>123</ns3:hr>
          </ns3:TrackPointExtension>
        </extensions>
      </trkpt>
      <trkpt lat="36.76391788758337497711181640625" lon="-118.4085671603679656982421875">
        <ele>3056.800048828125</ele>
        <time>2021-06-25T15:39:46.000Z</time>
        <extensions>
          <ns3:TrackPointExtension>
            <ns3:atemp>21.0</ns3:atemp>
            <ns3:hr>123</ns3:hr>
          </ns3:TrackPointExtension>
        </extensions>
      </trkpt>
      <trkpt lat="36.763926185667514801025390625" lon="-118.40859691612422466278076171875">
        <ele>3057</ele>
        <time>2021-06-25T15:39:49.000Z</time>
        <extensions>
          <ns3:TrackPointExtension>
            <ns3:atemp>21.0</ns3:atemp>
            <ns3:hr>123</ns3:hr>
          </ns3:TrackPointExtension>
        </extensions>
      </trkpt>
      <trkpt lat="36.76391042768955230712890625" lon="-118.40865726582705974578857421875">
        <ele>3057.39990234375</ele>
        <time>2021-06-25T15:39:58.000Z</time>
        <extensions>
          <ns3:TrackPointExtension>
            <ns3:atemp>21.0</ns3:atemp>
            <ns3:hr>118</ns3:hr>
          </ns3:TrackPointExtension>
        </extensions>
      </trkpt>
      <trkpt lat="36.763907410204410552978515625" lon="-118.40865776874125003814697265625">
        <ele>3057.39990234375</ele>
        <time>2021-06-25T15:39:59.000Z</time>
        <extensions>
          <ns3:TrackPointExtension>
            <ns3:atemp>21.0</ns3:atemp>
            <ns3:hr>121</ns3:hr>
          </ns3:TrackPointExtension>
        </extensions>
      </trkpt>
      <trkpt lat="36.76390648819506168365478515625" lon="-118.40869632549583911895751953125">
        <ele>3057.60009765625</ele>
        <time>2021-06-25T15:40:04.000Z</time>
        <extensions>
          <ns3:TrackPointExtension>
            <ns3:atemp>21.0</ns3:atemp>
            <ns3:hr>118</ns3:hr>
          </ns3:TrackPointExtension>
        </extensions>
      </trkpt>
      <trkpt lat="36.76390707492828369140625" lon="-118.4086937271058559417724609375">
        <ele>3057.800048828125</ele>
        <time>2021-06-25T15:40:05.000Z</time>
        <extensions>
          <ns3:TrackPointExtension>
            <ns3:atemp>21.0</ns3:atemp>
            <ns3:hr>118</ns3:hr>
          </ns3:TrackPointExtension>
        </extensions>
      </trkpt>
      <trkpt lat="36.76390715874731540679931640625" lon="-118.4086960740387439727783203125">
        <ele>3057.800048828125</ele>
        <time>2021-06-25T15:40:08.000Z</time>
        <extensions>
          <ns3:TrackPointExtension>
            <ns3:atemp>21.0</ns3:atemp>
            <ns3:hr>115</ns3:hr>
          </ns3:TrackPointExtension>
        </extensions>
      </trkpt>
      <trkpt lat="36.76391051150858402252197265625" lon="-118.40870386920869350433349609375">
        <ele>3057.60009765625</ele>
        <time>2021-06-25T15:40:20.000Z</time>
        <extensions>
          <ns3:TrackPointExtension>
            <ns3:atemp>21.0</ns3:atemp>
            <ns3:hr>112</ns3:hr>
          </ns3:TrackPointExtension>
        </extensions>
      </trkpt>
      <trkpt lat="36.76391051150858402252197265625" lon="-118.40870386920869350433349609375">
        <ele>3057.60009765625</ele>
        <time>2021-06-25T15:40:21.000Z</time>
        <extensions>
          <ns3:TrackPointExtension>
            <ns3:atemp>21.0</ns3:atemp>
            <ns3:hr>111</ns3:hr>
          </ns3:TrackPointExtension>
        </extensions>
      </trkpt>
      <trkpt lat="36.763907410204410552978515625" lon="-118.4086964093148708343505859375">
        <ele>3057.800048828125</ele>
        <time>2021-06-25T15:40:29.000Z</time>
        <extensions>
          <ns3:TrackPointExtension>
            <ns3:atemp>21.0</ns3:atemp>
            <ns3:hr>108</ns3:hr>
          </ns3:TrackPointExtension>
        </extensions>
      </trkpt>
      <trkpt lat="36.76390715874731540679931640625" lon="-118.4086940623819828033447265625">
        <ele>3057.60009765625</ele>
        <time>2021-06-25T15:40:33.000Z</time>
        <extensions>
          <ns3:TrackPointExtension>
            <ns3:atemp>22.0</ns3:atemp>
            <ns3:hr>105</ns3:hr>
          </ns3:TrackPointExtension>
        </extensions>
      </trkpt>
      <trkpt lat="36.7639072425663471221923828125" lon="-118.4086959064006805419921875">
        <ele>3057.39990234375</ele>
        <time>2021-06-25T15:40:36.000Z</time>
        <extensions>
          <ns3:TrackPointExtension>
            <ns3:atemp>22.0</ns3:atemp>
            <ns3:hr>102</ns3:hr>
          </ns3:TrackPointExtension>
        </extensions>
      </trkpt>
      <trkpt lat="36.76391780376434326171875" lon="-118.40869112871587276458740234375">
        <ele>3057.39990234375</ele>
        <time>2021-06-25T15:40:51.000Z</time>
        <extensions>
          <ns3:TrackPointExtension>
            <ns3:atemp>22.0</ns3:atemp>
            <ns3:hr>105</ns3:hr>
          </ns3:TrackPointExtension>
        </extensions>
      </trkpt>
      <trkpt lat="36.76394068636000156402587890625" lon="-118.4086075611412525177001953125">
        <ele>3057.39990234375</ele>
        <time>2021-06-25T15:41:19.000Z</time>
        <extensions>
          <ns3:TrackPointExtension>
            <ns3:atemp>22.0</ns3:atemp>
            <ns3:hr>108</ns3:hr>
          </ns3:TrackPointExtension>
        </extensions>
      </trkpt>
      <trkpt lat="36.7639459669589996337890625" lon="-118.4086072258651256561279296875">
        <ele>3057.39990234375</ele>
        <time>2021-06-25T15:41:22.000Z</time>
        <extensions>
          <ns3:TrackPointExtension>
            <ns3:atemp>22.0</ns3:atemp>
            <ns3:hr>108</ns3:hr>
          </ns3:TrackPointExtension>
        </extensions>
      </trkpt>
      <trkpt lat="36.7639481462538242340087890625" lon="-118.40860764496028423309326171875">
        <ele>3057.199951171875</ele>
        <time>2021-06-25T15:41:28.000Z</time>
        <extensions>
          <ns3:TrackPointExtension>
            <ns3:atemp>22.0</ns3:atemp>
            <ns3:hr>105</ns3:hr>
          </ns3:TrackPointExtension>
        </extensions>
      </trkpt>
      <trkpt lat="36.76396180875599384307861328125" lon="-118.408611752092838287353515625">
        <ele>3057</ele>
        <time>2021-06-25T15:41:36.000Z</time>
        <extensions>
          <ns3:TrackPointExtension>
            <ns3:atemp>22.0</ns3:atemp>
            <ns3:hr>102</ns3:hr>
          </ns3:TrackPointExtension>
        </extensions>
      </trkpt>
      <trkpt lat="36.7639618925750255584716796875" lon="-118.4086135961115360260009765625">
        <ele>3057.199951171875</ele>
        <time>2021-06-25T15:41:40.000Z</time>
        <extensions>
          <ns3:TrackPointExtension>
            <ns3:atemp>22.0</ns3:atemp>
            <ns3:hr>99</ns3:hr>
          </ns3:TrackPointExtension>
        </extensions>
      </trkpt>
      <trkpt lat="36.76396868191659450531005859375" lon="-118.40860596857964992523193359375">
        <ele>3058</ele>
        <time>2021-06-25T15:41:55.000Z</time>
        <extensions>
          <ns3:TrackPointExtension>
            <ns3:atemp>22.0</ns3:atemp>
            <ns3:hr>99</ns3:hr>
          </ns3:TrackPointExtension>
        </extensions>
      </trkpt>
      <trkpt lat="36.7639712803065776824951171875" lon="-118.4085951559245586395263671875">
        <ele>3059</ele>
        <time>2021-06-25T15:42:00.000Z</time>
        <extensions>
          <ns3:TrackPointExtension>
            <ns3:atemp>22.0</ns3:atemp>
            <ns3:hr>99</ns3:hr>
          </ns3:TrackPointExtension>
        </extensions>
      </trkpt>
      <trkpt lat="36.7640664987266063690185546875" lon="-118.40848895721137523651123046875">
        <ele>3060.199951171875</ele>
        <time>2021-06-25T15:42:08.000Z</time>
        <extensions>
          <ns3:TrackPointExtension>
            <ns3:atemp>22.0</ns3:atemp>
            <ns3:hr>99</ns3:hr>
          </ns3:TrackPointExtension>
        </extensions>
      </trkpt>
      <trkpt lat="36.7641013674437999725341796875" lon="-118.40844771824777126312255859375">
        <ele>3060.39990234375</ele>
        <time>2021-06-25T15:42:10.000Z</time>
        <extensions>
          <ns3:TrackPointExtension>
            <ns3:atemp>22.0</ns3:atemp>
            <ns3:hr>97</ns3:hr>
          </ns3:TrackPointExtension>
        </extensions>
      </trkpt>
      <trkpt lat="36.76415383815765380859375" lon="-118.40838938020169734954833984375">
        <ele>3061</ele>
        <time>2021-06-25T15:42:14.000Z</time>
        <extensions>
          <ns3:TrackPointExtension>
            <ns3:atemp>22.0</ns3:atemp>
            <ns3:hr>100</ns3:hr>
          </ns3:TrackPointExtension>
        </extensions>
      </trkpt>
      <trkpt lat="36.7641617171466350555419921875" lon="-118.408383764326572418212890625">
        <ele>3061</ele>
        <time>2021-06-25T15:42:15.000Z</time>
        <extensions>
          <ns3:TrackPointExtension>
            <ns3:atemp>22.0</ns3:atemp>
            <ns3:hr>101</ns3:hr>
          </ns3:TrackPointExtension>
        </extensions>
      </trkpt>
      <trkpt lat="36.7641685903072357177734375" lon="-118.40837781317532062530517578125">
        <ele>3061.199951171875</ele>
        <time>2021-06-25T15:42:16.000Z</time>
        <extensions>
          <ns3:TrackPointExtension>
            <ns3:atemp>22.0</ns3:atemp>
            <ns3:hr>101</ns3:hr>
          </ns3:TrackPointExtension>
        </extensions>
      </trkpt>
      <trkpt lat="36.7641768045723438262939453125" lon="-118.4083681739866733551025390625">
        <ele>3061.39990234375</ele>
        <time>2021-06-25T15:42:17.000Z</time>
        <extensions>
          <ns3:TrackPointExtension>
            <ns3:atemp>22.0</ns3:atemp>
            <ns3:hr>102</ns3:hr>
          </ns3:TrackPointExtension>
        </extensions>
      </trkpt>
      <trkpt lat="36.7641932331025600433349609375" lon="-118.4083440341055393218994140625">
        <ele>3061.800048828125</ele>
        <time>2021-06-25T15:42:20.000Z</time>
        <extensions>
          <ns3:TrackPointExtension>
            <ns3:atemp>22.0</ns3:atemp>
            <ns3:hr>106</ns3:hr>
          </ns3:TrackPointExtension>
        </extensions>
      </trkpt>
      <trkpt lat="36.76419784314930438995361328125" lon="-118.408322073519229888916015625">
        <ele>3062.199951171875</ele>
        <time>2021-06-25T15:42:23.000Z</time>
        <extensions>
          <ns3:TrackPointExtension>
            <ns3:atemp>22.0</ns3:atemp>
            <ns3:hr>110</ns3:hr>
          </ns3:TrackPointExtension>
        </extensions>
      </trkpt>
      <trkpt lat="36.7641992680728435516357421875" lon="-118.408317379653453826904296875">
        <ele>3062.199951171875</ele>
        <time>2021-06-25T15:42:24.000Z</time>
        <extensions>
          <ns3:TrackPointExtension>
            <ns3:atemp>22.0</ns3:atemp>
            <ns3:hr>111</ns3:hr>
          </ns3:TrackPointExtension>
        </extensions>
      </trkpt>
      <trkpt lat="36.76419415511190891265869140625" lon="-118.40831729583442211151123046875">
        <ele>3062.39990234375</ele>
        <time>2021-06-25T15:42:25.000Z</time>
        <extensions>
          <ns3:TrackPointExtension>
            <ns3:atemp>22.0</ns3:atemp>
            <ns3:hr>112</ns3:hr>
          </ns3:TrackPointExtension>
        </extensions>
      </trkpt>
      <trkpt lat="36.7642019502818584442138671875" lon="-118.4082991071045398712158203125">
        <ele>3062.60009765625</ele>
        <time>2021-06-25T15:42:27.000Z</time>
        <extensions>
          <ns3:TrackPointExtension>
            <ns3:atemp>22.0</ns3:atemp>
            <ns3:hr>112</ns3:hr>
          </ns3:TrackPointExtension>
        </extensions>
      </trkpt>
      <trkpt lat="36.7642247490584850311279296875" lon="-118.40826868079602718353271484375">
        <ele>3063</ele>
        <time>2021-06-25T15:42:29.000Z</time>
        <extensions>
          <ns3:TrackPointExtension>
            <ns3:atemp>22.0</ns3:atemp>
            <ns3:hr>113</ns3:hr>
          </ns3:TrackPointExtension>
        </extensions>
      </trkpt>
      <trkpt lat="36.764236986637115478515625" lon="-118.40824638493359088897705078125">
        <ele>3063.39990234375</ele>
        <time>2021-06-25T15:42:32.000Z</time>
        <extensions>
          <ns3:TrackPointExtension>
            <ns3:atemp>22.0</ns3:atemp>
            <ns3:hr>114</ns3:hr>
          </ns3:TrackPointExtension>
        </extensions>
      </trkpt>
      <trkpt lat="36.76423975266516208648681640625" lon="-118.40823926031589508056640625">
        <ele>3063.39990234375</ele>
        <time>2021-06-25T15:42:33.000Z</time>
        <extensions>
          <ns3:TrackPointExtension>
            <ns3:atemp>22.0</ns3:atemp>
            <ns3:hr>114</ns3:hr>
          </ns3:TrackPointExtension>
        </extensions>
      </trkpt>
      <trkpt lat="36.76427227444946765899658203125" lon="-118.40818569995462894439697265625">
        <ele>3063.39990234375</ele>
        <time>2021-06-25T15:42:39.000Z</time>
        <extensions>
          <ns3:TrackPointExtension>
            <ns3:atemp>22.0</ns3:atemp>
            <ns3:hr>113</ns3:hr>
          </ns3:TrackPointExtension>
        </extensions>
      </trkpt>
      <trkpt lat="36.76427780650556087493896484375" lon="-118.4081643261015415191650390625">
        <ele>3063.39990234375</ele>
        <time>2021-06-25T15:42:41.000Z</time>
        <extensions>
          <ns3:TrackPointExtension>
            <ns3:atemp>22.0</ns3:atemp>
            <ns3:hr>117</ns3:hr>
          </ns3:TrackPointExtension>
        </extensions>
      </trkpt>
      <trkpt lat="36.7642814107239246368408203125" lon="-118.40815267525613307952880859375">
        <ele>3063.39990234375</ele>
        <time>2021-06-25T15:42:42.000Z</time>
        <extensions>
          <ns3:TrackPointExtension>
            <ns3:atemp>22.0</ns3:atemp>
            <ns3:hr>113</ns3:hr>
          </ns3:TrackPointExtension>
        </extensions>
      </trkpt>
      <trkpt lat="36.7643216438591480255126953125" lon="-118.40810473076999187469482421875">
        <ele>3063.199951171875</ele>
        <time>2021-06-25T15:42:48.000Z</time>
        <extensions>
          <ns3:TrackPointExtension>
            <ns3:atemp>22.0</ns3:atemp>
            <ns3:hr>114</ns3:hr>
          </ns3:TrackPointExtension>
        </extensions>
      </trkpt>
      <trkpt lat="36.76435441710054874420166015625" lon="-118.4081083349883556365966796875">
        <ele>3063.39990234375</ele>
        <time>2021-06-25T15:42:54.000Z</time>
        <extensions>
          <ns3:TrackPointExtension>
            <ns3:atemp>22.0</ns3:atemp>
            <ns3:hr>114</ns3:hr>
          </ns3:TrackPointExtension>
        </extensions>
      </trkpt>
      <trkpt lat="36.7643789760768413543701171875" lon="-118.40811361558735370635986328125">
        <ele>3063.800048828125</ele>
        <time>2021-06-25T15:42:57.000Z</time>
        <extensions>
          <ns3:TrackPointExtension>
            <ns3:atemp>22.0</ns3:atemp>
            <ns3:hr>114</ns3:hr>
          </ns3:TrackPointExtension>
        </extensions>
      </trkpt>
      <trkpt lat="36.7643967457115650177001953125" lon="-118.40811294503509998321533203125">
        <ele>3064.800048828125</ele>
        <time>2021-06-25T15:43:00.000Z</time>
        <extensions>
          <ns3:TrackPointExtension>
            <ns3:atemp>22.0</ns3:atemp>
            <ns3:hr>114</ns3:hr>
          </ns3:TrackPointExtension>
        </extensions>
      </trkpt>
      <trkpt lat="36.76443119533360004425048828125" lon="-118.4080924093723297119140625">
        <ele>3064.800048828125</ele>
        <time>2021-06-25T15:43:04.000Z</time>
        <extensions>
          <ns3:TrackPointExtension>
            <ns3:atemp>22.0</ns3:atemp>
            <ns3:hr>115</ns3:hr>
          </ns3:TrackPointExtension>
        </extensions>
      </trkpt>
      <trkpt lat="36.7644855938851833343505859375" lon="-118.4080516733229160308837890625">
        <ele>3064.800048828125</ele>
        <time>2021-06-25T15:43:10.000Z</time>
        <extensions>
          <ns3:TrackPointExtension>
            <ns3:atemp>22.0</ns3:atemp>
            <ns3:hr>113</ns3:hr>
          </ns3:TrackPointExtension>
        </extensions>
      </trkpt>
      <trkpt lat="36.76453010179102420806884765625" lon="-118.40804505161941051483154296875">
        <ele>3065.199951171875</ele>
        <time>2021-06-25T15:43:15.000Z</time>
        <extensions>
          <ns3:TrackPointExtension>
            <ns3:atemp>22.0</ns3:atemp>
            <ns3:hr>114</ns3:hr>
          </ns3:TrackPointExtension>
        </extensions>
      </trkpt>
      <trkpt lat="36.7645603604614734649658203125" lon="-118.408018648624420166015625">
        <ele>3064.800048828125</ele>
        <time>2021-06-25T15:43:19.000Z</time>
        <extensions>
          <ns3:TrackPointExtension>
            <ns3:atemp>22.0</ns3:atemp>
            <ns3:hr>114</ns3:hr>
          </ns3:TrackPointExtension>
        </extensions>
      </trkpt>
      <trkpt lat="36.76458726637065410614013671875" lon="-118.40798889286816120147705078125">
        <ele>3065.199951171875</ele>
        <time>2021-06-25T15:43:26.000Z</time>
        <extensions>
          <ns3:TrackPointExtension>
            <ns3:atemp>22.0</ns3:atemp>
            <ns3:hr>113</ns3:hr>
          </ns3:TrackPointExtension>
        </extensions>
      </trkpt>
      <trkpt lat="36.76459162496030330657958984375" lon="-118.407983444631099700927734375">
        <ele>3065.199951171875</ele>
        <time>2021-06-25T15:43:29.000Z</time>
        <extensions>
          <ns3:TrackPointExtension>
            <ns3:atemp>22.0</ns3:atemp>
            <ns3:hr>110</ns3:hr>
          </ns3:TrackPointExtension>
        </extensions>
      </trkpt>
      <trkpt lat="36.764634288847446441650390625" lon="-118.40797196142375469207763671875">
        <ele>3065.199951171875</ele>
        <time>2021-06-25T15:43:33.000Z</time>
        <extensions>
          <ns3:TrackPointExtension>
            <ns3:atemp>22.0</ns3:atemp>
            <ns3:hr>107</ns3:hr>
          </ns3:TrackPointExtension>
        </extensions>
      </trkpt>
      <trkpt lat="36.7646314390003681182861328125" lon="-118.407994173467159271240234375">
        <ele>3065</ele>
        <time>2021-06-25T15:43:36.000Z</time>
        <extensions>
          <ns3:TrackPointExtension>
            <ns3:atemp>22.0</ns3:atemp>
            <ns3:hr>107</ns3:hr>
          </ns3:TrackPointExtension>
        </extensions>
      </trkpt>
      <trkpt lat="36.764630936086177825927734375" lon="-118.40799425728619098663330078125">
        <ele>3065</ele>
        <time>2021-06-25T15:43:43.000Z</time>
        <extensions>
          <ns3:TrackPointExtension>
            <ns3:atemp>22.0</ns3:atemp>
            <ns3:hr>104</ns3:hr>
          </ns3:TrackPointExtension>
        </extensions>
      </trkpt>
      <trkpt lat="36.764631606638431549072265625" lon="-118.40799476020038127899169921875">
        <ele>3065</ele>
        <time>2021-06-25T15:43:44.000Z</time>
        <extensions>
          <ns3:TrackPointExtension>
            <ns3:atemp>22.0</ns3:atemp>
            <ns3:hr>107</ns3:hr>
          </ns3:TrackPointExtension>
        </extensions>
      </trkpt>
      <trkpt lat="36.76463286392390727996826171875" lon="-118.40799425728619098663330078125">
        <ele>3065.199951171875</ele>
        <time>2021-06-25T15:43:54.000Z</time>
        <extensions>
          <ns3:TrackPointExtension>
            <ns3:atemp>22.0</ns3:atemp>
            <ns3:hr>104</ns3:hr>
          </ns3:TrackPointExtension>
        </extensions>
      </trkpt>
      <trkpt lat="36.76463286392390727996826171875" lon="-118.40799425728619098663330078125">
        <ele>3065</ele>
        <time>2021-06-25T15:43:57.000Z</time>
        <extensions>
          <ns3:TrackPointExtension>
            <ns3:atemp>22.0</ns3:atemp>
            <ns3:hr>101</ns3:hr>
          </ns3:TrackPointExtension>
        </extensions>
      </trkpt>
      <trkpt lat="36.76462917588651180267333984375" lon="-118.4079556167125701904296875">
        <ele>3064.800048828125</ele>
        <time>2021-06-25T15:44:10.000Z</time>
        <extensions>
          <ns3:TrackPointExtension>
            <ns3:atemp>22.0</ns3:atemp>
            <ns3:hr>98</ns3:hr>
          </ns3:TrackPointExtension>
        </extensions>
      </trkpt>
      <trkpt lat="36.76462791860103607177734375" lon="-118.40795285068452358245849609375">
        <ele>3065</ele>
        <time>2021-06-25T15:44:13.000Z</time>
        <extensions>
          <ns3:TrackPointExtension>
            <ns3:atemp>22.0</ns3:atemp>
            <ns3:hr>97</ns3:hr>
          </ns3:TrackPointExtension>
        </extensions>
      </trkpt>
      <trkpt lat="36.7646218836307525634765625" lon="-118.407941199839115142822265625">
        <ele>3065.800048828125</ele>
        <time>2021-06-25T15:44:25.000Z</time>
        <extensions>
          <ns3:TrackPointExtension>
            <ns3:atemp>22.0</ns3:atemp>
            <ns3:hr>99</ns3:hr>
          </ns3:TrackPointExtension>
        </extensions>
      </trkpt>
      <trkpt lat="36.76463940180838108062744140625" lon="-118.4079309739172458648681640625">
        <ele>3066.800048828125</ele>
        <time>2021-06-25T15:44:32.000Z</time>
        <extensions>
          <ns3:TrackPointExtension>
            <ns3:atemp>22.0</ns3:atemp>
            <ns3:hr>99</ns3:hr>
          </ns3:TrackPointExtension>
        </extensions>
      </trkpt>
      <trkpt lat="36.76464359275996685028076171875" lon="-118.4079314768314361572265625">
        <ele>3067</ele>
        <time>2021-06-25T15:44:33.000Z</time>
        <extensions>
          <ns3:TrackPointExtension>
            <ns3:atemp>22.0</ns3:atemp>
            <ns3:hr>97</ns3:hr>
          </ns3:TrackPointExtension>
        </extensions>
      </trkpt>
      <trkpt lat="36.76469103433191776275634765625" lon="-118.4079480729997158050537109375">
        <ele>3068</ele>
        <time>2021-06-25T15:44:40.000Z</time>
        <extensions>
          <ns3:TrackPointExtension>
            <ns3:atemp>22.0</ns3:atemp>
            <ns3:hr>97</ns3:hr>
          </ns3:TrackPointExtension>
        </extensions>
      </trkpt>
      <trkpt lat="36.764707379043102264404296875" lon="-118.4079484082758426666259765625">
        <ele>3068.199951171875</ele>
        <time>2021-06-25T15:44:43.000Z</time>
        <extensions>
          <ns3:TrackPointExtension>
            <ns3:atemp>22.0</ns3:atemp>
            <ns3:hr>98</ns3:hr>
          </ns3:TrackPointExtension>
        </extensions>
      </trkpt>
      <trkpt lat="36.764717437326908111572265625" lon="-118.40794212184846401214599609375">
        <ele>3068.60009765625</ele>
        <time>2021-06-25T15:44:45.000Z</time>
        <extensions>
          <ns3:TrackPointExtension>
            <ns3:atemp>22.0</ns3:atemp>
            <ns3:hr>99</ns3:hr>
          </ns3:TrackPointExtension>
        </extensions>
      </trkpt>
      <trkpt lat="36.76472456194460391998291015625" lon="-118.40794279240071773529052734375">
        <ele>3069</ele>
        <time>2021-06-25T15:44:47.000Z</time>
        <extensions>
          <ns3:TrackPointExtension>
            <ns3:atemp>22.0</ns3:atemp>
            <ns3:hr>100</ns3:hr>
          </ns3:TrackPointExtension>
        </extensions>
      </trkpt>
      <trkpt lat="36.76472959108650684356689453125" lon="-118.40794597752392292022705078125">
        <ele>3069</ele>
        <time>2021-06-25T15:44:48.000Z</time>
        <extensions>
          <ns3:TrackPointExtension>
            <ns3:atemp>22.0</ns3:atemp>
            <ns3:hr>101</ns3:hr>
          </ns3:TrackPointExtension>
        </extensions>
      </trkpt>
      <trkpt lat="36.7647340334951877593994140625" lon="-118.4079500846564769744873046875">
        <ele>3069.199951171875</ele>
        <time>2021-06-25T15:44:49.000Z</time>
        <extensions>
          <ns3:TrackPointExtension>
            <ns3:atemp>22.0</ns3:atemp>
            <ns3:hr>104</ns3:hr>
          </ns3:TrackPointExtension>
        </extensions>
      </trkpt>
      <trkpt lat="36.76475423388183116912841796875" lon="-118.40796299278736114501953125">
        <ele>3069.800048828125</ele>
        <time>2021-06-25T15:44:54.000Z</time>
        <extensions>
          <ns3:TrackPointExtension>
            <ns3:atemp>22.0</ns3:atemp>
            <ns3:hr>106</ns3:hr>
          </ns3:TrackPointExtension>
        </extensions>
      </trkpt>
      <trkpt lat="36.764763705432415008544921875" lon="-118.407968021929264068603515625">
        <ele>3070</ele>
        <time>2021-06-25T15:44:56.000Z</time>
        <extensions>
          <ns3:TrackPointExtension>
            <ns3:atemp>22.0</ns3:atemp>
            <ns3:hr>106</ns3:hr>
          </ns3:TrackPointExtension>
        </extensions>
      </trkpt>
      <trkpt lat="36.7647890187799930572509765625" lon="-118.4079745598137378692626953125">
        <ele>3070.60009765625</ele>
        <time>2021-06-25T15:44:58.000Z</time>
        <extensions>
          <ns3:TrackPointExtension>
            <ns3:atemp>22.0</ns3:atemp>
            <ns3:hr>106</ns3:hr>
          </ns3:TrackPointExtension>
        </extensions>
      </trkpt>
      <trkpt lat="36.76482749171555042266845703125" lon="-118.4079732187092304229736328125">
        <ele>3070.800048828125</ele>
        <time>2021-06-25T15:45:03.000Z</time>
        <extensions>
          <ns3:TrackPointExtension>
            <ns3:atemp>22.0</ns3:atemp>
            <ns3:hr>105</ns3:hr>
          </ns3:TrackPointExtension>
        </extensions>
      </trkpt>
      <trkpt lat="36.76483402960002422332763671875" lon="-118.40797045268118381500244140625">
        <ele>3071</ele>
        <time>2021-06-25T15:45:04.000Z</time>
        <extensions>
          <ns3:TrackPointExtension>
            <ns3:atemp>22.0</ns3:atemp>
            <ns3:hr>105</ns3:hr>
          </ns3:TrackPointExtension>
        </extensions>
      </trkpt>
      <trkpt lat="36.764897815883159637451171875" lon="-118.4079299680888652801513671875">
        <ele>3071.800048828125</ele>
        <time>2021-06-25T15:45:10.000Z</time>
        <extensions>
          <ns3:TrackPointExtension>
            <ns3:atemp>22.0</ns3:atemp>
            <ns3:hr>108</ns3:hr>
          </ns3:TrackPointExtension>
        </extensions>
      </trkpt>
      <trkpt lat="36.76490292884409427642822265625" lon="-118.407931141555309295654296875">
        <ele>3072.199951171875</ele>
        <time>2021-06-25T15:45:11.000Z</time>
        <extensions>
          <ns3:TrackPointExtension>
            <ns3:atemp>22.0</ns3:atemp>
            <ns3:hr>109</ns3:hr>
          </ns3:TrackPointExtension>
        </extensions>
      </trkpt>
      <trkpt lat="36.76491935737431049346923828125" lon="-118.40793273411691188812255859375">
        <ele>3072.199951171875</ele>
        <time>2021-06-25T15:45:13.000Z</time>
        <extensions>
          <ns3:TrackPointExtension>
            <ns3:atemp>22.0</ns3:atemp>
            <ns3:hr>111</ns3:hr>
          </ns3:TrackPointExtension>
        </extensions>
      </trkpt>
      <trkpt lat="36.76495707593858242034912109375" lon="-118.40794379822909832000732421875">
        <ele>3073.39990234375</ele>
        <time>2021-06-25T15:45:17.000Z</time>
        <extensions>
          <ns3:TrackPointExtension>
            <ns3:atemp>22.0</ns3:atemp>
            <ns3:hr>113</ns3:hr>
          </ns3:TrackPointExtension>
        </extensions>
      </trkpt>
      <trkpt lat="36.7649774439632892608642578125" lon="-118.407937176525592803955078125">
        <ele>3074.199951171875</ele>
        <time>2021-06-25T15:45:22.000Z</time>
        <extensions>
          <ns3:TrackPointExtension>
            <ns3:atemp>22.0</ns3:atemp>
            <ns3:hr>114</ns3:hr>
          </ns3:TrackPointExtension>
        </extensions>
      </trkpt>
      <trkpt lat="36.76499965600669384002685546875" lon="-118.40794664807617664337158203125">
        <ele>3074.39990234375</ele>
        <time>2021-06-25T15:45:25.000Z</time>
        <extensions>
          <ns3:TrackPointExtension>
            <ns3:atemp>22.0</ns3:atemp>
            <ns3:hr>115</ns3:hr>
          </ns3:TrackPointExtension>
        </extensions>
      </trkpt>
      <trkpt lat="36.76502094604074954986572265625" lon="-118.40794648043811321258544921875">
        <ele>3075.199951171875</ele>
        <time>2021-06-25T15:45:29.000Z</time>
        <extensions>
          <ns3:TrackPointExtension>
            <ns3:atemp>22.0</ns3:atemp>
            <ns3:hr>116</ns3:hr>
          </ns3:TrackPointExtension>
        </extensions>
      </trkpt>
      <trkpt lat="36.76504994742572307586669921875" lon="-118.40794396586716175079345703125">
        <ele>3075.800048828125</ele>
        <time>2021-06-25T15:45:32.000Z</time>
        <extensions>
          <ns3:TrackPointExtension>
            <ns3:atemp>22.0</ns3:atemp>
            <ns3:hr>116</ns3:hr>
          </ns3:TrackPointExtension>
        </extensions>
      </trkpt>
      <trkpt lat="36.765070147812366485595703125" lon="-118.4079705365002155303955078125">
        <ele>3076.199951171875</ele>
        <time>2021-06-25T15:45:35.000Z</time>
        <extensions>
          <ns3:TrackPointExtension>
            <ns3:atemp>22.0</ns3:atemp>
            <ns3:hr>117</ns3:hr>
          </ns3:TrackPointExtension>
        </extensions>
      </trkpt>
      <trkpt lat="36.7650921083986759185791015625" lon="-118.4079722128808498382568359375">
        <ele>3076.800048828125</ele>
        <time>2021-06-25T15:45:38.000Z</time>
        <extensions>
          <ns3:TrackPointExtension>
            <ns3:atemp>22.0</ns3:atemp>
            <ns3:hr>119</ns3:hr>
          </ns3:TrackPointExtension>
        </extensions>
      </trkpt>
      <trkpt lat="36.7651155777275562286376953125" lon="-118.40799442492425441741943359375">
        <ele>3077.60009765625</ele>
        <time>2021-06-25T15:45:44.000Z</time>
        <extensions>
          <ns3:TrackPointExtension>
            <ns3:atemp>22.0</ns3:atemp>
            <ns3:hr>120</ns3:hr>
          </ns3:TrackPointExtension>
        </extensions>
      </trkpt>
      <trkpt lat="36.76512270234525203704833984375" lon="-118.408000878989696502685546875">
        <ele>3078</ele>
        <time>2021-06-25T15:45:45.000Z</time>
        <extensions>
          <ns3:TrackPointExtension>
            <ns3:atemp>22.0</ns3:atemp>
            <ns3:hr>120</ns3:hr>
          </ns3:TrackPointExtension>
        </extensions>
      </trkpt>
      <trkpt lat="36.7651383765041828155517578125" lon="-118.4080280363559722900390625">
        <ele>3079</ele>
        <time>2021-06-25T15:45:52.000Z</time>
        <extensions>
          <ns3:TrackPointExtension>
            <ns3:atemp>22.0</ns3:atemp>
            <ns3:hr>119</ns3:hr>
          </ns3:TrackPointExtension>
        </extensions>
      </trkpt>
      <trkpt lat="36.76512521691620349884033203125" lon="-118.408018313348293304443359375">
        <ele>3079.60009765625</ele>
        <time>2021-06-25T15:45:55.000Z</time>
        <extensions>
          <ns3:TrackPointExtension>
            <ns3:atemp>22.0</ns3:atemp>
            <ns3:hr>116</ns3:hr>
          </ns3:TrackPointExtension>
        </extensions>
      </trkpt>
      <trkpt lat="36.765109039843082427978515625" lon="-118.408045470714569091796875">
        <ele>3080</ele>
        <time>2021-06-25T15:46:00.000Z</time>
        <extensions>
          <ns3:TrackPointExtension>
            <ns3:atemp>22.0</ns3:atemp>
            <ns3:hr>115</ns3:hr>
          </ns3:TrackPointExtension>
        </extensions>
      </trkpt>
      <trkpt lat="36.765104345977306365966796875" lon="-118.40805821120738983154296875">
        <ele>3080.39990234375</ele>
        <time>2021-06-25T15:46:02.000Z</time>
        <extensions>
          <ns3:TrackPointExtension>
            <ns3:atemp>22.0</ns3:atemp>
            <ns3:hr>115</ns3:hr>
          </ns3:TrackPointExtension>
        </extensions>
      </trkpt>
      <trkpt lat="36.7651001550257205963134765625" lon="-118.4080878831446170806884765625">
        <ele>3081</ele>
        <time>2021-06-25T15:46:06.000Z</time>
        <extensions>
          <ns3:TrackPointExtension>
            <ns3:atemp>23.0</ns3:atemp>
            <ns3:hr>115</ns3:hr>
          </ns3:TrackPointExtension>
        </extensions>
      </trkpt>
      <trkpt lat="36.76510007120668888092041015625" lon="-118.40810758061707019805908203125">
        <ele>3081.199951171875</ele>
        <time>2021-06-25T15:46:08.000Z</time>
        <extensions>
          <ns3:TrackPointExtension>
            <ns3:atemp>23.0</ns3:atemp>
            <ns3:hr>115</ns3:hr>
          </ns3:TrackPointExtension>
        </extensions>
      </trkpt>
      <trkpt lat="36.76510870456695556640625" lon="-118.408135659992694854736328125">
        <ele>3081.60009765625</ele>
        <time>2021-06-25T15:46:11.000Z</time>
        <extensions>
          <ns3:TrackPointExtension>
            <ns3:atemp>23.0</ns3:atemp>
            <ns3:hr>117</ns3:hr>
          </ns3:TrackPointExtension>
        </extensions>
      </trkpt>
      <trkpt lat="36.7651216126978397369384765625" lon="-118.4081626497209072113037109375">
        <ele>3082</ele>
        <time>2021-06-25T15:46:15.000Z</time>
        <extensions>
          <ns3:TrackPointExtension>
            <ns3:atemp>23.0</ns3:atemp>
            <ns3:hr>120</ns3:hr>
          </ns3:TrackPointExtension>
        </extensions>
      </trkpt>
      <trkpt lat="36.7651196010410785675048828125" lon="-118.40816642157733440399169921875">
        <ele>3082</ele>
        <time>2021-06-25T15:46:16.000Z</time>
        <extensions>
          <ns3:TrackPointExtension>
            <ns3:atemp>23.0</ns3:atemp>
            <ns3:hr>120</ns3:hr>
          </ns3:TrackPointExtension>
        </extensions>
      </trkpt>
      <trkpt lat="36.76511197350919246673583984375" lon="-118.4081663377583026885986328125">
        <ele>3082.199951171875</ele>
        <time>2021-06-25T15:46:18.000Z</time>
        <extensions>
          <ns3:TrackPointExtension>
            <ns3:atemp>23.0</ns3:atemp>
            <ns3:hr>121</ns3:hr>
          </ns3:TrackPointExtension>
        </extensions>
      </trkpt>
      <trkpt lat="36.7651045136153697967529296875" lon="-118.40816524811089038848876953125">
        <ele>3082.800048828125</ele>
        <time>2021-06-25T15:46:22.000Z</time>
        <extensions>
          <ns3:TrackPointExtension>
            <ns3:atemp>23.0</ns3:atemp>
            <ns3:hr>122</ns3:hr>
          </ns3:TrackPointExtension>
        </extensions>
      </trkpt>
      <trkpt lat="36.765100322663784027099609375" lon="-118.408161140978336334228515625">
        <ele>3082.800048828125</ele>
        <time>2021-06-25T15:46:26.000Z</time>
        <extensions>
          <ns3:TrackPointExtension>
            <ns3:atemp>23.0</ns3:atemp>
            <ns3:hr>122</ns3:hr>
          </ns3:TrackPointExtension>
        </extensions>
      </trkpt>
      <trkpt lat="36.7651061899960041046142578125" lon="-118.408161140978336334228515625">
        <ele>3083.39990234375</ele>
        <time>2021-06-25T15:46:36.000Z</time>
        <extensions>
          <ns3:TrackPointExtension>
            <ns3:atemp>23.0</ns3:atemp>
            <ns3:hr>121</ns3:hr>
          </ns3:TrackPointExtension>
        </extensions>
      </trkpt>
      <trkpt lat="36.76508129574358463287353515625" lon="-118.40822794474661350250244140625">
        <ele>3084.199951171875</ele>
        <time>2021-06-25T15:46:45.000Z</time>
        <extensions>
          <ns3:TrackPointExtension>
            <ns3:atemp>23.0</ns3:atemp>
            <ns3:hr>122</ns3:hr>
          </ns3:TrackPointExtension>
        </extensions>
      </trkpt>
      <trkpt lat="36.765070818364620208740234375" lon="-118.4082400985062122344970703125">
        <ele>3084.39990234375</ele>
        <time>2021-06-25T15:46:46.000Z</time>
        <extensions>
          <ns3:TrackPointExtension>
            <ns3:atemp>23.0</ns3:atemp>
            <ns3:hr>121</ns3:hr>
          </ns3:TrackPointExtension>
        </extensions>
      </trkpt>
      <trkpt lat="36.76506084389984607696533203125" lon="-118.4082511626183986663818359375">
        <ele>3084.39990234375</ele>
        <time>2021-06-25T15:46:47.000Z</time>
        <extensions>
          <ns3:TrackPointExtension>
            <ns3:atemp>23.0</ns3:atemp>
            <ns3:hr>121</ns3:hr>
          </ns3:TrackPointExtension>
        </extensions>
      </trkpt>
      <trkpt lat="36.76507861353456974029541015625" lon="-118.40829986147582530975341796875">
        <ele>3085.199951171875</ele>
        <time>2021-06-25T15:46:51.000Z</time>
        <extensions>
          <ns3:TrackPointExtension>
            <ns3:atemp>23.0</ns3:atemp>
            <ns3:hr>118</ns3:hr>
          </ns3:TrackPointExtension>
        </extensions>
      </trkpt>
      <trkpt lat="36.765086911618709564208984375" lon="-118.40830656699836254119873046875">
        <ele>3085.199951171875</ele>
        <time>2021-06-25T15:46:52.000Z</time>
        <extensions>
          <ns3:TrackPointExtension>
            <ns3:atemp>23.0</ns3:atemp>
            <ns3:hr>118</ns3:hr>
          </ns3:TrackPointExtension>
        </extensions>
      </trkpt>
      <trkpt lat="36.76509018056094646453857421875" lon="-118.4083148650825023651123046875">
        <ele>3085.800048828125</ele>
        <time>2021-06-25T15:46:53.000Z</time>
        <extensions>
          <ns3:TrackPointExtension>
            <ns3:atemp>23.0</ns3:atemp>
            <ns3:hr>117</ns3:hr>
          </ns3:TrackPointExtension>
        </extensions>
      </trkpt>
      <trkpt lat="36.76511750556528568267822265625" lon="-118.40835736133158206939697265625">
        <ele>3086.60009765625</ele>
        <time>2021-06-25T15:46:59.000Z</time>
        <extensions>
          <ns3:TrackPointExtension>
            <ns3:atemp>23.0</ns3:atemp>
            <ns3:hr>116</ns3:hr>
          </ns3:TrackPointExtension>
        </extensions>
      </trkpt>
      <trkpt lat="36.76512320525944232940673828125" lon="-118.40836104936897754669189453125">
        <ele>3086.800048828125</ele>
        <time>2021-06-25T15:47:00.000Z</time>
        <extensions>
          <ns3:TrackPointExtension>
            <ns3:atemp>23.0</ns3:atemp>
            <ns3:hr>116</ns3:hr>
          </ns3:TrackPointExtension>
        </extensions>
      </trkpt>
      <trkpt lat="36.7651574872434139251708984375" lon="-118.40836658142507076263427734375">
        <ele>3087.60009765625</ele>
        <time>2021-06-25T15:47:05.000Z</time>
        <extensions>
          <ns3:TrackPointExtension>
            <ns3:atemp>23.0</ns3:atemp>
            <ns3:hr>114</ns3:hr>
          </ns3:TrackPointExtension>
        </extensions>
      </trkpt>
      <trkpt lat="36.765174083411693572998046875" lon="-118.40836674906313419342041015625">
        <ele>3088</ele>
        <time>2021-06-25T15:47:07.000Z</time>
        <extensions>
          <ns3:TrackPointExtension>
            <ns3:atemp>23.0</ns3:atemp>
            <ns3:hr>113</ns3:hr>
          </ns3:TrackPointExtension>
        </extensions>
      </trkpt>
      <trkpt lat="36.76520685665309429168701171875" lon="-118.4083420224487781524658203125">
        <ele>3088.800048828125</ele>
        <time>2021-06-25T15:47:13.000Z</time>
        <extensions>
          <ns3:TrackPointExtension>
            <ns3:atemp>24.0</ns3:atemp>
            <ns3:hr>112</ns3:hr>
          </ns3:TrackPointExtension>
        </extensions>
      </trkpt>
      <trkpt lat="36.7652238719165325164794921875" lon="-118.40832567773759365081787109375">
        <ele>3088.800048828125</ele>
        <time>2021-06-25T15:47:16.000Z</time>
        <extensions>
          <ns3:TrackPointExtension>
            <ns3:atemp>24.0</ns3:atemp>
            <ns3:hr>115</ns3:hr>
          </ns3:TrackPointExtension>
        </extensions>
      </trkpt>
      <trkpt lat="36.765245161950588226318359375" lon="-118.40832240879535675048828125">
        <ele>3089</ele>
        <time>2021-06-25T15:47:19.000Z</time>
        <extensions>
          <ns3:TrackPointExtension>
            <ns3:atemp>24.0</ns3:atemp>
            <ns3:hr>118</ns3:hr>
          </ns3:TrackPointExtension>
        </extensions>
      </trkpt>
      <trkpt lat="36.7652594111859798431396484375" lon="-118.40832986868917942047119140625">
        <ele>3089.60009765625</ele>
        <time>2021-06-25T15:47:22.000Z</time>
        <extensions>
          <ns3:TrackPointExtension>
            <ns3:atemp>24.0</ns3:atemp>
            <ns3:hr>121</ns3:hr>
          </ns3:TrackPointExtension>
        </extensions>
      </trkpt>
      <trkpt lat="36.76525580696761608123779296875" lon="-118.40829399414360523223876953125">
        <ele>3090</ele>
        <time>2021-06-25T15:47:26.000Z</time>
        <extensions>
          <ns3:TrackPointExtension>
            <ns3:atemp>24.0</ns3:atemp>
            <ns3:hr>123</ns3:hr>
          </ns3:TrackPointExtension>
        </extensions>
      </trkpt>
      <trkpt lat="36.7652523703873157501220703125" lon="-118.4082937426865100860595703125">
        <ele>3090.39990234375</ele>
        <time>2021-06-25T15:47:27.000Z</time>
        <extensions>
          <ns3:TrackPointExtension>
            <ns3:atemp>24.0</ns3:atemp>
            <ns3:hr>122</ns3:hr>
          </ns3:TrackPointExtension>
        </extensions>
      </trkpt>
      <trkpt lat="36.76524759270250797271728515625" lon="-118.40832173824310302734375">
        <ele>3090.60009765625</ele>
        <time>2021-06-25T15:47:31.000Z</time>
        <extensions>
          <ns3:TrackPointExtension>
            <ns3:atemp>24.0</ns3:atemp>
            <ns3:hr>125</ns3:hr>
          </ns3:TrackPointExtension>
        </extensions>
      </trkpt>
      <trkpt lat="36.7652356065809726715087890625" lon="-118.4083373285830020904541015625">
        <ele>3091</ele>
        <time>2021-06-25T15:47:34.000Z</time>
        <extensions>
          <ns3:TrackPointExtension>
            <ns3:atemp>24.0</ns3:atemp>
            <ns3:hr>123</ns3:hr>
          </ns3:TrackPointExtension>
        </extensions>
      </trkpt>
      <trkpt lat="36.76521808840334415435791015625" lon="-118.40834654867649078369140625">
        <ele>3091.39990234375</ele>
        <time>2021-06-25T15:47:36.000Z</time>
        <extensions>
          <ns3:TrackPointExtension>
            <ns3:atemp>24.0</ns3:atemp>
            <ns3:hr>121</ns3:hr>
          </ns3:TrackPointExtension>
        </extensions>
      </trkpt>
      <trkpt lat="36.76519528962671756744384765625" lon="-118.40837496332824230194091796875">
        <ele>3091.39990234375</ele>
        <time>2021-06-25T15:47:40.000Z</time>
        <extensions>
          <ns3:TrackPointExtension>
            <ns3:atemp>24.0</ns3:atemp>
            <ns3:hr>122</ns3:hr>
          </ns3:TrackPointExtension>
        </extensions>
      </trkpt>
      <trkpt lat="36.76519243977963924407958984375" lon="-118.40838569216430187225341796875">
        <ele>3091.60009765625</ele>
        <time>2021-06-25T15:47:41.000Z</time>
        <extensions>
          <ns3:TrackPointExtension>
            <ns3:atemp>24.0</ns3:atemp>
            <ns3:hr>121</ns3:hr>
          </ns3:TrackPointExtension>
        </extensions>
      </trkpt>
      <trkpt lat="36.7651893384754657745361328125" lon="-118.4083960019052028656005859375">
        <ele>3091.800048828125</ele>
        <time>2021-06-25T15:47:42.000Z</time>
        <extensions>
          <ns3:TrackPointExtension>
            <ns3:atemp>24.0</ns3:atemp>
            <ns3:hr>124</ns3:hr>
          </ns3:TrackPointExtension>
        </extensions>
      </trkpt>
      <trkpt lat="36.76516930572688579559326171875" lon="-118.40845710597932338714599609375">
        <ele>3092.60009765625</ele>
        <time>2021-06-25T15:47:49.000Z</time>
        <extensions>
          <ns3:TrackPointExtension>
            <ns3:atemp>24.0</ns3:atemp>
            <ns3:hr>125</ns3:hr>
          </ns3:TrackPointExtension>
        </extensions>
      </trkpt>
      <trkpt lat="36.76516461186110973358154296875" lon="-118.40846532024443149566650390625">
        <ele>3092.60009765625</ele>
        <time>2021-06-25T15:47:50.000Z</time>
        <extensions>
          <ns3:TrackPointExtension>
            <ns3:atemp>24.0</ns3:atemp>
            <ns3:hr>125</ns3:hr>
          </ns3:TrackPointExtension>
        </extensions>
      </trkpt>
      <trkpt lat="36.76517777144908905029296875" lon="-118.4085348062217235565185546875">
        <ele>3093.39990234375</ele>
        <time>2021-06-25T15:47:57.000Z</time>
        <extensions>
          <ns3:TrackPointExtension>
            <ns3:atemp>24.0</ns3:atemp>
            <ns3:hr>126</ns3:hr>
          </ns3:TrackPointExtension>
        </extensions>
      </trkpt>
      <trkpt lat="36.76519948057830333709716796875" lon="-118.408544696867465972900390625">
        <ele>3093.60009765625</ele>
        <time>2021-06-25T15:48:01.000Z</time>
        <extensions>
          <ns3:TrackPointExtension>
            <ns3:atemp>24.0</ns3:atemp>
            <ns3:hr>128</ns3:hr>
          </ns3:TrackPointExtension>
        </extensions>
      </trkpt>
      <trkpt lat="36.76521641202270984649658203125" lon="-118.40853623114526271820068359375">
        <ele>3094.199951171875</ele>
        <time>2021-06-25T15:48:05.000Z</time>
        <extensions>
          <ns3:TrackPointExtension>
            <ns3:atemp>24.0</ns3:atemp>
            <ns3:hr>128</ns3:hr>
          </ns3:TrackPointExtension>
        </extensions>
      </trkpt>
      <trkpt lat="36.76522378809750080108642578125" lon="-118.40854025445878505706787109375">
        <ele>3095</ele>
        <time>2021-06-25T15:48:07.000Z</time>
        <extensions>
          <ns3:TrackPointExtension>
            <ns3:atemp>24.0</ns3:atemp>
            <ns3:hr>128</ns3:hr>
          </ns3:TrackPointExtension>
        </extensions>
      </trkpt>
      <trkpt lat="36.76523971371352672576904296875" lon="-118.40855777263641357421875">
        <ele>3095.60009765625</ele>
        <time>2021-06-25T15:48:11.000Z</time>
        <extensions>
          <ns3:TrackPointExtension>
            <ns3:atemp>24.0</ns3:atemp>
            <ns3:hr>124</ns3:hr>
          </ns3:TrackPointExtension>
        </extensions>
      </trkpt>
      <trkpt lat="36.7652413062751293182373046875" lon="-118.408562131226062774658203125">
        <ele>3095.60009765625</ele>
        <time>2021-06-25T15:48:12.000Z</time>
        <extensions>
          <ns3:TrackPointExtension>
            <ns3:atemp>24.0</ns3:atemp>
            <ns3:hr>122</ns3:hr>
          </ns3:TrackPointExtension>
        </extensions>
      </trkpt>
      <trkpt lat="36.7652392946183681488037109375" lon="-118.40858736075460910797119140625">
        <ele>3096.199951171875</ele>
        <time>2021-06-25T15:48:15.000Z</time>
        <extensions>
          <ns3:TrackPointExtension>
            <ns3:atemp>24.0</ns3:atemp>
            <ns3:hr>120</ns3:hr>
          </ns3:TrackPointExtension>
        </extensions>
      </trkpt>
      <trkpt lat="36.76524482667446136474609375" lon="-118.4086370654404163360595703125">
        <ele>3097</ele>
        <time>2021-06-25T15:48:19.000Z</time>
        <extensions>
          <ns3:TrackPointExtension>
            <ns3:atemp>24.0</ns3:atemp>
            <ns3:hr>116</ns3:hr>
          </ns3:TrackPointExtension>
        </extensions>
      </trkpt>
      <trkpt lat="36.765247844159603118896484375" lon="-118.4086444415152072906494140625">
        <ele>3097.199951171875</ele>
        <time>2021-06-25T15:48:20.000Z</time>
        <extensions>
          <ns3:TrackPointExtension>
            <ns3:atemp>24.0</ns3:atemp>
            <ns3:hr>116</ns3:hr>
          </ns3:TrackPointExtension>
        </extensions>
      </trkpt>
      <trkpt lat="36.76524491049349308013916015625" lon="-118.408660031855106353759765625">
        <ele>3097.60009765625</ele>
        <time>2021-06-25T15:48:23.000Z</time>
        <extensions>
          <ns3:TrackPointExtension>
            <ns3:atemp>24.0</ns3:atemp>
            <ns3:hr>117</ns3:hr>
          </ns3:TrackPointExtension>
        </extensions>
      </trkpt>
      <trkpt lat="36.76526988856494426727294921875" lon="-118.40871811844408512115478515625">
        <ele>3098.60009765625</ele>
        <time>2021-06-25T15:48:28.000Z</time>
        <extensions>
          <ns3:TrackPointExtension>
            <ns3:atemp>24.0</ns3:atemp>
            <ns3:hr>120</ns3:hr>
          </ns3:TrackPointExtension>
        </extensions>
      </trkpt>
      <trkpt lat="36.76529553718864917755126953125" lon="-118.40870705433189868927001953125">
        <ele>3099.199951171875</ele>
        <time>2021-06-25T15:48:30.000Z</time>
        <extensions>
          <ns3:TrackPointExtension>
            <ns3:atemp>24.0</ns3:atemp>
            <ns3:hr>120</ns3:hr>
          </ns3:TrackPointExtension>
        </extensions>
      </trkpt>
      <trkpt lat="36.76533560268580913543701171875" lon="-118.40867386199533939361572265625">
        <ele>3099.60009765625</ele>
        <time>2021-06-25T15:48:35.000Z</time>
        <extensions>
          <ns3:TrackPointExtension>
            <ns3:atemp>24.0</ns3:atemp>
            <ns3:hr>119</ns3:hr>
          </ns3:TrackPointExtension>
        </extensions>
      </trkpt>
      <trkpt lat="36.7653502710163593292236328125" lon="-118.40865039266645908355712890625">
        <ele>3100</ele>
        <time>2021-06-25T15:48:38.000Z</time>
        <extensions>
          <ns3:TrackPointExtension>
            <ns3:atemp>24.0</ns3:atemp>
            <ns3:hr>122</ns3:hr>
          </ns3:TrackPointExtension>
        </extensions>
      </trkpt>
      <trkpt lat="36.76535404287278652191162109375" lon="-118.408645279705524444580078125">
        <ele>3100.39990234375</ele>
        <time>2021-06-25T15:48:39.000Z</time>
        <extensions>
          <ns3:TrackPointExtension>
            <ns3:atemp>24.0</ns3:atemp>
            <ns3:hr>119</ns3:hr>
          </ns3:TrackPointExtension>
        </extensions>
      </trkpt>
      <trkpt lat="36.76539092324674129486083984375" lon="-118.40860328637063503265380859375">
        <ele>3100.800048828125</ele>
        <time>2021-06-25T15:48:44.000Z</time>
        <extensions>
          <ns3:TrackPointExtension>
            <ns3:atemp>24.0</ns3:atemp>
            <ns3:hr>120</ns3:hr>
          </ns3:TrackPointExtension>
        </extensions>
      </trkpt>
      <trkpt lat="36.76541623659431934356689453125" lon="-118.40856648981571197509765625">
        <ele>3101.800048828125</ele>
        <time>2021-06-25T15:48:49.000Z</time>
        <extensions>
          <ns3:TrackPointExtension>
            <ns3:atemp>24.0</ns3:atemp>
            <ns3:hr>122</ns3:hr>
          </ns3:TrackPointExtension>
        </extensions>
      </trkpt>
      <trkpt lat="36.7654213495552539825439453125" lon="-118.40856355614960193634033203125">
        <ele>3101.800048828125</ele>
        <time>2021-06-25T15:48:50.000Z</time>
        <extensions>
          <ns3:TrackPointExtension>
            <ns3:atemp>24.0</ns3:atemp>
            <ns3:hr>122</ns3:hr>
          </ns3:TrackPointExtension>
        </extensions>
      </trkpt>
      <trkpt lat="36.765454374253749847412109375" lon="-118.40856850147247314453125">
        <ele>3102.60009765625</ele>
        <time>2021-06-25T15:48:58.000Z</time>
        <extensions>
          <ns3:TrackPointExtension>
            <ns3:atemp>24.0</ns3:atemp>
            <ns3:hr>123</ns3:hr>
          </ns3:TrackPointExtension>
        </extensions>
      </trkpt>
      <trkpt lat="36.76547457464039325714111328125" lon="-118.4085753746330738067626953125">
        <ele>3103</ele>
        <time>2021-06-25T15:49:01.000Z</time>
        <extensions>
          <ns3:TrackPointExtension>
            <ns3:atemp>24.0</ns3:atemp>
            <ns3:hr>121</ns3:hr>
          </ns3:TrackPointExtension>
        </extensions>
      </trkpt>
      <trkpt lat="36.76549435593187808990478515625" lon="-118.4085673280060291290283203125">
        <ele>3103.39990234375</ele>
        <time>2021-06-25T15:49:04.000Z</time>
        <extensions>
          <ns3:TrackPointExtension>
            <ns3:atemp>24.0</ns3:atemp>
            <ns3:hr>123</ns3:hr>
          </ns3:TrackPointExtension>
        </extensions>
      </trkpt>
      <trkpt lat="36.76556526683270931243896484375" lon="-118.4085079841315746307373046875">
        <ele>3104.199951171875</ele>
        <time>2021-06-25T15:49:11.000Z</time>
        <extensions>
          <ns3:TrackPointExtension>
            <ns3:atemp>24.0</ns3:atemp>
            <ns3:hr>123</ns3:hr>
          </ns3:TrackPointExtension>
        </extensions>
      </trkpt>
      <trkpt lat="36.7655826173722743988037109375" lon="-118.40847185812890529632568359375">
        <ele>3104.39990234375</ele>
        <time>2021-06-25T15:49:16.000Z</time>
        <extensions>
          <ns3:TrackPointExtension>
            <ns3:atemp>24.0</ns3:atemp>
            <ns3:hr>123</ns3:hr>
          </ns3:TrackPointExtension>
        </extensions>
      </trkpt>
      <trkpt lat="36.765552945435047149658203125" lon="-118.40843279846012592315673828125">
        <ele>3104.60009765625</ele>
        <time>2021-06-25T15:49:24.000Z</time>
        <extensions>
          <ns3:TrackPointExtension>
            <ns3:atemp>24.0</ns3:atemp>
            <ns3:hr>124</ns3:hr>
          </ns3:TrackPointExtension>
        </extensions>
      </trkpt>
      <trkpt lat="36.7656010575592517852783203125" lon="-118.4084357321262359619140625">
        <ele>3105</ele>
        <time>2021-06-25T15:49:33.000Z</time>
        <extensions>
          <ns3:TrackPointExtension>
            <ns3:atemp>24.0</ns3:atemp>
            <ns3:hr>121</ns3:hr>
          </ns3:TrackPointExtension>
        </extensions>
      </trkpt>
      <trkpt lat="36.76560969091951847076416015625" lon="-118.4084385819733142852783203125">
        <ele>3105.199951171875</ele>
        <time>2021-06-25T15:49:34.000Z</time>
        <extensions>
          <ns3:TrackPointExtension>
            <ns3:atemp>24.0</ns3:atemp>
            <ns3:hr>120</ns3:hr>
          </ns3:TrackPointExtension>
        </extensions>
      </trkpt>
      <trkpt lat="36.7656231857836246490478515625" lon="-118.408433385193347930908203125">
        <ele>3105.199951171875</ele>
        <time>2021-06-25T15:49:36.000Z</time>
        <extensions>
          <ns3:TrackPointExtension>
            <ns3:atemp>24.0</ns3:atemp>
            <ns3:hr>119</ns3:hr>
          </ns3:TrackPointExtension>
        </extensions>
      </trkpt>
      <trkpt lat="36.76564221270382404327392578125" lon="-118.40841905213892459869384765625">
        <ele>3106</ele>
        <time>2021-06-25T15:49:39.000Z</time>
        <extensions>
          <ns3:TrackPointExtension>
            <ns3:atemp>24.0</ns3:atemp>
            <ns3:hr>116</ns3:hr>
          </ns3:TrackPointExtension>
        </extensions>
      </trkpt>
      <trkpt lat="36.765646152198314666748046875" lon="-118.408413268625736236572265625">
        <ele>3106</ele>
        <time>2021-06-25T15:49:40.000Z</time>
        <extensions>
          <ns3:TrackPointExtension>
            <ns3:atemp>24.0</ns3:atemp>
            <ns3:hr>116</ns3:hr>
          </ns3:TrackPointExtension>
        </extensions>
      </trkpt>
      <trkpt lat="36.76566149108111858367919921875" lon="-118.4083869494497776031494140625">
        <ele>3106</ele>
        <time>2021-06-25T15:49:44.000Z</time>
        <extensions>
          <ns3:TrackPointExtension>
            <ns3:atemp>24.0</ns3:atemp>
            <ns3:hr>113</ns3:hr>
          </ns3:TrackPointExtension>
        </extensions>
      </trkpt>
      <trkpt lat="36.7656671069562435150146484375" lon="-118.40838954783976078033447265625">
        <ele>3106</ele>
        <time>2021-06-25T15:49:47.000Z</time>
        <extensions>
          <ns3:TrackPointExtension>
            <ns3:atemp>24.0</ns3:atemp>
            <ns3:hr>111</ns3:hr>
          </ns3:TrackPointExtension>
        </extensions>
      </trkpt>
      <trkpt lat="36.76566853187978267669677734375" lon="-118.40837739408016204833984375">
        <ele>3106.199951171875</ele>
        <time>2021-06-25T15:50:04.000Z</time>
        <extensions>
          <ns3:TrackPointExtension>
            <ns3:atemp>25.0</ns3:atemp>
            <ns3:hr>109</ns3:hr>
          </ns3:TrackPointExtension>
        </extensions>
      </trkpt>
      <trkpt lat="36.76566853187978267669677734375" lon="-118.40837739408016204833984375">
        <ele>3106.199951171875</ele>
        <time>2021-06-25T15:50:05.000Z</time>
        <extensions>
          <ns3:TrackPointExtension>
            <ns3:atemp>25.0</ns3:atemp>
            <ns3:hr>109</ns3:hr>
          </ns3:TrackPointExtension>
        </extensions>
      </trkpt>
      <trkpt lat="36.76566853187978267669677734375" lon="-118.40837739408016204833984375">
        <ele>3106.199951171875</ele>
        <time>2021-06-25T15:50:10.000Z</time>
        <extensions>
          <ns3:TrackPointExtension>
            <ns3:atemp>25.0</ns3:atemp>
            <ns3:hr>107</ns3:hr>
          </ns3:TrackPointExtension>
        </extensions>
      </trkpt>
      <trkpt lat="36.76566802896559238433837890625" lon="-118.408371694386005401611328125">
        <ele>3106</ele>
        <time>2021-06-25T15:50:16.000Z</time>
        <extensions>
          <ns3:TrackPointExtension>
            <ns3:atemp>25.0</ns3:atemp>
            <ns3:hr>104</ns3:hr>
          </ns3:TrackPointExtension>
        </extensions>
      </trkpt>
      <trkpt lat="36.76566802896559238433837890625" lon="-118.408370353281497955322265625">
        <ele>3105.60009765625</ele>
        <time>2021-06-25T15:50:22.000Z</time>
        <extensions>
          <ns3:TrackPointExtension>
            <ns3:atemp>25.0</ns3:atemp>
            <ns3:hr>102</ns3:hr>
          </ns3:TrackPointExtension>
        </extensions>
      </trkpt>
      <trkpt lat="36.76566802896559238433837890625" lon="-118.40836859308183193206787109375">
        <ele>3105.800048828125</ele>
        <time>2021-06-25T15:50:28.000Z</time>
        <extensions>
          <ns3:TrackPointExtension>
            <ns3:atemp>26.0</ns3:atemp>
            <ns3:hr>105</ns3:hr>
          </ns3:TrackPointExtension>
        </extensions>
      </trkpt>
      <trkpt lat="36.76566819660365581512451171875" lon="-118.40836674906313419342041015625">
        <ele>3105.800048828125</ele>
        <time>2021-06-25T15:50:29.000Z</time>
        <extensions>
          <ns3:TrackPointExtension>
            <ns3:atemp>26.0</ns3:atemp>
            <ns3:hr>102</ns3:hr>
          </ns3:TrackPointExtension>
        </extensions>
      </trkpt>
      <trkpt lat="36.765727959573268890380859375" lon="-118.4083141945302486419677734375">
        <ele>3106.199951171875</ele>
        <time>2021-06-25T15:50:34.000Z</time>
        <extensions>
          <ns3:TrackPointExtension>
            <ns3:atemp>26.0</ns3:atemp>
            <ns3:hr>102</ns3:hr>
          </ns3:TrackPointExtension>
        </extensions>
      </trkpt>
      <trkpt lat="36.7657499201595783233642578125" lon="-118.40829399414360523223876953125">
        <ele>3106.39990234375</ele>
        <time>2021-06-25T15:50:36.000Z</time>
        <extensions>
          <ns3:TrackPointExtension>
            <ns3:atemp>26.0</ns3:atemp>
            <ns3:hr>103</ns3:hr>
          </ns3:TrackPointExtension>
        </extensions>
      </trkpt>
      <trkpt lat="36.76578470505774021148681640625" lon="-118.4082672558724880218505859375">
        <ele>3107</ele>
        <time>2021-06-25T15:50:40.000Z</time>
        <extensions>
          <ns3:TrackPointExtension>
            <ns3:atemp>26.0</ns3:atemp>
            <ns3:hr>106</ns3:hr>
          </ns3:TrackPointExtension>
        </extensions>
      </trkpt>
      <trkpt lat="36.76579090766608715057373046875" lon="-118.40826113708317279815673828125">
        <ele>3107.199951171875</ele>
        <time>2021-06-25T15:50:41.000Z</time>
        <extensions>
          <ns3:TrackPointExtension>
            <ns3:atemp>26.0</ns3:atemp>
            <ns3:hr>107</ns3:hr>
          </ns3:TrackPointExtension>
        </extensions>
      </trkpt>
      <trkpt lat="36.7657995410263538360595703125" lon="-118.40825024060904979705810546875">
        <ele>3107.199951171875</ele>
        <time>2021-06-25T15:50:42.000Z</time>
        <extensions>
          <ns3:TrackPointExtension>
            <ns3:atemp>26.0</ns3:atemp>
            <ns3:hr>107</ns3:hr>
          </ns3:TrackPointExtension>
        </extensions>
      </trkpt>
      <trkpt lat="36.765812449157238006591796875" lon="-118.4082305431365966796875">
        <ele>3107.39990234375</ele>
        <time>2021-06-25T15:50:44.000Z</time>
        <extensions>
          <ns3:TrackPointExtension>
            <ns3:atemp>26.0</ns3:atemp>
            <ns3:hr>107</ns3:hr>
          </ns3:TrackPointExtension>
        </extensions>
      </trkpt>
      <trkpt lat="36.76583935506641864776611328125" lon="-118.40819500386714935302734375">
        <ele>3108.39990234375</ele>
        <time>2021-06-25T15:50:48.000Z</time>
        <extensions>
          <ns3:TrackPointExtension>
            <ns3:atemp>26.0</ns3:atemp>
            <ns3:hr>109</ns3:hr>
          </ns3:TrackPointExtension>
        </extensions>
      </trkpt>
      <trkpt lat="36.7658498324453830718994140625" lon="-118.40817279182374477386474609375">
        <ele>3108.39990234375</ele>
        <time>2021-06-25T15:50:50.000Z</time>
        <extensions>
          <ns3:TrackPointExtension>
            <ns3:atemp>26.0</ns3:atemp>
            <ns3:hr>109</ns3:hr>
          </ns3:TrackPointExtension>
        </extensions>
      </trkpt>
      <trkpt lat="36.76586282439529895782470703125" lon="-118.40813339687883853912353515625">
        <ele>3108.199951171875</ele>
        <time>2021-06-25T15:50:53.000Z</time>
        <extensions>
          <ns3:TrackPointExtension>
            <ns3:atemp>26.0</ns3:atemp>
            <ns3:hr>108</ns3:hr>
          </ns3:TrackPointExtension>
        </extensions>
      </trkpt>
      <trkpt lat="36.765856705605983734130859375" lon="-118.408080004155635833740234375">
        <ele>3108.800048828125</ele>
        <time>2021-06-25T15:51:00.000Z</time>
        <extensions>
          <ns3:TrackPointExtension>
            <ns3:atemp>26.0</ns3:atemp>
            <ns3:hr>109</ns3:hr>
          </ns3:TrackPointExtension>
        </extensions>
      </trkpt>
      <trkpt lat="36.76583801396191120147705078125" lon="-118.4080580435693264007568359375">
        <ele>3109</ele>
        <time>2021-06-25T15:51:30.000Z</time>
        <extensions>
          <ns3:TrackPointExtension>
            <ns3:atemp>26.0</ns3:atemp>
            <ns3:hr>105</ns3:hr>
          </ns3:TrackPointExtension>
        </extensions>
      </trkpt>
      <trkpt lat="36.76582879386842250823974609375" lon="-118.4080499969422817230224609375">
        <ele>3109.199951171875</ele>
        <time>2021-06-25T15:51:33.000Z</time>
        <extensions>
          <ns3:TrackPointExtension>
            <ns3:atemp>26.0</ns3:atemp>
            <ns3:hr>101</ns3:hr>
          </ns3:TrackPointExtension>
        </extensions>
      </trkpt>
      <trkpt lat="36.7658152990043163299560546875" lon="-118.40803398750722408294677734375">
        <ele>3109.199951171875</ele>
        <time>2021-06-25T15:51:35.000Z</time>
        <extensions>
          <ns3:TrackPointExtension>
            <ns3:atemp>26.0</ns3:atemp>
            <ns3:hr>98</ns3:hr>
          </ns3:TrackPointExtension>
        </extensions>
      </trkpt>
      <trkpt lat="36.7658075876533985137939453125" lon="-118.40802443213760852813720703125">
        <ele>3109.199951171875</ele>
        <time>2021-06-25T15:51:38.000Z</time>
        <extensions>
          <ns3:TrackPointExtension>
            <ns3:atemp>26.0</ns3:atemp>
            <ns3:hr>95</ns3:hr>
          </ns3:TrackPointExtension>
        </extensions>
      </trkpt>
      <trkpt lat="36.7658075876533985137939453125" lon="-118.40801890008151531219482421875">
        <ele>3109.39990234375</ele>
        <time>2021-06-25T15:51:41.000Z</time>
        <extensions>
          <ns3:TrackPointExtension>
            <ns3:atemp>26.0</ns3:atemp>
            <ns3:hr>95</ns3:hr>
          </ns3:TrackPointExtension>
        </extensions>
      </trkpt>
      <trkpt lat="36.76582175306975841522216796875" lon="-118.40798906050622463226318359375">
        <ele>3109.60009765625</ele>
        <time>2021-06-25T15:51:55.000Z</time>
        <extensions>
          <ns3:TrackPointExtension>
            <ns3:atemp>26.0</ns3:atemp>
            <ns3:hr>95</ns3:hr>
          </ns3:TrackPointExtension>
        </extensions>
      </trkpt>
      <trkpt lat="36.7658461444079875946044921875" lon="-118.4079417027533054351806640625">
        <ele>3110</ele>
        <time>2021-06-25T15:51:59.000Z</time>
        <extensions>
          <ns3:TrackPointExtension>
            <ns3:atemp>26.0</ns3:atemp>
            <ns3:hr>96</ns3:hr>
          </ns3:TrackPointExtension>
        </extensions>
      </trkpt>
      <trkpt lat="36.7658665962517261505126953125" lon="-118.407895267009735107421875">
        <ele>3110.800048828125</ele>
        <time>2021-06-25T15:52:04.000Z</time>
        <extensions>
          <ns3:TrackPointExtension>
            <ns3:atemp>26.0</ns3:atemp>
            <ns3:hr>99</ns3:hr>
          </ns3:TrackPointExtension>
        </extensions>
      </trkpt>
      <trkpt lat="36.7658825218677520751953125" lon="-118.4078555367887020111083984375">
        <ele>3111</ele>
        <time>2021-06-25T15:52:08.000Z</time>
        <extensions>
          <ns3:TrackPointExtension>
            <ns3:atemp>26.0</ns3:atemp>
            <ns3:hr>102</ns3:hr>
          </ns3:TrackPointExtension>
        </extensions>
      </trkpt>
      <trkpt lat="36.76588989794254302978515625" lon="-118.40783282183110713958740234375">
        <ele>3111.199951171875</ele>
        <time>2021-06-25T15:52:11.000Z</time>
        <extensions>
          <ns3:TrackPointExtension>
            <ns3:atemp>26.0</ns3:atemp>
            <ns3:hr>105</ns3:hr>
          </ns3:TrackPointExtension>
        </extensions>
      </trkpt>
      <trkpt lat="36.76590255461633205413818359375" lon="-118.40781136415898799896240234375">
        <ele>3111.60009765625</ele>
        <time>2021-06-25T15:52:13.000Z</time>
        <extensions>
          <ns3:TrackPointExtension>
            <ns3:atemp>26.0</ns3:atemp>
            <ns3:hr>107</ns3:hr>
          </ns3:TrackPointExtension>
        </extensions>
      </trkpt>
      <trkpt lat="36.76590791903436183929443359375" lon="-118.4078022278845310211181640625">
        <ele>3112.199951171875</ele>
        <time>2021-06-25T15:52:14.000Z</time>
        <extensions>
          <ns3:TrackPointExtension>
            <ns3:atemp>26.0</ns3:atemp>
            <ns3:hr>108</ns3:hr>
          </ns3:TrackPointExtension>
        </extensions>
      </trkpt>
      <trkpt lat="36.765915714204311370849609375" lon="-118.40778621844947338104248046875">
        <ele>3112.199951171875</ele>
        <time>2021-06-25T15:52:16.000Z</time>
        <extensions>
          <ns3:TrackPointExtension>
            <ns3:atemp>26.0</ns3:atemp>
            <ns3:hr>111</ns3:hr>
          </ns3:TrackPointExtension>
        </extensions>
      </trkpt>
      <trkpt lat="36.765926778316497802734375" lon="-118.4077584743499755859375">
        <ele>3113</ele>
        <time>2021-06-25T15:52:19.000Z</time>
        <extensions>
          <ns3:TrackPointExtension>
            <ns3:atemp>26.0</ns3:atemp>
            <ns3:hr>114</ns3:hr>
          </ns3:TrackPointExtension>
        </extensions>
      </trkpt>
      <trkpt lat="36.7659329809248447418212890625" lon="-118.4077495895326137542724609375">
        <ele>3113.199951171875</ele>
        <time>2021-06-25T15:52:20.000Z</time>
        <extensions>
          <ns3:TrackPointExtension>
            <ns3:atemp>26.0</ns3:atemp>
            <ns3:hr>114</ns3:hr>
          </ns3:TrackPointExtension>
        </extensions>
      </trkpt>
      <trkpt lat="36.76594161428511142730712890625" lon="-118.40773190371692180633544921875">
        <ele>3113.39990234375</ele>
        <time>2021-06-25T15:52:22.000Z</time>
        <extensions>
          <ns3:TrackPointExtension>
            <ns3:atemp>26.0</ns3:atemp>
            <ns3:hr>116</ns3:hr>
          </ns3:TrackPointExtension>
        </extensions>
      </trkpt>
      <trkpt lat="36.76595921628177165985107421875" lon="-118.4077251143753528594970703125">
        <ele>3114.39990234375</ele>
        <time>2021-06-25T15:52:27.000Z</time>
        <extensions>
          <ns3:TrackPointExtension>
            <ns3:atemp>26.0</ns3:atemp>
            <ns3:hr>117</ns3:hr>
          </ns3:TrackPointExtension>
        </extensions>
      </trkpt>
      <trkpt lat="36.76596055738627910614013671875" lon="-118.4077318198978900909423828125">
        <ele>3114.60009765625</ele>
        <time>2021-06-25T15:52:28.000Z</time>
        <extensions>
          <ns3:TrackPointExtension>
            <ns3:atemp>26.0</ns3:atemp>
            <ns3:hr>117</ns3:hr>
          </ns3:TrackPointExtension>
        </extensions>
      </trkpt>
      <trkpt lat="36.76595921628177165985107421875" lon="-118.40773978270590305328369140625">
        <ele>3114.60009765625</ele>
        <time>2021-06-25T15:52:29.000Z</time>
        <extensions>
          <ns3:TrackPointExtension>
            <ns3:atemp>26.0</ns3:atemp>
            <ns3:hr>117</ns3:hr>
          </ns3:TrackPointExtension>
        </extensions>
      </trkpt>
      <trkpt lat="36.7659393511712551116943359375" lon="-118.40776182711124420166015625">
        <ele>3114.800048828125</ele>
        <time>2021-06-25T15:52:37.000Z</time>
        <extensions>
          <ns3:TrackPointExtension>
            <ns3:atemp>26.0</ns3:atemp>
            <ns3:hr>119</ns3:hr>
          </ns3:TrackPointExtension>
        </extensions>
      </trkpt>
      <trkpt lat="36.765939854085445404052734375" lon="-118.40775889344513416290283203125">
        <ele>3115.199951171875</ele>
        <time>2021-06-25T15:52:50.000Z</time>
        <extensions>
          <ns3:TrackPointExtension>
            <ns3:atemp>26.0</ns3:atemp>
            <ns3:hr>114</ns3:hr>
          </ns3:TrackPointExtension>
        </extensions>
      </trkpt>
      <trkpt lat="36.76594111137092113494873046875" lon="-118.407756797969341278076171875">
        <ele>3115.199951171875</ele>
        <time>2021-06-25T15:52:55.000Z</time>
        <extensions>
          <ns3:TrackPointExtension>
            <ns3:atemp>26.0</ns3:atemp>
            <ns3:hr>109</ns3:hr>
          </ns3:TrackPointExtension>
        </extensions>
      </trkpt>
      <trkpt lat="36.7659413628280162811279296875" lon="-118.4077559597790241241455078125">
        <ele>3115.39990234375</ele>
        <time>2021-06-25T15:52:57.000Z</time>
        <extensions>
          <ns3:TrackPointExtension>
            <ns3:atemp>26.0</ns3:atemp>
            <ns3:hr>112</ns3:hr>
          </ns3:TrackPointExtension>
        </extensions>
      </trkpt>
      <trkpt lat="36.76594111137092113494873046875" lon="-118.4077559597790241241455078125">
        <ele>3115.60009765625</ele>
        <time>2021-06-25T15:53:01.000Z</time>
        <extensions>
          <ns3:TrackPointExtension>
            <ns3:atemp>26.0</ns3:atemp>
            <ns3:hr>112</ns3:hr>
          </ns3:TrackPointExtension>
        </extensions>
      </trkpt>
      <trkpt lat="36.76594111137092113494873046875" lon="-118.4077556245028972625732421875">
        <ele>3115.60009765625</ele>
        <time>2021-06-25T15:53:07.000Z</time>
        <extensions>
          <ns3:TrackPointExtension>
            <ns3:atemp>26.0</ns3:atemp>
            <ns3:hr>109</ns3:hr>
          </ns3:TrackPointExtension>
        </extensions>
      </trkpt>
      <trkpt lat="36.76594111137092113494873046875" lon="-118.4077556245028972625732421875">
        <ele>3116</ele>
        <time>2021-06-25T15:53:10.000Z</time>
        <extensions>
          <ns3:TrackPointExtension>
            <ns3:atemp>26.0</ns3:atemp>
            <ns3:hr>106</ns3:hr>
          </ns3:TrackPointExtension>
        </extensions>
      </trkpt>
      <trkpt lat="36.7659430392086505889892578125" lon="-118.4078246913850307464599609375">
        <ele>3116.60009765625</ele>
        <time>2021-06-25T15:53:17.000Z</time>
        <extensions>
          <ns3:TrackPointExtension>
            <ns3:atemp>26.0</ns3:atemp>
            <ns3:hr>110</ns3:hr>
          </ns3:TrackPointExtension>
        </extensions>
      </trkpt>
      <trkpt lat="36.76594354212284088134765625" lon="-118.40784774161875247955322265625">
        <ele>3116.800048828125</ele>
        <time>2021-06-25T15:53:18.000Z</time>
        <extensions>
          <ns3:TrackPointExtension>
            <ns3:atemp>26.0</ns3:atemp>
            <ns3:hr>112</ns3:hr>
          </ns3:TrackPointExtension>
        </extensions>
      </trkpt>
      <trkpt lat="36.7659463919699192047119140625" lon="-118.40798805467784404754638671875">
        <ele>3117.199951171875</ele>
        <time>2021-06-25T15:53:26.000Z</time>
        <extensions>
          <ns3:TrackPointExtension>
            <ns3:atemp>26.0</ns3:atemp>
            <ns3:hr>109</ns3:hr>
          </ns3:TrackPointExtension>
        </extensions>
      </trkpt>
      <trkpt lat="36.76595267839729785919189453125" lon="-118.40804790146648883819580078125">
        <ele>3117.39990234375</ele>
        <time>2021-06-25T15:53:31.000Z</time>
        <extensions>
          <ns3:TrackPointExtension>
            <ns3:atemp>26.0</ns3:atemp>
            <ns3:hr>106</ns3:hr>
          </ns3:TrackPointExtension>
        </extensions>
      </trkpt>
      <trkpt lat="36.76594580523669719696044921875" lon="-118.40809349901974201202392578125">
        <ele>3117.800048828125</ele>
        <time>2021-06-25T15:53:35.000Z</time>
        <extensions>
          <ns3:TrackPointExtension>
            <ns3:atemp>26.0</ns3:atemp>
            <ns3:hr>108</ns3:hr>
          </ns3:TrackPointExtension>
        </extensions>
      </trkpt>
      <trkpt lat="36.76595619879662990570068359375" lon="-118.40816658921539783477783203125">
        <ele>3119.199951171875</ele>
        <time>2021-06-25T15:53:42.000Z</time>
        <extensions>
          <ns3:TrackPointExtension>
            <ns3:atemp>26.0</ns3:atemp>
            <ns3:hr>105</ns3:hr>
          </ns3:TrackPointExtension>
        </extensions>
      </trkpt>
      <trkpt lat="36.76595804281532764434814453125" lon="-118.40818385593593120574951171875">
        <ele>3119.60009765625</ele>
        <time>2021-06-25T15:53:44.000Z</time>
        <extensions>
          <ns3:TrackPointExtension>
            <ns3:atemp>26.0</ns3:atemp>
            <ns3:hr>106</ns3:hr>
          </ns3:TrackPointExtension>
        </extensions>
      </trkpt>
      <trkpt lat="36.76595787517726421356201171875" lon="-118.40824185870587825775146484375">
        <ele>3120.199951171875</ele>
        <time>2021-06-25T15:53:49.000Z</time>
        <extensions>
          <ns3:TrackPointExtension>
            <ns3:atemp>26.0</ns3:atemp>
            <ns3:hr>105</ns3:hr>
          </ns3:TrackPointExtension>
        </extensions>
      </trkpt>
      <trkpt lat="36.76594278775155544281005859375" lon="-118.408304639160633087158203125">
        <ele>3121.199951171875</ele>
        <time>2021-06-25T15:53:56.000Z</time>
        <extensions>
          <ns3:TrackPointExtension>
            <ns3:atemp>26.0</ns3:atemp>
            <ns3:hr>106</ns3:hr>
          </ns3:TrackPointExtension>
        </extensions>
      </trkpt>
      <trkpt lat="36.76593943499028682708740234375" lon="-118.40831696055829524993896484375">
        <ele>3121.199951171875</ele>
        <time>2021-06-25T15:53:57.000Z</time>
        <extensions>
          <ns3:TrackPointExtension>
            <ns3:atemp>26.0</ns3:atemp>
            <ns3:hr>106</ns3:hr>
          </ns3:TrackPointExtension>
        </extensions>
      </trkpt>
      <trkpt lat="36.7659380100667476654052734375" lon="-118.4083497337996959686279296875">
        <ele>3121.39990234375</ele>
        <time>2021-06-25T15:54:00.000Z</time>
        <extensions>
          <ns3:TrackPointExtension>
            <ns3:atemp>26.0</ns3:atemp>
            <ns3:hr>109</ns3:hr>
          </ns3:TrackPointExtension>
        </extensions>
      </trkpt>
      <trkpt lat="36.76593088544905185699462890625" lon="-118.40836909599602222442626953125">
        <ele>3122</ele>
        <time>2021-06-25T15:54:03.000Z</time>
        <extensions>
          <ns3:TrackPointExtension>
            <ns3:atemp>26.0</ns3:atemp>
            <ns3:hr>110</ns3:hr>
          </ns3:TrackPointExtension>
        </extensions>
      </trkpt>
      <trkpt lat="36.76593071781098842620849609375" lon="-118.408373035490512847900390625">
        <ele>3122</ele>
        <time>2021-06-25T15:54:04.000Z</time>
        <extensions>
          <ns3:TrackPointExtension>
            <ns3:atemp>26.0</ns3:atemp>
            <ns3:hr>110</ns3:hr>
          </ns3:TrackPointExtension>
        </extensions>
      </trkpt>
      <trkpt lat="36.765931136906147003173828125" lon="-118.40837873518466949462890625">
        <ele>3122.39990234375</ele>
        <time>2021-06-25T15:54:05.000Z</time>
        <extensions>
          <ns3:TrackPointExtension>
            <ns3:atemp>26.0</ns3:atemp>
            <ns3:hr>109</ns3:hr>
          </ns3:TrackPointExtension>
        </extensions>
      </trkpt>
      <trkpt lat="36.76593038253486156463623046875" lon="-118.4083929844200611114501953125">
        <ele>3122.60009765625</ele>
        <time>2021-06-25T15:54:07.000Z</time>
        <extensions>
          <ns3:TrackPointExtension>
            <ns3:atemp>26.0</ns3:atemp>
            <ns3:hr>108</ns3:hr>
          </ns3:TrackPointExtension>
        </extensions>
      </trkpt>
      <trkpt lat="36.76593055017292499542236328125" lon="-118.40842475183308124542236328125">
        <ele>3123</ele>
        <time>2021-06-25T15:54:10.000Z</time>
        <extensions>
          <ns3:TrackPointExtension>
            <ns3:atemp>26.0</ns3:atemp>
            <ns3:hr>105</ns3:hr>
          </ns3:TrackPointExtension>
        </extensions>
      </trkpt>
      <trkpt lat="36.7659249342978000640869140625" lon="-118.408444114029407501220703125">
        <ele>3123.199951171875</ele>
        <time>2021-06-25T15:54:12.000Z</time>
        <extensions>
          <ns3:TrackPointExtension>
            <ns3:atemp>26.0</ns3:atemp>
            <ns3:hr>104</ns3:hr>
          </ns3:TrackPointExtension>
        </extensions>
      </trkpt>
      <trkpt lat="36.7659212462604045867919921875" lon="-118.40846599079668521881103515625">
        <ele>3123.39990234375</ele>
        <time>2021-06-25T15:54:14.000Z</time>
        <extensions>
          <ns3:TrackPointExtension>
            <ns3:atemp>26.0</ns3:atemp>
            <ns3:hr>105</ns3:hr>
          </ns3:TrackPointExtension>
        </extensions>
      </trkpt>
      <trkpt lat="36.765913702547550201416015625" lon="-118.40854478068649768829345703125">
        <ele>3124</ele>
        <time>2021-06-25T15:54:21.000Z</time>
        <extensions>
          <ns3:TrackPointExtension>
            <ns3:atemp>26.0</ns3:atemp>
            <ns3:hr>107</ns3:hr>
          </ns3:TrackPointExtension>
        </extensions>
      </trkpt>
      <trkpt lat="36.76590976305305957794189453125" lon="-118.40858249925076961517333984375">
        <ele>3124.39990234375</ele>
        <time>2021-06-25T15:54:25.000Z</time>
        <extensions>
          <ns3:TrackPointExtension>
            <ns3:atemp>26.0</ns3:atemp>
            <ns3:hr>110</ns3:hr>
          </ns3:TrackPointExtension>
        </extensions>
      </trkpt>
      <trkpt lat="36.7659093439579010009765625" lon="-118.40859557501971721649169921875">
        <ele>3124.60009765625</ele>
        <time>2021-06-25T15:54:27.000Z</time>
        <extensions>
          <ns3:TrackPointExtension>
            <ns3:atemp>26.0</ns3:atemp>
            <ns3:hr>112</ns3:hr>
          </ns3:TrackPointExtension>
        </extensions>
      </trkpt>
      <trkpt lat="36.765911020338535308837890625" lon="-118.4086072258651256561279296875">
        <ele>3124.800048828125</ele>
        <time>2021-06-25T15:54:28.000Z</time>
        <extensions>
          <ns3:TrackPointExtension>
            <ns3:atemp>26.0</ns3:atemp>
            <ns3:hr>112</ns3:hr>
          </ns3:TrackPointExtension>
        </extensions>
      </trkpt>
      <trkpt lat="36.76591244526207447052001953125" lon="-118.4086169488728046417236328125">
        <ele>3125</ele>
        <time>2021-06-25T15:54:29.000Z</time>
        <extensions>
          <ns3:TrackPointExtension>
            <ns3:atemp>26.0</ns3:atemp>
            <ns3:hr>111</ns3:hr>
          </ns3:TrackPointExtension>
        </extensions>
      </trkpt>
      <trkpt lat="36.765913031995296478271484375" lon="-118.40864033438265323638916015625">
        <ele>3125.39990234375</ele>
        <time>2021-06-25T15:54:31.000Z</time>
        <extensions>
          <ns3:TrackPointExtension>
            <ns3:atemp>26.0</ns3:atemp>
            <ns3:hr>110</ns3:hr>
          </ns3:TrackPointExtension>
        </extensions>
      </trkpt>
      <trkpt lat="36.7659162171185016632080078125" lon="-118.4086598642170429229736328125">
        <ele>3125.60009765625</ele>
        <time>2021-06-25T15:54:33.000Z</time>
        <extensions>
          <ns3:TrackPointExtension>
            <ns3:atemp>26.0</ns3:atemp>
            <ns3:hr>105</ns3:hr>
          </ns3:TrackPointExtension>
        </extensions>
      </trkpt>
      <trkpt lat="36.7659165523946285247802734375" lon="-118.4086685813963413238525390625">
        <ele>3125.800048828125</ele>
        <time>2021-06-25T15:54:34.000Z</time>
        <extensions>
          <ns3:TrackPointExtension>
            <ns3:atemp>26.0</ns3:atemp>
            <ns3:hr>110</ns3:hr>
          </ns3:TrackPointExtension>
        </extensions>
      </trkpt>
      <trkpt lat="36.765914373099803924560546875" lon="-118.4087074734270572662353515625">
        <ele>3126.39990234375</ele>
        <time>2021-06-25T15:54:38.000Z</time>
        <extensions>
          <ns3:TrackPointExtension>
            <ns3:atemp>26.0</ns3:atemp>
            <ns3:hr>109</ns3:hr>
          </ns3:TrackPointExtension>
        </extensions>
      </trkpt>
      <trkpt lat="36.765916049480438232421875" lon="-118.40873278677463531494140625">
        <ele>3126.60009765625</ele>
        <time>2021-06-25T15:54:41.000Z</time>
        <extensions>
          <ns3:TrackPointExtension>
            <ns3:atemp>26.0</ns3:atemp>
            <ns3:hr>106</ns3:hr>
          </ns3:TrackPointExtension>
        </extensions>
      </trkpt>
      <trkpt lat="36.76591579802334308624267578125" lon="-118.4087450243532657623291015625">
        <ele>3126.60009765625</ele>
        <time>2021-06-25T15:54:42.000Z</time>
        <extensions>
          <ns3:TrackPointExtension>
            <ns3:atemp>26.0</ns3:atemp>
            <ns3:hr>106</ns3:hr>
          </ns3:TrackPointExtension>
        </extensions>
      </trkpt>
      <trkpt lat="36.7659173905849456787109375" lon="-118.40875701047480106353759765625">
        <ele>3126.60009765625</ele>
        <time>2021-06-25T15:54:43.000Z</time>
        <extensions>
          <ns3:TrackPointExtension>
            <ns3:atemp>26.0</ns3:atemp>
            <ns3:hr>107</ns3:hr>
          </ns3:TrackPointExtension>
        </extensions>
      </trkpt>
      <trkpt lat="36.7659195698797702789306640625" lon="-118.40877193026244640350341796875">
        <ele>3126.800048828125</ele>
        <time>2021-06-25T15:54:44.000Z</time>
        <extensions>
          <ns3:TrackPointExtension>
            <ns3:atemp>26.0</ns3:atemp>
            <ns3:hr>105</ns3:hr>
          </ns3:TrackPointExtension>
        </extensions>
      </trkpt>
      <trkpt lat="36.7659158818423748016357421875" lon="-118.40878534130752086639404296875">
        <ele>3127.39990234375</ele>
        <time>2021-06-25T15:54:47.000Z</time>
        <extensions>
          <ns3:TrackPointExtension>
            <ns3:atemp>26.0</ns3:atemp>
            <ns3:hr>106</ns3:hr>
          </ns3:TrackPointExtension>
        </extensions>
      </trkpt>
      <trkpt lat="36.76591546274721622467041015625" lon="-118.4087959863245487213134765625">
        <ele>3127.800048828125</ele>
        <time>2021-06-25T15:54:49.000Z</time>
        <extensions>
          <ns3:TrackPointExtension>
            <ns3:atemp>26.0</ns3:atemp>
            <ns3:hr>103</ns3:hr>
          </ns3:TrackPointExtension>
        </extensions>
      </trkpt>
      <trkpt lat="36.7659145407378673553466796875" lon="-118.4088005125522613525390625">
        <ele>3128.199951171875</ele>
        <time>2021-06-25T15:54:50.000Z</time>
        <extensions>
          <ns3:TrackPointExtension>
            <ns3:atemp>26.0</ns3:atemp>
            <ns3:hr>104</ns3:hr>
          </ns3:TrackPointExtension>
        </extensions>
      </trkpt>
      <trkpt lat="36.76591060124337673187255859375" lon="-118.40880663134157657623291015625">
        <ele>3128.199951171875</ele>
        <time>2021-06-25T15:54:51.000Z</time>
        <extensions>
          <ns3:TrackPointExtension>
            <ns3:atemp>26.0</ns3:atemp>
            <ns3:hr>110</ns3:hr>
          </ns3:TrackPointExtension>
        </extensions>
      </trkpt>
      <trkpt lat="36.7659118585288524627685546875" lon="-118.40881635434925556182861328125">
        <ele>3128.800048828125</ele>
        <time>2021-06-25T15:54:53.000Z</time>
        <extensions>
          <ns3:TrackPointExtension>
            <ns3:atemp>26.0</ns3:atemp>
            <ns3:hr>112</ns3:hr>
          </ns3:TrackPointExtension>
        </extensions>
      </trkpt>
      <trkpt lat="36.76591965369880199432373046875" lon="-118.4088372252881526947021484375">
        <ele>3129.199951171875</ele>
        <time>2021-06-25T15:54:55.000Z</time>
        <extensions>
          <ns3:TrackPointExtension>
            <ns3:atemp>26.0</ns3:atemp>
            <ns3:hr>113</ns3:hr>
          </ns3:TrackPointExtension>
        </extensions>
      </trkpt>
      <trkpt lat="36.7659222520887851715087890625" lon="-118.40884954668581485748291015625">
        <ele>3129.199951171875</ele>
        <time>2021-06-25T15:54:56.000Z</time>
        <extensions>
          <ns3:TrackPointExtension>
            <ns3:atemp>26.0</ns3:atemp>
            <ns3:hr>113</ns3:hr>
          </ns3:TrackPointExtension>
        </extensions>
      </trkpt>
      <trkpt lat="36.7659254372119903564453125" lon="-118.4088737703859806060791015625">
        <ele>3129.39990234375</ele>
        <time>2021-06-25T15:54:58.000Z</time>
        <extensions>
          <ns3:TrackPointExtension>
            <ns3:atemp>26.0</ns3:atemp>
            <ns3:hr>114</ns3:hr>
          </ns3:TrackPointExtension>
        </extensions>
      </trkpt>
      <trkpt lat="36.765902973711490631103515625" lon="-118.408959768712520599365234375">
        <ele>3130.199951171875</ele>
        <time>2021-06-25T15:55:06.000Z</time>
        <extensions>
          <ns3:TrackPointExtension>
            <ns3:atemp>26.0</ns3:atemp>
            <ns3:hr>117</ns3:hr>
          </ns3:TrackPointExtension>
        </extensions>
      </trkpt>
      <trkpt lat="36.76589869894087314605712890625" lon="-118.40899321250617504119873046875">
        <ele>3130.39990234375</ele>
        <time>2021-06-25T15:55:09.000Z</time>
        <extensions>
          <ns3:TrackPointExtension>
            <ns3:atemp>26.0</ns3:atemp>
            <ns3:hr>117</ns3:hr>
          </ns3:TrackPointExtension>
        </extensions>
      </trkpt>
      <trkpt lat="36.76586500369012355804443359375" lon="-118.40902556665241718292236328125">
        <ele>3131.39990234375</ele>
        <time>2021-06-25T15:55:15.000Z</time>
        <extensions>
          <ns3:TrackPointExtension>
            <ns3:atemp>26.0</ns3:atemp>
            <ns3:hr>116</ns3:hr>
          </ns3:TrackPointExtension>
        </extensions>
      </trkpt>
      <trkpt lat="36.76591026596724987030029296875" lon="-118.40909865684807300567626953125">
        <ele>3132.199951171875</ele>
        <time>2021-06-25T15:55:21.000Z</time>
        <extensions>
          <ns3:TrackPointExtension>
            <ns3:atemp>26.0</ns3:atemp>
            <ns3:hr>116</ns3:hr>
          </ns3:TrackPointExtension>
        </extensions>
      </trkpt>
      <trkpt lat="36.76591563038527965545654296875" lon="-118.40910519473254680633544921875">
        <ele>3132.60009765625</ele>
        <time>2021-06-25T15:55:22.000Z</time>
        <extensions>
          <ns3:TrackPointExtension>
            <ns3:atemp>26.0</ns3:atemp>
            <ns3:hr>116</ns3:hr>
          </ns3:TrackPointExtension>
        </extensions>
      </trkpt>
      <trkpt lat="36.76592476665973663330078125" lon="-118.4091269038617610931396484375">
        <ele>3133.199951171875</ele>
        <time>2021-06-25T15:55:25.000Z</time>
        <extensions>
          <ns3:TrackPointExtension>
            <ns3:atemp>26.0</ns3:atemp>
            <ns3:hr>117</ns3:hr>
          </ns3:TrackPointExtension>
        </extensions>
      </trkpt>
      <trkpt lat="36.76593759097158908843994140625" lon="-118.4091493673622608184814453125">
        <ele>3133.800048828125</ele>
        <time>2021-06-25T15:55:28.000Z</time>
        <extensions>
          <ns3:TrackPointExtension>
            <ns3:atemp>26.0</ns3:atemp>
            <ns3:hr>118</ns3:hr>
          </ns3:TrackPointExtension>
        </extensions>
      </trkpt>
      <trkpt lat="36.76594949327409267425537109375" lon="-118.40917157940566539764404296875">
        <ele>3134.199951171875</ele>
        <time>2021-06-25T15:55:31.000Z</time>
        <extensions>
          <ns3:TrackPointExtension>
            <ns3:atemp>26.0</ns3:atemp>
            <ns3:hr>117</ns3:hr>
          </ns3:TrackPointExtension>
        </extensions>
      </trkpt>
      <trkpt lat="36.7659681849181652069091796875" lon="-118.40919387526810169219970703125">
        <ele>3135.199951171875</ele>
        <time>2021-06-25T15:55:36.000Z</time>
        <extensions>
          <ns3:TrackPointExtension>
            <ns3:atemp>26.0</ns3:atemp>
            <ns3:hr>116</ns3:hr>
          </ns3:TrackPointExtension>
        </extensions>
      </trkpt>
      <trkpt lat="36.76596156321465969085693359375" lon="-118.40921751223504543304443359375">
        <ele>3135.60009765625</ele>
        <time>2021-06-25T15:55:40.000Z</time>
        <extensions>
          <ns3:TrackPointExtension>
            <ns3:atemp>26.0</ns3:atemp>
            <ns3:hr>116</ns3:hr>
          </ns3:TrackPointExtension>
        </extensions>
      </trkpt>
      <trkpt lat="36.765981428325176239013671875" lon="-118.40928398072719573974609375">
        <ele>3136.199951171875</ele>
        <time>2021-06-25T15:55:45.000Z</time>
        <extensions>
          <ns3:TrackPointExtension>
            <ns3:atemp>26.0</ns3:atemp>
            <ns3:hr>117</ns3:hr>
          </ns3:TrackPointExtension>
        </extensions>
      </trkpt>
      <trkpt lat="36.76599727012217044830322265625" lon="-118.40932731516659259796142578125">
        <ele>3136.800048828125</ele>
        <time>2021-06-25T15:55:50.000Z</time>
        <extensions>
          <ns3:TrackPointExtension>
            <ns3:atemp>26.0</ns3:atemp>
            <ns3:hr>118</ns3:hr>
          </ns3:TrackPointExtension>
        </extensions>
      </trkpt>
      <trkpt lat="36.7660224996507167816162109375" lon="-118.40936285443603992462158203125">
        <ele>3137.39990234375</ele>
        <time>2021-06-25T15:55:54.000Z</time>
        <extensions>
          <ns3:TrackPointExtension>
            <ns3:atemp>26.0</ns3:atemp>
            <ns3:hr>118</ns3:hr>
          </ns3:TrackPointExtension>
        </extensions>
      </trkpt>
      <trkpt lat="36.76603096537292003631591796875" lon="-118.4093879163265228271484375">
        <ele>3138</ele>
        <time>2021-06-25T15:55:57.000Z</time>
        <extensions>
          <ns3:TrackPointExtension>
            <ns3:atemp>26.0</ns3:atemp>
            <ns3:hr>121</ns3:hr>
          </ns3:TrackPointExtension>
        </extensions>
      </trkpt>
      <trkpt lat="36.766032390296459197998046875" lon="-118.409418761730194091796875">
        <ele>3138</ele>
        <time>2021-06-25T15:55:59.000Z</time>
        <extensions>
          <ns3:TrackPointExtension>
            <ns3:atemp>26.0</ns3:atemp>
            <ns3:hr>122</ns3:hr>
          </ns3:TrackPointExtension>
        </extensions>
      </trkpt>
      <trkpt lat="36.76603498868644237518310546875" lon="-118.40944181196391582489013671875">
        <ele>3138.39990234375</ele>
        <time>2021-06-25T15:56:01.000Z</time>
        <extensions>
          <ns3:TrackPointExtension>
            <ns3:atemp>26.0</ns3:atemp>
            <ns3:hr>122</ns3:hr>
          </ns3:TrackPointExtension>
        </extensions>
      </trkpt>
      <trkpt lat="36.76604622043669223785400390625" lon="-118.40949813835322856903076171875">
        <ele>3139</ele>
        <time>2021-06-25T15:56:06.000Z</time>
        <extensions>
          <ns3:TrackPointExtension>
            <ns3:atemp>26.0</ns3:atemp>
            <ns3:hr>122</ns3:hr>
          </ns3:TrackPointExtension>
        </extensions>
      </trkpt>
      <trkpt lat="36.76604504697024822235107421875" lon="-118.40950819663703441619873046875">
        <ele>3139.39990234375</ele>
        <time>2021-06-25T15:56:08.000Z</time>
        <extensions>
          <ns3:TrackPointExtension>
            <ns3:atemp>26.0</ns3:atemp>
            <ns3:hr>121</ns3:hr>
          </ns3:TrackPointExtension>
        </extensions>
      </trkpt>
      <trkpt lat="36.766057200729846954345703125" lon="-118.4095609188079833984375">
        <ele>3139.800048828125</ele>
        <time>2021-06-25T15:56:13.000Z</time>
        <extensions>
          <ns3:TrackPointExtension>
            <ns3:atemp>26.0</ns3:atemp>
            <ns3:hr>120</ns3:hr>
          </ns3:TrackPointExtension>
        </extensions>
      </trkpt>
      <trkpt lat="36.7660677619278430938720703125" lon="-118.40960559435188770294189453125">
        <ele>3140.39990234375</ele>
        <time>2021-06-25T15:56:18.000Z</time>
        <extensions>
          <ns3:TrackPointExtension>
            <ns3:atemp>26.0</ns3:atemp>
            <ns3:hr>119</ns3:hr>
          </ns3:TrackPointExtension>
        </extensions>
      </trkpt>
      <trkpt lat="36.76607337780296802520751953125" lon="-118.40964834205806255340576171875">
        <ele>3141.39990234375</ele>
        <time>2021-06-25T15:56:23.000Z</time>
        <extensions>
          <ns3:TrackPointExtension>
            <ns3:atemp>26.0</ns3:atemp>
            <ns3:hr>119</ns3:hr>
          </ns3:TrackPointExtension>
        </extensions>
      </trkpt>
      <trkpt lat="36.766085363924503326416015625" lon="-118.40970315970480442047119140625">
        <ele>3141.800048828125</ele>
        <time>2021-06-25T15:56:28.000Z</time>
        <extensions>
          <ns3:TrackPointExtension>
            <ns3:atemp>26.0</ns3:atemp>
            <ns3:hr>118</ns3:hr>
          </ns3:TrackPointExtension>
        </extensions>
      </trkpt>
      <trkpt lat="36.76609399728477001190185546875" lon="-118.40973299928009510040283203125">
        <ele>3142</ele>
        <time>2021-06-25T15:56:31.000Z</time>
        <extensions>
          <ns3:TrackPointExtension>
            <ns3:atemp>26.0</ns3:atemp>
            <ns3:hr>118</ns3:hr>
          </ns3:TrackPointExtension>
        </extensions>
      </trkpt>
      <trkpt lat="36.76609500311315059661865234375" lon="-118.40977859683334827423095703125">
        <ele>3142.60009765625</ele>
        <time>2021-06-25T15:56:39.000Z</time>
        <extensions>
          <ns3:TrackPointExtension>
            <ns3:atemp>26.0</ns3:atemp>
            <ns3:hr>119</ns3:hr>
          </ns3:TrackPointExtension>
        </extensions>
      </trkpt>
      <trkpt lat="36.76607874222099781036376953125" lon="-118.409810364246368408203125">
        <ele>3142.39990234375</ele>
        <time>2021-06-25T15:56:42.000Z</time>
        <extensions>
          <ns3:TrackPointExtension>
            <ns3:atemp>26.0</ns3:atemp>
            <ns3:hr>122</ns3:hr>
          </ns3:TrackPointExtension>
        </extensions>
      </trkpt>
      <trkpt lat="36.76606801338493824005126953125" lon="-118.4098527766764163970947265625">
        <ele>3142.199951171875</ele>
        <time>2021-06-25T15:56:51.000Z</time>
        <extensions>
          <ns3:TrackPointExtension>
            <ns3:atemp>26.0</ns3:atemp>
            <ns3:hr>124</ns3:hr>
          </ns3:TrackPointExtension>
        </extensions>
      </trkpt>
      <trkpt lat="36.7660898901522159576416015625" lon="-118.40987113304436206817626953125">
        <ele>3142.60009765625</ele>
        <time>2021-06-25T15:56:55.000Z</time>
        <extensions>
          <ns3:TrackPointExtension>
            <ns3:atemp>26.0</ns3:atemp>
            <ns3:hr>121</ns3:hr>
          </ns3:TrackPointExtension>
        </extensions>
      </trkpt>
      <trkpt lat="36.76609315909445285797119140625" lon="-118.4098816104233264923095703125">
        <ele>3142.60009765625</ele>
        <time>2021-06-25T15:56:57.000Z</time>
        <extensions>
          <ns3:TrackPointExtension>
            <ns3:atemp>26.0</ns3:atemp>
            <ns3:hr>116</ns3:hr>
          </ns3:TrackPointExtension>
        </extensions>
      </trkpt>
      <trkpt lat="36.76609181798994541168212890625" lon="-118.40987800620496273040771484375">
        <ele>3143</ele>
        <time>2021-06-25T15:56:58.000Z</time>
        <extensions>
          <ns3:TrackPointExtension>
            <ns3:atemp>26.0</ns3:atemp>
            <ns3:hr>114</ns3:hr>
          </ns3:TrackPointExtension>
        </extensions>
      </trkpt>
      <trkpt lat="36.7660932429134845733642578125" lon="-118.40987783856689929962158203125">
        <ele>3143.199951171875</ele>
        <time>2021-06-25T15:56:59.000Z</time>
        <extensions>
          <ns3:TrackPointExtension>
            <ns3:atemp>26.0</ns3:atemp>
            <ns3:hr>111</ns3:hr>
          </ns3:TrackPointExtension>
        </extensions>
      </trkpt>
      <trkpt lat="36.7660845257341861724853515625" lon="-118.4098899923264980316162109375">
        <ele>3143.199951171875</ele>
        <time>2021-06-25T15:57:01.000Z</time>
        <extensions>
          <ns3:TrackPointExtension>
            <ns3:atemp>26.0</ns3:atemp>
            <ns3:hr>108</ns3:hr>
          </ns3:TrackPointExtension>
        </extensions>
      </trkpt>
      <trkpt lat="36.7660744674503803253173828125" lon="-118.40990197844803333282470703125">
        <ele>3143.199951171875</ele>
        <time>2021-06-25T15:57:03.000Z</time>
        <extensions>
          <ns3:TrackPointExtension>
            <ns3:atemp>26.0</ns3:atemp>
            <ns3:hr>105</ns3:hr>
          </ns3:TrackPointExtension>
        </extensions>
      </trkpt>
      <trkpt lat="36.7660704441368579864501953125" lon="-118.40990080498158931732177734375">
        <ele>3143.199951171875</ele>
        <time>2021-06-25T15:57:04.000Z</time>
        <extensions>
          <ns3:TrackPointExtension>
            <ns3:atemp>26.0</ns3:atemp>
            <ns3:hr>104</ns3:hr>
          </ns3:TrackPointExtension>
        </extensions>
      </trkpt>
      <trkpt lat="36.76605510525405406951904296875" lon="-118.40997339226305484771728515625">
        <ele>3143.60009765625</ele>
        <time>2021-06-25T15:57:13.000Z</time>
        <extensions>
          <ns3:TrackPointExtension>
            <ns3:atemp>26.0</ns3:atemp>
            <ns3:hr>102</ns3:hr>
          </ns3:TrackPointExtension>
        </extensions>
      </trkpt>
      <trkpt lat="36.766040436923503875732421875" lon="-118.41003843583166599273681640625">
        <ele>3144.199951171875</ele>
        <time>2021-06-25T15:57:19.000Z</time>
        <extensions>
          <ns3:TrackPointExtension>
            <ns3:atemp>26.0</ns3:atemp>
            <ns3:hr>103</ns3:hr>
          </ns3:TrackPointExtension>
        </extensions>
      </trkpt>
      <trkpt lat="36.7660241760313510894775390625" lon="-118.4100579656660556793212890625">
        <ele>3144.199951171875</ele>
        <time>2021-06-25T15:57:22.000Z</time>
        <extensions>
          <ns3:TrackPointExtension>
            <ns3:atemp>26.0</ns3:atemp>
            <ns3:hr>103</ns3:hr>
          </ns3:TrackPointExtension>
        </extensions>
      </trkpt>
      <trkpt lat="36.76601587794721126556396484375" lon="-118.41006576083600521087646484375">
        <ele>3144.39990234375</ele>
        <time>2021-06-25T15:57:23.000Z</time>
        <extensions>
          <ns3:TrackPointExtension>
            <ns3:atemp>26.0</ns3:atemp>
            <ns3:hr>100</ns3:hr>
          </ns3:TrackPointExtension>
        </extensions>
      </trkpt>
      <trkpt lat="36.76600917242467403411865234375" lon="-118.4100760705769062042236328125">
        <ele>3144.60009765625</ele>
        <time>2021-06-25T15:57:24.000Z</time>
        <extensions>
          <ns3:TrackPointExtension>
            <ns3:atemp>26.0</ns3:atemp>
            <ns3:hr>103</ns3:hr>
          </ns3:TrackPointExtension>
        </extensions>
      </trkpt>
      <trkpt lat="36.76602132618427276611328125" lon="-118.41013818047940731048583984375">
        <ele>3145</ele>
        <time>2021-06-25T15:57:28.000Z</time>
        <extensions>
          <ns3:TrackPointExtension>
            <ns3:atemp>26.0</ns3:atemp>
            <ns3:hr>104</ns3:hr>
          </ns3:TrackPointExtension>
        </extensions>
      </trkpt>
      <trkpt lat="36.76602073945105075836181640625" lon="-118.410147316753864288330078125">
        <ele>3145.39990234375</ele>
        <time>2021-06-25T15:57:29.000Z</time>
        <extensions>
          <ns3:TrackPointExtension>
            <ns3:atemp>26.0</ns3:atemp>
            <ns3:hr>104</ns3:hr>
          </ns3:TrackPointExtension>
        </extensions>
      </trkpt>
      <trkpt lat="36.76600296981632709503173828125" lon="-118.410190232098102569580078125">
        <ele>3146.39990234375</ele>
        <time>2021-06-25T15:57:34.000Z</time>
        <extensions>
          <ns3:TrackPointExtension>
            <ns3:atemp>26.0</ns3:atemp>
            <ns3:hr>105</ns3:hr>
          </ns3:TrackPointExtension>
        </extensions>
      </trkpt>
      <trkpt lat="36.76600162871181964874267578125" lon="-118.41019685380160808563232421875">
        <ele>3146.39990234375</ele>
        <time>2021-06-25T15:57:35.000Z</time>
        <extensions>
          <ns3:TrackPointExtension>
            <ns3:atemp>26.0</ns3:atemp>
            <ns3:hr>105</ns3:hr>
          </ns3:TrackPointExtension>
        </extensions>
      </trkpt>
      <trkpt lat="36.7659889720380306243896484375" lon="-118.41023155488073825836181640625">
        <ele>3147.199951171875</ele>
        <time>2021-06-25T15:57:40.000Z</time>
        <extensions>
          <ns3:TrackPointExtension>
            <ns3:atemp>26.0</ns3:atemp>
            <ns3:hr>108</ns3:hr>
          </ns3:TrackPointExtension>
        </extensions>
      </trkpt>
      <trkpt lat="36.76599525846540927886962890625" lon="-118.41024010442197322845458984375">
        <ele>3147.60009765625</ele>
        <time>2021-06-25T15:57:41.000Z</time>
        <extensions>
          <ns3:TrackPointExtension>
            <ns3:atemp>26.0</ns3:atemp>
            <ns3:hr>108</ns3:hr>
          </ns3:TrackPointExtension>
        </extensions>
      </trkpt>
      <trkpt lat="36.76599408499896526336669921875" lon="-118.4102648310363292694091796875">
        <ele>3148.199951171875</ele>
        <time>2021-06-25T15:57:44.000Z</time>
        <extensions>
          <ns3:TrackPointExtension>
            <ns3:atemp>26.0</ns3:atemp>
            <ns3:hr>111</ns3:hr>
          </ns3:TrackPointExtension>
        </extensions>
      </trkpt>
      <trkpt lat="36.765988133847713470458984375" lon="-118.41029643081128597259521484375">
        <ele>3148.800048828125</ele>
        <time>2021-06-25T15:57:47.000Z</time>
        <extensions>
          <ns3:TrackPointExtension>
            <ns3:atemp>26.0</ns3:atemp>
            <ns3:hr>113</ns3:hr>
          </ns3:TrackPointExtension>
        </extensions>
      </trkpt>
      <trkpt lat="36.7659896425902843475341796875" lon="-118.41036767698824405670166015625">
        <ele>3149.800048828125</ele>
        <time>2021-06-25T15:57:53.000Z</time>
        <extensions>
          <ns3:TrackPointExtension>
            <ns3:atemp>26.0</ns3:atemp>
            <ns3:hr>115</ns3:hr>
          </ns3:TrackPointExtension>
        </extensions>
      </trkpt>
      <trkpt lat="36.76598570309579372406005859375" lon="-118.4103764779865741729736328125">
        <ele>3150</ele>
        <time>2021-06-25T15:57:54.000Z</time>
        <extensions>
          <ns3:TrackPointExtension>
            <ns3:atemp>26.0</ns3:atemp>
            <ns3:hr>115</ns3:hr>
          </ns3:TrackPointExtension>
        </extensions>
      </trkpt>
      <trkpt lat="36.7659789137542247772216796875" lon="-118.410434313118457794189453125">
        <ele>3151</ele>
        <time>2021-06-25T15:57:59.000Z</time>
        <extensions>
          <ns3:TrackPointExtension>
            <ns3:atemp>26.0</ns3:atemp>
            <ns3:hr>117</ns3:hr>
          </ns3:TrackPointExtension>
        </extensions>
      </trkpt>
      <trkpt lat="36.76598050631582736968994140625" lon="-118.4104438684880733489990234375">
        <ele>3151.199951171875</ele>
        <time>2021-06-25T15:58:00.000Z</time>
        <extensions>
          <ns3:TrackPointExtension>
            <ns3:atemp>26.0</ns3:atemp>
            <ns3:hr>118</ns3:hr>
          </ns3:TrackPointExtension>
        </extensions>
      </trkpt>
      <trkpt lat="36.76596709527075290679931640625" lon="-118.41045987792313098907470703125">
        <ele>3152</ele>
        <time>2021-06-25T15:58:05.000Z</time>
        <extensions>
          <ns3:TrackPointExtension>
            <ns3:atemp>26.0</ns3:atemp>
            <ns3:hr>120</ns3:hr>
          </ns3:TrackPointExtension>
        </extensions>
      </trkpt>
      <trkpt lat="36.76596357487142086029052734375" lon="-118.41048452071845531463623046875">
        <ele>3152.199951171875</ele>
        <time>2021-06-25T15:58:06.000Z</time>
        <extensions>
          <ns3:TrackPointExtension>
            <ns3:atemp>26.0</ns3:atemp>
            <ns3:hr>121</ns3:hr>
          </ns3:TrackPointExtension>
        </extensions>
      </trkpt>
      <trkpt lat="36.765958629548549652099609375" lon="-118.41054587624967098236083984375">
        <ele>3152.199951171875</ele>
        <time>2021-06-25T15:58:10.000Z</time>
        <extensions>
          <ns3:TrackPointExtension>
            <ns3:atemp>26.0</ns3:atemp>
            <ns3:hr>118</ns3:hr>
          </ns3:TrackPointExtension>
        </extensions>
      </trkpt>
      <trkpt lat="36.7659651674330234527587890625" lon="-118.4105635620653629302978515625">
        <ele>3152.39990234375</ele>
        <time>2021-06-25T15:58:12.000Z</time>
        <extensions>
          <ns3:TrackPointExtension>
            <ns3:atemp>26.0</ns3:atemp>
            <ns3:hr>116</ns3:hr>
          </ns3:TrackPointExtension>
        </extensions>
      </trkpt>
      <trkpt lat="36.76599123515188694000244140625" lon="-118.41058887541294097900390625">
        <ele>3153</ele>
        <time>2021-06-25T15:58:17.000Z</time>
        <extensions>
          <ns3:TrackPointExtension>
            <ns3:atemp>26.0</ns3:atemp>
            <ns3:hr>116</ns3:hr>
          </ns3:TrackPointExtension>
        </extensions>
      </trkpt>
      <trkpt lat="36.76599542610347270965576171875" lon="-118.41059080325067043304443359375">
        <ele>3153.199951171875</ele>
        <time>2021-06-25T15:58:18.000Z</time>
        <extensions>
          <ns3:TrackPointExtension>
            <ns3:atemp>26.0</ns3:atemp>
            <ns3:hr>116</ns3:hr>
          </ns3:TrackPointExtension>
        </extensions>
      </trkpt>
      <trkpt lat="36.76602845080196857452392578125" lon="-118.41062240302562713623046875">
        <ele>3154.199951171875</ele>
        <time>2021-06-25T15:58:24.000Z</time>
        <extensions>
          <ns3:TrackPointExtension>
            <ns3:atemp>26.0</ns3:atemp>
            <ns3:hr>117</ns3:hr>
          </ns3:TrackPointExtension>
        </extensions>
      </trkpt>
      <trkpt lat="36.766026020050048828125" lon="-118.4106436930596828460693359375">
        <ele>3154.199951171875</ele>
        <time>2021-06-25T15:58:25.000Z</time>
        <extensions>
          <ns3:TrackPointExtension>
            <ns3:atemp>26.0</ns3:atemp>
            <ns3:hr>117</ns3:hr>
          </ns3:TrackPointExtension>
        </extensions>
      </trkpt>
      <trkpt lat="36.7660354077816009521484375" lon="-118.4107161127030849456787109375">
        <ele>3153.800048828125</ele>
        <time>2021-06-25T15:58:30.000Z</time>
        <extensions>
          <ns3:TrackPointExtension>
            <ns3:atemp>26.0</ns3:atemp>
            <ns3:hr>118</ns3:hr>
          </ns3:TrackPointExtension>
        </extensions>
      </trkpt>
      <trkpt lat="36.7660174705088138580322265625" lon="-118.41077470220625400543212890625">
        <ele>3154.199951171875</ele>
        <time>2021-06-25T15:58:37.000Z</time>
        <extensions>
          <ns3:TrackPointExtension>
            <ns3:atemp>26.0</ns3:atemp>
            <ns3:hr>116</ns3:hr>
          </ns3:TrackPointExtension>
        </extensions>
      </trkpt>
      <trkpt lat="36.76600833423435688018798828125" lon="-118.4108073078095912933349609375">
        <ele>3155.39990234375</ele>
        <time>2021-06-25T15:58:42.000Z</time>
        <extensions>
          <ns3:TrackPointExtension>
            <ns3:atemp>26.0</ns3:atemp>
            <ns3:hr>115</ns3:hr>
          </ns3:TrackPointExtension>
        </extensions>
      </trkpt>
      <trkpt lat="36.7660087533295154571533203125" lon="-118.4108244068920612335205078125">
        <ele>3155.39990234375</ele>
        <time>2021-06-25T15:58:43.000Z</time>
        <extensions>
          <ns3:TrackPointExtension>
            <ns3:atemp>26.0</ns3:atemp>
            <ns3:hr>115</ns3:hr>
          </ns3:TrackPointExtension>
        </extensions>
      </trkpt>
      <trkpt lat="36.7660005390644073486328125" lon="-118.4108834154903888702392578125">
        <ele>3156.39990234375</ele>
        <time>2021-06-25T15:58:49.000Z</time>
        <extensions>
          <ns3:TrackPointExtension>
            <ns3:atemp>26.0</ns3:atemp>
            <ns3:hr>117</ns3:hr>
          </ns3:TrackPointExtension>
        </extensions>
      </trkpt>
      <trkpt lat="36.76600196398794651031494140625" lon="-118.4108944796025753021240234375">
        <ele>3156.800048828125</ele>
        <time>2021-06-25T15:58:51.000Z</time>
        <extensions>
          <ns3:TrackPointExtension>
            <ns3:atemp>26.0</ns3:atemp>
            <ns3:hr>118</ns3:hr>
          </ns3:TrackPointExtension>
        </extensions>
      </trkpt>
      <trkpt lat="36.76601788960397243499755859375" lon="-118.41095943935215473175048828125">
        <ele>3157.60009765625</ele>
        <time>2021-06-25T15:58:56.000Z</time>
        <extensions>
          <ns3:TrackPointExtension>
            <ns3:atemp>26.0</ns3:atemp>
            <ns3:hr>117</ns3:hr>
          </ns3:TrackPointExtension>
        </extensions>
      </trkpt>
      <trkpt lat="36.76602090708911418914794921875" lon="-118.41096899472177028656005859375">
        <ele>3157.60009765625</ele>
        <time>2021-06-25T15:58:57.000Z</time>
        <extensions>
          <ns3:TrackPointExtension>
            <ns3:atemp>26.0</ns3:atemp>
            <ns3:hr>116</ns3:hr>
          </ns3:TrackPointExtension>
        </extensions>
      </trkpt>
      <trkpt lat="36.76602534949779510498046875" lon="-118.410996235907077789306640625">
        <ele>3158</ele>
        <time>2021-06-25T15:59:00.000Z</time>
        <extensions>
          <ns3:TrackPointExtension>
            <ns3:atemp>26.0</ns3:atemp>
            <ns3:hr>113</ns3:hr>
          </ns3:TrackPointExtension>
        </extensions>
      </trkpt>
      <trkpt lat="36.76604253239929676055908203125" lon="-118.41102917678654193878173828125">
        <ele>3158.60009765625</ele>
        <time>2021-06-25T15:59:04.000Z</time>
        <extensions>
          <ns3:TrackPointExtension>
            <ns3:atemp>26.0</ns3:atemp>
            <ns3:hr>113</ns3:hr>
          </ns3:TrackPointExtension>
        </extensions>
      </trkpt>
      <trkpt lat="36.7660523392260074615478515625" lon="-118.41104325838387012481689453125">
        <ele>3159</ele>
        <time>2021-06-25T15:59:06.000Z</time>
        <extensions>
          <ns3:TrackPointExtension>
            <ns3:atemp>26.0</ns3:atemp>
            <ns3:hr>113</ns3:hr>
          </ns3:TrackPointExtension>
        </extensions>
      </trkpt>
      <trkpt lat="36.76607002504169940948486328125" lon="-118.4110966511070728302001953125">
        <ele>3159.800048828125</ele>
        <time>2021-06-25T15:59:10.000Z</time>
        <extensions>
          <ns3:TrackPointExtension>
            <ns3:atemp>26.0</ns3:atemp>
            <ns3:hr>114</ns3:hr>
          </ns3:TrackPointExtension>
        </extensions>
      </trkpt>
      <trkpt lat="36.76607555709779262542724609375" lon="-118.41111131943762302398681640625">
        <ele>3160.199951171875</ele>
        <time>2021-06-25T15:59:12.000Z</time>
        <extensions>
          <ns3:TrackPointExtension>
            <ns3:atemp>26.0</ns3:atemp>
            <ns3:hr>115</ns3:hr>
          </ns3:TrackPointExtension>
        </extensions>
      </trkpt>
      <trkpt lat="36.76609374582767486572265625" lon="-118.411160521209239959716796875">
        <ele>3160.800048828125</ele>
        <time>2021-06-25T15:59:16.000Z</time>
        <extensions>
          <ns3:TrackPointExtension>
            <ns3:atemp>26.0</ns3:atemp>
            <ns3:hr>115</ns3:hr>
          </ns3:TrackPointExtension>
        </extensions>
      </trkpt>
      <trkpt lat="36.7661086656153202056884765625" lon="-118.41123520396649837493896484375">
        <ele>3162</ele>
        <time>2021-06-25T15:59:21.000Z</time>
        <extensions>
          <ns3:TrackPointExtension>
            <ns3:atemp>26.0</ns3:atemp>
            <ns3:hr>118</ns3:hr>
          </ns3:TrackPointExtension>
        </extensions>
      </trkpt>
      <trkpt lat="36.76611461676657199859619140625" lon="-118.41124392114579677581787109375">
        <ele>3162</ele>
        <time>2021-06-25T15:59:22.000Z</time>
        <extensions>
          <ns3:TrackPointExtension>
            <ns3:atemp>26.0</ns3:atemp>
            <ns3:hr>119</ns3:hr>
          </ns3:TrackPointExtension>
        </extensions>
      </trkpt>
      <trkpt lat="36.7661475576460361480712890625" lon="-118.41130862943828105926513671875">
        <ele>3163</ele>
        <time>2021-06-25T15:59:29.000Z</time>
        <extensions>
          <ns3:TrackPointExtension>
            <ns3:atemp>26.0</ns3:atemp>
            <ns3:hr>120</ns3:hr>
          </ns3:TrackPointExtension>
        </extensions>
      </trkpt>
      <trkpt lat="36.766155101358890533447265625" lon="-118.411313407123088836669921875">
        <ele>3163.199951171875</ele>
        <time>2021-06-25T15:59:30.000Z</time>
        <extensions>
          <ns3:TrackPointExtension>
            <ns3:atemp>26.0</ns3:atemp>
            <ns3:hr>120</ns3:hr>
          </ns3:TrackPointExtension>
        </extensions>
      </trkpt>
      <trkpt lat="36.7661722004413604736328125" lon="-118.41133276931941509246826171875">
        <ele>3163.39990234375</ele>
        <time>2021-06-25T15:59:33.000Z</time>
        <extensions>
          <ns3:TrackPointExtension>
            <ns3:atemp>26.0</ns3:atemp>
            <ns3:hr>118</ns3:hr>
          </ns3:TrackPointExtension>
        </extensions>
      </trkpt>
      <trkpt lat="36.76617245189845561981201171875" lon="-118.41134500689804553985595703125">
        <ele>3163.800048828125</ele>
        <time>2021-06-25T15:59:35.000Z</time>
        <extensions>
          <ns3:TrackPointExtension>
            <ns3:atemp>26.0</ns3:atemp>
            <ns3:hr>116</ns3:hr>
          </ns3:TrackPointExtension>
        </extensions>
      </trkpt>
      <trkpt lat="36.7661710269749164581298828125" lon="-118.4113494493067264556884765625">
        <ele>3164</ele>
        <time>2021-06-25T15:59:36.000Z</time>
        <extensions>
          <ns3:TrackPointExtension>
            <ns3:atemp>26.0</ns3:atemp>
            <ns3:hr>115</ns3:hr>
          </ns3:TrackPointExtension>
        </extensions>
      </trkpt>
      <trkpt lat="36.766168177127838134765625" lon="-118.4113541431725025177001953125">
        <ele>3164.39990234375</ele>
        <time>2021-06-25T15:59:37.000Z</time>
        <extensions>
          <ns3:TrackPointExtension>
            <ns3:atemp>26.0</ns3:atemp>
            <ns3:hr>115</ns3:hr>
          </ns3:TrackPointExtension>
        </extensions>
      </trkpt>
      <trkpt lat="36.76616608165204524993896484375" lon="-118.41135959140956401824951171875">
        <ele>3164.39990234375</ele>
        <time>2021-06-25T15:59:38.000Z</time>
        <extensions>
          <ns3:TrackPointExtension>
            <ns3:atemp>26.0</ns3:atemp>
            <ns3:hr>115</ns3:hr>
          </ns3:TrackPointExtension>
        </extensions>
      </trkpt>
      <trkpt lat="36.7661572806537151336669921875" lon="-118.411371745169162750244140625">
        <ele>3164.60009765625</ele>
        <time>2021-06-25T15:59:40.000Z</time>
        <extensions>
          <ns3:TrackPointExtension>
            <ns3:atemp>26.0</ns3:atemp>
            <ns3:hr>116</ns3:hr>
          </ns3:TrackPointExtension>
        </extensions>
      </trkpt>
      <trkpt lat="36.7661539278924465179443359375" lon="-118.41139228083193302154541015625">
        <ele>3164.800048828125</ele>
        <time>2021-06-25T15:59:42.000Z</time>
        <extensions>
          <ns3:TrackPointExtension>
            <ns3:atemp>26.0</ns3:atemp>
            <ns3:hr>116</ns3:hr>
          </ns3:TrackPointExtension>
        </extensions>
      </trkpt>
      <trkpt lat="36.76615367643535137176513671875" lon="-118.4114218689501285552978515625">
        <ele>3165.39990234375</ele>
        <time>2021-06-25T15:59:44.000Z</time>
        <extensions>
          <ns3:TrackPointExtension>
            <ns3:atemp>26.0</ns3:atemp>
            <ns3:hr>116</ns3:hr>
          </ns3:TrackPointExtension>
        </extensions>
      </trkpt>
      <trkpt lat="36.7661690153181552886962890625" lon="-118.41143787838518619537353515625">
        <ele>3165.800048828125</ele>
        <time>2021-06-25T15:59:46.000Z</time>
        <extensions>
          <ns3:TrackPointExtension>
            <ns3:atemp>26.0</ns3:atemp>
            <ns3:hr>115</ns3:hr>
          </ns3:TrackPointExtension>
        </extensions>
      </trkpt>
      <trkpt lat="36.76617580465972423553466796875" lon="-118.411444164812564849853515625">
        <ele>3165.800048828125</ele>
        <time>2021-06-25T15:59:47.000Z</time>
        <extensions>
          <ns3:TrackPointExtension>
            <ns3:atemp>26.0</ns3:atemp>
            <ns3:hr>115</ns3:hr>
          </ns3:TrackPointExtension>
        </extensions>
      </trkpt>
      <trkpt lat="36.7661958374083042144775390625" lon="-118.41147559694945812225341796875">
        <ele>3166.39990234375</ele>
        <time>2021-06-25T15:59:51.000Z</time>
        <extensions>
          <ns3:TrackPointExtension>
            <ns3:atemp>26.0</ns3:atemp>
            <ns3:hr>115</ns3:hr>
          </ns3:TrackPointExtension>
        </extensions>
      </trkpt>
      <trkpt lat="36.766200363636016845703125" lon="-118.41148800216615200042724609375">
        <ele>3167</ele>
        <time>2021-06-25T15:59:53.000Z</time>
        <extensions>
          <ns3:TrackPointExtension>
            <ns3:atemp>26.0</ns3:atemp>
            <ns3:hr>115</ns3:hr>
          </ns3:TrackPointExtension>
        </extensions>
      </trkpt>
      <trkpt lat="36.7662032134830951690673828125" lon="-118.41149370186030864715576171875">
        <ele>3167</ele>
        <time>2021-06-25T15:59:54.000Z</time>
        <extensions>
          <ns3:TrackPointExtension>
            <ns3:atemp>26.0</ns3:atemp>
            <ns3:hr>116</ns3:hr>
          </ns3:TrackPointExtension>
        </extensions>
      </trkpt>
      <trkpt lat="36.76621603779494762420654296875" lon="-118.4115063585340976715087890625">
        <ele>3167</ele>
        <time>2021-06-25T15:59:57.000Z</time>
        <extensions>
          <ns3:TrackPointExtension>
            <ns3:atemp>26.0</ns3:atemp>
            <ns3:hr>119</ns3:hr>
          </ns3:TrackPointExtension>
        </extensions>
      </trkpt>
      <trkpt lat="36.7662186361849308013916015625" lon="-118.4115093760192394256591796875">
        <ele>3167.39990234375</ele>
        <time>2021-06-25T15:59:58.000Z</time>
        <extensions>
          <ns3:TrackPointExtension>
            <ns3:atemp>26.0</ns3:atemp>
            <ns3:hr>119</ns3:hr>
          </ns3:TrackPointExtension>
        </extensions>
      </trkpt>
      <trkpt lat="36.76624126732349395751953125" lon="-118.41152119450271129608154296875">
        <ele>3168</ele>
        <time>2021-06-25T16:00:01.000Z</time>
        <extensions>
          <ns3:TrackPointExtension>
            <ns3:atemp>26.0</ns3:atemp>
            <ns3:hr>120</ns3:hr>
          </ns3:TrackPointExtension>
        </extensions>
      </trkpt>
      <trkpt lat="36.76626767031848430633544921875" lon="-118.41152630746364593505859375">
        <ele>3168.199951171875</ele>
        <time>2021-06-25T16:00:04.000Z</time>
        <extensions>
          <ns3:TrackPointExtension>
            <ns3:atemp>26.0</ns3:atemp>
            <ns3:hr>120</ns3:hr>
          </ns3:TrackPointExtension>
        </extensions>
      </trkpt>
      <trkpt lat="36.7663145251572132110595703125" lon="-118.41157316230237483978271484375">
        <ele>3168.60009765625</ele>
        <time>2021-06-25T16:00:10.000Z</time>
        <extensions>
          <ns3:TrackPointExtension>
            <ns3:atemp>26.0</ns3:atemp>
            <ns3:hr>118</ns3:hr>
          </ns3:TrackPointExtension>
        </extensions>
      </trkpt>
      <trkpt lat="36.76637177355587482452392578125" lon="-118.411611802875995635986328125">
        <ele>3169</ele>
        <time>2021-06-25T16:00:18.000Z</time>
        <extensions>
          <ns3:TrackPointExtension>
            <ns3:atemp>26.0</ns3:atemp>
            <ns3:hr>116</ns3:hr>
          </ns3:TrackPointExtension>
        </extensions>
      </trkpt>
      <trkpt lat="36.76638015545904636383056640625" lon="-118.4116153232753276824951171875">
        <ele>3169.199951171875</ele>
        <time>2021-06-25T16:00:19.000Z</time>
        <extensions>
          <ns3:TrackPointExtension>
            <ns3:atemp>26.0</ns3:atemp>
            <ns3:hr>117</ns3:hr>
          </ns3:TrackPointExtension>
        </extensions>
      </trkpt>
      <trkpt lat="36.76643363200128078460693359375" lon="-118.411666788160800933837890625">
        <ele>3170.199951171875</ele>
        <time>2021-06-25T16:00:29.000Z</time>
        <extensions>
          <ns3:TrackPointExtension>
            <ns3:atemp>26.0</ns3:atemp>
            <ns3:hr>116</ns3:hr>
          </ns3:TrackPointExtension>
        </extensions>
      </trkpt>
      <trkpt lat="36.76644377410411834716796875" lon="-118.41166720725595951080322265625">
        <ele>3170.199951171875</ele>
        <time>2021-06-25T16:00:30.000Z</time>
        <extensions>
          <ns3:TrackPointExtension>
            <ns3:atemp>26.0</ns3:atemp>
            <ns3:hr>117</ns3:hr>
          </ns3:TrackPointExtension>
        </extensions>
      </trkpt>
      <trkpt lat="36.76647654734551906585693359375" lon="-118.41167910955846309661865234375">
        <ele>3170.800048828125</ele>
        <time>2021-06-25T16:00:35.000Z</time>
        <extensions>
          <ns3:TrackPointExtension>
            <ns3:atemp>26.0</ns3:atemp>
            <ns3:hr>117</ns3:hr>
          </ns3:TrackPointExtension>
        </extensions>
      </trkpt>
      <trkpt lat="36.76649699918925762176513671875" lon="-118.41168313287198543548583984375">
        <ele>3171.39990234375</ele>
        <time>2021-06-25T16:00:38.000Z</time>
        <extensions>
          <ns3:TrackPointExtension>
            <ns3:atemp>26.0</ns3:atemp>
            <ns3:hr>118</ns3:hr>
          </ns3:TrackPointExtension>
        </extensions>
      </trkpt>
      <trkpt lat="36.7665046267211437225341796875" lon="-118.41168883256614208221435546875">
        <ele>3171.60009765625</ele>
        <time>2021-06-25T16:00:39.000Z</time>
        <extensions>
          <ns3:TrackPointExtension>
            <ns3:atemp>26.0</ns3:atemp>
            <ns3:hr>118</ns3:hr>
          </ns3:TrackPointExtension>
        </extensions>
      </trkpt>
      <trkpt lat="36.76655064336955547332763671875" lon="-118.41169394552707672119140625">
        <ele>3172.199951171875</ele>
        <time>2021-06-25T16:00:47.000Z</time>
        <extensions>
          <ns3:TrackPointExtension>
            <ns3:atemp>26.0</ns3:atemp>
            <ns3:hr>121</ns3:hr>
          </ns3:TrackPointExtension>
        </extensions>
      </trkpt>
      <trkpt lat="36.76655483432114124298095703125" lon="-118.411693274974822998046875">
        <ele>3172.60009765625</ele>
        <time>2021-06-25T16:00:48.000Z</time>
        <extensions>
          <ns3:TrackPointExtension>
            <ns3:atemp>26.0</ns3:atemp>
            <ns3:hr>118</ns3:hr>
          </ns3:TrackPointExtension>
        </extensions>
      </trkpt>
      <trkpt lat="36.76660814322531223297119140625" lon="-118.41169528663158416748046875">
        <ele>3172.800048828125</ele>
        <time>2021-06-25T16:00:55.000Z</time>
        <extensions>
          <ns3:TrackPointExtension>
            <ns3:atemp>26.0</ns3:atemp>
            <ns3:hr>117</ns3:hr>
          </ns3:TrackPointExtension>
        </extensions>
      </trkpt>
      <trkpt lat="36.7666424252092838287353515625" lon="-118.41168514452874660491943359375">
        <ele>3173.199951171875</ele>
        <time>2021-06-25T16:01:00.000Z</time>
        <extensions>
          <ns3:TrackPointExtension>
            <ns3:atemp>26.0</ns3:atemp>
            <ns3:hr>114</ns3:hr>
          </ns3:TrackPointExtension>
        </extensions>
      </trkpt>
      <trkpt lat="36.76665022037923336029052734375" lon="-118.41169034130871295928955078125">
        <ele>3173.39990234375</ele>
        <time>2021-06-25T16:01:01.000Z</time>
        <extensions>
          <ns3:TrackPointExtension>
            <ns3:atemp>26.0</ns3:atemp>
            <ns3:hr>115</ns3:hr>
          </ns3:TrackPointExtension>
        </extensions>
      </trkpt>
      <trkpt lat="36.76667855121195316314697265625" lon="-118.41170643456280231475830078125">
        <ele>3173.60009765625</ele>
        <time>2021-06-25T16:01:04.000Z</time>
        <extensions>
          <ns3:TrackPointExtension>
            <ns3:atemp>26.0</ns3:atemp>
            <ns3:hr>115</ns3:hr>
          </ns3:TrackPointExtension>
        </extensions>
      </trkpt>
      <trkpt lat="36.766704954206943511962890625" lon="-118.411721102893352508544921875">
        <ele>3174</ele>
        <time>2021-06-25T16:01:08.000Z</time>
        <extensions>
          <ns3:TrackPointExtension>
            <ns3:atemp>26.0</ns3:atemp>
            <ns3:hr>114</ns3:hr>
          </ns3:TrackPointExtension>
        </extensions>
      </trkpt>
      <trkpt lat="36.76674812100827693939208984375" lon="-118.41176896356046199798583984375">
        <ele>3174.60009765625</ele>
        <time>2021-06-25T16:01:13.000Z</time>
        <extensions>
          <ns3:TrackPointExtension>
            <ns3:atemp>26.0</ns3:atemp>
            <ns3:hr>113</ns3:hr>
          </ns3:TrackPointExtension>
        </extensions>
      </trkpt>
      <trkpt lat="36.76675625145435333251953125" lon="-118.41177784837782382965087890625">
        <ele>3174.800048828125</ele>
        <time>2021-06-25T16:01:14.000Z</time>
        <extensions>
          <ns3:TrackPointExtension>
            <ns3:atemp>26.0</ns3:atemp>
            <ns3:hr>114</ns3:hr>
          </ns3:TrackPointExtension>
        </extensions>
      </trkpt>
      <trkpt lat="36.7668016813695430755615234375" lon="-118.41182009316980838775634765625">
        <ele>3175.800048828125</ele>
        <time>2021-06-25T16:01:20.000Z</time>
        <extensions>
          <ns3:TrackPointExtension>
            <ns3:atemp>26.0</ns3:atemp>
            <ns3:hr>115</ns3:hr>
          </ns3:TrackPointExtension>
        </extensions>
      </trkpt>
      <trkpt lat="36.76681936718523502349853515625" lon="-118.41182000935077667236328125">
        <ele>3176</ele>
        <time>2021-06-25T16:01:22.000Z</time>
        <extensions>
          <ns3:TrackPointExtension>
            <ns3:atemp>26.0</ns3:atemp>
            <ns3:hr>115</ns3:hr>
          </ns3:TrackPointExtension>
        </extensions>
      </trkpt>
      <trkpt lat="36.7668409086763858795166015625" lon="-118.411822021007537841796875">
        <ele>3176.800048828125</ele>
        <time>2021-06-25T16:01:25.000Z</time>
        <extensions>
          <ns3:TrackPointExtension>
            <ns3:atemp>26.0</ns3:atemp>
            <ns3:hr>115</ns3:hr>
          </ns3:TrackPointExtension>
        </extensions>
      </trkpt>
      <trkpt lat="36.766867227852344512939453125" lon="-118.411834426224231719970703125">
        <ele>3177.39990234375</ele>
        <time>2021-06-25T16:01:28.000Z</time>
        <extensions>
          <ns3:TrackPointExtension>
            <ns3:atemp>26.0</ns3:atemp>
            <ns3:hr>115</ns3:hr>
          </ns3:TrackPointExtension>
        </extensions>
      </trkpt>
      <trkpt lat="36.76687619648873805999755859375" lon="-118.4118295647203922271728515625">
        <ele>3177.800048828125</ele>
        <time>2021-06-25T16:01:30.000Z</time>
        <extensions>
          <ns3:TrackPointExtension>
            <ns3:atemp>26.0</ns3:atemp>
            <ns3:hr>114</ns3:hr>
          </ns3:TrackPointExtension>
        </extensions>
      </trkpt>
      <trkpt lat="36.76691039465367794036865234375" lon="-118.41185563243925571441650390625">
        <ele>3179</ele>
        <time>2021-06-25T16:01:34.000Z</time>
        <extensions>
          <ns3:TrackPointExtension>
            <ns3:atemp>26.0</ns3:atemp>
            <ns3:hr>115</ns3:hr>
          </ns3:TrackPointExtension>
        </extensions>
      </trkpt>
      <trkpt lat="36.76692581735551357269287109375" lon="-118.41186032630503177642822265625">
        <ele>3179.199951171875</ele>
        <time>2021-06-25T16:01:36.000Z</time>
        <extensions>
          <ns3:TrackPointExtension>
            <ns3:atemp>26.0</ns3:atemp>
            <ns3:hr>115</ns3:hr>
          </ns3:TrackPointExtension>
        </extensions>
      </trkpt>
      <trkpt lat="36.76693503744900226593017578125" lon="-118.41186535544693470001220703125">
        <ele>3179.39990234375</ele>
        <time>2021-06-25T16:01:37.000Z</time>
        <extensions>
          <ns3:TrackPointExtension>
            <ns3:atemp>26.0</ns3:atemp>
            <ns3:hr>115</ns3:hr>
          </ns3:TrackPointExtension>
        </extensions>
      </trkpt>
      <trkpt lat="36.7669522203505039215087890625" lon="-118.4118651039898395538330078125">
        <ele>3180</ele>
        <time>2021-06-25T16:01:39.000Z</time>
        <extensions>
          <ns3:TrackPointExtension>
            <ns3:atemp>26.0</ns3:atemp>
            <ns3:hr>115</ns3:hr>
          </ns3:TrackPointExtension>
        </extensions>
      </trkpt>
      <trkpt lat="36.7669626139104366302490234375" lon="-118.41187055222690105438232421875">
        <ele>3180</ele>
        <time>2021-06-25T16:01:40.000Z</time>
        <extensions>
          <ns3:TrackPointExtension>
            <ns3:atemp>26.0</ns3:atemp>
            <ns3:hr>116</ns3:hr>
          </ns3:TrackPointExtension>
        </extensions>
      </trkpt>
      <trkpt lat="36.7669875919818878173828125" lon="-118.41187574900686740875244140625">
        <ele>3181.199951171875</ele>
        <time>2021-06-25T16:01:43.000Z</time>
        <extensions>
          <ns3:TrackPointExtension>
            <ns3:atemp>25.0</ns3:atemp>
            <ns3:hr>117</ns3:hr>
          </ns3:TrackPointExtension>
        </extensions>
      </trkpt>
      <trkpt lat="36.76699362695217132568359375" lon="-118.4118778444826602935791015625">
        <ele>3181.199951171875</ele>
        <time>2021-06-25T16:01:44.000Z</time>
        <extensions>
          <ns3:TrackPointExtension>
            <ns3:atemp>25.0</ns3:atemp>
            <ns3:hr>117</ns3:hr>
          </ns3:TrackPointExtension>
        </extensions>
      </trkpt>
      <trkpt lat="36.76700544543564319610595703125" lon="-118.411894105374813079833984375">
        <ele>3182.199951171875</ele>
        <time>2021-06-25T16:01:48.000Z</time>
        <extensions>
          <ns3:TrackPointExtension>
            <ns3:atemp>25.0</ns3:atemp>
            <ns3:hr>119</ns3:hr>
          </ns3:TrackPointExtension>
        </extensions>
      </trkpt>
      <trkpt lat="36.7670249752700328826904296875" lon="-118.411897458136081695556640625">
        <ele>3182.800048828125</ele>
        <time>2021-06-25T16:01:52.000Z</time>
        <extensions>
          <ns3:TrackPointExtension>
            <ns3:atemp>25.0</ns3:atemp>
            <ns3:hr>119</ns3:hr>
          </ns3:TrackPointExtension>
        </extensions>
      </trkpt>
      <trkpt lat="36.767042241990566253662109375" lon="-118.41190072707831859588623046875">
        <ele>3183.39990234375</ele>
        <time>2021-06-25T16:01:55.000Z</time>
        <extensions>
          <ns3:TrackPointExtension>
            <ns3:atemp>25.0</ns3:atemp>
            <ns3:hr>119</ns3:hr>
          </ns3:TrackPointExtension>
        </extensions>
      </trkpt>
      <trkpt lat="36.7670600116252899169921875" lon="-118.41190676204860210418701171875">
        <ele>3183.60009765625</ele>
        <time>2021-06-25T16:01:57.000Z</time>
        <extensions>
          <ns3:TrackPointExtension>
            <ns3:atemp>25.0</ns3:atemp>
            <ns3:hr>120</ns3:hr>
          </ns3:TrackPointExtension>
        </extensions>
      </trkpt>
      <trkpt lat="36.7670729197561740875244140625" lon="-118.411917574703693389892578125">
        <ele>3183.60009765625</ele>
        <time>2021-06-25T16:01:59.000Z</time>
        <extensions>
          <ns3:TrackPointExtension>
            <ns3:atemp>25.0</ns3:atemp>
            <ns3:hr>120</ns3:hr>
          </ns3:TrackPointExtension>
        </extensions>
      </trkpt>
      <trkpt lat="36.7670913599431514739990234375" lon="-118.4119279682636260986328125">
        <ele>3184.199951171875</ele>
        <time>2021-06-25T16:02:03.000Z</time>
        <extensions>
          <ns3:TrackPointExtension>
            <ns3:atemp>25.0</ns3:atemp>
            <ns3:hr>121</ns3:hr>
          </ns3:TrackPointExtension>
        </extensions>
      </trkpt>
      <trkpt lat="36.767095215618610382080078125" lon="-118.41192863881587982177734375">
        <ele>3184.39990234375</ele>
        <time>2021-06-25T16:02:04.000Z</time>
        <extensions>
          <ns3:TrackPointExtension>
            <ns3:atemp>25.0</ns3:atemp>
            <ns3:hr>120</ns3:hr>
          </ns3:TrackPointExtension>
        </extensions>
      </trkpt>
      <trkpt lat="36.76709982566535472869873046875" lon="-118.4119291417300701141357421875">
        <ele>3184.800048828125</ele>
        <time>2021-06-25T16:02:05.000Z</time>
        <extensions>
          <ns3:TrackPointExtension>
            <ns3:atemp>25.0</ns3:atemp>
            <ns3:hr>120</ns3:hr>
          </ns3:TrackPointExtension>
        </extensions>
      </trkpt>
      <trkpt lat="36.7671243846416473388671875" lon="-118.41193534433841705322265625">
        <ele>3185.199951171875</ele>
        <time>2021-06-25T16:02:09.000Z</time>
        <extensions>
          <ns3:TrackPointExtension>
            <ns3:atemp>25.0</ns3:atemp>
            <ns3:hr>119</ns3:hr>
          </ns3:TrackPointExtension>
        </extensions>
      </trkpt>
      <trkpt lat="36.767149530351161956787109375" lon="-118.41195135377347469329833984375">
        <ele>3186</ele>
        <time>2021-06-25T16:02:13.000Z</time>
        <extensions>
          <ns3:TrackPointExtension>
            <ns3:atemp>25.0</ns3:atemp>
            <ns3:hr>120</ns3:hr>
          </ns3:TrackPointExtension>
        </extensions>
      </trkpt>
      <trkpt lat="36.76719403825700283050537109375" lon="-118.41195990331470966339111328125">
        <ele>3186.60009765625</ele>
        <time>2021-06-25T16:02:19.000Z</time>
        <extensions>
          <ns3:TrackPointExtension>
            <ns3:atemp>25.0</ns3:atemp>
            <ns3:hr>120</ns3:hr>
          </ns3:TrackPointExtension>
        </extensions>
      </trkpt>
      <trkpt lat="36.7672236263751983642578125" lon="-118.4119703806936740875244140625">
        <ele>3187</ele>
        <time>2021-06-25T16:02:23.000Z</time>
        <extensions>
          <ns3:TrackPointExtension>
            <ns3:atemp>25.0</ns3:atemp>
            <ns3:hr>120</ns3:hr>
          </ns3:TrackPointExtension>
        </extensions>
      </trkpt>
      <trkpt lat="36.7672529630362987518310546875" lon="-118.41198672540485858917236328125">
        <ele>3187.39990234375</ele>
        <time>2021-06-25T16:02:28.000Z</time>
        <extensions>
          <ns3:TrackPointExtension>
            <ns3:atemp>26.0</ns3:atemp>
            <ns3:hr>121</ns3:hr>
          </ns3:TrackPointExtension>
        </extensions>
      </trkpt>
      <trkpt lat="36.767269559204578399658203125" lon="-118.41199678368866443634033203125">
        <ele>3188.199951171875</ele>
        <time>2021-06-25T16:02:31.000Z</time>
        <extensions>
          <ns3:TrackPointExtension>
            <ns3:atemp>26.0</ns3:atemp>
            <ns3:hr>122</ns3:hr>
          </ns3:TrackPointExtension>
        </extensions>
      </trkpt>
      <trkpt lat="36.76728322170674800872802734375" lon="-118.41198504902422428131103515625">
        <ele>3189</ele>
        <time>2021-06-25T16:02:36.000Z</time>
        <extensions>
          <ns3:TrackPointExtension>
            <ns3:atemp>26.0</ns3:atemp>
            <ns3:hr>124</ns3:hr>
          </ns3:TrackPointExtension>
        </extensions>
      </trkpt>
      <trkpt lat="36.7673056013882160186767578125" lon="-118.41197666712105274200439453125">
        <ele>3189.39990234375</ele>
        <time>2021-06-25T16:02:39.000Z</time>
        <extensions>
          <ns3:TrackPointExtension>
            <ns3:atemp>26.0</ns3:atemp>
            <ns3:hr>125</ns3:hr>
          </ns3:TrackPointExtension>
        </extensions>
      </trkpt>
      <trkpt lat="36.76734642125666141510009765625" lon="-118.411979936063289642333984375">
        <ele>3190</ele>
        <time>2021-06-25T16:02:45.000Z</time>
        <extensions>
          <ns3:TrackPointExtension>
            <ns3:atemp>26.0</ns3:atemp>
            <ns3:hr>127</ns3:hr>
          </ns3:TrackPointExtension>
        </extensions>
      </trkpt>
      <trkpt lat="36.7673657834529876708984375" lon="-118.411945067346096038818359375">
        <ele>3190.39990234375</ele>
        <time>2021-06-25T16:02:49.000Z</time>
        <extensions>
          <ns3:TrackPointExtension>
            <ns3:atemp>26.0</ns3:atemp>
            <ns3:hr>127</ns3:hr>
          </ns3:TrackPointExtension>
        </extensions>
      </trkpt>
      <trkpt lat="36.76741180010139942169189453125" lon="-118.41191749088466167449951171875">
        <ele>3190.800048828125</ele>
        <time>2021-06-25T16:02:56.000Z</time>
        <extensions>
          <ns3:TrackPointExtension>
            <ns3:atemp>26.0</ns3:atemp>
            <ns3:hr>125</ns3:hr>
          </ns3:TrackPointExtension>
        </extensions>
      </trkpt>
      <trkpt lat="36.7674269713461399078369140625" lon="-118.41191564686596393585205078125">
        <ele>3191</ele>
        <time>2021-06-25T16:02:58.000Z</time>
        <extensions>
          <ns3:TrackPointExtension>
            <ns3:atemp>26.0</ns3:atemp>
            <ns3:hr>122</ns3:hr>
          </ns3:TrackPointExtension>
        </extensions>
      </trkpt>
      <trkpt lat="36.76744516007602214813232421875" lon="-118.41190977953374385833740234375">
        <ele>3191</ele>
        <time>2021-06-25T16:03:00.000Z</time>
        <extensions>
          <ns3:TrackPointExtension>
            <ns3:atemp>26.0</ns3:atemp>
            <ns3:hr>119</ns3:hr>
          </ns3:TrackPointExtension>
        </extensions>
      </trkpt>
      <trkpt lat="36.7674856446683406829833984375" lon="-118.41186602599918842315673828125">
        <ele>3190.800048828125</ele>
        <time>2021-06-25T16:03:05.000Z</time>
        <extensions>
          <ns3:TrackPointExtension>
            <ns3:atemp>26.0</ns3:atemp>
            <ns3:hr>119</ns3:hr>
          </ns3:TrackPointExtension>
        </extensions>
      </trkpt>
      <trkpt lat="36.767527721822261810302734375" lon="-118.41187298297882080078125">
        <ele>3190.60009765625</ele>
        <time>2021-06-25T16:03:12.000Z</time>
        <extensions>
          <ns3:TrackPointExtension>
            <ns3:atemp>26.0</ns3:atemp>
            <ns3:hr>121</ns3:hr>
          </ns3:TrackPointExtension>
        </extensions>
      </trkpt>
      <trkpt lat="36.76756250672042369842529296875" lon="-118.4118654392659664154052734375">
        <ele>3191</ele>
        <time>2021-06-25T16:03:18.000Z</time>
        <extensions>
          <ns3:TrackPointExtension>
            <ns3:atemp>26.0</ns3:atemp>
            <ns3:hr>121</ns3:hr>
          </ns3:TrackPointExtension>
        </extensions>
      </trkpt>
      <trkpt lat="36.76757491193711757659912109375" lon="-118.41185110621154308319091796875">
        <ele>3191.60009765625</ele>
        <time>2021-06-25T16:03:21.000Z</time>
        <extensions>
          <ns3:TrackPointExtension>
            <ns3:atemp>26.0</ns3:atemp>
            <ns3:hr>121</ns3:hr>
          </ns3:TrackPointExtension>
        </extensions>
      </trkpt>
      <trkpt lat="36.76762528717517852783203125" lon="-118.41183182783424854278564453125">
        <ele>3192</ele>
        <time>2021-06-25T16:03:25.000Z</time>
        <extensions>
          <ns3:TrackPointExtension>
            <ns3:atemp>26.0</ns3:atemp>
            <ns3:hr>121</ns3:hr>
          </ns3:TrackPointExtension>
        </extensions>
      </trkpt>
      <trkpt lat="36.7676894925534725189208984375" lon="-118.4118225239217281341552734375">
        <ele>3192.60009765625</ele>
        <time>2021-06-25T16:03:31.000Z</time>
        <extensions>
          <ns3:TrackPointExtension>
            <ns3:atemp>26.0</ns3:atemp>
            <ns3:hr>121</ns3:hr>
          </ns3:TrackPointExtension>
        </extensions>
      </trkpt>
      <trkpt lat="36.7677072621881961822509765625" lon="-118.4118225239217281341552734375">
        <ele>3193.39990234375</ele>
        <time>2021-06-25T16:03:33.000Z</time>
        <extensions>
          <ns3:TrackPointExtension>
            <ns3:atemp>26.0</ns3:atemp>
            <ns3:hr>119</ns3:hr>
          </ns3:TrackPointExtension>
        </extensions>
      </trkpt>
      <trkpt lat="36.767734587192535400390625" lon="-118.41181598603725433349609375">
        <ele>3194</ele>
        <time>2021-06-25T16:03:37.000Z</time>
        <extensions>
          <ns3:TrackPointExtension>
            <ns3:atemp>26.0</ns3:atemp>
            <ns3:hr>119</ns3:hr>
          </ns3:TrackPointExtension>
        </extensions>
      </trkpt>
      <trkpt lat="36.76774238236248493194580078125" lon="-118.411818332970142364501953125">
        <ele>3194</ele>
        <time>2021-06-25T16:03:38.000Z</time>
        <extensions>
          <ns3:TrackPointExtension>
            <ns3:atemp>26.0</ns3:atemp>
            <ns3:hr>119</ns3:hr>
          </ns3:TrackPointExtension>
        </extensions>
      </trkpt>
      <trkpt lat="36.767782531678676605224609375" lon="-118.411800563335418701171875">
        <ele>3194</ele>
        <time>2021-06-25T16:03:41.000Z</time>
        <extensions>
          <ns3:TrackPointExtension>
            <ns3:atemp>26.0</ns3:atemp>
            <ns3:hr>118</ns3:hr>
          </ns3:TrackPointExtension>
        </extensions>
      </trkpt>
      <trkpt lat="36.76781496964395046234130859375" lon="-118.4117750823497772216796875">
        <ele>3195</ele>
        <time>2021-06-25T16:03:45.000Z</time>
        <extensions>
          <ns3:TrackPointExtension>
            <ns3:atemp>25.0</ns3:atemp>
            <ns3:hr>117</ns3:hr>
          </ns3:TrackPointExtension>
        </extensions>
      </trkpt>
      <trkpt lat="36.76782955415546894073486328125" lon="-118.41174733825027942657470703125">
        <ele>3195.39990234375</ele>
        <time>2021-06-25T16:03:47.000Z</time>
        <extensions>
          <ns3:TrackPointExtension>
            <ns3:atemp>25.0</ns3:atemp>
            <ns3:hr>117</ns3:hr>
          </ns3:TrackPointExtension>
        </extensions>
      </trkpt>
      <trkpt lat="36.767879426479339599609375" lon="-118.4117021597921848297119140625">
        <ele>3196</ele>
        <time>2021-06-25T16:03:52.000Z</time>
        <extensions>
          <ns3:TrackPointExtension>
            <ns3:atemp>25.0</ns3:atemp>
            <ns3:hr>117</ns3:hr>
          </ns3:TrackPointExtension>
        </extensions>
      </trkpt>
      <trkpt lat="36.76788412034511566162109375" lon="-118.41169788502156734466552734375">
        <ele>3196</ele>
        <time>2021-06-25T16:03:54.000Z</time>
        <extensions>
          <ns3:TrackPointExtension>
            <ns3:atemp>25.0</ns3:atemp>
            <ns3:hr>116</ns3:hr>
          </ns3:TrackPointExtension>
        </extensions>
      </trkpt>
      <trkpt lat="36.76789862103760242462158203125" lon="-118.411694951355457305908203125">
        <ele>3196.39990234375</ele>
        <time>2021-06-25T16:03:56.000Z</time>
        <extensions>
          <ns3:TrackPointExtension>
            <ns3:atemp>25.0</ns3:atemp>
            <ns3:hr>116</ns3:hr>
          </ns3:TrackPointExtension>
        </extensions>
      </trkpt>
      <trkpt lat="36.7679183185100555419921875" lon="-118.411676846444606781005859375">
        <ele>3196.800048828125</ele>
        <time>2021-06-25T16:03:59.000Z</time>
        <extensions>
          <ns3:TrackPointExtension>
            <ns3:atemp>25.0</ns3:atemp>
            <ns3:hr>119</ns3:hr>
          </ns3:TrackPointExtension>
        </extensions>
      </trkpt>
      <trkpt lat="36.76793508231639862060546875" lon="-118.41165631078183650970458984375">
        <ele>3197</ele>
        <time>2021-06-25T16:04:02.000Z</time>
        <extensions>
          <ns3:TrackPointExtension>
            <ns3:atemp>26.0</ns3:atemp>
            <ns3:hr>118</ns3:hr>
          </ns3:TrackPointExtension>
        </extensions>
      </trkpt>
      <trkpt lat="36.76796282641589641571044921875" lon="-118.41162429191172122955322265625">
        <ele>3197.800048828125</ele>
        <time>2021-06-25T16:04:07.000Z</time>
        <extensions>
          <ns3:TrackPointExtension>
            <ns3:atemp>25.0</ns3:atemp>
            <ns3:hr>117</ns3:hr>
          </ns3:TrackPointExtension>
        </extensions>
      </trkpt>
      <trkpt lat="36.76797556690871715545654296875" lon="-118.41162513010203838348388671875">
        <ele>3198.199951171875</ele>
        <time>2021-06-25T16:04:09.000Z</time>
        <extensions>
          <ns3:TrackPointExtension>
            <ns3:atemp>25.0</ns3:atemp>
            <ns3:hr>117</ns3:hr>
          </ns3:TrackPointExtension>
        </extensions>
      </trkpt>
      <trkpt lat="36.76798738539218902587890625" lon="-118.41162948869168758392333984375">
        <ele>3198.39990234375</ele>
        <time>2021-06-25T16:04:11.000Z</time>
        <extensions>
          <ns3:TrackPointExtension>
            <ns3:atemp>25.0</ns3:atemp>
            <ns3:hr>117</ns3:hr>
          </ns3:TrackPointExtension>
        </extensions>
      </trkpt>
      <trkpt lat="36.76801957190036773681640625" lon="-118.41164373792707920074462890625">
        <ele>3199.199951171875</ele>
        <time>2021-06-25T16:04:18.000Z</time>
        <extensions>
          <ns3:TrackPointExtension>
            <ns3:atemp>25.0</ns3:atemp>
            <ns3:hr>116</ns3:hr>
          </ns3:TrackPointExtension>
        </extensions>
      </trkpt>
      <trkpt lat="36.76802535541355609893798828125" lon="-118.41163904406130313873291015625">
        <ele>3199.39990234375</ele>
        <time>2021-06-25T16:04:19.000Z</time>
        <extensions>
          <ns3:TrackPointExtension>
            <ns3:atemp>25.0</ns3:atemp>
            <ns3:hr>115</ns3:hr>
          </ns3:TrackPointExtension>
        </extensions>
      </trkpt>
      <trkpt lat="36.7680308036506175994873046875" lon="-118.41163300909101963043212890625">
        <ele>3199.60009765625</ele>
        <time>2021-06-25T16:04:20.000Z</time>
        <extensions>
          <ns3:TrackPointExtension>
            <ns3:atemp>25.0</ns3:atemp>
            <ns3:hr>115</ns3:hr>
          </ns3:TrackPointExtension>
        </extensions>
      </trkpt>
      <trkpt lat="36.76804899238049983978271484375" lon="-118.41160551644861698150634765625">
        <ele>3200</ele>
        <time>2021-06-25T16:04:25.000Z</time>
        <extensions>
          <ns3:TrackPointExtension>
            <ns3:atemp>25.0</ns3:atemp>
            <ns3:hr>116</ns3:hr>
          </ns3:TrackPointExtension>
        </extensions>
      </trkpt>
      <trkpt lat="36.7680566199123859405517578125" lon="-118.41160316951572895050048828125">
        <ele>3200.199951171875</ele>
        <time>2021-06-25T16:04:26.000Z</time>
        <extensions>
          <ns3:TrackPointExtension>
            <ns3:atemp>25.0</ns3:atemp>
            <ns3:hr>115</ns3:hr>
          </ns3:TrackPointExtension>
        </extensions>
      </trkpt>
      <trkpt lat="36.7680696956813335418701171875" lon="-118.41158539988100528717041015625">
        <ele>3200.39990234375</ele>
        <time>2021-06-25T16:04:28.000Z</time>
        <extensions>
          <ns3:TrackPointExtension>
            <ns3:atemp>25.0</ns3:atemp>
            <ns3:hr>116</ns3:hr>
          </ns3:TrackPointExtension>
        </extensions>
      </trkpt>
      <trkpt lat="36.7680841125547885894775390625" lon="-118.41155983507633209228515625">
        <ele>3200.60009765625</ele>
        <time>2021-06-25T16:04:30.000Z</time>
        <extensions>
          <ns3:TrackPointExtension>
            <ns3:atemp>25.0</ns3:atemp>
            <ns3:hr>114</ns3:hr>
          </ns3:TrackPointExtension>
        </extensions>
      </trkpt>
      <trkpt lat="36.76809174008667469024658203125" lon="-118.4115408919751644134521484375">
        <ele>3201</ele>
        <time>2021-06-25T16:04:32.000Z</time>
        <extensions>
          <ns3:TrackPointExtension>
            <ns3:atemp>25.0</ns3:atemp>
            <ns3:hr>116</ns3:hr>
          </ns3:TrackPointExtension>
        </extensions>
      </trkpt>
      <trkpt lat="36.768104396760463714599609375" lon="-118.41152857057750225067138671875">
        <ele>3201.199951171875</ele>
        <time>2021-06-25T16:04:34.000Z</time>
        <extensions>
          <ns3:TrackPointExtension>
            <ns3:atemp>25.0</ns3:atemp>
            <ns3:hr>116</ns3:hr>
          </ns3:TrackPointExtension>
        </extensions>
      </trkpt>
      <trkpt lat="36.76811068318784236907958984375" lon="-118.4115180931985378265380859375">
        <ele>3201.39990234375</ele>
        <time>2021-06-25T16:04:36.000Z</time>
        <extensions>
          <ns3:TrackPointExtension>
            <ns3:atemp>25.0</ns3:atemp>
            <ns3:hr>116</ns3:hr>
          </ns3:TrackPointExtension>
        </extensions>
      </trkpt>
      <trkpt lat="36.768116466701030731201171875" lon="-118.411517255008220672607421875">
        <ele>3201.39990234375</ele>
        <time>2021-06-25T16:04:37.000Z</time>
        <extensions>
          <ns3:TrackPointExtension>
            <ns3:atemp>25.0</ns3:atemp>
            <ns3:hr>117</ns3:hr>
          </ns3:TrackPointExtension>
        </extensions>
      </trkpt>
      <trkpt lat="36.76812510006129741668701171875" lon="-118.41151767410337924957275390625">
        <ele>3201.60009765625</ele>
        <time>2021-06-25T16:04:40.000Z</time>
        <extensions>
          <ns3:TrackPointExtension>
            <ns3:atemp>25.0</ns3:atemp>
            <ns3:hr>118</ns3:hr>
          </ns3:TrackPointExtension>
        </extensions>
      </trkpt>
      <trkpt lat="36.7681427858769893646240234375" lon="-118.41152773238718509674072265625">
        <ele>3202</ele>
        <time>2021-06-25T16:04:42.000Z</time>
        <extensions>
          <ns3:TrackPointExtension>
            <ns3:atemp>25.0</ns3:atemp>
            <ns3:hr>119</ns3:hr>
          </ns3:TrackPointExtension>
        </extensions>
      </trkpt>
      <trkpt lat="36.768150664865970611572265625" lon="-118.41152555309236049652099609375">
        <ele>3202</ele>
        <time>2021-06-25T16:04:43.000Z</time>
        <extensions>
          <ns3:TrackPointExtension>
            <ns3:atemp>25.0</ns3:atemp>
            <ns3:hr>119</ns3:hr>
          </ns3:TrackPointExtension>
        </extensions>
      </trkpt>
      <trkpt lat="36.76815368235111236572265625" lon="-118.41151080094277858734130859375">
        <ele>3202.60009765625</ele>
        <time>2021-06-25T16:04:46.000Z</time>
        <extensions>
          <ns3:TrackPointExtension>
            <ns3:atemp>25.0</ns3:atemp>
            <ns3:hr>119</ns3:hr>
          </ns3:TrackPointExtension>
        </extensions>
      </trkpt>
      <trkpt lat="36.76816885359585285186767578125" lon="-118.4115023352205753326416015625">
        <ele>3202.60009765625</ele>
        <time>2021-06-25T16:04:49.000Z</time>
        <extensions>
          <ns3:TrackPointExtension>
            <ns3:atemp>25.0</ns3:atemp>
            <ns3:hr>120</ns3:hr>
          </ns3:TrackPointExtension>
        </extensions>
      </trkpt>
      <trkpt lat="36.7681823484599590301513671875" lon="-118.41148347593843936920166015625">
        <ele>3202.39990234375</ele>
        <time>2021-06-25T16:04:56.000Z</time>
        <extensions>
          <ns3:TrackPointExtension>
            <ns3:atemp>25.0</ns3:atemp>
            <ns3:hr>119</ns3:hr>
          </ns3:TrackPointExtension>
        </extensions>
      </trkpt>
      <trkpt lat="36.768179498612880706787109375" lon="-118.41146461665630340576171875">
        <ele>3202.800048828125</ele>
        <time>2021-06-25T16:05:00.000Z</time>
        <extensions>
          <ns3:TrackPointExtension>
            <ns3:atemp>26.0</ns3:atemp>
            <ns3:hr>116</ns3:hr>
          </ns3:TrackPointExtension>
        </extensions>
      </trkpt>
      <trkpt lat="36.76817606203258037567138671875" lon="-118.41146319173276424407958984375">
        <ele>3202.800048828125</ele>
        <time>2021-06-25T16:05:03.000Z</time>
        <extensions>
          <ns3:TrackPointExtension>
            <ns3:atemp>26.0</ns3:atemp>
            <ns3:hr>114</ns3:hr>
          </ns3:TrackPointExtension>
        </extensions>
      </trkpt>
      <trkpt lat="36.76817606203258037567138671875" lon="-118.41146319173276424407958984375">
        <ele>3202.60009765625</ele>
        <time>2021-06-25T16:05:05.000Z</time>
        <extensions>
          <ns3:TrackPointExtension>
            <ns3:atemp>26.0</ns3:atemp>
            <ns3:hr>111</ns3:hr>
          </ns3:TrackPointExtension>
        </extensions>
      </trkpt>
      <trkpt lat="36.76817606203258037567138671875" lon="-118.41146319173276424407958984375">
        <ele>3202.60009765625</ele>
        <time>2021-06-25T16:05:08.000Z</time>
        <extensions>
          <ns3:TrackPointExtension>
            <ns3:atemp>26.0</ns3:atemp>
            <ns3:hr>108</ns3:hr>
          </ns3:TrackPointExtension>
        </extensions>
      </trkpt>
      <trkpt lat="36.76817606203258037567138671875" lon="-118.41146319173276424407958984375">
        <ele>3202.60009765625</ele>
        <time>2021-06-25T16:05:12.000Z</time>
        <extensions>
          <ns3:TrackPointExtension>
            <ns3:atemp>26.0</ns3:atemp>
            <ns3:hr>105</ns3:hr>
          </ns3:TrackPointExtension>
        </extensions>
      </trkpt>
      <trkpt lat="36.76817891187965869903564453125" lon="-118.411460928618907928466796875">
        <ele>3202.60009765625</ele>
        <time>2021-06-25T16:05:19.000Z</time>
        <extensions>
          <ns3:TrackPointExtension>
            <ns3:atemp>26.0</ns3:atemp>
            <ns3:hr>102</ns3:hr>
          </ns3:TrackPointExtension>
        </extensions>
      </trkpt>
      <trkpt lat="36.768179498612880706787109375" lon="-118.41144726611673831939697265625">
        <ele>3202.39990234375</ele>
        <time>2021-06-25T16:05:24.000Z</time>
        <extensions>
          <ns3:TrackPointExtension>
            <ns3:atemp>26.0</ns3:atemp>
            <ns3:hr>99</ns3:hr>
          </ns3:TrackPointExtension>
        </extensions>
      </trkpt>
      <trkpt lat="36.76817941479384899139404296875" lon="-118.41142748482525348663330078125">
        <ele>3201.60009765625</ele>
        <time>2021-06-25T16:05:30.000Z</time>
        <extensions>
          <ns3:TrackPointExtension>
            <ns3:atemp>26.0</ns3:atemp>
            <ns3:hr>98</ns3:hr>
          </ns3:TrackPointExtension>
        </extensions>
      </trkpt>
      <trkpt lat="36.76818042062222957611083984375" lon="-118.41142547316849231719970703125">
        <ele>3202.199951171875</ele>
        <time>2021-06-25T16:05:39.000Z</time>
        <extensions>
          <ns3:TrackPointExtension>
            <ns3:atemp>26.0</ns3:atemp>
            <ns3:hr>95</ns3:hr>
          </ns3:TrackPointExtension>
        </extensions>
      </trkpt>
      <trkpt lat="36.76815644837915897369384765625" lon="-118.4114215336740016937255859375">
        <ele>3202.199951171875</ele>
        <time>2021-06-25T16:05:56.000Z</time>
        <extensions>
          <ns3:TrackPointExtension>
            <ns3:atemp>26.0</ns3:atemp>
            <ns3:hr>92</ns3:hr>
          </ns3:TrackPointExtension>
        </extensions>
      </trkpt>
      <trkpt lat="36.76815644837915897369384765625" lon="-118.41142346151173114776611328125">
        <ele>3202.199951171875</ele>
        <time>2021-06-25T16:05:58.000Z</time>
        <extensions>
          <ns3:TrackPointExtension>
            <ns3:atemp>26.0</ns3:atemp>
            <ns3:hr>89</ns3:hr>
          </ns3:TrackPointExtension>
        </extensions>
      </trkpt>
      <trkpt lat="36.76815628074109554290771484375" lon="-118.41142513789236545562744140625">
        <ele>3202.199951171875</ele>
        <time>2021-06-25T16:06:00.000Z</time>
        <extensions>
          <ns3:TrackPointExtension>
            <ns3:atemp>26.0</ns3:atemp>
            <ns3:hr>86</ns3:hr>
          </ns3:TrackPointExtension>
        </extensions>
      </trkpt>
      <trkpt lat="36.76815628074109554290771484375" lon="-118.41142631135880947113037109375">
        <ele>3202.199951171875</ele>
        <time>2021-06-25T16:06:02.000Z</time>
        <extensions>
          <ns3:TrackPointExtension>
            <ns3:atemp>26.0</ns3:atemp>
            <ns3:hr>83</ns3:hr>
          </ns3:TrackPointExtension>
        </extensions>
      </trkpt>
      <trkpt lat="36.76815644837915897369384765625" lon="-118.4114473499357700347900390625">
        <ele>3202.199951171875</ele>
        <time>2021-06-25T16:06:15.000Z</time>
        <extensions>
          <ns3:TrackPointExtension>
            <ns3:atemp>26.0</ns3:atemp>
            <ns3:hr>86</ns3:hr>
          </ns3:TrackPointExtension>
        </extensions>
      </trkpt>
      <trkpt lat="36.76815644837915897369384765625" lon="-118.411450199782848358154296875">
        <ele>3202.199951171875</ele>
        <time>2021-06-25T16:06:19.000Z</time>
        <extensions>
          <ns3:TrackPointExtension>
            <ns3:atemp>26.0</ns3:atemp>
            <ns3:hr>89</ns3:hr>
          </ns3:TrackPointExtension>
        </extensions>
      </trkpt>
      <trkpt lat="36.7681454680860042572021484375" lon="-118.411455564200878143310546875">
        <ele>3202</ele>
        <time>2021-06-25T16:06:40.000Z</time>
        <extensions>
          <ns3:TrackPointExtension>
            <ns3:atemp>27.0</ns3:atemp>
            <ns3:hr>86</ns3:hr>
          </ns3:TrackPointExtension>
        </extensions>
      </trkpt>
      <trkpt lat="36.76814437843859195709228515625" lon="-118.411450870335102081298828125">
        <ele>3202</ele>
        <time>2021-06-25T16:06:49.000Z</time>
        <extensions>
          <ns3:TrackPointExtension>
            <ns3:atemp>27.0</ns3:atemp>
            <ns3:hr>83</ns3:hr>
          </ns3:TrackPointExtension>
        </extensions>
      </trkpt>
      <trkpt lat="36.76812996156513690948486328125" lon="-118.41143117286264896392822265625">
        <ele>3202.199951171875</ele>
        <time>2021-06-25T16:06:58.000Z</time>
        <extensions>
          <ns3:TrackPointExtension>
            <ns3:atemp>27.0</ns3:atemp>
            <ns3:hr>80</ns3:hr>
          </ns3:TrackPointExtension>
        </extensions>
      </trkpt>
      <trkpt lat="36.768126189708709716796875" lon="-118.41140829026699066162109375">
        <ele>3202.199951171875</ele>
        <time>2021-06-25T16:07:18.000Z</time>
        <extensions>
          <ns3:TrackPointExtension>
            <ns3:atemp>27.0</ns3:atemp>
            <ns3:hr>83</ns3:hr>
          </ns3:TrackPointExtension>
        </extensions>
      </trkpt>
      <trkpt lat="36.768127195537090301513671875" lon="-118.4114044345915317535400390625">
        <ele>3202.199951171875</ele>
        <time>2021-06-25T16:07:20.000Z</time>
        <extensions>
          <ns3:TrackPointExtension>
            <ns3:atemp>27.0</ns3:atemp>
            <ns3:hr>79</ns3:hr>
          </ns3:TrackPointExtension>
        </extensions>
      </trkpt>
      <trkpt lat="36.76812761463224887847900390625" lon="-118.41139915399253368377685546875">
        <ele>3202.199951171875</ele>
        <time>2021-06-25T16:07:22.000Z</time>
        <extensions>
          <ns3:TrackPointExtension>
            <ns3:atemp>27.0</ns3:atemp>
            <ns3:hr>82</ns3:hr>
          </ns3:TrackPointExtension>
        </extensions>
      </trkpt>
      <trkpt lat="36.76812459714710712432861328125" lon="-118.4113826416432857513427734375">
        <ele>3202.199951171875</ele>
        <time>2021-06-25T16:07:31.000Z</time>
        <extensions>
          <ns3:TrackPointExtension>
            <ns3:atemp>27.0</ns3:atemp>
            <ns3:hr>81</ns3:hr>
          </ns3:TrackPointExtension>
        </extensions>
      </trkpt>
      <trkpt lat="36.7681216634809970855712890625" lon="-118.41136981733143329620361328125">
        <ele>3202.199951171875</ele>
        <time>2021-06-25T16:07:36.000Z</time>
        <extensions>
          <ns3:TrackPointExtension>
            <ns3:atemp>27.0</ns3:atemp>
            <ns3:hr>85</ns3:hr>
          </ns3:TrackPointExtension>
        </extensions>
      </trkpt>
      <trkpt lat="36.768120490014553070068359375" lon="-118.41136612929403781890869140625">
        <ele>3202.199951171875</ele>
        <time>2021-06-25T16:07:43.000Z</time>
        <extensions>
          <ns3:TrackPointExtension>
            <ns3:atemp>27.0</ns3:atemp>
            <ns3:hr>88</ns3:hr>
          </ns3:TrackPointExtension>
        </extensions>
      </trkpt>
      <trkpt lat="36.76812149584293365478515625" lon="-118.411365710198879241943359375">
        <ele>3202.199951171875</ele>
        <time>2021-06-25T16:07:46.000Z</time>
        <extensions>
          <ns3:TrackPointExtension>
            <ns3:atemp>27.0</ns3:atemp>
            <ns3:hr>91</ns3:hr>
          </ns3:TrackPointExtension>
        </extensions>
      </trkpt>
      <trkpt lat="36.76812241785228252410888671875" lon="-118.4114034287631511688232421875">
        <ele>3202.199951171875</ele>
        <time>2021-06-25T16:08:21.000Z</time>
        <extensions>
          <ns3:TrackPointExtension>
            <ns3:atemp>27.0</ns3:atemp>
            <ns3:hr>88</ns3:hr>
          </ns3:TrackPointExtension>
        </extensions>
      </trkpt>
      <trkpt lat="36.76812225021421909332275390625" lon="-118.41140384785830974578857421875">
        <ele>3202.199951171875</ele>
        <time>2021-06-25T16:08:26.000Z</time>
        <extensions>
          <ns3:TrackPointExtension>
            <ns3:atemp>27.0</ns3:atemp>
            <ns3:hr>85</ns3:hr>
          </ns3:TrackPointExtension>
        </extensions>
      </trkpt>
      <trkpt lat="36.768121831119060516357421875" lon="-118.41140518896281719207763671875">
        <ele>3202.199951171875</ele>
        <time>2021-06-25T16:08:40.000Z</time>
        <extensions>
          <ns3:TrackPointExtension>
            <ns3:atemp>27.0</ns3:atemp>
            <ns3:hr>82</ns3:hr>
          </ns3:TrackPointExtension>
        </extensions>
      </trkpt>
      <trkpt lat="36.76812174730002880096435546875" lon="-118.41140552423894405364990234375">
        <ele>3202.199951171875</ele>
        <time>2021-06-25T16:08:44.000Z</time>
        <extensions>
          <ns3:TrackPointExtension>
            <ns3:atemp>27.0</ns3:atemp>
            <ns3:hr>79</ns3:hr>
          </ns3:TrackPointExtension>
        </extensions>
      </trkpt>
      <trkpt lat="36.76812157966196537017822265625" lon="-118.41140636242926120758056640625">
        <ele>3202.199951171875</ele>
        <time>2021-06-25T16:08:52.000Z</time>
        <extensions>
          <ns3:TrackPointExtension>
            <ns3:atemp>27.0</ns3:atemp>
            <ns3:hr>82</ns3:hr>
          </ns3:TrackPointExtension>
        </extensions>
      </trkpt>
      <trkpt lat="36.76812141202390193939208984375" lon="-118.4114076197147369384765625">
        <ele>3202.199951171875</ele>
        <time>2021-06-25T16:09:02.000Z</time>
        <extensions>
          <ns3:TrackPointExtension>
            <ns3:atemp>27.0</ns3:atemp>
            <ns3:hr>78</ns3:hr>
          </ns3:TrackPointExtension>
        </extensions>
      </trkpt>
      <trkpt lat="36.76812141202390193939208984375" lon="-118.41140787117183208465576171875">
        <ele>3202.199951171875</ele>
        <time>2021-06-25T16:09:04.000Z</time>
        <extensions>
          <ns3:TrackPointExtension>
            <ns3:atemp>27.0</ns3:atemp>
            <ns3:hr>75</ns3:hr>
          </ns3:TrackPointExtension>
        </extensions>
      </trkpt>
      <trkpt lat="36.7681763134896755218505859375" lon="-118.41153762303292751312255859375">
        <ele>3202.199951171875</ele>
        <time>2021-06-25T16:09:12.000Z</time>
        <extensions>
          <ns3:TrackPointExtension>
            <ns3:atemp>27.0</ns3:atemp>
            <ns3:hr>73</ns3:hr>
          </ns3:TrackPointExtension>
        </extensions>
      </trkpt>
      <trkpt lat="36.76823724992573261260986328125" lon="-118.41164776124060153961181640625">
        <ele>3202.60009765625</ele>
        <time>2021-06-25T16:09:19.000Z</time>
        <extensions>
          <ns3:TrackPointExtension>
            <ns3:atemp>27.0</ns3:atemp>
            <ns3:hr>73</ns3:hr>
          </ns3:TrackPointExtension>
        </extensions>
      </trkpt>
      <trkpt lat="36.768235825002193450927734375" lon="-118.41166041791439056396484375">
        <ele>3202.60009765625</ele>
        <time>2021-06-25T16:09:22.000Z</time>
        <extensions>
          <ns3:TrackPointExtension>
            <ns3:atemp>27.0</ns3:atemp>
            <ns3:hr>79</ns3:hr>
          </ns3:TrackPointExtension>
        </extensions>
      </trkpt>
      <trkpt lat="36.7682386748492717742919921875" lon="-118.41167592443525791168212890625">
        <ele>3203.199951171875</ele>
        <time>2021-06-25T16:09:24.000Z</time>
        <extensions>
          <ns3:TrackPointExtension>
            <ns3:atemp>27.0</ns3:atemp>
            <ns3:hr>76</ns3:hr>
          </ns3:TrackPointExtension>
        </extensions>
      </trkpt>
      <trkpt lat="36.768245212733745574951171875" lon="-118.4116897545754909515380859375">
        <ele>3203.199951171875</ele>
        <time>2021-06-25T16:09:26.000Z</time>
        <extensions>
          <ns3:TrackPointExtension>
            <ns3:atemp>27.0</ns3:atemp>
            <ns3:hr>79</ns3:hr>
          </ns3:TrackPointExtension>
        </extensions>
      </trkpt>
      <trkpt lat="36.76825082860887050628662109375" lon="-118.4117053449153900146484375">
        <ele>3203.39990234375</ele>
        <time>2021-06-25T16:09:28.000Z</time>
        <extensions>
          <ns3:TrackPointExtension>
            <ns3:atemp>27.0</ns3:atemp>
            <ns3:hr>83</ns3:hr>
          </ns3:TrackPointExtension>
        </extensions>
      </trkpt>
      <trkpt lat="36.76826365292072296142578125" lon="-118.411720097064971923828125">
        <ele>3203.800048828125</ele>
        <time>2021-06-25T16:09:30.000Z</time>
        <extensions>
          <ns3:TrackPointExtension>
            <ns3:atemp>27.0</ns3:atemp>
            <ns3:hr>85</ns3:hr>
          </ns3:TrackPointExtension>
        </extensions>
      </trkpt>
      <trkpt lat="36.7682846076786518096923828125" lon="-118.4117239527404308319091796875">
        <ele>3204.199951171875</ele>
        <time>2021-06-25T16:09:33.000Z</time>
        <extensions>
          <ns3:TrackPointExtension>
            <ns3:atemp>27.0</ns3:atemp>
            <ns3:hr>89</ns3:hr>
          </ns3:TrackPointExtension>
        </extensions>
      </trkpt>
      <trkpt lat="36.7683000303804874420166015625" lon="-118.41172521002590656280517578125">
        <ele>3204.60009765625</ele>
        <time>2021-06-25T16:09:35.000Z</time>
        <extensions>
          <ns3:TrackPointExtension>
            <ns3:atemp>27.0</ns3:atemp>
            <ns3:hr>90</ns3:hr>
          </ns3:TrackPointExtension>
        </extensions>
      </trkpt>
      <trkpt lat="36.76830749027431011199951171875" lon="-118.41172085143625736236572265625">
        <ele>3204.800048828125</ele>
        <time>2021-06-25T16:09:36.000Z</time>
        <extensions>
          <ns3:TrackPointExtension>
            <ns3:atemp>27.0</ns3:atemp>
            <ns3:hr>92</ns3:hr>
          </ns3:TrackPointExtension>
        </extensions>
      </trkpt>
      <trkpt lat="36.7683637328445911407470703125" lon="-118.4117296524345874786376953125">
        <ele>3205.800048828125</ele>
        <time>2021-06-25T16:09:42.000Z</time>
        <extensions>
          <ns3:TrackPointExtension>
            <ns3:atemp>26.0</ns3:atemp>
            <ns3:hr>96</ns3:hr>
          </ns3:TrackPointExtension>
        </extensions>
      </trkpt>
      <trkpt lat="36.76839147694408893585205078125" lon="-118.4117536246776580810546875">
        <ele>3206</ele>
        <time>2021-06-25T16:09:45.000Z</time>
        <extensions>
          <ns3:TrackPointExtension>
            <ns3:atemp>26.0</ns3:atemp>
            <ns3:hr>99</ns3:hr>
          </ns3:TrackPointExtension>
        </extensions>
      </trkpt>
      <trkpt lat="36.7684022895991802215576171875" lon="-118.41176359914243221282958984375">
        <ele>3206</ele>
        <time>2021-06-25T16:09:47.000Z</time>
        <extensions>
          <ns3:TrackPointExtension>
            <ns3:atemp>26.0</ns3:atemp>
            <ns3:hr>101</ns3:hr>
          </ns3:TrackPointExtension>
        </extensions>
      </trkpt>
      <trkpt lat="36.7684167064726352691650390625" lon="-118.411782123148441314697265625">
        <ele>3206.199951171875</ele>
        <time>2021-06-25T16:09:50.000Z</time>
        <extensions>
          <ns3:TrackPointExtension>
            <ns3:atemp>26.0</ns3:atemp>
            <ns3:hr>104</ns3:hr>
          </ns3:TrackPointExtension>
        </extensions>
      </trkpt>
      <trkpt lat="36.768426932394504547119140625" lon="-118.4117980487644672393798828125">
        <ele>3206.199951171875</ele>
        <time>2021-06-25T16:09:52.000Z</time>
        <extensions>
          <ns3:TrackPointExtension>
            <ns3:atemp>26.0</ns3:atemp>
            <ns3:hr>108</ns3:hr>
          </ns3:TrackPointExtension>
        </extensions>
      </trkpt>
      <trkpt lat="36.7684388346970081329345703125" lon="-118.411810286343097686767578125">
        <ele>3206.60009765625</ele>
        <time>2021-06-25T16:09:54.000Z</time>
        <extensions>
          <ns3:TrackPointExtension>
            <ns3:atemp>26.0</ns3:atemp>
            <ns3:hr>111</ns3:hr>
          </ns3:TrackPointExtension>
        </extensions>
      </trkpt>
      <trkpt lat="36.7684472166001796722412109375" lon="-118.41180919669568538665771484375">
        <ele>3206.800048828125</ele>
        <time>2021-06-25T16:09:55.000Z</time>
        <extensions>
          <ns3:TrackPointExtension>
            <ns3:atemp>26.0</ns3:atemp>
            <ns3:hr>113</ns3:hr>
          </ns3:TrackPointExtension>
        </extensions>
      </trkpt>
      <trkpt lat="36.76846557296812534332275390625" lon="-118.41181539930403232574462890625">
        <ele>3206.800048828125</ele>
        <time>2021-06-25T16:09:57.000Z</time>
        <extensions>
          <ns3:TrackPointExtension>
            <ns3:atemp>26.0</ns3:atemp>
            <ns3:hr>115</ns3:hr>
          </ns3:TrackPointExtension>
        </extensions>
      </trkpt>
      <trkpt lat="36.76850010640919208526611328125" lon="-118.411843143403530120849609375">
        <ele>3208</ele>
        <time>2021-06-25T16:10:03.000Z</time>
        <extensions>
          <ns3:TrackPointExtension>
            <ns3:atemp>26.0</ns3:atemp>
            <ns3:hr>118</ns3:hr>
          </ns3:TrackPointExtension>
        </extensions>
      </trkpt>
      <trkpt lat="36.7685032077133655548095703125" lon="-118.4118537046015262603759765625">
        <ele>3208.199951171875</ele>
        <time>2021-06-25T16:10:04.000Z</time>
        <extensions>
          <ns3:TrackPointExtension>
            <ns3:atemp>26.0</ns3:atemp>
            <ns3:hr>118</ns3:hr>
          </ns3:TrackPointExtension>
        </extensions>
      </trkpt>
      <trkpt lat="36.768535561859607696533203125" lon="-118.41190692968666553497314453125">
        <ele>3209</ele>
        <time>2021-06-25T16:10:11.000Z</time>
        <extensions>
          <ns3:TrackPointExtension>
            <ns3:atemp>26.0</ns3:atemp>
            <ns3:hr>117</ns3:hr>
          </ns3:TrackPointExtension>
        </extensions>
      </trkpt>
      <trkpt lat="36.7685647308826446533203125" lon="-118.41192461550235748291015625">
        <ele>3209</ele>
        <time>2021-06-25T16:10:15.000Z</time>
        <extensions>
          <ns3:TrackPointExtension>
            <ns3:atemp>26.0</ns3:atemp>
            <ns3:hr>118</ns3:hr>
          </ns3:TrackPointExtension>
        </extensions>
      </trkpt>
      <trkpt lat="36.768581829965114593505859375" lon="-118.41193961910903453826904296875">
        <ele>3209.60009765625</ele>
        <time>2021-06-25T16:10:18.000Z</time>
        <extensions>
          <ns3:TrackPointExtension>
            <ns3:atemp>26.0</ns3:atemp>
            <ns3:hr>115</ns3:hr>
          </ns3:TrackPointExtension>
        </extensions>
      </trkpt>
      <trkpt lat="36.76860588602721691131591796875" lon="-118.41197834350168704986572265625">
        <ele>3210</ele>
        <time>2021-06-25T16:10:23.000Z</time>
        <extensions>
          <ns3:TrackPointExtension>
            <ns3:atemp>26.0</ns3:atemp>
            <ns3:hr>113</ns3:hr>
          </ns3:TrackPointExtension>
        </extensions>
      </trkpt>
      <trkpt lat="36.76861946471035480499267578125" lon="-118.41200114227831363677978515625">
        <ele>3210.39990234375</ele>
        <time>2021-06-25T16:10:26.000Z</time>
        <extensions>
          <ns3:TrackPointExtension>
            <ns3:atemp>26.0</ns3:atemp>
            <ns3:hr>112</ns3:hr>
          </ns3:TrackPointExtension>
        </extensions>
      </trkpt>
      <trkpt lat="36.7686265893280506134033203125" lon="-118.41201891191303730010986328125">
        <ele>3211</ele>
        <time>2021-06-25T16:10:29.000Z</time>
        <extensions>
          <ns3:TrackPointExtension>
            <ns3:atemp>26.0</ns3:atemp>
            <ns3:hr>110</ns3:hr>
          </ns3:TrackPointExtension>
        </extensions>
      </trkpt>
      <trkpt lat="36.76862935535609722137451171875" lon="-118.41201849281787872314453125">
        <ele>3211.199951171875</ele>
        <time>2021-06-25T16:10:30.000Z</time>
        <extensions>
          <ns3:TrackPointExtension>
            <ns3:atemp>26.0</ns3:atemp>
            <ns3:hr>109</ns3:hr>
          </ns3:TrackPointExtension>
        </extensions>
      </trkpt>
      <trkpt lat="36.768641509115695953369140625" lon="-118.41202226467430591583251953125">
        <ele>3211.800048828125</ele>
        <time>2021-06-25T16:10:33.000Z</time>
        <extensions>
          <ns3:TrackPointExtension>
            <ns3:atemp>26.0</ns3:atemp>
            <ns3:hr>109</ns3:hr>
          </ns3:TrackPointExtension>
        </extensions>
      </trkpt>
      <trkpt lat="36.7686527408659458160400390625" lon="-118.41203500516712665557861328125">
        <ele>3212.199951171875</ele>
        <time>2021-06-25T16:10:35.000Z</time>
        <extensions>
          <ns3:TrackPointExtension>
            <ns3:atemp>26.0</ns3:atemp>
            <ns3:hr>110</ns3:hr>
          </ns3:TrackPointExtension>
        </extensions>
      </trkpt>
      <trkpt lat="36.76871292293071746826171875" lon="-118.41204288415610790252685546875">
        <ele>3213</ele>
        <time>2021-06-25T16:10:41.000Z</time>
        <extensions>
          <ns3:TrackPointExtension>
            <ns3:atemp>26.0</ns3:atemp>
            <ns3:hr>110</ns3:hr>
          </ns3:TrackPointExtension>
        </extensions>
      </trkpt>
      <trkpt lat="36.7687684111297130584716796875" lon="-118.41204129159450531005859375">
        <ele>3213</ele>
        <time>2021-06-25T16:10:47.000Z</time>
        <extensions>
          <ns3:TrackPointExtension>
            <ns3:atemp>26.0</ns3:atemp>
            <ns3:hr>110</ns3:hr>
          </ns3:TrackPointExtension>
        </extensions>
      </trkpt>
      <trkpt lat="36.76879070699214935302734375" lon="-118.412032239139080047607421875">
        <ele>3213.39990234375</ele>
        <time>2021-06-25T16:10:50.000Z</time>
        <extensions>
          <ns3:TrackPointExtension>
            <ns3:atemp>26.0</ns3:atemp>
            <ns3:hr>108</ns3:hr>
          </ns3:TrackPointExtension>
        </extensions>
      </trkpt>
      <trkpt lat="36.76879783160984516143798828125" lon="-118.412029556930065155029296875">
        <ele>3213.60009765625</ele>
        <time>2021-06-25T16:10:51.000Z</time>
        <extensions>
          <ns3:TrackPointExtension>
            <ns3:atemp>26.0</ns3:atemp>
            <ns3:hr>108</ns3:hr>
          </ns3:TrackPointExtension>
        </extensions>
      </trkpt>
      <trkpt lat="36.7688639648258686065673828125" lon="-118.41200868599116802215576171875">
        <ele>3214</ele>
        <time>2021-06-25T16:10:59.000Z</time>
        <extensions>
          <ns3:TrackPointExtension>
            <ns3:atemp>26.0</ns3:atemp>
            <ns3:hr>110</ns3:hr>
          </ns3:TrackPointExtension>
        </extensions>
      </trkpt>
      <trkpt lat="36.76889204420149326324462890625" lon="-118.41200776398181915283203125">
        <ele>3214.60009765625</ele>
        <time>2021-06-25T16:11:03.000Z</time>
        <extensions>
          <ns3:TrackPointExtension>
            <ns3:atemp>26.0</ns3:atemp>
            <ns3:hr>110</ns3:hr>
          </ns3:TrackPointExtension>
        </extensions>
      </trkpt>
      <trkpt lat="36.768911071121692657470703125" lon="-118.41201287694275379180908203125">
        <ele>3215.39990234375</ele>
        <time>2021-06-25T16:11:06.000Z</time>
        <extensions>
          <ns3:TrackPointExtension>
            <ns3:atemp>26.0</ns3:atemp>
            <ns3:hr>110</ns3:hr>
          </ns3:TrackPointExtension>
        </extensions>
      </trkpt>
      <trkpt lat="36.76893948577344417572021484375" lon="-118.41199510730803012847900390625">
        <ele>3215.800048828125</ele>
        <time>2021-06-25T16:11:10.000Z</time>
        <extensions>
          <ns3:TrackPointExtension>
            <ns3:atemp>26.0</ns3:atemp>
            <ns3:hr>107</ns3:hr>
          </ns3:TrackPointExtension>
        </extensions>
      </trkpt>
      <trkpt lat="36.76898357458412647247314453125" lon="-118.41198094189167022705078125">
        <ele>3215.800048828125</ele>
        <time>2021-06-25T16:11:14.000Z</time>
        <extensions>
          <ns3:TrackPointExtension>
            <ns3:atemp>26.0</ns3:atemp>
            <ns3:hr>107</ns3:hr>
          </ns3:TrackPointExtension>
        </extensions>
      </trkpt>
      <trkpt lat="36.769002266228199005126953125" lon="-118.4119816124439239501953125">
        <ele>3215.800048828125</ele>
        <time>2021-06-25T16:11:16.000Z</time>
        <extensions>
          <ns3:TrackPointExtension>
            <ns3:atemp>26.0</ns3:atemp>
            <ns3:hr>110</ns3:hr>
          </ns3:TrackPointExtension>
        </extensions>
      </trkpt>
      <trkpt lat="36.7690493725240230560302734375" lon="-118.4119945205748081207275390625">
        <ele>3216.800048828125</ele>
        <time>2021-06-25T16:11:21.000Z</time>
        <extensions>
          <ns3:TrackPointExtension>
            <ns3:atemp>26.0</ns3:atemp>
            <ns3:hr>109</ns3:hr>
          </ns3:TrackPointExtension>
        </extensions>
      </trkpt>
      <trkpt lat="36.76905465312302112579345703125" lon="-118.41198370791971683502197265625">
        <ele>3216.800048828125</ele>
        <time>2021-06-25T16:11:22.000Z</time>
        <extensions>
          <ns3:TrackPointExtension>
            <ns3:atemp>26.0</ns3:atemp>
            <ns3:hr>109</ns3:hr>
          </ns3:TrackPointExtension>
        </extensions>
      </trkpt>
      <trkpt lat="36.76908767782151699066162109375" lon="-118.41196510009467601776123046875">
        <ele>3217.800048828125</ele>
        <time>2021-06-25T16:11:29.000Z</time>
        <extensions>
          <ns3:TrackPointExtension>
            <ns3:atemp>26.0</ns3:atemp>
            <ns3:hr>108</ns3:hr>
          </ns3:TrackPointExtension>
        </extensions>
      </trkpt>
      <trkpt lat="36.76910829730331897735595703125" lon="-118.411967866122722625732421875">
        <ele>3219</ele>
        <time>2021-06-25T16:11:34.000Z</time>
        <extensions>
          <ns3:TrackPointExtension>
            <ns3:atemp>26.0</ns3:atemp>
            <ns3:hr>107</ns3:hr>
          </ns3:TrackPointExtension>
        </extensions>
      </trkpt>
      <trkpt lat="36.76910460926592350006103515625" lon="-118.411963842809200286865234375">
        <ele>3219</ele>
        <time>2021-06-25T16:11:36.000Z</time>
        <extensions>
          <ns3:TrackPointExtension>
            <ns3:atemp>26.0</ns3:atemp>
            <ns3:hr>107</ns3:hr>
          </ns3:TrackPointExtension>
        </extensions>
      </trkpt>
      <trkpt lat="36.7691003344953060150146484375" lon="-118.41197180561721324920654296875">
        <ele>3219</ele>
        <time>2021-06-25T16:11:38.000Z</time>
        <extensions>
          <ns3:TrackPointExtension>
            <ns3:atemp>26.0</ns3:atemp>
            <ns3:hr>111</ns3:hr>
          </ns3:TrackPointExtension>
        </extensions>
      </trkpt>
      <trkpt lat="36.76909589208662509918212890625" lon="-118.41197423636913299560546875">
        <ele>3219</ele>
        <time>2021-06-25T16:11:39.000Z</time>
        <extensions>
          <ns3:TrackPointExtension>
            <ns3:atemp>26.0</ns3:atemp>
            <ns3:hr>107</ns3:hr>
          </ns3:TrackPointExtension>
        </extensions>
      </trkpt>
      <trkpt lat="36.7690587602555751800537109375" lon="-118.4119816124439239501953125">
        <ele>3219.800048828125</ele>
        <time>2021-06-25T16:11:44.000Z</time>
        <extensions>
          <ns3:TrackPointExtension>
            <ns3:atemp>26.0</ns3:atemp>
            <ns3:hr>106</ns3:hr>
          </ns3:TrackPointExtension>
        </extensions>
      </trkpt>
      <trkpt lat="36.76903386600315570831298828125" lon="-118.41202360577881336212158203125">
        <ele>3220</ele>
        <time>2021-06-25T16:11:48.000Z</time>
        <extensions>
          <ns3:TrackPointExtension>
            <ns3:atemp>26.0</ns3:atemp>
            <ns3:hr>106</ns3:hr>
          </ns3:TrackPointExtension>
        </extensions>
      </trkpt>
      <trkpt lat="36.76901400089263916015625" lon="-118.41204707510769367218017578125">
        <ele>3220</ele>
        <time>2021-06-25T16:11:52.000Z</time>
        <extensions>
          <ns3:TrackPointExtension>
            <ns3:atemp>26.0</ns3:atemp>
            <ns3:hr>104</ns3:hr>
          </ns3:TrackPointExtension>
        </extensions>
      </trkpt>
      <trkpt lat="36.768978126347064971923828125" lon="-118.4120808541774749755859375">
        <ele>3220.60009765625</ele>
        <time>2021-06-25T16:11:57.000Z</time>
        <extensions>
          <ns3:TrackPointExtension>
            <ns3:atemp>26.0</ns3:atemp>
            <ns3:hr>104</ns3:hr>
          </ns3:TrackPointExtension>
        </extensions>
      </trkpt>
      <trkpt lat="36.76894904114305973052978515625" lon="-118.41207892633974552154541015625">
        <ele>3221</ele>
        <time>2021-06-25T16:12:01.000Z</time>
        <extensions>
          <ns3:TrackPointExtension>
            <ns3:atemp>26.0</ns3:atemp>
            <ns3:hr>107</ns3:hr>
          </ns3:TrackPointExtension>
        </extensions>
      </trkpt>
      <trkpt lat="36.768934540450572967529296875" lon="-118.41210834681987762451171875">
        <ele>3221.39990234375</ele>
        <time>2021-06-25T16:12:05.000Z</time>
        <extensions>
          <ns3:TrackPointExtension>
            <ns3:atemp>26.0</ns3:atemp>
            <ns3:hr>108</ns3:hr>
          </ns3:TrackPointExtension>
        </extensions>
      </trkpt>
      <trkpt lat="36.76891417242586612701416015625" lon="-118.41213625855743885040283203125">
        <ele>3222.199951171875</ele>
        <time>2021-06-25T16:12:10.000Z</time>
        <extensions>
          <ns3:TrackPointExtension>
            <ns3:atemp>26.0</ns3:atemp>
            <ns3:hr>107</ns3:hr>
          </ns3:TrackPointExtension>
        </extensions>
      </trkpt>
      <trkpt lat="36.76890210248529911041259765625" lon="-118.412151597440242767333984375">
        <ele>3222.199951171875</ele>
        <time>2021-06-25T16:12:12.000Z</time>
        <extensions>
          <ns3:TrackPointExtension>
            <ns3:atemp>26.0</ns3:atemp>
            <ns3:hr>107</ns3:hr>
          </ns3:TrackPointExtension>
        </extensions>
      </trkpt>
      <trkpt lat="36.76889154128730297088623046875" lon="-118.412180431187152862548828125">
        <ele>3222.199951171875</ele>
        <time>2021-06-25T16:12:14.000Z</time>
        <extensions>
          <ns3:TrackPointExtension>
            <ns3:atemp>26.0</ns3:atemp>
            <ns3:hr>107</ns3:hr>
          </ns3:TrackPointExtension>
        </extensions>
      </trkpt>
      <trkpt lat="36.7688609473407268524169921875" lon="-118.41221689246594905853271484375">
        <ele>3222.60009765625</ele>
        <time>2021-06-25T16:12:19.000Z</time>
        <extensions>
          <ns3:TrackPointExtension>
            <ns3:atemp>26.0</ns3:atemp>
            <ns3:hr>105</ns3:hr>
          </ns3:TrackPointExtension>
        </extensions>
      </trkpt>
      <trkpt lat="36.76884460262954235076904296875" lon="-118.41224187053740024566650390625">
        <ele>3223.199951171875</ele>
        <time>2021-06-25T16:12:22.000Z</time>
        <extensions>
          <ns3:TrackPointExtension>
            <ns3:atemp>26.0</ns3:atemp>
            <ns3:hr>105</ns3:hr>
          </ns3:TrackPointExtension>
        </extensions>
      </trkpt>
      <trkpt lat="36.7688334546983242034912109375" lon="-118.412262909114360809326171875">
        <ele>3223.39990234375</ele>
        <time>2021-06-25T16:12:25.000Z</time>
        <extensions>
          <ns3:TrackPointExtension>
            <ns3:atemp>26.0</ns3:atemp>
            <ns3:hr>101</ns3:hr>
          </ns3:TrackPointExtension>
        </extensions>
      </trkpt>
      <trkpt lat="36.7688277550041675567626953125" lon="-118.41228310950100421905517578125">
        <ele>3223.60009765625</ele>
        <time>2021-06-25T16:12:27.000Z</time>
        <extensions>
          <ns3:TrackPointExtension>
            <ns3:atemp>26.0</ns3:atemp>
            <ns3:hr>105</ns3:hr>
          </ns3:TrackPointExtension>
        </extensions>
      </trkpt>
      <trkpt lat="36.7688321135938167572021484375" lon="-118.4122954308986663818359375">
        <ele>3223.60009765625</ele>
        <time>2021-06-25T16:12:28.000Z</time>
        <extensions>
          <ns3:TrackPointExtension>
            <ns3:atemp>26.0</ns3:atemp>
            <ns3:hr>105</ns3:hr>
          </ns3:TrackPointExtension>
        </extensions>
      </trkpt>
      <trkpt lat="36.76886002533137798309326171875" lon="-118.41231462545692920684814453125">
        <ele>3224</ele>
        <time>2021-06-25T16:12:31.000Z</time>
        <extensions>
          <ns3:TrackPointExtension>
            <ns3:atemp>26.0</ns3:atemp>
            <ns3:hr>108</ns3:hr>
          </ns3:TrackPointExtension>
        </extensions>
      </trkpt>
      <trkpt lat="36.7688974924385547637939453125" lon="-118.412337340414524078369140625">
        <ele>3224.199951171875</ele>
        <time>2021-06-25T16:12:34.000Z</time>
        <extensions>
          <ns3:TrackPointExtension>
            <ns3:atemp>26.0</ns3:atemp>
            <ns3:hr>109</ns3:hr>
          </ns3:TrackPointExtension>
        </extensions>
      </trkpt>
      <trkpt lat="36.76892473362386226654052734375" lon="-118.4123462252318859100341796875">
        <ele>3224.60009765625</ele>
        <time>2021-06-25T16:12:37.000Z</time>
        <extensions>
          <ns3:TrackPointExtension>
            <ns3:atemp>26.0</ns3:atemp>
            <ns3:hr>111</ns3:hr>
          </ns3:TrackPointExtension>
        </extensions>
      </trkpt>
      <trkpt lat="36.7689873464405536651611328125" lon="-118.4123499132692813873291015625">
        <ele>3225.199951171875</ele>
        <time>2021-06-25T16:12:41.000Z</time>
        <extensions>
          <ns3:TrackPointExtension>
            <ns3:atemp>26.0</ns3:atemp>
            <ns3:hr>114</ns3:hr>
          </ns3:TrackPointExtension>
        </extensions>
      </trkpt>
      <trkpt lat="36.7690017633140087127685546875" lon="-118.412368185818195343017578125">
        <ele>3225.199951171875</ele>
        <time>2021-06-25T16:12:43.000Z</time>
        <extensions>
          <ns3:TrackPointExtension>
            <ns3:atemp>26.0</ns3:atemp>
            <ns3:hr>115</ns3:hr>
          </ns3:TrackPointExtension>
        </extensions>
      </trkpt>
      <trkpt lat="36.76900955848395824432373046875" lon="-118.4123680181801319122314453125">
        <ele>3225.60009765625</ele>
        <time>2021-06-25T16:12:44.000Z</time>
        <extensions>
          <ns3:TrackPointExtension>
            <ns3:atemp>26.0</ns3:atemp>
            <ns3:hr>116</ns3:hr>
          </ns3:TrackPointExtension>
        </extensions>
      </trkpt>
      <trkpt lat="36.76902749575674533843994140625" lon="-118.41235242784023284912109375">
        <ele>3226</ele>
        <time>2021-06-25T16:12:47.000Z</time>
        <extensions>
          <ns3:TrackPointExtension>
            <ns3:atemp>26.0</ns3:atemp>
            <ns3:hr>119</ns3:hr>
          </ns3:TrackPointExtension>
        </extensions>
      </trkpt>
      <trkpt lat="36.7690319381654262542724609375" lon="-118.41235578060150146484375">
        <ele>3226.60009765625</ele>
        <time>2021-06-25T16:12:48.000Z</time>
        <extensions>
          <ns3:TrackPointExtension>
            <ns3:atemp>26.0</ns3:atemp>
            <ns3:hr>119</ns3:hr>
          </ns3:TrackPointExtension>
        </extensions>
      </trkpt>
      <trkpt lat="36.769064962863922119140625" lon="-118.41235619969666004180908203125">
        <ele>3227.60009765625</ele>
        <time>2021-06-25T16:12:55.000Z</time>
        <extensions>
          <ns3:TrackPointExtension>
            <ns3:atemp>26.0</ns3:atemp>
            <ns3:hr>118</ns3:hr>
          </ns3:TrackPointExtension>
        </extensions>
      </trkpt>
      <trkpt lat="36.76906756125390529632568359375" lon="-118.41235469095408916473388671875">
        <ele>3227.60009765625</ele>
        <time>2021-06-25T16:12:56.000Z</time>
        <extensions>
          <ns3:TrackPointExtension>
            <ns3:atemp>26.0</ns3:atemp>
            <ns3:hr>117</ns3:hr>
          </ns3:TrackPointExtension>
        </extensions>
      </trkpt>
      <trkpt lat="36.76909270696341991424560546875" lon="-118.41234245337545871734619140625">
        <ele>3228.39990234375</ele>
        <time>2021-06-25T16:13:00.000Z</time>
        <extensions>
          <ns3:TrackPointExtension>
            <ns3:atemp>26.0</ns3:atemp>
            <ns3:hr>114</ns3:hr>
          </ns3:TrackPointExtension>
        </extensions>
      </trkpt>
      <trkpt lat="36.76909656263887882232666015625" lon="-118.41233507730066776275634765625">
        <ele>3228.60009765625</ele>
        <time>2021-06-25T16:13:01.000Z</time>
        <extensions>
          <ns3:TrackPointExtension>
            <ns3:atemp>26.0</ns3:atemp>
            <ns3:hr>113</ns3:hr>
          </ns3:TrackPointExtension>
        </extensions>
      </trkpt>
      <trkpt lat="36.7691224627196788787841796875" lon="-118.41230507008731365203857421875">
        <ele>3228.60009765625</ele>
        <time>2021-06-25T16:13:03.000Z</time>
        <extensions>
          <ns3:TrackPointExtension>
            <ns3:atemp>26.0</ns3:atemp>
            <ns3:hr>111</ns3:hr>
          </ns3:TrackPointExtension>
        </extensions>
      </trkpt>
      <trkpt lat="36.7691467702388763427734375" lon="-118.4123007953166961669921875">
        <ele>3229.60009765625</ele>
        <time>2021-06-25T16:13:07.000Z</time>
        <extensions>
          <ns3:TrackPointExtension>
            <ns3:atemp>26.0</ns3:atemp>
            <ns3:hr>111</ns3:hr>
          </ns3:TrackPointExtension>
        </extensions>
      </trkpt>
      <trkpt lat="36.76914115436375141143798828125" lon="-118.41230171732604503631591796875">
        <ele>3229.60009765625</ele>
        <time>2021-06-25T16:13:09.000Z</time>
        <extensions>
          <ns3:TrackPointExtension>
            <ns3:atemp>26.0</ns3:atemp>
            <ns3:hr>111</ns3:hr>
          </ns3:TrackPointExtension>
        </extensions>
      </trkpt>
      <trkpt lat="36.76914115436375141143798828125" lon="-118.41230507008731365203857421875">
        <ele>3229.800048828125</ele>
        <time>2021-06-25T16:13:10.000Z</time>
        <extensions>
          <ns3:TrackPointExtension>
            <ns3:atemp>26.0</ns3:atemp>
            <ns3:hr>111</ns3:hr>
          </ns3:TrackPointExtension>
        </extensions>
      </trkpt>
      <trkpt lat="36.769129335880279541015625" lon="-118.4123244322836399078369140625">
        <ele>3230.800048828125</ele>
        <time>2021-06-25T16:13:15.000Z</time>
        <extensions>
          <ns3:TrackPointExtension>
            <ns3:atemp>26.0</ns3:atemp>
            <ns3:hr>111</ns3:hr>
          </ns3:TrackPointExtension>
        </extensions>
      </trkpt>
      <trkpt lat="36.76912288181483745574951171875" lon="-118.412327952682971954345703125">
        <ele>3231</ele>
        <time>2021-06-25T16:13:17.000Z</time>
        <extensions>
          <ns3:TrackPointExtension>
            <ns3:atemp>26.0</ns3:atemp>
            <ns3:hr>112</ns3:hr>
          </ns3:TrackPointExtension>
        </extensions>
      </trkpt>
      <trkpt lat="36.76908482797443866729736328125" lon="-118.4123546071350574493408203125">
        <ele>3232.199951171875</ele>
        <time>2021-06-25T16:13:24.000Z</time>
        <extensions>
          <ns3:TrackPointExtension>
            <ns3:atemp>26.0</ns3:atemp>
            <ns3:hr>114</ns3:hr>
          </ns3:TrackPointExtension>
        </extensions>
      </trkpt>
      <trkpt lat="36.7690765298902988433837890625" lon="-118.41236944310367107391357421875">
        <ele>3232.39990234375</ele>
        <time>2021-06-25T16:13:26.000Z</time>
        <extensions>
          <ns3:TrackPointExtension>
            <ns3:atemp>26.0</ns3:atemp>
            <ns3:hr>115</ns3:hr>
          </ns3:TrackPointExtension>
        </extensions>
      </trkpt>
      <trkpt lat="36.76906906999647617340087890625" lon="-118.412384949624538421630859375">
        <ele>3232.39990234375</ele>
        <time>2021-06-25T16:13:28.000Z</time>
        <extensions>
          <ns3:TrackPointExtension>
            <ns3:atemp>26.0</ns3:atemp>
            <ns3:hr>116</ns3:hr>
          </ns3:TrackPointExtension>
        </extensions>
      </trkpt>
      <trkpt lat="36.7690651305019855499267578125" lon="-118.41240095905959606170654296875">
        <ele>3232.60009765625</ele>
        <time>2021-06-25T16:13:30.000Z</time>
        <extensions>
          <ns3:TrackPointExtension>
            <ns3:atemp>26.0</ns3:atemp>
            <ns3:hr>117</ns3:hr>
          </ns3:TrackPointExtension>
        </extensions>
      </trkpt>
      <trkpt lat="36.76907627843320369720458984375" lon="-118.41241520829498767852783203125">
        <ele>3233.199951171875</ele>
        <time>2021-06-25T16:13:32.000Z</time>
        <extensions>
          <ns3:TrackPointExtension>
            <ns3:atemp>26.0</ns3:atemp>
            <ns3:hr>116</ns3:hr>
          </ns3:TrackPointExtension>
        </extensions>
      </trkpt>
      <trkpt lat="36.76908398978412151336669921875" lon="-118.41241520829498767852783203125">
        <ele>3233.199951171875</ele>
        <time>2021-06-25T16:13:33.000Z</time>
        <extensions>
          <ns3:TrackPointExtension>
            <ns3:atemp>26.0</ns3:atemp>
            <ns3:hr>116</ns3:hr>
          </ns3:TrackPointExtension>
        </extensions>
      </trkpt>
      <trkpt lat="36.7690906114876270294189453125" lon="-118.412413783371448516845703125">
        <ele>3233.39990234375</ele>
        <time>2021-06-25T16:13:34.000Z</time>
        <extensions>
          <ns3:TrackPointExtension>
            <ns3:atemp>26.0</ns3:atemp>
            <ns3:hr>116</ns3:hr>
          </ns3:TrackPointExtension>
        </extensions>
      </trkpt>
      <trkpt lat="36.76909840665757656097412109375" lon="-118.4124102629721164703369140625">
        <ele>3233.60009765625</ele>
        <time>2021-06-25T16:13:35.000Z</time>
        <extensions>
          <ns3:TrackPointExtension>
            <ns3:atemp>26.0</ns3:atemp>
            <ns3:hr>116</ns3:hr>
          </ns3:TrackPointExtension>
        </extensions>
      </trkpt>
      <trkpt lat="36.76912707276642322540283203125" lon="-118.41240347363054752349853515625">
        <ele>3234.199951171875</ele>
        <time>2021-06-25T16:13:39.000Z</time>
        <extensions>
          <ns3:TrackPointExtension>
            <ns3:atemp>26.0</ns3:atemp>
            <ns3:hr>116</ns3:hr>
          </ns3:TrackPointExtension>
        </extensions>
      </trkpt>
      <trkpt lat="36.769135706126689910888671875" lon="-118.412401713430881500244140625">
        <ele>3234.199951171875</ele>
        <time>2021-06-25T16:13:40.000Z</time>
        <extensions>
          <ns3:TrackPointExtension>
            <ns3:atemp>26.0</ns3:atemp>
            <ns3:hr>116</ns3:hr>
          </ns3:TrackPointExtension>
        </extensions>
      </trkpt>
      <trkpt lat="36.7691486142575740814208984375" lon="-118.4123864583671092987060546875">
        <ele>3234.800048828125</ele>
        <time>2021-06-25T16:13:42.000Z</time>
        <extensions>
          <ns3:TrackPointExtension>
            <ns3:atemp>26.0</ns3:atemp>
            <ns3:hr>116</ns3:hr>
          </ns3:TrackPointExtension>
        </extensions>
      </trkpt>
      <trkpt lat="36.76915523596107959747314453125" lon="-118.41237790882587432861328125">
        <ele>3235</ele>
        <time>2021-06-25T16:13:43.000Z</time>
        <extensions>
          <ns3:TrackPointExtension>
            <ns3:atemp>26.0</ns3:atemp>
            <ns3:hr>116</ns3:hr>
          </ns3:TrackPointExtension>
        </extensions>
      </trkpt>
      <trkpt lat="36.7691781185567378997802734375" lon="-118.4123603068292140960693359375">
        <ele>3235.199951171875</ele>
        <time>2021-06-25T16:13:46.000Z</time>
        <extensions>
          <ns3:TrackPointExtension>
            <ns3:atemp>26.0</ns3:atemp>
            <ns3:hr>112</ns3:hr>
          </ns3:TrackPointExtension>
        </extensions>
      </trkpt>
      <trkpt lat="36.7691843211650848388671875" lon="-118.412357456982135772705078125">
        <ele>3235.39990234375</ele>
        <time>2021-06-25T16:13:47.000Z</time>
        <extensions>
          <ns3:TrackPointExtension>
            <ns3:atemp>26.0</ns3:atemp>
            <ns3:hr>111</ns3:hr>
          </ns3:TrackPointExtension>
        </extensions>
      </trkpt>
      <trkpt lat="36.7692046053707599639892578125" lon="-118.41234865598380565643310546875">
        <ele>3235.800048828125</ele>
        <time>2021-06-25T16:13:51.000Z</time>
        <extensions>
          <ns3:TrackPointExtension>
            <ns3:atemp>26.0</ns3:atemp>
            <ns3:hr>109</ns3:hr>
          </ns3:TrackPointExtension>
        </extensions>
      </trkpt>
      <trkpt lat="36.76921491511166095733642578125" lon="-118.41234178282320499420166015625">
        <ele>3236.199951171875</ele>
        <time>2021-06-25T16:13:53.000Z</time>
        <extensions>
          <ns3:TrackPointExtension>
            <ns3:atemp>26.0</ns3:atemp>
            <ns3:hr>108</ns3:hr>
          </ns3:TrackPointExtension>
        </extensions>
      </trkpt>
      <trkpt lat="36.769222207367420196533203125" lon="-118.41232870705425739288330078125">
        <ele>3236.60009765625</ele>
        <time>2021-06-25T16:13:55.000Z</time>
        <extensions>
          <ns3:TrackPointExtension>
            <ns3:atemp>26.0</ns3:atemp>
            <ns3:hr>109</ns3:hr>
          </ns3:TrackPointExtension>
        </extensions>
      </trkpt>
      <trkpt lat="36.76924006082117557525634765625" lon="-118.412317894399166107177734375">
        <ele>3237</ele>
        <time>2021-06-25T16:13:59.000Z</time>
        <extensions>
          <ns3:TrackPointExtension>
            <ns3:atemp>26.0</ns3:atemp>
            <ns3:hr>109</ns3:hr>
          </ns3:TrackPointExtension>
        </extensions>
      </trkpt>
      <trkpt lat="36.769222207367420196533203125" lon="-118.4123311378061771392822265625">
        <ele>3237.60009765625</ele>
        <time>2021-06-25T16:14:04.000Z</time>
        <extensions>
          <ns3:TrackPointExtension>
            <ns3:atemp>26.0</ns3:atemp>
            <ns3:hr>109</ns3:hr>
          </ns3:TrackPointExtension>
        </extensions>
      </trkpt>
      <trkpt lat="36.76921625621616840362548828125" lon="-118.41233558021485805511474609375">
        <ele>3237.60009765625</ele>
        <time>2021-06-25T16:14:05.000Z</time>
        <extensions>
          <ns3:TrackPointExtension>
            <ns3:atemp>26.0</ns3:atemp>
            <ns3:hr>109</ns3:hr>
          </ns3:TrackPointExtension>
        </extensions>
      </trkpt>
      <trkpt lat="36.7691885121166706085205078125" lon="-118.41235385276377201080322265625">
        <ele>3238</ele>
        <time>2021-06-25T16:14:10.000Z</time>
        <extensions>
          <ns3:TrackPointExtension>
            <ns3:atemp>26.0</ns3:atemp>
            <ns3:hr>106</ns3:hr>
          </ns3:TrackPointExtension>
        </extensions>
      </trkpt>
      <trkpt lat="36.7691868357360363006591796875" lon="-118.4123780764639377593994140625">
        <ele>3238.60009765625</ele>
        <time>2021-06-25T16:14:13.000Z</time>
        <extensions>
          <ns3:TrackPointExtension>
            <ns3:atemp>26.0</ns3:atemp>
            <ns3:hr>103</ns3:hr>
          </ns3:TrackPointExtension>
        </extensions>
      </trkpt>
      <trkpt lat="36.76917820237576961517333984375" lon="-118.4123884700238704681396484375">
        <ele>3238.60009765625</ele>
        <time>2021-06-25T16:14:15.000Z</time>
        <extensions>
          <ns3:TrackPointExtension>
            <ns3:atemp>26.0</ns3:atemp>
            <ns3:hr>103</ns3:hr>
          </ns3:TrackPointExtension>
        </extensions>
      </trkpt>
      <trkpt lat="36.7691616900265216827392578125" lon="-118.41239224188029766082763671875">
        <ele>3238.800048828125</ele>
        <time>2021-06-25T16:14:19.000Z</time>
        <extensions>
          <ns3:TrackPointExtension>
            <ns3:atemp>26.0</ns3:atemp>
            <ns3:hr>103</ns3:hr>
          </ns3:TrackPointExtension>
        </extensions>
      </trkpt>
      <trkpt lat="36.7691546492278575897216796875" lon="-118.4123946726322174072265625">
        <ele>3238.800048828125</ele>
        <time>2021-06-25T16:14:21.000Z</time>
        <extensions>
          <ns3:TrackPointExtension>
            <ns3:atemp>26.0</ns3:atemp>
            <ns3:hr>105</ns3:hr>
          </ns3:TrackPointExtension>
        </extensions>
      </trkpt>
      <trkpt lat="36.7691650427877902984619140625" lon="-118.4124032221734523773193359375">
        <ele>3239.199951171875</ele>
        <time>2021-06-25T16:14:24.000Z</time>
        <extensions>
          <ns3:TrackPointExtension>
            <ns3:atemp>26.0</ns3:atemp>
            <ns3:hr>108</ns3:hr>
          </ns3:TrackPointExtension>
        </extensions>
      </trkpt>
      <trkpt lat="36.769165880978107452392578125" lon="-118.412401713430881500244140625">
        <ele>3239.39990234375</ele>
        <time>2021-06-25T16:14:27.000Z</time>
        <extensions>
          <ns3:TrackPointExtension>
            <ns3:atemp>26.0</ns3:atemp>
            <ns3:hr>112</ns3:hr>
          </ns3:TrackPointExtension>
        </extensions>
      </trkpt>
      <trkpt lat="36.769165880978107452392578125" lon="-118.412401713430881500244140625">
        <ele>3239.60009765625</ele>
        <time>2021-06-25T16:14:30.000Z</time>
        <extensions>
          <ns3:TrackPointExtension>
            <ns3:atemp>26.0</ns3:atemp>
            <ns3:hr>115</ns3:hr>
          </ns3:TrackPointExtension>
        </extensions>
      </trkpt>
      <trkpt lat="36.7691660486161708831787109375" lon="-118.41240313835442066192626953125">
        <ele>3239.800048828125</ele>
        <time>2021-06-25T16:14:41.000Z</time>
        <extensions>
          <ns3:TrackPointExtension>
            <ns3:atemp>26.0</ns3:atemp>
            <ns3:hr>114</ns3:hr>
          </ns3:TrackPointExtension>
        </extensions>
      </trkpt>
      <trkpt lat="36.769165880978107452392578125" lon="-118.412410430610179901123046875">
        <ele>3240.800048828125</ele>
        <time>2021-06-25T16:14:49.000Z</time>
        <extensions>
          <ns3:TrackPointExtension>
            <ns3:atemp>26.0</ns3:atemp>
            <ns3:hr>114</ns3:hr>
          </ns3:TrackPointExtension>
        </extensions>
      </trkpt>
      <trkpt lat="36.76915012300014495849609375" lon="-118.41244420967996120452880859375">
        <ele>3242</ele>
        <time>2021-06-25T16:14:58.000Z</time>
        <extensions>
          <ns3:TrackPointExtension>
            <ns3:atemp>26.0</ns3:atemp>
            <ns3:hr>113</ns3:hr>
          </ns3:TrackPointExtension>
        </extensions>
      </trkpt>
      <trkpt lat="36.76914207637310028076171875" lon="-118.41245141811668872833251953125">
        <ele>3242.199951171875</ele>
        <time>2021-06-25T16:15:00.000Z</time>
        <extensions>
          <ns3:TrackPointExtension>
            <ns3:atemp>26.0</ns3:atemp>
            <ns3:hr>116</ns3:hr>
          </ns3:TrackPointExtension>
        </extensions>
      </trkpt>
      <trkpt lat="36.7691321857273578643798828125" lon="-118.41245569288730621337890625">
        <ele>3242.800048828125</ele>
        <time>2021-06-25T16:15:02.000Z</time>
        <extensions>
          <ns3:TrackPointExtension>
            <ns3:atemp>26.0</ns3:atemp>
            <ns3:hr>119</ns3:hr>
          </ns3:TrackPointExtension>
        </extensions>
      </trkpt>
      <trkpt lat="36.7691284976899623870849609375" lon="-118.4124712832272052764892578125">
        <ele>3243</ele>
        <time>2021-06-25T16:15:05.000Z</time>
        <extensions>
          <ns3:TrackPointExtension>
            <ns3:atemp>26.0</ns3:atemp>
            <ns3:hr>120</ns3:hr>
          </ns3:TrackPointExtension>
        </extensions>
      </trkpt>
      <trkpt lat="36.7691281624138355255126953125" lon="-118.41248109005391597747802734375">
        <ele>3243.60009765625</ele>
        <time>2021-06-25T16:15:08.000Z</time>
        <extensions>
          <ns3:TrackPointExtension>
            <ns3:atemp>26.0</ns3:atemp>
            <ns3:hr>116</ns3:hr>
          </ns3:TrackPointExtension>
        </extensions>
      </trkpt>
      <trkpt lat="36.7691281624138355255126953125" lon="-118.41250288300216197967529296875">
        <ele>3243.800048828125</ele>
        <time>2021-06-25T16:15:11.000Z</time>
        <extensions>
          <ns3:TrackPointExtension>
            <ns3:atemp>26.0</ns3:atemp>
            <ns3:hr>112</ns3:hr>
          </ns3:TrackPointExtension>
        </extensions>
      </trkpt>
      <trkpt lat="36.769137717783451080322265625" lon="-118.41251344420015811920166015625">
        <ele>3244</ele>
        <time>2021-06-25T16:15:21.000Z</time>
        <extensions>
          <ns3:TrackPointExtension>
            <ns3:atemp>26.0</ns3:atemp>
            <ns3:hr>111</ns3:hr>
          </ns3:TrackPointExtension>
        </extensions>
      </trkpt>
      <trkpt lat="36.7691412381827831268310546875" lon="-118.412513695657253265380859375">
        <ele>3244.199951171875</ele>
        <time>2021-06-25T16:15:22.000Z</time>
        <extensions>
          <ns3:TrackPointExtension>
            <ns3:atemp>26.0</ns3:atemp>
            <ns3:hr>111</ns3:hr>
          </ns3:TrackPointExtension>
        </extensions>
      </trkpt>
      <trkpt lat="36.76915355958044528961181640625" lon="-118.41251025907695293426513671875">
        <ele>3243.800048828125</ele>
        <time>2021-06-25T16:15:35.000Z</time>
        <extensions>
          <ns3:TrackPointExtension>
            <ns3:atemp>27.0</ns3:atemp>
            <ns3:hr>108</ns3:hr>
          </ns3:TrackPointExtension>
        </extensions>
      </trkpt>
      <trkpt lat="36.76915682852268218994140625" lon="-118.41251126490533351898193359375">
        <ele>3243.60009765625</ele>
        <time>2021-06-25T16:15:38.000Z</time>
        <extensions>
          <ns3:TrackPointExtension>
            <ns3:atemp>27.0</ns3:atemp>
            <ns3:hr>108</ns3:hr>
          </ns3:TrackPointExtension>
        </extensions>
      </trkpt>
      <trkpt lat="36.769164539873600006103515625" lon="-118.41251512058079242706298828125">
        <ele>3242.800048828125</ele>
        <time>2021-06-25T16:15:52.000Z</time>
        <extensions>
          <ns3:TrackPointExtension>
            <ns3:atemp>27.0</ns3:atemp>
            <ns3:hr>109</ns3:hr>
          </ns3:TrackPointExtension>
        </extensions>
      </trkpt>
      <trkpt lat="36.76916529424488544464111328125" lon="-118.41252719052135944366455078125">
        <ele>3242.199951171875</ele>
        <time>2021-06-25T16:15:57.000Z</time>
        <extensions>
          <ns3:TrackPointExtension>
            <ns3:atemp>27.0</ns3:atemp>
            <ns3:hr>112</ns3:hr>
          </ns3:TrackPointExtension>
        </extensions>
      </trkpt>
      <trkpt lat="36.76916613243520259857177734375" lon="-118.41252869926393032073974609375">
        <ele>3242</ele>
        <time>2021-06-25T16:16:01.000Z</time>
        <extensions>
          <ns3:TrackPointExtension>
            <ns3:atemp>27.0</ns3:atemp>
            <ns3:hr>109</ns3:hr>
          </ns3:TrackPointExtension>
        </extensions>
      </trkpt>
      <trkpt lat="36.7691667191684246063232421875" lon="-118.41253171674907207489013671875">
        <ele>3242</ele>
        <time>2021-06-25T16:16:06.000Z</time>
        <extensions>
          <ns3:TrackPointExtension>
            <ns3:atemp>27.0</ns3:atemp>
            <ns3:hr>106</ns3:hr>
          </ns3:TrackPointExtension>
        </extensions>
      </trkpt>
      <trkpt lat="36.76916755735874176025390625" lon="-118.41253238730132579803466796875">
        <ele>3242.199951171875</ele>
        <time>2021-06-25T16:16:10.000Z</time>
        <extensions>
          <ns3:TrackPointExtension>
            <ns3:atemp>27.0</ns3:atemp>
            <ns3:hr>103</ns3:hr>
          </ns3:TrackPointExtension>
        </extensions>
      </trkpt>
      <trkpt lat="36.76916864700615406036376953125" lon="-118.41253691352903842926025390625">
        <ele>3242.60009765625</ele>
        <time>2021-06-25T16:16:13.000Z</time>
        <extensions>
          <ns3:TrackPointExtension>
            <ns3:atemp>27.0</ns3:atemp>
            <ns3:hr>100</ns3:hr>
          </ns3:TrackPointExtension>
        </extensions>
      </trkpt>
      <trkpt lat="36.76917535252869129180908203125" lon="-118.41255493462085723876953125">
        <ele>3242.39990234375</ele>
        <time>2021-06-25T16:16:25.000Z</time>
        <extensions>
          <ns3:TrackPointExtension>
            <ns3:atemp>27.0</ns3:atemp>
            <ns3:hr>97</ns3:hr>
          </ns3:TrackPointExtension>
        </extensions>
      </trkpt>
      <trkpt lat="36.76917560398578643798828125" lon="-118.4125557728111743927001953125">
        <ele>3242.199951171875</ele>
        <time>2021-06-25T16:16:26.000Z</time>
        <extensions>
          <ns3:TrackPointExtension>
            <ns3:atemp>27.0</ns3:atemp>
            <ns3:hr>96</ns3:hr>
          </ns3:TrackPointExtension>
        </extensions>
      </trkpt>
      <trkpt lat="36.7691764421761035919189453125" lon="-118.412558622658252716064453125">
        <ele>3242</ele>
        <time>2021-06-25T16:16:34.000Z</time>
        <extensions>
          <ns3:TrackPointExtension>
            <ns3:atemp>28.0</ns3:atemp>
            <ns3:hr>93</ns3:hr>
          </ns3:TrackPointExtension>
        </extensions>
      </trkpt>
      <trkpt lat="36.7691761068999767303466796875" lon="-118.41255870647728443145751953125">
        <ele>3242.199951171875</ele>
        <time>2021-06-25T16:16:40.000Z</time>
        <extensions>
          <ns3:TrackPointExtension>
            <ns3:atemp>28.0</ns3:atemp>
            <ns3:hr>90</ns3:hr>
          </ns3:TrackPointExtension>
        </extensions>
      </trkpt>
      <trkpt lat="36.76917468197643756866455078125" lon="-118.412556946277618408203125">
        <ele>3241.60009765625</ele>
        <time>2021-06-25T16:16:45.000Z</time>
        <extensions>
          <ns3:TrackPointExtension>
            <ns3:atemp>28.0</ns3:atemp>
            <ns3:hr>91</ns3:hr>
          </ns3:TrackPointExtension>
        </extensions>
      </trkpt>
      <trkpt lat="36.76916596479713916778564453125" lon="-118.412553258240222930908203125">
        <ele>3241.39990234375</ele>
        <time>2021-06-25T16:16:56.000Z</time>
        <extensions>
          <ns3:TrackPointExtension>
            <ns3:atemp>28.0</ns3:atemp>
            <ns3:hr>87</ns3:hr>
          </ns3:TrackPointExtension>
        </extensions>
      </trkpt>
      <trkpt lat="36.7691653780639171600341796875" lon="-118.41255283914506435394287109375">
        <ele>3241.39990234375</ele>
        <time>2021-06-25T16:16:57.000Z</time>
        <extensions>
          <ns3:TrackPointExtension>
            <ns3:atemp>28.0</ns3:atemp>
            <ns3:hr>91</ns3:hr>
          </ns3:TrackPointExtension>
        </extensions>
      </trkpt>
      <trkpt lat="36.76916412077844142913818359375" lon="-118.41253347694873809814453125">
        <ele>3241.60009765625</ele>
        <time>2021-06-25T16:17:14.000Z</time>
        <extensions>
          <ns3:TrackPointExtension>
            <ns3:atemp>28.0</ns3:atemp>
            <ns3:hr>92</ns3:hr>
          </ns3:TrackPointExtension>
        </extensions>
      </trkpt>
      <trkpt lat="36.76916412077844142913818359375" lon="-118.4125235863029956817626953125">
        <ele>3241.60009765625</ele>
        <time>2021-06-25T16:17:24.000Z</time>
        <extensions>
          <ns3:TrackPointExtension>
            <ns3:atemp>28.0</ns3:atemp>
            <ns3:hr>89</ns3:hr>
          </ns3:TrackPointExtension>
        </extensions>
      </trkpt>
      <trkpt lat="36.7691637016832828521728515625" lon="-118.41252266429364681243896484375">
        <ele>3241.60009765625</ele>
        <time>2021-06-25T16:17:26.000Z</time>
        <extensions>
          <ns3:TrackPointExtension>
            <ns3:atemp>28.0</ns3:atemp>
            <ns3:hr>92</ns3:hr>
          </ns3:TrackPointExtension>
        </extensions>
      </trkpt>
      <trkpt lat="36.76916160620748996734619140625" lon="-118.412520401179790496826171875">
        <ele>3242.60009765625</ele>
        <time>2021-06-25T16:17:37.000Z</time>
        <extensions>
          <ns3:TrackPointExtension>
            <ns3:atemp>28.0</ns3:atemp>
            <ns3:hr>91</ns3:hr>
          </ns3:TrackPointExtension>
        </extensions>
      </trkpt>
      <trkpt lat="36.76916143856942653656005859375" lon="-118.4125202335417270660400390625">
        <ele>3243.800048828125</ele>
        <time>2021-06-25T16:17:42.000Z</time>
        <extensions>
          <ns3:TrackPointExtension>
            <ns3:atemp>28.0</ns3:atemp>
            <ns3:hr>88</ns3:hr>
          </ns3:TrackPointExtension>
        </extensions>
      </trkpt>
      <trkpt lat="36.76916160620748996734619140625" lon="-118.41252065263688564300537109375">
        <ele>3245</ele>
        <time>2021-06-25T16:17:49.000Z</time>
        <extensions>
          <ns3:TrackPointExtension>
            <ns3:atemp>28.0</ns3:atemp>
            <ns3:hr>90</ns3:hr>
          </ns3:TrackPointExtension>
        </extensions>
      </trkpt>
      <trkpt lat="36.76916194148361682891845703125" lon="-118.41252098791301250457763671875">
        <ele>3246</ele>
        <time>2021-06-25T16:17:57.000Z</time>
        <extensions>
          <ns3:TrackPointExtension>
            <ns3:atemp>28.0</ns3:atemp>
            <ns3:hr>90</ns3:hr>
          </ns3:TrackPointExtension>
        </extensions>
      </trkpt>
      <trkpt lat="36.7691623605787754058837890625" lon="-118.41252115555107593536376953125">
        <ele>3246.199951171875</ele>
        <time>2021-06-25T16:18:01.000Z</time>
        <extensions>
          <ns3:TrackPointExtension>
            <ns3:atemp>28.0</ns3:atemp>
            <ns3:hr>95</ns3:hr>
          </ns3:TrackPointExtension>
        </extensions>
      </trkpt>
      <trkpt lat="36.76916261203587055206298828125" lon="-118.4125212393701076507568359375">
        <ele>3246.60009765625</ele>
        <time>2021-06-25T16:18:03.000Z</time>
        <extensions>
          <ns3:TrackPointExtension>
            <ns3:atemp>27.0</ns3:atemp>
            <ns3:hr>100</ns3:hr>
          </ns3:TrackPointExtension>
        </extensions>
      </trkpt>
      <trkpt lat="36.7691628634929656982421875" lon="-118.41252132318913936614990234375">
        <ele>3246.60009765625</ele>
        <time>2021-06-25T16:18:05.000Z</time>
        <extensions>
          <ns3:TrackPointExtension>
            <ns3:atemp>27.0</ns3:atemp>
            <ns3:hr>103</ns3:hr>
          </ns3:TrackPointExtension>
        </extensions>
      </trkpt>
      <trkpt lat="36.76916311495006084442138671875" lon="-118.41252140700817108154296875">
        <ele>3246.60009765625</ele>
        <time>2021-06-25T16:18:07.000Z</time>
        <extensions>
          <ns3:TrackPointExtension>
            <ns3:atemp>27.0</ns3:atemp>
            <ns3:hr>105</ns3:hr>
          </ns3:TrackPointExtension>
        </extensions>
      </trkpt>
      <trkpt lat="36.76916495896875858306884765625" lon="-118.41252132318913936614990234375">
        <ele>3246.39990234375</ele>
        <time>2021-06-25T16:18:18.000Z</time>
        <extensions>
          <ns3:TrackPointExtension>
            <ns3:atemp>27.0</ns3:atemp>
            <ns3:hr>102</ns3:hr>
          </ns3:TrackPointExtension>
        </extensions>
      </trkpt>
      <trkpt lat="36.769165880978107452392578125" lon="-118.412521071732044219970703125">
        <ele>3247</ele>
        <time>2021-06-25T16:18:24.000Z</time>
        <extensions>
          <ns3:TrackPointExtension>
            <ns3:atemp>27.0</ns3:atemp>
            <ns3:hr>100</ns3:hr>
          </ns3:TrackPointExtension>
        </extensions>
      </trkpt>
      <trkpt lat="36.7691673897206783294677734375" lon="-118.41252065263688564300537109375">
        <ele>3247.800048828125</ele>
        <time>2021-06-25T16:18:33.000Z</time>
        <extensions>
          <ns3:TrackPointExtension>
            <ns3:atemp>27.0</ns3:atemp>
            <ns3:hr>98</ns3:hr>
          </ns3:TrackPointExtension>
        </extensions>
      </trkpt>
      <trkpt lat="36.76916864700615406036376953125" lon="-118.4125202335417270660400390625">
        <ele>3248.199951171875</ele>
        <time>2021-06-25T16:18:41.000Z</time>
        <extensions>
          <ns3:TrackPointExtension>
            <ns3:atemp>27.0</ns3:atemp>
            <ns3:hr>100</ns3:hr>
          </ns3:TrackPointExtension>
        </extensions>
      </trkpt>
      <trkpt lat="36.76917753182351589202880859375" lon="-118.4125316329300403594970703125">
        <ele>3248.199951171875</ele>
        <time>2021-06-25T16:18:43.000Z</time>
        <extensions>
          <ns3:TrackPointExtension>
            <ns3:atemp>27.0</ns3:atemp>
            <ns3:hr>103</ns3:hr>
          </ns3:TrackPointExtension>
        </extensions>
      </trkpt>
      <trkpt lat="36.76918541081249713897705078125" lon="-118.41254831291735172271728515625">
        <ele>3248.199951171875</ele>
        <time>2021-06-25T16:18:45.000Z</time>
        <extensions>
          <ns3:TrackPointExtension>
            <ns3:atemp>27.0</ns3:atemp>
            <ns3:hr>106</ns3:hr>
          </ns3:TrackPointExtension>
        </extensions>
      </trkpt>
      <trkpt lat="36.7691870033740997314453125" lon="-118.41256122104823589324951171875">
        <ele>3249</ele>
        <time>2021-06-25T16:18:47.000Z</time>
        <extensions>
          <ns3:TrackPointExtension>
            <ns3:atemp>27.0</ns3:atemp>
            <ns3:hr>108</ns3:hr>
          </ns3:TrackPointExtension>
        </extensions>
      </trkpt>
      <trkpt lat="36.7691878415644168853759765625" lon="-118.4125825949013233184814453125">
        <ele>3249</ele>
        <time>2021-06-25T16:18:49.000Z</time>
        <extensions>
          <ns3:TrackPointExtension>
            <ns3:atemp>27.0</ns3:atemp>
            <ns3:hr>111</ns3:hr>
          </ns3:TrackPointExtension>
        </extensions>
      </trkpt>
      <trkpt lat="36.7691697366535663604736328125" lon="-118.41261117719113826751708984375">
        <ele>3249</ele>
        <time>2021-06-25T16:18:53.000Z</time>
        <extensions>
          <ns3:TrackPointExtension>
            <ns3:atemp>27.0</ns3:atemp>
            <ns3:hr>114</ns3:hr>
          </ns3:TrackPointExtension>
        </extensions>
      </trkpt>
      <trkpt lat="36.7691657133400440216064453125" lon="-118.4126402623951435089111328125">
        <ele>3249.199951171875</ele>
        <time>2021-06-25T16:18:56.000Z</time>
        <extensions>
          <ns3:TrackPointExtension>
            <ns3:atemp>27.0</ns3:atemp>
            <ns3:hr>115</ns3:hr>
          </ns3:TrackPointExtension>
        </extensions>
      </trkpt>
      <trkpt lat="36.7691663838922977447509765625" lon="-118.4126580320298671722412109375">
        <ele>3250.199951171875</ele>
        <time>2021-06-25T16:18:59.000Z</time>
        <extensions>
          <ns3:TrackPointExtension>
            <ns3:atemp>27.0</ns3:atemp>
            <ns3:hr>118</ns3:hr>
          </ns3:TrackPointExtension>
        </extensions>
      </trkpt>
      <trkpt lat="36.76916487514972686767578125" lon="-118.4126617200672626495361328125">
        <ele>3250.60009765625</ele>
        <time>2021-06-25T16:19:00.000Z</time>
        <extensions>
          <ns3:TrackPointExtension>
            <ns3:atemp>27.0</ns3:atemp>
            <ns3:hr>118</ns3:hr>
          </ns3:TrackPointExtension>
        </extensions>
      </trkpt>
      <trkpt lat="36.769153811037540435791015625" lon="-118.4126684255897998809814453125">
        <ele>3250.800048828125</ele>
        <time>2021-06-25T16:19:03.000Z</time>
        <extensions>
          <ns3:TrackPointExtension>
            <ns3:atemp>27.0</ns3:atemp>
            <ns3:hr>119</ns3:hr>
          </ns3:TrackPointExtension>
        </extensions>
      </trkpt>
      <trkpt lat="36.769146434962749481201171875" lon="-118.4127019532024860382080078125">
        <ele>3251</ele>
        <time>2021-06-25T16:19:07.000Z</time>
        <extensions>
          <ns3:TrackPointExtension>
            <ns3:atemp>27.0</ns3:atemp>
            <ns3:hr>116</ns3:hr>
          </ns3:TrackPointExtension>
        </extensions>
      </trkpt>
      <trkpt lat="36.769148446619510650634765625" lon="-118.41271008364856243133544921875">
        <ele>3252.60009765625</ele>
        <time>2021-06-25T16:19:08.000Z</time>
        <extensions>
          <ns3:TrackPointExtension>
            <ns3:atemp>27.0</ns3:atemp>
            <ns3:hr>116</ns3:hr>
          </ns3:TrackPointExtension>
        </extensions>
      </trkpt>
      <trkpt lat="36.769150793552398681640625" lon="-118.41271779499948024749755859375">
        <ele>3252.800048828125</ele>
        <time>2021-06-25T16:19:10.000Z</time>
        <extensions>
          <ns3:TrackPointExtension>
            <ns3:atemp>27.0</ns3:atemp>
            <ns3:hr>115</ns3:hr>
          </ns3:TrackPointExtension>
        </extensions>
      </trkpt>
      <trkpt lat="36.76918071694672107696533203125" lon="-118.4127180464565753936767578125">
        <ele>3253.39990234375</ele>
        <time>2021-06-25T16:19:16.000Z</time>
        <extensions>
          <ns3:TrackPointExtension>
            <ns3:atemp>26.0</ns3:atemp>
            <ns3:hr>113</ns3:hr>
          </ns3:TrackPointExtension>
        </extensions>
      </trkpt>
      <trkpt lat="36.7691870033740997314453125" lon="-118.412726931273937225341796875">
        <ele>3253.60009765625</ele>
        <time>2021-06-25T16:19:17.000Z</time>
        <extensions>
          <ns3:TrackPointExtension>
            <ns3:atemp>26.0</ns3:atemp>
            <ns3:hr>112</ns3:hr>
          </ns3:TrackPointExtension>
        </extensions>
      </trkpt>
      <trkpt lat="36.76919295452535152435302734375" lon="-118.41273103840649127960205078125">
        <ele>3253.800048828125</ele>
        <time>2021-06-25T16:19:18.000Z</time>
        <extensions>
          <ns3:TrackPointExtension>
            <ns3:atemp>26.0</ns3:atemp>
            <ns3:hr>112</ns3:hr>
          </ns3:TrackPointExtension>
        </extensions>
      </trkpt>
      <trkpt lat="36.76921843551099300384521484375" lon="-118.41273724101483821868896484375">
        <ele>3254.60009765625</ele>
        <time>2021-06-25T16:19:23.000Z</time>
        <extensions>
          <ns3:TrackPointExtension>
            <ns3:atemp>26.0</ns3:atemp>
            <ns3:hr>109</ns3:hr>
          </ns3:TrackPointExtension>
        </extensions>
      </trkpt>
      <trkpt lat="36.76922279410064220428466796875" lon="-118.41273405589163303375244140625">
        <ele>3255</ele>
        <time>2021-06-25T16:19:24.000Z</time>
        <extensions>
          <ns3:TrackPointExtension>
            <ns3:atemp>26.0</ns3:atemp>
            <ns3:hr>108</ns3:hr>
          </ns3:TrackPointExtension>
        </extensions>
      </trkpt>
      <trkpt lat="36.7692287452518939971923828125" lon="-118.41273120604455471038818359375">
        <ele>3255.199951171875</ele>
        <time>2021-06-25T16:19:25.000Z</time>
        <extensions>
          <ns3:TrackPointExtension>
            <ns3:atemp>26.0</ns3:atemp>
            <ns3:hr>108</ns3:hr>
          </ns3:TrackPointExtension>
        </extensions>
      </trkpt>
      <trkpt lat="36.7692605964839458465576171875" lon="-118.41272659599781036376953125">
        <ele>3256</ele>
        <time>2021-06-25T16:19:30.000Z</time>
        <extensions>
          <ns3:TrackPointExtension>
            <ns3:atemp>26.0</ns3:atemp>
            <ns3:hr>109</ns3:hr>
          </ns3:TrackPointExtension>
        </extensions>
      </trkpt>
      <trkpt lat="36.76928046159446239471435546875" lon="-118.41273053549230098724365234375">
        <ele>3256.199951171875</ele>
        <time>2021-06-25T16:19:33.000Z</time>
        <extensions>
          <ns3:TrackPointExtension>
            <ns3:atemp>26.0</ns3:atemp>
            <ns3:hr>110</ns3:hr>
          </ns3:TrackPointExtension>
        </extensions>
      </trkpt>
      <trkpt lat="36.769305355846881866455078125" lon="-118.41271880082786083221435546875">
        <ele>3256.60009765625</ele>
        <time>2021-06-25T16:19:37.000Z</time>
        <extensions>
          <ns3:TrackPointExtension>
            <ns3:atemp>26.0</ns3:atemp>
            <ns3:hr>113</ns3:hr>
          </ns3:TrackPointExtension>
        </extensions>
      </trkpt>
      <trkpt lat="36.76930828951299190521240234375" lon="-118.41271528042852878570556640625">
        <ele>3257.199951171875</ele>
        <time>2021-06-25T16:19:38.000Z</time>
        <extensions>
          <ns3:TrackPointExtension>
            <ns3:atemp>26.0</ns3:atemp>
            <ns3:hr>114</ns3:hr>
          </ns3:TrackPointExtension>
        </extensions>
      </trkpt>
      <trkpt lat="36.76931281574070453643798828125" lon="-118.41271075420081615447998046875">
        <ele>3257.199951171875</ele>
        <time>2021-06-25T16:19:39.000Z</time>
        <extensions>
          <ns3:TrackPointExtension>
            <ns3:atemp>26.0</ns3:atemp>
            <ns3:hr>114</ns3:hr>
          </ns3:TrackPointExtension>
        </extensions>
      </trkpt>
      <trkpt lat="36.769349277019500732421875" lon="-118.41270019300282001495361328125">
        <ele>3258.800048828125</ele>
        <time>2021-06-25T16:19:46.000Z</time>
        <extensions>
          <ns3:TrackPointExtension>
            <ns3:atemp>26.0</ns3:atemp>
            <ns3:hr>114</ns3:hr>
          </ns3:TrackPointExtension>
        </extensions>
      </trkpt>
      <trkpt lat="36.76935489289462566375732421875" lon="-118.4127006120979785919189453125">
        <ele>3259</ele>
        <time>2021-06-25T16:19:47.000Z</time>
        <extensions>
          <ns3:TrackPointExtension>
            <ns3:atemp>26.0</ns3:atemp>
            <ns3:hr>115</ns3:hr>
          </ns3:TrackPointExtension>
        </extensions>
      </trkpt>
      <trkpt lat="36.76933997310698032379150390625" lon="-118.41271578334271907806396484375">
        <ele>3259.199951171875</ele>
        <time>2021-06-25T16:19:55.000Z</time>
        <extensions>
          <ns3:TrackPointExtension>
            <ns3:atemp>27.0</ns3:atemp>
            <ns3:hr>114</ns3:hr>
          </ns3:TrackPointExtension>
        </extensions>
      </trkpt>
      <trkpt lat="36.76932438276708126068115234375" lon="-118.4127116762101650238037109375">
        <ele>3260</ele>
        <time>2021-06-25T16:19:57.000Z</time>
        <extensions>
          <ns3:TrackPointExtension>
            <ns3:atemp>27.0</ns3:atemp>
            <ns3:hr>114</ns3:hr>
          </ns3:TrackPointExtension>
        </extensions>
      </trkpt>
      <trkpt lat="36.769318096339702606201171875" lon="-118.4127219021320343017578125">
        <ele>3260.39990234375</ele>
        <time>2021-06-25T16:20:00.000Z</time>
        <extensions>
          <ns3:TrackPointExtension>
            <ns3:atemp>27.0</ns3:atemp>
            <ns3:hr>117</ns3:hr>
          </ns3:TrackPointExtension>
        </extensions>
      </trkpt>
      <trkpt lat="36.76931315101683139801025390625" lon="-118.4127540886402130126953125">
        <ele>3260.60009765625</ele>
        <time>2021-06-25T16:20:05.000Z</time>
        <extensions>
          <ns3:TrackPointExtension>
            <ns3:atemp>27.0</ns3:atemp>
            <ns3:hr>119</ns3:hr>
          </ns3:TrackPointExtension>
        </extensions>
      </trkpt>
      <trkpt lat="36.769293956458568572998046875" lon="-118.41276657767593860626220703125">
        <ele>3261</ele>
        <time>2021-06-25T16:20:09.000Z</time>
        <extensions>
          <ns3:TrackPointExtension>
            <ns3:atemp>27.0</ns3:atemp>
            <ns3:hr>120</ns3:hr>
          </ns3:TrackPointExtension>
        </extensions>
      </trkpt>
      <trkpt lat="36.769274510443210601806640625" lon="-118.41278686188161373138427734375">
        <ele>3261.60009765625</ele>
        <time>2021-06-25T16:20:13.000Z</time>
        <extensions>
          <ns3:TrackPointExtension>
            <ns3:atemp>27.0</ns3:atemp>
            <ns3:hr>120</ns3:hr>
          </ns3:TrackPointExtension>
        </extensions>
      </trkpt>
      <trkpt lat="36.7692284099757671356201171875" lon="-118.41282675974071025848388671875">
        <ele>3262.199951171875</ele>
        <time>2021-06-25T16:20:19.000Z</time>
        <extensions>
          <ns3:TrackPointExtension>
            <ns3:atemp>26.0</ns3:atemp>
            <ns3:hr>121</ns3:hr>
          </ns3:TrackPointExtension>
        </extensions>
      </trkpt>
      <trkpt lat="36.76921525038778781890869140625" lon="-118.41287906281650066375732421875">
        <ele>3263</ele>
        <time>2021-06-25T16:20:25.000Z</time>
        <extensions>
          <ns3:TrackPointExtension>
            <ns3:atemp>26.0</ns3:atemp>
            <ns3:hr>119</ns3:hr>
          </ns3:TrackPointExtension>
        </extensions>
      </trkpt>
      <trkpt lat="36.76920854486525058746337890625" lon="-118.412905968725681304931640625">
        <ele>3263.800048828125</ele>
        <time>2021-06-25T16:20:28.000Z</time>
        <extensions>
          <ns3:TrackPointExtension>
            <ns3:atemp>26.0</ns3:atemp>
            <ns3:hr>117</ns3:hr>
          </ns3:TrackPointExtension>
        </extensions>
      </trkpt>
      <trkpt lat="36.76921273581683635711669921875" lon="-118.412944860756397247314453125">
        <ele>3263.800048828125</ele>
        <time>2021-06-25T16:20:32.000Z</time>
        <extensions>
          <ns3:TrackPointExtension>
            <ns3:atemp>26.0</ns3:atemp>
            <ns3:hr>115</ns3:hr>
          </ns3:TrackPointExtension>
        </extensions>
      </trkpt>
      <trkpt lat="36.7692401446402072906494140625" lon="-118.41300663538277149200439453125">
        <ele>3264.800048828125</ele>
        <time>2021-06-25T16:20:39.000Z</time>
        <extensions>
          <ns3:TrackPointExtension>
            <ns3:atemp>26.0</ns3:atemp>
            <ns3:hr>115</ns3:hr>
          </ns3:TrackPointExtension>
        </extensions>
      </trkpt>
      <trkpt lat="36.76924777217209339141845703125" lon="-118.413033373653888702392578125">
        <ele>3266</ele>
        <time>2021-06-25T16:20:42.000Z</time>
        <extensions>
          <ns3:TrackPointExtension>
            <ns3:atemp>26.0</ns3:atemp>
            <ns3:hr>112</ns3:hr>
          </ns3:TrackPointExtension>
        </extensions>
      </trkpt>
      <trkpt lat="36.76926772110164165496826171875" lon="-118.413074947893619537353515625">
        <ele>3266.39990234375</ele>
        <time>2021-06-25T16:20:46.000Z</time>
        <extensions>
          <ns3:TrackPointExtension>
            <ns3:atemp>26.0</ns3:atemp>
            <ns3:hr>111</ns3:hr>
          </ns3:TrackPointExtension>
        </extensions>
      </trkpt>
      <trkpt lat="36.76928465254604816436767578125" lon="-118.4131311066448688507080078125">
        <ele>3266.800048828125</ele>
        <time>2021-06-25T16:20:50.000Z</time>
        <extensions>
          <ns3:TrackPointExtension>
            <ns3:atemp>26.0</ns3:atemp>
            <ns3:hr>113</ns3:hr>
          </ns3:TrackPointExtension>
        </extensions>
      </trkpt>
      <trkpt lat="36.769294627010822296142578125" lon="-118.4131683222949504852294921875">
        <ele>3267</ele>
        <time>2021-06-25T16:20:55.000Z</time>
        <extensions>
          <ns3:TrackPointExtension>
            <ns3:atemp>26.0</ns3:atemp>
            <ns3:hr>115</ns3:hr>
          </ns3:TrackPointExtension>
        </extensions>
      </trkpt>
      <trkpt lat="36.7693139053881168365478515625" lon="-118.4132154285907745361328125">
        <ele>3268.199951171875</ele>
        <time>2021-06-25T16:21:00.000Z</time>
        <extensions>
          <ns3:TrackPointExtension>
            <ns3:atemp>26.0</ns3:atemp>
            <ns3:hr>115</ns3:hr>
          </ns3:TrackPointExtension>
        </extensions>
      </trkpt>
      <trkpt lat="36.7693108879029750823974609375" lon="-118.41323059983551502227783203125">
        <ele>3268.39990234375</ele>
        <time>2021-06-25T16:21:02.000Z</time>
        <extensions>
          <ns3:TrackPointExtension>
            <ns3:atemp>26.0</ns3:atemp>
            <ns3:hr>115</ns3:hr>
          </ns3:TrackPointExtension>
        </extensions>
      </trkpt>
      <trkpt lat="36.76931180991232395172119140625" lon="-118.41324023902416229248046875">
        <ele>3268.39990234375</ele>
        <time>2021-06-25T16:21:03.000Z</time>
        <extensions>
          <ns3:TrackPointExtension>
            <ns3:atemp>26.0</ns3:atemp>
            <ns3:hr>117</ns3:hr>
          </ns3:TrackPointExtension>
        </extensions>
      </trkpt>
      <trkpt lat="36.76931105554103851318359375" lon="-118.4132692404091358184814453125">
        <ele>3268.800048828125</ele>
        <time>2021-06-25T16:21:07.000Z</time>
        <extensions>
          <ns3:TrackPointExtension>
            <ns3:atemp>26.0</ns3:atemp>
            <ns3:hr>118</ns3:hr>
          </ns3:TrackPointExtension>
        </extensions>
      </trkpt>
      <trkpt lat="36.7693058587610721588134765625" lon="-118.41328977607190608978271484375">
        <ele>3269</ele>
        <time>2021-06-25T16:21:11.000Z</time>
        <extensions>
          <ns3:TrackPointExtension>
            <ns3:atemp>26.0</ns3:atemp>
            <ns3:hr>117</ns3:hr>
          </ns3:TrackPointExtension>
        </extensions>
      </trkpt>
      <trkpt lat="36.76928230561316013336181640625" lon="-118.41330553404986858367919921875">
        <ele>3269.39990234375</ele>
        <time>2021-06-25T16:21:15.000Z</time>
        <extensions>
          <ns3:TrackPointExtension>
            <ns3:atemp>26.0</ns3:atemp>
            <ns3:hr>115</ns3:hr>
          </ns3:TrackPointExtension>
        </extensions>
      </trkpt>
      <trkpt lat="36.7692730017006397247314453125" lon="-118.413337804377079010009765625">
        <ele>3270</ele>
        <time>2021-06-25T16:21:19.000Z</time>
        <extensions>
          <ns3:TrackPointExtension>
            <ns3:atemp>26.0</ns3:atemp>
            <ns3:hr>115</ns3:hr>
          </ns3:TrackPointExtension>
        </extensions>
      </trkpt>
      <trkpt lat="36.76928230561316013336181640625" lon="-118.413388095796108245849609375">
        <ele>3270.39990234375</ele>
        <time>2021-06-25T16:21:23.000Z</time>
        <extensions>
          <ns3:TrackPointExtension>
            <ns3:atemp>26.0</ns3:atemp>
            <ns3:hr>117</ns3:hr>
          </ns3:TrackPointExtension>
        </extensions>
      </trkpt>
      <trkpt lat="36.76927761174738407135009765625" lon="-118.41342397034168243408203125">
        <ele>3270.800048828125</ele>
        <time>2021-06-25T16:21:28.000Z</time>
        <extensions>
          <ns3:TrackPointExtension>
            <ns3:atemp>26.0</ns3:atemp>
            <ns3:hr>118</ns3:hr>
          </ns3:TrackPointExtension>
        </extensions>
      </trkpt>
      <trkpt lat="36.76927979104220867156982421875" lon="-118.41347283683717250823974609375">
        <ele>3271</ele>
        <time>2021-06-25T16:21:32.000Z</time>
        <extensions>
          <ns3:TrackPointExtension>
            <ns3:atemp>26.0</ns3:atemp>
            <ns3:hr>117</ns3:hr>
          </ns3:TrackPointExtension>
        </extensions>
      </trkpt>
      <trkpt lat="36.7692823894321918487548828125" lon="-118.41350032947957515716552734375">
        <ele>3271</ele>
        <time>2021-06-25T16:21:34.000Z</time>
        <extensions>
          <ns3:TrackPointExtension>
            <ns3:atemp>26.0</ns3:atemp>
            <ns3:hr>118</ns3:hr>
          </ns3:TrackPointExtension>
        </extensions>
      </trkpt>
      <trkpt lat="36.7692833952605724334716796875" lon="-118.41350921429693698883056640625">
        <ele>3271</ele>
        <time>2021-06-25T16:21:35.000Z</time>
        <extensions>
          <ns3:TrackPointExtension>
            <ns3:atemp>26.0</ns3:atemp>
            <ns3:hr>119</ns3:hr>
          </ns3:TrackPointExtension>
        </extensions>
      </trkpt>
      <trkpt lat="36.769285909831523895263671875" lon="-118.413512147963047027587890625">
        <ele>3271</ele>
        <time>2021-06-25T16:21:36.000Z</time>
        <extensions>
          <ns3:TrackPointExtension>
            <ns3:atemp>26.0</ns3:atemp>
            <ns3:hr>119</ns3:hr>
          </ns3:TrackPointExtension>
        </extensions>
      </trkpt>
      <trkpt lat="36.7692857421934604644775390625" lon="-118.4135213680565357208251953125">
        <ele>3271.199951171875</ele>
        <time>2021-06-25T16:21:38.000Z</time>
        <extensions>
          <ns3:TrackPointExtension>
            <ns3:atemp>26.0</ns3:atemp>
            <ns3:hr>120</ns3:hr>
          </ns3:TrackPointExtension>
        </extensions>
      </trkpt>
      <trkpt lat="36.769280545413494110107421875" lon="-118.413526229560375213623046875">
        <ele>3271.39990234375</ele>
        <time>2021-06-25T16:21:39.000Z</time>
        <extensions>
          <ns3:TrackPointExtension>
            <ns3:atemp>26.0</ns3:atemp>
            <ns3:hr>121</ns3:hr>
          </ns3:TrackPointExtension>
        </extensions>
      </trkpt>
      <trkpt lat="36.76927057094871997833251953125" lon="-118.413547016680240631103515625">
        <ele>3271.60009765625</ele>
        <time>2021-06-25T16:21:41.000Z</time>
        <extensions>
          <ns3:TrackPointExtension>
            <ns3:atemp>26.0</ns3:atemp>
            <ns3:hr>120</ns3:hr>
          </ns3:TrackPointExtension>
        </extensions>
      </trkpt>
      <trkpt lat="36.76926705054938793182373046875" lon="-118.41357777826488018035888671875">
        <ele>3271.60009765625</ele>
        <time>2021-06-25T16:21:44.000Z</time>
        <extensions>
          <ns3:TrackPointExtension>
            <ns3:atemp>26.0</ns3:atemp>
            <ns3:hr>118</ns3:hr>
          </ns3:TrackPointExtension>
        </extensions>
      </trkpt>
      <trkpt lat="36.7692595906555652618408203125" lon="-118.4136065281927585601806640625">
        <ele>3272</ele>
        <time>2021-06-25T16:21:47.000Z</time>
        <extensions>
          <ns3:TrackPointExtension>
            <ns3:atemp>26.0</ns3:atemp>
            <ns3:hr>115</ns3:hr>
          </ns3:TrackPointExtension>
        </extensions>
      </trkpt>
      <trkpt lat="36.769258081912994384765625" lon="-118.41361482627689838409423828125">
        <ele>3272</ele>
        <time>2021-06-25T16:21:48.000Z</time>
        <extensions>
          <ns3:TrackPointExtension>
            <ns3:atemp>26.0</ns3:atemp>
            <ns3:hr>114</ns3:hr>
          </ns3:TrackPointExtension>
        </extensions>
      </trkpt>
      <trkpt lat="36.7692569084465503692626953125" lon="-118.41363661922514438629150390625">
        <ele>3272.60009765625</ele>
        <time>2021-06-25T16:21:50.000Z</time>
        <extensions>
          <ns3:TrackPointExtension>
            <ns3:atemp>26.0</ns3:atemp>
            <ns3:hr>111</ns3:hr>
          </ns3:TrackPointExtension>
        </extensions>
      </trkpt>
      <trkpt lat="36.769256405532360076904296875" lon="-118.4136497788131237030029296875">
        <ele>3272.60009765625</ele>
        <time>2021-06-25T16:21:51.000Z</time>
        <extensions>
          <ns3:TrackPointExtension>
            <ns3:atemp>26.0</ns3:atemp>
            <ns3:hr>111</ns3:hr>
          </ns3:TrackPointExtension>
        </extensions>
      </trkpt>
      <trkpt lat="36.76925078965723514556884765625" lon="-118.413719348609447479248046875">
        <ele>3273.199951171875</ele>
        <time>2021-06-25T16:21:56.000Z</time>
        <extensions>
          <ns3:TrackPointExtension>
            <ns3:atemp>26.0</ns3:atemp>
            <ns3:hr>109</ns3:hr>
          </ns3:TrackPointExtension>
        </extensions>
      </trkpt>
      <trkpt lat="36.76924911327660083770751953125" lon="-118.4138412214815616607666015625">
        <ele>3273</ele>
        <time>2021-06-25T16:22:05.000Z</time>
        <extensions>
          <ns3:TrackPointExtension>
            <ns3:atemp>26.0</ns3:atemp>
            <ns3:hr>109</ns3:hr>
          </ns3:TrackPointExtension>
        </extensions>
      </trkpt>
      <trkpt lat="36.76925246603786945343017578125" lon="-118.41387726366519927978515625">
        <ele>3273</ele>
        <time>2021-06-25T16:22:08.000Z</time>
        <extensions>
          <ns3:TrackPointExtension>
            <ns3:atemp>26.0</ns3:atemp>
            <ns3:hr>109</ns3:hr>
          </ns3:TrackPointExtension>
        </extensions>
      </trkpt>
      <trkpt lat="36.76925665698945522308349609375" lon="-118.41394138522446155548095703125">
        <ele>3272.60009765625</ele>
        <time>2021-06-25T16:22:12.000Z</time>
        <extensions>
          <ns3:TrackPointExtension>
            <ns3:atemp>26.0</ns3:atemp>
            <ns3:hr>108</ns3:hr>
          </ns3:TrackPointExtension>
        </extensions>
      </trkpt>
      <trkpt lat="36.7692954652011394500732421875" lon="-118.41403484344482421875">
        <ele>3272.800048828125</ele>
        <time>2021-06-25T16:22:19.000Z</time>
        <extensions>
          <ns3:TrackPointExtension>
            <ns3:atemp>26.0</ns3:atemp>
            <ns3:hr>105</ns3:hr>
          </ns3:TrackPointExtension>
        </extensions>
      </trkpt>
      <trkpt lat="36.76931105554103851318359375" lon="-118.41407080180943012237548828125">
        <ele>3272.800048828125</ele>
        <time>2021-06-25T16:22:22.000Z</time>
        <extensions>
          <ns3:TrackPointExtension>
            <ns3:atemp>26.0</ns3:atemp>
            <ns3:hr>106</ns3:hr>
          </ns3:TrackPointExtension>
        </extensions>
      </trkpt>
      <trkpt lat="36.76937869749963283538818359375" lon="-118.41416568495333194732666015625">
        <ele>3272.800048828125</ele>
        <time>2021-06-25T16:22:31.000Z</time>
        <extensions>
          <ns3:TrackPointExtension>
            <ns3:atemp>26.0</ns3:atemp>
            <ns3:hr>109</ns3:hr>
          </ns3:TrackPointExtension>
        </extensions>
      </trkpt>
      <trkpt lat="36.7693854868412017822265625" lon="-118.41417767107486724853515625">
        <ele>3272.800048828125</ele>
        <time>2021-06-25T16:22:32.000Z</time>
        <extensions>
          <ns3:TrackPointExtension>
            <ns3:atemp>26.0</ns3:atemp>
            <ns3:hr>106</ns3:hr>
          </ns3:TrackPointExtension>
        </extensions>
      </trkpt>
      <trkpt lat="36.76939311437308788299560546875" lon="-118.41418705880641937255859375">
        <ele>3272.800048828125</ele>
        <time>2021-06-25T16:22:33.000Z</time>
        <extensions>
          <ns3:TrackPointExtension>
            <ns3:atemp>26.0</ns3:atemp>
            <ns3:hr>106</ns3:hr>
          </ns3:TrackPointExtension>
        </extensions>
      </trkpt>
      <trkpt lat="36.769432760775089263916015625" lon="-118.41421656310558319091796875">
        <ele>3272.800048828125</ele>
        <time>2021-06-25T16:22:37.000Z</time>
        <extensions>
          <ns3:TrackPointExtension>
            <ns3:atemp>26.0</ns3:atemp>
            <ns3:hr>106</ns3:hr>
          </ns3:TrackPointExtension>
        </extensions>
      </trkpt>
      <trkpt lat="36.76944374106824398040771484375" lon="-118.41423667967319488525390625">
        <ele>3272.800048828125</ele>
        <time>2021-06-25T16:22:39.000Z</time>
        <extensions>
          <ns3:TrackPointExtension>
            <ns3:atemp>26.0</ns3:atemp>
            <ns3:hr>104</ns3:hr>
          </ns3:TrackPointExtension>
        </extensions>
      </trkpt>
      <trkpt lat="36.7694496922194957733154296875" lon="-118.41425118036568164825439453125">
        <ele>3272.800048828125</ele>
        <time>2021-06-25T16:22:40.000Z</time>
        <extensions>
          <ns3:TrackPointExtension>
            <ns3:atemp>26.0</ns3:atemp>
            <ns3:hr>104</ns3:hr>
          </ns3:TrackPointExtension>
        </extensions>
      </trkpt>
      <trkpt lat="36.76946871913969516754150390625" lon="-118.41428755782544612884521484375">
        <ele>3273</ele>
        <time>2021-06-25T16:22:43.000Z</time>
        <extensions>
          <ns3:TrackPointExtension>
            <ns3:atemp>26.0</ns3:atemp>
            <ns3:hr>104</ns3:hr>
          </ns3:TrackPointExtension>
        </extensions>
      </trkpt>
      <trkpt lat="36.7695090360939502716064453125" lon="-118.4143310599029064178466796875">
        <ele>3272.800048828125</ele>
        <time>2021-06-25T16:22:48.000Z</time>
        <extensions>
          <ns3:TrackPointExtension>
            <ns3:atemp>26.0</ns3:atemp>
            <ns3:hr>104</ns3:hr>
          </ns3:TrackPointExtension>
        </extensions>
      </trkpt>
      <trkpt lat="36.76951465196907520294189453125" lon="-118.41434237547218799591064453125">
        <ele>3272.800048828125</ele>
        <time>2021-06-25T16:22:49.000Z</time>
        <extensions>
          <ns3:TrackPointExtension>
            <ns3:atemp>26.0</ns3:atemp>
            <ns3:hr>103</ns3:hr>
          </ns3:TrackPointExtension>
        </extensions>
      </trkpt>
      <trkpt lat="36.7695331759750843048095703125" lon="-118.41439484618604183197021484375">
        <ele>3273.199951171875</ele>
        <time>2021-06-25T16:22:54.000Z</time>
        <extensions>
          <ns3:TrackPointExtension>
            <ns3:atemp>26.0</ns3:atemp>
            <ns3:hr>102</ns3:hr>
          </ns3:TrackPointExtension>
        </extensions>
      </trkpt>
      <trkpt lat="36.76954667083919048309326171875" lon="-118.41441596858203411102294921875">
        <ele>3273.199951171875</ele>
        <time>2021-06-25T16:22:56.000Z</time>
        <extensions>
          <ns3:TrackPointExtension>
            <ns3:atemp>26.0</ns3:atemp>
            <ns3:hr>101</ns3:hr>
          </ns3:TrackPointExtension>
        </extensions>
      </trkpt>
      <trkpt lat="36.7695962078869342803955078125" lon="-118.41445620171725749969482421875">
        <ele>3272.800048828125</ele>
        <time>2021-06-25T16:23:02.000Z</time>
        <extensions>
          <ns3:TrackPointExtension>
            <ns3:atemp>26.0</ns3:atemp>
            <ns3:hr>101</ns3:hr>
          </ns3:TrackPointExtension>
        </extensions>
      </trkpt>
      <trkpt lat="36.7696283943951129913330078125" lon="-118.4145114384591579437255859375">
        <ele>3271.60009765625</ele>
        <time>2021-06-25T16:23:08.000Z</time>
        <extensions>
          <ns3:TrackPointExtension>
            <ns3:atemp>26.0</ns3:atemp>
            <ns3:hr>101</ns3:hr>
          </ns3:TrackPointExtension>
        </extensions>
      </trkpt>
      <trkpt lat="36.76964490674436092376708984375" lon="-118.41453767381608486175537109375">
        <ele>3271.39990234375</ele>
        <time>2021-06-25T16:23:11.000Z</time>
        <extensions>
          <ns3:TrackPointExtension>
            <ns3:atemp>26.0</ns3:atemp>
            <ns3:hr>100</ns3:hr>
          </ns3:TrackPointExtension>
        </extensions>
      </trkpt>
      <trkpt lat="36.7696907557547092437744140625" lon="-118.41464328579604625701904296875">
        <ele>3270</ele>
        <time>2021-06-25T16:23:20.000Z</time>
        <extensions>
          <ns3:TrackPointExtension>
            <ns3:atemp>26.0</ns3:atemp>
            <ns3:hr>102</ns3:hr>
          </ns3:TrackPointExtension>
        </extensions>
      </trkpt>
      <trkpt lat="36.769694946706295013427734375" lon="-118.41465837322175502777099609375">
        <ele>3270</ele>
        <time>2021-06-25T16:23:21.000Z</time>
        <extensions>
          <ns3:TrackPointExtension>
            <ns3:atemp>26.0</ns3:atemp>
            <ns3:hr>102</ns3:hr>
          </ns3:TrackPointExtension>
        </extensions>
      </trkpt>
      <trkpt lat="36.76970508880913257598876953125" lon="-118.414713777601718902587890625">
        <ele>3270</ele>
        <time>2021-06-25T16:23:25.000Z</time>
        <extensions>
          <ns3:TrackPointExtension>
            <ns3:atemp>26.0</ns3:atemp>
            <ns3:hr>106</ns3:hr>
          </ns3:TrackPointExtension>
        </extensions>
      </trkpt>
      <trkpt lat="36.76973006688058376312255859375" lon="-118.41479667462408542633056640625">
        <ele>3270</ele>
        <time>2021-06-25T16:23:31.000Z</time>
        <extensions>
          <ns3:TrackPointExtension>
            <ns3:atemp>26.0</ns3:atemp>
            <ns3:hr>108</ns3:hr>
          </ns3:TrackPointExtension>
        </extensions>
      </trkpt>
      <trkpt lat="36.76973995752632617950439453125" lon="-118.4148329682648181915283203125">
        <ele>3269.800048828125</ele>
        <time>2021-06-25T16:23:34.000Z</time>
        <extensions>
          <ns3:TrackPointExtension>
            <ns3:atemp>26.0</ns3:atemp>
            <ns3:hr>111</ns3:hr>
          </ns3:TrackPointExtension>
        </extensions>
      </trkpt>
      <trkpt lat="36.7697527818381786346435546875" lon="-118.4149204753339290618896484375">
        <ele>3270</ele>
        <time>2021-06-25T16:23:40.000Z</time>
        <extensions>
          <ns3:TrackPointExtension>
            <ns3:atemp>26.0</ns3:atemp>
            <ns3:hr>112</ns3:hr>
          </ns3:TrackPointExtension>
        </extensions>
      </trkpt>
      <trkpt lat="36.76977834664285182952880859375" lon="-118.415014855563640594482421875">
        <ele>3270.199951171875</ele>
        <time>2021-06-25T16:23:47.000Z</time>
        <extensions>
          <ns3:TrackPointExtension>
            <ns3:atemp>26.0</ns3:atemp>
            <ns3:hr>111</ns3:hr>
          </ns3:TrackPointExtension>
        </extensions>
      </trkpt>
      <trkpt lat="36.7697866447269916534423828125" lon="-118.41502524912357330322265625">
        <ele>3270.199951171875</ele>
        <time>2021-06-25T16:23:48.000Z</time>
        <extensions>
          <ns3:TrackPointExtension>
            <ns3:atemp>26.0</ns3:atemp>
            <ns3:hr>110</ns3:hr>
          </ns3:TrackPointExtension>
        </extensions>
      </trkpt>
      <trkpt lat="36.769824363291263580322265625" lon="-118.41506388969719409942626953125">
        <ele>3270.800048828125</ele>
        <time>2021-06-25T16:23:53.000Z</time>
        <extensions>
          <ns3:TrackPointExtension>
            <ns3:atemp>26.0</ns3:atemp>
            <ns3:hr>108</ns3:hr>
          </ns3:TrackPointExtension>
        </extensions>
      </trkpt>
      <trkpt lat="36.76985663361847400665283203125" lon="-118.41509942896664142608642578125">
        <ele>3270.800048828125</ele>
        <time>2021-06-25T16:23:58.000Z</time>
        <extensions>
          <ns3:TrackPointExtension>
            <ns3:atemp>26.0</ns3:atemp>
            <ns3:hr>106</ns3:hr>
          </ns3:TrackPointExtension>
        </extensions>
      </trkpt>
      <trkpt lat="36.76986451260745525360107421875" lon="-118.415105380117893218994140625">
        <ele>3270.800048828125</ele>
        <time>2021-06-25T16:23:59.000Z</time>
        <extensions>
          <ns3:TrackPointExtension>
            <ns3:atemp>26.0</ns3:atemp>
            <ns3:hr>109</ns3:hr>
          </ns3:TrackPointExtension>
        </extensions>
      </trkpt>
      <trkpt lat="36.76987834274768829345703125" lon="-118.415121138095855712890625">
        <ele>3271</ele>
        <time>2021-06-25T16:24:01.000Z</time>
        <extensions>
          <ns3:TrackPointExtension>
            <ns3:atemp>26.0</ns3:atemp>
            <ns3:hr>110</ns3:hr>
          </ns3:TrackPointExtension>
        </extensions>
      </trkpt>
      <trkpt lat="36.76990994252264499664306640625" lon="-118.41514485888183116912841796875">
        <ele>3271.39990234375</ele>
        <time>2021-06-25T16:24:05.000Z</time>
        <extensions>
          <ns3:TrackPointExtension>
            <ns3:atemp>26.0</ns3:atemp>
            <ns3:hr>113</ns3:hr>
          </ns3:TrackPointExtension>
        </extensions>
      </trkpt>
      <trkpt lat="36.769932322204113006591796875" lon="-118.41515039093792438507080078125">
        <ele>3271.39990234375</ele>
        <time>2021-06-25T16:24:07.000Z</time>
        <extensions>
          <ns3:TrackPointExtension>
            <ns3:atemp>26.0</ns3:atemp>
            <ns3:hr>115</ns3:hr>
          </ns3:TrackPointExtension>
        </extensions>
      </trkpt>
      <trkpt lat="36.7699428834021091461181640625" lon="-118.41515189968049526214599609375">
        <ele>3271.39990234375</ele>
        <time>2021-06-25T16:24:08.000Z</time>
        <extensions>
          <ns3:TrackPointExtension>
            <ns3:atemp>26.0</ns3:atemp>
            <ns3:hr>117</ns3:hr>
          </ns3:TrackPointExtension>
        </extensions>
      </trkpt>
      <trkpt lat="36.76996157504618167877197265625" lon="-118.4151561744511127471923828125">
        <ele>3271.800048828125</ele>
        <time>2021-06-25T16:24:10.000Z</time>
        <extensions>
          <ns3:TrackPointExtension>
            <ns3:atemp>26.0</ns3:atemp>
            <ns3:hr>119</ns3:hr>
          </ns3:TrackPointExtension>
        </extensions>
      </trkpt>
      <trkpt lat="36.77000516094267368316650390625" lon="-118.415173776447772979736328125">
        <ele>3271.800048828125</ele>
        <time>2021-06-25T16:24:15.000Z</time>
        <extensions>
          <ns3:TrackPointExtension>
            <ns3:atemp>26.0</ns3:atemp>
            <ns3:hr>120</ns3:hr>
          </ns3:TrackPointExtension>
        </extensions>
      </trkpt>
      <trkpt lat="36.77003315649926662445068359375" lon="-118.415195234119892120361328125">
        <ele>3271.800048828125</ele>
        <time>2021-06-25T16:24:18.000Z</time>
        <extensions>
          <ns3:TrackPointExtension>
            <ns3:atemp>26.0</ns3:atemp>
            <ns3:hr>123</ns3:hr>
          </ns3:TrackPointExtension>
        </extensions>
      </trkpt>
      <trkpt lat="36.7700796760618686676025390625" lon="-118.41523119248449802398681640625">
        <ele>3271.800048828125</ele>
        <time>2021-06-25T16:24:22.000Z</time>
        <extensions>
          <ns3:TrackPointExtension>
            <ns3:atemp>26.0</ns3:atemp>
            <ns3:hr>124</ns3:hr>
          </ns3:TrackPointExtension>
        </extensions>
      </trkpt>
      <trkpt lat="36.7700877226889133453369140625" lon="-118.4152369759976863861083984375">
        <ele>3271.60009765625</ele>
        <time>2021-06-25T16:24:23.000Z</time>
        <extensions>
          <ns3:TrackPointExtension>
            <ns3:atemp>26.0</ns3:atemp>
            <ns3:hr>121</ns3:hr>
          </ns3:TrackPointExtension>
        </extensions>
      </trkpt>
      <trkpt lat="36.7700950987637042999267578125" lon="-118.41524175368249416351318359375">
        <ele>3271.60009765625</ele>
        <time>2021-06-25T16:24:24.000Z</time>
        <extensions>
          <ns3:TrackPointExtension>
            <ns3:atemp>26.0</ns3:atemp>
            <ns3:hr>121</ns3:hr>
          </ns3:TrackPointExtension>
        </extensions>
      </trkpt>
      <trkpt lat="36.7701299674808979034423828125" lon="-118.4152493812143802642822265625">
        <ele>3271.60009765625</ele>
        <time>2021-06-25T16:24:28.000Z</time>
        <extensions>
          <ns3:TrackPointExtension>
            <ns3:atemp>26.0</ns3:atemp>
            <ns3:hr>118</ns3:hr>
          </ns3:TrackPointExtension>
        </extensions>
      </trkpt>
      <trkpt lat="36.77013306878507137298583984375" lon="-118.41525323688983917236328125">
        <ele>3271.800048828125</ele>
        <time>2021-06-25T16:24:29.000Z</time>
        <extensions>
          <ns3:TrackPointExtension>
            <ns3:atemp>26.0</ns3:atemp>
            <ns3:hr>117</ns3:hr>
          </ns3:TrackPointExtension>
        </extensions>
      </trkpt>
      <trkpt lat="36.77013860084116458892822265625" lon="-118.4152503870427608489990234375">
        <ele>3272</ele>
        <time>2021-06-25T16:24:30.000Z</time>
        <extensions>
          <ns3:TrackPointExtension>
            <ns3:atemp>26.0</ns3:atemp>
            <ns3:hr>116</ns3:hr>
          </ns3:TrackPointExtension>
        </extensions>
      </trkpt>
      <trkpt lat="36.77013893611729145050048828125" lon="-118.415253572165966033935546875">
        <ele>3272.199951171875</ele>
        <time>2021-06-25T16:24:31.000Z</time>
        <extensions>
          <ns3:TrackPointExtension>
            <ns3:atemp>26.0</ns3:atemp>
            <ns3:hr>114</ns3:hr>
          </ns3:TrackPointExtension>
        </extensions>
      </trkpt>
      <trkpt lat="36.7701383493840694427490234375" lon="-118.415256924927234649658203125">
        <ele>3272.199951171875</ele>
        <time>2021-06-25T16:24:33.000Z</time>
        <extensions>
          <ns3:TrackPointExtension>
            <ns3:atemp>26.0</ns3:atemp>
            <ns3:hr>111</ns3:hr>
          </ns3:TrackPointExtension>
        </extensions>
      </trkpt>
      <trkpt lat="36.770152263343334197998046875" lon="-118.4152611158788204193115234375">
        <ele>3272</ele>
        <time>2021-06-25T16:24:36.000Z</time>
        <extensions>
          <ns3:TrackPointExtension>
            <ns3:atemp>26.0</ns3:atemp>
            <ns3:hr>108</ns3:hr>
          </ns3:TrackPointExtension>
        </extensions>
      </trkpt>
      <trkpt lat="36.77016274072229862213134765625" lon="-118.4152807295322418212890625">
        <ele>3271.800048828125</ele>
        <time>2021-06-25T16:24:38.000Z</time>
        <extensions>
          <ns3:TrackPointExtension>
            <ns3:atemp>26.0</ns3:atemp>
            <ns3:hr>105</ns3:hr>
          </ns3:TrackPointExtension>
        </extensions>
      </trkpt>
      <trkpt lat="36.770184449851512908935546875" lon="-118.4153147600591182708740234375">
        <ele>3271.60009765625</ele>
        <time>2021-06-25T16:24:41.000Z</time>
        <extensions>
          <ns3:TrackPointExtension>
            <ns3:atemp>26.0</ns3:atemp>
            <ns3:hr>102</ns3:hr>
          </ns3:TrackPointExtension>
        </extensions>
      </trkpt>
      <trkpt lat="36.77021227777004241943359375" lon="-118.4153388999402523040771484375">
        <ele>3271.199951171875</ele>
        <time>2021-06-25T16:24:44.000Z</time>
        <extensions>
          <ns3:TrackPointExtension>
            <ns3:atemp>26.0</ns3:atemp>
            <ns3:hr>99</ns3:hr>
          </ns3:TrackPointExtension>
        </extensions>
      </trkpt>
      <trkpt lat="36.77022166550159454345703125" lon="-118.41534568928182125091552734375">
        <ele>3271</ele>
        <time>2021-06-25T16:24:45.000Z</time>
        <extensions>
          <ns3:TrackPointExtension>
            <ns3:atemp>26.0</ns3:atemp>
            <ns3:hr>98</ns3:hr>
          </ns3:TrackPointExtension>
        </extensions>
      </trkpt>
      <trkpt lat="36.77024957723915576934814453125" lon="-118.4153519757091999053955078125">
        <ele>3270.39990234375</ele>
        <time>2021-06-25T16:24:48.000Z</time>
        <extensions>
          <ns3:TrackPointExtension>
            <ns3:atemp>26.0</ns3:atemp>
            <ns3:hr>95</ns3:hr>
          </ns3:TrackPointExtension>
        </extensions>
      </trkpt>
      <trkpt lat="36.77029651589691638946533203125" lon="-118.41537619940936565399169921875">
        <ele>3270.199951171875</ele>
        <time>2021-06-25T16:24:53.000Z</time>
        <extensions>
          <ns3:TrackPointExtension>
            <ns3:atemp>26.0</ns3:atemp>
            <ns3:hr>98</ns3:hr>
          </ns3:TrackPointExtension>
        </extensions>
      </trkpt>
      <trkpt lat="36.77031151950359344482421875" lon="-118.415398411452770233154296875">
        <ele>3269.800048828125</ele>
        <time>2021-06-25T16:24:55.000Z</time>
        <extensions>
          <ns3:TrackPointExtension>
            <ns3:atemp>26.0</ns3:atemp>
            <ns3:hr>98</ns3:hr>
          </ns3:TrackPointExtension>
        </extensions>
      </trkpt>
      <trkpt lat="36.7703569494187831878662109375" lon="-118.4154549054801464080810546875">
        <ele>3269.199951171875</ele>
        <time>2021-06-25T16:25:02.000Z</time>
        <extensions>
          <ns3:TrackPointExtension>
            <ns3:atemp>26.0</ns3:atemp>
            <ns3:hr>97</ns3:hr>
          </ns3:TrackPointExtension>
        </extensions>
      </trkpt>
      <trkpt lat="36.7703921534121036529541015625" lon="-118.415536545217037200927734375">
        <ele>3268.39990234375</ele>
        <time>2021-06-25T16:25:11.000Z</time>
        <extensions>
          <ns3:TrackPointExtension>
            <ns3:atemp>26.0</ns3:atemp>
            <ns3:hr>98</ns3:hr>
          </ns3:TrackPointExtension>
        </extensions>
      </trkpt>
      <trkpt lat="36.77039676345884799957275390625" lon="-118.41554132290184497833251953125">
        <ele>3268</ele>
        <time>2021-06-25T16:25:12.000Z</time>
        <extensions>
          <ns3:TrackPointExtension>
            <ns3:atemp>26.0</ns3:atemp>
            <ns3:hr>97</ns3:hr>
          </ns3:TrackPointExtension>
        </extensions>
      </trkpt>
      <trkpt lat="36.77040497772395610809326171875" lon="-118.415582813322544097900390625">
        <ele>3267.39990234375</ele>
        <time>2021-06-25T16:25:17.000Z</time>
        <extensions>
          <ns3:TrackPointExtension>
            <ns3:atemp>26.0</ns3:atemp>
            <ns3:hr>98</ns3:hr>
          </ns3:TrackPointExtension>
        </extensions>
      </trkpt>
      <trkpt lat="36.77042149007320404052734375" lon="-118.4156295843422412872314453125">
        <ele>3267.39990234375</ele>
        <time>2021-06-25T16:25:26.000Z</time>
        <extensions>
          <ns3:TrackPointExtension>
            <ns3:atemp>26.0</ns3:atemp>
            <ns3:hr>99</ns3:hr>
          </ns3:TrackPointExtension>
        </extensions>
      </trkpt>
      <trkpt lat="36.7704183049499988555908203125" lon="-118.41567358933389186859130859375">
        <ele>3267.39990234375</ele>
        <time>2021-06-25T16:25:31.000Z</time>
        <extensions>
          <ns3:TrackPointExtension>
            <ns3:atemp>26.0</ns3:atemp>
            <ns3:hr>102</ns3:hr>
          </ns3:TrackPointExtension>
        </extensions>
      </trkpt>
      <trkpt lat="36.7704176343977451324462890625" lon="-118.41568649746477603912353515625">
        <ele>3267.199951171875</ele>
        <time>2021-06-25T16:25:32.000Z</time>
        <extensions>
          <ns3:TrackPointExtension>
            <ns3:atemp>26.0</ns3:atemp>
            <ns3:hr>99</ns3:hr>
          </ns3:TrackPointExtension>
        </extensions>
      </trkpt>
      <trkpt lat="36.7704176343977451324462890625" lon="-118.41569571755826473236083984375">
        <ele>3267.199951171875</ele>
        <time>2021-06-25T16:25:33.000Z</time>
        <extensions>
          <ns3:TrackPointExtension>
            <ns3:atemp>26.0</ns3:atemp>
            <ns3:hr>97</ns3:hr>
          </ns3:TrackPointExtension>
        </extensions>
      </trkpt>
      <trkpt lat="36.77041956223547458648681640625" lon="-118.41570694930851459503173828125">
        <ele>3267.199951171875</ele>
        <time>2021-06-25T16:25:34.000Z</time>
        <extensions>
          <ns3:TrackPointExtension>
            <ns3:atemp>26.0</ns3:atemp>
            <ns3:hr>100</ns3:hr>
          </ns3:TrackPointExtension>
        </extensions>
      </trkpt>
      <trkpt lat="36.77042551338672637939453125" lon="-118.41574081219732761383056640625">
        <ele>3266.800048828125</ele>
        <time>2021-06-25T16:25:37.000Z</time>
        <extensions>
          <ns3:TrackPointExtension>
            <ns3:atemp>26.0</ns3:atemp>
            <ns3:hr>97</ns3:hr>
          </ns3:TrackPointExtension>
        </extensions>
      </trkpt>
      <trkpt lat="36.77043699659407138824462890625" lon="-118.4158386290073394775390625">
        <ele>3266.60009765625</ele>
        <time>2021-06-25T16:25:44.000Z</time>
        <extensions>
          <ns3:TrackPointExtension>
            <ns3:atemp>26.0</ns3:atemp>
            <ns3:hr>97</ns3:hr>
          </ns3:TrackPointExtension>
        </extensions>
      </trkpt>
      <trkpt lat="36.77045208401978015899658203125" lon="-118.41589168645441532135009765625">
        <ele>3266.199951171875</ele>
        <time>2021-06-25T16:25:48.000Z</time>
        <extensions>
          <ns3:TrackPointExtension>
            <ns3:atemp>26.0</ns3:atemp>
            <ns3:hr>97</ns3:hr>
          </ns3:TrackPointExtension>
        </extensions>
      </trkpt>
      <trkpt lat="36.77047153003513813018798828125" lon="-118.41593988239765167236328125">
        <ele>3266.199951171875</ele>
        <time>2021-06-25T16:25:52.000Z</time>
        <extensions>
          <ns3:TrackPointExtension>
            <ns3:atemp>26.0</ns3:atemp>
            <ns3:hr>94</ns3:hr>
          </ns3:TrackPointExtension>
        </extensions>
      </trkpt>
      <trkpt lat="36.77048561163246631622314453125" lon="-118.41597617603838443756103515625">
        <ele>3266.199951171875</ele>
        <time>2021-06-25T16:25:55.000Z</time>
        <extensions>
          <ns3:TrackPointExtension>
            <ns3:atemp>26.0</ns3:atemp>
            <ns3:hr>97</ns3:hr>
          </ns3:TrackPointExtension>
        </extensions>
      </trkpt>
      <trkpt lat="36.77048988640308380126953125" lon="-118.41599025763571262359619140625">
        <ele>3266.199951171875</ele>
        <time>2021-06-25T16:25:56.000Z</time>
        <extensions>
          <ns3:TrackPointExtension>
            <ns3:atemp>26.0</ns3:atemp>
            <ns3:hr>96</ns3:hr>
          </ns3:TrackPointExtension>
        </extensions>
      </trkpt>
      <trkpt lat="36.77049835212528705596923828125" lon="-118.41603233478963375091552734375">
        <ele>3266.199951171875</ele>
        <time>2021-06-25T16:25:59.000Z</time>
        <extensions>
          <ns3:TrackPointExtension>
            <ns3:atemp>26.0</ns3:atemp>
            <ns3:hr>93</ns3:hr>
          </ns3:TrackPointExtension>
        </extensions>
      </trkpt>
      <trkpt lat="36.7705430276691913604736328125" lon="-118.416137360036373138427734375">
        <ele>3266.199951171875</ele>
        <time>2021-06-25T16:26:07.000Z</time>
        <extensions>
          <ns3:TrackPointExtension>
            <ns3:atemp>26.0</ns3:atemp>
            <ns3:hr>92</ns3:hr>
          </ns3:TrackPointExtension>
        </extensions>
      </trkpt>
      <trkpt lat="36.7706057243049144744873046875" lon="-118.4162374399602413177490234375">
        <ele>3265.60009765625</ele>
        <time>2021-06-25T16:26:17.000Z</time>
        <extensions>
          <ns3:TrackPointExtension>
            <ns3:atemp>26.0</ns3:atemp>
            <ns3:hr>91</ns3:hr>
          </ns3:TrackPointExtension>
        </extensions>
      </trkpt>
      <trkpt lat="36.77064143121242523193359375" lon="-118.41631497256457805633544921875">
        <ele>3265.39990234375</ele>
        <time>2021-06-25T16:26:26.000Z</time>
        <extensions>
          <ns3:TrackPointExtension>
            <ns3:atemp>26.0</ns3:atemp>
            <ns3:hr>94</ns3:hr>
          </ns3:TrackPointExtension>
        </extensions>
      </trkpt>
      <trkpt lat="36.77064117975533008575439453125" lon="-118.41631312854588031768798828125">
        <ele>3265.39990234375</ele>
        <time>2021-06-25T16:26:28.000Z</time>
        <extensions>
          <ns3:TrackPointExtension>
            <ns3:atemp>26.0</ns3:atemp>
            <ns3:hr>94</ns3:hr>
          </ns3:TrackPointExtension>
        </extensions>
      </trkpt>
      <trkpt lat="36.77065224386751651763916015625" lon="-118.41629619710147380828857421875">
        <ele>3265.800048828125</ele>
        <time>2021-06-25T16:26:36.000Z</time>
        <extensions>
          <ns3:TrackPointExtension>
            <ns3:atemp>26.0</ns3:atemp>
            <ns3:hr>95</ns3:hr>
          </ns3:TrackPointExtension>
        </extensions>
      </trkpt>
      <trkpt lat="36.77065559662878513336181640625" lon="-118.4162961132824420928955078125">
        <ele>3265.800048828125</ele>
        <time>2021-06-25T16:26:39.000Z</time>
        <extensions>
          <ns3:TrackPointExtension>
            <ns3:atemp>26.0</ns3:atemp>
            <ns3:hr>92</ns3:hr>
          </ns3:TrackPointExtension>
        </extensions>
      </trkpt>
      <trkpt lat="36.77065559662878513336181640625" lon="-118.4162961132824420928955078125">
        <ele>3265.800048828125</ele>
        <time>2021-06-25T16:26:41.000Z</time>
        <extensions>
          <ns3:TrackPointExtension>
            <ns3:atemp>26.0</ns3:atemp>
            <ns3:hr>89</ns3:hr>
          </ns3:TrackPointExtension>
        </extensions>
      </trkpt>
      <trkpt lat="36.77065559662878513336181640625" lon="-118.4162961132824420928955078125">
        <ele>3266</ele>
        <time>2021-06-25T16:26:44.000Z</time>
        <extensions>
          <ns3:TrackPointExtension>
            <ns3:atemp>26.0</ns3:atemp>
            <ns3:hr>85</ns3:hr>
          </ns3:TrackPointExtension>
        </extensions>
      </trkpt>
      <trkpt lat="36.77065241150557994842529296875" lon="-118.4162961132824420928955078125">
        <ele>3265.800048828125</ele>
        <time>2021-06-25T16:26:48.000Z</time>
        <extensions>
          <ns3:TrackPointExtension>
            <ns3:atemp>26.0</ns3:atemp>
            <ns3:hr>82</ns3:hr>
          </ns3:TrackPointExtension>
        </extensions>
      </trkpt>
      <trkpt lat="36.7706513218581676483154296875" lon="-118.4162961132824420928955078125">
        <ele>3266.199951171875</ele>
        <time>2021-06-25T16:26:53.000Z</time>
        <extensions>
          <ns3:TrackPointExtension>
            <ns3:atemp>26.0</ns3:atemp>
            <ns3:hr>77</ns3:hr>
          </ns3:TrackPointExtension>
        </extensions>
      </trkpt>
      <trkpt lat="36.7706488072872161865234375" lon="-118.4162961132824420928955078125">
        <ele>3266.39990234375</ele>
        <time>2021-06-25T16:26:54.000Z</time>
        <extensions>
          <ns3:TrackPointExtension>
            <ns3:atemp>26.0</ns3:atemp>
            <ns3:hr>80</ns3:hr>
          </ns3:TrackPointExtension>
        </extensions>
      </trkpt>
      <trkpt lat="36.77064855583012104034423828125" lon="-118.41629619710147380828857421875">
        <ele>3266.800048828125</ele>
        <time>2021-06-25T16:26:56.000Z</time>
        <extensions>
          <ns3:TrackPointExtension>
            <ns3:atemp>25.0</ns3:atemp>
            <ns3:hr>83</ns3:hr>
          </ns3:TrackPointExtension>
        </extensions>
      </trkpt>
      <trkpt lat="36.7706472985446453094482421875" lon="-118.4162987954914569854736328125">
        <ele>3266.60009765625</ele>
        <time>2021-06-25T16:27:00.000Z</time>
        <extensions>
          <ns3:TrackPointExtension>
            <ns3:atemp>25.0</ns3:atemp>
            <ns3:hr>82</ns3:hr>
          </ns3:TrackPointExtension>
        </extensions>
      </trkpt>
      <trkpt lat="36.77064788527786731719970703125" lon="-118.4163011424243450164794921875">
        <ele>3267.39990234375</ele>
        <time>2021-06-25T16:27:04.000Z</time>
        <extensions>
          <ns3:TrackPointExtension>
            <ns3:atemp>25.0</ns3:atemp>
            <ns3:hr>83</ns3:hr>
          </ns3:TrackPointExtension>
        </extensions>
      </trkpt>
      <trkpt lat="36.77065241150557994842529296875" lon="-118.4163065068423748016357421875">
        <ele>3267.39990234375</ele>
        <time>2021-06-25T16:27:16.000Z</time>
        <extensions>
          <ns3:TrackPointExtension>
            <ns3:atemp>25.0</ns3:atemp>
            <ns3:hr>88</ns3:hr>
          </ns3:TrackPointExtension>
        </extensions>
      </trkpt>
      <trkpt lat="36.77065324969589710235595703125" lon="-118.41631145216524600982666015625">
        <ele>3267</ele>
        <time>2021-06-25T16:27:17.000Z</time>
        <extensions>
          <ns3:TrackPointExtension>
            <ns3:atemp>25.0</ns3:atemp>
            <ns3:hr>85</ns3:hr>
          </ns3:TrackPointExtension>
        </extensions>
      </trkpt>
      <trkpt lat="36.77065710537135601043701171875" lon="-118.4163487516343593597412109375">
        <ele>3265.60009765625</ele>
        <time>2021-06-25T16:27:48.000Z</time>
        <extensions>
          <ns3:TrackPointExtension>
            <ns3:atemp>25.0</ns3:atemp>
            <ns3:hr>95</ns3:hr>
          </ns3:TrackPointExtension>
        </extensions>
      </trkpt>
      <trkpt lat="36.77065475843846797943115234375" lon="-118.41637213714420795440673828125">
        <ele>3265.60009765625</ele>
        <time>2021-06-25T16:27:49.000Z</time>
        <extensions>
          <ns3:TrackPointExtension>
            <ns3:atemp>25.0</ns3:atemp>
            <ns3:hr>96</ns3:hr>
          </ns3:TrackPointExtension>
        </extensions>
      </trkpt>
      <trkpt lat="36.77064034156501293182373046875" lon="-118.416435085237026214599609375">
        <ele>3265.60009765625</ele>
        <time>2021-06-25T16:27:52.000Z</time>
        <extensions>
          <ns3:TrackPointExtension>
            <ns3:atemp>25.0</ns3:atemp>
            <ns3:hr>97</ns3:hr>
          </ns3:TrackPointExtension>
        </extensions>
      </trkpt>
      <trkpt lat="36.770597510039806365966796875" lon="-118.4166089259088039398193359375">
        <ele>3265.39990234375</ele>
        <time>2021-06-25T16:28:03.000Z</time>
        <extensions>
          <ns3:TrackPointExtension>
            <ns3:atemp>25.0</ns3:atemp>
            <ns3:hr>95</ns3:hr>
          </ns3:TrackPointExtension>
        </extensions>
      </trkpt>
      <trkpt lat="36.770595498383045196533203125" lon="-118.41664438135921955108642578125">
        <ele>3265.800048828125</ele>
        <time>2021-06-25T16:28:06.000Z</time>
        <extensions>
          <ns3:TrackPointExtension>
            <ns3:atemp>25.0</ns3:atemp>
            <ns3:hr>92</ns3:hr>
          </ns3:TrackPointExtension>
        </extensions>
      </trkpt>
      <trkpt lat="36.770596839487552642822265625" lon="-118.4167148731648921966552734375">
        <ele>3266</ele>
        <time>2021-06-25T16:28:12.000Z</time>
        <extensions>
          <ns3:TrackPointExtension>
            <ns3:atemp>25.0</ns3:atemp>
            <ns3:hr>91</ns3:hr>
          </ns3:TrackPointExtension>
        </extensions>
      </trkpt>
      <trkpt lat="36.770594157278537750244140625" lon="-118.41680824756622314453125">
        <ele>3266.39990234375</ele>
        <time>2021-06-25T16:28:19.000Z</time>
        <extensions>
          <ns3:TrackPointExtension>
            <ns3:atemp>25.0</ns3:atemp>
            <ns3:hr>94</ns3:hr>
          </ns3:TrackPointExtension>
        </extensions>
      </trkpt>
      <trkpt lat="36.7706017009913921356201171875" lon="-118.416843116283416748046875">
        <ele>3266.199951171875</ele>
        <time>2021-06-25T16:28:22.000Z</time>
        <extensions>
          <ns3:TrackPointExtension>
            <ns3:atemp>25.0</ns3:atemp>
            <ns3:hr>97</ns3:hr>
          </ns3:TrackPointExtension>
        </extensions>
      </trkpt>
      <trkpt lat="36.77060798741877079010009765625" lon="-118.4168486483395099639892578125">
        <ele>3266.199951171875</ele>
        <time>2021-06-25T16:28:25.000Z</time>
        <extensions>
          <ns3:TrackPointExtension>
            <ns3:atemp>25.0</ns3:atemp>
            <ns3:hr>98</ns3:hr>
          </ns3:TrackPointExtension>
        </extensions>
      </trkpt>
      <trkpt lat="36.77060346119105815887451171875" lon="-118.41684688813984394073486328125">
        <ele>3266.39990234375</ele>
        <time>2021-06-25T16:28:28.000Z</time>
        <extensions>
          <ns3:TrackPointExtension>
            <ns3:atemp>25.0</ns3:atemp>
            <ns3:hr>99</ns3:hr>
          </ns3:TrackPointExtension>
        </extensions>
      </trkpt>
      <trkpt lat="36.7706084065139293670654296875" lon="-118.4169146977365016937255859375">
        <ele>3266.39990234375</ele>
        <time>2021-06-25T16:28:34.000Z</time>
        <extensions>
          <ns3:TrackPointExtension>
            <ns3:atemp>25.0</ns3:atemp>
            <ns3:hr>98</ns3:hr>
          </ns3:TrackPointExtension>
        </extensions>
      </trkpt>
      <trkpt lat="36.7706117592751979827880859375" lon="-118.41693825088441371917724609375">
        <ele>3266.60009765625</ele>
        <time>2021-06-25T16:28:36.000Z</time>
        <extensions>
          <ns3:TrackPointExtension>
            <ns3:atemp>25.0</ns3:atemp>
            <ns3:hr>97</ns3:hr>
          </ns3:TrackPointExtension>
        </extensions>
      </trkpt>
      <trkpt lat="36.77061083726584911346435546875" lon="-118.41695082373917102813720703125">
        <ele>3266.800048828125</ele>
        <time>2021-06-25T16:28:37.000Z</time>
        <extensions>
          <ns3:TrackPointExtension>
            <ns3:atemp>25.0</ns3:atemp>
            <ns3:hr>96</ns3:hr>
          </ns3:TrackPointExtension>
        </extensions>
      </trkpt>
      <trkpt lat="36.77061251364648342132568359375" lon="-118.41702659614384174346923828125">
        <ele>3266.800048828125</ele>
        <time>2021-06-25T16:28:42.000Z</time>
        <extensions>
          <ns3:TrackPointExtension>
            <ns3:atemp>25.0</ns3:atemp>
            <ns3:hr>93</ns3:hr>
          </ns3:TrackPointExtension>
        </extensions>
      </trkpt>
      <trkpt lat="36.77061921916902065277099609375" lon="-118.41705760918557643890380859375">
        <ele>3266.60009765625</ele>
        <time>2021-06-25T16:28:44.000Z</time>
        <extensions>
          <ns3:TrackPointExtension>
            <ns3:atemp>25.0</ns3:atemp>
            <ns3:hr>92</ns3:hr>
          </ns3:TrackPointExtension>
        </extensions>
      </trkpt>
      <trkpt lat="36.770620308816432952880859375" lon="-118.4170877002179622650146484375">
        <ele>3266.60009765625</ele>
        <time>2021-06-25T16:28:47.000Z</time>
        <extensions>
          <ns3:TrackPointExtension>
            <ns3:atemp>25.0</ns3:atemp>
            <ns3:hr>92</ns3:hr>
          </ns3:TrackPointExtension>
        </extensions>
      </trkpt>
      <trkpt lat="36.7705913074314594268798828125" lon="-118.4171175397932529449462890625">
        <ele>3266.60009765625</ele>
        <time>2021-06-25T16:28:51.000Z</time>
        <extensions>
          <ns3:TrackPointExtension>
            <ns3:atemp>25.0</ns3:atemp>
            <ns3:hr>94</ns3:hr>
          </ns3:TrackPointExtension>
        </extensions>
      </trkpt>
      <trkpt lat="36.7705594561994075775146484375" lon="-118.4172080643475055694580078125">
        <ele>3266.39990234375</ele>
        <time>2021-06-25T16:29:00.000Z</time>
        <extensions>
          <ns3:TrackPointExtension>
            <ns3:atemp>25.0</ns3:atemp>
            <ns3:hr>96</ns3:hr>
          </ns3:TrackPointExtension>
        </extensions>
      </trkpt>
      <trkpt lat="36.77052349783480167388916015625" lon="-118.417265228927135467529296875">
        <ele>3266</ele>
        <time>2021-06-25T16:29:06.000Z</time>
        <extensions>
          <ns3:TrackPointExtension>
            <ns3:atemp>25.0</ns3:atemp>
            <ns3:hr>93</ns3:hr>
          </ns3:TrackPointExtension>
        </extensions>
      </trkpt>
      <trkpt lat="36.77049248479306697845458984375" lon="-118.41729104518890380859375">
        <ele>3266.800048828125</ele>
        <time>2021-06-25T16:29:10.000Z</time>
        <extensions>
          <ns3:TrackPointExtension>
            <ns3:atemp>25.0</ns3:atemp>
            <ns3:hr>90</ns3:hr>
          </ns3:TrackPointExtension>
        </extensions>
      </trkpt>
      <trkpt lat="36.77048049867153167724609375" lon="-118.41730319894850254058837890625">
        <ele>3267.199951171875</ele>
        <time>2021-06-25T16:29:12.000Z</time>
        <extensions>
          <ns3:TrackPointExtension>
            <ns3:atemp>25.0</ns3:atemp>
            <ns3:hr>90</ns3:hr>
          </ns3:TrackPointExtension>
        </extensions>
      </trkpt>
      <trkpt lat="36.77045510150492191314697265625" lon="-118.417326919734477996826171875">
        <ele>3267.800048828125</ele>
        <time>2021-06-25T16:29:16.000Z</time>
        <extensions>
          <ns3:TrackPointExtension>
            <ns3:atemp>25.0</ns3:atemp>
            <ns3:hr>93</ns3:hr>
          </ns3:TrackPointExtension>
        </extensions>
      </trkpt>
      <trkpt lat="36.77044118754565715789794921875" lon="-118.41735332272946834564208984375">
        <ele>3268.199951171875</ele>
        <time>2021-06-25T16:29:20.000Z</time>
        <extensions>
          <ns3:TrackPointExtension>
            <ns3:atemp>25.0</ns3:atemp>
            <ns3:hr>96</ns3:hr>
          </ns3:TrackPointExtension>
        </extensions>
      </trkpt>
      <trkpt lat="36.77044571377336978912353515625" lon="-118.4173639677464962005615234375">
        <ele>3268.60009765625</ele>
        <time>2021-06-25T16:29:22.000Z</time>
        <extensions>
          <ns3:TrackPointExtension>
            <ns3:atemp>25.0</ns3:atemp>
            <ns3:hr>96</ns3:hr>
          </ns3:TrackPointExtension>
        </extensions>
      </trkpt>
      <trkpt lat="36.7704451270401477813720703125" lon="-118.41738567687571048736572265625">
        <ele>3268.60009765625</ele>
        <time>2021-06-25T16:29:25.000Z</time>
        <extensions>
          <ns3:TrackPointExtension>
            <ns3:atemp>25.0</ns3:atemp>
            <ns3:hr>100</ns3:hr>
          </ns3:TrackPointExtension>
        </extensions>
      </trkpt>
      <trkpt lat="36.7704422771930694580078125" lon="-118.4173964895308017730712890625">
        <ele>3268.60009765625</ele>
        <time>2021-06-25T16:29:26.000Z</time>
        <extensions>
          <ns3:TrackPointExtension>
            <ns3:atemp>25.0</ns3:atemp>
            <ns3:hr>101</ns3:hr>
          </ns3:TrackPointExtension>
        </extensions>
      </trkpt>
      <trkpt lat="36.77043414674699306488037109375" lon="-118.41741635464131832122802734375">
        <ele>3268.60009765625</ele>
        <time>2021-06-25T16:29:28.000Z</time>
        <extensions>
          <ns3:TrackPointExtension>
            <ns3:atemp>25.0</ns3:atemp>
            <ns3:hr>104</ns3:hr>
          </ns3:TrackPointExtension>
        </extensions>
      </trkpt>
      <trkpt lat="36.77043062634766101837158203125" lon="-118.41742716729640960693359375">
        <ele>3268.800048828125</ele>
        <time>2021-06-25T16:29:29.000Z</time>
        <extensions>
          <ns3:TrackPointExtension>
            <ns3:atemp>25.0</ns3:atemp>
            <ns3:hr>105</ns3:hr>
          </ns3:TrackPointExtension>
        </extensions>
      </trkpt>
      <trkpt lat="36.77042576484382152557373046875" lon="-118.41743814758956432342529296875">
        <ele>3269</ele>
        <time>2021-06-25T16:29:30.000Z</time>
        <extensions>
          <ns3:TrackPointExtension>
            <ns3:atemp>25.0</ns3:atemp>
            <ns3:hr>106</ns3:hr>
          </ns3:TrackPointExtension>
        </extensions>
      </trkpt>
      <trkpt lat="36.77041319198906421661376953125" lon="-118.41746849007904529571533203125">
        <ele>3269</ele>
        <time>2021-06-25T16:29:33.000Z</time>
        <extensions>
          <ns3:TrackPointExtension>
            <ns3:atemp>25.0</ns3:atemp>
            <ns3:hr>106</ns3:hr>
          </ns3:TrackPointExtension>
        </extensions>
      </trkpt>
      <trkpt lat="36.77041872404515743255615234375" lon="-118.41749112121760845184326171875">
        <ele>3269.199951171875</ele>
        <time>2021-06-25T16:29:35.000Z</time>
        <extensions>
          <ns3:TrackPointExtension>
            <ns3:atemp>25.0</ns3:atemp>
            <ns3:hr>103</ns3:hr>
          </ns3:TrackPointExtension>
        </extensions>
      </trkpt>
      <trkpt lat="36.77042660303413867950439453125" lon="-118.4175051189959049224853515625">
        <ele>3269.199951171875</ele>
        <time>2021-06-25T16:29:36.000Z</time>
        <extensions>
          <ns3:TrackPointExtension>
            <ns3:atemp>25.0</ns3:atemp>
            <ns3:hr>103</ns3:hr>
          </ns3:TrackPointExtension>
        </extensions>
      </trkpt>
      <trkpt lat="36.77044269628822803497314453125" lon="-118.41754476539790630340576171875">
        <ele>3269.199951171875</ele>
        <time>2021-06-25T16:29:39.000Z</time>
        <extensions>
          <ns3:TrackPointExtension>
            <ns3:atemp>25.0</ns3:atemp>
            <ns3:hr>101</ns3:hr>
          </ns3:TrackPointExtension>
        </extensions>
      </trkpt>
      <trkpt lat="36.77044034935534000396728515625" lon="-118.4175557456910610198974609375">
        <ele>3269.199951171875</ele>
        <time>2021-06-25T16:29:40.000Z</time>
        <extensions>
          <ns3:TrackPointExtension>
            <ns3:atemp>25.0</ns3:atemp>
            <ns3:hr>100</ns3:hr>
          </ns3:TrackPointExtension>
        </extensions>
      </trkpt>
      <trkpt lat="36.77043766714632511138916015625" lon="-118.4175637923181056976318359375">
        <ele>3269</ele>
        <time>2021-06-25T16:29:41.000Z</time>
        <extensions>
          <ns3:TrackPointExtension>
            <ns3:atemp>25.0</ns3:atemp>
            <ns3:hr>97</ns3:hr>
          </ns3:TrackPointExtension>
        </extensions>
      </trkpt>
      <trkpt lat="36.77043498493731021881103515625" lon="-118.417574353516101837158203125">
        <ele>3269</ele>
        <time>2021-06-25T16:29:42.000Z</time>
        <extensions>
          <ns3:TrackPointExtension>
            <ns3:atemp>25.0</ns3:atemp>
            <ns3:hr>99</ns3:hr>
          </ns3:TrackPointExtension>
        </extensions>
      </trkpt>
      <trkpt lat="36.7704018764197826385498046875" lon="-118.41772229410707950592041015625">
        <ele>3265.800048828125</ele>
        <time>2021-06-25T16:40:13.000Z</time>
        <extensions>
          <ns3:TrackPointExtension>
            <ns3:atemp>24.0</ns3:atemp>
            <ns3:hr>86</ns3:hr>
          </ns3:TrackPointExtension>
        </extensions>
      </trkpt>
      <trkpt lat="36.77040179260075092315673828125" lon="-118.41772229410707950592041015625">
        <ele>3265.800048828125</ele>
        <time>2021-06-25T16:40:14.000Z</time>
        <extensions>
          <ns3:TrackPointExtension>
            <ns3:atemp>24.0</ns3:atemp>
            <ns3:hr>86</ns3:hr>
          </ns3:TrackPointExtension>
        </extensions>
      </trkpt>
      <trkpt lat="36.77040179260075092315673828125" lon="-118.41772221028804779052734375">
        <ele>3266.199951171875</ele>
        <time>2021-06-25T16:40:17.000Z</time>
        <extensions>
          <ns3:TrackPointExtension>
            <ns3:atemp>24.0</ns3:atemp>
            <ns3:hr>86</ns3:hr>
          </ns3:TrackPointExtension>
        </extensions>
      </trkpt>
      <trkpt lat="36.7704608850181102752685546875" lon="-118.417732603847980499267578125">
        <ele>3265.800048828125</ele>
        <time>2021-06-25T16:40:24.000Z</time>
        <extensions>
          <ns3:TrackPointExtension>
            <ns3:atemp>24.0</ns3:atemp>
            <ns3:hr>86</ns3:hr>
          </ns3:TrackPointExtension>
        </extensions>
      </trkpt>
      <trkpt lat="36.77053489722311496734619140625" lon="-118.41775582171976566314697265625">
        <ele>3265.60009765625</ele>
        <time>2021-06-25T16:40:30.000Z</time>
        <extensions>
          <ns3:TrackPointExtension>
            <ns3:atemp>24.0</ns3:atemp>
            <ns3:hr>85</ns3:hr>
          </ns3:TrackPointExtension>
        </extensions>
      </trkpt>
      <trkpt lat="36.77054076455533504486083984375" lon="-118.41777451336383819580078125">
        <ele>3265.800048828125</ele>
        <time>2021-06-25T16:40:32.000Z</time>
        <extensions>
          <ns3:TrackPointExtension>
            <ns3:atemp>24.0</ns3:atemp>
            <ns3:hr>85</ns3:hr>
          </ns3:TrackPointExtension>
        </extensions>
      </trkpt>
      <trkpt lat="36.77055920474231243133544921875" lon="-118.41785908676683902740478515625">
        <ele>3265.39990234375</ele>
        <time>2021-06-25T16:40:39.000Z</time>
        <extensions>
          <ns3:TrackPointExtension>
            <ns3:atemp>24.0</ns3:atemp>
            <ns3:hr>85</ns3:hr>
          </ns3:TrackPointExtension>
        </extensions>
      </trkpt>
      <trkpt lat="36.77058250643312931060791015625" lon="-118.41790954582393169403076171875">
        <ele>3265.199951171875</ele>
        <time>2021-06-25T16:40:44.000Z</time>
        <extensions>
          <ns3:TrackPointExtension>
            <ns3:atemp>24.0</ns3:atemp>
            <ns3:hr>82</ns3:hr>
          </ns3:TrackPointExtension>
        </extensions>
      </trkpt>
      <trkpt lat="36.77058803848922252655029296875" lon="-118.41794483363628387451171875">
        <ele>3265.39990234375</ele>
        <time>2021-06-25T16:40:47.000Z</time>
        <extensions>
          <ns3:TrackPointExtension>
            <ns3:atemp>24.0</ns3:atemp>
            <ns3:hr>81</ns3:hr>
          </ns3:TrackPointExtension>
        </extensions>
      </trkpt>
      <trkpt lat="36.7705946601927280426025390625" lon="-118.41798833571374416351318359375">
        <ele>3265</ele>
        <time>2021-06-25T16:40:51.000Z</time>
        <extensions>
          <ns3:TrackPointExtension>
            <ns3:atemp>24.0</ns3:atemp>
            <ns3:hr>78</ns3:hr>
          </ns3:TrackPointExtension>
        </extensions>
      </trkpt>
      <trkpt lat="36.77060865797102451324462890625" lon="-118.418048433959484100341796875">
        <ele>3264.800048828125</ele>
        <time>2021-06-25T16:40:56.000Z</time>
        <extensions>
          <ns3:TrackPointExtension>
            <ns3:atemp>24.0</ns3:atemp>
            <ns3:hr>77</ns3:hr>
          </ns3:TrackPointExtension>
        </extensions>
      </trkpt>
      <trkpt lat="36.77061871625483036041259765625" lon="-118.41807064600288867950439453125">
        <ele>3264.60009765625</ele>
        <time>2021-06-25T16:40:58.000Z</time>
        <extensions>
          <ns3:TrackPointExtension>
            <ns3:atemp>24.0</ns3:atemp>
            <ns3:hr>77</ns3:hr>
          </ns3:TrackPointExtension>
        </extensions>
      </trkpt>
      <trkpt lat="36.77062927745282649993896484375" lon="-118.418090678751468658447265625">
        <ele>3266</ele>
        <time>2021-06-25T16:41:00.000Z</time>
        <extensions>
          <ns3:TrackPointExtension>
            <ns3:atemp>24.0</ns3:atemp>
            <ns3:hr>75</ns3:hr>
          </ns3:TrackPointExtension>
        </extensions>
      </trkpt>
      <trkpt lat="36.770637072622776031494140625" lon="-118.41810853220522403717041015625">
        <ele>3266</ele>
        <time>2021-06-25T16:41:02.000Z</time>
        <extensions>
          <ns3:TrackPointExtension>
            <ns3:atemp>24.0</ns3:atemp>
            <ns3:hr>78</ns3:hr>
          </ns3:TrackPointExtension>
        </extensions>
      </trkpt>
      <trkpt lat="36.77063900046050548553466796875" lon="-118.41811775229871273040771484375">
        <ele>3265.60009765625</ele>
        <time>2021-06-25T16:41:03.000Z</time>
        <extensions>
          <ns3:TrackPointExtension>
            <ns3:atemp>24.0</ns3:atemp>
            <ns3:hr>78</ns3:hr>
          </ns3:TrackPointExtension>
        </extensions>
      </trkpt>
      <trkpt lat="36.77063816227018833160400390625" lon="-118.4181270562112331390380859375">
        <ele>3265.60009765625</ele>
        <time>2021-06-25T16:41:04.000Z</time>
        <extensions>
          <ns3:TrackPointExtension>
            <ns3:atemp>24.0</ns3:atemp>
            <ns3:hr>79</ns3:hr>
          </ns3:TrackPointExtension>
        </extensions>
      </trkpt>
      <trkpt lat="36.77064335905015468597412109375" lon="-118.4181448258459568023681640625">
        <ele>3265.800048828125</ele>
        <time>2021-06-25T16:41:06.000Z</time>
        <extensions>
          <ns3:TrackPointExtension>
            <ns3:atemp>24.0</ns3:atemp>
            <ns3:hr>75</ns3:hr>
          </ns3:TrackPointExtension>
        </extensions>
      </trkpt>
      <trkpt lat="36.77065073512494564056396484375" lon="-118.418154381215572357177734375">
        <ele>3265.800048828125</ele>
        <time>2021-06-25T16:41:07.000Z</time>
        <extensions>
          <ns3:TrackPointExtension>
            <ns3:atemp>24.0</ns3:atemp>
            <ns3:hr>79</ns3:hr>
          </ns3:TrackPointExtension>
        </extensions>
      </trkpt>
      <trkpt lat="36.7706590332090854644775390625" lon="-118.418189585208892822265625">
        <ele>3265.39990234375</ele>
        <time>2021-06-25T16:41:11.000Z</time>
        <extensions>
          <ns3:TrackPointExtension>
            <ns3:atemp>24.0</ns3:atemp>
            <ns3:hr>80</ns3:hr>
          </ns3:TrackPointExtension>
        </extensions>
      </trkpt>
      <trkpt lat="36.77064537070691585540771484375" lon="-118.41822738759219646453857421875">
        <ele>3265</ele>
        <time>2021-06-25T16:41:15.000Z</time>
        <extensions>
          <ns3:TrackPointExtension>
            <ns3:atemp>24.0</ns3:atemp>
            <ns3:hr>83</ns3:hr>
          </ns3:TrackPointExtension>
        </extensions>
      </trkpt>
      <trkpt lat="36.770641766488552093505859375" lon="-118.41823912225663661956787109375">
        <ele>3264.800048828125</ele>
        <time>2021-06-25T16:41:16.000Z</time>
        <extensions>
          <ns3:TrackPointExtension>
            <ns3:atemp>24.0</ns3:atemp>
            <ns3:hr>84</ns3:hr>
          </ns3:TrackPointExtension>
        </extensions>
      </trkpt>
      <trkpt lat="36.77063330076634883880615234375" lon="-118.41829955577850341796875">
        <ele>3264.39990234375</ele>
        <time>2021-06-25T16:41:21.000Z</time>
        <extensions>
          <ns3:TrackPointExtension>
            <ns3:atemp>24.0</ns3:atemp>
            <ns3:hr>85</ns3:hr>
          </ns3:TrackPointExtension>
        </extensions>
      </trkpt>
      <trkpt lat="36.77064553834497928619384765625" lon="-118.4183811955153942108154296875">
        <ele>3264</ele>
        <time>2021-06-25T16:41:28.000Z</time>
        <extensions>
          <ns3:TrackPointExtension>
            <ns3:atemp>24.0</ns3:atemp>
            <ns3:hr>83</ns3:hr>
          </ns3:TrackPointExtension>
        </extensions>
      </trkpt>
      <trkpt lat="36.770657859742641448974609375" lon="-118.4184229373931884765625">
        <ele>3263.60009765625</ele>
        <time>2021-06-25T16:41:32.000Z</time>
        <extensions>
          <ns3:TrackPointExtension>
            <ns3:atemp>24.0</ns3:atemp>
            <ns3:hr>81</ns3:hr>
          </ns3:TrackPointExtension>
        </extensions>
      </trkpt>
      <trkpt lat="36.77066096104681491851806640625" lon="-118.41844364069402217864990234375">
        <ele>3263.39990234375</ele>
        <time>2021-06-25T16:41:34.000Z</time>
        <extensions>
          <ns3:TrackPointExtension>
            <ns3:atemp>24.0</ns3:atemp>
            <ns3:hr>81</ns3:hr>
          </ns3:TrackPointExtension>
        </extensions>
      </trkpt>
      <trkpt lat="36.7706541717052459716796875" lon="-118.41845604591071605682373046875">
        <ele>3263.199951171875</ele>
        <time>2021-06-25T16:41:35.000Z</time>
        <extensions>
          <ns3:TrackPointExtension>
            <ns3:atemp>24.0</ns3:atemp>
            <ns3:hr>82</ns3:hr>
          </ns3:TrackPointExtension>
        </extensions>
      </trkpt>
      <trkpt lat="36.77065039984881877899169921875" lon="-118.41847716830670833587646484375">
        <ele>3262.800048828125</ele>
        <time>2021-06-25T16:41:37.000Z</time>
        <extensions>
          <ns3:TrackPointExtension>
            <ns3:atemp>24.0</ns3:atemp>
            <ns3:hr>78</ns3:hr>
          </ns3:TrackPointExtension>
        </extensions>
      </trkpt>
      <trkpt lat="36.770657189190387725830078125" lon="-118.41849460266530513763427734375">
        <ele>3262.800048828125</ele>
        <time>2021-06-25T16:41:39.000Z</time>
        <extensions>
          <ns3:TrackPointExtension>
            <ns3:atemp>24.0</ns3:atemp>
            <ns3:hr>81</ns3:hr>
          </ns3:TrackPointExtension>
        </extensions>
      </trkpt>
      <trkpt lat="36.7706610448658466339111328125" lon="-118.4185015596449375152587890625">
        <ele>3262.39990234375</ele>
        <time>2021-06-25T16:41:40.000Z</time>
        <extensions>
          <ns3:TrackPointExtension>
            <ns3:atemp>24.0</ns3:atemp>
            <ns3:hr>81</ns3:hr>
          </ns3:TrackPointExtension>
        </extensions>
      </trkpt>
      <trkpt lat="36.7706543393433094024658203125" lon="-118.4185203351080417633056640625">
        <ele>3262.39990234375</ele>
        <time>2021-06-25T16:41:42.000Z</time>
        <extensions>
          <ns3:TrackPointExtension>
            <ns3:atemp>24.0</ns3:atemp>
            <ns3:hr>79</ns3:hr>
          </ns3:TrackPointExtension>
        </extensions>
      </trkpt>
      <trkpt lat="36.77065576426684856414794921875" lon="-118.41861111111938953399658203125">
        <ele>3261.800048828125</ele>
        <time>2021-06-25T16:41:50.000Z</time>
        <extensions>
          <ns3:TrackPointExtension>
            <ns3:atemp>24.0</ns3:atemp>
            <ns3:hr>77</ns3:hr>
          </ns3:TrackPointExtension>
        </extensions>
      </trkpt>
      <trkpt lat="36.77064738236367702484130859375" lon="-118.41865570284426212310791015625">
        <ele>3261.39990234375</ele>
        <time>2021-06-25T16:41:56.000Z</time>
        <extensions>
          <ns3:TrackPointExtension>
            <ns3:atemp>24.0</ns3:atemp>
            <ns3:hr>78</ns3:hr>
          </ns3:TrackPointExtension>
        </extensions>
      </trkpt>
      <trkpt lat="36.77065081894397735595703125" lon="-118.4187419526278972625732421875">
        <ele>3260.800048828125</ele>
        <time>2021-06-25T16:42:03.000Z</time>
        <extensions>
          <ns3:TrackPointExtension>
            <ns3:atemp>24.0</ns3:atemp>
            <ns3:hr>78</ns3:hr>
          </ns3:TrackPointExtension>
        </extensions>
      </trkpt>
      <trkpt lat="36.77064838819205760955810546875" lon="-118.41877204366028308868408203125">
        <ele>3260.60009765625</ele>
        <time>2021-06-25T16:42:06.000Z</time>
        <extensions>
          <ns3:TrackPointExtension>
            <ns3:atemp>24.0</ns3:atemp>
            <ns3:hr>79</ns3:hr>
          </ns3:TrackPointExtension>
        </extensions>
      </trkpt>
      <trkpt lat="36.77064872346818447113037109375" lon="-118.41878394596278667449951171875">
        <ele>3260.39990234375</ele>
        <time>2021-06-25T16:42:07.000Z</time>
        <extensions>
          <ns3:TrackPointExtension>
            <ns3:atemp>24.0</ns3:atemp>
            <ns3:hr>79</ns3:hr>
          </ns3:TrackPointExtension>
        </extensions>
      </trkpt>
      <trkpt lat="36.77065174095332622528076171875" lon="-118.4187997877597808837890625">
        <ele>3260.39990234375</ele>
        <time>2021-06-25T16:42:09.000Z</time>
        <extensions>
          <ns3:TrackPointExtension>
            <ns3:atemp>24.0</ns3:atemp>
            <ns3:hr>78</ns3:hr>
          </ns3:TrackPointExtension>
        </extensions>
      </trkpt>
      <trkpt lat="36.770663559436798095703125" lon="-118.41888285242021083831787109375">
        <ele>3259.800048828125</ele>
        <time>2021-06-25T16:42:17.000Z</time>
        <extensions>
          <ns3:TrackPointExtension>
            <ns3:atemp>24.0</ns3:atemp>
            <ns3:hr>77</ns3:hr>
          </ns3:TrackPointExtension>
        </extensions>
      </trkpt>
      <trkpt lat="36.7706677503883838653564453125" lon="-118.4189471416175365447998046875">
        <ele>3259.39990234375</ele>
        <time>2021-06-25T16:42:25.000Z</time>
        <extensions>
          <ns3:TrackPointExtension>
            <ns3:atemp>24.0</ns3:atemp>
            <ns3:hr>79</ns3:hr>
          </ns3:TrackPointExtension>
        </extensions>
      </trkpt>
      <trkpt lat="36.7706566862761974334716796875" lon="-118.4189464710652828216552734375">
        <ele>3259</ele>
        <time>2021-06-25T16:42:26.000Z</time>
        <extensions>
          <ns3:TrackPointExtension>
            <ns3:atemp>24.0</ns3:atemp>
            <ns3:hr>78</ns3:hr>
          </ns3:TrackPointExtension>
        </extensions>
      </trkpt>
      <trkpt lat="36.77064587362110614776611328125" lon="-118.41894219629466533660888671875">
        <ele>3259</ele>
        <time>2021-06-25T16:42:27.000Z</time>
        <extensions>
          <ns3:TrackPointExtension>
            <ns3:atemp>24.0</ns3:atemp>
            <ns3:hr>78</ns3:hr>
          </ns3:TrackPointExtension>
        </extensions>
      </trkpt>
      <trkpt lat="36.770610921084880828857421875" lon="-118.41896315105259418487548828125">
        <ele>3258.800048828125</ele>
        <time>2021-06-25T16:42:32.000Z</time>
        <extensions>
          <ns3:TrackPointExtension>
            <ns3:atemp>24.0</ns3:atemp>
            <ns3:hr>78</ns3:hr>
          </ns3:TrackPointExtension>
        </extensions>
      </trkpt>
      <trkpt lat="36.7705973424017429351806640625" lon="-118.41897555626928806304931640625">
        <ele>3258.60009765625</ele>
        <time>2021-06-25T16:42:34.000Z</time>
        <extensions>
          <ns3:TrackPointExtension>
            <ns3:atemp>24.0</ns3:atemp>
            <ns3:hr>75</ns3:hr>
          </ns3:TrackPointExtension>
        </extensions>
      </trkpt>
      <trkpt lat="36.77059021778404712677001953125" lon="-118.41899902559816837310791015625">
        <ele>3258.60009765625</ele>
        <time>2021-06-25T16:42:36.000Z</time>
        <extensions>
          <ns3:TrackPointExtension>
            <ns3:atemp>24.0</ns3:atemp>
            <ns3:hr>78</ns3:hr>
          </ns3:TrackPointExtension>
        </extensions>
      </trkpt>
      <trkpt lat="36.77058912813663482666015625" lon="-118.4190078265964984893798828125">
        <ele>3258.60009765625</ele>
        <time>2021-06-25T16:42:37.000Z</time>
        <extensions>
          <ns3:TrackPointExtension>
            <ns3:atemp>24.0</ns3:atemp>
            <ns3:hr>78</ns3:hr>
          </ns3:TrackPointExtension>
        </extensions>
      </trkpt>
      <trkpt lat="36.77055300213396549224853515625" lon="-118.419089131057262420654296875">
        <ele>3258.199951171875</ele>
        <time>2021-06-25T16:42:44.000Z</time>
        <extensions>
          <ns3:TrackPointExtension>
            <ns3:atemp>24.0</ns3:atemp>
            <ns3:hr>78</ns3:hr>
          </ns3:TrackPointExtension>
        </extensions>
      </trkpt>
      <trkpt lat="36.770546548068523406982421875" lon="-118.4191090799868106842041015625">
        <ele>3258.39990234375</ele>
        <time>2021-06-25T16:42:46.000Z</time>
        <extensions>
          <ns3:TrackPointExtension>
            <ns3:atemp>24.0</ns3:atemp>
            <ns3:hr>75</ns3:hr>
          </ns3:TrackPointExtension>
        </extensions>
      </trkpt>
      <trkpt lat="36.7705336399376392364501953125" lon="-118.4191335551440715789794921875">
        <ele>3258.39990234375</ele>
        <time>2021-06-25T16:42:48.000Z</time>
        <extensions>
          <ns3:TrackPointExtension>
            <ns3:atemp>24.0</ns3:atemp>
            <ns3:hr>77</ns3:hr>
          </ns3:TrackPointExtension>
        </extensions>
      </trkpt>
      <trkpt lat="36.77050489000976085662841796875" lon="-118.4191580303013324737548828125">
        <ele>3258.39990234375</ele>
        <time>2021-06-25T16:42:52.000Z</time>
        <extensions>
          <ns3:TrackPointExtension>
            <ns3:atemp>24.0</ns3:atemp>
            <ns3:hr>76</ns3:hr>
          </ns3:TrackPointExtension>
        </extensions>
      </trkpt>
      <trkpt lat="36.77049256861209869384765625" lon="-118.41917336918413639068603515625">
        <ele>3258.199951171875</ele>
        <time>2021-06-25T16:42:54.000Z</time>
        <extensions>
          <ns3:TrackPointExtension>
            <ns3:atemp>24.0</ns3:atemp>
            <ns3:hr>77</ns3:hr>
          </ns3:TrackPointExtension>
        </extensions>
      </trkpt>
      <trkpt lat="36.7704981006681919097900390625" lon="-118.41918845660984516143798828125">
        <ele>3258.199951171875</ele>
        <time>2021-06-25T16:42:56.000Z</time>
        <extensions>
          <ns3:TrackPointExtension>
            <ns3:atemp>24.0</ns3:atemp>
            <ns3:hr>79</ns3:hr>
          </ns3:TrackPointExtension>
        </extensions>
      </trkpt>
      <trkpt lat="36.7704932391643524169921875" lon="-118.419189713895320892333984375">
        <ele>3258</ele>
        <time>2021-06-25T16:42:57.000Z</time>
        <extensions>
          <ns3:TrackPointExtension>
            <ns3:atemp>24.0</ns3:atemp>
            <ns3:hr>79</ns3:hr>
          </ns3:TrackPointExtension>
        </extensions>
      </trkpt>
      <trkpt lat="36.77048577927052974700927734375" lon="-118.41919482685625553131103515625">
        <ele>3258</ele>
        <time>2021-06-25T16:42:58.000Z</time>
        <extensions>
          <ns3:TrackPointExtension>
            <ns3:atemp>24.0</ns3:atemp>
            <ns3:hr>80</ns3:hr>
          </ns3:TrackPointExtension>
        </extensions>
      </trkpt>
      <trkpt lat="36.77046013064682483673095703125" lon="-118.419237323105335235595703125">
        <ele>3257.39990234375</ele>
        <time>2021-06-25T16:43:03.000Z</time>
        <extensions>
          <ns3:TrackPointExtension>
            <ns3:atemp>24.0</ns3:atemp>
            <ns3:hr>77</ns3:hr>
          </ns3:TrackPointExtension>
        </extensions>
      </trkpt>
      <trkpt lat="36.770463399589061737060546875" lon="-118.4192566014826297760009765625">
        <ele>3256.800048828125</ele>
        <time>2021-06-25T16:43:05.000Z</time>
        <extensions>
          <ns3:TrackPointExtension>
            <ns3:atemp>24.0</ns3:atemp>
            <ns3:hr>78</ns3:hr>
          </ns3:TrackPointExtension>
        </extensions>
      </trkpt>
      <trkpt lat="36.7704578675329685211181640625" lon="-118.4192750416696071624755859375">
        <ele>3256.60009765625</ele>
        <time>2021-06-25T16:43:07.000Z</time>
        <extensions>
          <ns3:TrackPointExtension>
            <ns3:atemp>24.0</ns3:atemp>
            <ns3:hr>77</ns3:hr>
          </ns3:TrackPointExtension>
        </extensions>
      </trkpt>
      <trkpt lat="36.77044160664081573486328125" lon="-118.41930261813104152679443359375">
        <ele>3255.800048828125</ele>
        <time>2021-06-25T16:43:10.000Z</time>
        <extensions>
          <ns3:TrackPointExtension>
            <ns3:atemp>24.0</ns3:atemp>
            <ns3:hr>77</ns3:hr>
          </ns3:TrackPointExtension>
        </extensions>
      </trkpt>
      <trkpt lat="36.77043599076569080352783203125" lon="-118.41930915601551532745361328125">
        <ele>3255.60009765625</ele>
        <time>2021-06-25T16:43:11.000Z</time>
        <extensions>
          <ns3:TrackPointExtension>
            <ns3:atemp>24.0</ns3:atemp>
            <ns3:hr>77</ns3:hr>
          </ns3:TrackPointExtension>
        </extensions>
      </trkpt>
      <trkpt lat="36.77042693831026554107666015625" lon="-118.419321812689304351806640625">
        <ele>3255.60009765625</ele>
        <time>2021-06-25T16:43:13.000Z</time>
        <extensions>
          <ns3:TrackPointExtension>
            <ns3:atemp>24.0</ns3:atemp>
            <ns3:hr>76</ns3:hr>
          </ns3:TrackPointExtension>
        </extensions>
      </trkpt>
      <trkpt lat="36.770388968288898468017578125" lon="-118.4193263389170169830322265625">
        <ele>3255.60009765625</ele>
        <time>2021-06-25T16:43:18.000Z</time>
        <extensions>
          <ns3:TrackPointExtension>
            <ns3:atemp>24.0</ns3:atemp>
            <ns3:hr>76</ns3:hr>
          </ns3:TrackPointExtension>
        </extensions>
      </trkpt>
      <trkpt lat="36.77037748508155345916748046875" lon="-118.41933782212436199188232421875">
        <ele>3255.800048828125</ele>
        <time>2021-06-25T16:43:20.000Z</time>
        <extensions>
          <ns3:TrackPointExtension>
            <ns3:atemp>24.0</ns3:atemp>
            <ns3:hr>75</ns3:hr>
          </ns3:TrackPointExtension>
        </extensions>
      </trkpt>
      <trkpt lat="36.77037681452929973602294921875" lon="-118.41934352181851863861083984375">
        <ele>3255.800048828125</ele>
        <time>2021-06-25T16:43:21.000Z</time>
        <extensions>
          <ns3:TrackPointExtension>
            <ns3:atemp>24.0</ns3:atemp>
            <ns3:hr>75</ns3:hr>
          </ns3:TrackPointExtension>
        </extensions>
      </trkpt>
      <trkpt lat="36.77036742679774761199951171875" lon="-118.4193836711347103118896484375">
        <ele>3255.39990234375</ele>
        <time>2021-06-25T16:43:24.000Z</time>
        <extensions>
          <ns3:TrackPointExtension>
            <ns3:atemp>24.0</ns3:atemp>
            <ns3:hr>76</ns3:hr>
          </ns3:TrackPointExtension>
        </extensions>
      </trkpt>
      <trkpt lat="36.7703599669039249420166015625" lon="-118.4193937294185161590576171875">
        <ele>3255.39990234375</ele>
        <time>2021-06-25T16:43:25.000Z</time>
        <extensions>
          <ns3:TrackPointExtension>
            <ns3:atemp>24.0</ns3:atemp>
            <ns3:hr>77</ns3:hr>
          </ns3:TrackPointExtension>
        </extensions>
      </trkpt>
      <trkpt lat="36.77031629718840122222900390625" lon="-118.41942608356475830078125">
        <ele>3255.60009765625</ele>
        <time>2021-06-25T16:43:31.000Z</time>
        <extensions>
          <ns3:TrackPointExtension>
            <ns3:atemp>24.0</ns3:atemp>
            <ns3:hr>78</ns3:hr>
          </ns3:TrackPointExtension>
        </extensions>
      </trkpt>
      <trkpt lat="36.7702855356037616729736328125" lon="-118.4195078909397125244140625">
        <ele>3254.800048828125</ele>
        <time>2021-06-25T16:43:37.000Z</time>
        <extensions>
          <ns3:TrackPointExtension>
            <ns3:atemp>24.0</ns3:atemp>
            <ns3:hr>75</ns3:hr>
          </ns3:TrackPointExtension>
        </extensions>
      </trkpt>
      <trkpt lat="36.7702815122902393341064453125" lon="-118.419537059962749481201171875">
        <ele>3254.60009765625</ele>
        <time>2021-06-25T16:43:39.000Z</time>
        <extensions>
          <ns3:TrackPointExtension>
            <ns3:atemp>24.0</ns3:atemp>
            <ns3:hr>75</ns3:hr>
          </ns3:TrackPointExtension>
        </extensions>
      </trkpt>
      <trkpt lat="36.7702560313045978546142578125" lon="-118.419668488204479217529296875">
        <ele>3253.60009765625</ele>
        <time>2021-06-25T16:43:48.000Z</time>
        <extensions>
          <ns3:TrackPointExtension>
            <ns3:atemp>24.0</ns3:atemp>
            <ns3:hr>77</ns3:hr>
          </ns3:TrackPointExtension>
        </extensions>
      </trkpt>
      <trkpt lat="36.770259551703929901123046875" lon="-118.4196783788502216339111328125">
        <ele>3253.60009765625</ele>
        <time>2021-06-25T16:43:49.000Z</time>
        <extensions>
          <ns3:TrackPointExtension>
            <ns3:atemp>24.0</ns3:atemp>
            <ns3:hr>77</ns3:hr>
          </ns3:TrackPointExtension>
        </extensions>
      </trkpt>
      <trkpt lat="36.77026835270226001739501953125" lon="-118.419714756309986114501953125">
        <ele>3253.199951171875</ele>
        <time>2021-06-25T16:43:53.000Z</time>
        <extensions>
          <ns3:TrackPointExtension>
            <ns3:atemp>24.0</ns3:atemp>
            <ns3:hr>80</ns3:hr>
          </ns3:TrackPointExtension>
        </extensions>
      </trkpt>
      <trkpt lat="36.77026818506419658660888671875" lon="-118.41974518261849880218505859375">
        <ele>3252.800048828125</ele>
        <time>2021-06-25T16:43:56.000Z</time>
        <extensions>
          <ns3:TrackPointExtension>
            <ns3:atemp>24.0</ns3:atemp>
            <ns3:hr>83</ns3:hr>
          </ns3:TrackPointExtension>
        </extensions>
      </trkpt>
      <trkpt lat="36.77026952616870403289794921875" lon="-118.41976278461515903472900390625">
        <ele>3252.39990234375</ele>
        <time>2021-06-25T16:43:58.000Z</time>
        <extensions>
          <ns3:TrackPointExtension>
            <ns3:atemp>24.0</ns3:atemp>
            <ns3:hr>86</ns3:hr>
          </ns3:TrackPointExtension>
        </extensions>
      </trkpt>
      <trkpt lat="36.77026458084583282470703125" lon="-118.4197772853076457977294921875">
        <ele>3252</ele>
        <time>2021-06-25T16:44:00.000Z</time>
        <extensions>
          <ns3:TrackPointExtension>
            <ns3:atemp>24.0</ns3:atemp>
            <ns3:hr>89</ns3:hr>
          </ns3:TrackPointExtension>
        </extensions>
      </trkpt>
      <trkpt lat="36.77025980316102504730224609375" lon="-118.41979153454303741455078125">
        <ele>3252</ele>
        <time>2021-06-25T16:44:02.000Z</time>
        <extensions>
          <ns3:TrackPointExtension>
            <ns3:atemp>24.0</ns3:atemp>
            <ns3:hr>90</ns3:hr>
          </ns3:TrackPointExtension>
        </extensions>
      </trkpt>
      <trkpt lat="36.77026265300810337066650390625" lon="-118.419828750193119049072265625">
        <ele>3251.39990234375</ele>
        <time>2021-06-25T16:44:06.000Z</time>
        <extensions>
          <ns3:TrackPointExtension>
            <ns3:atemp>24.0</ns3:atemp>
            <ns3:hr>92</ns3:hr>
          </ns3:TrackPointExtension>
        </extensions>
      </trkpt>
      <trkpt lat="36.77026097662746906280517578125" lon="-118.4198560751974582672119140625">
        <ele>3250.800048828125</ele>
        <time>2021-06-25T16:44:09.000Z</time>
        <extensions>
          <ns3:TrackPointExtension>
            <ns3:atemp>24.0</ns3:atemp>
            <ns3:hr>92</ns3:hr>
          </ns3:TrackPointExtension>
        </extensions>
      </trkpt>
      <trkpt lat="36.77025946788489818572998046875" lon="-118.4198600985109806060791015625">
        <ele>3250.39990234375</ele>
        <time>2021-06-25T16:44:10.000Z</time>
        <extensions>
          <ns3:TrackPointExtension>
            <ns3:atemp>24.0</ns3:atemp>
            <ns3:hr>91</ns3:hr>
          </ns3:TrackPointExtension>
        </extensions>
      </trkpt>
      <trkpt lat="36.7702580429613590240478515625" lon="-118.41986705549061298370361328125">
        <ele>3250.39990234375</ele>
        <time>2021-06-25T16:44:11.000Z</time>
        <extensions>
          <ns3:TrackPointExtension>
            <ns3:atemp>24.0</ns3:atemp>
            <ns3:hr>91</ns3:hr>
          </ns3:TrackPointExtension>
        </extensions>
      </trkpt>
      <trkpt lat="36.77023096941411495208740234375" lon="-118.41993394307792186737060546875">
        <ele>3249.800048828125</ele>
        <time>2021-06-25T16:44:20.000Z</time>
        <extensions>
          <ns3:TrackPointExtension>
            <ns3:atemp>24.0</ns3:atemp>
            <ns3:hr>88</ns3:hr>
          </ns3:TrackPointExtension>
        </extensions>
      </trkpt>
      <trkpt lat="36.77022409625351428985595703125" lon="-118.41994517482817173004150390625">
        <ele>3250</ele>
        <time>2021-06-25T16:44:21.000Z</time>
        <extensions>
          <ns3:TrackPointExtension>
            <ns3:atemp>24.0</ns3:atemp>
            <ns3:hr>87</ns3:hr>
          </ns3:TrackPointExtension>
        </extensions>
      </trkpt>
      <trkpt lat="36.77022258751094341278076171875" lon="-118.41995674185454845428466796875">
        <ele>3249.800048828125</ele>
        <time>2021-06-25T16:44:22.000Z</time>
        <extensions>
          <ns3:TrackPointExtension>
            <ns3:atemp>24.0</ns3:atemp>
            <ns3:hr>87</ns3:hr>
          </ns3:TrackPointExtension>
        </extensions>
      </trkpt>
      <trkpt lat="36.77021873183548450469970703125" lon="-118.41997367329895496368408203125">
        <ele>3250</ele>
        <time>2021-06-25T16:44:23.000Z</time>
        <extensions>
          <ns3:TrackPointExtension>
            <ns3:atemp>24.0</ns3:atemp>
            <ns3:hr>85</ns3:hr>
          </ns3:TrackPointExtension>
        </extensions>
      </trkpt>
      <trkpt lat="36.77020062692463397979736328125" lon="-118.42001415789127349853515625">
        <ele>3250.199951171875</ele>
        <time>2021-06-25T16:44:26.000Z</time>
        <extensions>
          <ns3:TrackPointExtension>
            <ns3:atemp>24.0</ns3:atemp>
            <ns3:hr>82</ns3:hr>
          </ns3:TrackPointExtension>
        </extensions>
      </trkpt>
      <trkpt lat="36.7701966874301433563232421875" lon="-118.4200277365744113922119140625">
        <ele>3250.199951171875</ele>
        <time>2021-06-25T16:44:27.000Z</time>
        <extensions>
          <ns3:TrackPointExtension>
            <ns3:atemp>24.0</ns3:atemp>
            <ns3:hr>80</ns3:hr>
          </ns3:TrackPointExtension>
        </extensions>
      </trkpt>
      <trkpt lat="36.7701981961727142333984375" lon="-118.42006000690162181854248046875">
        <ele>3250</ele>
        <time>2021-06-25T16:44:30.000Z</time>
        <extensions>
          <ns3:TrackPointExtension>
            <ns3:atemp>24.0</ns3:atemp>
            <ns3:hr>77</ns3:hr>
          </ns3:TrackPointExtension>
        </extensions>
      </trkpt>
      <trkpt lat="36.77019543014466762542724609375" lon="-118.42006889171898365020751953125">
        <ele>3250</ele>
        <time>2021-06-25T16:44:31.000Z</time>
        <extensions>
          <ns3:TrackPointExtension>
            <ns3:atemp>24.0</ns3:atemp>
            <ns3:hr>77</ns3:hr>
          </ns3:TrackPointExtension>
        </extensions>
      </trkpt>
      <trkpt lat="36.770183779299259185791015625" lon="-118.4200870804488658905029296875">
        <ele>3249.39990234375</ele>
        <time>2021-06-25T16:44:34.000Z</time>
        <extensions>
          <ns3:TrackPointExtension>
            <ns3:atemp>24.0</ns3:atemp>
            <ns3:hr>77</ns3:hr>
          </ns3:TrackPointExtension>
        </extensions>
      </trkpt>
      <trkpt lat="36.7701799236238002777099609375" lon="-118.42008733190596103668212890625">
        <ele>3249.39990234375</ele>
        <time>2021-06-25T16:44:35.000Z</time>
        <extensions>
          <ns3:TrackPointExtension>
            <ns3:atemp>24.0</ns3:atemp>
            <ns3:hr>76</ns3:hr>
          </ns3:TrackPointExtension>
        </extensions>
      </trkpt>
      <trkpt lat="36.77015771158039569854736328125" lon="-118.420086912810802459716796875">
        <ele>3249.800048828125</ele>
        <time>2021-06-25T16:44:39.000Z</time>
        <extensions>
          <ns3:TrackPointExtension>
            <ns3:atemp>24.0</ns3:atemp>
            <ns3:hr>76</ns3:hr>
          </ns3:TrackPointExtension>
        </extensions>
      </trkpt>
      <trkpt lat="36.7701574601233005523681640625" lon="-118.420111723244190216064453125">
        <ele>3250.199951171875</ele>
        <time>2021-06-25T16:44:42.000Z</time>
        <extensions>
          <ns3:TrackPointExtension>
            <ns3:atemp>24.0</ns3:atemp>
            <ns3:hr>79</ns3:hr>
          </ns3:TrackPointExtension>
        </extensions>
      </trkpt>
      <trkpt lat="36.770165003836154937744140625" lon="-118.420129828155040740966796875">
        <ele>3249.800048828125</ele>
        <time>2021-06-25T16:44:44.000Z</time>
        <extensions>
          <ns3:TrackPointExtension>
            <ns3:atemp>24.0</ns3:atemp>
            <ns3:hr>80</ns3:hr>
          </ns3:TrackPointExtension>
        </extensions>
      </trkpt>
      <trkpt lat="36.77016559056937694549560546875" lon="-118.420147933065891265869140625">
        <ele>3249.199951171875</ele>
        <time>2021-06-25T16:44:46.000Z</time>
        <extensions>
          <ns3:TrackPointExtension>
            <ns3:atemp>24.0</ns3:atemp>
            <ns3:hr>81</ns3:hr>
          </ns3:TrackPointExtension>
        </extensions>
      </trkpt>
      <trkpt lat="36.77015955559909343719482421875" lon="-118.42016561888158321380615234375">
        <ele>3249.39990234375</ele>
        <time>2021-06-25T16:44:48.000Z</time>
        <extensions>
          <ns3:TrackPointExtension>
            <ns3:atemp>24.0</ns3:atemp>
            <ns3:hr>81</ns3:hr>
          </ns3:TrackPointExtension>
        </extensions>
      </trkpt>
      <trkpt lat="36.77015687339007854461669921875" lon="-118.42017567716538906097412109375">
        <ele>3249.39990234375</ele>
        <time>2021-06-25T16:44:49.000Z</time>
        <extensions>
          <ns3:TrackPointExtension>
            <ns3:atemp>24.0</ns3:atemp>
            <ns3:hr>84</ns3:hr>
          </ns3:TrackPointExtension>
        </extensions>
      </trkpt>
      <trkpt lat="36.770157627761363983154296875" lon="-118.4201843105256557464599609375">
        <ele>3249</ele>
        <time>2021-06-25T16:44:50.000Z</time>
        <extensions>
          <ns3:TrackPointExtension>
            <ns3:atemp>24.0</ns3:atemp>
            <ns3:hr>81</ns3:hr>
          </ns3:TrackPointExtension>
        </extensions>
      </trkpt>
      <trkpt lat="36.7701544426381587982177734375" lon="-118.4202044270932674407958984375">
        <ele>3249</ele>
        <time>2021-06-25T16:44:52.000Z</time>
        <extensions>
          <ns3:TrackPointExtension>
            <ns3:atemp>24.0</ns3:atemp>
            <ns3:hr>81</ns3:hr>
          </ns3:TrackPointExtension>
        </extensions>
      </trkpt>
      <trkpt lat="36.77014681510627269744873046875" lon="-118.4202198497951030731201171875">
        <ele>3249.199951171875</ele>
        <time>2021-06-25T16:44:55.000Z</time>
        <extensions>
          <ns3:TrackPointExtension>
            <ns3:atemp>24.0</ns3:atemp>
            <ns3:hr>80</ns3:hr>
          </ns3:TrackPointExtension>
        </extensions>
      </trkpt>
      <trkpt lat="36.77014731802046298980712890625" lon="-118.420229069888591766357421875">
        <ele>3249.199951171875</ele>
        <time>2021-06-25T16:44:56.000Z</time>
        <extensions>
          <ns3:TrackPointExtension>
            <ns3:atemp>24.0</ns3:atemp>
            <ns3:hr>79</ns3:hr>
          </ns3:TrackPointExtension>
        </extensions>
      </trkpt>
      <trkpt lat="36.77014966495335102081298828125" lon="-118.420244492590427398681640625">
        <ele>3249</ele>
        <time>2021-06-25T16:44:58.000Z</time>
        <extensions>
          <ns3:TrackPointExtension>
            <ns3:atemp>24.0</ns3:atemp>
            <ns3:hr>76</ns3:hr>
          </ns3:TrackPointExtension>
        </extensions>
      </trkpt>
      <trkpt lat="36.77014647983014583587646484375" lon="-118.42025094665586948394775390625">
        <ele>3248.800048828125</ele>
        <time>2021-06-25T16:44:59.000Z</time>
        <extensions>
          <ns3:TrackPointExtension>
            <ns3:atemp>24.0</ns3:atemp>
            <ns3:hr>75</ns3:hr>
          </ns3:TrackPointExtension>
        </extensions>
      </trkpt>
      <trkpt lat="36.7701373435556888580322265625" lon="-118.4202661179006099700927734375">
        <ele>3248.800048828125</ele>
        <time>2021-06-25T16:45:01.000Z</time>
        <extensions>
          <ns3:TrackPointExtension>
            <ns3:atemp>24.0</ns3:atemp>
            <ns3:hr>73</ns3:hr>
          </ns3:TrackPointExtension>
        </extensions>
      </trkpt>
      <trkpt lat="36.7701311409473419189453125" lon="-118.42027701437473297119140625">
        <ele>3248.800048828125</ele>
        <time>2021-06-25T16:45:02.000Z</time>
        <extensions>
          <ns3:TrackPointExtension>
            <ns3:atemp>24.0</ns3:atemp>
            <ns3:hr>72</ns3:hr>
          </ns3:TrackPointExtension>
        </extensions>
      </trkpt>
      <trkpt lat="36.770115382969379425048828125" lon="-118.4203211031854152679443359375">
        <ele>3249</ele>
        <time>2021-06-25T16:45:07.000Z</time>
        <extensions>
          <ns3:TrackPointExtension>
            <ns3:atemp>24.0</ns3:atemp>
            <ns3:hr>72</ns3:hr>
          </ns3:TrackPointExtension>
        </extensions>
      </trkpt>
      <trkpt lat="36.77009300328791141510009765625" lon="-118.420345745980739593505859375">
        <ele>3248.800048828125</ele>
        <time>2021-06-25T16:45:10.000Z</time>
        <extensions>
          <ns3:TrackPointExtension>
            <ns3:atemp>24.0</ns3:atemp>
            <ns3:hr>69</ns3:hr>
          </ns3:TrackPointExtension>
        </extensions>
      </trkpt>
      <trkpt lat="36.77008914761245250701904296875" lon="-118.42037080787122249603271484375">
        <ele>3248.800048828125</ele>
        <time>2021-06-25T16:45:12.000Z</time>
        <extensions>
          <ns3:TrackPointExtension>
            <ns3:atemp>24.0</ns3:atemp>
            <ns3:hr>73</ns3:hr>
          </ns3:TrackPointExtension>
        </extensions>
      </trkpt>
      <trkpt lat="36.77008613012731075286865234375" lon="-118.42037759721279144287109375">
        <ele>3249</ele>
        <time>2021-06-25T16:45:14.000Z</time>
        <extensions>
          <ns3:TrackPointExtension>
            <ns3:atemp>24.0</ns3:atemp>
            <ns3:hr>73</ns3:hr>
          </ns3:TrackPointExtension>
        </extensions>
      </trkpt>
      <trkpt lat="36.77009434439241886138916015625" lon="-118.42040500603616237640380859375">
        <ele>3249</ele>
        <time>2021-06-25T16:45:17.000Z</time>
        <extensions>
          <ns3:TrackPointExtension>
            <ns3:atemp>24.0</ns3:atemp>
            <ns3:hr>70</ns3:hr>
          </ns3:TrackPointExtension>
        </extensions>
      </trkpt>
      <trkpt lat="36.7700997926294803619384765625" lon="-118.42042990028858184814453125">
        <ele>3248.800048828125</ele>
        <time>2021-06-25T16:45:19.000Z</time>
        <extensions>
          <ns3:TrackPointExtension>
            <ns3:atemp>24.0</ns3:atemp>
            <ns3:hr>70</ns3:hr>
          </ns3:TrackPointExtension>
        </extensions>
      </trkpt>
      <trkpt lat="36.7701007984578609466552734375" lon="-118.420441634953022003173828125">
        <ele>3248.60009765625</ele>
        <time>2021-06-25T16:45:20.000Z</time>
        <extensions>
          <ns3:TrackPointExtension>
            <ns3:atemp>24.0</ns3:atemp>
            <ns3:hr>68</ns3:hr>
          </ns3:TrackPointExtension>
        </extensions>
      </trkpt>
      <trkpt lat="36.7701038159430027008056640625" lon="-118.42044808901846408843994140625">
        <ele>3248.199951171875</ele>
        <time>2021-06-25T16:45:21.000Z</time>
        <extensions>
          <ns3:TrackPointExtension>
            <ns3:atemp>24.0</ns3:atemp>
            <ns3:hr>67</ns3:hr>
          </ns3:TrackPointExtension>
        </extensions>
      </trkpt>
      <trkpt lat="36.77007691003382205963134765625" lon="-118.4204568900167942047119140625">
        <ele>3248</ele>
        <time>2021-06-25T16:45:26.000Z</time>
        <extensions>
          <ns3:TrackPointExtension>
            <ns3:atemp>24.0</ns3:atemp>
            <ns3:hr>63</ns3:hr>
          </ns3:TrackPointExtension>
        </extensions>
      </trkpt>
      <trkpt lat="36.77007414400577545166015625" lon="-118.4204713068902492523193359375">
        <ele>3248</ele>
        <time>2021-06-25T16:45:27.000Z</time>
        <extensions>
          <ns3:TrackPointExtension>
            <ns3:atemp>24.0</ns3:atemp>
            <ns3:hr>65</ns3:hr>
          </ns3:TrackPointExtension>
        </extensions>
      </trkpt>
      <trkpt lat="36.7700511775910854339599609375" lon="-118.42051279731094837188720703125">
        <ele>3248.199951171875</ele>
        <time>2021-06-25T16:45:33.000Z</time>
        <extensions>
          <ns3:TrackPointExtension>
            <ns3:atemp>24.0</ns3:atemp>
            <ns3:hr>68</ns3:hr>
          </ns3:TrackPointExtension>
        </extensions>
      </trkpt>
      <trkpt lat="36.77004195749759674072265625" lon="-118.4205137193202972412109375">
        <ele>3248.199951171875</ele>
        <time>2021-06-25T16:45:34.000Z</time>
        <extensions>
          <ns3:TrackPointExtension>
            <ns3:atemp>24.0</ns3:atemp>
            <ns3:hr>67</ns3:hr>
          </ns3:TrackPointExtension>
        </extensions>
      </trkpt>
      <trkpt lat="36.7700199969112873077392578125" lon="-118.42051296494901180267333984375">
        <ele>3248.199951171875</ele>
        <time>2021-06-25T16:45:37.000Z</time>
        <extensions>
          <ns3:TrackPointExtension>
            <ns3:atemp>24.0</ns3:atemp>
            <ns3:hr>70</ns3:hr>
          </ns3:TrackPointExtension>
        </extensions>
      </trkpt>
      <trkpt lat="36.770010776817798614501953125" lon="-118.4205172397196292877197265625">
        <ele>3248.39990234375</ele>
        <time>2021-06-25T16:45:38.000Z</time>
        <extensions>
          <ns3:TrackPointExtension>
            <ns3:atemp>24.0</ns3:atemp>
            <ns3:hr>67</ns3:hr>
          </ns3:TrackPointExtension>
        </extensions>
      </trkpt>
      <trkpt lat="36.76999761722981929779052734375" lon="-118.42054045759141445159912109375">
        <ele>3248.39990234375</ele>
        <time>2021-06-25T16:45:41.000Z</time>
        <extensions>
          <ns3:TrackPointExtension>
            <ns3:atemp>24.0</ns3:atemp>
            <ns3:hr>70</ns3:hr>
          </ns3:TrackPointExtension>
        </extensions>
      </trkpt>
      <trkpt lat="36.7699925042688846588134765625" lon="-118.4205754101276397705078125">
        <ele>3248.39990234375</ele>
        <time>2021-06-25T16:45:44.000Z</time>
        <extensions>
          <ns3:TrackPointExtension>
            <ns3:atemp>24.0</ns3:atemp>
            <ns3:hr>73</ns3:hr>
          </ns3:TrackPointExtension>
        </extensions>
      </trkpt>
      <trkpt lat="36.76997900940477848052978515625" lon="-118.4206158109009265899658203125">
        <ele>3248.39990234375</ele>
        <time>2021-06-25T16:45:48.000Z</time>
        <extensions>
          <ns3:TrackPointExtension>
            <ns3:atemp>24.0</ns3:atemp>
            <ns3:hr>76</ns3:hr>
          </ns3:TrackPointExtension>
        </extensions>
      </trkpt>
      <trkpt lat="36.76997163332998752593994140625" lon="-118.42064204625785350799560546875">
        <ele>3248.60009765625</ele>
        <time>2021-06-25T16:45:50.000Z</time>
        <extensions>
          <ns3:TrackPointExtension>
            <ns3:atemp>24.0</ns3:atemp>
            <ns3:hr>76</ns3:hr>
          </ns3:TrackPointExtension>
        </extensions>
      </trkpt>
      <trkpt lat="36.76994212903082370758056640625" lon="-118.42068982310593128204345703125">
        <ele>3248</ele>
        <time>2021-06-25T16:45:56.000Z</time>
        <extensions>
          <ns3:TrackPointExtension>
            <ns3:atemp>24.0</ns3:atemp>
            <ns3:hr>77</ns3:hr>
          </ns3:TrackPointExtension>
        </extensions>
      </trkpt>
      <trkpt lat="36.76992234773933887481689453125" lon="-118.4207425452768802642822265625">
        <ele>3247.39990234375</ele>
        <time>2021-06-25T16:46:01.000Z</time>
        <extensions>
          <ns3:TrackPointExtension>
            <ns3:atemp>24.0</ns3:atemp>
            <ns3:hr>78</ns3:hr>
          </ns3:TrackPointExtension>
        </extensions>
      </trkpt>
      <trkpt lat="36.76990189589560031890869140625" lon="-118.42074103653430938720703125">
        <ele>3247.199951171875</ele>
        <time>2021-06-25T16:46:03.000Z</time>
        <extensions>
          <ns3:TrackPointExtension>
            <ns3:atemp>24.0</ns3:atemp>
            <ns3:hr>78</ns3:hr>
          </ns3:TrackPointExtension>
        </extensions>
      </trkpt>
      <trkpt lat="36.76987373270094394683837890625" lon="-118.42080549336969852447509765625">
        <ele>3247.60009765625</ele>
        <time>2021-06-25T16:46:10.000Z</time>
        <extensions>
          <ns3:TrackPointExtension>
            <ns3:atemp>24.0</ns3:atemp>
            <ns3:hr>77</ns3:hr>
          </ns3:TrackPointExtension>
        </extensions>
      </trkpt>
      <trkpt lat="36.76987205632030963897705078125" lon="-118.4208049066364765167236328125">
        <ele>3247.60009765625</ele>
        <time>2021-06-25T16:46:11.000Z</time>
        <extensions>
          <ns3:TrackPointExtension>
            <ns3:atemp>24.0</ns3:atemp>
            <ns3:hr>77</ns3:hr>
          </ns3:TrackPointExtension>
        </extensions>
      </trkpt>
      <trkpt lat="36.76986266858875751495361328125" lon="-118.4208032302558422088623046875">
        <ele>3247.60009765625</ele>
        <time>2021-06-25T16:46:13.000Z</time>
        <extensions>
          <ns3:TrackPointExtension>
            <ns3:atemp>24.0</ns3:atemp>
            <ns3:hr>76</ns3:hr>
          </ns3:TrackPointExtension>
        </extensions>
      </trkpt>
      <trkpt lat="36.76984439603984355926513671875" lon="-118.420828543603420257568359375">
        <ele>3247.800048828125</ele>
        <time>2021-06-25T16:46:16.000Z</time>
        <extensions>
          <ns3:TrackPointExtension>
            <ns3:atemp>24.0</ns3:atemp>
            <ns3:hr>76</ns3:hr>
          </ns3:TrackPointExtension>
        </extensions>
      </trkpt>
      <trkpt lat="36.7698342539370059967041015625" lon="-118.420844636857509613037109375">
        <ele>3248.199951171875</ele>
        <time>2021-06-25T16:46:18.000Z</time>
        <extensions>
          <ns3:TrackPointExtension>
            <ns3:atemp>24.0</ns3:atemp>
            <ns3:hr>76</ns3:hr>
          </ns3:TrackPointExtension>
        </extensions>
      </trkpt>
      <trkpt lat="36.7698334157466888427734375" lon="-118.42085528187453746795654296875">
        <ele>3248</ele>
        <time>2021-06-25T16:46:19.000Z</time>
        <extensions>
          <ns3:TrackPointExtension>
            <ns3:atemp>24.0</ns3:atemp>
            <ns3:hr>79</ns3:hr>
          </ns3:TrackPointExtension>
        </extensions>
      </trkpt>
      <trkpt lat="36.76983584649860858917236328125" lon="-118.4208689443767070770263671875">
        <ele>3248</ele>
        <time>2021-06-25T16:46:20.000Z</time>
        <extensions>
          <ns3:TrackPointExtension>
            <ns3:atemp>24.0</ns3:atemp>
            <ns3:hr>76</ns3:hr>
          </ns3:TrackPointExtension>
        </extensions>
      </trkpt>
      <trkpt lat="36.7698426358401775360107421875" lon="-118.42091269791126251220703125">
        <ele>3247.60009765625</ele>
        <time>2021-06-25T16:46:24.000Z</time>
        <extensions>
          <ns3:TrackPointExtension>
            <ns3:atemp>24.0</ns3:atemp>
            <ns3:hr>76</ns3:hr>
          </ns3:TrackPointExtension>
        </extensions>
      </trkpt>
      <trkpt lat="36.769841797649860382080078125" lon="-118.42094077728688716888427734375">
        <ele>3247</ele>
        <time>2021-06-25T16:46:27.000Z</time>
        <extensions>
          <ns3:TrackPointExtension>
            <ns3:atemp>24.0</ns3:atemp>
            <ns3:hr>77</ns3:hr>
          </ns3:TrackPointExtension>
        </extensions>
      </trkpt>
      <trkpt lat="36.7698389478027820587158203125" lon="-118.42096500098705291748046875">
        <ele>3247</ele>
        <time>2021-06-25T16:46:29.000Z</time>
        <extensions>
          <ns3:TrackPointExtension>
            <ns3:atemp>24.0</ns3:atemp>
            <ns3:hr>77</ns3:hr>
          </ns3:TrackPointExtension>
        </extensions>
      </trkpt>
      <trkpt lat="36.76982511766254901885986328125" lon="-118.4210013784468173980712890625">
        <ele>3246.60009765625</ele>
        <time>2021-06-25T16:46:34.000Z</time>
        <extensions>
          <ns3:TrackPointExtension>
            <ns3:atemp>24.0</ns3:atemp>
            <ns3:hr>78</ns3:hr>
          </ns3:TrackPointExtension>
        </extensions>
      </trkpt>
      <trkpt lat="36.7698148079216480255126953125" lon="-118.42101772315800189971923828125">
        <ele>3246.199951171875</ele>
        <time>2021-06-25T16:46:36.000Z</time>
        <extensions>
          <ns3:TrackPointExtension>
            <ns3:atemp>24.0</ns3:atemp>
            <ns3:hr>75</ns3:hr>
          </ns3:TrackPointExtension>
        </extensions>
      </trkpt>
      <trkpt lat="36.7698124609887599945068359375" lon="-118.4210493229329586029052734375">
        <ele>3246.199951171875</ele>
        <time>2021-06-25T16:46:39.000Z</time>
        <extensions>
          <ns3:TrackPointExtension>
            <ns3:atemp>24.0</ns3:atemp>
            <ns3:hr>77</ns3:hr>
          </ns3:TrackPointExtension>
        </extensions>
      </trkpt>
      <trkpt lat="36.76980324089527130126953125" lon="-118.42107941396534442901611328125">
        <ele>3245.39990234375</ele>
        <time>2021-06-25T16:46:42.000Z</time>
        <extensions>
          <ns3:TrackPointExtension>
            <ns3:atemp>24.0</ns3:atemp>
            <ns3:hr>80</ns3:hr>
          </ns3:TrackPointExtension>
        </extensions>
      </trkpt>
      <trkpt lat="36.7697970382869243621826171875" lon="-118.42110581696033477783203125">
        <ele>3245.39990234375</ele>
        <time>2021-06-25T16:46:44.000Z</time>
        <extensions>
          <ns3:TrackPointExtension>
            <ns3:atemp>24.0</ns3:atemp>
            <ns3:hr>84</ns3:hr>
          </ns3:TrackPointExtension>
        </extensions>
      </trkpt>
      <trkpt lat="36.76979745738208293914794921875" lon="-118.42112065292894840240478515625">
        <ele>3245</ele>
        <time>2021-06-25T16:46:45.000Z</time>
        <extensions>
          <ns3:TrackPointExtension>
            <ns3:atemp>24.0</ns3:atemp>
            <ns3:hr>85</ns3:hr>
          </ns3:TrackPointExtension>
        </extensions>
      </trkpt>
      <trkpt lat="36.769798211753368377685546875" lon="-118.42114336788654327392578125">
        <ele>3245</ele>
        <time>2021-06-25T16:46:48.000Z</time>
        <extensions>
          <ns3:TrackPointExtension>
            <ns3:atemp>24.0</ns3:atemp>
            <ns3:hr>84</ns3:hr>
          </ns3:TrackPointExtension>
        </extensions>
      </trkpt>
      <trkpt lat="36.769785471260547637939453125" lon="-118.42116390354931354522705078125">
        <ele>3245</ele>
        <time>2021-06-25T16:46:51.000Z</time>
        <extensions>
          <ns3:TrackPointExtension>
            <ns3:atemp>24.0</ns3:atemp>
            <ns3:hr>80</ns3:hr>
          </ns3:TrackPointExtension>
        </extensions>
      </trkpt>
      <trkpt lat="36.76978723146021366119384765625" lon="-118.42117681168019771575927734375">
        <ele>3244.800048828125</ele>
        <time>2021-06-25T16:46:52.000Z</time>
        <extensions>
          <ns3:TrackPointExtension>
            <ns3:atemp>24.0</ns3:atemp>
            <ns3:hr>83</ns3:hr>
          </ns3:TrackPointExtension>
        </extensions>
      </trkpt>
      <trkpt lat="36.7697762511670589447021484375" lon="-118.42119977809488773345947265625">
        <ele>3244.39990234375</ele>
        <time>2021-06-25T16:46:54.000Z</time>
        <extensions>
          <ns3:TrackPointExtension>
            <ns3:atemp>24.0</ns3:atemp>
            <ns3:hr>80</ns3:hr>
          </ns3:TrackPointExtension>
        </extensions>
      </trkpt>
      <trkpt lat="36.769776083528995513916015625" lon="-118.42120413668453693389892578125">
        <ele>3244.199951171875</ele>
        <time>2021-06-25T16:46:55.000Z</time>
        <extensions>
          <ns3:TrackPointExtension>
            <ns3:atemp>24.0</ns3:atemp>
            <ns3:hr>80</ns3:hr>
          </ns3:TrackPointExtension>
        </extensions>
      </trkpt>
      <trkpt lat="36.76974046044051647186279296875" lon="-118.42124990187585353851318359375">
        <ele>3244</ele>
        <time>2021-06-25T16:47:01.000Z</time>
        <extensions>
          <ns3:TrackPointExtension>
            <ns3:atemp>24.0</ns3:atemp>
            <ns3:hr>75</ns3:hr>
          </ns3:TrackPointExtension>
        </extensions>
      </trkpt>
      <trkpt lat="36.7697410471737384796142578125" lon="-118.42126406729221343994140625">
        <ele>3244</ele>
        <time>2021-06-25T16:47:02.000Z</time>
        <extensions>
          <ns3:TrackPointExtension>
            <ns3:atemp>24.0</ns3:atemp>
            <ns3:hr>79</ns3:hr>
          </ns3:TrackPointExtension>
        </extensions>
      </trkpt>
      <trkpt lat="36.7697437293827533721923828125" lon="-118.4212759695947170257568359375">
        <ele>3244</ele>
        <time>2021-06-25T16:47:03.000Z</time>
        <extensions>
          <ns3:TrackPointExtension>
            <ns3:atemp>24.0</ns3:atemp>
            <ns3:hr>79</ns3:hr>
          </ns3:TrackPointExtension>
        </extensions>
      </trkpt>
      <trkpt lat="36.76974800415337085723876953125" lon="-118.4213530831038951873779296875">
        <ele>3243.800048828125</ele>
        <time>2021-06-25T16:47:09.000Z</time>
        <extensions>
          <ns3:TrackPointExtension>
            <ns3:atemp>24.0</ns3:atemp>
            <ns3:hr>84</ns3:hr>
          </ns3:TrackPointExtension>
        </extensions>
      </trkpt>
      <trkpt lat="36.7697507701814174652099609375" lon="-118.42137361876666545867919921875">
        <ele>3243.800048828125</ele>
        <time>2021-06-25T16:47:11.000Z</time>
        <extensions>
          <ns3:TrackPointExtension>
            <ns3:atemp>24.0</ns3:atemp>
            <ns3:hr>81</ns3:hr>
          </ns3:TrackPointExtension>
        </extensions>
      </trkpt>
      <trkpt lat="36.76975470967590808868408203125" lon="-118.42138317413628101348876953125">
        <ele>3243.800048828125</ele>
        <time>2021-06-25T16:47:12.000Z</time>
        <extensions>
          <ns3:TrackPointExtension>
            <ns3:atemp>24.0</ns3:atemp>
            <ns3:hr>81</ns3:hr>
          </ns3:TrackPointExtension>
        </extensions>
      </trkpt>
      <trkpt lat="36.7697742395102977752685546875" lon="-118.4214533306658267974853515625">
        <ele>3243.800048828125</ele>
        <time>2021-06-25T16:47:19.000Z</time>
        <extensions>
          <ns3:TrackPointExtension>
            <ns3:atemp>24.0</ns3:atemp>
            <ns3:hr>81</ns3:hr>
          </ns3:TrackPointExtension>
        </extensions>
      </trkpt>
      <trkpt lat="36.76977432332932949066162109375" lon="-118.421516530215740203857421875">
        <ele>3243.800048828125</ele>
        <time>2021-06-25T16:47:25.000Z</time>
        <extensions>
          <ns3:TrackPointExtension>
            <ns3:atemp>24.0</ns3:atemp>
            <ns3:hr>78</ns3:hr>
          </ns3:TrackPointExtension>
        </extensions>
      </trkpt>
      <trkpt lat="36.7697883211076259613037109375" lon="-118.42152985744178295135498046875">
        <ele>3243</ele>
        <time>2021-06-25T16:47:27.000Z</time>
        <extensions>
          <ns3:TrackPointExtension>
            <ns3:atemp>24.0</ns3:atemp>
            <ns3:hr>78</ns3:hr>
          </ns3:TrackPointExtension>
        </extensions>
      </trkpt>
      <trkpt lat="36.76979611627757549285888671875" lon="-118.421539999544620513916015625">
        <ele>3243</ele>
        <time>2021-06-25T16:47:29.000Z</time>
        <extensions>
          <ns3:TrackPointExtension>
            <ns3:atemp>24.0</ns3:atemp>
            <ns3:hr>77</ns3:hr>
          </ns3:TrackPointExtension>
        </extensions>
      </trkpt>
      <trkpt lat="36.76980164833366870880126953125" lon="-118.4215787239372730255126953125">
        <ele>3242.60009765625</ele>
        <time>2021-06-25T16:47:33.000Z</time>
        <extensions>
          <ns3:TrackPointExtension>
            <ns3:atemp>24.0</ns3:atemp>
            <ns3:hr>77</ns3:hr>
          </ns3:TrackPointExtension>
        </extensions>
      </trkpt>
      <trkpt lat="36.76980349235236644744873046875" lon="-118.42160227708518505096435546875">
        <ele>3242</ele>
        <time>2021-06-25T16:47:36.000Z</time>
        <extensions>
          <ns3:TrackPointExtension>
            <ns3:atemp>24.0</ns3:atemp>
            <ns3:hr>77</ns3:hr>
          </ns3:TrackPointExtension>
        </extensions>
      </trkpt>
      <trkpt lat="36.769804246723651885986328125" lon="-118.421653993427753448486328125">
        <ele>3241.199951171875</ele>
        <time>2021-06-25T16:47:42.000Z</time>
        <extensions>
          <ns3:TrackPointExtension>
            <ns3:atemp>24.0</ns3:atemp>
            <ns3:hr>77</ns3:hr>
          </ns3:TrackPointExtension>
        </extensions>
      </trkpt>
      <trkpt lat="36.76982662640511989593505859375" lon="-118.421731777489185333251953125">
        <ele>3241.39990234375</ele>
        <time>2021-06-25T16:47:49.000Z</time>
        <extensions>
          <ns3:TrackPointExtension>
            <ns3:atemp>24.0</ns3:atemp>
            <ns3:hr>76</ns3:hr>
          </ns3:TrackPointExtension>
        </extensions>
      </trkpt>
      <trkpt lat="36.76983232609927654266357421875" lon="-118.42178299091756343841552734375">
        <ele>3241.60009765625</ele>
        <time>2021-06-25T16:47:55.000Z</time>
        <extensions>
          <ns3:TrackPointExtension>
            <ns3:atemp>24.0</ns3:atemp>
            <ns3:hr>79</ns3:hr>
          </ns3:TrackPointExtension>
        </extensions>
      </trkpt>
      <trkpt lat="36.7698238603770732879638671875" lon="-118.421799503266811370849609375">
        <ele>3241.60009765625</ele>
        <time>2021-06-25T16:47:57.000Z</time>
        <extensions>
          <ns3:TrackPointExtension>
            <ns3:atemp>24.0</ns3:atemp>
            <ns3:hr>78</ns3:hr>
          </ns3:TrackPointExtension>
        </extensions>
      </trkpt>
      <trkpt lat="36.76982595585286617279052734375" lon="-118.42182138003408908843994140625">
        <ele>3241.60009765625</ele>
        <time>2021-06-25T16:48:00.000Z</time>
        <extensions>
          <ns3:TrackPointExtension>
            <ns3:atemp>24.0</ns3:atemp>
            <ns3:hr>75</ns3:hr>
          </ns3:TrackPointExtension>
        </extensions>
      </trkpt>
      <trkpt lat="36.76980986259877681732177734375" lon="-118.42183764092624187469482421875">
        <ele>3241.60009765625</ele>
        <time>2021-06-25T16:48:02.000Z</time>
        <extensions>
          <ns3:TrackPointExtension>
            <ns3:atemp>24.0</ns3:atemp>
            <ns3:hr>78</ns3:hr>
          </ns3:TrackPointExtension>
        </extensions>
      </trkpt>
      <trkpt lat="36.7698138020932674407958984375" lon="-118.42188742943108081817626953125">
        <ele>3241.800048828125</ele>
        <time>2021-06-25T16:48:08.000Z</time>
        <extensions>
          <ns3:TrackPointExtension>
            <ns3:atemp>24.0</ns3:atemp>
            <ns3:hr>78</ns3:hr>
          </ns3:TrackPointExtension>
        </extensions>
      </trkpt>
      <trkpt lat="36.7697775922715663909912109375" lon="-118.421930931508541107177734375">
        <ele>3242.60009765625</ele>
        <time>2021-06-25T16:48:15.000Z</time>
        <extensions>
          <ns3:TrackPointExtension>
            <ns3:atemp>24.0</ns3:atemp>
            <ns3:hr>80</ns3:hr>
          </ns3:TrackPointExtension>
        </extensions>
      </trkpt>
      <trkpt lat="36.76977884955704212188720703125" lon="-118.42194392345845699310302734375">
        <ele>3242.60009765625</ele>
        <time>2021-06-25T16:48:16.000Z</time>
        <extensions>
          <ns3:TrackPointExtension>
            <ns3:atemp>24.0</ns3:atemp>
            <ns3:hr>80</ns3:hr>
          </ns3:TrackPointExtension>
        </extensions>
      </trkpt>
      <trkpt lat="36.76978890784084796905517578125" lon="-118.4219720028340816497802734375">
        <ele>3242.800048828125</ele>
        <time>2021-06-25T16:48:18.000Z</time>
        <extensions>
          <ns3:TrackPointExtension>
            <ns3:atemp>24.0</ns3:atemp>
            <ns3:hr>83</ns3:hr>
          </ns3:TrackPointExtension>
        </extensions>
      </trkpt>
      <trkpt lat="36.76978639326989650726318359375" lon="-118.4219897724688053131103515625">
        <ele>3243</ele>
        <time>2021-06-25T16:48:20.000Z</time>
        <extensions>
          <ns3:TrackPointExtension>
            <ns3:atemp>24.0</ns3:atemp>
            <ns3:hr>85</ns3:hr>
          </ns3:TrackPointExtension>
        </extensions>
      </trkpt>
      <trkpt lat="36.76979091949760913848876953125" lon="-118.4220063686370849609375">
        <ele>3243.199951171875</ele>
        <time>2021-06-25T16:48:23.000Z</time>
        <extensions>
          <ns3:TrackPointExtension>
            <ns3:atemp>24.0</ns3:atemp>
            <ns3:hr>88</ns3:hr>
          </ns3:TrackPointExtension>
        </extensions>
      </trkpt>
      <trkpt lat="36.76978957839310169219970703125" lon="-118.42201382853090763092041015625">
        <ele>3243.199951171875</ele>
        <time>2021-06-25T16:48:24.000Z</time>
        <extensions>
          <ns3:TrackPointExtension>
            <ns3:atemp>24.0</ns3:atemp>
            <ns3:hr>89</ns3:hr>
          </ns3:TrackPointExtension>
        </extensions>
      </trkpt>
      <trkpt lat="36.76979075185954570770263671875" lon="-118.4220219589769840240478515625">
        <ele>3243.60009765625</ele>
        <time>2021-06-25T16:48:25.000Z</time>
        <extensions>
          <ns3:TrackPointExtension>
            <ns3:atemp>24.0</ns3:atemp>
            <ns3:hr>90</ns3:hr>
          </ns3:TrackPointExtension>
        </extensions>
      </trkpt>
      <trkpt lat="36.76979360170662403106689453125" lon="-118.4220345318317413330078125">
        <ele>3243.60009765625</ele>
        <time>2021-06-25T16:48:26.000Z</time>
        <extensions>
          <ns3:TrackPointExtension>
            <ns3:atemp>24.0</ns3:atemp>
            <ns3:hr>91</ns3:hr>
          </ns3:TrackPointExtension>
        </extensions>
      </trkpt>
      <trkpt lat="36.76979720592498779296875" lon="-118.42205221764743328094482421875">
        <ele>3243.800048828125</ele>
        <time>2021-06-25T16:48:28.000Z</time>
        <extensions>
          <ns3:TrackPointExtension>
            <ns3:atemp>24.0</ns3:atemp>
            <ns3:hr>93</ns3:hr>
          </ns3:TrackPointExtension>
        </extensions>
      </trkpt>
      <trkpt lat="36.76980148069560527801513671875" lon="-118.42207401059567928314208984375">
        <ele>3244</ele>
        <time>2021-06-25T16:48:30.000Z</time>
        <extensions>
          <ns3:TrackPointExtension>
            <ns3:atemp>24.0</ns3:atemp>
            <ns3:hr>96</ns3:hr>
          </ns3:TrackPointExtension>
        </extensions>
      </trkpt>
      <trkpt lat="36.769800893962383270263671875" lon="-118.4220819734036922454833984375">
        <ele>3244.199951171875</ele>
        <time>2021-06-25T16:48:31.000Z</time>
        <extensions>
          <ns3:TrackPointExtension>
            <ns3:atemp>24.0</ns3:atemp>
            <ns3:hr>97</ns3:hr>
          </ns3:TrackPointExtension>
        </extensions>
      </trkpt>
      <trkpt lat="36.76980365999042987823486328125" lon="-118.42208884656429290771484375">
        <ele>3244.199951171875</ele>
        <time>2021-06-25T16:48:32.000Z</time>
        <extensions>
          <ns3:TrackPointExtension>
            <ns3:atemp>24.0</ns3:atemp>
            <ns3:hr>98</ns3:hr>
          </ns3:TrackPointExtension>
        </extensions>
      </trkpt>
      <trkpt lat="36.76981254480779170989990234375" lon="-118.42210368253290653228759765625">
        <ele>3245</ele>
        <time>2021-06-25T16:48:34.000Z</time>
        <extensions>
          <ns3:TrackPointExtension>
            <ns3:atemp>24.0</ns3:atemp>
            <ns3:hr>101</ns3:hr>
          </ns3:TrackPointExtension>
        </extensions>
      </trkpt>
      <trkpt lat="36.7698200047016143798828125" lon="-118.42211156152188777923583984375">
        <ele>3245</ele>
        <time>2021-06-25T16:48:35.000Z</time>
        <extensions>
          <ns3:TrackPointExtension>
            <ns3:atemp>24.0</ns3:atemp>
            <ns3:hr>102</ns3:hr>
          </ns3:TrackPointExtension>
        </extensions>
      </trkpt>
      <trkpt lat="36.76985160447657108306884765625" lon="-118.422156907618045806884765625">
        <ele>3247.60009765625</ele>
        <time>2021-06-25T16:48:41.000Z</time>
        <extensions>
          <ns3:TrackPointExtension>
            <ns3:atemp>24.0</ns3:atemp>
            <ns3:hr>104</ns3:hr>
          </ns3:TrackPointExtension>
        </extensions>
      </trkpt>
      <trkpt lat="36.76985328085720539093017578125" lon="-118.42216721735894680023193359375">
        <ele>3247.60009765625</ele>
        <time>2021-06-25T16:48:43.000Z</time>
        <extensions>
          <ns3:TrackPointExtension>
            <ns3:atemp>24.0</ns3:atemp>
            <ns3:hr>103</ns3:hr>
          </ns3:TrackPointExtension>
        </extensions>
      </trkpt>
      <trkpt lat="36.769854538142681121826171875" lon="-118.422169648110866546630859375">
        <ele>3247.60009765625</ele>
        <time>2021-06-25T16:48:45.000Z</time>
        <extensions>
          <ns3:TrackPointExtension>
            <ns3:atemp>24.0</ns3:atemp>
            <ns3:hr>106</ns3:hr>
          </ns3:TrackPointExtension>
        </extensions>
      </trkpt>
      <trkpt lat="36.7698265425860881805419921875" lon="-118.4221976436674594879150390625">
        <ele>3248.39990234375</ele>
        <time>2021-06-25T16:48:50.000Z</time>
        <extensions>
          <ns3:TrackPointExtension>
            <ns3:atemp>24.0</ns3:atemp>
            <ns3:hr>108</ns3:hr>
          </ns3:TrackPointExtension>
        </extensions>
      </trkpt>
      <trkpt lat="36.76983215846121311187744140625" lon="-118.4222008287906646728515625">
        <ele>3248.60009765625</ele>
        <time>2021-06-25T16:48:51.000Z</time>
        <extensions>
          <ns3:TrackPointExtension>
            <ns3:atemp>24.0</ns3:atemp>
            <ns3:hr>108</ns3:hr>
          </ns3:TrackPointExtension>
        </extensions>
      </trkpt>
      <trkpt lat="36.76983081735670566558837890625" lon="-118.42220677994191646575927734375">
        <ele>3248.800048828125</ele>
        <time>2021-06-25T16:48:52.000Z</time>
        <extensions>
          <ns3:TrackPointExtension>
            <ns3:atemp>24.0</ns3:atemp>
            <ns3:hr>109</ns3:hr>
          </ns3:TrackPointExtension>
        </extensions>
      </trkpt>
      <trkpt lat="36.76983098499476909637451171875" lon="-118.42222622595727443695068359375">
        <ele>3249.199951171875</ele>
        <time>2021-06-25T16:48:56.000Z</time>
        <extensions>
          <ns3:TrackPointExtension>
            <ns3:atemp>24.0</ns3:atemp>
            <ns3:hr>110</ns3:hr>
          </ns3:TrackPointExtension>
        </extensions>
      </trkpt>
      <trkpt lat="36.769829057157039642333984375" lon="-118.4222338534891605377197265625">
        <ele>3249.800048828125</ele>
        <time>2021-06-25T16:48:58.000Z</time>
        <extensions>
          <ns3:TrackPointExtension>
            <ns3:atemp>24.0</ns3:atemp>
            <ns3:hr>110</ns3:hr>
          </ns3:TrackPointExtension>
        </extensions>
      </trkpt>
      <trkpt lat="36.7698376066982746124267578125" lon="-118.42229210771620273590087890625">
        <ele>3250.39990234375</ele>
        <time>2021-06-25T16:49:05.000Z</time>
        <extensions>
          <ns3:TrackPointExtension>
            <ns3:atemp>24.0</ns3:atemp>
            <ns3:hr>109</ns3:hr>
          </ns3:TrackPointExtension>
        </extensions>
      </trkpt>
      <trkpt lat="36.7698630876839160919189453125" lon="-118.42233904637396335601806640625">
        <ele>3251</ele>
        <time>2021-06-25T16:49:11.000Z</time>
        <extensions>
          <ns3:TrackPointExtension>
            <ns3:atemp>24.0</ns3:atemp>
            <ns3:hr>107</ns3:hr>
          </ns3:TrackPointExtension>
        </extensions>
      </trkpt>
      <trkpt lat="36.769865937530994415283203125" lon="-118.42236452735960483551025390625">
        <ele>3251.39990234375</ele>
        <time>2021-06-25T16:49:14.000Z</time>
        <extensions>
          <ns3:TrackPointExtension>
            <ns3:atemp>25.0</ns3:atemp>
            <ns3:hr>109</ns3:hr>
          </ns3:TrackPointExtension>
        </extensions>
      </trkpt>
      <trkpt lat="36.76985445432364940643310546875" lon="-118.42236804775893688201904296875">
        <ele>3251.39990234375</ele>
        <time>2021-06-25T16:49:16.000Z</time>
        <extensions>
          <ns3:TrackPointExtension>
            <ns3:atemp>25.0</ns3:atemp>
            <ns3:hr>109</ns3:hr>
          </ns3:TrackPointExtension>
        </extensions>
      </trkpt>
      <trkpt lat="36.76983274519443511962890625" lon="-118.42237810604274272918701171875">
        <ele>3251.60009765625</ele>
        <time>2021-06-25T16:49:19.000Z</time>
        <extensions>
          <ns3:TrackPointExtension>
            <ns3:atemp>25.0</ns3:atemp>
            <ns3:hr>111</ns3:hr>
          </ns3:TrackPointExtension>
        </extensions>
      </trkpt>
      <trkpt lat="36.76982310600578784942626953125" lon="-118.42238162644207477569580078125">
        <ele>3251.60009765625</ele>
        <time>2021-06-25T16:49:21.000Z</time>
        <extensions>
          <ns3:TrackPointExtension>
            <ns3:atemp>25.0</ns3:atemp>
            <ns3:hr>113</ns3:hr>
          </ns3:TrackPointExtension>
        </extensions>
      </trkpt>
      <trkpt lat="36.7698158137500286102294921875" lon="-118.42238464392721652984619140625">
        <ele>3252.199951171875</ele>
        <time>2021-06-25T16:49:22.000Z</time>
        <extensions>
          <ns3:TrackPointExtension>
            <ns3:atemp>25.0</ns3:atemp>
            <ns3:hr>113</ns3:hr>
          </ns3:TrackPointExtension>
        </extensions>
      </trkpt>
      <trkpt lat="36.76980835385620594024658203125" lon="-118.42238724231719970703125">
        <ele>3252.199951171875</ele>
        <time>2021-06-25T16:49:23.000Z</time>
        <extensions>
          <ns3:TrackPointExtension>
            <ns3:atemp>25.0</ns3:atemp>
            <ns3:hr>113</ns3:hr>
          </ns3:TrackPointExtension>
        </extensions>
      </trkpt>
      <trkpt lat="36.7698030732572078704833984375" lon="-118.4224004857242107391357421875">
        <ele>3252.199951171875</ele>
        <time>2021-06-25T16:49:25.000Z</time>
        <extensions>
          <ns3:TrackPointExtension>
            <ns3:atemp>25.0</ns3:atemp>
            <ns3:hr>115</ns3:hr>
          </ns3:TrackPointExtension>
        </extensions>
      </trkpt>
      <trkpt lat="36.76981187425553798675537109375" lon="-118.4224309958517551422119140625">
        <ele>3252.39990234375</ele>
        <time>2021-06-25T16:49:28.000Z</time>
        <extensions>
          <ns3:TrackPointExtension>
            <ns3:atemp>25.0</ns3:atemp>
            <ns3:hr>115</ns3:hr>
          </ns3:TrackPointExtension>
        </extensions>
      </trkpt>
      <trkpt lat="36.769834421575069427490234375" lon="-118.42248254455626010894775390625">
        <ele>3252.800048828125</ele>
        <time>2021-06-25T16:49:31.000Z</time>
        <extensions>
          <ns3:TrackPointExtension>
            <ns3:atemp>25.0</ns3:atemp>
            <ns3:hr>117</ns3:hr>
          </ns3:TrackPointExtension>
        </extensions>
      </trkpt>
      <trkpt lat="36.769846491515636444091796875" lon="-118.4224990569055080413818359375">
        <ele>3253.199951171875</ele>
        <time>2021-06-25T16:49:33.000Z</time>
        <extensions>
          <ns3:TrackPointExtension>
            <ns3:atemp>25.0</ns3:atemp>
            <ns3:hr>117</ns3:hr>
          </ns3:TrackPointExtension>
        </extensions>
      </trkpt>
      <trkpt lat="36.769858561456203460693359375" lon="-118.4225506894290447235107421875">
        <ele>3253.60009765625</ele>
        <time>2021-06-25T16:49:40.000Z</time>
        <extensions>
          <ns3:TrackPointExtension>
            <ns3:atemp>25.0</ns3:atemp>
            <ns3:hr>117</ns3:hr>
          </ns3:TrackPointExtension>
        </extensions>
      </trkpt>
      <trkpt lat="36.76985998637974262237548828125" lon="-118.42259888537228107452392578125">
        <ele>3253.199951171875</ele>
        <time>2021-06-25T16:49:45.000Z</time>
        <extensions>
          <ns3:TrackPointExtension>
            <ns3:atemp>25.0</ns3:atemp>
            <ns3:hr>114</ns3:hr>
          </ns3:TrackPointExtension>
        </extensions>
      </trkpt>
      <trkpt lat="36.7698667757213115692138671875" lon="-118.4226219356060028076171875">
        <ele>3253</ele>
        <time>2021-06-25T16:49:47.000Z</time>
        <extensions>
          <ns3:TrackPointExtension>
            <ns3:atemp>25.0</ns3:atemp>
            <ns3:hr>112</ns3:hr>
          </ns3:TrackPointExtension>
        </extensions>
      </trkpt>
      <trkpt lat="36.76986895501613616943359375" lon="-118.42262771911919116973876953125">
        <ele>3253</ele>
        <time>2021-06-25T16:49:48.000Z</time>
        <extensions>
          <ns3:TrackPointExtension>
            <ns3:atemp>25.0</ns3:atemp>
            <ns3:hr>112</ns3:hr>
          </ns3:TrackPointExtension>
        </extensions>
      </trkpt>
      <trkpt lat="36.769868619740009307861328125" lon="-118.42264615930616855621337890625">
        <ele>3252.199951171875</ele>
        <time>2021-06-25T16:49:51.000Z</time>
        <extensions>
          <ns3:TrackPointExtension>
            <ns3:atemp>25.0</ns3:atemp>
            <ns3:hr>109</ns3:hr>
          </ns3:TrackPointExtension>
        </extensions>
      </trkpt>
      <trkpt lat="36.76986384205520153045654296875" lon="-118.422668538987636566162109375">
        <ele>3251.60009765625</ele>
        <time>2021-06-25T16:49:53.000Z</time>
        <extensions>
          <ns3:TrackPointExtension>
            <ns3:atemp>25.0</ns3:atemp>
            <ns3:hr>107</ns3:hr>
          </ns3:TrackPointExtension>
        </extensions>
      </trkpt>
      <trkpt lat="36.769820339977741241455078125" lon="-118.422714136540889739990234375">
        <ele>3251</ele>
        <time>2021-06-25T16:50:00.000Z</time>
        <extensions>
          <ns3:TrackPointExtension>
            <ns3:atemp>25.0</ns3:atemp>
            <ns3:hr>104</ns3:hr>
          </ns3:TrackPointExtension>
        </extensions>
      </trkpt>
      <trkpt lat="36.76981187425553798675537109375" lon="-118.42272176407277584075927734375">
        <ele>3250.800048828125</ele>
        <time>2021-06-25T16:50:01.000Z</time>
        <extensions>
          <ns3:TrackPointExtension>
            <ns3:atemp>25.0</ns3:atemp>
            <ns3:hr>104</ns3:hr>
          </ns3:TrackPointExtension>
        </extensions>
      </trkpt>
      <trkpt lat="36.76973459310829639434814453125" lon="-118.42275361530482769012451171875">
        <ele>3250.199951171875</ele>
        <time>2021-06-25T16:50:09.000Z</time>
        <extensions>
          <ns3:TrackPointExtension>
            <ns3:atemp>25.0</ns3:atemp>
            <ns3:hr>103</ns3:hr>
          </ns3:TrackPointExtension>
        </extensions>
      </trkpt>
      <trkpt lat="36.76969083957374095916748046875" lon="-118.42279200442135334014892578125">
        <ele>3250.199951171875</ele>
        <time>2021-06-25T16:50:15.000Z</time>
        <extensions>
          <ns3:TrackPointExtension>
            <ns3:atemp>25.0</ns3:atemp>
            <ns3:hr>100</ns3:hr>
          </ns3:TrackPointExtension>
        </extensions>
      </trkpt>
      <trkpt lat="36.7696857266128063201904296875" lon="-118.4228070080280303955078125">
        <ele>3250.199951171875</ele>
        <time>2021-06-25T16:50:16.000Z</time>
        <extensions>
          <ns3:TrackPointExtension>
            <ns3:atemp>25.0</ns3:atemp>
            <ns3:hr>100</ns3:hr>
          </ns3:TrackPointExtension>
        </extensions>
      </trkpt>
      <trkpt lat="36.76967491395771503448486328125" lon="-118.422830142080783843994140625">
        <ele>3250.199951171875</ele>
        <time>2021-06-25T16:50:19.000Z</time>
        <extensions>
          <ns3:TrackPointExtension>
            <ns3:atemp>25.0</ns3:atemp>
            <ns3:hr>97</ns3:hr>
          </ns3:TrackPointExtension>
        </extensions>
      </trkpt>
      <trkpt lat="36.7696464993059635162353515625" lon="-118.4228366799652576446533203125">
        <ele>3250.199951171875</ele>
        <time>2021-06-25T16:50:23.000Z</time>
        <extensions>
          <ns3:TrackPointExtension>
            <ns3:atemp>25.0</ns3:atemp>
            <ns3:hr>94</ns3:hr>
          </ns3:TrackPointExtension>
        </extensions>
      </trkpt>
      <trkpt lat="36.76963317207992076873779296875" lon="-118.42284665443003177642822265625">
        <ele>3250.60009765625</ele>
        <time>2021-06-25T16:50:26.000Z</time>
        <extensions>
          <ns3:TrackPointExtension>
            <ns3:atemp>25.0</ns3:atemp>
            <ns3:hr>91</ns3:hr>
          </ns3:TrackPointExtension>
        </extensions>
      </trkpt>
      <trkpt lat="36.7696210183203220367431640625" lon="-118.42284129001200199127197265625">
        <ele>3251.199951171875</ele>
        <time>2021-06-25T16:50:29.000Z</time>
        <extensions>
          <ns3:TrackPointExtension>
            <ns3:atemp>25.0</ns3:atemp>
            <ns3:hr>90</ns3:hr>
          </ns3:TrackPointExtension>
        </extensions>
      </trkpt>
      <trkpt lat="36.76959545351564884185791015625" lon="-118.42284799553453922271728515625">
        <ele>3251.39990234375</ele>
        <time>2021-06-25T16:50:36.000Z</time>
        <extensions>
          <ns3:TrackPointExtension>
            <ns3:atemp>25.0</ns3:atemp>
            <ns3:hr>92</ns3:hr>
          </ns3:TrackPointExtension>
        </extensions>
      </trkpt>
      <trkpt lat="36.76956594921648502349853515625" lon="-118.4228487499058246612548828125">
        <ele>3250.39990234375</ele>
        <time>2021-06-25T16:50:42.000Z</time>
        <extensions>
          <ns3:TrackPointExtension>
            <ns3:atemp>25.0</ns3:atemp>
            <ns3:hr>93</ns3:hr>
          </ns3:TrackPointExtension>
        </extensions>
      </trkpt>
      <trkpt lat="36.7695247940719127655029296875" lon="-118.42289929278194904327392578125">
        <ele>3250.199951171875</ele>
        <time>2021-06-25T16:50:48.000Z</time>
        <extensions>
          <ns3:TrackPointExtension>
            <ns3:atemp>25.0</ns3:atemp>
            <ns3:hr>93</ns3:hr>
          </ns3:TrackPointExtension>
        </extensions>
      </trkpt>
      <trkpt lat="36.76951314322650432586669921875" lon="-118.42291471548378467559814453125">
        <ele>3250</ele>
        <time>2021-06-25T16:50:50.000Z</time>
        <extensions>
          <ns3:TrackPointExtension>
            <ns3:atemp>25.0</ns3:atemp>
            <ns3:hr>93</ns3:hr>
          </ns3:TrackPointExtension>
        </extensions>
      </trkpt>
      <trkpt lat="36.76949235610663890838623046875" lon="-118.42292762361466884613037109375">
        <ele>3249.800048828125</ele>
        <time>2021-06-25T16:50:53.000Z</time>
        <extensions>
          <ns3:TrackPointExtension>
            <ns3:atemp>25.0</ns3:atemp>
            <ns3:hr>91</ns3:hr>
          </ns3:TrackPointExtension>
        </extensions>
      </trkpt>
      <trkpt lat="36.769490428268909454345703125" lon="-118.42293399386107921600341796875">
        <ele>3249.800048828125</ele>
        <time>2021-06-25T16:50:54.000Z</time>
        <extensions>
          <ns3:TrackPointExtension>
            <ns3:atemp>25.0</ns3:atemp>
            <ns3:hr>88</ns3:hr>
          </ns3:TrackPointExtension>
        </extensions>
      </trkpt>
      <trkpt lat="36.76949051208794116973876953125" lon="-118.422943465411663055419921875">
        <ele>3249.800048828125</ele>
        <time>2021-06-25T16:50:55.000Z</time>
        <extensions>
          <ns3:TrackPointExtension>
            <ns3:atemp>25.0</ns3:atemp>
            <ns3:hr>92</ns3:hr>
          </ns3:TrackPointExtension>
        </extensions>
      </trkpt>
      <trkpt lat="36.7694927752017974853515625" lon="-118.42296031303703784942626953125">
        <ele>3249.800048828125</ele>
        <time>2021-06-25T16:50:57.000Z</time>
        <extensions>
          <ns3:TrackPointExtension>
            <ns3:atemp>25.0</ns3:atemp>
            <ns3:hr>93</ns3:hr>
          </ns3:TrackPointExtension>
        </extensions>
      </trkpt>
      <trkpt lat="36.769519932568073272705078125" lon="-118.42302359640598297119140625">
        <ele>3249.199951171875</ele>
        <time>2021-06-25T16:51:10.000Z</time>
        <extensions>
          <ns3:TrackPointExtension>
            <ns3:atemp>25.0</ns3:atemp>
            <ns3:hr>95</ns3:hr>
          </ns3:TrackPointExtension>
        </extensions>
      </trkpt>
      <trkpt lat="36.7695100419223308563232421875" lon="-118.423040695488452911376953125">
        <ele>3248.800048828125</ele>
        <time>2021-06-25T16:51:15.000Z</time>
        <extensions>
          <ns3:TrackPointExtension>
            <ns3:atemp>25.0</ns3:atemp>
            <ns3:hr>95</ns3:hr>
          </ns3:TrackPointExtension>
        </extensions>
      </trkpt>
      <trkpt lat="36.7695170827209949493408203125" lon="-118.42306240461766719818115234375">
        <ele>3248.800048828125</ele>
        <time>2021-06-25T16:51:18.000Z</time>
        <extensions>
          <ns3:TrackPointExtension>
            <ns3:atemp>25.0</ns3:atemp>
            <ns3:hr>96</ns3:hr>
          </ns3:TrackPointExtension>
        </extensions>
      </trkpt>
      <trkpt lat="36.7695288173854351043701171875" lon="-118.423088975250720977783203125">
        <ele>3249</ele>
        <time>2021-06-25T16:51:24.000Z</time>
        <extensions>
          <ns3:TrackPointExtension>
            <ns3:atemp>25.0</ns3:atemp>
            <ns3:hr>98</ns3:hr>
          </ns3:TrackPointExtension>
        </extensions>
      </trkpt>
      <trkpt lat="36.7695437371730804443359375" lon="-118.423054106533527374267578125">
        <ele>3249</ele>
        <time>2021-06-25T16:51:33.000Z</time>
        <extensions>
          <ns3:TrackPointExtension>
            <ns3:atemp>25.0</ns3:atemp>
            <ns3:hr>95</ns3:hr>
          </ns3:TrackPointExtension>
        </extensions>
      </trkpt>
      <trkpt lat="36.76954708993434906005859375" lon="-118.423046059906482696533203125">
        <ele>3249.199951171875</ele>
        <time>2021-06-25T16:51:36.000Z</time>
        <extensions>
          <ns3:TrackPointExtension>
            <ns3:atemp>25.0</ns3:atemp>
            <ns3:hr>92</ns3:hr>
          </ns3:TrackPointExtension>
        </extensions>
      </trkpt>
      <trkpt lat="36.7695475928485393524169921875" lon="-118.4230435453355312347412109375">
        <ele>3249.199951171875</ele>
        <time>2021-06-25T16:51:38.000Z</time>
        <extensions>
          <ns3:TrackPointExtension>
            <ns3:atemp>24.0</ns3:atemp>
            <ns3:hr>89</ns3:hr>
          </ns3:TrackPointExtension>
        </extensions>
      </trkpt>
      <trkpt lat="36.7695475928485393524169921875" lon="-118.4230435453355312347412109375">
        <ele>3249.39990234375</ele>
        <time>2021-06-25T16:51:40.000Z</time>
        <extensions>
          <ns3:TrackPointExtension>
            <ns3:atemp>24.0</ns3:atemp>
            <ns3:hr>86</ns3:hr>
          </ns3:TrackPointExtension>
        </extensions>
      </trkpt>
      <trkpt lat="36.7695475928485393524169921875" lon="-118.4230435453355312347412109375">
        <ele>3249.39990234375</ele>
        <time>2021-06-25T16:51:45.000Z</time>
        <extensions>
          <ns3:TrackPointExtension>
            <ns3:atemp>24.0</ns3:atemp>
            <ns3:hr>85</ns3:hr>
          </ns3:TrackPointExtension>
        </extensions>
      </trkpt>
      <trkpt lat="36.7695475928485393524169921875" lon="-118.4230435453355312347412109375">
        <ele>3249.39990234375</ele>
        <time>2021-06-25T16:51:47.000Z</time>
        <extensions>
          <ns3:TrackPointExtension>
            <ns3:atemp>24.0</ns3:atemp>
            <ns3:hr>81</ns3:hr>
          </ns3:TrackPointExtension>
        </extensions>
      </trkpt>
      <trkpt lat="36.7695475928485393524169921875" lon="-118.4230435453355312347412109375">
        <ele>3249.39990234375</ele>
        <time>2021-06-25T16:51:48.000Z</time>
        <extensions>
          <ns3:TrackPointExtension>
            <ns3:atemp>24.0</ns3:atemp>
            <ns3:hr>85</ns3:hr>
          </ns3:TrackPointExtension>
        </extensions>
      </trkpt>
      <trkpt lat="36.76956159062683582305908203125" lon="-118.42304128222167491912841796875">
        <ele>3249.60009765625</ele>
        <time>2021-06-25T16:51:56.000Z</time>
        <extensions>
          <ns3:TrackPointExtension>
            <ns3:atemp>24.0</ns3:atemp>
            <ns3:hr>82</ns3:hr>
          </ns3:TrackPointExtension>
        </extensions>
      </trkpt>
      <trkpt lat="36.7695651948451995849609375" lon="-118.42304128222167491912841796875">
        <ele>3249.800048828125</ele>
        <time>2021-06-25T16:52:00.000Z</time>
        <extensions>
          <ns3:TrackPointExtension>
            <ns3:atemp>24.0</ns3:atemp>
            <ns3:hr>78</ns3:hr>
          </ns3:TrackPointExtension>
        </extensions>
      </trkpt>
      <trkpt lat="36.7695651948451995849609375" lon="-118.42304128222167491912841796875">
        <ele>3249.60009765625</ele>
        <time>2021-06-25T16:52:03.000Z</time>
        <extensions>
          <ns3:TrackPointExtension>
            <ns3:atemp>24.0</ns3:atemp>
            <ns3:hr>75</ns3:hr>
          </ns3:TrackPointExtension>
        </extensions>
      </trkpt>
      <trkpt lat="36.769567541778087615966796875" lon="-118.4231374226510524749755859375">
        <ele>3247.60009765625</ele>
        <time>2021-06-25T16:52:14.000Z</time>
        <extensions>
          <ns3:TrackPointExtension>
            <ns3:atemp>24.0</ns3:atemp>
            <ns3:hr>75</ns3:hr>
          </ns3:TrackPointExtension>
        </extensions>
      </trkpt>
      <trkpt lat="36.76957525312900543212890625" lon="-118.423203639686107635498046875">
        <ele>3247.60009765625</ele>
        <time>2021-06-25T16:52:17.000Z</time>
        <extensions>
          <ns3:TrackPointExtension>
            <ns3:atemp>24.0</ns3:atemp>
            <ns3:hr>75</ns3:hr>
          </ns3:TrackPointExtension>
        </extensions>
      </trkpt>
      <trkpt lat="36.76956796087324619293212890625" lon="-118.42324060387909412384033203125">
        <ele>3247.60009765625</ele>
        <time>2021-06-25T16:52:19.000Z</time>
        <extensions>
          <ns3:TrackPointExtension>
            <ns3:atemp>24.0</ns3:atemp>
            <ns3:hr>75</ns3:hr>
          </ns3:TrackPointExtension>
        </extensions>
      </trkpt>
      <trkpt lat="36.76956117153167724609375" lon="-118.42324831523001194000244140625">
        <ele>3247.60009765625</ele>
        <time>2021-06-25T16:52:20.000Z</time>
        <extensions>
          <ns3:TrackPointExtension>
            <ns3:atemp>24.0</ns3:atemp>
            <ns3:hr>74</ns3:hr>
          </ns3:TrackPointExtension>
        </extensions>
      </trkpt>
      <trkpt lat="36.76954398863017559051513671875" lon="-118.4232839383184909820556640625">
        <ele>3248</ele>
        <time>2021-06-25T16:52:24.000Z</time>
        <extensions>
          <ns3:TrackPointExtension>
            <ns3:atemp>24.0</ns3:atemp>
            <ns3:hr>76</ns3:hr>
          </ns3:TrackPointExtension>
        </extensions>
      </trkpt>
      <trkpt lat="36.76954801194369792938232421875" lon="-118.4233178012073040008544921875">
        <ele>3248.199951171875</ele>
        <time>2021-06-25T16:52:27.000Z</time>
        <extensions>
          <ns3:TrackPointExtension>
            <ns3:atemp>24.0</ns3:atemp>
            <ns3:hr>79</ns3:hr>
          </ns3:TrackPointExtension>
        </extensions>
      </trkpt>
      <trkpt lat="36.76954499445855617523193359375" lon="-118.4233265183866024017333984375">
        <ele>3248.39990234375</ele>
        <time>2021-06-25T16:52:28.000Z</time>
        <extensions>
          <ns3:TrackPointExtension>
            <ns3:atemp>24.0</ns3:atemp>
            <ns3:hr>80</ns3:hr>
          </ns3:TrackPointExtension>
        </extensions>
      </trkpt>
      <trkpt lat="36.76953678019344806671142578125" lon="-118.42333565466105937957763671875">
        <ele>3248.39990234375</ele>
        <time>2021-06-25T16:52:29.000Z</time>
        <extensions>
          <ns3:TrackPointExtension>
            <ns3:atemp>24.0</ns3:atemp>
            <ns3:hr>81</ns3:hr>
          </ns3:TrackPointExtension>
        </extensions>
      </trkpt>
      <trkpt lat="36.76951465196907520294189453125" lon="-118.42334588058292865753173828125">
        <ele>3248.800048828125</ele>
        <time>2021-06-25T16:52:31.000Z</time>
        <extensions>
          <ns3:TrackPointExtension>
            <ns3:atemp>24.0</ns3:atemp>
            <ns3:hr>82</ns3:hr>
          </ns3:TrackPointExtension>
        </extensions>
      </trkpt>
      <trkpt lat="36.76945966668426990509033203125" lon="-118.4233617223799228668212890625">
        <ele>3248.800048828125</ele>
        <time>2021-06-25T16:52:36.000Z</time>
        <extensions>
          <ns3:TrackPointExtension>
            <ns3:atemp>24.0</ns3:atemp>
            <ns3:hr>83</ns3:hr>
          </ns3:TrackPointExtension>
        </extensions>
      </trkpt>
      <trkpt lat="36.769419014453887939453125" lon="-118.4233647398650646209716796875">
        <ele>3249.199951171875</ele>
        <time>2021-06-25T16:52:41.000Z</time>
        <extensions>
          <ns3:TrackPointExtension>
            <ns3:atemp>24.0</ns3:atemp>
            <ns3:hr>85</ns3:hr>
          </ns3:TrackPointExtension>
        </extensions>
      </trkpt>
      <trkpt lat="36.76939965225756168365478515625" lon="-118.4233714453876018524169921875">
        <ele>3247.60009765625</ele>
        <time>2021-06-25T16:52:44.000Z</time>
        <extensions>
          <ns3:TrackPointExtension>
            <ns3:atemp>24.0</ns3:atemp>
            <ns3:hr>87</ns3:hr>
          </ns3:TrackPointExtension>
        </extensions>
      </trkpt>
      <trkpt lat="36.76937266252934932708740234375" lon="-118.42335828579962253570556640625">
        <ele>3247.60009765625</ele>
        <time>2021-06-25T16:52:47.000Z</time>
        <extensions>
          <ns3:TrackPointExtension>
            <ns3:atemp>24.0</ns3:atemp>
            <ns3:hr>90</ns3:hr>
          </ns3:TrackPointExtension>
        </extensions>
      </trkpt>
      <trkpt lat="36.769344247877597808837890625" lon="-118.42335811816155910491943359375">
        <ele>3247.800048828125</ele>
        <time>2021-06-25T16:52:50.000Z</time>
        <extensions>
          <ns3:TrackPointExtension>
            <ns3:atemp>24.0</ns3:atemp>
            <ns3:hr>92</ns3:hr>
          </ns3:TrackPointExtension>
        </extensions>
      </trkpt>
      <trkpt lat="36.76932522095739841461181640625" lon="-118.4233637340366840362548828125">
        <ele>3248</ele>
        <time>2021-06-25T16:52:52.000Z</time>
        <extensions>
          <ns3:TrackPointExtension>
            <ns3:atemp>24.0</ns3:atemp>
            <ns3:hr>93</ns3:hr>
          </ns3:TrackPointExtension>
        </extensions>
      </trkpt>
      <trkpt lat="36.769304014742374420166015625" lon="-118.42335443012416362762451171875">
        <ele>3248.60009765625</ele>
        <time>2021-06-25T16:52:54.000Z</time>
        <extensions>
          <ns3:TrackPointExtension>
            <ns3:atemp>24.0</ns3:atemp>
            <ns3:hr>95</ns3:hr>
          </ns3:TrackPointExtension>
        </extensions>
      </trkpt>
      <trkpt lat="36.76928012631833553314208984375" lon="-118.42335325665771961212158203125">
        <ele>3248.60009765625</ele>
        <time>2021-06-25T16:52:57.000Z</time>
        <extensions>
          <ns3:TrackPointExtension>
            <ns3:atemp>24.0</ns3:atemp>
            <ns3:hr>98</ns3:hr>
          </ns3:TrackPointExtension>
        </extensions>
      </trkpt>
      <trkpt lat="36.76926604472100734710693359375" lon="-118.42336197383701801300048828125">
        <ele>3248.800048828125</ele>
        <time>2021-06-25T16:52:59.000Z</time>
        <extensions>
          <ns3:TrackPointExtension>
            <ns3:atemp>24.0</ns3:atemp>
            <ns3:hr>99</ns3:hr>
          </ns3:TrackPointExtension>
        </extensions>
      </trkpt>
      <trkpt lat="36.76925875246524810791015625" lon="-118.42336356639862060546875">
        <ele>3248.800048828125</ele>
        <time>2021-06-25T16:53:00.000Z</time>
        <extensions>
          <ns3:TrackPointExtension>
            <ns3:atemp>24.0</ns3:atemp>
            <ns3:hr>98</ns3:hr>
          </ns3:TrackPointExtension>
        </extensions>
      </trkpt>
      <trkpt lat="36.7692431621253490447998046875" lon="-118.4233945794403553009033203125">
        <ele>3248.60009765625</ele>
        <time>2021-06-25T16:53:04.000Z</time>
        <extensions>
          <ns3:TrackPointExtension>
            <ns3:atemp>24.0</ns3:atemp>
            <ns3:hr>100</ns3:hr>
          </ns3:TrackPointExtension>
        </extensions>
      </trkpt>
      <trkpt lat="36.76923402585089206695556640625" lon="-118.4234378300607204437255859375">
        <ele>3248.199951171875</ele>
        <time>2021-06-25T16:53:08.000Z</time>
        <extensions>
          <ns3:TrackPointExtension>
            <ns3:atemp>25.0</ns3:atemp>
            <ns3:hr>97</ns3:hr>
          </ns3:TrackPointExtension>
        </extensions>
      </trkpt>
      <trkpt lat="36.76923997700214385986328125" lon="-118.423499353229999542236328125">
        <ele>3247.60009765625</ele>
        <time>2021-06-25T16:53:12.000Z</time>
        <extensions>
          <ns3:TrackPointExtension>
            <ns3:atemp>25.0</ns3:atemp>
            <ns3:hr>94</ns3:hr>
          </ns3:TrackPointExtension>
        </extensions>
      </trkpt>
      <trkpt lat="36.76923905499279499053955078125" lon="-118.42351712286472320556640625">
        <ele>3247.39990234375</ele>
        <time>2021-06-25T16:53:13.000Z</time>
        <extensions>
          <ns3:TrackPointExtension>
            <ns3:atemp>25.0</ns3:atemp>
            <ns3:hr>92</ns3:hr>
          </ns3:TrackPointExtension>
        </extensions>
      </trkpt>
      <trkpt lat="36.76923436112701892852783203125" lon="-118.4235327132046222686767578125">
        <ele>3246.800048828125</ele>
        <time>2021-06-25T16:53:15.000Z</time>
        <extensions>
          <ns3:TrackPointExtension>
            <ns3:atemp>25.0</ns3:atemp>
            <ns3:hr>95</ns3:hr>
          </ns3:TrackPointExtension>
        </extensions>
      </trkpt>
      <trkpt lat="36.76920552738010883331298828125" lon="-118.4235883690416812896728515625">
        <ele>3246.800048828125</ele>
        <time>2021-06-25T16:53:21.000Z</time>
        <extensions>
          <ns3:TrackPointExtension>
            <ns3:atemp>25.0</ns3:atemp>
            <ns3:hr>94</ns3:hr>
          </ns3:TrackPointExtension>
        </extensions>
      </trkpt>
      <trkpt lat="36.7692092992365360260009765625" lon="-118.42362307012081146240234375">
        <ele>3249.39990234375</ele>
        <time>2021-06-25T16:53:25.000Z</time>
        <extensions>
          <ns3:TrackPointExtension>
            <ns3:atemp>25.0</ns3:atemp>
            <ns3:hr>96</ns3:hr>
          </ns3:TrackPointExtension>
        </extensions>
      </trkpt>
      <trkpt lat="36.769215501844882965087890625" lon="-118.423642851412296295166015625">
        <ele>3249.39990234375</ele>
        <time>2021-06-25T16:53:26.000Z</time>
        <extensions>
          <ns3:TrackPointExtension>
            <ns3:atemp>25.0</ns3:atemp>
            <ns3:hr>97</ns3:hr>
          </ns3:TrackPointExtension>
        </extensions>
      </trkpt>
      <trkpt lat="36.76925003528594970703125" lon="-118.42373362742364406585693359375">
        <ele>3249.39990234375</ele>
        <time>2021-06-25T16:53:32.000Z</time>
        <extensions>
          <ns3:TrackPointExtension>
            <ns3:atemp>25.0</ns3:atemp>
            <ns3:hr>100</ns3:hr>
          </ns3:TrackPointExtension>
        </extensions>
      </trkpt>
      <trkpt lat="36.76925715990364551544189453125" lon="-118.42374837957322597503662109375">
        <ele>3249.60009765625</ele>
        <time>2021-06-25T16:53:34.000Z</time>
        <extensions>
          <ns3:TrackPointExtension>
            <ns3:atemp>25.0</ns3:atemp>
            <ns3:hr>98</ns3:hr>
          </ns3:TrackPointExtension>
        </extensions>
      </trkpt>
      <trkpt lat="36.7692994885146617889404296875" lon="-118.423780314624309539794921875">
        <ele>3250.39990234375</ele>
        <time>2021-06-25T16:53:38.000Z</time>
        <extensions>
          <ns3:TrackPointExtension>
            <ns3:atemp>25.0</ns3:atemp>
            <ns3:hr>98</ns3:hr>
          </ns3:TrackPointExtension>
        </extensions>
      </trkpt>
      <trkpt lat="36.76930862478911876678466796875" lon="-118.4237868525087833404541015625">
        <ele>3250.800048828125</ele>
        <time>2021-06-25T16:53:39.000Z</time>
        <extensions>
          <ns3:TrackPointExtension>
            <ns3:atemp>25.0</ns3:atemp>
            <ns3:hr>99</ns3:hr>
          </ns3:TrackPointExtension>
        </extensions>
      </trkpt>
      <trkpt lat="36.76931901834905147552490234375" lon="-118.42380168847739696502685546875">
        <ele>3251.39990234375</ele>
        <time>2021-06-25T16:53:41.000Z</time>
        <extensions>
          <ns3:TrackPointExtension>
            <ns3:atemp>25.0</ns3:atemp>
            <ns3:hr>99</ns3:hr>
          </ns3:TrackPointExtension>
        </extensions>
      </trkpt>
      <trkpt lat="36.76932890899479389190673828125" lon="-118.42381484806537628173828125">
        <ele>3251.60009765625</ele>
        <time>2021-06-25T16:53:43.000Z</time>
        <extensions>
          <ns3:TrackPointExtension>
            <ns3:atemp>25.0</ns3:atemp>
            <ns3:hr>100</ns3:hr>
          </ns3:TrackPointExtension>
        </extensions>
      </trkpt>
      <trkpt lat="36.7693320102989673614501953125" lon="-118.4238289296627044677734375">
        <ele>3251.60009765625</ele>
        <time>2021-06-25T16:53:44.000Z</time>
        <extensions>
          <ns3:TrackPointExtension>
            <ns3:atemp>25.0</ns3:atemp>
            <ns3:hr>100</ns3:hr>
          </ns3:TrackPointExtension>
        </extensions>
      </trkpt>
      <trkpt lat="36.7693383805453777313232421875" lon="-118.42385600320994853973388671875">
        <ele>3252.39990234375</ele>
        <time>2021-06-25T16:53:48.000Z</time>
        <extensions>
          <ns3:TrackPointExtension>
            <ns3:atemp>25.0</ns3:atemp>
            <ns3:hr>103</ns3:hr>
          </ns3:TrackPointExtension>
        </extensions>
      </trkpt>
      <trkpt lat="36.769336871802806854248046875" lon="-118.4238611161708831787109375">
        <ele>3252.60009765625</ele>
        <time>2021-06-25T16:53:49.000Z</time>
        <extensions>
          <ns3:TrackPointExtension>
            <ns3:atemp>25.0</ns3:atemp>
            <ns3:hr>105</ns3:hr>
          </ns3:TrackPointExtension>
        </extensions>
      </trkpt>
      <trkpt lat="36.769336201250553131103515625" lon="-118.42386581003665924072265625">
        <ele>3252.60009765625</ele>
        <time>2021-06-25T16:53:50.000Z</time>
        <extensions>
          <ns3:TrackPointExtension>
            <ns3:atemp>25.0</ns3:atemp>
            <ns3:hr>104</ns3:hr>
          </ns3:TrackPointExtension>
        </extensions>
      </trkpt>
      <trkpt lat="36.76932974718511104583740234375" lon="-118.42387444339692592620849609375">
        <ele>3253.199951171875</ele>
        <time>2021-06-25T16:53:52.000Z</time>
        <extensions>
          <ns3:TrackPointExtension>
            <ns3:atemp>25.0</ns3:atemp>
            <ns3:hr>104</ns3:hr>
          </ns3:TrackPointExtension>
        </extensions>
      </trkpt>
      <trkpt lat="36.7693128995597362518310546875" lon="-118.42389137484133243560791015625">
        <ele>3253.60009765625</ele>
        <time>2021-06-25T16:53:56.000Z</time>
        <extensions>
          <ns3:TrackPointExtension>
            <ns3:atemp>25.0</ns3:atemp>
            <ns3:hr>105</ns3:hr>
          </ns3:TrackPointExtension>
        </extensions>
      </trkpt>
      <trkpt lat="36.76931315101683139801025390625" lon="-118.42389405705034732818603515625">
        <ele>3253.60009765625</ele>
        <time>2021-06-25T16:53:57.000Z</time>
        <extensions>
          <ns3:TrackPointExtension>
            <ns3:atemp>25.0</ns3:atemp>
            <ns3:hr>106</ns3:hr>
          </ns3:TrackPointExtension>
        </extensions>
      </trkpt>
      <trkpt lat="36.769312061369419097900390625" lon="-118.42390109784901142120361328125">
        <ele>3253.800048828125</ele>
        <time>2021-06-25T16:53:58.000Z</time>
        <extensions>
          <ns3:TrackPointExtension>
            <ns3:atemp>25.0</ns3:atemp>
            <ns3:hr>106</ns3:hr>
          </ns3:TrackPointExtension>
        </extensions>
      </trkpt>
      <trkpt lat="36.76932555623352527618408203125" lon="-118.42391853220760822296142578125">
        <ele>3254.199951171875</ele>
        <time>2021-06-25T16:54:01.000Z</time>
        <extensions>
          <ns3:TrackPointExtension>
            <ns3:atemp>25.0</ns3:atemp>
            <ns3:hr>106</ns3:hr>
          </ns3:TrackPointExtension>
        </extensions>
      </trkpt>
      <trkpt lat="36.76934785209596157073974609375" lon="-118.4239415824413299560546875">
        <ele>3254.800048828125</ele>
        <time>2021-06-25T16:54:05.000Z</time>
        <extensions>
          <ns3:TrackPointExtension>
            <ns3:atemp>25.0</ns3:atemp>
            <ns3:hr>109</ns3:hr>
          </ns3:TrackPointExtension>
        </extensions>
      </trkpt>
      <trkpt lat="36.7693333514034748077392578125" lon="-118.42394250445067882537841796875">
        <ele>3255.199951171875</ele>
        <time>2021-06-25T16:54:08.000Z</time>
        <extensions>
          <ns3:TrackPointExtension>
            <ns3:atemp>25.0</ns3:atemp>
            <ns3:hr>110</ns3:hr>
          </ns3:TrackPointExtension>
        </extensions>
      </trkpt>
      <trkpt lat="36.769289262592792510986328125" lon="-118.42396262101829051971435546875">
        <ele>3256</ele>
        <time>2021-06-25T16:54:14.000Z</time>
        <extensions>
          <ns3:TrackPointExtension>
            <ns3:atemp>25.0</ns3:atemp>
            <ns3:hr>111</ns3:hr>
          </ns3:TrackPointExtension>
        </extensions>
      </trkpt>
      <trkpt lat="36.7692901007831096649169921875" lon="-118.4239860065281391143798828125">
        <ele>3256.39990234375</ele>
        <time>2021-06-25T16:54:16.000Z</time>
        <extensions>
          <ns3:TrackPointExtension>
            <ns3:atemp>25.0</ns3:atemp>
            <ns3:hr>110</ns3:hr>
          </ns3:TrackPointExtension>
        </extensions>
      </trkpt>
      <trkpt lat="36.769288592040538787841796875" lon="-118.424012325704097747802734375">
        <ele>3256.800048828125</ele>
        <time>2021-06-25T16:54:18.000Z</time>
        <extensions>
          <ns3:TrackPointExtension>
            <ns3:atemp>25.0</ns3:atemp>
            <ns3:hr>114</ns3:hr>
          </ns3:TrackPointExtension>
        </extensions>
      </trkpt>
      <trkpt lat="36.76928465254604816436767578125" lon="-118.4240108169615268707275390625">
        <ele>3256.800048828125</ele>
        <time>2021-06-25T16:54:19.000Z</time>
        <extensions>
          <ns3:TrackPointExtension>
            <ns3:atemp>25.0</ns3:atemp>
            <ns3:hr>111</ns3:hr>
          </ns3:TrackPointExtension>
        </extensions>
      </trkpt>
      <trkpt lat="36.76927861757576465606689453125" lon="-118.42401358298957347869873046875">
        <ele>3256.800048828125</ele>
        <time>2021-06-25T16:54:20.000Z</time>
        <extensions>
          <ns3:TrackPointExtension>
            <ns3:atemp>25.0</ns3:atemp>
            <ns3:hr>111</ns3:hr>
          </ns3:TrackPointExtension>
        </extensions>
      </trkpt>
      <trkpt lat="36.7692723311483860015869140625" lon="-118.4240336157381534576416015625">
        <ele>3256.800048828125</ele>
        <time>2021-06-25T16:54:22.000Z</time>
        <extensions>
          <ns3:TrackPointExtension>
            <ns3:atemp>25.0</ns3:atemp>
            <ns3:hr>111</ns3:hr>
          </ns3:TrackPointExtension>
        </extensions>
      </trkpt>
      <trkpt lat="36.7692674696445465087890625" lon="-118.42405130155384540557861328125">
        <ele>3256.800048828125</ele>
        <time>2021-06-25T16:54:24.000Z</time>
        <extensions>
          <ns3:TrackPointExtension>
            <ns3:atemp>25.0</ns3:atemp>
            <ns3:hr>107</ns3:hr>
          </ns3:TrackPointExtension>
        </extensions>
      </trkpt>
      <trkpt lat="36.76926587708294391632080078125" lon="-118.42407560907304286956787109375">
        <ele>3256.60009765625</ele>
        <time>2021-06-25T16:54:27.000Z</time>
        <extensions>
          <ns3:TrackPointExtension>
            <ns3:atemp>25.0</ns3:atemp>
            <ns3:hr>111</ns3:hr>
          </ns3:TrackPointExtension>
        </extensions>
      </trkpt>
      <trkpt lat="36.7692612670361995697021484375" lon="-118.42407342977821826934814453125">
        <ele>3256.39990234375</ele>
        <time>2021-06-25T16:54:28.000Z</time>
        <extensions>
          <ns3:TrackPointExtension>
            <ns3:atemp>25.0</ns3:atemp>
            <ns3:hr>111</ns3:hr>
          </ns3:TrackPointExtension>
        </extensions>
      </trkpt>
      <trkpt lat="36.76925816573202610015869140625" lon="-118.42407259158790111541748046875">
        <ele>3256.39990234375</ele>
        <time>2021-06-25T16:54:29.000Z</time>
        <extensions>
          <ns3:TrackPointExtension>
            <ns3:atemp>25.0</ns3:atemp>
            <ns3:hr>111</ns3:hr>
          </ns3:TrackPointExtension>
        </extensions>
      </trkpt>
      <trkpt lat="36.76923234947025775909423828125" lon="-118.42407862655818462371826171875">
        <ele>3256.199951171875</ele>
        <time>2021-06-25T16:54:32.000Z</time>
        <extensions>
          <ns3:TrackPointExtension>
            <ns3:atemp>25.0</ns3:atemp>
            <ns3:hr>112</ns3:hr>
          </ns3:TrackPointExtension>
        </extensions>
      </trkpt>
      <trkpt lat="36.7692191898822784423828125" lon="-118.4240815602242946624755859375">
        <ele>3256</ele>
        <time>2021-06-25T16:54:34.000Z</time>
        <extensions>
          <ns3:TrackPointExtension>
            <ns3:atemp>25.0</ns3:atemp>
            <ns3:hr>112</ns3:hr>
          </ns3:TrackPointExtension>
        </extensions>
      </trkpt>
      <trkpt lat="36.76919915713369846343994140625" lon="-118.42408633790910243988037109375">
        <ele>3256</ele>
        <time>2021-06-25T16:54:37.000Z</time>
        <extensions>
          <ns3:TrackPointExtension>
            <ns3:atemp>25.0</ns3:atemp>
            <ns3:hr>113</ns3:hr>
          </ns3:TrackPointExtension>
        </extensions>
      </trkpt>
      <trkpt lat="36.7691382206976413726806640625" lon="-118.424085080623626708984375">
        <ele>3255</ele>
        <time>2021-06-25T16:54:46.000Z</time>
        <extensions>
          <ns3:TrackPointExtension>
            <ns3:atemp>25.0</ns3:atemp>
            <ns3:hr>114</ns3:hr>
          </ns3:TrackPointExtension>
        </extensions>
      </trkpt>
      <trkpt lat="36.769136376678943634033203125" lon="-118.42409916222095489501953125">
        <ele>3255</ele>
        <time>2021-06-25T16:54:47.000Z</time>
        <extensions>
          <ns3:TrackPointExtension>
            <ns3:atemp>25.0</ns3:atemp>
            <ns3:hr>113</ns3:hr>
          </ns3:TrackPointExtension>
        </extensions>
      </trkpt>
      <trkpt lat="36.76914115436375141143798828125" lon="-118.4241965599358081817626953125">
        <ele>3253.800048828125</ele>
        <time>2021-06-25T16:54:55.000Z</time>
        <extensions>
          <ns3:TrackPointExtension>
            <ns3:atemp>25.0</ns3:atemp>
            <ns3:hr>110</ns3:hr>
          </ns3:TrackPointExtension>
        </extensions>
      </trkpt>
      <trkpt lat="36.76915775053203105926513671875" lon="-118.4242394752800464630126953125">
        <ele>3253</ele>
        <time>2021-06-25T16:55:01.000Z</time>
        <extensions>
          <ns3:TrackPointExtension>
            <ns3:atemp>25.0</ns3:atemp>
            <ns3:hr>110</ns3:hr>
          </ns3:TrackPointExtension>
        </extensions>
      </trkpt>
      <trkpt lat="36.76916060037910938262939453125" lon="-118.4242381341755390167236328125">
        <ele>3252.60009765625</ele>
        <time>2021-06-25T16:55:03.000Z</time>
        <extensions>
          <ns3:TrackPointExtension>
            <ns3:atemp>25.0</ns3:atemp>
            <ns3:hr>111</ns3:hr>
          </ns3:TrackPointExtension>
        </extensions>
      </trkpt>
      <trkpt lat="36.76916009746491909027099609375" lon="-118.4242428280413150787353515625">
        <ele>3252.39990234375</ele>
        <time>2021-06-25T16:55:04.000Z</time>
        <extensions>
          <ns3:TrackPointExtension>
            <ns3:atemp>25.0</ns3:atemp>
            <ns3:hr>108</ns3:hr>
          </ns3:TrackPointExtension>
        </extensions>
      </trkpt>
      <trkpt lat="36.76915548741817474365234375" lon="-118.42425204813480377197265625">
        <ele>3252.199951171875</ele>
        <time>2021-06-25T16:55:08.000Z</time>
        <extensions>
          <ns3:TrackPointExtension>
            <ns3:atemp>25.0</ns3:atemp>
            <ns3:hr>105</ns3:hr>
          </ns3:TrackPointExtension>
        </extensions>
      </trkpt>
      <trkpt lat="36.7691539786756038665771484375" lon="-118.42426286078989505767822265625">
        <ele>3251.60009765625</ele>
        <time>2021-06-25T16:55:10.000Z</time>
        <extensions>
          <ns3:TrackPointExtension>
            <ns3:atemp>25.0</ns3:atemp>
            <ns3:hr>104</ns3:hr>
          </ns3:TrackPointExtension>
        </extensions>
      </trkpt>
      <trkpt lat="36.769137717783451080322265625" lon="-118.42426638118922710418701171875">
        <ele>3251.199951171875</ele>
        <time>2021-06-25T16:55:14.000Z</time>
        <extensions>
          <ns3:TrackPointExtension>
            <ns3:atemp>25.0</ns3:atemp>
            <ns3:hr>103</ns3:hr>
          </ns3:TrackPointExtension>
        </extensions>
      </trkpt>
      <trkpt lat="36.769122295081615447998046875" lon="-118.42427174560725688934326171875">
        <ele>3250.60009765625</ele>
        <time>2021-06-25T16:55:16.000Z</time>
        <extensions>
          <ns3:TrackPointExtension>
            <ns3:atemp>25.0</ns3:atemp>
            <ns3:hr>104</ns3:hr>
          </ns3:TrackPointExtension>
        </extensions>
      </trkpt>
      <trkpt lat="36.76911315880715847015380859375" lon="-118.4242875874042510986328125">
        <ele>3250</ele>
        <time>2021-06-25T16:55:18.000Z</time>
        <extensions>
          <ns3:TrackPointExtension>
            <ns3:atemp>25.0</ns3:atemp>
            <ns3:hr>107</ns3:hr>
          </ns3:TrackPointExtension>
        </extensions>
      </trkpt>
      <trkpt lat="36.76910720765590667724609375" lon="-118.42430074699223041534423828125">
        <ele>3249.800048828125</ele>
        <time>2021-06-25T16:55:20.000Z</time>
        <extensions>
          <ns3:TrackPointExtension>
            <ns3:atemp>25.0</ns3:atemp>
            <ns3:hr>104</ns3:hr>
          </ns3:TrackPointExtension>
        </extensions>
      </trkpt>
      <trkpt lat="36.76910377107560634613037109375" lon="-118.42430108226835727691650390625">
        <ele>3249.800048828125</ele>
        <time>2021-06-25T16:55:21.000Z</time>
        <extensions>
          <ns3:TrackPointExtension>
            <ns3:atemp>25.0</ns3:atemp>
            <ns3:hr>104</ns3:hr>
          </ns3:TrackPointExtension>
        </extensions>
      </trkpt>
      <trkpt lat="36.769092120230197906494140625" lon="-118.4243182651698589324951171875">
        <ele>3249.39990234375</ele>
        <time>2021-06-25T16:55:24.000Z</time>
        <extensions>
          <ns3:TrackPointExtension>
            <ns3:atemp>25.0</ns3:atemp>
            <ns3:hr>103</ns3:hr>
          </ns3:TrackPointExtension>
        </extensions>
      </trkpt>
      <trkpt lat="36.76909505389630794525146484375" lon="-118.42433779500424861907958984375">
        <ele>3249.199951171875</ele>
        <time>2021-06-25T16:55:28.000Z</time>
        <extensions>
          <ns3:TrackPointExtension>
            <ns3:atemp>25.0</ns3:atemp>
            <ns3:hr>103</ns3:hr>
          </ns3:TrackPointExtension>
        </extensions>
      </trkpt>
      <trkpt lat="36.76906487904489040374755859375" lon="-118.424364030361175537109375">
        <ele>3248.39990234375</ele>
        <time>2021-06-25T16:55:35.000Z</time>
        <extensions>
          <ns3:TrackPointExtension>
            <ns3:atemp>25.0</ns3:atemp>
            <ns3:hr>104</ns3:hr>
          </ns3:TrackPointExtension>
        </extensions>
      </trkpt>
      <trkpt lat="36.76904954016208648681640625" lon="-118.4243739210069179534912109375">
        <ele>3248.39990234375</ele>
        <time>2021-06-25T16:55:38.000Z</time>
        <extensions>
          <ns3:TrackPointExtension>
            <ns3:atemp>25.0</ns3:atemp>
            <ns3:hr>106</ns3:hr>
          </ns3:TrackPointExtension>
        </extensions>
      </trkpt>
      <trkpt lat="36.7690309323370456695556640625" lon="-118.424383811652660369873046875">
        <ele>3248.199951171875</ele>
        <time>2021-06-25T16:55:40.000Z</time>
        <extensions>
          <ns3:TrackPointExtension>
            <ns3:atemp>25.0</ns3:atemp>
            <ns3:hr>103</ns3:hr>
          </ns3:TrackPointExtension>
        </extensions>
      </trkpt>
      <trkpt lat="36.76901106722652912139892578125" lon="-118.42438976280391216278076171875">
        <ele>3248</ele>
        <time>2021-06-25T16:55:42.000Z</time>
        <extensions>
          <ns3:TrackPointExtension>
            <ns3:atemp>25.0</ns3:atemp>
            <ns3:hr>103</ns3:hr>
          </ns3:TrackPointExtension>
        </extensions>
      </trkpt>
      <trkpt lat="36.76896295510232448577880859375" lon="-118.42441541142761707305908203125">
        <ele>3248.199951171875</ele>
        <time>2021-06-25T16:55:47.000Z</time>
        <extensions>
          <ns3:TrackPointExtension>
            <ns3:atemp>25.0</ns3:atemp>
            <ns3:hr>100</ns3:hr>
          </ns3:TrackPointExtension>
        </extensions>
      </trkpt>
      <trkpt lat="36.76895029842853546142578125" lon="-118.42442329041659832000732421875">
        <ele>3248.199951171875</ele>
        <time>2021-06-25T16:55:49.000Z</time>
        <extensions>
          <ns3:TrackPointExtension>
            <ns3:atemp>25.0</ns3:atemp>
            <ns3:hr>99</ns3:hr>
          </ns3:TrackPointExtension>
        </extensions>
      </trkpt>
      <trkpt lat="36.76891383714973926544189453125" lon="-118.42449202202260494232177734375">
        <ele>3248.39990234375</ele>
        <time>2021-06-25T16:55:56.000Z</time>
        <extensions>
          <ns3:TrackPointExtension>
            <ns3:atemp>25.0</ns3:atemp>
            <ns3:hr>99</ns3:hr>
          </ns3:TrackPointExtension>
        </extensions>
      </trkpt>
      <trkpt lat="36.7689045332372188568115234375" lon="-118.424512557685375213623046875">
        <ele>3248.60009765625</ele>
        <time>2021-06-25T16:55:58.000Z</time>
        <extensions>
          <ns3:TrackPointExtension>
            <ns3:atemp>25.0</ns3:atemp>
            <ns3:hr>99</ns3:hr>
          </ns3:TrackPointExtension>
        </extensions>
      </trkpt>
      <trkpt lat="36.7688938044011592864990234375" lon="-118.4246094524860382080078125">
        <ele>3249.39990234375</ele>
        <time>2021-06-25T16:56:07.000Z</time>
        <extensions>
          <ns3:TrackPointExtension>
            <ns3:atemp>25.0</ns3:atemp>
            <ns3:hr>96</ns3:hr>
          </ns3:TrackPointExtension>
        </extensions>
      </trkpt>
      <trkpt lat="36.76889087073504924774169921875" lon="-118.424618504941463470458984375">
        <ele>3249.39990234375</ele>
        <time>2021-06-25T16:56:08.000Z</time>
        <extensions>
          <ns3:TrackPointExtension>
            <ns3:atemp>25.0</ns3:atemp>
            <ns3:hr>96</ns3:hr>
          </ns3:TrackPointExtension>
        </extensions>
      </trkpt>
      <trkpt lat="36.76887410692870616912841796875" lon="-118.42466376721858978271484375">
        <ele>3250</ele>
        <time>2021-06-25T16:56:14.000Z</time>
        <extensions>
          <ns3:TrackPointExtension>
            <ns3:atemp>25.0</ns3:atemp>
            <ns3:hr>93</ns3:hr>
          </ns3:TrackPointExtension>
        </extensions>
      </trkpt>
      <trkpt lat="36.76886740140616893768310546875" lon="-118.4246786870062351226806640625">
        <ele>3250.39990234375</ele>
        <time>2021-06-25T16:56:16.000Z</time>
        <extensions>
          <ns3:TrackPointExtension>
            <ns3:atemp>25.0</ns3:atemp>
            <ns3:hr>91</ns3:hr>
          </ns3:TrackPointExtension>
        </extensions>
      </trkpt>
      <trkpt lat="36.7688669823110103607177734375" lon="-118.4247430600225925445556640625">
        <ele>3251</ele>
        <time>2021-06-25T16:56:22.000Z</time>
        <extensions>
          <ns3:TrackPointExtension>
            <ns3:atemp>25.0</ns3:atemp>
            <ns3:hr>91</ns3:hr>
          </ns3:TrackPointExtension>
        </extensions>
      </trkpt>
      <trkpt lat="36.76884409971535205841064453125" lon="-118.42475219629704952239990234375">
        <ele>3251.60009765625</ele>
        <time>2021-06-25T16:56:26.000Z</time>
        <extensions>
          <ns3:TrackPointExtension>
            <ns3:atemp>25.0</ns3:atemp>
            <ns3:hr>91</ns3:hr>
          </ns3:TrackPointExtension>
        </extensions>
      </trkpt>
      <trkpt lat="36.7688438482582569122314453125" lon="-118.42479108832776546478271484375">
        <ele>3252</ele>
        <time>2021-06-25T16:56:29.000Z</time>
        <extensions>
          <ns3:TrackPointExtension>
            <ns3:atemp>25.0</ns3:atemp>
            <ns3:hr>89</ns3:hr>
          </ns3:TrackPointExtension>
        </extensions>
      </trkpt>
      <trkpt lat="36.7688428424298763275146484375" lon="-118.424825705587863922119140625">
        <ele>3252.199951171875</ele>
        <time>2021-06-25T16:56:32.000Z</time>
        <extensions>
          <ns3:TrackPointExtension>
            <ns3:atemp>25.0</ns3:atemp>
            <ns3:hr>89</ns3:hr>
          </ns3:TrackPointExtension>
        </extensions>
      </trkpt>
      <trkpt lat="36.76884862594306468963623046875" lon="-118.42483635060489177703857421875">
        <ele>3252.39990234375</ele>
        <time>2021-06-25T16:56:34.000Z</time>
        <extensions>
          <ns3:TrackPointExtension>
            <ns3:atemp>25.0</ns3:atemp>
            <ns3:hr>89</ns3:hr>
          </ns3:TrackPointExtension>
        </extensions>
      </trkpt>
      <trkpt lat="36.768847368657588958740234375" lon="-118.42484791763126850128173828125">
        <ele>3253.199951171875</ele>
        <time>2021-06-25T16:56:36.000Z</time>
        <extensions>
          <ns3:TrackPointExtension>
            <ns3:atemp>25.0</ns3:atemp>
            <ns3:hr>88</ns3:hr>
          </ns3:TrackPointExtension>
        </extensions>
      </trkpt>
      <trkpt lat="36.7688518948853015899658203125" lon="-118.4248535335063934326171875">
        <ele>3253.39990234375</ele>
        <time>2021-06-25T16:56:38.000Z</time>
        <extensions>
          <ns3:TrackPointExtension>
            <ns3:atemp>25.0</ns3:atemp>
            <ns3:hr>92</ns3:hr>
          </ns3:TrackPointExtension>
        </extensions>
      </trkpt>
      <trkpt lat="36.7688582651317119598388671875" lon="-118.4249031543731689453125">
        <ele>3254.60009765625</ele>
        <time>2021-06-25T16:56:45.000Z</time>
        <extensions>
          <ns3:TrackPointExtension>
            <ns3:atemp>25.0</ns3:atemp>
            <ns3:hr>92</ns3:hr>
          </ns3:TrackPointExtension>
        </extensions>
      </trkpt>
      <trkpt lat="36.76886354573071002960205078125" lon="-118.42492536641657352447509765625">
        <ele>3255</ele>
        <time>2021-06-25T16:56:48.000Z</time>
        <extensions>
          <ns3:TrackPointExtension>
            <ns3:atemp>25.0</ns3:atemp>
            <ns3:hr>89</ns3:hr>
          </ns3:TrackPointExtension>
        </extensions>
      </trkpt>
      <trkpt lat="36.768850050866603851318359375" lon="-118.4249160625040531158447265625">
        <ele>3255.39990234375</ele>
        <time>2021-06-25T16:56:50.000Z</time>
        <extensions>
          <ns3:TrackPointExtension>
            <ns3:atemp>25.0</ns3:atemp>
            <ns3:hr>92</ns3:hr>
          </ns3:TrackPointExtension>
        </extensions>
      </trkpt>
      <trkpt lat="36.76883571781218051910400390625" lon="-118.42490944080054759979248046875">
        <ele>3255.60009765625</ele>
        <time>2021-06-25T16:56:53.000Z</time>
        <extensions>
          <ns3:TrackPointExtension>
            <ns3:atemp>25.0</ns3:atemp>
            <ns3:hr>91</ns3:hr>
          </ns3:TrackPointExtension>
        </extensions>
      </trkpt>
      <trkpt lat="36.7688301019370555877685546875" lon="-118.42490675859153270721435546875">
        <ele>3255.800048828125</ele>
        <time>2021-06-25T16:56:54.000Z</time>
        <extensions>
          <ns3:TrackPointExtension>
            <ns3:atemp>25.0</ns3:atemp>
            <ns3:hr>93</ns3:hr>
          </ns3:TrackPointExtension>
        </extensions>
      </trkpt>
      <trkpt lat="36.7688302695751190185546875" lon="-118.4249536134302616119384765625">
        <ele>3256</ele>
        <time>2021-06-25T16:56:59.000Z</time>
        <extensions>
          <ns3:TrackPointExtension>
            <ns3:atemp>25.0</ns3:atemp>
            <ns3:hr>95</ns3:hr>
          </ns3:TrackPointExtension>
        </extensions>
      </trkpt>
      <trkpt lat="36.7688297666609287261962890625" lon="-118.42498236335813999176025390625">
        <ele>3256.800048828125</ele>
        <time>2021-06-25T16:57:04.000Z</time>
        <extensions>
          <ns3:TrackPointExtension>
            <ns3:atemp>25.0</ns3:atemp>
            <ns3:hr>98</ns3:hr>
          </ns3:TrackPointExtension>
        </extensions>
      </trkpt>
      <trkpt lat="36.7688394896686077117919921875" lon="-118.42501723207533359527587890625">
        <ele>3257.39990234375</ele>
        <time>2021-06-25T16:57:08.000Z</time>
        <extensions>
          <ns3:TrackPointExtension>
            <ns3:atemp>25.0</ns3:atemp>
            <ns3:hr>101</ns3:hr>
          </ns3:TrackPointExtension>
        </extensions>
      </trkpt>
      <trkpt lat="36.76883898675441741943359375" lon="-118.42502812854945659637451171875">
        <ele>3257.60009765625</ele>
        <time>2021-06-25T16:57:10.000Z</time>
        <extensions>
          <ns3:TrackPointExtension>
            <ns3:atemp>25.0</ns3:atemp>
            <ns3:hr>105</ns3:hr>
          </ns3:TrackPointExtension>
        </extensions>
      </trkpt>
      <trkpt lat="36.7688384838402271270751953125" lon="-118.42503718100488185882568359375">
        <ele>3257.800048828125</ele>
        <time>2021-06-25T16:57:12.000Z</time>
        <extensions>
          <ns3:TrackPointExtension>
            <ns3:atemp>25.0</ns3:atemp>
            <ns3:hr>107</ns3:hr>
          </ns3:TrackPointExtension>
        </extensions>
      </trkpt>
      <trkpt lat="36.768835969269275665283203125" lon="-118.425044305622577667236328125">
        <ele>3257.800048828125</ele>
        <time>2021-06-25T16:57:13.000Z</time>
        <extensions>
          <ns3:TrackPointExtension>
            <ns3:atemp>25.0</ns3:atemp>
            <ns3:hr>108</ns3:hr>
          </ns3:TrackPointExtension>
        </extensions>
      </trkpt>
      <trkpt lat="36.76885306835174560546875" lon="-118.42507816851139068603515625">
        <ele>3259</ele>
        <time>2021-06-25T16:57:19.000Z</time>
        <extensions>
          <ns3:TrackPointExtension>
            <ns3:atemp>25.0</ns3:atemp>
            <ns3:hr>108</ns3:hr>
          </ns3:TrackPointExtension>
        </extensions>
      </trkpt>
      <trkpt lat="36.76885482855141162872314453125" lon="-118.42511546798050403594970703125">
        <ele>3259.800048828125</ele>
        <time>2021-06-25T16:57:27.000Z</time>
        <extensions>
          <ns3:TrackPointExtension>
            <ns3:atemp>25.0</ns3:atemp>
            <ns3:hr>108</ns3:hr>
          </ns3:TrackPointExtension>
        </extensions>
      </trkpt>
      <trkpt lat="36.76885164342820644378662109375" lon="-118.4251222573220729827880859375">
        <ele>3260</ele>
        <time>2021-06-25T16:57:28.000Z</time>
        <extensions>
          <ns3:TrackPointExtension>
            <ns3:atemp>26.0</ns3:atemp>
            <ns3:hr>109</ns3:hr>
          </ns3:TrackPointExtension>
        </extensions>
      </trkpt>
      <trkpt lat="36.76883856765925884246826171875" lon="-118.42516827397048473358154296875">
        <ele>3261</ele>
        <time>2021-06-25T16:57:35.000Z</time>
        <extensions>
          <ns3:TrackPointExtension>
            <ns3:atemp>26.0</ns3:atemp>
            <ns3:hr>110</ns3:hr>
          </ns3:TrackPointExtension>
        </extensions>
      </trkpt>
      <trkpt lat="36.76884192042052745819091796875" lon="-118.42517481185495853424072265625">
        <ele>3261</ele>
        <time>2021-06-25T16:57:36.000Z</time>
        <extensions>
          <ns3:TrackPointExtension>
            <ns3:atemp>26.0</ns3:atemp>
            <ns3:hr>110</ns3:hr>
          </ns3:TrackPointExtension>
        </extensions>
      </trkpt>
      <trkpt lat="36.76884644664824008941650390625" lon="-118.4252007119357585906982421875">
        <ele>3262.199951171875</ele>
        <time>2021-06-25T16:57:42.000Z</time>
        <extensions>
          <ns3:TrackPointExtension>
            <ns3:atemp>26.0</ns3:atemp>
            <ns3:hr>108</ns3:hr>
          </ns3:TrackPointExtension>
        </extensions>
      </trkpt>
      <trkpt lat="36.76884242333471775054931640625" lon="-118.42520129866898059844970703125">
        <ele>3262.199951171875</ele>
        <time>2021-06-25T16:57:44.000Z</time>
        <extensions>
          <ns3:TrackPointExtension>
            <ns3:atemp>26.0</ns3:atemp>
            <ns3:hr>107</ns3:hr>
          </ns3:TrackPointExtension>
        </extensions>
      </trkpt>
      <trkpt lat="36.76879263482987880706787109375" lon="-118.4251675195991992950439453125">
        <ele>3263.199951171875</ele>
        <time>2021-06-25T16:57:51.000Z</time>
        <extensions>
          <ns3:TrackPointExtension>
            <ns3:atemp>26.0</ns3:atemp>
            <ns3:hr>108</ns3:hr>
          </ns3:TrackPointExtension>
        </extensions>
      </trkpt>
      <trkpt lat="36.76878576166927814483642578125" lon="-118.42516534030437469482421875">
        <ele>3263.199951171875</ele>
        <time>2021-06-25T16:57:52.000Z</time>
        <extensions>
          <ns3:TrackPointExtension>
            <ns3:atemp>26.0</ns3:atemp>
            <ns3:hr>108</ns3:hr>
          </ns3:TrackPointExtension>
        </extensions>
      </trkpt>
      <trkpt lat="36.7687905393540859222412109375" lon="-118.4251748956739902496337890625">
        <ele>3263.39990234375</ele>
        <time>2021-06-25T16:57:57.000Z</time>
        <extensions>
          <ns3:TrackPointExtension>
            <ns3:atemp>26.0</ns3:atemp>
            <ns3:hr>111</ns3:hr>
          </ns3:TrackPointExtension>
        </extensions>
      </trkpt>
      <trkpt lat="36.7687811516225337982177734375" lon="-118.4251725487411022186279296875">
        <ele>3263.60009765625</ele>
        <time>2021-06-25T16:57:59.000Z</time>
        <extensions>
          <ns3:TrackPointExtension>
            <ns3:atemp>26.0</ns3:atemp>
            <ns3:hr>113</ns3:hr>
          </ns3:TrackPointExtension>
        </extensions>
      </trkpt>
      <trkpt lat="36.768776960670948028564453125" lon="-118.4251899830996990203857421875">
        <ele>3264.199951171875</ele>
        <time>2021-06-25T16:58:02.000Z</time>
        <extensions>
          <ns3:TrackPointExtension>
            <ns3:atemp>26.0</ns3:atemp>
            <ns3:hr>115</ns3:hr>
          </ns3:TrackPointExtension>
        </extensions>
      </trkpt>
      <trkpt lat="36.768779642879962921142578125" lon="-118.42519828118383884429931640625">
        <ele>3264.39990234375</ele>
        <time>2021-06-25T16:58:03.000Z</time>
        <extensions>
          <ns3:TrackPointExtension>
            <ns3:atemp>26.0</ns3:atemp>
            <ns3:hr>114</ns3:hr>
          </ns3:TrackPointExtension>
        </extensions>
      </trkpt>
      <trkpt lat="36.76877855323255062103271484375" lon="-118.4252043999731540679931640625">
        <ele>3264.800048828125</ele>
        <time>2021-06-25T16:58:05.000Z</time>
        <extensions>
          <ns3:TrackPointExtension>
            <ns3:atemp>26.0</ns3:atemp>
            <ns3:hr>115</ns3:hr>
          </ns3:TrackPointExtension>
        </extensions>
      </trkpt>
      <trkpt lat="36.76877989433705806732177734375" lon="-118.4252290427684783935546875">
        <ele>3265.60009765625</ele>
        <time>2021-06-25T16:58:08.000Z</time>
        <extensions>
          <ns3:TrackPointExtension>
            <ns3:atemp>26.0</ns3:atemp>
            <ns3:hr>114</ns3:hr>
          </ns3:TrackPointExtension>
        </extensions>
      </trkpt>
      <trkpt lat="36.76878877915441989898681640625" lon="-118.42528042383491992950439453125">
        <ele>3266.199951171875</ele>
        <time>2021-06-25T16:58:13.000Z</time>
        <extensions>
          <ns3:TrackPointExtension>
            <ns3:atemp>26.0</ns3:atemp>
            <ns3:hr>117</ns3:hr>
          </ns3:TrackPointExtension>
        </extensions>
      </trkpt>
      <trkpt lat="36.7687995918095111846923828125" lon="-118.4253063239157199859619140625">
        <ele>3266.800048828125</ele>
        <time>2021-06-25T16:58:16.000Z</time>
        <extensions>
          <ns3:TrackPointExtension>
            <ns3:atemp>26.0</ns3:atemp>
            <ns3:hr>116</ns3:hr>
          </ns3:TrackPointExtension>
        </extensions>
      </trkpt>
      <trkpt lat="36.76881895400583744049072265625" lon="-118.425363488495349884033203125">
        <ele>3267.199951171875</ele>
        <time>2021-06-25T16:58:20.000Z</time>
        <extensions>
          <ns3:TrackPointExtension>
            <ns3:atemp>26.0</ns3:atemp>
            <ns3:hr>115</ns3:hr>
          </ns3:TrackPointExtension>
        </extensions>
      </trkpt>
      <trkpt lat="36.768828593194484710693359375" lon="-118.4253998659551143646240234375">
        <ele>3267.60009765625</ele>
        <time>2021-06-25T16:58:24.000Z</time>
        <extensions>
          <ns3:TrackPointExtension>
            <ns3:atemp>26.0</ns3:atemp>
            <ns3:hr>112</ns3:hr>
          </ns3:TrackPointExtension>
        </extensions>
      </trkpt>
      <trkpt lat="36.76884912885725498199462890625" lon="-118.4253980219364166259765625">
        <ele>3267.800048828125</ele>
        <time>2021-06-25T16:58:26.000Z</time>
        <extensions>
          <ns3:TrackPointExtension>
            <ns3:atemp>26.0</ns3:atemp>
            <ns3:hr>110</ns3:hr>
          </ns3:TrackPointExtension>
        </extensions>
      </trkpt>
      <trkpt lat="36.76885952241718769073486328125" lon="-118.4253958426415920257568359375">
        <ele>3267.800048828125</ele>
        <time>2021-06-25T16:58:27.000Z</time>
        <extensions>
          <ns3:TrackPointExtension>
            <ns3:atemp>26.0</ns3:atemp>
            <ns3:hr>110</ns3:hr>
          </ns3:TrackPointExtension>
        </extensions>
      </trkpt>
      <trkpt lat="36.7688988335430622100830078125" lon="-118.42545099556446075439453125">
        <ele>3268.60009765625</ele>
        <time>2021-06-25T16:58:33.000Z</time>
        <extensions>
          <ns3:TrackPointExtension>
            <ns3:atemp>26.0</ns3:atemp>
            <ns3:hr>109</ns3:hr>
          </ns3:TrackPointExtension>
        </extensions>
      </trkpt>
      <trkpt lat="36.76891366951167583465576171875" lon="-118.425474129617214202880859375">
        <ele>3269.199951171875</ele>
        <time>2021-06-25T16:58:36.000Z</time>
        <extensions>
          <ns3:TrackPointExtension>
            <ns3:atemp>26.0</ns3:atemp>
            <ns3:hr>110</ns3:hr>
          </ns3:TrackPointExtension>
        </extensions>
      </trkpt>
      <trkpt lat="36.76892590709030628204345703125" lon="-118.425479829311370849609375">
        <ele>3269.60009765625</ele>
        <time>2021-06-25T16:58:40.000Z</time>
        <extensions>
          <ns3:TrackPointExtension>
            <ns3:atemp>26.0</ns3:atemp>
            <ns3:hr>107</ns3:hr>
          </ns3:TrackPointExtension>
        </extensions>
      </trkpt>
      <trkpt lat="36.7689276672899723052978515625" lon="-118.425492234528064727783203125">
        <ele>3270.39990234375</ele>
        <time>2021-06-25T16:58:46.000Z</time>
        <extensions>
          <ns3:TrackPointExtension>
            <ns3:atemp>26.0</ns3:atemp>
            <ns3:hr>105</ns3:hr>
          </ns3:TrackPointExtension>
        </extensions>
      </trkpt>
      <trkpt lat="36.76892573945224285125732421875" lon="-118.4255041368305683135986328125">
        <ele>3271.60009765625</ele>
        <time>2021-06-25T16:58:51.000Z</time>
        <extensions>
          <ns3:TrackPointExtension>
            <ns3:atemp>26.0</ns3:atemp>
            <ns3:hr>105</ns3:hr>
          </ns3:TrackPointExtension>
        </extensions>
      </trkpt>
      <trkpt lat="36.76893152296543121337890625" lon="-118.4255084954202175140380859375">
        <ele>3271.60009765625</ele>
        <time>2021-06-25T16:58:52.000Z</time>
        <extensions>
          <ns3:TrackPointExtension>
            <ns3:atemp>26.0</ns3:atemp>
            <ns3:hr>106</ns3:hr>
          </ns3:TrackPointExtension>
        </extensions>
      </trkpt>
      <trkpt lat="36.76896329037845134735107421875" lon="-118.42551578767597675323486328125">
        <ele>3272</ele>
        <time>2021-06-25T16:58:56.000Z</time>
        <extensions>
          <ns3:TrackPointExtension>
            <ns3:atemp>26.0</ns3:atemp>
            <ns3:hr>106</ns3:hr>
          </ns3:TrackPointExtension>
        </extensions>
      </trkpt>
      <trkpt lat="36.76896044053137302398681640625" lon="-118.42551377601921558380126953125">
        <ele>3272.800048828125</ele>
        <time>2021-06-25T16:58:59.000Z</time>
        <extensions>
          <ns3:TrackPointExtension>
            <ns3:atemp>26.0</ns3:atemp>
            <ns3:hr>106</ns3:hr>
          </ns3:TrackPointExtension>
        </extensions>
      </trkpt>
      <trkpt lat="36.76896681077778339385986328125" lon="-118.4255299530923366546630859375">
        <ele>3273.199951171875</ele>
        <time>2021-06-25T16:59:01.000Z</time>
        <extensions>
          <ns3:TrackPointExtension>
            <ns3:atemp>26.0</ns3:atemp>
            <ns3:hr>105</ns3:hr>
          </ns3:TrackPointExtension>
        </extensions>
      </trkpt>
      <trkpt lat="36.76898038946092128753662109375" lon="-118.42554227448999881744384765625">
        <ele>3274</ele>
        <time>2021-06-25T16:59:05.000Z</time>
        <extensions>
          <ns3:TrackPointExtension>
            <ns3:atemp>26.0</ns3:atemp>
            <ns3:hr>104</ns3:hr>
          </ns3:TrackPointExtension>
        </extensions>
      </trkpt>
      <trkpt lat="36.76897938363254070281982421875" lon="-118.42554981820285320281982421875">
        <ele>3274.60009765625</ele>
        <time>2021-06-25T16:59:09.000Z</time>
        <extensions>
          <ns3:TrackPointExtension>
            <ns3:atemp>26.0</ns3:atemp>
            <ns3:hr>101</ns3:hr>
          </ns3:TrackPointExtension>
        </extensions>
      </trkpt>
      <trkpt lat="36.7689856700599193572998046875" lon="-118.4255547635257244110107421875">
        <ele>3274.60009765625</ele>
        <time>2021-06-25T16:59:10.000Z</time>
        <extensions>
          <ns3:TrackPointExtension>
            <ns3:atemp>26.0</ns3:atemp>
            <ns3:hr>101</ns3:hr>
          </ns3:TrackPointExtension>
        </extensions>
      </trkpt>
      <trkpt lat="36.76900100894272327423095703125" lon="-118.42555685900151729583740234375">
        <ele>3275</ele>
        <time>2021-06-25T16:59:14.000Z</time>
        <extensions>
          <ns3:TrackPointExtension>
            <ns3:atemp>27.0</ns3:atemp>
            <ns3:hr>98</ns3:hr>
          </ns3:TrackPointExtension>
        </extensions>
      </trkpt>
      <trkpt lat="36.7689987458288669586181640625" lon="-118.4255631454288959503173828125">
        <ele>3275</ele>
        <time>2021-06-25T16:59:15.000Z</time>
        <extensions>
          <ns3:TrackPointExtension>
            <ns3:atemp>27.0</ns3:atemp>
            <ns3:hr>97</ns3:hr>
          </ns3:TrackPointExtension>
        </extensions>
      </trkpt>
      <trkpt lat="36.7689970694482326507568359375" lon="-118.4255621396005153656005859375">
        <ele>3275.800048828125</ele>
        <time>2021-06-25T16:59:19.000Z</time>
        <extensions>
          <ns3:TrackPointExtension>
            <ns3:atemp>27.0</ns3:atemp>
            <ns3:hr>97</ns3:hr>
          </ns3:TrackPointExtension>
        </extensions>
      </trkpt>
      <trkpt lat="36.7689970694482326507568359375" lon="-118.4255621396005153656005859375">
        <ele>3276.199951171875</ele>
        <time>2021-06-25T16:59:21.000Z</time>
        <extensions>
          <ns3:TrackPointExtension>
            <ns3:atemp>27.0</ns3:atemp>
            <ns3:hr>98</ns3:hr>
          </ns3:TrackPointExtension>
        </extensions>
      </trkpt>
      <trkpt lat="36.7689970694482326507568359375" lon="-118.4255621396005153656005859375">
        <ele>3277.39990234375</ele>
        <time>2021-06-25T16:59:28.000Z</time>
        <extensions>
          <ns3:TrackPointExtension>
            <ns3:atemp>27.0</ns3:atemp>
            <ns3:hr>101</ns3:hr>
          </ns3:TrackPointExtension>
        </extensions>
      </trkpt>
      <trkpt lat="36.7689970694482326507568359375" lon="-118.42556540854275226593017578125">
        <ele>3278.199951171875</ele>
        <time>2021-06-25T16:59:33.000Z</time>
        <extensions>
          <ns3:TrackPointExtension>
            <ns3:atemp>27.0</ns3:atemp>
            <ns3:hr>104</ns3:hr>
          </ns3:TrackPointExtension>
        </extensions>
      </trkpt>
      <trkpt lat="36.7689970694482326507568359375" lon="-118.42557077296078205108642578125">
        <ele>3278.60009765625</ele>
        <time>2021-06-25T16:59:35.000Z</time>
        <extensions>
          <ns3:TrackPointExtension>
            <ns3:atemp>27.0</ns3:atemp>
            <ns3:hr>105</ns3:hr>
          </ns3:TrackPointExtension>
        </extensions>
      </trkpt>
      <trkpt lat="36.7689970694482326507568359375" lon="-118.42560161836445331573486328125">
        <ele>3279.800048828125</ele>
        <time>2021-06-25T16:59:41.000Z</time>
        <extensions>
          <ns3:TrackPointExtension>
            <ns3:atemp>27.0</ns3:atemp>
            <ns3:hr>107</ns3:hr>
          </ns3:TrackPointExtension>
        </extensions>
      </trkpt>
      <trkpt lat="36.7689970694482326507568359375" lon="-118.4256050549447536468505859375">
        <ele>3280</ele>
        <time>2021-06-25T16:59:42.000Z</time>
        <extensions>
          <ns3:TrackPointExtension>
            <ns3:atemp>27.0</ns3:atemp>
            <ns3:hr>103</ns3:hr>
          </ns3:TrackPointExtension>
        </extensions>
      </trkpt>
      <trkpt lat="36.7689970694482326507568359375" lon="-118.4256067313253879547119140625">
        <ele>3280</ele>
        <time>2021-06-25T16:59:43.000Z</time>
        <extensions>
          <ns3:TrackPointExtension>
            <ns3:atemp>27.0</ns3:atemp>
            <ns3:hr>108</ns3:hr>
          </ns3:TrackPointExtension>
        </extensions>
      </trkpt>
      <trkpt lat="36.76899614743888378143310546875" lon="-118.4256117604672908782958984375">
        <ele>3280.39990234375</ele>
        <time>2021-06-25T16:59:45.000Z</time>
        <extensions>
          <ns3:TrackPointExtension>
            <ns3:atemp>27.0</ns3:atemp>
            <ns3:hr>112</ns3:hr>
          </ns3:TrackPointExtension>
        </extensions>
      </trkpt>
      <trkpt lat="36.7689739353954792022705078125" lon="-118.4256152808666229248046875">
        <ele>3281.199951171875</ele>
        <time>2021-06-25T16:59:51.000Z</time>
        <extensions>
          <ns3:TrackPointExtension>
            <ns3:atemp>27.0</ns3:atemp>
            <ns3:hr>110</ns3:hr>
          </ns3:TrackPointExtension>
        </extensions>
      </trkpt>
      <trkpt lat="36.7689434252679347991943359375" lon="-118.42562542296946048736572265625">
        <ele>3282.60009765625</ele>
        <time>2021-06-25T16:59:58.000Z</time>
        <extensions>
          <ns3:TrackPointExtension>
            <ns3:atemp>27.0</ns3:atemp>
            <ns3:hr>108</ns3:hr>
          </ns3:TrackPointExtension>
        </extensions>
      </trkpt>
      <trkpt lat="36.76893747411668300628662109375" lon="-118.42568032443523406982421875">
        <ele>3283.60009765625</ele>
        <time>2021-06-25T17:00:06.000Z</time>
        <extensions>
          <ns3:TrackPointExtension>
            <ns3:atemp>27.0</ns3:atemp>
            <ns3:hr>108</ns3:hr>
          </ns3:TrackPointExtension>
        </extensions>
      </trkpt>
      <trkpt lat="36.76893345080316066741943359375" lon="-118.42568594031035900115966796875">
        <ele>3283.60009765625</ele>
        <time>2021-06-25T17:00:08.000Z</time>
        <extensions>
          <ns3:TrackPointExtension>
            <ns3:atemp>27.0</ns3:atemp>
            <ns3:hr>111</ns3:hr>
          </ns3:TrackPointExtension>
        </extensions>
      </trkpt>
      <trkpt lat="36.76893177442252635955810546875" lon="-118.42569633387029170989990234375">
        <ele>3284.800048828125</ele>
        <time>2021-06-25T17:00:12.000Z</time>
        <extensions>
          <ns3:TrackPointExtension>
            <ns3:atemp>27.0</ns3:atemp>
            <ns3:hr>113</ns3:hr>
          </ns3:TrackPointExtension>
        </extensions>
      </trkpt>
      <trkpt lat="36.7689306847751140594482421875" lon="-118.42570287175476551055908203125">
        <ele>3285.800048828125</ele>
        <time>2021-06-25T17:00:17.000Z</time>
        <extensions>
          <ns3:TrackPointExtension>
            <ns3:atemp>26.0</ns3:atemp>
            <ns3:hr>111</ns3:hr>
          </ns3:TrackPointExtension>
        </extensions>
      </trkpt>
      <trkpt lat="36.76892892457544803619384765625" lon="-118.4257519058883190155029296875">
        <ele>3286.39990234375</ele>
        <time>2021-06-25T17:00:23.000Z</time>
        <extensions>
          <ns3:TrackPointExtension>
            <ns3:atemp>26.0</ns3:atemp>
            <ns3:hr>114</ns3:hr>
          </ns3:TrackPointExtension>
        </extensions>
      </trkpt>
      <trkpt lat="36.76892884075641632080078125" lon="-118.425769172608852386474609375">
        <ele>3287.199951171875</ele>
        <time>2021-06-25T17:00:25.000Z</time>
        <extensions>
          <ns3:TrackPointExtension>
            <ns3:atemp>26.0</ns3:atemp>
            <ns3:hr>116</ns3:hr>
          </ns3:TrackPointExtension>
        </extensions>
      </trkpt>
      <trkpt lat="36.76892858929932117462158203125" lon="-118.4257884509861469268798828125">
        <ele>3288.199951171875</ele>
        <time>2021-06-25T17:00:31.000Z</time>
        <extensions>
          <ns3:TrackPointExtension>
            <ns3:atemp>26.0</ns3:atemp>
            <ns3:hr>116</ns3:hr>
          </ns3:TrackPointExtension>
        </extensions>
      </trkpt>
      <trkpt lat="36.76892456598579883575439453125" lon="-118.42584167607128620147705078125">
        <ele>3289.199951171875</ele>
        <time>2021-06-25T17:00:40.000Z</time>
        <extensions>
          <ns3:TrackPointExtension>
            <ns3:atemp>26.0</ns3:atemp>
            <ns3:hr>119</ns3:hr>
          </ns3:TrackPointExtension>
        </extensions>
      </trkpt>
      <trkpt lat="36.7689243145287036895751953125" lon="-118.4258504770696163177490234375">
        <ele>3289.199951171875</ele>
        <time>2021-06-25T17:00:42.000Z</time>
        <extensions>
          <ns3:TrackPointExtension>
            <ns3:atemp>26.0</ns3:atemp>
            <ns3:hr>119</ns3:hr>
          </ns3:TrackPointExtension>
        </extensions>
      </trkpt>
      <trkpt lat="36.7689241468906402587890625" lon="-118.42589716427028179168701171875">
        <ele>3289.39990234375</ele>
        <time>2021-06-25T17:00:52.000Z</time>
        <extensions>
          <ns3:TrackPointExtension>
            <ns3:atemp>26.0</ns3:atemp>
            <ns3:hr>115</ns3:hr>
          </ns3:TrackPointExtension>
        </extensions>
      </trkpt>
      <trkpt lat="36.7689548246562480926513671875" lon="-118.425935804843902587890625">
        <ele>3289.199951171875</ele>
        <time>2021-06-25T17:01:15.000Z</time>
        <extensions>
          <ns3:TrackPointExtension>
            <ns3:atemp>27.0</ns3:atemp>
            <ns3:hr>112</ns3:hr>
          </ns3:TrackPointExtension>
        </extensions>
      </trkpt>
      <trkpt lat="36.76899044774472713470458984375" lon="-118.42597025446593761444091796875">
        <ele>3289.800048828125</ele>
        <time>2021-06-25T17:01:31.000Z</time>
        <extensions>
          <ns3:TrackPointExtension>
            <ns3:atemp>27.0</ns3:atemp>
            <ns3:hr>109</ns3:hr>
          </ns3:TrackPointExtension>
        </extensions>
      </trkpt>
      <trkpt lat="36.768992207944393157958984375" lon="-118.4259735234081745147705078125">
        <ele>3290.199951171875</ele>
        <time>2021-06-25T17:01:33.000Z</time>
        <extensions>
          <ns3:TrackPointExtension>
            <ns3:atemp>27.0</ns3:atemp>
            <ns3:hr>108</ns3:hr>
          </ns3:TrackPointExtension>
        </extensions>
      </trkpt>
      <trkpt lat="36.7689933814108371734619140625" lon="-118.425975702702999114990234375">
        <ele>3290.60009765625</ele>
        <time>2021-06-25T17:01:37.000Z</time>
        <extensions>
          <ns3:TrackPointExtension>
            <ns3:atemp>27.0</ns3:atemp>
            <ns3:hr>105</ns3:hr>
          </ns3:TrackPointExtension>
        </extensions>
      </trkpt>
      <trkpt lat="36.768993549048900604248046875" lon="-118.42597679235041141510009765625">
        <ele>3291</ele>
        <time>2021-06-25T17:01:40.000Z</time>
        <extensions>
          <ns3:TrackPointExtension>
            <ns3:atemp>27.0</ns3:atemp>
            <ns3:hr>102</ns3:hr>
          </ns3:TrackPointExtension>
        </extensions>
      </trkpt>
      <trkpt lat="36.7689504660665988922119140625" lon="-118.42604367993772029876708984375">
        <ele>3291.199951171875</ele>
        <time>2021-06-25T17:01:48.000Z</time>
        <extensions>
          <ns3:TrackPointExtension>
            <ns3:atemp>27.0</ns3:atemp>
            <ns3:hr>101</ns3:hr>
          </ns3:TrackPointExtension>
        </extensions>
      </trkpt>
      <trkpt lat="36.76890830509364604949951171875" lon="-118.42613403685390949249267578125">
        <ele>3291.60009765625</ele>
        <time>2021-06-25T17:01:55.000Z</time>
        <extensions>
          <ns3:TrackPointExtension>
            <ns3:atemp>27.0</ns3:atemp>
            <ns3:hr>103</ns3:hr>
          </ns3:TrackPointExtension>
        </extensions>
      </trkpt>
      <trkpt lat="36.76891031675040721893310546875" lon="-118.42613873071968555450439453125">
        <ele>3292</ele>
        <time>2021-06-25T17:01:56.000Z</time>
        <extensions>
          <ns3:TrackPointExtension>
            <ns3:atemp>27.0</ns3:atemp>
            <ns3:hr>101</ns3:hr>
          </ns3:TrackPointExtension>
        </extensions>
      </trkpt>
      <trkpt lat="36.7689119093120098114013671875" lon="-118.42614878900349140167236328125">
        <ele>3292.199951171875</ele>
        <time>2021-06-25T17:01:57.000Z</time>
        <extensions>
          <ns3:TrackPointExtension>
            <ns3:atemp>27.0</ns3:atemp>
            <ns3:hr>101</ns3:hr>
          </ns3:TrackPointExtension>
        </extensions>
      </trkpt>
      <trkpt lat="36.768904365599155426025390625" lon="-118.42618617229163646697998046875">
        <ele>3292.60009765625</ele>
        <time>2021-06-25T17:02:02.000Z</time>
        <extensions>
          <ns3:TrackPointExtension>
            <ns3:atemp>27.0</ns3:atemp>
            <ns3:hr>103</ns3:hr>
          </ns3:TrackPointExtension>
        </extensions>
      </trkpt>
      <trkpt lat="36.76890335977077484130859375" lon="-118.42619656585156917572021484375">
        <ele>3293</ele>
        <time>2021-06-25T17:02:05.000Z</time>
        <extensions>
          <ns3:TrackPointExtension>
            <ns3:atemp>27.0</ns3:atemp>
            <ns3:hr>104</ns3:hr>
          </ns3:TrackPointExtension>
        </extensions>
      </trkpt>
      <trkpt lat="36.7689176090061664581298828125" lon="-118.42622615396976470947265625">
        <ele>3293</ele>
        <time>2021-06-25T17:02:09.000Z</time>
        <extensions>
          <ns3:TrackPointExtension>
            <ns3:atemp>27.0</ns3:atemp>
            <ns3:hr>103</ns3:hr>
          </ns3:TrackPointExtension>
        </extensions>
      </trkpt>
      <trkpt lat="36.768929176032543182373046875" lon="-118.4262836538255214691162109375">
        <ele>3293.800048828125</ele>
        <time>2021-06-25T17:02:15.000Z</time>
        <extensions>
          <ns3:TrackPointExtension>
            <ns3:atemp>27.0</ns3:atemp>
            <ns3:hr>103</ns3:hr>
          </ns3:TrackPointExtension>
        </extensions>
      </trkpt>
      <trkpt lat="36.76894552074372768402099609375" lon="-118.42632112093269824981689453125">
        <ele>3293.800048828125</ele>
        <time>2021-06-25T17:02:18.000Z</time>
        <extensions>
          <ns3:TrackPointExtension>
            <ns3:atemp>27.0</ns3:atemp>
            <ns3:hr>104</ns3:hr>
          </ns3:TrackPointExtension>
        </extensions>
      </trkpt>
      <trkpt lat="36.76894904114305973052978515625" lon="-118.42634291388094425201416015625">
        <ele>3294</ele>
        <time>2021-06-25T17:02:22.000Z</time>
        <extensions>
          <ns3:TrackPointExtension>
            <ns3:atemp>27.0</ns3:atemp>
            <ns3:hr>107</ns3:hr>
          </ns3:TrackPointExtension>
        </extensions>
      </trkpt>
      <trkpt lat="36.76893998868763446807861328125" lon="-118.42636470682919025421142578125">
        <ele>3295</ele>
        <time>2021-06-25T17:02:25.000Z</time>
        <extensions>
          <ns3:TrackPointExtension>
            <ns3:atemp>27.0</ns3:atemp>
            <ns3:hr>107</ns3:hr>
          </ns3:TrackPointExtension>
        </extensions>
      </trkpt>
      <trkpt lat="36.76892188377678394317626953125" lon="-118.42637459747493267059326171875">
        <ele>3295.199951171875</ele>
        <time>2021-06-25T17:02:29.000Z</time>
        <extensions>
          <ns3:TrackPointExtension>
            <ns3:atemp>27.0</ns3:atemp>
            <ns3:hr>106</ns3:hr>
          </ns3:TrackPointExtension>
        </extensions>
      </trkpt>
      <trkpt lat="36.76890729926526546478271484375" lon="-118.42636906541883945465087890625">
        <ele>3295.800048828125</ele>
        <time>2021-06-25T17:02:34.000Z</time>
        <extensions>
          <ns3:TrackPointExtension>
            <ns3:atemp>27.0</ns3:atemp>
            <ns3:hr>103</ns3:hr>
          </ns3:TrackPointExtension>
        </extensions>
      </trkpt>
      <trkpt lat="36.76889237947762012481689453125" lon="-118.4263671375811100006103515625">
        <ele>3296.199951171875</ele>
        <time>2021-06-25T17:02:35.000Z</time>
        <extensions>
          <ns3:TrackPointExtension>
            <ns3:atemp>27.0</ns3:atemp>
            <ns3:hr>103</ns3:hr>
          </ns3:TrackPointExtension>
        </extensions>
      </trkpt>
      <trkpt lat="36.76888667978346347808837890625" lon="-118.4263708256185054779052734375">
        <ele>3296.199951171875</ele>
        <time>2021-06-25T17:02:36.000Z</time>
        <extensions>
          <ns3:TrackPointExtension>
            <ns3:atemp>27.0</ns3:atemp>
            <ns3:hr>102</ns3:hr>
          </ns3:TrackPointExtension>
        </extensions>
      </trkpt>
      <trkpt lat="36.7688723467290401458740234375" lon="-118.42638297937810420989990234375">
        <ele>3296.800048828125</ele>
        <time>2021-06-25T17:02:39.000Z</time>
        <extensions>
          <ns3:TrackPointExtension>
            <ns3:atemp>27.0</ns3:atemp>
            <ns3:hr>99</ns3:hr>
          </ns3:TrackPointExtension>
        </extensions>
      </trkpt>
      <trkpt lat="36.76886974833905696868896484375" lon="-118.42638842761516571044921875">
        <ele>3296.800048828125</ele>
        <time>2021-06-25T17:02:40.000Z</time>
        <extensions>
          <ns3:TrackPointExtension>
            <ns3:atemp>27.0</ns3:atemp>
            <ns3:hr>98</ns3:hr>
          </ns3:TrackPointExtension>
        </extensions>
      </trkpt>
      <trkpt lat="36.76886589266359806060791015625" lon="-118.4264003299176692962646484375">
        <ele>3297</ele>
        <time>2021-06-25T17:02:42.000Z</time>
        <extensions>
          <ns3:TrackPointExtension>
            <ns3:atemp>27.0</ns3:atemp>
            <ns3:hr>97</ns3:hr>
          </ns3:TrackPointExtension>
        </extensions>
      </trkpt>
      <trkpt lat="36.76885717548429965972900390625" lon="-118.42644450254738330841064453125">
        <ele>3297.199951171875</ele>
        <time>2021-06-25T17:02:46.000Z</time>
        <extensions>
          <ns3:TrackPointExtension>
            <ns3:atemp>27.0</ns3:atemp>
            <ns3:hr>95</ns3:hr>
          </ns3:TrackPointExtension>
        </extensions>
      </trkpt>
      <trkpt lat="36.7688572593033313751220703125" lon="-118.42644902877509593963623046875">
        <ele>3297.60009765625</ele>
        <time>2021-06-25T17:02:47.000Z</time>
        <extensions>
          <ns3:TrackPointExtension>
            <ns3:atemp>27.0</ns3:atemp>
            <ns3:hr>95</ns3:hr>
          </ns3:TrackPointExtension>
        </extensions>
      </trkpt>
      <trkpt lat="36.7688532359898090362548828125" lon="-118.4264704026281833648681640625">
        <ele>3298</ele>
        <time>2021-06-25T17:02:50.000Z</time>
        <extensions>
          <ns3:TrackPointExtension>
            <ns3:atemp>27.0</ns3:atemp>
            <ns3:hr>98</ns3:hr>
          </ns3:TrackPointExtension>
        </extensions>
      </trkpt>
      <trkpt lat="36.7688425071537494659423828125" lon="-118.42648155055940151214599609375">
        <ele>3298</ele>
        <time>2021-06-25T17:02:53.000Z</time>
        <extensions>
          <ns3:TrackPointExtension>
            <ns3:atemp>27.0</ns3:atemp>
            <ns3:hr>100</ns3:hr>
          </ns3:TrackPointExtension>
        </extensions>
      </trkpt>
      <trkpt lat="36.76884544081985950469970703125" lon="-118.42648758552968502044677734375">
        <ele>3298.199951171875</ele>
        <time>2021-06-25T17:02:54.000Z</time>
        <extensions>
          <ns3:TrackPointExtension>
            <ns3:atemp>27.0</ns3:atemp>
            <ns3:hr>101</ns3:hr>
          </ns3:TrackPointExtension>
        </extensions>
      </trkpt>
      <trkpt lat="36.7688371427357196807861328125" lon="-118.4265106357634067535400390625">
        <ele>3298.39990234375</ele>
        <time>2021-06-25T17:02:57.000Z</time>
        <extensions>
          <ns3:TrackPointExtension>
            <ns3:atemp>27.0</ns3:atemp>
            <ns3:hr>105</ns3:hr>
          </ns3:TrackPointExtension>
        </extensions>
      </trkpt>
      <trkpt lat="36.768829934298992156982421875" lon="-118.4265180118381977081298828125">
        <ele>3298.60009765625</ele>
        <time>2021-06-25T17:02:58.000Z</time>
        <extensions>
          <ns3:TrackPointExtension>
            <ns3:atemp>27.0</ns3:atemp>
            <ns3:hr>106</ns3:hr>
          </ns3:TrackPointExtension>
        </extensions>
      </trkpt>
      <trkpt lat="36.7688230611383914947509765625" lon="-118.4265247173607349395751953125">
        <ele>3299</ele>
        <time>2021-06-25T17:03:00.000Z</time>
        <extensions>
          <ns3:TrackPointExtension>
            <ns3:atemp>27.0</ns3:atemp>
            <ns3:hr>110</ns3:hr>
          </ns3:TrackPointExtension>
        </extensions>
      </trkpt>
      <trkpt lat="36.76881073974072933197021484375" lon="-118.426533602178096771240234375">
        <ele>3299.199951171875</ele>
        <time>2021-06-25T17:03:02.000Z</time>
        <extensions>
          <ns3:TrackPointExtension>
            <ns3:atemp>27.0</ns3:atemp>
            <ns3:hr>112</ns3:hr>
          </ns3:TrackPointExtension>
        </extensions>
      </trkpt>
      <trkpt lat="36.7687972448766231536865234375" lon="-118.426528908312320709228515625">
        <ele>3299.39990234375</ele>
        <time>2021-06-25T17:03:03.000Z</time>
        <extensions>
          <ns3:TrackPointExtension>
            <ns3:atemp>27.0</ns3:atemp>
            <ns3:hr>113</ns3:hr>
          </ns3:TrackPointExtension>
        </extensions>
      </trkpt>
      <trkpt lat="36.76878911443054676055908203125" lon="-118.42656067572534084320068359375">
        <ele>3299.60009765625</ele>
        <time>2021-06-25T17:03:06.000Z</time>
        <extensions>
          <ns3:TrackPointExtension>
            <ns3:atemp>27.0</ns3:atemp>
            <ns3:hr>114</ns3:hr>
          </ns3:TrackPointExtension>
        </extensions>
      </trkpt>
      <trkpt lat="36.7687908746302127838134765625" lon="-118.4265766851603984832763671875">
        <ele>3299.60009765625</ele>
        <time>2021-06-25T17:03:07.000Z</time>
        <extensions>
          <ns3:TrackPointExtension>
            <ns3:atemp>27.0</ns3:atemp>
            <ns3:hr>114</ns3:hr>
          </ns3:TrackPointExtension>
        </extensions>
      </trkpt>
      <trkpt lat="36.7687948979437351226806640625" lon="-118.426609039306640625">
        <ele>3300</ele>
        <time>2021-06-25T17:03:10.000Z</time>
        <extensions>
          <ns3:TrackPointExtension>
            <ns3:atemp>27.0</ns3:atemp>
            <ns3:hr>114</ns3:hr>
          </ns3:TrackPointExtension>
        </extensions>
      </trkpt>
      <trkpt lat="36.7687938921153545379638671875" lon="-118.42662052251398563385009765625">
        <ele>3300</ele>
        <time>2021-06-25T17:03:11.000Z</time>
        <extensions>
          <ns3:TrackPointExtension>
            <ns3:atemp>27.0</ns3:atemp>
            <ns3:hr>115</ns3:hr>
          </ns3:TrackPointExtension>
        </extensions>
      </trkpt>
      <trkpt lat="36.76879095844924449920654296875" lon="-118.42663158662617206573486328125">
        <ele>3300.800048828125</ele>
        <time>2021-06-25T17:03:12.000Z</time>
        <extensions>
          <ns3:TrackPointExtension>
            <ns3:atemp>27.0</ns3:atemp>
            <ns3:hr>116</ns3:hr>
          </ns3:TrackPointExtension>
        </extensions>
      </trkpt>
      <trkpt lat="36.76879447884857654571533203125" lon="-118.426667712628841400146484375">
        <ele>3300.800048828125</ele>
        <time>2021-06-25T17:03:15.000Z</time>
        <extensions>
          <ns3:TrackPointExtension>
            <ns3:atemp>27.0</ns3:atemp>
            <ns3:hr>117</ns3:hr>
          </ns3:TrackPointExtension>
        </extensions>
      </trkpt>
      <trkpt lat="36.768789030611515045166015625" lon="-118.42668841592967510223388671875">
        <ele>3301</ele>
        <time>2021-06-25T17:03:17.000Z</time>
        <extensions>
          <ns3:TrackPointExtension>
            <ns3:atemp>27.0</ns3:atemp>
            <ns3:hr>118</ns3:hr>
          </ns3:TrackPointExtension>
        </extensions>
      </trkpt>
      <trkpt lat="36.76878291182219982147216796875" lon="-118.4267081134021282196044921875">
        <ele>3301.60009765625</ele>
        <time>2021-06-25T17:03:19.000Z</time>
        <extensions>
          <ns3:TrackPointExtension>
            <ns3:atemp>27.0</ns3:atemp>
            <ns3:hr>120</ns3:hr>
          </ns3:TrackPointExtension>
        </extensions>
      </trkpt>
      <trkpt lat="36.768793053925037384033203125" lon="-118.4267523698508739471435546875">
        <ele>3301.800048828125</ele>
        <time>2021-06-25T17:03:22.000Z</time>
        <extensions>
          <ns3:TrackPointExtension>
            <ns3:atemp>27.0</ns3:atemp>
            <ns3:hr>121</ns3:hr>
          </ns3:TrackPointExtension>
        </extensions>
      </trkpt>
      <trkpt lat="36.7687979154288768768310546875" lon="-118.42676460742950439453125">
        <ele>3302</ele>
        <time>2021-06-25T17:03:23.000Z</time>
        <extensions>
          <ns3:TrackPointExtension>
            <ns3:atemp>27.0</ns3:atemp>
            <ns3:hr>121</ns3:hr>
          </ns3:TrackPointExtension>
        </extensions>
      </trkpt>
      <trkpt lat="36.76879875361919403076171875" lon="-118.4268063493072986602783203125">
        <ele>3302</ele>
        <time>2021-06-25T17:03:27.000Z</time>
        <extensions>
          <ns3:TrackPointExtension>
            <ns3:atemp>27.0</ns3:atemp>
            <ns3:hr>123</ns3:hr>
          </ns3:TrackPointExtension>
        </extensions>
      </trkpt>
      <trkpt lat="36.76880051381886005401611328125" lon="-118.4268110431730747222900390625">
        <ele>3302</ele>
        <time>2021-06-25T17:03:28.000Z</time>
        <extensions>
          <ns3:TrackPointExtension>
            <ns3:atemp>27.0</ns3:atemp>
            <ns3:hr>123</ns3:hr>
          </ns3:TrackPointExtension>
        </extensions>
      </trkpt>
      <trkpt lat="36.768789701163768768310546875" lon="-118.42683945782482624053955078125">
        <ele>3302.60009765625</ele>
        <time>2021-06-25T17:03:32.000Z</time>
        <extensions>
          <ns3:TrackPointExtension>
            <ns3:atemp>27.0</ns3:atemp>
            <ns3:hr>122</ns3:hr>
          </ns3:TrackPointExtension>
        </extensions>
      </trkpt>
      <trkpt lat="36.768778972327709197998046875" lon="-118.42685571871697902679443359375">
        <ele>3302.800048828125</ele>
        <time>2021-06-25T17:03:34.000Z</time>
        <extensions>
          <ns3:TrackPointExtension>
            <ns3:atemp>27.0</ns3:atemp>
            <ns3:hr>121</ns3:hr>
          </ns3:TrackPointExtension>
        </extensions>
      </trkpt>
      <trkpt lat="36.76877402700483798980712890625" lon="-118.42686192132532596588134765625">
        <ele>3302.800048828125</ele>
        <time>2021-06-25T17:03:35.000Z</time>
        <extensions>
          <ns3:TrackPointExtension>
            <ns3:atemp>27.0</ns3:atemp>
            <ns3:hr>121</ns3:hr>
          </ns3:TrackPointExtension>
        </extensions>
      </trkpt>
      <trkpt lat="36.7687674053013324737548828125" lon="-118.42686812393367290496826171875">
        <ele>3303</ele>
        <time>2021-06-25T17:03:36.000Z</time>
        <extensions>
          <ns3:TrackPointExtension>
            <ns3:atemp>27.0</ns3:atemp>
            <ns3:hr>120</ns3:hr>
          </ns3:TrackPointExtension>
        </extensions>
      </trkpt>
      <trkpt lat="36.76876028068363666534423828125" lon="-118.4268839657306671142578125">
        <ele>3303.39990234375</ele>
        <time>2021-06-25T17:03:38.000Z</time>
        <extensions>
          <ns3:TrackPointExtension>
            <ns3:atemp>27.0</ns3:atemp>
            <ns3:hr>120</ns3:hr>
          </ns3:TrackPointExtension>
        </extensions>
      </trkpt>
      <trkpt lat="36.76875986158847808837890625" lon="-118.42690483666956424713134765625">
        <ele>3303.39990234375</ele>
        <time>2021-06-25T17:03:40.000Z</time>
        <extensions>
          <ns3:TrackPointExtension>
            <ns3:atemp>27.0</ns3:atemp>
            <ns3:hr>117</ns3:hr>
          </ns3:TrackPointExtension>
        </extensions>
      </trkpt>
      <trkpt lat="36.7687623761594295501708984375" lon="-118.42692327685654163360595703125">
        <ele>3303.39990234375</ele>
        <time>2021-06-25T17:03:42.000Z</time>
        <extensions>
          <ns3:TrackPointExtension>
            <ns3:atemp>27.0</ns3:atemp>
            <ns3:hr>119</ns3:hr>
          </ns3:TrackPointExtension>
        </extensions>
      </trkpt>
      <trkpt lat="36.76876463927328586578369140625" lon="-118.4269475005567073822021484375">
        <ele>3303.39990234375</ele>
        <time>2021-06-25T17:03:44.000Z</time>
        <extensions>
          <ns3:TrackPointExtension>
            <ns3:atemp>27.0</ns3:atemp>
            <ns3:hr>118</ns3:hr>
          </ns3:TrackPointExtension>
        </extensions>
      </trkpt>
      <trkpt lat="36.7687754519283771514892578125" lon="-118.426992930471897125244140625">
        <ele>3304</ele>
        <time>2021-06-25T17:03:48.000Z</time>
        <extensions>
          <ns3:TrackPointExtension>
            <ns3:atemp>27.0</ns3:atemp>
            <ns3:hr>118</ns3:hr>
          </ns3:TrackPointExtension>
        </extensions>
      </trkpt>
      <trkpt lat="36.7687891982495784759521484375" lon="-118.42702888883650302886962890625">
        <ele>3304</ele>
        <time>2021-06-25T17:03:51.000Z</time>
        <extensions>
          <ns3:TrackPointExtension>
            <ns3:atemp>27.0</ns3:atemp>
            <ns3:hr>118</ns3:hr>
          </ns3:TrackPointExtension>
        </extensions>
      </trkpt>
      <trkpt lat="36.76880319602787494659423828125" lon="-118.42706476338207721710205078125">
        <ele>3303.800048828125</ele>
        <time>2021-06-25T17:03:54.000Z</time>
        <extensions>
          <ns3:TrackPointExtension>
            <ns3:atemp>27.0</ns3:atemp>
            <ns3:hr>115</ns3:hr>
          </ns3:TrackPointExtension>
        </extensions>
      </trkpt>
      <trkpt lat="36.76881090737879276275634765625" lon="-118.427104912698268890380859375">
        <ele>3303.800048828125</ele>
        <time>2021-06-25T17:03:57.000Z</time>
        <extensions>
          <ns3:TrackPointExtension>
            <ns3:atemp>27.0</ns3:atemp>
            <ns3:hr>117</ns3:hr>
          </ns3:TrackPointExtension>
        </extensions>
      </trkpt>
      <trkpt lat="36.76880788989365100860595703125" lon="-118.427111618220806121826171875">
        <ele>3303.800048828125</ele>
        <time>2021-06-25T17:03:59.000Z</time>
        <extensions>
          <ns3:TrackPointExtension>
            <ns3:atemp>27.0</ns3:atemp>
            <ns3:hr>117</ns3:hr>
          </ns3:TrackPointExtension>
        </extensions>
      </trkpt>
      <trkpt lat="36.7688046209514141082763671875" lon="-118.4271226823329925537109375">
        <ele>3304.39990234375</ele>
        <time>2021-06-25T17:04:02.000Z</time>
        <extensions>
          <ns3:TrackPointExtension>
            <ns3:atemp>27.0</ns3:atemp>
            <ns3:hr>118</ns3:hr>
          </ns3:TrackPointExtension>
        </extensions>
      </trkpt>
      <trkpt lat="36.7687833309173583984375" lon="-118.427165932953357696533203125">
        <ele>3304.800048828125</ele>
        <time>2021-06-25T17:04:07.000Z</time>
        <extensions>
          <ns3:TrackPointExtension>
            <ns3:atemp>27.0</ns3:atemp>
            <ns3:hr>119</ns3:hr>
          </ns3:TrackPointExtension>
        </extensions>
      </trkpt>
      <trkpt lat="36.76877729594707489013671875" lon="-118.42723558656871318817138671875">
        <ele>3305.39990234375</ele>
        <time>2021-06-25T17:04:13.000Z</time>
        <extensions>
          <ns3:TrackPointExtension>
            <ns3:atemp>27.0</ns3:atemp>
            <ns3:hr>118</ns3:hr>
          </ns3:TrackPointExtension>
        </extensions>
      </trkpt>
      <trkpt lat="36.76878358237445354461669921875" lon="-118.42724614776670932769775390625">
        <ele>3305.39990234375</ele>
        <time>2021-06-25T17:04:14.000Z</time>
        <extensions>
          <ns3:TrackPointExtension>
            <ns3:atemp>27.0</ns3:atemp>
            <ns3:hr>118</ns3:hr>
          </ns3:TrackPointExtension>
        </extensions>
      </trkpt>
      <trkpt lat="36.7687912099063396453857421875" lon="-118.42726006172597408294677734375">
        <ele>3305.39990234375</ele>
        <time>2021-06-25T17:04:15.000Z</time>
        <extensions>
          <ns3:TrackPointExtension>
            <ns3:atemp>27.0</ns3:atemp>
            <ns3:hr>118</ns3:hr>
          </ns3:TrackPointExtension>
        </extensions>
      </trkpt>
      <trkpt lat="36.768793724477291107177734375" lon="-118.42727892100811004638671875">
        <ele>3305.800048828125</ele>
        <time>2021-06-25T17:04:17.000Z</time>
        <extensions>
          <ns3:TrackPointExtension>
            <ns3:atemp>27.0</ns3:atemp>
            <ns3:hr>117</ns3:hr>
          </ns3:TrackPointExtension>
        </extensions>
      </trkpt>
      <trkpt lat="36.7687945626676082611083984375" lon="-118.42730079777538776397705078125">
        <ele>3306</ele>
        <time>2021-06-25T17:04:20.000Z</time>
        <extensions>
          <ns3:TrackPointExtension>
            <ns3:atemp>27.0</ns3:atemp>
            <ns3:hr>116</ns3:hr>
          </ns3:TrackPointExtension>
        </extensions>
      </trkpt>
      <trkpt lat="36.76881358958780765533447265625" lon="-118.4273404441773891448974609375">
        <ele>3306.60009765625</ele>
        <time>2021-06-25T17:04:25.000Z</time>
        <extensions>
          <ns3:TrackPointExtension>
            <ns3:atemp>27.0</ns3:atemp>
            <ns3:hr>114</ns3:hr>
          </ns3:TrackPointExtension>
        </extensions>
      </trkpt>
      <trkpt lat="36.76883068867027759552001953125" lon="-118.42735544778406620025634765625">
        <ele>3306.800048828125</ele>
        <time>2021-06-25T17:04:27.000Z</time>
        <extensions>
          <ns3:TrackPointExtension>
            <ns3:atemp>27.0</ns3:atemp>
            <ns3:hr>112</ns3:hr>
          </ns3:TrackPointExtension>
        </extensions>
      </trkpt>
      <trkpt lat="36.7688398249447345733642578125" lon="-118.42736517079174518585205078125">
        <ele>3306.800048828125</ele>
        <time>2021-06-25T17:04:28.000Z</time>
        <extensions>
          <ns3:TrackPointExtension>
            <ns3:atemp>27.0</ns3:atemp>
            <ns3:hr>112</ns3:hr>
          </ns3:TrackPointExtension>
        </extensions>
      </trkpt>
      <trkpt lat="36.7688582651317119598388671875" lon="-118.42739987187087535858154296875">
        <ele>3307</ele>
        <time>2021-06-25T17:04:31.000Z</time>
        <extensions>
          <ns3:TrackPointExtension>
            <ns3:atemp>26.0</ns3:atemp>
            <ns3:hr>110</ns3:hr>
          </ns3:TrackPointExtension>
        </extensions>
      </trkpt>
      <trkpt lat="36.7688624560832977294921875" lon="-118.42741898261010646820068359375">
        <ele>3307</ele>
        <time>2021-06-25T17:04:34.000Z</time>
        <extensions>
          <ns3:TrackPointExtension>
            <ns3:atemp>26.0</ns3:atemp>
            <ns3:hr>107</ns3:hr>
          </ns3:TrackPointExtension>
        </extensions>
      </trkpt>
      <trkpt lat="36.7688586004078388214111328125" lon="-118.42742887325584888458251953125">
        <ele>3307.199951171875</ele>
        <time>2021-06-25T17:04:35.000Z</time>
        <extensions>
          <ns3:TrackPointExtension>
            <ns3:atemp>26.0</ns3:atemp>
            <ns3:hr>107</ns3:hr>
          </ns3:TrackPointExtension>
        </extensions>
      </trkpt>
      <trkpt lat="36.7688619531691074371337890625" lon="-118.427442871034145355224609375">
        <ele>3307.39990234375</ele>
        <time>2021-06-25T17:04:36.000Z</time>
        <extensions>
          <ns3:TrackPointExtension>
            <ns3:atemp>26.0</ns3:atemp>
            <ns3:hr>107</ns3:hr>
          </ns3:TrackPointExtension>
        </extensions>
      </trkpt>
      <trkpt lat="36.76888014189898967742919921875" lon="-118.4274758957326412200927734375">
        <ele>3307.60009765625</ele>
        <time>2021-06-25T17:04:40.000Z</time>
        <extensions>
          <ns3:TrackPointExtension>
            <ns3:atemp>26.0</ns3:atemp>
            <ns3:hr>106</ns3:hr>
          </ns3:TrackPointExtension>
        </extensions>
      </trkpt>
      <trkpt lat="36.76889807917177677154541015625" lon="-118.4274874627590179443359375">
        <ele>3307.60009765625</ele>
        <time>2021-06-25T17:04:42.000Z</time>
        <extensions>
          <ns3:TrackPointExtension>
            <ns3:atemp>26.0</ns3:atemp>
            <ns3:hr>106</ns3:hr>
          </ns3:TrackPointExtension>
        </extensions>
      </trkpt>
      <trkpt lat="36.76897980272769927978515625" lon="-118.42754404060542583465576171875">
        <ele>3306.800048828125</ele>
        <time>2021-06-25T17:04:50.000Z</time>
        <extensions>
          <ns3:TrackPointExtension>
            <ns3:atemp>26.0</ns3:atemp>
            <ns3:hr>106</ns3:hr>
          </ns3:TrackPointExtension>
        </extensions>
      </trkpt>
      <trkpt lat="36.7690094746649265289306640625" lon="-118.427598439157009124755859375">
        <ele>3306.800048828125</ele>
        <time>2021-06-25T17:04:56.000Z</time>
        <extensions>
          <ns3:TrackPointExtension>
            <ns3:atemp>26.0</ns3:atemp>
            <ns3:hr>105</ns3:hr>
          </ns3:TrackPointExtension>
        </extensions>
      </trkpt>
      <trkpt lat="36.76900251768529415130615234375" lon="-118.4276162087917327880859375">
        <ele>3307.199951171875</ele>
        <time>2021-06-25T17:05:00.000Z</time>
        <extensions>
          <ns3:TrackPointExtension>
            <ns3:atemp>26.0</ns3:atemp>
            <ns3:hr>102</ns3:hr>
          </ns3:TrackPointExtension>
        </extensions>
      </trkpt>
      <trkpt lat="36.76900167949497699737548828125" lon="-118.4276220761239528656005859375">
        <ele>3307.199951171875</ele>
        <time>2021-06-25T17:05:01.000Z</time>
        <extensions>
          <ns3:TrackPointExtension>
            <ns3:atemp>26.0</ns3:atemp>
            <ns3:hr>105</ns3:hr>
          </ns3:TrackPointExtension>
        </extensions>
      </trkpt>
      <trkpt lat="36.76900620572268962860107421875" lon="-118.42763003893196582794189453125">
        <ele>3307.199951171875</ele>
        <time>2021-06-25T17:05:03.000Z</time>
        <extensions>
          <ns3:TrackPointExtension>
            <ns3:atemp>26.0</ns3:atemp>
            <ns3:hr>102</ns3:hr>
          </ns3:TrackPointExtension>
        </extensions>
      </trkpt>
      <trkpt lat="36.76900620572268962860107421875" lon="-118.427642025053501129150390625">
        <ele>3307.199951171875</ele>
        <time>2021-06-25T17:05:05.000Z</time>
        <extensions>
          <ns3:TrackPointExtension>
            <ns3:atemp>26.0</ns3:atemp>
            <ns3:hr>102</ns3:hr>
          </ns3:TrackPointExtension>
        </extensions>
      </trkpt>
      <trkpt lat="36.76900017075240612030029296875" lon="-118.42772676609456539154052734375">
        <ele>3308.39990234375</ele>
        <time>2021-06-25T17:05:14.000Z</time>
        <extensions>
          <ns3:TrackPointExtension>
            <ns3:atemp>26.0</ns3:atemp>
            <ns3:hr>105</ns3:hr>
          </ns3:TrackPointExtension>
        </extensions>
      </trkpt>
      <trkpt lat="36.769006289541721343994140625" lon="-118.42774017713963985443115234375">
        <ele>3308.60009765625</ele>
        <time>2021-06-25T17:05:16.000Z</time>
        <extensions>
          <ns3:TrackPointExtension>
            <ns3:atemp>26.0</ns3:atemp>
            <ns3:hr>105</ns3:hr>
          </ns3:TrackPointExtension>
        </extensions>
      </trkpt>
      <trkpt lat="36.76900385878980159759521484375" lon="-118.42774403281509876251220703125">
        <ele>3308.60009765625</ele>
        <time>2021-06-25T17:05:17.000Z</time>
        <extensions>
          <ns3:TrackPointExtension>
            <ns3:atemp>26.0</ns3:atemp>
            <ns3:hr>105</ns3:hr>
          </ns3:TrackPointExtension>
        </extensions>
      </trkpt>
      <trkpt lat="36.76900788210332393646240234375" lon="-118.4277659095823764801025390625">
        <ele>3309</ele>
        <time>2021-06-25T17:05:20.000Z</time>
        <extensions>
          <ns3:TrackPointExtension>
            <ns3:atemp>26.0</ns3:atemp>
            <ns3:hr>105</ns3:hr>
          </ns3:TrackPointExtension>
        </extensions>
      </trkpt>
      <trkpt lat="36.76903286017477512359619140625" lon="-118.42780253849923610687255859375">
        <ele>3309</ele>
        <time>2021-06-25T17:05:25.000Z</time>
        <extensions>
          <ns3:TrackPointExtension>
            <ns3:atemp>26.0</ns3:atemp>
            <ns3:hr>107</ns3:hr>
          </ns3:TrackPointExtension>
        </extensions>
      </trkpt>
      <trkpt lat="36.76904660649597644805908203125" lon="-118.427821733057498931884765625">
        <ele>3309.60009765625</ele>
        <time>2021-06-25T17:05:27.000Z</time>
        <extensions>
          <ns3:TrackPointExtension>
            <ns3:atemp>26.0</ns3:atemp>
            <ns3:hr>106</ns3:hr>
          </ns3:TrackPointExtension>
        </extensions>
      </trkpt>
      <trkpt lat="36.7690533958375453948974609375" lon="-118.42783036641776561737060546875">
        <ele>3309.800048828125</ele>
        <time>2021-06-25T17:05:28.000Z</time>
        <extensions>
          <ns3:TrackPointExtension>
            <ns3:atemp>26.0</ns3:atemp>
            <ns3:hr>106</ns3:hr>
          </ns3:TrackPointExtension>
        </extensions>
      </trkpt>
      <trkpt lat="36.76905892789363861083984375" lon="-118.42783455736935138702392578125">
        <ele>3309.800048828125</ele>
        <time>2021-06-25T17:05:29.000Z</time>
        <extensions>
          <ns3:TrackPointExtension>
            <ns3:atemp>26.0</ns3:atemp>
            <ns3:hr>106</ns3:hr>
          </ns3:TrackPointExtension>
        </extensions>
      </trkpt>
      <trkpt lat="36.769059598445892333984375" lon="-118.42783925123512744903564453125">
        <ele>3310</ele>
        <time>2021-06-25T17:05:30.000Z</time>
        <extensions>
          <ns3:TrackPointExtension>
            <ns3:atemp>26.0</ns3:atemp>
            <ns3:hr>105</ns3:hr>
          </ns3:TrackPointExtension>
        </extensions>
      </trkpt>
      <trkpt lat="36.76908432506024837493896484375" lon="-118.42790345661342144012451171875">
        <ele>3310.60009765625</ele>
        <time>2021-06-25T17:05:35.000Z</time>
        <extensions>
          <ns3:TrackPointExtension>
            <ns3:atemp>26.0</ns3:atemp>
            <ns3:hr>107</ns3:hr>
          </ns3:TrackPointExtension>
        </extensions>
      </trkpt>
      <trkpt lat="36.76908985711634159088134765625" lon="-118.42790915630757808685302734375">
        <ele>3310.60009765625</ele>
        <time>2021-06-25T17:05:36.000Z</time>
        <extensions>
          <ns3:TrackPointExtension>
            <ns3:atemp>27.0</ns3:atemp>
            <ns3:hr>107</ns3:hr>
          </ns3:TrackPointExtension>
        </extensions>
      </trkpt>
      <trkpt lat="36.76910050213336944580078125" lon="-118.42791602946817874908447265625">
        <ele>3310.60009765625</ele>
        <time>2021-06-25T17:05:37.000Z</time>
        <extensions>
          <ns3:TrackPointExtension>
            <ns3:atemp>26.0</ns3:atemp>
            <ns3:hr>108</ns3:hr>
          </ns3:TrackPointExtension>
        </extensions>
      </trkpt>
      <trkpt lat="36.76911667920649051666259765625" lon="-118.42793698422610759735107421875">
        <ele>3310.60009765625</ele>
        <time>2021-06-25T17:05:39.000Z</time>
        <extensions>
          <ns3:TrackPointExtension>
            <ns3:atemp>26.0</ns3:atemp>
            <ns3:hr>110</ns3:hr>
          </ns3:TrackPointExtension>
        </extensions>
      </trkpt>
      <trkpt lat="36.76913159899413585662841796875" lon="-118.4279687516391277313232421875">
        <ele>3310.60009765625</ele>
        <time>2021-06-25T17:05:42.000Z</time>
        <extensions>
          <ns3:TrackPointExtension>
            <ns3:atemp>27.0</ns3:atemp>
            <ns3:hr>107</ns3:hr>
          </ns3:TrackPointExtension>
        </extensions>
      </trkpt>
      <trkpt lat="36.76913914270699024200439453125" lon="-118.42797487042844295501708984375">
        <ele>3310.60009765625</ele>
        <time>2021-06-25T17:05:43.000Z</time>
        <extensions>
          <ns3:TrackPointExtension>
            <ns3:atemp>27.0</ns3:atemp>
            <ns3:hr>108</ns3:hr>
          </ns3:TrackPointExtension>
        </extensions>
      </trkpt>
      <trkpt lat="36.769151799380779266357421875" lon="-118.4279809892177581787109375">
        <ele>3310.800048828125</ele>
        <time>2021-06-25T17:05:44.000Z</time>
        <extensions>
          <ns3:TrackPointExtension>
            <ns3:atemp>27.0</ns3:atemp>
            <ns3:hr>108</ns3:hr>
          </ns3:TrackPointExtension>
        </extensions>
      </trkpt>
      <trkpt lat="36.76916998811066150665283203125" lon="-118.42799565754830837249755859375">
        <ele>3311.39990234375</ele>
        <time>2021-06-25T17:05:48.000Z</time>
        <extensions>
          <ns3:TrackPointExtension>
            <ns3:atemp>27.0</ns3:atemp>
            <ns3:hr>104</ns3:hr>
          </ns3:TrackPointExtension>
        </extensions>
      </trkpt>
      <trkpt lat="36.76917853765189647674560546875" lon="-118.4280133433640003204345703125">
        <ele>3311.60009765625</ele>
        <time>2021-06-25T17:05:50.000Z</time>
        <extensions>
          <ns3:TrackPointExtension>
            <ns3:atemp>27.0</ns3:atemp>
            <ns3:hr>101</ns3:hr>
          </ns3:TrackPointExtension>
        </extensions>
      </trkpt>
      <trkpt lat="36.7691816389560699462890625" lon="-118.4280227310955524444580078125">
        <ele>3311.800048828125</ele>
        <time>2021-06-25T17:05:51.000Z</time>
        <extensions>
          <ns3:TrackPointExtension>
            <ns3:atemp>27.0</ns3:atemp>
            <ns3:hr>101</ns3:hr>
          </ns3:TrackPointExtension>
        </extensions>
      </trkpt>
      <trkpt lat="36.76917962729930877685546875" lon="-118.4280307777225971221923828125">
        <ele>3311.800048828125</ele>
        <time>2021-06-25T17:05:52.000Z</time>
        <extensions>
          <ns3:TrackPointExtension>
            <ns3:atemp>27.0</ns3:atemp>
            <ns3:hr>102</ns3:hr>
          </ns3:TrackPointExtension>
        </extensions>
      </trkpt>
      <trkpt lat="36.7691637016832828521728515625" lon="-118.42803287319839000701904296875">
        <ele>3312.39990234375</ele>
        <time>2021-06-25T17:05:54.000Z</time>
        <extensions>
          <ns3:TrackPointExtension>
            <ns3:atemp>27.0</ns3:atemp>
            <ns3:hr>102</ns3:hr>
          </ns3:TrackPointExtension>
        </extensions>
      </trkpt>
      <trkpt lat="36.76916596479713916778564453125" lon="-118.428056426346302032470703125">
        <ele>3312.60009765625</ele>
        <time>2021-06-25T17:05:56.000Z</time>
        <extensions>
          <ns3:TrackPointExtension>
            <ns3:atemp>27.0</ns3:atemp>
            <ns3:hr>103</ns3:hr>
          </ns3:TrackPointExtension>
        </extensions>
      </trkpt>
      <trkpt lat="36.76915707997977733612060546875" lon="-118.42809355817735195159912109375">
        <ele>3313</ele>
        <time>2021-06-25T17:05:59.000Z</time>
        <extensions>
          <ns3:TrackPointExtension>
            <ns3:atemp>27.0</ns3:atemp>
            <ns3:hr>104</ns3:hr>
          </ns3:TrackPointExtension>
        </extensions>
      </trkpt>
      <trkpt lat="36.7691667191684246063232421875" lon="-118.4281270019710063934326171875">
        <ele>3313.199951171875</ele>
        <time>2021-06-25T17:06:02.000Z</time>
        <extensions>
          <ns3:TrackPointExtension>
            <ns3:atemp>27.0</ns3:atemp>
            <ns3:hr>106</ns3:hr>
          </ns3:TrackPointExtension>
        </extensions>
      </trkpt>
      <trkpt lat="36.769185997545719146728515625" lon="-118.428153656423091888427734375">
        <ele>3314.39990234375</ele>
        <time>2021-06-25T17:06:08.000Z</time>
        <extensions>
          <ns3:TrackPointExtension>
            <ns3:atemp>27.0</ns3:atemp>
            <ns3:hr>107</ns3:hr>
          </ns3:TrackPointExtension>
        </extensions>
      </trkpt>
      <trkpt lat="36.76917753182351589202880859375" lon="-118.42816597782075405120849609375">
        <ele>3314.60009765625</ele>
        <time>2021-06-25T17:06:12.000Z</time>
        <extensions>
          <ns3:TrackPointExtension>
            <ns3:atemp>27.0</ns3:atemp>
            <ns3:hr>106</ns3:hr>
          </ns3:TrackPointExtension>
        </extensions>
      </trkpt>
      <trkpt lat="36.769182644784450531005859375" lon="-118.42817754484713077545166015625">
        <ele>3315.39990234375</ele>
        <time>2021-06-25T17:06:16.000Z</time>
        <extensions>
          <ns3:TrackPointExtension>
            <ns3:atemp>27.0</ns3:atemp>
            <ns3:hr>108</ns3:hr>
          </ns3:TrackPointExtension>
        </extensions>
      </trkpt>
      <trkpt lat="36.7691789567470550537109375" lon="-118.42817754484713077545166015625">
        <ele>3315.800048828125</ele>
        <time>2021-06-25T17:06:18.000Z</time>
        <extensions>
          <ns3:TrackPointExtension>
            <ns3:atemp>27.0</ns3:atemp>
            <ns3:hr>107</ns3:hr>
          </ns3:TrackPointExtension>
        </extensions>
      </trkpt>
      <trkpt lat="36.7691667191684246063232421875" lon="-118.42818357981741428375244140625">
        <ele>3316.39990234375</ele>
        <time>2021-06-25T17:06:20.000Z</time>
        <extensions>
          <ns3:TrackPointExtension>
            <ns3:atemp>27.0</ns3:atemp>
            <ns3:hr>108</ns3:hr>
          </ns3:TrackPointExtension>
        </extensions>
      </trkpt>
      <trkpt lat="36.76916093565523624420166015625" lon="-118.4281930513679981231689453125">
        <ele>3316.39990234375</ele>
        <time>2021-06-25T17:06:22.000Z</time>
        <extensions>
          <ns3:TrackPointExtension>
            <ns3:atemp>27.0</ns3:atemp>
            <ns3:hr>110</ns3:hr>
          </ns3:TrackPointExtension>
        </extensions>
      </trkpt>
      <trkpt lat="36.76915138028562068939208984375" lon="-118.42818818986415863037109375">
        <ele>3316.60009765625</ele>
        <time>2021-06-25T17:06:24.000Z</time>
        <extensions>
          <ns3:TrackPointExtension>
            <ns3:atemp>27.0</ns3:atemp>
            <ns3:hr>111</ns3:hr>
          </ns3:TrackPointExtension>
        </extensions>
      </trkpt>
      <trkpt lat="36.76914752461016178131103515625" lon="-118.42818307690322399139404296875">
        <ele>3317.60009765625</ele>
        <time>2021-06-25T17:06:30.000Z</time>
        <extensions>
          <ns3:TrackPointExtension>
            <ns3:atemp>27.0</ns3:atemp>
            <ns3:hr>113</ns3:hr>
          </ns3:TrackPointExtension>
        </extensions>
      </trkpt>
      <trkpt lat="36.7691489495337009429931640625" lon="-118.4281896986067295074462890625">
        <ele>3317.800048828125</ele>
        <time>2021-06-25T17:06:31.000Z</time>
        <extensions>
          <ns3:TrackPointExtension>
            <ns3:atemp>27.0</ns3:atemp>
            <ns3:hr>114</ns3:hr>
          </ns3:TrackPointExtension>
        </extensions>
      </trkpt>
      <trkpt lat="36.76916395314037799835205078125" lon="-118.42822180129587650299072265625">
        <ele>3318.800048828125</ele>
        <time>2021-06-25T17:06:36.000Z</time>
        <extensions>
          <ns3:TrackPointExtension>
            <ns3:atemp>27.0</ns3:atemp>
            <ns3:hr>115</ns3:hr>
          </ns3:TrackPointExtension>
        </extensions>
      </trkpt>
      <trkpt lat="36.76917585544288158416748046875" lon="-118.428227417171001434326171875">
        <ele>3319</ele>
        <time>2021-06-25T17:06:39.000Z</time>
        <extensions>
          <ns3:TrackPointExtension>
            <ns3:atemp>27.0</ns3:atemp>
            <ns3:hr>114</ns3:hr>
          </ns3:TrackPointExtension>
        </extensions>
      </trkpt>
      <trkpt lat="36.7691918648779392242431640625" lon="-118.4282805584371089935302734375">
        <ele>3319.39990234375</ele>
        <time>2021-06-25T17:06:43.000Z</time>
        <extensions>
          <ns3:TrackPointExtension>
            <ns3:atemp>27.0</ns3:atemp>
            <ns3:hr>111</ns3:hr>
          </ns3:TrackPointExtension>
        </extensions>
      </trkpt>
      <trkpt lat="36.76919194869697093963623046875" lon="-118.428289778530597686767578125">
        <ele>3320</ele>
        <time>2021-06-25T17:06:44.000Z</time>
        <extensions>
          <ns3:TrackPointExtension>
            <ns3:atemp>27.0</ns3:atemp>
            <ns3:hr>112</ns3:hr>
          </ns3:TrackPointExtension>
        </extensions>
      </trkpt>
      <trkpt lat="36.76920200698077678680419921875" lon="-118.428330011665821075439453125">
        <ele>3320.199951171875</ele>
        <time>2021-06-25T17:06:47.000Z</time>
        <extensions>
          <ns3:TrackPointExtension>
            <ns3:atemp>27.0</ns3:atemp>
            <ns3:hr>111</ns3:hr>
          </ns3:TrackPointExtension>
        </extensions>
      </trkpt>
      <trkpt lat="36.76921105943620204925537109375" lon="-118.42837703414261341094970703125">
        <ele>3321</ele>
        <time>2021-06-25T17:06:50.000Z</time>
        <extensions>
          <ns3:TrackPointExtension>
            <ns3:atemp>27.0</ns3:atemp>
            <ns3:hr>111</ns3:hr>
          </ns3:TrackPointExtension>
        </extensions>
      </trkpt>
      <trkpt lat="36.76921206526458263397216796875" lon="-118.42839664779603481292724609375">
        <ele>3321.800048828125</ele>
        <time>2021-06-25T17:06:53.000Z</time>
        <extensions>
          <ns3:TrackPointExtension>
            <ns3:atemp>27.0</ns3:atemp>
            <ns3:hr>114</ns3:hr>
          </ns3:TrackPointExtension>
        </extensions>
      </trkpt>
      <trkpt lat="36.7692086286842823028564453125" lon="-118.42839882709085941314697265625">
        <ele>3322.199951171875</ele>
        <time>2021-06-25T17:06:54.000Z</time>
        <extensions>
          <ns3:TrackPointExtension>
            <ns3:atemp>27.0</ns3:atemp>
            <ns3:hr>115</ns3:hr>
          </ns3:TrackPointExtension>
        </extensions>
      </trkpt>
      <trkpt lat="36.76921717822551727294921875" lon="-118.42841844074428081512451171875">
        <ele>3322.60009765625</ele>
        <time>2021-06-25T17:06:58.000Z</time>
        <extensions>
          <ns3:TrackPointExtension>
            <ns3:atemp>27.0</ns3:atemp>
            <ns3:hr>118</ns3:hr>
          </ns3:TrackPointExtension>
        </extensions>
      </trkpt>
      <trkpt lat="36.76922916434705257415771484375" lon="-118.4284260682761669158935546875">
        <ele>3323</ele>
        <time>2021-06-25T17:07:00.000Z</time>
        <extensions>
          <ns3:TrackPointExtension>
            <ns3:atemp>27.0</ns3:atemp>
            <ns3:hr>120</ns3:hr>
          </ns3:TrackPointExtension>
        </extensions>
      </trkpt>
      <trkpt lat="36.769231595098972320556640625" lon="-118.42844995670020580291748046875">
        <ele>3323.39990234375</ele>
        <time>2021-06-25T17:07:03.000Z</time>
        <extensions>
          <ns3:TrackPointExtension>
            <ns3:atemp>27.0</ns3:atemp>
            <ns3:hr>123</ns3:hr>
          </ns3:TrackPointExtension>
        </extensions>
      </trkpt>
      <trkpt lat="36.76923193037509918212890625" lon="-118.42845498584210872650146484375">
        <ele>3324</ele>
        <time>2021-06-25T17:07:06.000Z</time>
        <extensions>
          <ns3:TrackPointExtension>
            <ns3:atemp>27.0</ns3:atemp>
            <ns3:hr>126</ns3:hr>
          </ns3:TrackPointExtension>
        </extensions>
      </trkpt>
      <trkpt lat="36.7692381329834461212158203125" lon="-118.42845817096531391143798828125">
        <ele>3324</ele>
        <time>2021-06-25T17:07:07.000Z</time>
        <extensions>
          <ns3:TrackPointExtension>
            <ns3:atemp>27.0</ns3:atemp>
            <ns3:hr>126</ns3:hr>
          </ns3:TrackPointExtension>
        </extensions>
      </trkpt>
      <trkpt lat="36.7692478559911251068115234375" lon="-118.4284572489559650421142578125">
        <ele>3324.800048828125</ele>
        <time>2021-06-25T17:07:10.000Z</time>
        <extensions>
          <ns3:TrackPointExtension>
            <ns3:atemp>27.0</ns3:atemp>
            <ns3:hr>124</ns3:hr>
          </ns3:TrackPointExtension>
        </extensions>
      </trkpt>
      <trkpt lat="36.769248358905315399169921875" lon="-118.4284703247249126434326171875">
        <ele>3325.60009765625</ele>
        <time>2021-06-25T17:07:15.000Z</time>
        <extensions>
          <ns3:TrackPointExtension>
            <ns3:atemp>27.0</ns3:atemp>
            <ns3:hr>124</ns3:hr>
          </ns3:TrackPointExtension>
        </extensions>
      </trkpt>
      <trkpt lat="36.7692528851330280303955078125" lon="-118.42847920954227447509765625">
        <ele>3325.800048828125</ele>
        <time>2021-06-25T17:07:17.000Z</time>
        <extensions>
          <ns3:TrackPointExtension>
            <ns3:atemp>27.0</ns3:atemp>
            <ns3:hr>123</ns3:hr>
          </ns3:TrackPointExtension>
        </extensions>
      </trkpt>
      <trkpt lat="36.76927216351032257080078125" lon="-118.4285125695168972015380859375">
        <ele>3326.199951171875</ele>
        <time>2021-06-25T17:07:21.000Z</time>
        <extensions>
          <ns3:TrackPointExtension>
            <ns3:atemp>27.0</ns3:atemp>
            <ns3:hr>123</ns3:hr>
          </ns3:TrackPointExtension>
        </extensions>
      </trkpt>
      <trkpt lat="36.76926922984421253204345703125" lon="-118.42852053232491016387939453125">
        <ele>3326.800048828125</ele>
        <time>2021-06-25T17:07:25.000Z</time>
        <extensions>
          <ns3:TrackPointExtension>
            <ns3:atemp>27.0</ns3:atemp>
            <ns3:hr>122</ns3:hr>
          </ns3:TrackPointExtension>
        </extensions>
      </trkpt>
      <trkpt lat="36.76926319487392902374267578125" lon="-118.4285273216664791107177734375">
        <ele>3327.199951171875</ele>
        <time>2021-06-25T17:07:28.000Z</time>
        <extensions>
          <ns3:TrackPointExtension>
            <ns3:atemp>27.0</ns3:atemp>
            <ns3:hr>124</ns3:hr>
          </ns3:TrackPointExtension>
        </extensions>
      </trkpt>
      <trkpt lat="36.76926185376942157745361328125" lon="-118.42852212488651275634765625">
        <ele>3327.60009765625</ele>
        <time>2021-06-25T17:07:32.000Z</time>
        <extensions>
          <ns3:TrackPointExtension>
            <ns3:atemp>27.0</ns3:atemp>
            <ns3:hr>127</ns3:hr>
          </ns3:TrackPointExtension>
        </extensions>
      </trkpt>
      <trkpt lat="36.7692582495510578155517578125" lon="-118.428533188998699188232421875">
        <ele>3328.199951171875</ele>
        <time>2021-06-25T17:07:34.000Z</time>
        <extensions>
          <ns3:TrackPointExtension>
            <ns3:atemp>27.0</ns3:atemp>
            <ns3:hr>127</ns3:hr>
          </ns3:TrackPointExtension>
        </extensions>
      </trkpt>
      <trkpt lat="36.76923553459346294403076171875" lon="-118.4285444207489490509033203125">
        <ele>3329</ele>
        <time>2021-06-25T17:07:38.000Z</time>
        <extensions>
          <ns3:TrackPointExtension>
            <ns3:atemp>27.0</ns3:atemp>
            <ns3:hr>127</ns3:hr>
          </ns3:TrackPointExtension>
        </extensions>
      </trkpt>
      <trkpt lat="36.76921726204454898834228515625" lon="-118.4285308420658111572265625">
        <ele>3329.199951171875</ele>
        <time>2021-06-25T17:07:42.000Z</time>
        <extensions>
          <ns3:TrackPointExtension>
            <ns3:atemp>27.0</ns3:atemp>
            <ns3:hr>127</ns3:hr>
          </ns3:TrackPointExtension>
        </extensions>
      </trkpt>
      <trkpt lat="36.76921457983553409576416015625" lon="-118.4285283274948596954345703125">
        <ele>3329.199951171875</ele>
        <time>2021-06-25T17:07:43.000Z</time>
        <extensions>
          <ns3:TrackPointExtension>
            <ns3:atemp>27.0</ns3:atemp>
            <ns3:hr>126</ns3:hr>
          </ns3:TrackPointExtension>
        </extensions>
      </trkpt>
      <trkpt lat="36.76921457983553409576416015625" lon="-118.4285283274948596954345703125">
        <ele>3330.199951171875</ele>
        <time>2021-06-25T17:07:48.000Z</time>
        <extensions>
          <ns3:TrackPointExtension>
            <ns3:atemp>27.0</ns3:atemp>
            <ns3:hr>127</ns3:hr>
          </ns3:TrackPointExtension>
        </extensions>
      </trkpt>
      <trkpt lat="36.7692247219383716583251953125" lon="-118.42853553593158721923828125">
        <ele>3331.39990234375</ele>
        <time>2021-06-25T17:07:56.000Z</time>
        <extensions>
          <ns3:TrackPointExtension>
            <ns3:atemp>27.0</ns3:atemp>
            <ns3:hr>127</ns3:hr>
          </ns3:TrackPointExtension>
        </extensions>
      </trkpt>
      <trkpt lat="36.76922732032835483551025390625" lon="-118.42854584567248821258544921875">
        <ele>3332.39990234375</ele>
        <time>2021-06-25T17:08:04.000Z</time>
        <extensions>
          <ns3:TrackPointExtension>
            <ns3:atemp>27.0</ns3:atemp>
            <ns3:hr>124</ns3:hr>
          </ns3:TrackPointExtension>
        </extensions>
      </trkpt>
      <trkpt lat="36.7692274041473865509033203125" lon="-118.42854626476764678955078125">
        <ele>3333</ele>
        <time>2021-06-25T17:08:06.000Z</time>
        <extensions>
          <ns3:TrackPointExtension>
            <ns3:atemp>27.0</ns3:atemp>
            <ns3:hr>124</ns3:hr>
          </ns3:TrackPointExtension>
        </extensions>
      </trkpt>
      <trkpt lat="36.7692274041473865509033203125" lon="-118.42855540104210376739501953125">
        <ele>3333.60009765625</ele>
        <time>2021-06-25T17:08:09.000Z</time>
        <extensions>
          <ns3:TrackPointExtension>
            <ns3:atemp>27.0</ns3:atemp>
            <ns3:hr>123</ns3:hr>
          </ns3:TrackPointExtension>
        </extensions>
      </trkpt>
      <trkpt lat="36.76925313659012317657470703125" lon="-118.4286198578774929046630859375">
        <ele>3334.60009765625</ele>
        <time>2021-06-25T17:08:17.000Z</time>
        <extensions>
          <ns3:TrackPointExtension>
            <ns3:atemp>27.0</ns3:atemp>
            <ns3:hr>124</ns3:hr>
          </ns3:TrackPointExtension>
        </extensions>
      </trkpt>
      <trkpt lat="36.76926269195973873138427734375" lon="-118.42862949706614017486572265625">
        <ele>3335.39990234375</ele>
        <time>2021-06-25T17:08:22.000Z</time>
        <extensions>
          <ns3:TrackPointExtension>
            <ns3:atemp>27.0</ns3:atemp>
            <ns3:hr>128</ns3:hr>
          </ns3:TrackPointExtension>
        </extensions>
      </trkpt>
      <trkpt lat="36.76926436834037303924560546875" lon="-118.428631760179996490478515625">
        <ele>3335.39990234375</ele>
        <time>2021-06-25T17:08:23.000Z</time>
        <extensions>
          <ns3:TrackPointExtension>
            <ns3:atemp>27.0</ns3:atemp>
            <ns3:hr>123</ns3:hr>
          </ns3:TrackPointExtension>
        </extensions>
      </trkpt>
      <trkpt lat="36.76926721818745136260986328125" lon="-118.42863972298800945281982421875">
        <ele>3335.800048828125</ele>
        <time>2021-06-25T17:08:25.000Z</time>
        <extensions>
          <ns3:TrackPointExtension>
            <ns3:atemp>27.0</ns3:atemp>
            <ns3:hr>123</ns3:hr>
          </ns3:TrackPointExtension>
        </extensions>
      </trkpt>
      <trkpt lat="36.7692699842154979705810546875" lon="-118.42869420535862445831298828125">
        <ele>3337</ele>
        <time>2021-06-25T17:08:33.000Z</time>
        <extensions>
          <ns3:TrackPointExtension>
            <ns3:atemp>27.0</ns3:atemp>
            <ns3:hr>123</ns3:hr>
          </ns3:TrackPointExtension>
        </extensions>
      </trkpt>
      <trkpt lat="36.7692699842154979705810546875" lon="-118.4287190996110439300537109375">
        <ele>3338.199951171875</ele>
        <time>2021-06-25T17:08:38.000Z</time>
        <extensions>
          <ns3:TrackPointExtension>
            <ns3:atemp>27.0</ns3:atemp>
            <ns3:hr>124</ns3:hr>
          </ns3:TrackPointExtension>
        </extensions>
      </trkpt>
      <trkpt lat="36.7692642845213413238525390625" lon="-118.42874667607247829437255859375">
        <ele>3339.199951171875</ele>
        <time>2021-06-25T17:08:46.000Z</time>
        <extensions>
          <ns3:TrackPointExtension>
            <ns3:atemp>27.0</ns3:atemp>
            <ns3:hr>125</ns3:hr>
          </ns3:TrackPointExtension>
        </extensions>
      </trkpt>
      <trkpt lat="36.76925766281783580780029296875" lon="-118.428783975541591644287109375">
        <ele>3340.39990234375</ele>
        <time>2021-06-25T17:08:54.000Z</time>
        <extensions>
          <ns3:TrackPointExtension>
            <ns3:atemp>27.0</ns3:atemp>
            <ns3:hr>124</ns3:hr>
          </ns3:TrackPointExtension>
        </extensions>
      </trkpt>
      <trkpt lat="36.76925682462751865386962890625" lon="-118.42884290032088756561279296875">
        <ele>3341.39990234375</ele>
        <time>2021-06-25T17:09:01.000Z</time>
        <extensions>
          <ns3:TrackPointExtension>
            <ns3:atemp>27.0</ns3:atemp>
            <ns3:hr>121</ns3:hr>
          </ns3:TrackPointExtension>
        </extensions>
      </trkpt>
      <trkpt lat="36.769263111054897308349609375" lon="-118.42889092862606048583984375">
        <ele>3342.60009765625</ele>
        <time>2021-06-25T17:09:08.000Z</time>
        <extensions>
          <ns3:TrackPointExtension>
            <ns3:atemp>27.0</ns3:atemp>
            <ns3:hr>123</ns3:hr>
          </ns3:TrackPointExtension>
        </extensions>
      </trkpt>
      <trkpt lat="36.7692676372826099395751953125" lon="-118.42890459112823009490966796875">
        <ele>3343.60009765625</ele>
        <time>2021-06-25T17:09:13.000Z</time>
        <extensions>
          <ns3:TrackPointExtension>
            <ns3:atemp>27.0</ns3:atemp>
            <ns3:hr>123</ns3:hr>
          </ns3:TrackPointExtension>
        </extensions>
      </trkpt>
      <trkpt lat="36.7692760191857814788818359375" lon="-118.4289360232651233673095703125">
        <ele>3344.199951171875</ele>
        <time>2021-06-25T17:09:20.000Z</time>
        <extensions>
          <ns3:TrackPointExtension>
            <ns3:atemp>27.0</ns3:atemp>
            <ns3:hr>126</ns3:hr>
          </ns3:TrackPointExtension>
        </extensions>
      </trkpt>
      <trkpt lat="36.76927794702351093292236328125" lon="-118.42894189059734344482421875">
        <ele>3344.800048828125</ele>
        <time>2021-06-25T17:09:21.000Z</time>
        <extensions>
          <ns3:TrackPointExtension>
            <ns3:atemp>27.0</ns3:atemp>
            <ns3:hr>126</ns3:hr>
          </ns3:TrackPointExtension>
        </extensions>
      </trkpt>
      <trkpt lat="36.76928197033703327178955078125" lon="-118.42895664274692535400390625">
        <ele>3345</ele>
        <time>2021-06-25T17:09:24.000Z</time>
        <extensions>
          <ns3:TrackPointExtension>
            <ns3:atemp>27.0</ns3:atemp>
            <ns3:hr>129</ns3:hr>
          </ns3:TrackPointExtension>
        </extensions>
      </trkpt>
      <trkpt lat="36.769285909831523895263671875" lon="-118.428979776799678802490234375">
        <ele>3346</ele>
        <time>2021-06-25T17:09:28.000Z</time>
        <extensions>
          <ns3:TrackPointExtension>
            <ns3:atemp>27.0</ns3:atemp>
            <ns3:hr>129</ns3:hr>
          </ns3:TrackPointExtension>
        </extensions>
      </trkpt>
      <trkpt lat="36.76932312548160552978515625" lon="-118.429040797054767608642578125">
        <ele>3347.199951171875</ele>
        <time>2021-06-25T17:09:38.000Z</time>
        <extensions>
          <ns3:TrackPointExtension>
            <ns3:atemp>27.0</ns3:atemp>
            <ns3:hr>127</ns3:hr>
          </ns3:TrackPointExtension>
        </extensions>
      </trkpt>
      <trkpt lat="36.76932513713836669921875" lon="-118.4290439821779727935791015625">
        <ele>3347.60009765625</ele>
        <time>2021-06-25T17:09:39.000Z</time>
        <extensions>
          <ns3:TrackPointExtension>
            <ns3:atemp>26.0</ns3:atemp>
            <ns3:hr>130</ns3:hr>
          </ns3:TrackPointExtension>
        </extensions>
      </trkpt>
      <trkpt lat="36.76932706497609615325927734375" lon="-118.42905060388147830963134765625">
        <ele>3347.60009765625</ele>
        <time>2021-06-25T17:09:41.000Z</time>
        <extensions>
          <ns3:TrackPointExtension>
            <ns3:atemp>26.0</ns3:atemp>
            <ns3:hr>127</ns3:hr>
          </ns3:TrackPointExtension>
        </extensions>
      </trkpt>
      <trkpt lat="36.76932957954704761505126953125" lon="-118.42907105572521686553955078125">
        <ele>3348.39990234375</ele>
        <time>2021-06-25T17:09:48.000Z</time>
        <extensions>
          <ns3:TrackPointExtension>
            <ns3:atemp>26.0</ns3:atemp>
            <ns3:hr>124</ns3:hr>
          </ns3:TrackPointExtension>
        </extensions>
      </trkpt>
      <trkpt lat="36.7693296633660793304443359375" lon="-118.429074324667453765869140625">
        <ele>3348.60009765625</ele>
        <time>2021-06-25T17:09:49.000Z</time>
        <extensions>
          <ns3:TrackPointExtension>
            <ns3:atemp>26.0</ns3:atemp>
            <ns3:hr>123</ns3:hr>
          </ns3:TrackPointExtension>
        </extensions>
      </trkpt>
      <trkpt lat="36.76933008246123790740966796875" lon="-118.42908379621803760528564453125">
        <ele>3348.800048828125</ele>
        <time>2021-06-25T17:09:51.000Z</time>
        <extensions>
          <ns3:TrackPointExtension>
            <ns3:atemp>26.0</ns3:atemp>
            <ns3:hr>120</ns3:hr>
          </ns3:TrackPointExtension>
        </extensions>
      </trkpt>
      <trkpt lat="36.7693306691944599151611328125" lon="-118.4290996380150318145751953125">
        <ele>3348.800048828125</ele>
        <time>2021-06-25T17:09:54.000Z</time>
        <extensions>
          <ns3:TrackPointExtension>
            <ns3:atemp>26.0</ns3:atemp>
            <ns3:hr>116</ns3:hr>
          </ns3:TrackPointExtension>
        </extensions>
      </trkpt>
      <trkpt lat="36.76934081129729747772216796875" lon="-118.42919326387345790863037109375">
        <ele>3348.800048828125</ele>
        <time>2021-06-25T17:10:03.000Z</time>
        <extensions>
          <ns3:TrackPointExtension>
            <ns3:atemp>26.0</ns3:atemp>
            <ns3:hr>116</ns3:hr>
          </ns3:TrackPointExtension>
        </extensions>
      </trkpt>
      <trkpt lat="36.76936059258878231048583984375" lon="-118.4292676113545894622802734375">
        <ele>3349.39990234375</ele>
        <time>2021-06-25T17:10:08.000Z</time>
        <extensions>
          <ns3:TrackPointExtension>
            <ns3:atemp>26.0</ns3:atemp>
            <ns3:hr>115</ns3:hr>
          </ns3:TrackPointExtension>
        </extensions>
      </trkpt>
      <trkpt lat="36.76938121207058429718017578125" lon="-118.42928663827478885650634765625">
        <ele>3349.60009765625</ele>
        <time>2021-06-25T17:10:10.000Z</time>
        <extensions>
          <ns3:TrackPointExtension>
            <ns3:atemp>26.0</ns3:atemp>
            <ns3:hr>114</ns3:hr>
          </ns3:TrackPointExtension>
        </extensions>
      </trkpt>
      <trkpt lat="36.76939462311565876007080078125" lon="-118.42931966297328472137451171875">
        <ele>3349.800048828125</ele>
        <time>2021-06-25T17:10:13.000Z</time>
        <extensions>
          <ns3:TrackPointExtension>
            <ns3:atemp>26.0</ns3:atemp>
            <ns3:hr>117</ns3:hr>
          </ns3:TrackPointExtension>
        </extensions>
      </trkpt>
      <trkpt lat="36.7693893425166606903076171875" lon="-118.42936098575592041015625">
        <ele>3350</ele>
        <time>2021-06-25T17:10:19.000Z</time>
        <extensions>
          <ns3:TrackPointExtension>
            <ns3:atemp>26.0</ns3:atemp>
            <ns3:hr>115</ns3:hr>
          </ns3:TrackPointExtension>
        </extensions>
      </trkpt>
      <trkpt lat="36.76938523538410663604736328125" lon="-118.42937330715358257293701171875">
        <ele>3350</ele>
        <time>2021-06-25T17:10:20.000Z</time>
        <extensions>
          <ns3:TrackPointExtension>
            <ns3:atemp>26.0</ns3:atemp>
            <ns3:hr>115</ns3:hr>
          </ns3:TrackPointExtension>
        </extensions>
      </trkpt>
      <trkpt lat="36.769408285617828369140625" lon="-118.429404906928539276123046875">
        <ele>3350</ele>
        <time>2021-06-25T17:10:22.000Z</time>
        <extensions>
          <ns3:TrackPointExtension>
            <ns3:atemp>26.0</ns3:atemp>
            <ns3:hr>115</ns3:hr>
          </ns3:TrackPointExtension>
        </extensions>
      </trkpt>
      <trkpt lat="36.76944474689662456512451171875" lon="-118.42942913062870502471923828125">
        <ele>3350.39990234375</ele>
        <time>2021-06-25T17:10:26.000Z</time>
        <extensions>
          <ns3:TrackPointExtension>
            <ns3:atemp>26.0</ns3:atemp>
            <ns3:hr>115</ns3:hr>
          </ns3:TrackPointExtension>
        </extensions>
      </trkpt>
      <trkpt lat="36.76944742910563945770263671875" lon="-118.42943868599832057952880859375">
        <ele>3350.39990234375</ele>
        <time>2021-06-25T17:10:27.000Z</time>
        <extensions>
          <ns3:TrackPointExtension>
            <ns3:atemp>26.0</ns3:atemp>
            <ns3:hr>115</ns3:hr>
          </ns3:TrackPointExtension>
        </extensions>
      </trkpt>
      <trkpt lat="36.7694486863911151885986328125" lon="-118.42947539873421192169189453125">
        <ele>3350.60009765625</ele>
        <time>2021-06-25T17:10:30.000Z</time>
        <extensions>
          <ns3:TrackPointExtension>
            <ns3:atemp>26.0</ns3:atemp>
            <ns3:hr>114</ns3:hr>
          </ns3:TrackPointExtension>
        </extensions>
      </trkpt>
      <trkpt lat="36.76944826729595661163330078125" lon="-118.42950423248112201690673828125">
        <ele>3350.800048828125</ele>
        <time>2021-06-25T17:10:33.000Z</time>
        <extensions>
          <ns3:TrackPointExtension>
            <ns3:atemp>26.0</ns3:atemp>
            <ns3:hr>111</ns3:hr>
          </ns3:TrackPointExtension>
        </extensions>
      </trkpt>
      <trkpt lat="36.76946788094937801361083984375" lon="-118.4295462258160114288330078125">
        <ele>3350.60009765625</ele>
        <time>2021-06-25T17:10:36.000Z</time>
        <extensions>
          <ns3:TrackPointExtension>
            <ns3:atemp>26.0</ns3:atemp>
            <ns3:hr>108</ns3:hr>
          </ns3:TrackPointExtension>
        </extensions>
      </trkpt>
      <trkpt lat="36.7694818787276744842529296875" lon="-118.42955653555691242218017578125">
        <ele>3350.800048828125</ele>
        <time>2021-06-25T17:10:38.000Z</time>
        <extensions>
          <ns3:TrackPointExtension>
            <ns3:atemp>26.0</ns3:atemp>
            <ns3:hr>107</ns3:hr>
          </ns3:TrackPointExtension>
        </extensions>
      </trkpt>
      <trkpt lat="36.76949352957308292388916015625" lon="-118.42957891523838043212890625">
        <ele>3350.60009765625</ele>
        <time>2021-06-25T17:10:40.000Z</time>
        <extensions>
          <ns3:TrackPointExtension>
            <ns3:atemp>26.0</ns3:atemp>
            <ns3:hr>106</ns3:hr>
          </ns3:TrackPointExtension>
        </extensions>
      </trkpt>
      <trkpt lat="36.76949319429695606231689453125" lon="-118.42958402819931507110595703125">
        <ele>3350.60009765625</ele>
        <time>2021-06-25T17:10:41.000Z</time>
        <extensions>
          <ns3:TrackPointExtension>
            <ns3:atemp>26.0</ns3:atemp>
            <ns3:hr>109</ns3:hr>
          </ns3:TrackPointExtension>
        </extensions>
      </trkpt>
      <trkpt lat="36.7694959603250026702880859375" lon="-118.4295918233692646026611328125">
        <ele>3350.60009765625</ele>
        <time>2021-06-25T17:10:42.000Z</time>
        <extensions>
          <ns3:TrackPointExtension>
            <ns3:atemp>26.0</ns3:atemp>
            <ns3:hr>109</ns3:hr>
          </ns3:TrackPointExtension>
        </extensions>
      </trkpt>
      <trkpt lat="36.7694942839443683624267578125" lon="-118.42962727881968021392822265625">
        <ele>3350.60009765625</ele>
        <time>2021-06-25T17:10:44.000Z</time>
        <extensions>
          <ns3:TrackPointExtension>
            <ns3:atemp>26.0</ns3:atemp>
            <ns3:hr>106</ns3:hr>
          </ns3:TrackPointExtension>
        </extensions>
      </trkpt>
      <trkpt lat="36.76949570886790752410888671875" lon="-118.4296686016023159027099609375">
        <ele>3350.60009765625</ele>
        <time>2021-06-25T17:10:46.000Z</time>
        <extensions>
          <ns3:TrackPointExtension>
            <ns3:atemp>26.0</ns3:atemp>
            <ns3:hr>109</ns3:hr>
          </ns3:TrackPointExtension>
        </extensions>
      </trkpt>
      <trkpt lat="36.76950073800981044769287109375" lon="-118.42967757023870944976806640625">
        <ele>3350.60009765625</ele>
        <time>2021-06-25T17:10:47.000Z</time>
        <extensions>
          <ns3:TrackPointExtension>
            <ns3:atemp>26.0</ns3:atemp>
            <ns3:hr>105</ns3:hr>
          </ns3:TrackPointExtension>
        </extensions>
      </trkpt>
      <trkpt lat="36.7695115506649017333984375" lon="-118.42968980781733989715576171875">
        <ele>3350.199951171875</ele>
        <time>2021-06-25T17:10:48.000Z</time>
        <extensions>
          <ns3:TrackPointExtension>
            <ns3:atemp>26.0</ns3:atemp>
            <ns3:hr>105</ns3:hr>
          </ns3:TrackPointExtension>
        </extensions>
      </trkpt>
      <trkpt lat="36.76951062865555286407470703125" lon="-118.42970305122435092926025390625">
        <ele>3350.39990234375</ele>
        <time>2021-06-25T17:10:51.000Z</time>
        <extensions>
          <ns3:TrackPointExtension>
            <ns3:atemp>26.0</ns3:atemp>
            <ns3:hr>106</ns3:hr>
          </ns3:TrackPointExtension>
        </extensions>
      </trkpt>
      <trkpt lat="36.76953929476439952850341796875" lon="-118.4297557733952999114990234375">
        <ele>3350.199951171875</ele>
        <time>2021-06-25T17:10:54.000Z</time>
        <extensions>
          <ns3:TrackPointExtension>
            <ns3:atemp>26.0</ns3:atemp>
            <ns3:hr>106</ns3:hr>
          </ns3:TrackPointExtension>
        </extensions>
      </trkpt>
      <trkpt lat="36.76953971385955810546875" lon="-118.42976868152618408203125">
        <ele>3350.39990234375</ele>
        <time>2021-06-25T17:10:55.000Z</time>
        <extensions>
          <ns3:TrackPointExtension>
            <ns3:atemp>26.0</ns3:atemp>
            <ns3:hr>103</ns3:hr>
          </ns3:TrackPointExtension>
        </extensions>
      </trkpt>
      <trkpt lat="36.76954977214336395263671875" lon="-118.42979483306407928466796875">
        <ele>3350</ele>
        <time>2021-06-25T17:10:57.000Z</time>
        <extensions>
          <ns3:TrackPointExtension>
            <ns3:atemp>26.0</ns3:atemp>
            <ns3:hr>104</ns3:hr>
          </ns3:TrackPointExtension>
        </extensions>
      </trkpt>
      <trkpt lat="36.7695385403931140899658203125" lon="-118.4298057295382022857666015625">
        <ele>3350</ele>
        <time>2021-06-25T17:10:58.000Z</time>
        <extensions>
          <ns3:TrackPointExtension>
            <ns3:atemp>26.0</ns3:atemp>
            <ns3:hr>105</ns3:hr>
          </ns3:TrackPointExtension>
        </extensions>
      </trkpt>
      <trkpt lat="36.76959268748760223388671875" lon="-118.42988829128444194793701171875">
        <ele>3350</ele>
        <time>2021-06-25T17:11:04.000Z</time>
        <extensions>
          <ns3:TrackPointExtension>
            <ns3:atemp>26.0</ns3:atemp>
            <ns3:hr>102</ns3:hr>
          </ns3:TrackPointExtension>
        </extensions>
      </trkpt>
      <trkpt lat="36.76960718818008899688720703125" lon="-118.42990036122500896453857421875">
        <ele>3349.800048828125</ele>
        <time>2021-06-25T17:11:06.000Z</time>
        <extensions>
          <ns3:TrackPointExtension>
            <ns3:atemp>26.0</ns3:atemp>
            <ns3:hr>102</ns3:hr>
          </ns3:TrackPointExtension>
        </extensions>
      </trkpt>
      <trkpt lat="36.76961406134068965911865234375" lon="-118.42992701567709445953369140625">
        <ele>3349.39990234375</ele>
        <time>2021-06-25T17:11:09.000Z</time>
        <extensions>
          <ns3:TrackPointExtension>
            <ns3:atemp>26.0</ns3:atemp>
            <ns3:hr>103</ns3:hr>
          </ns3:TrackPointExtension>
        </extensions>
      </trkpt>
      <trkpt lat="36.7696086131036281585693359375" lon="-118.42994931153953075408935546875">
        <ele>3349.199951171875</ele>
        <time>2021-06-25T17:11:14.000Z</time>
        <extensions>
          <ns3:TrackPointExtension>
            <ns3:atemp>26.0</ns3:atemp>
            <ns3:hr>103</ns3:hr>
          </ns3:TrackPointExtension>
        </extensions>
      </trkpt>
      <trkpt lat="36.76960718818008899688720703125" lon="-118.429962806403636932373046875">
        <ele>3349.199951171875</ele>
        <time>2021-06-25T17:11:17.000Z</time>
        <extensions>
          <ns3:TrackPointExtension>
            <ns3:atemp>26.0</ns3:atemp>
            <ns3:hr>100</ns3:hr>
          </ns3:TrackPointExtension>
        </extensions>
      </trkpt>
      <trkpt lat="36.76961540244519710540771484375" lon="-118.42997361905872821807861328125">
        <ele>3349.800048828125</ele>
        <time>2021-06-25T17:11:18.000Z</time>
        <extensions>
          <ns3:TrackPointExtension>
            <ns3:atemp>26.0</ns3:atemp>
            <ns3:hr>103</ns3:hr>
          </ns3:TrackPointExtension>
        </extensions>
      </trkpt>
      <trkpt lat="36.769623868167400360107421875" lon="-118.43000563792884349822998046875">
        <ele>3350</ele>
        <time>2021-06-25T17:11:21.000Z</time>
        <extensions>
          <ns3:TrackPointExtension>
            <ns3:atemp>26.0</ns3:atemp>
            <ns3:hr>103</ns3:hr>
          </ns3:TrackPointExtension>
        </extensions>
      </trkpt>
      <trkpt lat="36.769644320011138916015625" lon="-118.43005509115755558013916015625">
        <ele>3350.39990234375</ele>
        <time>2021-06-25T17:11:24.000Z</time>
        <extensions>
          <ns3:TrackPointExtension>
            <ns3:atemp>26.0</ns3:atemp>
            <ns3:hr>101</ns3:hr>
          </ns3:TrackPointExtension>
        </extensions>
      </trkpt>
      <trkpt lat="36.76965865306556224822998046875" lon="-118.4300903789699077606201171875">
        <ele>3351.199951171875</ele>
        <time>2021-06-25T17:11:28.000Z</time>
        <extensions>
          <ns3:TrackPointExtension>
            <ns3:atemp>26.0</ns3:atemp>
            <ns3:hr>104</ns3:hr>
          </ns3:TrackPointExtension>
        </extensions>
      </trkpt>
      <trkpt lat="36.7696662805974483489990234375" lon="-118.43009364791214466094970703125">
        <ele>3351.800048828125</ele>
        <time>2021-06-25T17:11:30.000Z</time>
        <extensions>
          <ns3:TrackPointExtension>
            <ns3:atemp>26.0</ns3:atemp>
            <ns3:hr>106</ns3:hr>
          </ns3:TrackPointExtension>
        </extensions>
      </trkpt>
      <trkpt lat="36.76967860199511051177978515625" lon="-118.43010823242366313934326171875">
        <ele>3352.199951171875</ele>
        <time>2021-06-25T17:11:32.000Z</time>
        <extensions>
          <ns3:TrackPointExtension>
            <ns3:atemp>26.0</ns3:atemp>
            <ns3:hr>106</ns3:hr>
          </ns3:TrackPointExtension>
        </extensions>
      </trkpt>
      <trkpt lat="36.769689582288265228271484375" lon="-118.43011041171848773956298828125">
        <ele>3352.800048828125</ele>
        <time>2021-06-25T17:11:34.000Z</time>
        <extensions>
          <ns3:TrackPointExtension>
            <ns3:atemp>26.0</ns3:atemp>
            <ns3:hr>105</ns3:hr>
          </ns3:TrackPointExtension>
        </extensions>
      </trkpt>
      <trkpt lat="36.76969637162983417510986328125" lon="-118.4301235713064670562744140625">
        <ele>3353</ele>
        <time>2021-06-25T17:11:37.000Z</time>
        <extensions>
          <ns3:TrackPointExtension>
            <ns3:atemp>26.0</ns3:atemp>
            <ns3:hr>106</ns3:hr>
          </ns3:TrackPointExtension>
        </extensions>
      </trkpt>
      <trkpt lat="36.76968597806990146636962890625" lon="-118.43014678917825222015380859375">
        <ele>3353.39990234375</ele>
        <time>2021-06-25T17:11:39.000Z</time>
        <extensions>
          <ns3:TrackPointExtension>
            <ns3:atemp>26.0</ns3:atemp>
            <ns3:hr>106</ns3:hr>
          </ns3:TrackPointExtension>
        </extensions>
      </trkpt>
      <trkpt lat="36.76968262530863285064697265625" lon="-118.4301691688597202301025390625">
        <ele>3353.800048828125</ele>
        <time>2021-06-25T17:11:41.000Z</time>
        <extensions>
          <ns3:TrackPointExtension>
            <ns3:atemp>26.0</ns3:atemp>
            <ns3:hr>107</ns3:hr>
          </ns3:TrackPointExtension>
        </extensions>
      </trkpt>
      <trkpt lat="36.76968078128993511199951171875" lon="-118.43017847277224063873291015625">
        <ele>3354.199951171875</ele>
        <time>2021-06-25T17:11:43.000Z</time>
        <extensions>
          <ns3:TrackPointExtension>
            <ns3:atemp>26.0</ns3:atemp>
            <ns3:hr>109</ns3:hr>
          </ns3:TrackPointExtension>
        </extensions>
      </trkpt>
      <trkpt lat="36.7696863971650600433349609375" lon="-118.43019356019794940948486328125">
        <ele>3354.39990234375</ele>
        <time>2021-06-25T17:11:45.000Z</time>
        <extensions>
          <ns3:TrackPointExtension>
            <ns3:atemp>26.0</ns3:atemp>
            <ns3:hr>110</ns3:hr>
          </ns3:TrackPointExtension>
        </extensions>
      </trkpt>
      <trkpt lat="36.7696897499263286590576171875" lon="-118.4302003495395183563232421875">
        <ele>3354.60009765625</ele>
        <time>2021-06-25T17:11:48.000Z</time>
        <extensions>
          <ns3:TrackPointExtension>
            <ns3:atemp>26.0</ns3:atemp>
            <ns3:hr>111</ns3:hr>
          </ns3:TrackPointExtension>
        </extensions>
      </trkpt>
      <trkpt lat="36.76968899555504322052001953125" lon="-118.43019708059728145599365234375">
        <ele>3354.60009765625</ele>
        <time>2021-06-25T17:11:50.000Z</time>
        <extensions>
          <ns3:TrackPointExtension>
            <ns3:atemp>26.0</ns3:atemp>
            <ns3:hr>112</ns3:hr>
          </ns3:TrackPointExtension>
        </extensions>
      </trkpt>
      <trkpt lat="36.76968966610729694366455078125" lon="-118.43020194210112094879150390625">
        <ele>3354.800048828125</ele>
        <time>2021-06-25T17:11:51.000Z</time>
        <extensions>
          <ns3:TrackPointExtension>
            <ns3:atemp>26.0</ns3:atemp>
            <ns3:hr>112</ns3:hr>
          </ns3:TrackPointExtension>
        </extensions>
      </trkpt>
      <trkpt lat="36.769693605601787567138671875" lon="-118.4302099049091339111328125">
        <ele>3355</ele>
        <time>2021-06-25T17:11:53.000Z</time>
        <extensions>
          <ns3:TrackPointExtension>
            <ns3:atemp>26.0</ns3:atemp>
            <ns3:hr>112</ns3:hr>
          </ns3:TrackPointExtension>
        </extensions>
      </trkpt>
      <trkpt lat="36.7696783505380153656005859375" lon="-118.43023228459060192108154296875">
        <ele>3355.800048828125</ele>
        <time>2021-06-25T17:12:00.000Z</time>
        <extensions>
          <ns3:TrackPointExtension>
            <ns3:atemp>26.0</ns3:atemp>
            <ns3:hr>113</ns3:hr>
          </ns3:TrackPointExtension>
        </extensions>
      </trkpt>
      <trkpt lat="36.7696518637239933013916015625" lon="-118.4302583523094654083251953125">
        <ele>3356.39990234375</ele>
        <time>2021-06-25T17:12:04.000Z</time>
        <extensions>
          <ns3:TrackPointExtension>
            <ns3:atemp>26.0</ns3:atemp>
            <ns3:hr>114</ns3:hr>
          </ns3:TrackPointExtension>
        </extensions>
      </trkpt>
      <trkpt lat="36.76964633166790008544921875" lon="-118.4302581846714019775390625">
        <ele>3356.39990234375</ele>
        <time>2021-06-25T17:12:05.000Z</time>
        <extensions>
          <ns3:TrackPointExtension>
            <ns3:atemp>26.0</ns3:atemp>
            <ns3:hr>115</ns3:hr>
          </ns3:TrackPointExtension>
        </extensions>
      </trkpt>
      <trkpt lat="36.76960014738142490386962890625" lon="-118.430259190499782562255859375">
        <ele>3356.60009765625</ele>
        <time>2021-06-25T17:12:08.000Z</time>
        <extensions>
          <ns3:TrackPointExtension>
            <ns3:atemp>26.0</ns3:atemp>
            <ns3:hr>115</ns3:hr>
          </ns3:TrackPointExtension>
        </extensions>
      </trkpt>
      <trkpt lat="36.7696188390254974365234375" lon="-118.4302890300750732421875">
        <ele>3356.800048828125</ele>
        <time>2021-06-25T17:12:12.000Z</time>
        <extensions>
          <ns3:TrackPointExtension>
            <ns3:atemp>26.0</ns3:atemp>
            <ns3:hr>112</ns3:hr>
          </ns3:TrackPointExtension>
        </extensions>
      </trkpt>
      <trkpt lat="36.7696340940892696380615234375" lon="-118.43032591044902801513671875">
        <ele>3356.800048828125</ele>
        <time>2021-06-25T17:12:13.000Z</time>
        <extensions>
          <ns3:TrackPointExtension>
            <ns3:atemp>26.0</ns3:atemp>
            <ns3:hr>111</ns3:hr>
          </ns3:TrackPointExtension>
        </extensions>
      </trkpt>
      <trkpt lat="36.76964440383017063140869140625" lon="-118.430389277637004852294921875">
        <ele>3357</ele>
        <time>2021-06-25T17:12:18.000Z</time>
        <extensions>
          <ns3:TrackPointExtension>
            <ns3:atemp>26.0</ns3:atemp>
            <ns3:hr>109</ns3:hr>
          </ns3:TrackPointExtension>
        </extensions>
      </trkpt>
      <trkpt lat="36.76961808465421199798583984375" lon="-118.43042171560227870941162109375">
        <ele>3357.39990234375</ele>
        <time>2021-06-25T17:12:24.000Z</time>
        <extensions>
          <ns3:TrackPointExtension>
            <ns3:atemp>26.0</ns3:atemp>
            <ns3:hr>110</ns3:hr>
          </ns3:TrackPointExtension>
        </extensions>
      </trkpt>
      <trkpt lat="36.76962462253868579864501953125" lon="-118.43045675195753574371337890625">
        <ele>3357.60009765625</ele>
        <time>2021-06-25T17:12:27.000Z</time>
        <extensions>
          <ns3:TrackPointExtension>
            <ns3:atemp>26.0</ns3:atemp>
            <ns3:hr>112</ns3:hr>
          </ns3:TrackPointExtension>
        </extensions>
      </trkpt>
      <trkpt lat="36.7696407996118068695068359375" lon="-118.4304974041879177093505859375">
        <ele>3357.800048828125</ele>
        <time>2021-06-25T17:12:30.000Z</time>
        <extensions>
          <ns3:TrackPointExtension>
            <ns3:atemp>26.0</ns3:atemp>
            <ns3:hr>115</ns3:hr>
          </ns3:TrackPointExtension>
        </extensions>
      </trkpt>
      <trkpt lat="36.769651360809803009033203125" lon="-118.430564291775226593017578125">
        <ele>3358.39990234375</ele>
        <time>2021-06-25T17:12:38.000Z</time>
        <extensions>
          <ns3:TrackPointExtension>
            <ns3:atemp>26.0</ns3:atemp>
            <ns3:hr>114</ns3:hr>
          </ns3:TrackPointExtension>
        </extensions>
      </trkpt>
      <trkpt lat="36.769666112959384918212890625" lon="-118.43058717437088489532470703125">
        <ele>3358.39990234375</ele>
        <time>2021-06-25T17:12:40.000Z</time>
        <extensions>
          <ns3:TrackPointExtension>
            <ns3:atemp>26.0</ns3:atemp>
            <ns3:hr>111</ns3:hr>
          </ns3:TrackPointExtension>
        </extensions>
      </trkpt>
      <trkpt lat="36.769682876765727996826171875" lon="-118.43061064369976520538330078125">
        <ele>3358.60009765625</ele>
        <time>2021-06-25T17:12:42.000Z</time>
        <extensions>
          <ns3:TrackPointExtension>
            <ns3:atemp>26.0</ns3:atemp>
            <ns3:hr>107</ns3:hr>
          </ns3:TrackPointExtension>
        </extensions>
      </trkpt>
      <trkpt lat="36.76968983374536037445068359375" lon="-118.43062723986804485321044921875">
        <ele>3358.60009765625</ele>
        <time>2021-06-25T17:12:44.000Z</time>
        <extensions>
          <ns3:TrackPointExtension>
            <ns3:atemp>26.0</ns3:atemp>
            <ns3:hr>104</ns3:hr>
          </ns3:TrackPointExtension>
        </extensions>
      </trkpt>
      <trkpt lat="36.76969435997307300567626953125" lon="-118.43064534477889537811279296875">
        <ele>3359</ele>
        <time>2021-06-25T17:12:46.000Z</time>
        <extensions>
          <ns3:TrackPointExtension>
            <ns3:atemp>26.0</ns3:atemp>
            <ns3:hr>102</ns3:hr>
          </ns3:TrackPointExtension>
        </extensions>
      </trkpt>
      <trkpt lat="36.76969871856272220611572265625" lon="-118.4306626953184604644775390625">
        <ele>3359.60009765625</ele>
        <time>2021-06-25T17:12:48.000Z</time>
        <extensions>
          <ns3:TrackPointExtension>
            <ns3:atemp>26.0</ns3:atemp>
            <ns3:hr>101</ns3:hr>
          </ns3:TrackPointExtension>
        </extensions>
      </trkpt>
      <trkpt lat="36.76970492117106914520263671875" lon="-118.4306948818266391754150390625">
        <ele>3359.60009765625</ele>
        <time>2021-06-25T17:12:51.000Z</time>
        <extensions>
          <ns3:TrackPointExtension>
            <ns3:atemp>26.0</ns3:atemp>
            <ns3:hr>101</ns3:hr>
          </ns3:TrackPointExtension>
        </extensions>
      </trkpt>
      <trkpt lat="36.76970542408525943756103515625" lon="-118.430704772472381591796875">
        <ele>3359.60009765625</ele>
        <time>2021-06-25T17:12:53.000Z</time>
        <extensions>
          <ns3:TrackPointExtension>
            <ns3:atemp>26.0</ns3:atemp>
            <ns3:hr>101</ns3:hr>
          </ns3:TrackPointExtension>
        </extensions>
      </trkpt>
      <trkpt lat="36.76970408298075199127197265625" lon="-118.43071172945201396942138671875">
        <ele>3359.60009765625</ele>
        <time>2021-06-25T17:12:54.000Z</time>
        <extensions>
          <ns3:TrackPointExtension>
            <ns3:atemp>26.0</ns3:atemp>
            <ns3:hr>101</ns3:hr>
          </ns3:TrackPointExtension>
        </extensions>
      </trkpt>
      <trkpt lat="36.7697073519229888916015625" lon="-118.430743999779224395751953125">
        <ele>3360</ele>
        <time>2021-06-25T17:12:58.000Z</time>
        <extensions>
          <ns3:TrackPointExtension>
            <ns3:atemp>26.0</ns3:atemp>
            <ns3:hr>103</ns3:hr>
          </ns3:TrackPointExtension>
        </extensions>
      </trkpt>
      <trkpt lat="36.76971816457808017730712890625" lon="-118.4307807125151157379150390625">
        <ele>3360</ele>
        <time>2021-06-25T17:13:01.000Z</time>
        <extensions>
          <ns3:TrackPointExtension>
            <ns3:atemp>26.0</ns3:atemp>
            <ns3:hr>104</ns3:hr>
          </ns3:TrackPointExtension>
        </extensions>
      </trkpt>
      <trkpt lat="36.76972403191030025482177734375" lon="-118.43080024234950542449951171875">
        <ele>3360.199951171875</ele>
        <time>2021-06-25T17:13:03.000Z</time>
        <extensions>
          <ns3:TrackPointExtension>
            <ns3:atemp>26.0</ns3:atemp>
            <ns3:hr>104</ns3:hr>
          </ns3:TrackPointExtension>
        </extensions>
      </trkpt>
      <trkpt lat="36.76972771994769573211669921875" lon="-118.430807031691074371337890625">
        <ele>3360.199951171875</ele>
        <time>2021-06-25T17:13:04.000Z</time>
        <extensions>
          <ns3:TrackPointExtension>
            <ns3:atemp>26.0</ns3:atemp>
            <ns3:hr>104</ns3:hr>
          </ns3:TrackPointExtension>
        </extensions>
      </trkpt>
      <trkpt lat="36.76972872577607631683349609375" lon="-118.430811725556850433349609375">
        <ele>3360.60009765625</ele>
        <time>2021-06-25T17:13:05.000Z</time>
        <extensions>
          <ns3:TrackPointExtension>
            <ns3:atemp>26.0</ns3:atemp>
            <ns3:hr>103</ns3:hr>
          </ns3:TrackPointExtension>
        </extensions>
      </trkpt>
      <trkpt lat="36.769731156527996063232421875" lon="-118.43083527870476245880126953125">
        <ele>3360.60009765625</ele>
        <time>2021-06-25T17:13:09.000Z</time>
        <extensions>
          <ns3:TrackPointExtension>
            <ns3:atemp>26.0</ns3:atemp>
            <ns3:hr>103</ns3:hr>
          </ns3:TrackPointExtension>
        </extensions>
      </trkpt>
      <trkpt lat="36.7697373591363430023193359375" lon="-118.43085430562496185302734375">
        <ele>3360.60009765625</ele>
        <time>2021-06-25T17:13:11.000Z</time>
        <extensions>
          <ns3:TrackPointExtension>
            <ns3:atemp>26.0</ns3:atemp>
            <ns3:hr>100</ns3:hr>
          </ns3:TrackPointExtension>
        </extensions>
      </trkpt>
      <trkpt lat="36.76973978988826274871826171875" lon="-118.43086830340325832366943359375">
        <ele>3360.800048828125</ele>
        <time>2021-06-25T17:13:13.000Z</time>
        <extensions>
          <ns3:TrackPointExtension>
            <ns3:atemp>26.0</ns3:atemp>
            <ns3:hr>102</ns3:hr>
          </ns3:TrackPointExtension>
        </extensions>
      </trkpt>
      <trkpt lat="36.76974766887724399566650390625" lon="-118.430878780782222747802734375">
        <ele>3361</ele>
        <time>2021-06-25T17:13:14.000Z</time>
        <extensions>
          <ns3:TrackPointExtension>
            <ns3:atemp>26.0</ns3:atemp>
            <ns3:hr>102</ns3:hr>
          </ns3:TrackPointExtension>
        </extensions>
      </trkpt>
      <trkpt lat="36.769780106842517852783203125" lon="-118.43090015463531017303466796875">
        <ele>3361</ele>
        <time>2021-06-25T17:13:17.000Z</time>
        <extensions>
          <ns3:TrackPointExtension>
            <ns3:atemp>26.0</ns3:atemp>
            <ns3:hr>102</ns3:hr>
          </ns3:TrackPointExtension>
        </extensions>
      </trkpt>
      <trkpt lat="36.76983802579343318939208984375" lon="-118.430944494903087615966796875">
        <ele>3361</ele>
        <time>2021-06-25T17:13:24.000Z</time>
        <extensions>
          <ns3:TrackPointExtension>
            <ns3:atemp>26.0</ns3:atemp>
            <ns3:hr>102</ns3:hr>
          </ns3:TrackPointExtension>
        </extensions>
      </trkpt>
      <trkpt lat="36.76984037272632122039794921875" lon="-118.43095312826335430145263671875">
        <ele>3361</ele>
        <time>2021-06-25T17:13:25.000Z</time>
        <extensions>
          <ns3:TrackPointExtension>
            <ns3:atemp>26.0</ns3:atemp>
            <ns3:hr>103</ns3:hr>
          </ns3:TrackPointExtension>
        </extensions>
      </trkpt>
      <trkpt lat="36.76984523423016071319580078125" lon="-118.430966623127460479736328125">
        <ele>3361</ele>
        <time>2021-06-25T17:13:27.000Z</time>
        <extensions>
          <ns3:TrackPointExtension>
            <ns3:atemp>26.0</ns3:atemp>
            <ns3:hr>102</ns3:hr>
          </ns3:TrackPointExtension>
        </extensions>
      </trkpt>
      <trkpt lat="36.7698433063924312591552734375" lon="-118.43098397366702556610107421875">
        <ele>3360.60009765625</ele>
        <time>2021-06-25T17:13:31.000Z</time>
        <extensions>
          <ns3:TrackPointExtension>
            <ns3:atemp>26.0</ns3:atemp>
            <ns3:hr>99</ns3:hr>
          </ns3:TrackPointExtension>
        </extensions>
      </trkpt>
      <trkpt lat="36.769846491515636444091796875" lon="-118.43099185265600681304931640625">
        <ele>3360.60009765625</ele>
        <time>2021-06-25T17:13:32.000Z</time>
        <extensions>
          <ns3:TrackPointExtension>
            <ns3:atemp>26.0</ns3:atemp>
            <ns3:hr>98</ns3:hr>
          </ns3:TrackPointExtension>
        </extensions>
      </trkpt>
      <trkpt lat="36.76985361613333225250244140625" lon="-118.43102395534515380859375">
        <ele>3359.60009765625</ele>
        <time>2021-06-25T17:13:36.000Z</time>
        <extensions>
          <ns3:TrackPointExtension>
            <ns3:atemp>26.0</ns3:atemp>
            <ns3:hr>98</ns3:hr>
          </ns3:TrackPointExtension>
        </extensions>
      </trkpt>
      <trkpt lat="36.769867278635501861572265625" lon="-118.4310599975287914276123046875">
        <ele>3359.60009765625</ele>
        <time>2021-06-25T17:13:40.000Z</time>
        <extensions>
          <ns3:TrackPointExtension>
            <ns3:atemp>26.0</ns3:atemp>
            <ns3:hr>96</ns3:hr>
          </ns3:TrackPointExtension>
        </extensions>
      </trkpt>
      <trkpt lat="36.76989619620144367218017578125" lon="-118.43111188150942325592041015625">
        <ele>3359.60009765625</ele>
        <time>2021-06-25T17:13:49.000Z</time>
        <extensions>
          <ns3:TrackPointExtension>
            <ns3:atemp>26.0</ns3:atemp>
            <ns3:hr>96</ns3:hr>
          </ns3:TrackPointExtension>
        </extensions>
      </trkpt>
      <trkpt lat="36.76991580985486507415771484375" lon="-118.4311847202479839324951171875">
        <ele>3359</ele>
        <time>2021-06-25T17:13:58.000Z</time>
        <extensions>
          <ns3:TrackPointExtension>
            <ns3:atemp>26.0</ns3:atemp>
            <ns3:hr>98</ns3:hr>
          </ns3:TrackPointExtension>
        </extensions>
      </trkpt>
      <trkpt lat="36.7699690349400043487548828125" lon="-118.43126736581325531005859375">
        <ele>3359</ele>
        <time>2021-06-25T17:14:08.000Z</time>
        <extensions>
          <ns3:TrackPointExtension>
            <ns3:atemp>26.0</ns3:atemp>
            <ns3:hr>99</ns3:hr>
          </ns3:TrackPointExtension>
        </extensions>
      </trkpt>
      <trkpt lat="36.76997230388224124908447265625" lon="-118.4312739036977291107177734375">
        <ele>3359</ele>
        <time>2021-06-25T17:14:09.000Z</time>
        <extensions>
          <ns3:TrackPointExtension>
            <ns3:atemp>26.0</ns3:atemp>
            <ns3:hr>102</ns3:hr>
          </ns3:TrackPointExtension>
        </extensions>
      </trkpt>
      <trkpt lat="36.7699728906154632568359375" lon="-118.431289494037628173828125">
        <ele>3358.800048828125</ele>
        <time>2021-06-25T17:14:11.000Z</time>
        <extensions>
          <ns3:TrackPointExtension>
            <ns3:atemp>26.0</ns3:atemp>
            <ns3:hr>106</ns3:hr>
          </ns3:TrackPointExtension>
        </extensions>
      </trkpt>
      <trkpt lat="36.76997582428157329559326171875" lon="-118.43130013905465602874755859375">
        <ele>3358.800048828125</ele>
        <time>2021-06-25T17:14:13.000Z</time>
        <extensions>
          <ns3:TrackPointExtension>
            <ns3:atemp>26.0</ns3:atemp>
            <ns3:hr>109</ns3:hr>
          </ns3:TrackPointExtension>
        </extensions>
      </trkpt>
      <trkpt lat="36.76998554728925228118896484375" lon="-118.431303910911083221435546875">
        <ele>3358.800048828125</ele>
        <time>2021-06-25T17:14:16.000Z</time>
        <extensions>
          <ns3:TrackPointExtension>
            <ns3:atemp>26.0</ns3:atemp>
            <ns3:hr>107</ns3:hr>
          </ns3:TrackPointExtension>
        </extensions>
      </trkpt>
      <trkpt lat="36.770002059638500213623046875" lon="-118.43133039772510528564453125">
        <ele>3358.800048828125</ele>
        <time>2021-06-25T17:14:19.000Z</time>
        <extensions>
          <ns3:TrackPointExtension>
            <ns3:atemp>26.0</ns3:atemp>
            <ns3:hr>104</ns3:hr>
          </ns3:TrackPointExtension>
        </extensions>
      </trkpt>
      <trkpt lat="36.77003030665218830108642578125" lon="-118.4313446469604969024658203125">
        <ele>3358.60009765625</ele>
        <time>2021-06-25T17:14:23.000Z</time>
        <extensions>
          <ns3:TrackPointExtension>
            <ns3:atemp>26.0</ns3:atemp>
            <ns3:hr>102</ns3:hr>
          </ns3:TrackPointExtension>
        </extensions>
      </trkpt>
      <trkpt lat="36.7700558714568614959716796875" lon="-118.4313578903675079345703125">
        <ele>3359</ele>
        <time>2021-06-25T17:14:26.000Z</time>
        <extensions>
          <ns3:TrackPointExtension>
            <ns3:atemp>26.0</ns3:atemp>
            <ns3:hr>98</ns3:hr>
          </ns3:TrackPointExtension>
        </extensions>
      </trkpt>
      <trkpt lat="36.770069114863872528076171875" lon="-118.43135730363428592681884765625">
        <ele>3359.199951171875</ele>
        <time>2021-06-25T17:14:30.000Z</time>
        <extensions>
          <ns3:TrackPointExtension>
            <ns3:atemp>26.0</ns3:atemp>
            <ns3:hr>95</ns3:hr>
          </ns3:TrackPointExtension>
        </extensions>
      </trkpt>
      <trkpt lat="36.77006400190293788909912109375" lon="-118.43135361559689044952392578125">
        <ele>3359.199951171875</ele>
        <time>2021-06-25T17:14:31.000Z</time>
        <extensions>
          <ns3:TrackPointExtension>
            <ns3:atemp>26.0</ns3:atemp>
            <ns3:hr>95</ns3:hr>
          </ns3:TrackPointExtension>
        </extensions>
      </trkpt>
      <trkpt lat="36.7700759880244731903076171875" lon="-118.4313526935875415802001953125">
        <ele>3358.800048828125</ele>
        <time>2021-06-25T17:14:39.000Z</time>
        <extensions>
          <ns3:TrackPointExtension>
            <ns3:atemp>26.0</ns3:atemp>
            <ns3:hr>92</ns3:hr>
          </ns3:TrackPointExtension>
        </extensions>
      </trkpt>
      <trkpt lat="36.77007338963449001312255859375" lon="-118.43135395087301731109619140625">
        <ele>3358.800048828125</ele>
        <time>2021-06-25T17:14:40.000Z</time>
        <extensions>
          <ns3:TrackPointExtension>
            <ns3:atemp>26.0</ns3:atemp>
            <ns3:hr>91</ns3:hr>
          </ns3:TrackPointExtension>
        </extensions>
      </trkpt>
      <trkpt lat="36.77006877958774566650390625" lon="-118.43135696835815906524658203125">
        <ele>3358.800048828125</ele>
        <time>2021-06-25T17:14:43.000Z</time>
        <extensions>
          <ns3:TrackPointExtension>
            <ns3:atemp>26.0</ns3:atemp>
            <ns3:hr>88</ns3:hr>
          </ns3:TrackPointExtension>
        </extensions>
      </trkpt>
      <trkpt lat="36.770065762102603912353515625" lon="-118.431359566748142242431640625">
        <ele>3359.199951171875</ele>
        <time>2021-06-25T17:14:58.000Z</time>
        <extensions>
          <ns3:TrackPointExtension>
            <ns3:atemp>26.0</ns3:atemp>
            <ns3:hr>90</ns3:hr>
          </ns3:TrackPointExtension>
        </extensions>
      </trkpt>
      <trkpt lat="36.7700230143964290618896484375" lon="-118.4313664399087429046630859375">
        <ele>3359.199951171875</ele>
        <time>2021-06-25T17:15:25.000Z</time>
        <extensions>
          <ns3:TrackPointExtension>
            <ns3:atemp>26.0</ns3:atemp>
            <ns3:hr>87</ns3:hr>
          </ns3:TrackPointExtension>
        </extensions>
      </trkpt>
      <trkpt lat="36.77005059085786342620849609375" lon="-118.43137255869805812835693359375">
        <ele>3359.199951171875</ele>
        <time>2021-06-25T17:15:54.000Z</time>
        <extensions>
          <ns3:TrackPointExtension>
            <ns3:atemp>26.0</ns3:atemp>
            <ns3:hr>90</ns3:hr>
          </ns3:TrackPointExtension>
        </extensions>
      </trkpt>
      <trkpt lat="36.770053692162036895751953125" lon="-118.43137624673545360565185546875">
        <ele>3359.199951171875</ele>
        <time>2021-06-25T17:15:56.000Z</time>
        <extensions>
          <ns3:TrackPointExtension>
            <ns3:atemp>26.0</ns3:atemp>
            <ns3:hr>93</ns3:hr>
          </ns3:TrackPointExtension>
        </extensions>
      </trkpt>
      <trkpt lat="36.770058386027812957763671875" lon="-118.43137725256383419036865234375">
        <ele>3359.199951171875</ele>
        <time>2021-06-25T17:15:59.000Z</time>
        <extensions>
          <ns3:TrackPointExtension>
            <ns3:atemp>26.0</ns3:atemp>
            <ns3:hr>96</ns3:hr>
          </ns3:TrackPointExtension>
        </extensions>
      </trkpt>
      <trkpt lat="36.7700632475316524505615234375" lon="-118.43137725256383419036865234375">
        <ele>3359.199951171875</ele>
        <time>2021-06-25T17:16:06.000Z</time>
        <extensions>
          <ns3:TrackPointExtension>
            <ns3:atemp>26.0</ns3:atemp>
            <ns3:hr>93</ns3:hr>
          </ns3:TrackPointExtension>
        </extensions>
      </trkpt>
      <trkpt lat="36.77006400190293788909912109375" lon="-118.43137725256383419036865234375">
        <ele>3359.199951171875</ele>
        <time>2021-06-25T17:16:08.000Z</time>
        <extensions>
          <ns3:TrackPointExtension>
            <ns3:atemp>26.0</ns3:atemp>
            <ns3:hr>90</ns3:hr>
          </ns3:TrackPointExtension>
        </extensions>
      </trkpt>
      <trkpt lat="36.7700642533600330352783203125" lon="-118.431376330554485321044921875">
        <ele>3359.199951171875</ele>
        <time>2021-06-25T17:16:09.000Z</time>
        <extensions>
          <ns3:TrackPointExtension>
            <ns3:atemp>26.0</ns3:atemp>
            <ns3:hr>87</ns3:hr>
          </ns3:TrackPointExtension>
        </extensions>
      </trkpt>
      <trkpt lat="36.770064420998096466064453125" lon="-118.43137574382126331329345703125">
        <ele>3359.199951171875</ele>
        <time>2021-06-25T17:16:10.000Z</time>
        <extensions>
          <ns3:TrackPointExtension>
            <ns3:atemp>27.0</ns3:atemp>
            <ns3:hr>84</ns3:hr>
          </ns3:TrackPointExtension>
        </extensions>
      </trkpt>
      <trkpt lat="36.77006475627422332763671875" lon="-118.43136526644229888916015625">
        <ele>3359.199951171875</ele>
        <time>2021-06-25T17:16:12.000Z</time>
        <extensions>
          <ns3:TrackPointExtension>
            <ns3:atemp>27.0</ns3:atemp>
            <ns3:hr>80</ns3:hr>
          </ns3:TrackPointExtension>
        </extensions>
      </trkpt>
      <trkpt lat="36.77006475627422332763671875" lon="-118.4313392825424671173095703125">
        <ele>3359.199951171875</ele>
        <time>2021-06-25T17:16:21.000Z</time>
        <extensions>
          <ns3:TrackPointExtension>
            <ns3:atemp>27.0</ns3:atemp>
            <ns3:hr>77</ns3:hr>
          </ns3:TrackPointExtension>
        </extensions>
      </trkpt>
      <trkpt lat="36.7700635828077793121337890625" lon="-118.431336097419261932373046875">
        <ele>3359.199951171875</ele>
        <time>2021-06-25T17:16:26.000Z</time>
        <extensions>
          <ns3:TrackPointExtension>
            <ns3:atemp>27.0</ns3:atemp>
            <ns3:hr>80</ns3:hr>
          </ns3:TrackPointExtension>
        </extensions>
      </trkpt>
      <trkpt lat="36.77006416954100131988525390625" lon="-118.4313417971134185791015625">
        <ele>3359.199951171875</ele>
        <time>2021-06-25T17:16:27.000Z</time>
        <extensions>
          <ns3:TrackPointExtension>
            <ns3:atemp>27.0</ns3:atemp>
            <ns3:hr>76</ns3:hr>
          </ns3:TrackPointExtension>
        </extensions>
      </trkpt>
      <trkpt lat="36.7700689472258090972900390625" lon="-118.4314284659922122955322265625">
        <ele>3359.199951171875</ele>
        <time>2021-06-25T17:16:33.000Z</time>
        <extensions>
          <ns3:TrackPointExtension>
            <ns3:atemp>27.0</ns3:atemp>
            <ns3:hr>74</ns3:hr>
          </ns3:TrackPointExtension>
        </extensions>
      </trkpt>
      <trkpt lat="36.77005830220878124237060546875" lon="-118.43149795196950435638427734375">
        <ele>3359.199951171875</ele>
        <time>2021-06-25T17:16:40.000Z</time>
        <extensions>
          <ns3:TrackPointExtension>
            <ns3:atemp>27.0</ns3:atemp>
            <ns3:hr>77</ns3:hr>
          </ns3:TrackPointExtension>
        </extensions>
      </trkpt>
      <trkpt lat="36.770042292773723602294921875" lon="-118.43153751455247402191162109375">
        <ele>3359.199951171875</ele>
        <time>2021-06-25T17:16:46.000Z</time>
        <extensions>
          <ns3:TrackPointExtension>
            <ns3:atemp>27.0</ns3:atemp>
            <ns3:hr>80</ns3:hr>
          </ns3:TrackPointExtension>
        </extensions>
      </trkpt>
      <trkpt lat="36.77002795971930027008056640625" lon="-118.431573808193206787109375">
        <ele>3359.199951171875</ele>
        <time>2021-06-25T17:16:49.000Z</time>
        <extensions>
          <ns3:TrackPointExtension>
            <ns3:atemp>27.0</ns3:atemp>
            <ns3:hr>83</ns3:hr>
          </ns3:TrackPointExtension>
        </extensions>
      </trkpt>
      <trkpt lat="36.76999862305819988250732421875" lon="-118.43159954063594341278076171875">
        <ele>3359.199951171875</ele>
        <time>2021-06-25T17:16:53.000Z</time>
        <extensions>
          <ns3:TrackPointExtension>
            <ns3:atemp>27.0</ns3:atemp>
            <ns3:hr>86</ns3:hr>
          </ns3:TrackPointExtension>
        </extensions>
      </trkpt>
      <trkpt lat="36.769971884787082672119140625" lon="-118.4316192381083965301513671875">
        <ele>3359.60009765625</ele>
        <time>2021-06-25T17:16:56.000Z</time>
        <extensions>
          <ns3:TrackPointExtension>
            <ns3:atemp>27.0</ns3:atemp>
            <ns3:hr>89</ns3:hr>
          </ns3:TrackPointExtension>
        </extensions>
      </trkpt>
      <trkpt lat="36.7699844576418399810791015625" lon="-118.43166433274745941162109375">
        <ele>3359.39990234375</ele>
        <time>2021-06-25T17:17:02.000Z</time>
        <extensions>
          <ns3:TrackPointExtension>
            <ns3:atemp>27.0</ns3:atemp>
            <ns3:hr>87</ns3:hr>
          </ns3:TrackPointExtension>
        </extensions>
      </trkpt>
      <trkpt lat="36.76998454146087169647216796875" lon="-118.43169425614178180694580078125">
        <ele>3359.60009765625</ele>
        <time>2021-06-25T17:17:05.000Z</time>
        <extensions>
          <ns3:TrackPointExtension>
            <ns3:atemp>27.0</ns3:atemp>
            <ns3:hr>84</ns3:hr>
          </ns3:TrackPointExtension>
        </extensions>
      </trkpt>
      <trkpt lat="36.77000884898006916046142578125" lon="-118.43175686895847320556640625">
        <ele>3359.60009765625</ele>
        <time>2021-06-25T17:17:09.000Z</time>
        <extensions>
          <ns3:TrackPointExtension>
            <ns3:atemp>27.0</ns3:atemp>
            <ns3:hr>83</ns3:hr>
          </ns3:TrackPointExtension>
        </extensions>
      </trkpt>
      <trkpt lat="36.7700300551950931549072265625" lon="-118.43184538185596466064453125">
        <ele>3359.800048828125</ele>
        <time>2021-06-25T17:17:15.000Z</time>
        <extensions>
          <ns3:TrackPointExtension>
            <ns3:atemp>27.0</ns3:atemp>
            <ns3:hr>80</ns3:hr>
          </ns3:TrackPointExtension>
        </extensions>
      </trkpt>
      <trkpt lat="36.77003785036504268646240234375" lon="-118.43186139129102230072021484375">
        <ele>3359.800048828125</ele>
        <time>2021-06-25T17:17:16.000Z</time>
        <extensions>
          <ns3:TrackPointExtension>
            <ns3:atemp>27.0</ns3:atemp>
            <ns3:hr>80</ns3:hr>
          </ns3:TrackPointExtension>
        </extensions>
      </trkpt>
      <trkpt lat="36.77005402743816375732421875" lon="-118.4318968467414379119873046875">
        <ele>3360</ele>
        <time>2021-06-25T17:17:19.000Z</time>
        <extensions>
          <ns3:TrackPointExtension>
            <ns3:atemp>27.0</ns3:atemp>
            <ns3:hr>81</ns3:hr>
          </ns3:TrackPointExtension>
        </extensions>
      </trkpt>
      <trkpt lat="36.7700558714568614959716796875" lon="-118.4319146163761615753173828125">
        <ele>3360.199951171875</ele>
        <time>2021-06-25T17:17:23.000Z</time>
        <extensions>
          <ns3:TrackPointExtension>
            <ns3:atemp>27.0</ns3:atemp>
            <ns3:hr>84</ns3:hr>
          </ns3:TrackPointExtension>
        </extensions>
      </trkpt>
      <trkpt lat="36.77004489116370677947998046875" lon="-118.431916795670986175537109375">
        <ele>3360.199951171875</ele>
        <time>2021-06-25T17:17:24.000Z</time>
        <extensions>
          <ns3:TrackPointExtension>
            <ns3:atemp>27.0</ns3:atemp>
            <ns3:hr>85</ns3:hr>
          </ns3:TrackPointExtension>
        </extensions>
      </trkpt>
      <trkpt lat="36.770051009953022003173828125" lon="-118.43194638378918170928955078125">
        <ele>3360.60009765625</ele>
        <time>2021-06-25T17:17:28.000Z</time>
        <extensions>
          <ns3:TrackPointExtension>
            <ns3:atemp>27.0</ns3:atemp>
            <ns3:hr>88</ns3:hr>
          </ns3:TrackPointExtension>
        </extensions>
      </trkpt>
      <trkpt lat="36.77004623226821422576904296875" lon="-118.4319531731307506561279296875">
        <ele>3360.800048828125</ele>
        <time>2021-06-25T17:17:29.000Z</time>
        <extensions>
          <ns3:TrackPointExtension>
            <ns3:atemp>27.0</ns3:atemp>
            <ns3:hr>90</ns3:hr>
          </ns3:TrackPointExtension>
        </extensions>
      </trkpt>
      <trkpt lat="36.77004120312631130218505859375" lon="-118.4319639019668102264404296875">
        <ele>3360.800048828125</ele>
        <time>2021-06-25T17:17:30.000Z</time>
        <extensions>
          <ns3:TrackPointExtension>
            <ns3:atemp>27.0</ns3:atemp>
            <ns3:hr>90</ns3:hr>
          </ns3:TrackPointExtension>
        </extensions>
      </trkpt>
      <trkpt lat="36.7700394429266452789306640625" lon="-118.43202400021255016326904296875">
        <ele>3361.39990234375</ele>
        <time>2021-06-25T17:17:36.000Z</time>
        <extensions>
          <ns3:TrackPointExtension>
            <ns3:atemp>27.0</ns3:atemp>
            <ns3:hr>92</ns3:hr>
          </ns3:TrackPointExtension>
        </extensions>
      </trkpt>
      <trkpt lat="36.77005025558173656463623046875" lon="-118.432049565017223358154296875">
        <ele>3362</ele>
        <time>2021-06-25T17:17:39.000Z</time>
        <extensions>
          <ns3:TrackPointExtension>
            <ns3:atemp>27.0</ns3:atemp>
            <ns3:hr>93</ns3:hr>
          </ns3:TrackPointExtension>
        </extensions>
      </trkpt>
      <trkpt lat="36.77007590420544147491455078125" lon="-118.4320792369544506072998046875">
        <ele>3362.800048828125</ele>
        <time>2021-06-25T17:17:44.000Z</time>
        <extensions>
          <ns3:TrackPointExtension>
            <ns3:atemp>27.0</ns3:atemp>
            <ns3:hr>96</ns3:hr>
          </ns3:TrackPointExtension>
        </extensions>
      </trkpt>
      <trkpt lat="36.77007439546287059783935546875" lon="-118.43209055252373218536376953125">
        <ele>3363</ele>
        <time>2021-06-25T17:17:45.000Z</time>
        <extensions>
          <ns3:TrackPointExtension>
            <ns3:atemp>27.0</ns3:atemp>
            <ns3:hr>96</ns3:hr>
          </ns3:TrackPointExtension>
        </extensions>
      </trkpt>
      <trkpt lat="36.77007975988090038299560546875" lon="-118.432093821465969085693359375">
        <ele>3363.60009765625</ele>
        <time>2021-06-25T17:17:46.000Z</time>
        <extensions>
          <ns3:TrackPointExtension>
            <ns3:atemp>27.0</ns3:atemp>
            <ns3:hr>97</ns3:hr>
          </ns3:TrackPointExtension>
        </extensions>
      </trkpt>
      <trkpt lat="36.77009266801178455352783203125" lon="-118.43211804516613483428955078125">
        <ele>3364.199951171875</ele>
        <time>2021-06-25T17:17:50.000Z</time>
        <extensions>
          <ns3:TrackPointExtension>
            <ns3:atemp>27.0</ns3:atemp>
            <ns3:hr>99</ns3:hr>
          </ns3:TrackPointExtension>
        </extensions>
      </trkpt>
      <trkpt lat="36.77009283564984798431396484375" lon="-118.43215526081621646881103515625">
        <ele>3365</ele>
        <time>2021-06-25T17:17:55.000Z</time>
        <extensions>
          <ns3:TrackPointExtension>
            <ns3:atemp>27.0</ns3:atemp>
            <ns3:hr>100</ns3:hr>
          </ns3:TrackPointExtension>
        </extensions>
      </trkpt>
      <trkpt lat="36.77010557614266872406005859375" lon="-118.43218065798282623291015625">
        <ele>3365.199951171875</ele>
        <time>2021-06-25T17:17:58.000Z</time>
        <extensions>
          <ns3:TrackPointExtension>
            <ns3:atemp>27.0</ns3:atemp>
            <ns3:hr>99</ns3:hr>
          </ns3:TrackPointExtension>
        </extensions>
      </trkpt>
      <trkpt lat="36.77010708488523960113525390625" lon="-118.432184346020221710205078125">
        <ele>3365.39990234375</ele>
        <time>2021-06-25T17:17:59.000Z</time>
        <extensions>
          <ns3:TrackPointExtension>
            <ns3:atemp>27.0</ns3:atemp>
            <ns3:hr>101</ns3:hr>
          </ns3:TrackPointExtension>
        </extensions>
      </trkpt>
      <trkpt lat="36.77010725252330303192138671875" lon="-118.4321861900389194488525390625">
        <ele>3365.60009765625</ele>
        <time>2021-06-25T17:18:00.000Z</time>
        <extensions>
          <ns3:TrackPointExtension>
            <ns3:atemp>27.0</ns3:atemp>
            <ns3:hr>101</ns3:hr>
          </ns3:TrackPointExtension>
        </extensions>
      </trkpt>
      <trkpt lat="36.77011161111295223236083984375" lon="-118.4322153590619564056396484375">
        <ele>3366.199951171875</ele>
        <time>2021-06-25T17:18:03.000Z</time>
        <extensions>
          <ns3:TrackPointExtension>
            <ns3:atemp>27.0</ns3:atemp>
            <ns3:hr>103</ns3:hr>
          </ns3:TrackPointExtension>
        </extensions>
      </trkpt>
      <trkpt lat="36.77011261694133281707763671875" lon="-118.43222063966095447540283203125">
        <ele>3366.39990234375</ele>
        <time>2021-06-25T17:18:04.000Z</time>
        <extensions>
          <ns3:TrackPointExtension>
            <ns3:atemp>27.0</ns3:atemp>
            <ns3:hr>102</ns3:hr>
          </ns3:TrackPointExtension>
        </extensions>
      </trkpt>
      <trkpt lat="36.77012183703482151031494140625" lon="-118.43224234879016876220703125">
        <ele>3367.39990234375</ele>
        <time>2021-06-25T17:18:08.000Z</time>
        <extensions>
          <ns3:TrackPointExtension>
            <ns3:atemp>27.0</ns3:atemp>
            <ns3:hr>105</ns3:hr>
          </ns3:TrackPointExtension>
        </extensions>
      </trkpt>
      <trkpt lat="36.770130135118961334228515625" lon="-118.432269506156444549560546875">
        <ele>3367.60009765625</ele>
        <time>2021-06-25T17:18:13.000Z</time>
        <extensions>
          <ns3:TrackPointExtension>
            <ns3:atemp>27.0</ns3:atemp>
            <ns3:hr>108</ns3:hr>
          </ns3:TrackPointExtension>
        </extensions>
      </trkpt>
      <trkpt lat="36.7701299674808979034423828125" lon="-118.43228752724826335906982421875">
        <ele>3368</ele>
        <time>2021-06-25T17:18:15.000Z</time>
        <extensions>
          <ns3:TrackPointExtension>
            <ns3:atemp>27.0</ns3:atemp>
            <ns3:hr>107</ns3:hr>
          </ns3:TrackPointExtension>
        </extensions>
      </trkpt>
      <trkpt lat="36.770114041864871978759765625" lon="-118.4323154389858245849609375">
        <ele>3368.60009765625</ele>
        <time>2021-06-25T17:18:20.000Z</time>
        <extensions>
          <ns3:TrackPointExtension>
            <ns3:atemp>27.0</ns3:atemp>
            <ns3:hr>109</ns3:hr>
          </ns3:TrackPointExtension>
        </extensions>
      </trkpt>
      <trkpt lat="36.77010901272296905517578125" lon="-118.43232893384993076324462890625">
        <ele>3369</ele>
        <time>2021-06-25T17:18:23.000Z</time>
        <extensions>
          <ns3:TrackPointExtension>
            <ns3:atemp>27.0</ns3:atemp>
            <ns3:hr>110</ns3:hr>
          </ns3:TrackPointExtension>
        </extensions>
      </trkpt>
      <trkpt lat="36.77010834217071533203125" lon="-118.43234854750335216522216796875">
        <ele>3369.60009765625</ele>
        <time>2021-06-25T17:18:26.000Z</time>
        <extensions>
          <ns3:TrackPointExtension>
            <ns3:atemp>27.0</ns3:atemp>
            <ns3:hr>110</ns3:hr>
          </ns3:TrackPointExtension>
        </extensions>
      </trkpt>
      <trkpt lat="36.77009467966854572296142578125" lon="-118.43235374428331851959228515625">
        <ele>3369.800048828125</ele>
        <time>2021-06-25T17:18:30.000Z</time>
        <extensions>
          <ns3:TrackPointExtension>
            <ns3:atemp>27.0</ns3:atemp>
            <ns3:hr>111</ns3:hr>
          </ns3:TrackPointExtension>
        </extensions>
      </trkpt>
      <trkpt lat="36.77009937353432178497314453125" lon="-118.43236078508198261260986328125">
        <ele>3371.39990234375</ele>
        <time>2021-06-25T17:18:31.000Z</time>
        <extensions>
          <ns3:TrackPointExtension>
            <ns3:atemp>26.0</ns3:atemp>
            <ns3:hr>112</ns3:hr>
          </ns3:TrackPointExtension>
        </extensions>
      </trkpt>
      <trkpt lat="36.77010842598974704742431640625" lon="-118.432403616607189178466796875">
        <ele>3372.199951171875</ele>
        <time>2021-06-25T17:18:36.000Z</time>
        <extensions>
          <ns3:TrackPointExtension>
            <ns3:atemp>26.0</ns3:atemp>
            <ns3:hr>115</ns3:hr>
          </ns3:TrackPointExtension>
        </extensions>
      </trkpt>
      <trkpt lat="36.7701105214655399322509765625" lon="-118.4324145130813121795654296875">
        <ele>3372.39990234375</ele>
        <time>2021-06-25T17:18:37.000Z</time>
        <extensions>
          <ns3:TrackPointExtension>
            <ns3:atemp>26.0</ns3:atemp>
            <ns3:hr>115</ns3:hr>
          </ns3:TrackPointExtension>
        </extensions>
      </trkpt>
      <trkpt lat="36.770110018551349639892578125" lon="-118.43241577036678791046142578125">
        <ele>3372.39990234375</ele>
        <time>2021-06-25T17:18:38.000Z</time>
        <extensions>
          <ns3:TrackPointExtension>
            <ns3:atemp>26.0</ns3:atemp>
            <ns3:hr>117</ns3:hr>
          </ns3:TrackPointExtension>
        </extensions>
      </trkpt>
      <trkpt lat="36.7701311409473419189453125" lon="-118.43243571929633617401123046875">
        <ele>3372.60009765625</ele>
        <time>2021-06-25T17:18:40.000Z</time>
        <extensions>
          <ns3:TrackPointExtension>
            <ns3:atemp>26.0</ns3:atemp>
            <ns3:hr>120</ns3:hr>
          </ns3:TrackPointExtension>
        </extensions>
      </trkpt>
      <trkpt lat="36.7701423726975917816162109375" lon="-118.43248835764825344085693359375">
        <ele>3373</ele>
        <time>2021-06-25T17:18:47.000Z</time>
        <extensions>
          <ns3:TrackPointExtension>
            <ns3:atemp>26.0</ns3:atemp>
            <ns3:hr>121</ns3:hr>
          </ns3:TrackPointExtension>
        </extensions>
      </trkpt>
      <trkpt lat="36.77014061249792575836181640625" lon="-118.43252590857446193695068359375">
        <ele>3373.60009765625</ele>
        <time>2021-06-25T17:18:51.000Z</time>
        <extensions>
          <ns3:TrackPointExtension>
            <ns3:atemp>26.0</ns3:atemp>
            <ns3:hr>121</ns3:hr>
          </ns3:TrackPointExtension>
        </extensions>
      </trkpt>
      <trkpt lat="36.77013985812664031982421875" lon="-118.43253496102988719940185546875">
        <ele>3374</ele>
        <time>2021-06-25T17:18:52.000Z</time>
        <extensions>
          <ns3:TrackPointExtension>
            <ns3:atemp>26.0</ns3:atemp>
            <ns3:hr>125</ns3:hr>
          </ns3:TrackPointExtension>
        </extensions>
      </trkpt>
      <trkpt lat="36.77014262415468692779541015625" lon="-118.43254183419048786163330078125">
        <ele>3374</ele>
        <time>2021-06-25T17:18:53.000Z</time>
        <extensions>
          <ns3:TrackPointExtension>
            <ns3:atemp>26.0</ns3:atemp>
            <ns3:hr>120</ns3:hr>
          </ns3:TrackPointExtension>
        </extensions>
      </trkpt>
      <trkpt lat="36.7701504193246364593505859375" lon="-118.43256044201552867889404296875">
        <ele>3374</ele>
        <time>2021-06-25T17:18:55.000Z</time>
        <extensions>
          <ns3:TrackPointExtension>
            <ns3:atemp>26.0</ns3:atemp>
            <ns3:hr>119</ns3:hr>
          </ns3:TrackPointExtension>
        </extensions>
      </trkpt>
      <trkpt lat="36.77015234716236591339111328125" lon="-118.432572595775127410888671875">
        <ele>3374</ele>
        <time>2021-06-25T17:18:56.000Z</time>
        <extensions>
          <ns3:TrackPointExtension>
            <ns3:atemp>26.0</ns3:atemp>
            <ns3:hr>119</ns3:hr>
          </ns3:TrackPointExtension>
        </extensions>
      </trkpt>
      <trkpt lat="36.770195849239826202392578125" lon="-118.43264593742787837982177734375">
        <ele>3374.60009765625</ele>
        <time>2021-06-25T17:19:00.000Z</time>
        <extensions>
          <ns3:TrackPointExtension>
            <ns3:atemp>26.0</ns3:atemp>
            <ns3:hr>118</ns3:hr>
          </ns3:TrackPointExtension>
        </extensions>
      </trkpt>
      <trkpt lat="36.77019241265952587127685546875" lon="-118.432649038732051849365234375">
        <ele>3374.60009765625</ele>
        <time>2021-06-25T17:19:01.000Z</time>
        <extensions>
          <ns3:TrackPointExtension>
            <ns3:atemp>26.0</ns3:atemp>
            <ns3:hr>118</ns3:hr>
          </ns3:TrackPointExtension>
        </extensions>
      </trkpt>
      <trkpt lat="36.7701966874301433563232421875" lon="-118.43266320414841175079345703125">
        <ele>3374.800048828125</ele>
        <time>2021-06-25T17:19:03.000Z</time>
        <extensions>
          <ns3:TrackPointExtension>
            <ns3:atemp>26.0</ns3:atemp>
            <ns3:hr>116</ns3:hr>
          </ns3:TrackPointExtension>
        </extensions>
      </trkpt>
      <trkpt lat="36.77019710652530193328857421875" lon="-118.43268466182053089141845703125">
        <ele>3374.800048828125</ele>
        <time>2021-06-25T17:19:05.000Z</time>
        <extensions>
          <ns3:TrackPointExtension>
            <ns3:atemp>26.0</ns3:atemp>
            <ns3:hr>117</ns3:hr>
          </ns3:TrackPointExtension>
        </extensions>
      </trkpt>
      <trkpt lat="36.77019358612596988677978515625" lon="-118.43269924633204936981201171875">
        <ele>3374.800048828125</ele>
        <time>2021-06-25T17:19:08.000Z</time>
        <extensions>
          <ns3:TrackPointExtension>
            <ns3:atemp>26.0</ns3:atemp>
            <ns3:hr>117</ns3:hr>
          </ns3:TrackPointExtension>
        </extensions>
      </trkpt>
      <trkpt lat="36.7701955139636993408203125" lon="-118.4327209554612636566162109375">
        <ele>3374.800048828125</ele>
        <time>2021-06-25T17:19:10.000Z</time>
        <extensions>
          <ns3:TrackPointExtension>
            <ns3:atemp>26.0</ns3:atemp>
            <ns3:hr>116</ns3:hr>
          </ns3:TrackPointExtension>
        </extensions>
      </trkpt>
      <trkpt lat="36.7702057398855686187744140625" lon="-118.4327652119100093841552734375">
        <ele>3375.800048828125</ele>
        <time>2021-06-25T17:19:16.000Z</time>
        <extensions>
          <ns3:TrackPointExtension>
            <ns3:atemp>26.0</ns3:atemp>
            <ns3:hr>117</ns3:hr>
          </ns3:TrackPointExtension>
        </extensions>
      </trkpt>
      <trkpt lat="36.77021219395101070404052734375" lon="-118.43279982917010784149169921875">
        <ele>3376.199951171875</ele>
        <time>2021-06-25T17:19:19.000Z</time>
        <extensions>
          <ns3:TrackPointExtension>
            <ns3:atemp>26.0</ns3:atemp>
            <ns3:hr>117</ns3:hr>
          </ns3:TrackPointExtension>
        </extensions>
      </trkpt>
      <trkpt lat="36.77021286450326442718505859375" lon="-118.432828076183795928955078125">
        <ele>3376.39990234375</ele>
        <time>2021-06-25T17:19:22.000Z</time>
        <extensions>
          <ns3:TrackPointExtension>
            <ns3:atemp>26.0</ns3:atemp>
            <ns3:hr>113</ns3:hr>
          </ns3:TrackPointExtension>
        </extensions>
      </trkpt>
      <trkpt lat="36.77020599134266376495361328125" lon="-118.43285732902586460113525390625">
        <ele>3376.800048828125</ele>
        <time>2021-06-25T17:19:28.000Z</time>
        <extensions>
          <ns3:TrackPointExtension>
            <ns3:atemp>26.0</ns3:atemp>
            <ns3:hr>114</ns3:hr>
          </ns3:TrackPointExtension>
        </extensions>
      </trkpt>
      <trkpt lat="36.770215965807437896728515625" lon="-118.43291155993938446044921875">
        <ele>3377.39990234375</ele>
        <time>2021-06-25T17:19:34.000Z</time>
        <extensions>
          <ns3:TrackPointExtension>
            <ns3:atemp>26.0</ns3:atemp>
            <ns3:hr>114</ns3:hr>
          </ns3:TrackPointExtension>
        </extensions>
      </trkpt>
      <trkpt lat="36.77021688781678676605224609375" lon="-118.43291826546192169189453125">
        <ele>3377.39990234375</ele>
        <time>2021-06-25T17:19:35.000Z</time>
        <extensions>
          <ns3:TrackPointExtension>
            <ns3:atemp>26.0</ns3:atemp>
            <ns3:hr>114</ns3:hr>
          </ns3:TrackPointExtension>
        </extensions>
      </trkpt>
      <trkpt lat="36.7702157981693744659423828125" lon="-118.43292639590799808502197265625">
        <ele>3377.800048828125</ele>
        <time>2021-06-25T17:19:36.000Z</time>
        <extensions>
          <ns3:TrackPointExtension>
            <ns3:atemp>26.0</ns3:atemp>
            <ns3:hr>114</ns3:hr>
          </ns3:TrackPointExtension>
        </extensions>
      </trkpt>
      <trkpt lat="36.7701775766909122467041015625" lon="-118.43296051025390625">
        <ele>3379</ele>
        <time>2021-06-25T17:19:43.000Z</time>
        <extensions>
          <ns3:TrackPointExtension>
            <ns3:atemp>26.0</ns3:atemp>
            <ns3:hr>111</ns3:hr>
          </ns3:TrackPointExtension>
        </extensions>
      </trkpt>
      <trkpt lat="36.77018118090927600860595703125" lon="-118.43299931846559047698974609375">
        <ele>3379.800048828125</ele>
        <time>2021-06-25T17:19:50.000Z</time>
        <extensions>
          <ns3:TrackPointExtension>
            <ns3:atemp>26.0</ns3:atemp>
            <ns3:hr>110</ns3:hr>
          </ns3:TrackPointExtension>
        </extensions>
      </trkpt>
      <trkpt lat="36.770175062119960784912109375" lon="-118.433038294315338134765625">
        <ele>3379.800048828125</ele>
        <time>2021-06-25T17:19:54.000Z</time>
        <extensions>
          <ns3:TrackPointExtension>
            <ns3:atemp>26.0</ns3:atemp>
            <ns3:hr>113</ns3:hr>
          </ns3:TrackPointExtension>
        </extensions>
      </trkpt>
      <trkpt lat="36.77017849870026111602783203125" lon="-118.43305748887360095977783203125">
        <ele>3379.800048828125</ele>
        <time>2021-06-25T17:19:56.000Z</time>
        <extensions>
          <ns3:TrackPointExtension>
            <ns3:atemp>26.0</ns3:atemp>
            <ns3:hr>111</ns3:hr>
          </ns3:TrackPointExtension>
        </extensions>
      </trkpt>
      <trkpt lat="36.77018051035702228546142578125" lon="-118.43309554271399974822998046875">
        <ele>3380.199951171875</ele>
        <time>2021-06-25T17:19:59.000Z</time>
        <extensions>
          <ns3:TrackPointExtension>
            <ns3:atemp>26.0</ns3:atemp>
            <ns3:hr>111</ns3:hr>
          </ns3:TrackPointExtension>
        </extensions>
      </trkpt>
      <trkpt lat="36.77018889226019382476806640625" lon="-118.43310291878879070281982421875">
        <ele>3380</ele>
        <time>2021-06-25T17:20:03.000Z</time>
        <extensions>
          <ns3:TrackPointExtension>
            <ns3:atemp>26.0</ns3:atemp>
            <ns3:hr>110</ns3:hr>
          </ns3:TrackPointExtension>
        </extensions>
      </trkpt>
      <trkpt lat="36.770207583904266357421875" lon="-118.4331541322171688079833984375">
        <ele>3380.39990234375</ele>
        <time>2021-06-25T17:20:10.000Z</time>
        <extensions>
          <ns3:TrackPointExtension>
            <ns3:atemp>26.0</ns3:atemp>
            <ns3:hr>108</ns3:hr>
          </ns3:TrackPointExtension>
        </extensions>
      </trkpt>
      <trkpt lat="36.77021688781678676605224609375" lon="-118.43321054242551326751708984375">
        <ele>3380.800048828125</ele>
        <time>2021-06-25T17:20:17.000Z</time>
        <extensions>
          <ns3:TrackPointExtension>
            <ns3:atemp>26.0</ns3:atemp>
            <ns3:hr>105</ns3:hr>
          </ns3:TrackPointExtension>
        </extensions>
      </trkpt>
      <trkpt lat="36.7702318914234638214111328125" lon="-118.433261923491954803466796875">
        <ele>3381</ele>
        <time>2021-06-25T17:20:21.000Z</time>
        <extensions>
          <ns3:TrackPointExtension>
            <ns3:atemp>26.0</ns3:atemp>
            <ns3:hr>104</ns3:hr>
          </ns3:TrackPointExtension>
        </extensions>
      </trkpt>
      <trkpt lat="36.770251505076885223388671875" lon="-118.43329721130430698394775390625">
        <ele>3381</ele>
        <time>2021-06-25T17:20:24.000Z</time>
        <extensions>
          <ns3:TrackPointExtension>
            <ns3:atemp>26.0</ns3:atemp>
            <ns3:hr>104</ns3:hr>
          </ns3:TrackPointExtension>
        </extensions>
      </trkpt>
      <trkpt lat="36.7702590487897396087646484375" lon="-118.43336560763418674468994140625">
        <ele>3380.800048828125</ele>
        <time>2021-06-25T17:20:31.000Z</time>
        <extensions>
          <ns3:TrackPointExtension>
            <ns3:atemp>26.0</ns3:atemp>
            <ns3:hr>103</ns3:hr>
          </ns3:TrackPointExtension>
        </extensions>
      </trkpt>
      <trkpt lat="36.7702625691890716552734375" lon="-118.43339293263852596282958984375">
        <ele>3381</ele>
        <time>2021-06-25T17:20:36.000Z</time>
        <extensions>
          <ns3:TrackPointExtension>
            <ns3:atemp>26.0</ns3:atemp>
            <ns3:hr>101</ns3:hr>
          </ns3:TrackPointExtension>
        </extensions>
      </trkpt>
      <trkpt lat="36.77026734687387943267822265625" lon="-118.4334022365510463714599609375">
        <ele>3381.39990234375</ele>
        <time>2021-06-25T17:20:37.000Z</time>
        <extensions>
          <ns3:TrackPointExtension>
            <ns3:atemp>26.0</ns3:atemp>
            <ns3:hr>101</ns3:hr>
          </ns3:TrackPointExtension>
        </extensions>
      </trkpt>
      <trkpt lat="36.77026952616870403289794921875" lon="-118.43340869061648845672607421875">
        <ele>3381.39990234375</ele>
        <time>2021-06-25T17:20:38.000Z</time>
        <extensions>
          <ns3:TrackPointExtension>
            <ns3:atemp>26.0</ns3:atemp>
            <ns3:hr>101</ns3:hr>
          </ns3:TrackPointExtension>
        </extensions>
      </trkpt>
      <trkpt lat="36.77027857862412929534912109375" lon="-118.43342788517475128173828125">
        <ele>3381.60009765625</ele>
        <time>2021-06-25T17:20:40.000Z</time>
        <extensions>
          <ns3:TrackPointExtension>
            <ns3:atemp>26.0</ns3:atemp>
            <ns3:hr>102</ns3:hr>
          </ns3:TrackPointExtension>
        </extensions>
      </trkpt>
      <trkpt lat="36.7702920734882354736328125" lon="-118.4334500133991241455078125">
        <ele>3381.60009765625</ele>
        <time>2021-06-25T17:20:43.000Z</time>
        <extensions>
          <ns3:TrackPointExtension>
            <ns3:atemp>26.0</ns3:atemp>
            <ns3:hr>101</ns3:hr>
          </ns3:TrackPointExtension>
        </extensions>
      </trkpt>
      <trkpt lat="36.77031780593097209930419921875" lon="-118.43348882161080837249755859375">
        <ele>3382.39990234375</ele>
        <time>2021-06-25T17:20:47.000Z</time>
        <extensions>
          <ns3:TrackPointExtension>
            <ns3:atemp>26.0</ns3:atemp>
            <ns3:hr>100</ns3:hr>
          </ns3:TrackPointExtension>
        </extensions>
      </trkpt>
      <trkpt lat="36.77034412510693073272705078125" lon="-118.43352855183184146881103515625">
        <ele>3383</ele>
        <time>2021-06-25T17:20:53.000Z</time>
        <extensions>
          <ns3:TrackPointExtension>
            <ns3:atemp>26.0</ns3:atemp>
            <ns3:hr>100</ns3:hr>
          </ns3:TrackPointExtension>
        </extensions>
      </trkpt>
      <trkpt lat="36.7703445442020893096923828125" lon="-118.43357716687023639678955078125">
        <ele>3383.60009765625</ele>
        <time>2021-06-25T17:20:58.000Z</time>
        <extensions>
          <ns3:TrackPointExtension>
            <ns3:atemp>26.0</ns3:atemp>
            <ns3:hr>101</ns3:hr>
          </ns3:TrackPointExtension>
        </extensions>
      </trkpt>
      <trkpt lat="36.7703596316277980804443359375" lon="-118.4335896559059619903564453125">
        <ele>3384</ele>
        <time>2021-06-25T17:21:01.000Z</time>
        <extensions>
          <ns3:TrackPointExtension>
            <ns3:atemp>26.0</ns3:atemp>
            <ns3:hr>104</ns3:hr>
          </ns3:TrackPointExtension>
        </extensions>
      </trkpt>
      <trkpt lat="36.77035485394299030303955078125" lon="-118.4336228482425212860107421875">
        <ele>3384.39990234375</ele>
        <time>2021-06-25T17:21:07.000Z</time>
        <extensions>
          <ns3:TrackPointExtension>
            <ns3:atemp>26.0</ns3:atemp>
            <ns3:hr>107</ns3:hr>
          </ns3:TrackPointExtension>
        </extensions>
      </trkpt>
      <trkpt lat="36.77035284228622913360595703125" lon="-118.43364321626722812652587890625">
        <ele>3384.60009765625</ele>
        <time>2021-06-25T17:21:11.000Z</time>
        <extensions>
          <ns3:TrackPointExtension>
            <ns3:atemp>26.0</ns3:atemp>
            <ns3:hr>108</ns3:hr>
          </ns3:TrackPointExtension>
        </extensions>
      </trkpt>
      <trkpt lat="36.7703586257994174957275390625" lon="-118.43364824540913105010986328125">
        <ele>3384.60009765625</ele>
        <time>2021-06-25T17:21:14.000Z</time>
        <extensions>
          <ns3:TrackPointExtension>
            <ns3:atemp>26.0</ns3:atemp>
            <ns3:hr>109</ns3:hr>
          </ns3:TrackPointExtension>
        </extensions>
      </trkpt>
      <trkpt lat="36.77035468630492687225341796875" lon="-118.433653526008129119873046875">
        <ele>3384.60009765625</ele>
        <time>2021-06-25T17:21:17.000Z</time>
        <extensions>
          <ns3:TrackPointExtension>
            <ns3:atemp>26.0</ns3:atemp>
            <ns3:hr>106</ns3:hr>
          </ns3:TrackPointExtension>
        </extensions>
      </trkpt>
      <trkpt lat="36.77036290057003498077392578125" lon="-118.43365780077874660491943359375">
        <ele>3384.60009765625</ele>
        <time>2021-06-25T17:21:26.000Z</time>
        <extensions>
          <ns3:TrackPointExtension>
            <ns3:atemp>26.0</ns3:atemp>
            <ns3:hr>103</ns3:hr>
          </ns3:TrackPointExtension>
        </extensions>
      </trkpt>
      <trkpt lat="36.77036290057003498077392578125" lon="-118.43365360982716083526611328125">
        <ele>3384.60009765625</ele>
        <time>2021-06-25T17:21:30.000Z</time>
        <extensions>
          <ns3:TrackPointExtension>
            <ns3:atemp>26.0</ns3:atemp>
            <ns3:hr>100</ns3:hr>
          </ns3:TrackPointExtension>
        </extensions>
      </trkpt>
      <trkpt lat="36.77036290057003498077392578125" lon="-118.43365243636071681976318359375">
        <ele>3384.60009765625</ele>
        <time>2021-06-25T17:21:31.000Z</time>
        <extensions>
          <ns3:TrackPointExtension>
            <ns3:atemp>26.0</ns3:atemp>
            <ns3:hr>100</ns3:hr>
          </ns3:TrackPointExtension>
        </extensions>
      </trkpt>
      <trkpt lat="36.77036507986485958099365234375" lon="-118.43364841304719448089599609375">
        <ele>3384.60009765625</ele>
        <time>2021-06-25T17:21:42.000Z</time>
        <extensions>
          <ns3:TrackPointExtension>
            <ns3:atemp>26.0</ns3:atemp>
            <ns3:hr>97</ns3:hr>
          </ns3:TrackPointExtension>
        </extensions>
      </trkpt>
      <trkpt lat="36.77036507986485958099365234375" lon="-118.4336479939520359039306640625">
        <ele>3384.199951171875</ele>
        <time>2021-06-25T17:21:46.000Z</time>
        <extensions>
          <ns3:TrackPointExtension>
            <ns3:atemp>26.0</ns3:atemp>
            <ns3:hr>93</ns3:hr>
          </ns3:TrackPointExtension>
        </extensions>
      </trkpt>
      <trkpt lat="36.77036591805517673492431640625" lon="-118.4336352534592151641845703125">
        <ele>3384.199951171875</ele>
        <time>2021-06-25T17:21:56.000Z</time>
        <extensions>
          <ns3:TrackPointExtension>
            <ns3:atemp>27.0</ns3:atemp>
            <ns3:hr>90</ns3:hr>
          </ns3:TrackPointExtension>
        </extensions>
      </trkpt>
      <trkpt lat="36.7703646607697010040283203125" lon="-118.43362494371831417083740234375">
        <ele>3384.39990234375</ele>
        <time>2021-06-25T17:22:00.000Z</time>
        <extensions>
          <ns3:TrackPointExtension>
            <ns3:atemp>27.0</ns3:atemp>
            <ns3:hr>87</ns3:hr>
          </ns3:TrackPointExtension>
        </extensions>
      </trkpt>
      <trkpt lat="36.77036457695066928863525390625" lon="-118.4336245246231555938720703125">
        <ele>3384.39990234375</ele>
        <time>2021-06-25T17:22:02.000Z</time>
        <extensions>
          <ns3:TrackPointExtension>
            <ns3:atemp>27.0</ns3:atemp>
            <ns3:hr>85</ns3:hr>
          </ns3:TrackPointExtension>
        </extensions>
      </trkpt>
      <trkpt lat="36.7703639902174472808837890625" lon="-118.4336245246231555938720703125">
        <ele>3384.39990234375</ele>
        <time>2021-06-25T17:22:05.000Z</time>
        <extensions>
          <ns3:TrackPointExtension>
            <ns3:atemp>27.0</ns3:atemp>
            <ns3:hr>82</ns3:hr>
          </ns3:TrackPointExtension>
        </extensions>
      </trkpt>
      <trkpt lat="36.77036591805517673492431640625" lon="-118.43363500200212001800537109375">
        <ele>3384.39990234375</ele>
        <time>2021-06-25T17:22:18.000Z</time>
        <extensions>
          <ns3:TrackPointExtension>
            <ns3:atemp>27.0</ns3:atemp>
            <ns3:hr>85</ns3:hr>
          </ns3:TrackPointExtension>
        </extensions>
      </trkpt>
      <trkpt lat="36.77036650478839874267578125" lon="-118.43364288099110126495361328125">
        <ele>3384.800048828125</ele>
        <time>2021-06-25T17:22:38.000Z</time>
        <extensions>
          <ns3:TrackPointExtension>
            <ns3:atemp>27.0</ns3:atemp>
            <ns3:hr>81</ns3:hr>
          </ns3:TrackPointExtension>
        </extensions>
      </trkpt>
      <trkpt lat="36.77036650478839874267578125" lon="-118.43364288099110126495361328125">
        <ele>3384.800048828125</ele>
        <time>2021-06-25T17:22:40.000Z</time>
        <extensions>
          <ns3:TrackPointExtension>
            <ns3:atemp>27.0</ns3:atemp>
            <ns3:hr>78</ns3:hr>
          </ns3:TrackPointExtension>
        </extensions>
      </trkpt>
      <trkpt lat="36.77038284949958324432373046875" lon="-118.43365059234201908111572265625">
        <ele>3385</ele>
        <time>2021-06-25T17:22:50.000Z</time>
        <extensions>
          <ns3:TrackPointExtension>
            <ns3:atemp>27.0</ns3:atemp>
            <ns3:hr>75</ns3:hr>
          </ns3:TrackPointExtension>
        </extensions>
      </trkpt>
      <trkpt lat="36.77040078677237033843994140625" lon="-118.43365746550261974334716796875">
        <ele>3385.39990234375</ele>
        <time>2021-06-25T17:22:55.000Z</time>
        <extensions>
          <ns3:TrackPointExtension>
            <ns3:atemp>26.0</ns3:atemp>
            <ns3:hr>73</ns3:hr>
          </ns3:TrackPointExtension>
        </extensions>
      </trkpt>
      <trkpt lat="36.77040246315300464630126953125" lon="-118.4336590580642223358154296875">
        <ele>3385.60009765625</ele>
        <time>2021-06-25T17:22:57.000Z</time>
        <extensions>
          <ns3:TrackPointExtension>
            <ns3:atemp>26.0</ns3:atemp>
            <ns3:hr>70</ns3:hr>
          </ns3:TrackPointExtension>
        </extensions>
      </trkpt>
      <trkpt lat="36.77040296606719493865966796875" lon="-118.4336603991687297821044921875">
        <ele>3385.39990234375</ele>
        <time>2021-06-25T17:23:00.000Z</time>
        <extensions>
          <ns3:TrackPointExtension>
            <ns3:atemp>26.0</ns3:atemp>
            <ns3:hr>67</ns3:hr>
          </ns3:TrackPointExtension>
        </extensions>
      </trkpt>
      <trkpt lat="36.7704065702855587005615234375" lon="-118.43366500921547412872314453125">
        <ele>3385.39990234375</ele>
        <time>2021-06-25T17:23:07.000Z</time>
        <extensions>
          <ns3:TrackPointExtension>
            <ns3:atemp>26.0</ns3:atemp>
            <ns3:hr>70</ns3:hr>
          </ns3:TrackPointExtension>
        </extensions>
      </trkpt>
      <trkpt lat="36.7704065702855587005615234375" lon="-118.4336721338331699371337890625">
        <ele>3385.199951171875</ele>
        <time>2021-06-25T17:23:11.000Z</time>
        <extensions>
          <ns3:TrackPointExtension>
            <ns3:atemp>26.0</ns3:atemp>
            <ns3:hr>73</ns3:hr>
          </ns3:TrackPointExtension>
        </extensions>
      </trkpt>
      <trkpt lat="36.77038737572729587554931640625" lon="-118.4337214194238185882568359375">
        <ele>3385.800048828125</ele>
        <time>2021-06-25T17:23:16.000Z</time>
        <extensions>
          <ns3:TrackPointExtension>
            <ns3:atemp>26.0</ns3:atemp>
            <ns3:hr>73</ns3:hr>
          </ns3:TrackPointExtension>
        </extensions>
      </trkpt>
      <trkpt lat="36.77038251422345638275146484375" lon="-118.433732651174068450927734375">
        <ele>3386</ele>
        <time>2021-06-25T17:23:17.000Z</time>
        <extensions>
          <ns3:TrackPointExtension>
            <ns3:atemp>26.0</ns3:atemp>
            <ns3:hr>76</ns3:hr>
          </ns3:TrackPointExtension>
        </extensions>
      </trkpt>
      <trkpt lat="36.7703861184418201446533203125" lon="-118.43378000892698764801025390625">
        <ele>3386.800048828125</ele>
        <time>2021-06-25T17:23:20.000Z</time>
        <extensions>
          <ns3:TrackPointExtension>
            <ns3:atemp>26.0</ns3:atemp>
            <ns3:hr>79</ns3:hr>
          </ns3:TrackPointExtension>
        </extensions>
      </trkpt>
      <trkpt lat="36.77037497051060199737548828125" lon="-118.433803729712963104248046875">
        <ele>3387.39990234375</ele>
        <time>2021-06-25T17:23:22.000Z</time>
        <extensions>
          <ns3:TrackPointExtension>
            <ns3:atemp>26.0</ns3:atemp>
            <ns3:hr>80</ns3:hr>
          </ns3:TrackPointExtension>
        </extensions>
      </trkpt>
      <trkpt lat="36.77037094719707965850830078125" lon="-118.4338163025677204132080078125">
        <ele>3387.60009765625</ele>
        <time>2021-06-25T17:23:24.000Z</time>
        <extensions>
          <ns3:TrackPointExtension>
            <ns3:atemp>26.0</ns3:atemp>
            <ns3:hr>83</ns3:hr>
          </ns3:TrackPointExtension>
        </extensions>
      </trkpt>
      <trkpt lat="36.77037195302546024322509765625" lon="-118.43382661230862140655517578125">
        <ele>3387.800048828125</ele>
        <time>2021-06-25T17:23:25.000Z</time>
        <extensions>
          <ns3:TrackPointExtension>
            <ns3:atemp>26.0</ns3:atemp>
            <ns3:hr>84</ns3:hr>
          </ns3:TrackPointExtension>
        </extensions>
      </trkpt>
      <trkpt lat="36.77036306820809841156005859375" lon="-118.4338665939867496490478515625">
        <ele>3388.60009765625</ele>
        <time>2021-06-25T17:23:29.000Z</time>
        <extensions>
          <ns3:TrackPointExtension>
            <ns3:atemp>26.0</ns3:atemp>
            <ns3:hr>84</ns3:hr>
          </ns3:TrackPointExtension>
        </extensions>
      </trkpt>
      <trkpt lat="36.7703670077025890350341796875" lon="-118.43387086875736713409423828125">
        <ele>3389</ele>
        <time>2021-06-25T17:23:31.000Z</time>
        <extensions>
          <ns3:TrackPointExtension>
            <ns3:atemp>26.0</ns3:atemp>
            <ns3:hr>84</ns3:hr>
          </ns3:TrackPointExtension>
        </extensions>
      </trkpt>
      <trkpt lat="36.77036658860743045806884765625" lon="-118.433868773281574249267578125">
        <ele>3389.800048828125</ele>
        <time>2021-06-25T17:23:35.000Z</time>
        <extensions>
          <ns3:TrackPointExtension>
            <ns3:atemp>26.0</ns3:atemp>
            <ns3:hr>87</ns3:hr>
          </ns3:TrackPointExtension>
        </extensions>
      </trkpt>
      <trkpt lat="36.77037849090993404388427734375" lon="-118.43387782573699951171875">
        <ele>3389.800048828125</ele>
        <time>2021-06-25T17:23:37.000Z</time>
        <extensions>
          <ns3:TrackPointExtension>
            <ns3:atemp>26.0</ns3:atemp>
            <ns3:hr>88</ns3:hr>
          </ns3:TrackPointExtension>
        </extensions>
      </trkpt>
      <trkpt lat="36.77038134075701236724853515625" lon="-118.43387740664184093475341796875">
        <ele>3390</ele>
        <time>2021-06-25T17:23:39.000Z</time>
        <extensions>
          <ns3:TrackPointExtension>
            <ns3:atemp>26.0</ns3:atemp>
            <ns3:hr>91</ns3:hr>
          </ns3:TrackPointExtension>
        </extensions>
      </trkpt>
      <trkpt lat="36.77038217894732952117919921875" lon="-118.4338789992034435272216796875">
        <ele>3390.39990234375</ele>
        <time>2021-06-25T17:23:41.000Z</time>
        <extensions>
          <ns3:TrackPointExtension>
            <ns3:atemp>26.0</ns3:atemp>
            <ns3:hr>92</ns3:hr>
          </ns3:TrackPointExtension>
        </extensions>
      </trkpt>
      <trkpt lat="36.7703725397586822509765625" lon="-118.4338903985917568206787109375">
        <ele>3391.199951171875</ele>
        <time>2021-06-25T17:23:47.000Z</time>
        <extensions>
          <ns3:TrackPointExtension>
            <ns3:atemp>26.0</ns3:atemp>
            <ns3:hr>92</ns3:hr>
          </ns3:TrackPointExtension>
        </extensions>
      </trkpt>
      <trkpt lat="36.77036591805517673492431640625" lon="-118.4339088387787342071533203125">
        <ele>3391.60009765625</ele>
        <time>2021-06-25T17:23:49.000Z</time>
        <extensions>
          <ns3:TrackPointExtension>
            <ns3:atemp>26.0</ns3:atemp>
            <ns3:hr>93</ns3:hr>
          </ns3:TrackPointExtension>
        </extensions>
      </trkpt>
      <trkpt lat="36.77040514536201953887939453125" lon="-118.433933146297931671142578125">
        <ele>3391.60009765625</ele>
        <time>2021-06-25T17:23:55.000Z</time>
        <extensions>
          <ns3:TrackPointExtension>
            <ns3:atemp>26.0</ns3:atemp>
            <ns3:hr>94</ns3:hr>
          </ns3:TrackPointExtension>
        </extensions>
      </trkpt>
      <trkpt lat="36.770411431789398193359375" lon="-118.43393658287823200225830078125">
        <ele>3392.60009765625</ele>
        <time>2021-06-25T17:23:58.000Z</time>
        <extensions>
          <ns3:TrackPointExtension>
            <ns3:atemp>26.0</ns3:atemp>
            <ns3:hr>92</ns3:hr>
          </ns3:TrackPointExtension>
        </extensions>
      </trkpt>
      <trkpt lat="36.77043045870959758758544921875" lon="-118.43396835029125213623046875">
        <ele>3392.800048828125</ele>
        <time>2021-06-25T17:24:02.000Z</time>
        <extensions>
          <ns3:TrackPointExtension>
            <ns3:atemp>26.0</ns3:atemp>
            <ns3:hr>91</ns3:hr>
          </ns3:TrackPointExtension>
        </extensions>
      </trkpt>
      <trkpt lat="36.77040615119040012359619140625" lon="-118.43397782184183597564697265625">
        <ele>3394</ele>
        <time>2021-06-25T17:24:08.000Z</time>
        <extensions>
          <ns3:TrackPointExtension>
            <ns3:atemp>26.0</ns3:atemp>
            <ns3:hr>94</ns3:hr>
          </ns3:TrackPointExtension>
        </extensions>
      </trkpt>
      <trkpt lat="36.7703981883823871612548828125" lon="-118.4339866228401660919189453125">
        <ele>3394.199951171875</ele>
        <time>2021-06-25T17:24:10.000Z</time>
        <extensions>
          <ns3:TrackPointExtension>
            <ns3:atemp>26.0</ns3:atemp>
            <ns3:hr>96</ns3:hr>
          </ns3:TrackPointExtension>
        </extensions>
      </trkpt>
      <trkpt lat="36.7703945003449916839599609375" lon="-118.434015624225139617919921875">
        <ele>3395.39990234375</ele>
        <time>2021-06-25T17:24:13.000Z</time>
        <extensions>
          <ns3:TrackPointExtension>
            <ns3:atemp>26.0</ns3:atemp>
            <ns3:hr>97</ns3:hr>
          </ns3:TrackPointExtension>
        </extensions>
      </trkpt>
      <trkpt lat="36.77040128968656063079833984375" lon="-118.43405057676136493682861328125">
        <ele>3395.39990234375</ele>
        <time>2021-06-25T17:24:16.000Z</time>
        <extensions>
          <ns3:TrackPointExtension>
            <ns3:atemp>26.0</ns3:atemp>
            <ns3:hr>96</ns3:hr>
          </ns3:TrackPointExtension>
        </extensions>
      </trkpt>
      <trkpt lat="36.77038318477571010589599609375" lon="-118.43404605053365230560302734375">
        <ele>3395.199951171875</ele>
        <time>2021-06-25T17:24:17.000Z</time>
        <extensions>
          <ns3:TrackPointExtension>
            <ns3:atemp>26.0</ns3:atemp>
            <ns3:hr>93</ns3:hr>
          </ns3:TrackPointExtension>
        </extensions>
      </trkpt>
      <trkpt lat="36.770370863378047943115234375" lon="-118.4340479783713817596435546875">
        <ele>3395.199951171875</ele>
        <time>2021-06-25T17:24:19.000Z</time>
        <extensions>
          <ns3:TrackPointExtension>
            <ns3:atemp>26.0</ns3:atemp>
            <ns3:hr>96</ns3:hr>
          </ns3:TrackPointExtension>
        </extensions>
      </trkpt>
      <trkpt lat="36.77037656307220458984375" lon="-118.43407840467989444732666015625">
        <ele>3396.39990234375</ele>
        <time>2021-06-25T17:24:22.000Z</time>
        <extensions>
          <ns3:TrackPointExtension>
            <ns3:atemp>26.0</ns3:atemp>
            <ns3:hr>96</ns3:hr>
          </ns3:TrackPointExtension>
        </extensions>
      </trkpt>
      <trkpt lat="36.770375557243824005126953125" lon="-118.4340858645737171173095703125">
        <ele>3396.39990234375</ele>
        <time>2021-06-25T17:24:23.000Z</time>
        <extensions>
          <ns3:TrackPointExtension>
            <ns3:atemp>26.0</ns3:atemp>
            <ns3:hr>96</ns3:hr>
          </ns3:TrackPointExtension>
        </extensions>
      </trkpt>
      <trkpt lat="36.77038100548088550567626953125" lon="-118.43416054733097553253173828125">
        <ele>3397</ele>
        <time>2021-06-25T17:24:31.000Z</time>
        <extensions>
          <ns3:TrackPointExtension>
            <ns3:atemp>26.0</ns3:atemp>
            <ns3:hr>99</ns3:hr>
          </ns3:TrackPointExtension>
        </extensions>
      </trkpt>
      <trkpt lat="36.77040145732462406158447265625" lon="-118.43417999334633350372314453125">
        <ele>3397.199951171875</ele>
        <time>2021-06-25T17:24:34.000Z</time>
        <extensions>
          <ns3:TrackPointExtension>
            <ns3:atemp>26.0</ns3:atemp>
            <ns3:hr>103</ns3:hr>
          </ns3:TrackPointExtension>
        </extensions>
      </trkpt>
      <trkpt lat="36.77040598355233669281005859375" lon="-118.4341737069189548492431640625">
        <ele>3397.39990234375</ele>
        <time>2021-06-25T17:24:35.000Z</time>
        <extensions>
          <ns3:TrackPointExtension>
            <ns3:atemp>26.0</ns3:atemp>
            <ns3:hr>105</ns3:hr>
          </ns3:TrackPointExtension>
        </extensions>
      </trkpt>
      <trkpt lat="36.77043129689991474151611328125" lon="-118.4341814182698726654052734375">
        <ele>3397.60009765625</ele>
        <time>2021-06-25T17:24:38.000Z</time>
        <extensions>
          <ns3:TrackPointExtension>
            <ns3:atemp>26.0</ns3:atemp>
            <ns3:hr>109</ns3:hr>
          </ns3:TrackPointExtension>
        </extensions>
      </trkpt>
      <trkpt lat="36.77043129689991474151611328125" lon="-118.4341867826879024505615234375">
        <ele>3398</ele>
        <time>2021-06-25T17:24:39.000Z</time>
        <extensions>
          <ns3:TrackPointExtension>
            <ns3:atemp>26.0</ns3:atemp>
            <ns3:hr>113</ns3:hr>
          </ns3:TrackPointExtension>
        </extensions>
      </trkpt>
      <trkpt lat="36.77045225165784358978271484375" lon="-118.434213101863861083984375">
        <ele>3398.39990234375</ele>
        <time>2021-06-25T17:24:42.000Z</time>
        <extensions>
          <ns3:TrackPointExtension>
            <ns3:atemp>26.0</ns3:atemp>
            <ns3:hr>116</ns3:hr>
          </ns3:TrackPointExtension>
        </extensions>
      </trkpt>
      <trkpt lat="36.77046197466552257537841796875" lon="-118.43421804718673229217529296875">
        <ele>3398.800048828125</ele>
        <time>2021-06-25T17:24:43.000Z</time>
        <extensions>
          <ns3:TrackPointExtension>
            <ns3:atemp>26.0</ns3:atemp>
            <ns3:hr>116</ns3:hr>
          </ns3:TrackPointExtension>
        </extensions>
      </trkpt>
      <trkpt lat="36.7704900540411472320556640625" lon="-118.434261381626129150390625">
        <ele>3399.60009765625</ele>
        <time>2021-06-25T17:24:50.000Z</time>
        <extensions>
          <ns3:TrackPointExtension>
            <ns3:atemp>26.0</ns3:atemp>
            <ns3:hr>116</ns3:hr>
          </ns3:TrackPointExtension>
        </extensions>
      </trkpt>
      <trkpt lat="36.7704880423843860626220703125" lon="-118.43425962142646312713623046875">
        <ele>3399.800048828125</ele>
        <time>2021-06-25T17:24:51.000Z</time>
        <extensions>
          <ns3:TrackPointExtension>
            <ns3:atemp>26.0</ns3:atemp>
            <ns3:hr>116</ns3:hr>
          </ns3:TrackPointExtension>
        </extensions>
      </trkpt>
      <trkpt lat="36.77047253586351871490478515625" lon="-118.434258364140987396240234375">
        <ele>3400.800048828125</ele>
        <time>2021-06-25T17:24:55.000Z</time>
        <extensions>
          <ns3:TrackPointExtension>
            <ns3:atemp>26.0</ns3:atemp>
            <ns3:hr>119</ns3:hr>
          </ns3:TrackPointExtension>
        </extensions>
      </trkpt>
      <trkpt lat="36.770471446216106414794921875" lon="-118.43426498584449291229248046875">
        <ele>3401.39990234375</ele>
        <time>2021-06-25T17:24:58.000Z</time>
        <extensions>
          <ns3:TrackPointExtension>
            <ns3:atemp>26.0</ns3:atemp>
            <ns3:hr>122</ns3:hr>
          </ns3:TrackPointExtension>
        </extensions>
      </trkpt>
      <trkpt lat="36.7704639025032520294189453125" lon="-118.43426582403481006622314453125">
        <ele>3401.39990234375</ele>
        <time>2021-06-25T17:24:59.000Z</time>
        <extensions>
          <ns3:TrackPointExtension>
            <ns3:atemp>26.0</ns3:atemp>
            <ns3:hr>123</ns3:hr>
          </ns3:TrackPointExtension>
        </extensions>
      </trkpt>
      <trkpt lat="36.7704635672271251678466796875" lon="-118.43428527005016803741455078125">
        <ele>3401.800048828125</ele>
        <time>2021-06-25T17:25:03.000Z</time>
        <extensions>
          <ns3:TrackPointExtension>
            <ns3:atemp>26.0</ns3:atemp>
            <ns3:hr>124</ns3:hr>
          </ns3:TrackPointExtension>
        </extensions>
      </trkpt>
      <trkpt lat="36.77044202573597431182861328125" lon="-118.4343011118471622467041015625">
        <ele>3402.39990234375</ele>
        <time>2021-06-25T17:25:06.000Z</time>
        <extensions>
          <ns3:TrackPointExtension>
            <ns3:atemp>26.0</ns3:atemp>
            <ns3:hr>124</ns3:hr>
          </ns3:TrackPointExtension>
        </extensions>
      </trkpt>
      <trkpt lat="36.77045158110558986663818359375" lon="-118.4343145228922367095947265625">
        <ele>3403</ele>
        <time>2021-06-25T17:25:09.000Z</time>
        <extensions>
          <ns3:TrackPointExtension>
            <ns3:atemp>26.0</ns3:atemp>
            <ns3:hr>125</ns3:hr>
          </ns3:TrackPointExtension>
        </extensions>
      </trkpt>
      <trkpt lat="36.77046038210391998291015625" lon="-118.43432349152863025665283203125">
        <ele>3404</ele>
        <time>2021-06-25T17:25:12.000Z</time>
        <extensions>
          <ns3:TrackPointExtension>
            <ns3:atemp>26.0</ns3:atemp>
            <ns3:hr>125</ns3:hr>
          </ns3:TrackPointExtension>
        </extensions>
      </trkpt>
      <trkpt lat="36.77046113647520542144775390625" lon="-118.43432374298572540283203125">
        <ele>3404.199951171875</ele>
        <time>2021-06-25T17:25:13.000Z</time>
        <extensions>
          <ns3:TrackPointExtension>
            <ns3:atemp>26.0</ns3:atemp>
            <ns3:hr>125</ns3:hr>
          </ns3:TrackPointExtension>
        </extensions>
      </trkpt>
      <trkpt lat="36.770470775663852691650390625" lon="-118.43436053954064846038818359375">
        <ele>3404.60009765625</ele>
        <time>2021-06-25T17:25:18.000Z</time>
        <extensions>
          <ns3:TrackPointExtension>
            <ns3:atemp>26.0</ns3:atemp>
            <ns3:hr>122</ns3:hr>
          </ns3:TrackPointExtension>
        </extensions>
      </trkpt>
      <trkpt lat="36.7704779841005802154541015625" lon="-118.4343795664608478546142578125">
        <ele>3405.39990234375</ele>
        <time>2021-06-25T17:25:21.000Z</time>
        <extensions>
          <ns3:TrackPointExtension>
            <ns3:atemp>26.0</ns3:atemp>
            <ns3:hr>119</ns3:hr>
          </ns3:TrackPointExtension>
        </extensions>
      </trkpt>
      <trkpt lat="36.7704799957573413848876953125" lon="-118.43438501469790935516357421875">
        <ele>3405.60009765625</ele>
        <time>2021-06-25T17:25:22.000Z</time>
        <extensions>
          <ns3:TrackPointExtension>
            <ns3:atemp>26.0</ns3:atemp>
            <ns3:hr>118</ns3:hr>
          </ns3:TrackPointExtension>
        </extensions>
      </trkpt>
      <trkpt lat="36.7704950831830501556396484375" lon="-118.4344305284321308135986328125">
        <ele>3406.199951171875</ele>
        <time>2021-06-25T17:25:28.000Z</time>
        <extensions>
          <ns3:TrackPointExtension>
            <ns3:atemp>26.0</ns3:atemp>
            <ns3:hr>115</ns3:hr>
          </ns3:TrackPointExtension>
        </extensions>
      </trkpt>
      <trkpt lat="36.77048946730792522430419921875" lon="-118.4344355575740337371826171875">
        <ele>3406.39990234375</ele>
        <time>2021-06-25T17:25:29.000Z</time>
        <extensions>
          <ns3:TrackPointExtension>
            <ns3:atemp>26.0</ns3:atemp>
            <ns3:hr>117</ns3:hr>
          </ns3:TrackPointExtension>
        </extensions>
      </trkpt>
      <trkpt lat="36.77048242650926113128662109375" lon="-118.43444905243813991546630859375">
        <ele>3406.800048828125</ele>
        <time>2021-06-25T17:25:33.000Z</time>
        <extensions>
          <ns3:TrackPointExtension>
            <ns3:atemp>26.0</ns3:atemp>
            <ns3:hr>120</ns3:hr>
          </ns3:TrackPointExtension>
        </extensions>
      </trkpt>
      <trkpt lat="36.77049013786017894744873046875" lon="-118.43447126448154449462890625">
        <ele>3407.60009765625</ele>
        <time>2021-06-25T17:25:38.000Z</time>
        <extensions>
          <ns3:TrackPointExtension>
            <ns3:atemp>26.0</ns3:atemp>
            <ns3:hr>120</ns3:hr>
          </ns3:TrackPointExtension>
        </extensions>
      </trkpt>
      <trkpt lat="36.770486198365688323974609375" lon="-118.4344938956201076507568359375">
        <ele>3408.39990234375</ele>
        <time>2021-06-25T17:25:44.000Z</time>
        <extensions>
          <ns3:TrackPointExtension>
            <ns3:atemp>26.0</ns3:atemp>
            <ns3:hr>122</ns3:hr>
          </ns3:TrackPointExtension>
        </extensions>
      </trkpt>
      <trkpt lat="36.770491562783718109130859375" lon="-118.43449783511459827423095703125">
        <ele>3408.800048828125</ele>
        <time>2021-06-25T17:25:45.000Z</time>
        <extensions>
          <ns3:TrackPointExtension>
            <ns3:atemp>26.0</ns3:atemp>
            <ns3:hr>122</ns3:hr>
          </ns3:TrackPointExtension>
        </extensions>
      </trkpt>
      <trkpt lat="36.7705172114074230194091796875" lon="-118.43453136272728443145751953125">
        <ele>3409.800048828125</ele>
        <time>2021-06-25T17:25:50.000Z</time>
        <extensions>
          <ns3:TrackPointExtension>
            <ns3:atemp>26.0</ns3:atemp>
            <ns3:hr>125</ns3:hr>
          </ns3:TrackPointExtension>
        </extensions>
      </trkpt>
      <trkpt lat="36.7705155350267887115478515625" lon="-118.43454410322010517120361328125">
        <ele>3410.199951171875</ele>
        <time>2021-06-25T17:25:55.000Z</time>
        <extensions>
          <ns3:TrackPointExtension>
            <ns3:atemp>26.0</ns3:atemp>
            <ns3:hr>127</ns3:hr>
          </ns3:TrackPointExtension>
        </extensions>
      </trkpt>
      <trkpt lat="36.77053975872695446014404296875" lon="-118.43459305353462696075439453125">
        <ele>3410.800048828125</ele>
        <time>2021-06-25T17:26:01.000Z</time>
        <extensions>
          <ns3:TrackPointExtension>
            <ns3:atemp>26.0</ns3:atemp>
            <ns3:hr>124</ns3:hr>
          </ns3:TrackPointExtension>
        </extensions>
      </trkpt>
      <trkpt lat="36.770540513098239898681640625" lon="-118.43461417593061923980712890625">
        <ele>3411.39990234375</ele>
        <time>2021-06-25T17:26:03.000Z</time>
        <extensions>
          <ns3:TrackPointExtension>
            <ns3:atemp>26.0</ns3:atemp>
            <ns3:hr>124</ns3:hr>
          </ns3:TrackPointExtension>
        </extensions>
      </trkpt>
      <trkpt lat="36.77054126746952533721923828125" lon="-118.43462171964347362518310546875">
        <ele>3411.39990234375</ele>
        <time>2021-06-25T17:26:04.000Z</time>
        <extensions>
          <ns3:TrackPointExtension>
            <ns3:atemp>26.0</ns3:atemp>
            <ns3:hr>124</ns3:hr>
          </ns3:TrackPointExtension>
        </extensions>
      </trkpt>
      <trkpt lat="36.77054143510758876800537109375" lon="-118.43464200384914875030517578125">
        <ele>3412</ele>
        <time>2021-06-25T17:26:09.000Z</time>
        <extensions>
          <ns3:TrackPointExtension>
            <ns3:atemp>26.0</ns3:atemp>
            <ns3:hr>121</ns3:hr>
          </ns3:TrackPointExtension>
        </extensions>
      </trkpt>
      <trkpt lat="36.77054579369723796844482421875" lon="-118.434653319418430328369140625">
        <ele>3412.199951171875</ele>
        <time>2021-06-25T17:26:11.000Z</time>
        <extensions>
          <ns3:TrackPointExtension>
            <ns3:atemp>26.0</ns3:atemp>
            <ns3:hr>120</ns3:hr>
          </ns3:TrackPointExtension>
        </extensions>
      </trkpt>
      <trkpt lat="36.77054696716368198394775390625" lon="-118.4346712566912174224853515625">
        <ele>3413</ele>
        <time>2021-06-25T17:26:13.000Z</time>
        <extensions>
          <ns3:TrackPointExtension>
            <ns3:atemp>26.0</ns3:atemp>
            <ns3:hr>120</ns3:hr>
          </ns3:TrackPointExtension>
        </extensions>
      </trkpt>
      <trkpt lat="36.770541854202747344970703125" lon="-118.43467913568019866943359375">
        <ele>3413.39990234375</ele>
        <time>2021-06-25T17:26:16.000Z</time>
        <extensions>
          <ns3:TrackPointExtension>
            <ns3:atemp>26.0</ns3:atemp>
            <ns3:hr>117</ns3:hr>
          </ns3:TrackPointExtension>
        </extensions>
      </trkpt>
      <trkpt lat="36.770531795918941497802734375" lon="-118.43467888422310352325439453125">
        <ele>3413.800048828125</ele>
        <time>2021-06-25T17:26:19.000Z</time>
        <extensions>
          <ns3:TrackPointExtension>
            <ns3:atemp>26.0</ns3:atemp>
            <ns3:hr>116</ns3:hr>
          </ns3:TrackPointExtension>
        </extensions>
      </trkpt>
      <trkpt lat="36.77053238265216350555419921875" lon="-118.43467787839472293853759765625">
        <ele>3414.199951171875</ele>
        <time>2021-06-25T17:26:20.000Z</time>
        <extensions>
          <ns3:TrackPointExtension>
            <ns3:atemp>26.0</ns3:atemp>
            <ns3:hr>115</ns3:hr>
          </ns3:TrackPointExtension>
        </extensions>
      </trkpt>
      <trkpt lat="36.77052416838705539703369140625" lon="-118.43470168299973011016845703125">
        <ele>3415</ele>
        <time>2021-06-25T17:26:25.000Z</time>
        <extensions>
          <ns3:TrackPointExtension>
            <ns3:atemp>26.0</ns3:atemp>
            <ns3:hr>112</ns3:hr>
          </ns3:TrackPointExtension>
        </extensions>
      </trkpt>
      <trkpt lat="36.7705265991389751434326171875" lon="-118.43471090309321880340576171875">
        <ele>3415</ele>
        <time>2021-06-25T17:26:26.000Z</time>
        <extensions>
          <ns3:TrackPointExtension>
            <ns3:atemp>26.0</ns3:atemp>
            <ns3:hr>112</ns3:hr>
          </ns3:TrackPointExtension>
        </extensions>
      </trkpt>
      <trkpt lat="36.770528443157672882080078125" lon="-118.4347336180508136749267578125">
        <ele>3415.199951171875</ele>
        <time>2021-06-25T17:26:29.000Z</time>
        <extensions>
          <ns3:TrackPointExtension>
            <ns3:atemp>26.0</ns3:atemp>
            <ns3:hr>111</ns3:hr>
          </ns3:TrackPointExtension>
        </extensions>
      </trkpt>
      <trkpt lat="36.77052333019673824310302734375" lon="-118.4347500465810298919677734375">
        <ele>3415.800048828125</ele>
        <time>2021-06-25T17:26:32.000Z</time>
        <extensions>
          <ns3:TrackPointExtension>
            <ns3:atemp>26.0</ns3:atemp>
            <ns3:hr>111</ns3:hr>
          </ns3:TrackPointExtension>
        </extensions>
      </trkpt>
      <trkpt lat="36.77052685059607028961181640625" lon="-118.43476957641541957855224609375">
        <ele>3416.199951171875</ele>
        <time>2021-06-25T17:26:35.000Z</time>
        <extensions>
          <ns3:TrackPointExtension>
            <ns3:atemp>26.0</ns3:atemp>
            <ns3:hr>114</ns3:hr>
          </ns3:TrackPointExtension>
        </extensions>
      </trkpt>
      <trkpt lat="36.7705272696912288665771484375" lon="-118.43477644957602024078369140625">
        <ele>3416.60009765625</ele>
        <time>2021-06-25T17:26:36.000Z</time>
        <extensions>
          <ns3:TrackPointExtension>
            <ns3:atemp>26.0</ns3:atemp>
            <ns3:hr>115</ns3:hr>
          </ns3:TrackPointExtension>
        </extensions>
      </trkpt>
      <trkpt lat="36.77052299492061138153076171875" lon="-118.43480964191257953643798828125">
        <ele>3416.60009765625</ele>
        <time>2021-06-25T17:26:40.000Z</time>
        <extensions>
          <ns3:TrackPointExtension>
            <ns3:atemp>27.0</ns3:atemp>
            <ns3:hr>117</ns3:hr>
          </ns3:TrackPointExtension>
        </extensions>
      </trkpt>
      <trkpt lat="36.77051913924515247344970703125" lon="-118.43481265939772129058837890625">
        <ele>3416.800048828125</ele>
        <time>2021-06-25T17:26:41.000Z</time>
        <extensions>
          <ns3:TrackPointExtension>
            <ns3:atemp>26.0</ns3:atemp>
            <ns3:hr>118</ns3:hr>
          </ns3:TrackPointExtension>
        </extensions>
      </trkpt>
      <trkpt lat="36.77051612176001071929931640625" lon="-118.43483495526015758514404296875">
        <ele>3417.199951171875</ele>
        <time>2021-06-25T17:26:44.000Z</time>
        <extensions>
          <ns3:TrackPointExtension>
            <ns3:atemp>27.0</ns3:atemp>
            <ns3:hr>119</ns3:hr>
          </ns3:TrackPointExtension>
        </extensions>
      </trkpt>
      <trkpt lat="36.77051939070224761962890625" lon="-118.43485574238002300262451171875">
        <ele>3417.199951171875</ele>
        <time>2021-06-25T17:26:46.000Z</time>
        <extensions>
          <ns3:TrackPointExtension>
            <ns3:atemp>27.0</ns3:atemp>
            <ns3:hr>121</ns3:hr>
          </ns3:TrackPointExtension>
        </extensions>
      </trkpt>
      <trkpt lat="36.77052014507353305816650390625" lon="-118.43485884368419647216796875">
        <ele>3417.800048828125</ele>
        <time>2021-06-25T17:26:47.000Z</time>
        <extensions>
          <ns3:TrackPointExtension>
            <ns3:atemp>27.0</ns3:atemp>
            <ns3:hr>120</ns3:hr>
          </ns3:TrackPointExtension>
        </extensions>
      </trkpt>
      <trkpt lat="36.7705339752137660980224609375" lon="-118.4348828159272670745849609375">
        <ele>3418.199951171875</ele>
        <time>2021-06-25T17:26:50.000Z</time>
        <extensions>
          <ns3:TrackPointExtension>
            <ns3:atemp>27.0</ns3:atemp>
            <ns3:hr>121</ns3:hr>
          </ns3:TrackPointExtension>
        </extensions>
      </trkpt>
      <trkpt lat="36.77055199630558490753173828125" lon="-118.4348982386291027069091796875">
        <ele>3418.800048828125</ele>
        <time>2021-06-25T17:26:54.000Z</time>
        <extensions>
          <ns3:TrackPointExtension>
            <ns3:atemp>27.0</ns3:atemp>
            <ns3:hr>123</ns3:hr>
          </ns3:TrackPointExtension>
        </extensions>
      </trkpt>
      <trkpt lat="36.77055736072361469268798828125" lon="-118.4348915331065654754638671875">
        <ele>3419.199951171875</ele>
        <time>2021-06-25T17:26:55.000Z</time>
        <extensions>
          <ns3:TrackPointExtension>
            <ns3:atemp>27.0</ns3:atemp>
            <ns3:hr>123</ns3:hr>
          </ns3:TrackPointExtension>
        </extensions>
      </trkpt>
      <trkpt lat="36.7705577798187732696533203125" lon="-118.43488700687885284423828125">
        <ele>3419.39990234375</ele>
        <time>2021-06-25T17:26:56.000Z</time>
        <extensions>
          <ns3:TrackPointExtension>
            <ns3:atemp>27.0</ns3:atemp>
            <ns3:hr>123</ns3:hr>
          </ns3:TrackPointExtension>
        </extensions>
      </trkpt>
      <trkpt lat="36.7705493979156017303466796875" lon="-118.4348962269723415374755859375">
        <ele>3419.800048828125</ele>
        <time>2021-06-25T17:26:58.000Z</time>
        <extensions>
          <ns3:TrackPointExtension>
            <ns3:atemp>27.0</ns3:atemp>
            <ns3:hr>123</ns3:hr>
          </ns3:TrackPointExtension>
        </extensions>
      </trkpt>
      <trkpt lat="36.770549230277538299560546875" lon="-118.4348984062671661376953125">
        <ele>3419.800048828125</ele>
        <time>2021-06-25T17:26:59.000Z</time>
        <extensions>
          <ns3:TrackPointExtension>
            <ns3:atemp>27.0</ns3:atemp>
            <ns3:hr>122</ns3:hr>
          </ns3:TrackPointExtension>
        </extensions>
      </trkpt>
      <trkpt lat="36.77054621279239654541015625" lon="-118.43489798717200756072998046875">
        <ele>3420</ele>
        <time>2021-06-25T17:27:01.000Z</time>
        <extensions>
          <ns3:TrackPointExtension>
            <ns3:atemp>27.0</ns3:atemp>
            <ns3:hr>122</ns3:hr>
          </ns3:TrackPointExtension>
        </extensions>
      </trkpt>
      <trkpt lat="36.77052475512027740478515625" lon="-118.43493419699370861053466796875">
        <ele>3420.60009765625</ele>
        <time>2021-06-25T17:27:09.000Z</time>
        <extensions>
          <ns3:TrackPointExtension>
            <ns3:atemp>27.0</ns3:atemp>
            <ns3:hr>121</ns3:hr>
          </ns3:TrackPointExtension>
        </extensions>
      </trkpt>
      <trkpt lat="36.770525760948657989501953125" lon="-118.4349453449249267578125">
        <ele>3421</ele>
        <time>2021-06-25T17:27:11.000Z</time>
        <extensions>
          <ns3:TrackPointExtension>
            <ns3:atemp>27.0</ns3:atemp>
            <ns3:hr>121</ns3:hr>
          </ns3:TrackPointExtension>
        </extensions>
      </trkpt>
      <trkpt lat="36.77053338848054409027099609375" lon="-118.434949032962322235107421875">
        <ele>3422.199951171875</ele>
        <time>2021-06-25T17:27:15.000Z</time>
        <extensions>
          <ns3:TrackPointExtension>
            <ns3:atemp>27.0</ns3:atemp>
            <ns3:hr>120</ns3:hr>
          </ns3:TrackPointExtension>
        </extensions>
      </trkpt>
      <trkpt lat="36.77053221501410007476806640625" lon="-118.43494961969554424285888671875">
        <ele>3422.39990234375</ele>
        <time>2021-06-25T17:27:16.000Z</time>
        <extensions>
          <ns3:TrackPointExtension>
            <ns3:atemp>27.0</ns3:atemp>
            <ns3:hr>121</ns3:hr>
          </ns3:TrackPointExtension>
        </extensions>
      </trkpt>
      <trkpt lat="36.7705520801246166229248046875" lon="-118.43496353365480899810791015625">
        <ele>3423.199951171875</ele>
        <time>2021-06-25T17:27:19.000Z</time>
        <extensions>
          <ns3:TrackPointExtension>
            <ns3:atemp>27.0</ns3:atemp>
            <ns3:hr>122</ns3:hr>
          </ns3:TrackPointExtension>
        </extensions>
      </trkpt>
      <trkpt lat="36.77056708373129367828369140625" lon="-118.43495674431324005126953125">
        <ele>3423.199951171875</ele>
        <time>2021-06-25T17:27:21.000Z</time>
        <extensions>
          <ns3:TrackPointExtension>
            <ns3:atemp>27.0</ns3:atemp>
            <ns3:hr>125</ns3:hr>
          </ns3:TrackPointExtension>
        </extensions>
      </trkpt>
      <trkpt lat="36.770593822002410888671875" lon="-118.4349381364881992340087890625">
        <ele>3423.199951171875</ele>
        <time>2021-06-25T17:27:26.000Z</time>
        <extensions>
          <ns3:TrackPointExtension>
            <ns3:atemp>27.0</ns3:atemp>
            <ns3:hr>125</ns3:hr>
          </ns3:TrackPointExtension>
        </extensions>
      </trkpt>
      <trkpt lat="36.770593822002410888671875" lon="-118.4349381364881992340087890625">
        <ele>3424.199951171875</ele>
        <time>2021-06-25T17:27:36.000Z</time>
        <extensions>
          <ns3:TrackPointExtension>
            <ns3:atemp>27.0</ns3:atemp>
            <ns3:hr>125</ns3:hr>
          </ns3:TrackPointExtension>
        </extensions>
      </trkpt>
      <trkpt lat="36.770593822002410888671875" lon="-118.434945009648799896240234375">
        <ele>3425</ele>
        <time>2021-06-25T17:27:42.000Z</time>
        <extensions>
          <ns3:TrackPointExtension>
            <ns3:atemp>27.0</ns3:atemp>
            <ns3:hr>122</ns3:hr>
          </ns3:TrackPointExtension>
        </extensions>
      </trkpt>
      <trkpt lat="36.770593822002410888671875" lon="-118.43494727276265621185302734375">
        <ele>3425.39990234375</ele>
        <time>2021-06-25T17:27:43.000Z</time>
        <extensions>
          <ns3:TrackPointExtension>
            <ns3:atemp>26.0</ns3:atemp>
            <ns3:hr>120</ns3:hr>
          </ns3:TrackPointExtension>
        </extensions>
      </trkpt>
      <trkpt lat="36.77061016671359539031982421875" lon="-118.43494333326816558837890625">
        <ele>3425</ele>
        <time>2021-06-25T17:27:55.000Z</time>
        <extensions>
          <ns3:TrackPointExtension>
            <ns3:atemp>26.0</ns3:atemp>
            <ns3:hr>117</ns3:hr>
          </ns3:TrackPointExtension>
        </extensions>
      </trkpt>
      <trkpt lat="36.77060522139072418212890625" lon="-118.43493034131824970245361328125">
        <ele>3424.800048828125</ele>
        <time>2021-06-25T17:28:01.000Z</time>
        <extensions>
          <ns3:TrackPointExtension>
            <ns3:atemp>26.0</ns3:atemp>
            <ns3:hr>114</ns3:hr>
          </ns3:TrackPointExtension>
        </extensions>
      </trkpt>
      <trkpt lat="36.77060522139072418212890625" lon="-118.43493034131824970245361328125">
        <ele>3424.800048828125</ele>
        <time>2021-06-25T17:28:03.000Z</time>
        <extensions>
          <ns3:TrackPointExtension>
            <ns3:atemp>26.0</ns3:atemp>
            <ns3:hr>113</ns3:hr>
          </ns3:TrackPointExtension>
        </extensions>
      </trkpt>
      <trkpt lat="36.77063715644180774688720703125" lon="-118.43492078594863414764404296875">
        <ele>3424.800048828125</ele>
        <time>2021-06-25T17:28:13.000Z</time>
        <extensions>
          <ns3:TrackPointExtension>
            <ns3:atemp>27.0</ns3:atemp>
            <ns3:hr>110</ns3:hr>
          </ns3:TrackPointExtension>
        </extensions>
      </trkpt>
      <trkpt lat="36.77063883282244205474853515625" lon="-118.43491424806416034698486328125">
        <ele>3424.800048828125</ele>
        <time>2021-06-25T17:28:19.000Z</time>
        <extensions>
          <ns3:TrackPointExtension>
            <ns3:atemp>27.0</ns3:atemp>
            <ns3:hr>107</ns3:hr>
          </ns3:TrackPointExtension>
        </extensions>
      </trkpt>
      <trkpt lat="36.7706385813653469085693359375" lon="-118.43491424806416034698486328125">
        <ele>3425</ele>
        <time>2021-06-25T17:28:22.000Z</time>
        <extensions>
          <ns3:TrackPointExtension>
            <ns3:atemp>27.0</ns3:atemp>
            <ns3:hr>103</ns3:hr>
          </ns3:TrackPointExtension>
        </extensions>
      </trkpt>
      <trkpt lat="36.7706385813653469085693359375" lon="-118.43491424806416034698486328125">
        <ele>3424.800048828125</ele>
        <time>2021-06-25T17:28:24.000Z</time>
        <extensions>
          <ns3:TrackPointExtension>
            <ns3:atemp>27.0</ns3:atemp>
            <ns3:hr>100</ns3:hr>
          </ns3:TrackPointExtension>
        </extensions>
      </trkpt>
      <trkpt lat="36.7706385813653469085693359375" lon="-118.43491424806416034698486328125">
        <ele>3425</ele>
        <time>2021-06-25T17:28:26.000Z</time>
        <extensions>
          <ns3:TrackPointExtension>
            <ns3:atemp>26.0</ns3:atemp>
            <ns3:hr>97</ns3:hr>
          </ns3:TrackPointExtension>
        </extensions>
      </trkpt>
      <trkpt lat="36.77063883282244205474853515625" lon="-118.43491424806416034698486328125">
        <ele>3425</ele>
        <time>2021-06-25T17:28:29.000Z</time>
        <extensions>
          <ns3:TrackPointExtension>
            <ns3:atemp>26.0</ns3:atemp>
            <ns3:hr>94</ns3:hr>
          </ns3:TrackPointExtension>
        </extensions>
      </trkpt>
      <trkpt lat="36.77063405513763427734375" lon="-118.43493126332759857177734375">
        <ele>3424.199951171875</ele>
        <time>2021-06-25T17:28:55.000Z</time>
        <extensions>
          <ns3:TrackPointExtension>
            <ns3:atemp>27.0</ns3:atemp>
            <ns3:hr>94</ns3:hr>
          </ns3:TrackPointExtension>
        </extensions>
      </trkpt>
      <trkpt lat="36.77060446701943874359130859375" lon="-118.434908799827098846435546875">
        <ele>3424.39990234375</ele>
        <time>2021-06-25T17:29:01.000Z</time>
        <extensions>
          <ns3:TrackPointExtension>
            <ns3:atemp>27.0</ns3:atemp>
            <ns3:hr>97</ns3:hr>
          </ns3:TrackPointExtension>
        </extensions>
      </trkpt>
      <trkpt lat="36.77061058580875396728515625" lon="-118.4349143318831920623779296875">
        <ele>3425</ele>
        <time>2021-06-25T17:29:28.000Z</time>
        <extensions>
          <ns3:TrackPointExtension>
            <ns3:atemp>27.0</ns3:atemp>
            <ns3:hr>100</ns3:hr>
          </ns3:TrackPointExtension>
        </extensions>
      </trkpt>
      <trkpt lat="36.77061729133129119873046875" lon="-118.4349146671593189239501953125">
        <ele>3425.60009765625</ele>
        <time>2021-06-25T17:29:31.000Z</time>
        <extensions>
          <ns3:TrackPointExtension>
            <ns3:atemp>27.0</ns3:atemp>
            <ns3:hr>100</ns3:hr>
          </ns3:TrackPointExtension>
        </extensions>
      </trkpt>
      <trkpt lat="36.770629696547985076904296875" lon="-118.4349156729876995086669921875">
        <ele>3426.39990234375</ele>
        <time>2021-06-25T17:29:44.000Z</time>
        <extensions>
          <ns3:TrackPointExtension>
            <ns3:atemp>27.0</ns3:atemp>
            <ns3:hr>97</ns3:hr>
          </ns3:TrackPointExtension>
        </extensions>
      </trkpt>
      <trkpt lat="36.7706300318241119384765625" lon="-118.4349156729876995086669921875">
        <ele>3426.800048828125</ele>
        <time>2021-06-25T17:29:45.000Z</time>
        <extensions>
          <ns3:TrackPointExtension>
            <ns3:atemp>27.0</ns3:atemp>
            <ns3:hr>98</ns3:hr>
          </ns3:TrackPointExtension>
        </extensions>
      </trkpt>
      <trkpt lat="36.77063128910958766937255859375" lon="-118.43492128886282444000244140625">
        <ele>3427.39990234375</ele>
        <time>2021-06-25T17:29:50.000Z</time>
        <extensions>
          <ns3:TrackPointExtension>
            <ns3:atemp>27.0</ns3:atemp>
            <ns3:hr>102</ns3:hr>
          </ns3:TrackPointExtension>
        </extensions>
      </trkpt>
      <trkpt lat="36.77063179202377796173095703125" lon="-118.43492179177701473236083984375">
        <ele>3428</ele>
        <time>2021-06-25T17:29:54.000Z</time>
        <extensions>
          <ns3:TrackPointExtension>
            <ns3:atemp>27.0</ns3:atemp>
            <ns3:hr>103</ns3:hr>
          </ns3:TrackPointExtension>
        </extensions>
      </trkpt>
      <trkpt lat="36.77064520306885242462158203125" lon="-118.43493872322142124176025390625">
        <ele>3428.800048828125</ele>
        <time>2021-06-25T17:29:59.000Z</time>
        <extensions>
          <ns3:TrackPointExtension>
            <ns3:atemp>27.0</ns3:atemp>
            <ns3:hr>106</ns3:hr>
          </ns3:TrackPointExtension>
        </extensions>
      </trkpt>
      <trkpt lat="36.77064989693462848663330078125" lon="-118.43494467437267303466796875">
        <ele>3429.39990234375</ele>
        <time>2021-06-25T17:30:01.000Z</time>
        <extensions>
          <ns3:TrackPointExtension>
            <ns3:atemp>27.0</ns3:atemp>
            <ns3:hr>107</ns3:hr>
          </ns3:TrackPointExtension>
        </extensions>
      </trkpt>
      <trkpt lat="36.7706526629626750946044921875" lon="-118.434951044619083404541015625">
        <ele>3429.800048828125</ele>
        <time>2021-06-25T17:30:03.000Z</time>
        <extensions>
          <ns3:TrackPointExtension>
            <ns3:atemp>27.0</ns3:atemp>
            <ns3:hr>110</ns3:hr>
          </ns3:TrackPointExtension>
        </extensions>
      </trkpt>
      <trkpt lat="36.7706724442541599273681640625" lon="-118.434974849224090576171875">
        <ele>3430.199951171875</ele>
        <time>2021-06-25T17:30:09.000Z</time>
        <extensions>
          <ns3:TrackPointExtension>
            <ns3:atemp>27.0</ns3:atemp>
            <ns3:hr>113</ns3:hr>
          </ns3:TrackPointExtension>
        </extensions>
      </trkpt>
      <trkpt lat="36.7706781439483165740966796875" lon="-118.43498046509921550750732421875">
        <ele>3430.60009765625</ele>
        <time>2021-06-25T17:30:10.000Z</time>
        <extensions>
          <ns3:TrackPointExtension>
            <ns3:atemp>27.0</ns3:atemp>
            <ns3:hr>113</ns3:hr>
          </ns3:TrackPointExtension>
        </extensions>
      </trkpt>
      <trkpt lat="36.77071527577936649322509765625" lon="-118.43502648174762725830078125">
        <ele>3431.800048828125</ele>
        <time>2021-06-25T17:30:19.000Z</time>
        <extensions>
          <ns3:TrackPointExtension>
            <ns3:atemp>27.0</ns3:atemp>
            <ns3:hr>114</ns3:hr>
          </ns3:TrackPointExtension>
        </extensions>
      </trkpt>
      <trkpt lat="36.7707301117479801177978515625" lon="-118.43504819087684154510498046875">
        <ele>3432.800048828125</ele>
        <time>2021-06-25T17:30:24.000Z</time>
        <extensions>
          <ns3:TrackPointExtension>
            <ns3:atemp>27.0</ns3:atemp>
            <ns3:hr>111</ns3:hr>
          </ns3:TrackPointExtension>
        </extensions>
      </trkpt>
      <trkpt lat="36.7707321234047412872314453125" lon="-118.43505070544779300689697265625">
        <ele>3433</ele>
        <time>2021-06-25T17:30:25.000Z</time>
        <extensions>
          <ns3:TrackPointExtension>
            <ns3:atemp>27.0</ns3:atemp>
            <ns3:hr>110</ns3:hr>
          </ns3:TrackPointExtension>
        </extensions>
      </trkpt>
      <trkpt lat="36.770741008222103118896484375" lon="-118.43505975790321826934814453125">
        <ele>3433.39990234375</ele>
        <time>2021-06-25T17:30:30.000Z</time>
        <extensions>
          <ns3:TrackPointExtension>
            <ns3:atemp>27.0</ns3:atemp>
            <ns3:hr>107</ns3:hr>
          </ns3:TrackPointExtension>
        </extensions>
      </trkpt>
      <trkpt lat="36.77075140178203582763671875" lon="-118.43506629578769207000732421875">
        <ele>3434.199951171875</ele>
        <time>2021-06-25T17:30:34.000Z</time>
        <extensions>
          <ns3:TrackPointExtension>
            <ns3:atemp>27.0</ns3:atemp>
            <ns3:hr>108</ns3:hr>
          </ns3:TrackPointExtension>
        </extensions>
      </trkpt>
      <trkpt lat="36.770764477550983428955078125" lon="-118.43508909456431865692138671875">
        <ele>3435</ele>
        <time>2021-06-25T17:30:39.000Z</time>
        <extensions>
          <ns3:TrackPointExtension>
            <ns3:atemp>27.0</ns3:atemp>
            <ns3:hr>111</ns3:hr>
          </ns3:TrackPointExtension>
        </extensions>
      </trkpt>
      <trkpt lat="36.770767830312252044677734375" lon="-118.435095213353633880615234375">
        <ele>3435.39990234375</ele>
        <time>2021-06-25T17:30:40.000Z</time>
        <extensions>
          <ns3:TrackPointExtension>
            <ns3:atemp>27.0</ns3:atemp>
            <ns3:hr>113</ns3:hr>
          </ns3:TrackPointExtension>
        </extensions>
      </trkpt>
      <trkpt lat="36.77077285945415496826171875" lon="-118.43510652892291545867919921875">
        <ele>3435.60009765625</ele>
        <time>2021-06-25T17:30:42.000Z</time>
        <extensions>
          <ns3:TrackPointExtension>
            <ns3:atemp>27.0</ns3:atemp>
            <ns3:hr>116</ns3:hr>
          </ns3:TrackPointExtension>
        </extensions>
      </trkpt>
      <trkpt lat="36.770783253014087677001953125" lon="-118.43513016588985919952392578125">
        <ele>3436.60009765625</ele>
        <time>2021-06-25T17:30:48.000Z</time>
        <extensions>
          <ns3:TrackPointExtension>
            <ns3:atemp>27.0</ns3:atemp>
            <ns3:hr>117</ns3:hr>
          </ns3:TrackPointExtension>
        </extensions>
      </trkpt>
      <trkpt lat="36.7707954905927181243896484375" lon="-118.4351532161235809326171875">
        <ele>3437.60009765625</ele>
        <time>2021-06-25T17:31:00.000Z</time>
        <extensions>
          <ns3:TrackPointExtension>
            <ns3:atemp>27.0</ns3:atemp>
            <ns3:hr>120</ns3:hr>
          </ns3:TrackPointExtension>
        </extensions>
      </trkpt>
      <trkpt lat="36.77080345340073108673095703125" lon="-118.435161598026752471923828125">
        <ele>3437.60009765625</ele>
        <time>2021-06-25T17:31:03.000Z</time>
        <extensions>
          <ns3:TrackPointExtension>
            <ns3:atemp>27.0</ns3:atemp>
            <ns3:hr>123</ns3:hr>
          </ns3:TrackPointExtension>
        </extensions>
      </trkpt>
      <trkpt lat="36.77081099711358547210693359375" lon="-118.43516754917800426483154296875">
        <ele>3438.199951171875</ele>
        <time>2021-06-25T17:31:06.000Z</time>
        <extensions>
          <ns3:TrackPointExtension>
            <ns3:atemp>27.0</ns3:atemp>
            <ns3:hr>126</ns3:hr>
          </ns3:TrackPointExtension>
        </extensions>
      </trkpt>
      <trkpt lat="36.77081468515098094940185546875" lon="-118.43517073430120944976806640625">
        <ele>3438.60009765625</ele>
        <time>2021-06-25T17:31:08.000Z</time>
        <extensions>
          <ns3:TrackPointExtension>
            <ns3:atemp>27.0</ns3:atemp>
            <ns3:hr>127</ns3:hr>
          </ns3:TrackPointExtension>
        </extensions>
      </trkpt>
      <trkpt lat="36.77081619389355182647705078125" lon="-118.43517241068184375762939453125">
        <ele>3438.800048828125</ele>
        <time>2021-06-25T17:31:09.000Z</time>
        <extensions>
          <ns3:TrackPointExtension>
            <ns3:atemp>27.0</ns3:atemp>
            <ns3:hr>130</ns3:hr>
          </ns3:TrackPointExtension>
        </extensions>
      </trkpt>
      <trkpt lat="36.7708176188170909881591796875" lon="-118.43517391942441463470458984375">
        <ele>3438.800048828125</ele>
        <time>2021-06-25T17:31:10.000Z</time>
        <extensions>
          <ns3:TrackPointExtension>
            <ns3:atemp>27.0</ns3:atemp>
            <ns3:hr>127</ns3:hr>
          </ns3:TrackPointExtension>
        </extensions>
      </trkpt>
      <trkpt lat="36.77082172594964504241943359375" lon="-118.43517936766147613525390625">
        <ele>3439</ele>
        <time>2021-06-25T17:31:14.000Z</time>
        <extensions>
          <ns3:TrackPointExtension>
            <ns3:atemp>27.0</ns3:atemp>
            <ns3:hr>124</ns3:hr>
          </ns3:TrackPointExtension>
        </extensions>
      </trkpt>
      <trkpt lat="36.77082356996834278106689453125" lon="-118.4351827204227447509765625">
        <ele>3440</ele>
        <time>2021-06-25T17:31:18.000Z</time>
        <extensions>
          <ns3:TrackPointExtension>
            <ns3:atemp>27.0</ns3:atemp>
            <ns3:hr>124</ns3:hr>
          </ns3:TrackPointExtension>
        </extensions>
      </trkpt>
      <trkpt lat="36.7708243243396282196044921875" lon="-118.43518414534628391265869140625">
        <ele>3441.199951171875</ele>
        <time>2021-06-25T17:31:28.000Z</time>
        <extensions>
          <ns3:TrackPointExtension>
            <ns3:atemp>27.0</ns3:atemp>
            <ns3:hr>123</ns3:hr>
          </ns3:TrackPointExtension>
        </extensions>
      </trkpt>
      <trkpt lat="36.7708246596157550811767578125" lon="-118.43518473207950592041015625">
        <ele>3441.39990234375</ele>
        <time>2021-06-25T17:31:31.000Z</time>
        <extensions>
          <ns3:TrackPointExtension>
            <ns3:atemp>27.0</ns3:atemp>
            <ns3:hr>120</ns3:hr>
          </ns3:TrackPointExtension>
        </extensions>
      </trkpt>
      <trkpt lat="36.77082541398704051971435546875" lon="-118.43518565408885478973388671875">
        <ele>3442.39990234375</ele>
        <time>2021-06-25T17:31:36.000Z</time>
        <extensions>
          <ns3:TrackPointExtension>
            <ns3:atemp>27.0</ns3:atemp>
            <ns3:hr>121</ns3:hr>
          </ns3:TrackPointExtension>
        </extensions>
      </trkpt>
      <trkpt lat="36.7708270065486431121826171875" lon="-118.43518783338367938995361328125">
        <ele>3443.60009765625</ele>
        <time>2021-06-25T17:31:46.000Z</time>
        <extensions>
          <ns3:TrackPointExtension>
            <ns3:atemp>27.0</ns3:atemp>
            <ns3:hr>119</ns3:hr>
          </ns3:TrackPointExtension>
        </extensions>
      </trkpt>
      <trkpt lat="36.7708280123770236968994140625" lon="-118.4351892583072185516357421875">
        <ele>3444.39990234375</ele>
        <time>2021-06-25T17:31:51.000Z</time>
        <extensions>
          <ns3:TrackPointExtension>
            <ns3:atemp>27.0</ns3:atemp>
            <ns3:hr>122</ns3:hr>
          </ns3:TrackPointExtension>
        </extensions>
      </trkpt>
      <trkpt lat="36.77082826383411884307861328125" lon="-118.4351895935833454132080078125">
        <ele>3444.60009765625</ele>
        <time>2021-06-25T17:31:52.000Z</time>
        <extensions>
          <ns3:TrackPointExtension>
            <ns3:atemp>27.0</ns3:atemp>
            <ns3:hr>121</ns3:hr>
          </ns3:TrackPointExtension>
        </extensions>
      </trkpt>
      <trkpt lat="36.7708285152912139892578125" lon="-118.4351899288594722747802734375">
        <ele>3444.60009765625</ele>
        <time>2021-06-25T17:31:53.000Z</time>
        <extensions>
          <ns3:TrackPointExtension>
            <ns3:atemp>27.0</ns3:atemp>
            <ns3:hr>118</ns3:hr>
          </ns3:TrackPointExtension>
        </extensions>
      </trkpt>
      <trkpt lat="36.77082918584346771240234375" lon="-118.43519085086882114410400390625">
        <ele>3444.60009765625</ele>
        <time>2021-06-25T17:31:56.000Z</time>
        <extensions>
          <ns3:TrackPointExtension>
            <ns3:atemp>27.0</ns3:atemp>
            <ns3:hr>121</ns3:hr>
          </ns3:TrackPointExtension>
        </extensions>
      </trkpt>
      <trkpt lat="36.77082960493862628936767578125" lon="-118.43519152142107486724853515625">
        <ele>3444.60009765625</ele>
        <time>2021-06-25T17:31:58.000Z</time>
        <extensions>
          <ns3:TrackPointExtension>
            <ns3:atemp>27.0</ns3:atemp>
            <ns3:hr>124</ns3:hr>
          </ns3:TrackPointExtension>
        </extensions>
      </trkpt>
      <trkpt lat="36.7708310298621654510498046875" lon="-118.4351936168968677520751953125">
        <ele>3445.60009765625</ele>
        <time>2021-06-25T17:32:04.000Z</time>
        <extensions>
          <ns3:TrackPointExtension>
            <ns3:atemp>27.0</ns3:atemp>
            <ns3:hr>123</ns3:hr>
          </ns3:TrackPointExtension>
        </extensions>
      </trkpt>
      <trkpt lat="36.77083362825214862823486328125" lon="-118.43519747257232666015625">
        <ele>3447</ele>
        <time>2021-06-25T17:32:14.000Z</time>
        <extensions>
          <ns3:TrackPointExtension>
            <ns3:atemp>27.0</ns3:atemp>
            <ns3:hr>122</ns3:hr>
          </ns3:TrackPointExtension>
        </extensions>
      </trkpt>
      <trkpt lat="36.77083496935665607452392578125" lon="-118.43519956804811954498291015625">
        <ele>3448</ele>
        <time>2021-06-25T17:32:19.000Z</time>
        <extensions>
          <ns3:TrackPointExtension>
            <ns3:atemp>27.0</ns3:atemp>
            <ns3:hr>122</ns3:hr>
          </ns3:TrackPointExtension>
        </extensions>
      </trkpt>
      <trkpt lat="36.77083698101341724395751953125" lon="-118.4352026693522930145263671875">
        <ele>3449</ele>
        <time>2021-06-25T17:32:26.000Z</time>
        <extensions>
          <ns3:TrackPointExtension>
            <ns3:atemp>27.0</ns3:atemp>
            <ns3:hr>121</ns3:hr>
          </ns3:TrackPointExtension>
        </extensions>
      </trkpt>
      <trkpt lat="36.77083966322243213653564453125" lon="-118.4352066926658153533935546875">
        <ele>3450.199951171875</ele>
        <time>2021-06-25T17:32:35.000Z</time>
        <extensions>
          <ns3:TrackPointExtension>
            <ns3:atemp>26.0</ns3:atemp>
            <ns3:hr>120</ns3:hr>
          </ns3:TrackPointExtension>
        </extensions>
      </trkpt>
      <trkpt lat="36.7708410881459712982177734375" lon="-118.4352090395987033843994140625">
        <ele>3451</ele>
        <time>2021-06-25T17:32:40.000Z</time>
        <extensions>
          <ns3:TrackPointExtension>
            <ns3:atemp>26.0</ns3:atemp>
            <ns3:hr>117</ns3:hr>
          </ns3:TrackPointExtension>
        </extensions>
      </trkpt>
      <trkpt lat="36.77084167487919330596923828125" lon="-118.4352100454270839691162109375">
        <ele>3451.39990234375</ele>
        <time>2021-06-25T17:32:42.000Z</time>
        <extensions>
          <ns3:TrackPointExtension>
            <ns3:atemp>26.0</ns3:atemp>
            <ns3:hr>115</ns3:hr>
          </ns3:TrackPointExtension>
        </extensions>
      </trkpt>
      <trkpt lat="36.7708434350788593292236328125" lon="-118.43521314673125743865966796875">
        <ele>3452.199951171875</ele>
        <time>2021-06-25T17:32:48.000Z</time>
        <extensions>
          <ns3:TrackPointExtension>
            <ns3:atemp>26.0</ns3:atemp>
            <ns3:hr>112</ns3:hr>
          </ns3:TrackPointExtension>
        </extensions>
      </trkpt>
      <trkpt lat="36.77084402181208133697509765625" lon="-118.43521423637866973876953125">
        <ele>3452.39990234375</ele>
        <time>2021-06-25T17:32:50.000Z</time>
        <extensions>
          <ns3:TrackPointExtension>
            <ns3:atemp>26.0</ns3:atemp>
            <ns3:hr>109</ns3:hr>
          </ns3:TrackPointExtension>
        </extensions>
      </trkpt>
      <trkpt lat="36.770844273269176483154296875" lon="-118.4352147392928600311279296875">
        <ele>3452.800048828125</ele>
        <time>2021-06-25T17:32:51.000Z</time>
        <extensions>
          <ns3:TrackPointExtension>
            <ns3:atemp>26.0</ns3:atemp>
            <ns3:hr>109</ns3:hr>
          </ns3:TrackPointExtension>
        </extensions>
      </trkpt>
      <trkpt lat="36.7708451114594936370849609375" lon="-118.4352164156734943389892578125">
        <ele>3453</ele>
        <time>2021-06-25T17:32:54.000Z</time>
        <extensions>
          <ns3:TrackPointExtension>
            <ns3:atemp>26.0</ns3:atemp>
            <ns3:hr>106</ns3:hr>
          </ns3:TrackPointExtension>
        </extensions>
      </trkpt>
      <trkpt lat="36.77084569819271564483642578125" lon="-118.43521750532090663909912109375">
        <ele>3453</ele>
        <time>2021-06-25T17:32:56.000Z</time>
        <extensions>
          <ns3:TrackPointExtension>
            <ns3:atemp>26.0</ns3:atemp>
            <ns3:hr>110</ns3:hr>
          </ns3:TrackPointExtension>
        </extensions>
      </trkpt>
      <trkpt lat="36.77084636874496936798095703125" lon="-118.43521867878735065460205078125">
        <ele>3454</ele>
        <time>2021-06-25T17:32:58.000Z</time>
        <extensions>
          <ns3:TrackPointExtension>
            <ns3:atemp>26.0</ns3:atemp>
            <ns3:hr>112</ns3:hr>
          </ns3:TrackPointExtension>
        </extensions>
      </trkpt>
      <trkpt lat="36.770846955478191375732421875" lon="-118.43521985225379467010498046875">
        <ele>3454.199951171875</ele>
        <time>2021-06-25T17:33:00.000Z</time>
        <extensions>
          <ns3:TrackPointExtension>
            <ns3:atemp>26.0</ns3:atemp>
            <ns3:hr>115</ns3:hr>
          </ns3:TrackPointExtension>
        </extensions>
      </trkpt>
      <trkpt lat="36.77084720693528652191162109375" lon="-118.4352204389870166778564453125">
        <ele>3454.39990234375</ele>
        <time>2021-06-25T17:33:01.000Z</time>
        <extensions>
          <ns3:TrackPointExtension>
            <ns3:atemp>26.0</ns3:atemp>
            <ns3:hr>118</ns3:hr>
          </ns3:TrackPointExtension>
        </extensions>
      </trkpt>
      <trkpt lat="36.77084930241107940673828125" lon="-118.43522421084344387054443359375">
        <ele>3455.199951171875</ele>
        <time>2021-06-25T17:33:07.000Z</time>
        <extensions>
          <ns3:TrackPointExtension>
            <ns3:atemp>26.0</ns3:atemp>
            <ns3:hr>119</ns3:hr>
          </ns3:TrackPointExtension>
        </extensions>
      </trkpt>
      <trkpt lat="36.770849637687206268310546875" lon="-118.4352247975766658782958984375">
        <ele>3455.39990234375</ele>
        <time>2021-06-25T17:33:08.000Z</time>
        <extensions>
          <ns3:TrackPointExtension>
            <ns3:atemp>26.0</ns3:atemp>
            <ns3:hr>122</ns3:hr>
          </ns3:TrackPointExtension>
        </extensions>
      </trkpt>
      <trkpt lat="36.7708511464297771453857421875" lon="-118.43522739596664905548095703125">
        <ele>3456</ele>
        <time>2021-06-25T17:33:12.000Z</time>
        <extensions>
          <ns3:TrackPointExtension>
            <ns3:atemp>26.0</ns3:atemp>
            <ns3:hr>126</ns3:hr>
          </ns3:TrackPointExtension>
        </extensions>
      </trkpt>
      <trkpt lat="36.77085156552493572235107421875" lon="-118.435227982699871063232421875">
        <ele>3456.60009765625</ele>
        <time>2021-06-25T17:33:13.000Z</time>
        <extensions>
          <ns3:TrackPointExtension>
            <ns3:atemp>26.0</ns3:atemp>
            <ns3:hr>128</ns3:hr>
          </ns3:TrackPointExtension>
        </extensions>
      </trkpt>
      <trkpt lat="36.77085240371525287628173828125" lon="-118.435229323804378509521484375">
        <ele>3457</ele>
        <time>2021-06-25T17:33:15.000Z</time>
        <extensions>
          <ns3:TrackPointExtension>
            <ns3:atemp>26.0</ns3:atemp>
            <ns3:hr>125</ns3:hr>
          </ns3:TrackPointExtension>
        </extensions>
      </trkpt>
      <trkpt lat="36.77085357718169689178466796875" lon="-118.43523125164210796356201171875">
        <ele>3457.60009765625</ele>
        <time>2021-06-25T17:33:18.000Z</time>
        <extensions>
          <ns3:TrackPointExtension>
            <ns3:atemp>26.0</ns3:atemp>
            <ns3:hr>129</ns3:hr>
          </ns3:TrackPointExtension>
        </extensions>
      </trkpt>
      <trkpt lat="36.77085399627685546875" lon="-118.43523192219436168670654296875">
        <ele>3457.60009765625</ele>
        <time>2021-06-25T17:33:19.000Z</time>
        <extensions>
          <ns3:TrackPointExtension>
            <ns3:atemp>26.0</ns3:atemp>
            <ns3:hr>126</ns3:hr>
          </ns3:TrackPointExtension>
        </extensions>
      </trkpt>
      <trkpt lat="36.77085642702877521514892578125" lon="-118.43523594550788402557373046875">
        <ele>3458.800048828125</ele>
        <time>2021-06-25T17:33:25.000Z</time>
        <extensions>
          <ns3:TrackPointExtension>
            <ns3:atemp>26.0</ns3:atemp>
            <ns3:hr>128</ns3:hr>
          </ns3:TrackPointExtension>
        </extensions>
      </trkpt>
      <trkpt lat="36.77086179144680500030517578125" lon="-118.43524516560137271881103515625">
        <ele>3459.800048828125</ele>
        <time>2021-06-25T17:33:38.000Z</time>
        <extensions>
          <ns3:TrackPointExtension>
            <ns3:atemp>26.0</ns3:atemp>
            <ns3:hr>129</ns3:hr>
          </ns3:TrackPointExtension>
        </extensions>
      </trkpt>
      <trkpt lat="36.77086631767451763153076171875" lon="-118.43525371514260768890380859375">
        <ele>3460.60009765625</ele>
        <time>2021-06-25T17:33:49.000Z</time>
        <extensions>
          <ns3:TrackPointExtension>
            <ns3:atemp>26.0</ns3:atemp>
            <ns3:hr>126</ns3:hr>
          </ns3:TrackPointExtension>
        </extensions>
      </trkpt>
      <trkpt lat="36.77086665295064449310302734375" lon="-118.43525446951389312744140625">
        <ele>3461.199951171875</ele>
        <time>2021-06-25T17:33:50.000Z</time>
        <extensions>
          <ns3:TrackPointExtension>
            <ns3:atemp>26.0</ns3:atemp>
            <ns3:hr>125</ns3:hr>
          </ns3:TrackPointExtension>
        </extensions>
      </trkpt>
      <trkpt lat="36.7708682455122470855712890625" lon="-118.4352578222751617431640625">
        <ele>3461.39990234375</ele>
        <time>2021-06-25T17:33:54.000Z</time>
        <extensions>
          <ns3:TrackPointExtension>
            <ns3:atemp>26.0</ns3:atemp>
            <ns3:hr>122</ns3:hr>
          </ns3:TrackPointExtension>
        </extensions>
      </trkpt>
      <trkpt lat="36.77086983807384967803955078125" lon="-118.43526125885546207427978515625">
        <ele>3462.199951171875</ele>
        <time>2021-06-25T17:33:58.000Z</time>
        <extensions>
          <ns3:TrackPointExtension>
            <ns3:atemp>26.0</ns3:atemp>
            <ns3:hr>123</ns3:hr>
          </ns3:TrackPointExtension>
        </extensions>
      </trkpt>
      <trkpt lat="36.77087252028286457061767578125" lon="-118.43526729382574558258056640625">
        <ele>3463.199951171875</ele>
        <time>2021-06-25T17:34:05.000Z</time>
        <extensions>
          <ns3:TrackPointExtension>
            <ns3:atemp>26.0</ns3:atemp>
            <ns3:hr>120</ns3:hr>
          </ns3:TrackPointExtension>
        </extensions>
      </trkpt>
      <trkpt lat="36.77087285555899143218994140625" lon="-118.43526813201606273651123046875">
        <ele>3463.199951171875</ele>
        <time>2021-06-25T17:34:06.000Z</time>
        <extensions>
          <ns3:TrackPointExtension>
            <ns3:atemp>26.0</ns3:atemp>
            <ns3:hr>119</ns3:hr>
          </ns3:TrackPointExtension>
        </extensions>
      </trkpt>
      <trkpt lat="36.7709775455296039581298828125" lon="-118.43552746810019016265869140625">
        <ele>3464.39990234375</ele>
        <time>2021-06-25T17:34:14.000Z</time>
        <extensions>
          <ns3:TrackPointExtension>
            <ns3:atemp>26.0</ns3:atemp>
            <ns3:hr>122</ns3:hr>
          </ns3:TrackPointExtension>
        </extensions>
      </trkpt>
      <trkpt lat="36.77100579254329204559326171875" lon="-118.43559334985911846160888671875">
        <ele>3464.800048828125</ele>
        <time>2021-06-25T17:34:15.000Z</time>
        <extensions>
          <ns3:TrackPointExtension>
            <ns3:atemp>26.0</ns3:atemp>
            <ns3:hr>122</ns3:hr>
          </ns3:TrackPointExtension>
        </extensions>
      </trkpt>
      <trkpt lat="36.7710969038307666778564453125" lon="-118.435838520526885986328125">
        <ele>3465</ele>
        <time>2021-06-25T17:34:19.000Z</time>
        <extensions>
          <ns3:TrackPointExtension>
            <ns3:atemp>26.0</ns3:atemp>
            <ns3:hr>124</ns3:hr>
          </ns3:TrackPointExtension>
        </extensions>
      </trkpt>
      <trkpt lat="36.77113386802375316619873046875" lon="-118.43592711724340915679931640625">
        <ele>3465.199951171875</ele>
        <time>2021-06-25T17:34:25.000Z</time>
        <extensions>
          <ns3:TrackPointExtension>
            <ns3:atemp>26.0</ns3:atemp>
            <ns3:hr>122</ns3:hr>
          </ns3:TrackPointExtension>
        </extensions>
      </trkpt>
      <trkpt lat="36.771137304604053497314453125" lon="-118.43593030236661434173583984375">
        <ele>3466</ele>
        <time>2021-06-25T17:34:27.000Z</time>
        <extensions>
          <ns3:TrackPointExtension>
            <ns3:atemp>26.0</ns3:atemp>
            <ns3:hr>123</ns3:hr>
          </ns3:TrackPointExtension>
        </extensions>
      </trkpt>
      <trkpt lat="36.7711334489285945892333984375" lon="-118.4359323978424072265625">
        <ele>3466.39990234375</ele>
        <time>2021-06-25T17:34:33.000Z</time>
        <extensions>
          <ns3:TrackPointExtension>
            <ns3:atemp>26.0</ns3:atemp>
            <ns3:hr>123</ns3:hr>
          </ns3:TrackPointExtension>
        </extensions>
      </trkpt>
      <trkpt lat="36.77113227546215057373046875" lon="-118.43592711724340915679931640625">
        <ele>3467</ele>
        <time>2021-06-25T17:34:37.000Z</time>
        <extensions>
          <ns3:TrackPointExtension>
            <ns3:atemp>26.0</ns3:atemp>
            <ns3:hr>126</ns3:hr>
          </ns3:TrackPointExtension>
        </extensions>
      </trkpt>
      <trkpt lat="36.77113227546215057373046875" lon="-118.43592711724340915679931640625">
        <ele>3467.39990234375</ele>
        <time>2021-06-25T17:34:41.000Z</time>
        <extensions>
          <ns3:TrackPointExtension>
            <ns3:atemp>26.0</ns3:atemp>
            <ns3:hr>124</ns3:hr>
          </ns3:TrackPointExtension>
        </extensions>
      </trkpt>
      <trkpt lat="36.7711341194808483123779296875" lon="-118.43592904508113861083984375">
        <ele>3468.39990234375</ele>
        <time>2021-06-25T17:34:44.000Z</time>
        <extensions>
          <ns3:TrackPointExtension>
            <ns3:atemp>26.0</ns3:atemp>
            <ns3:hr>125</ns3:hr>
          </ns3:TrackPointExtension>
        </extensions>
      </trkpt>
      <trkpt lat="36.771135963499546051025390625" lon="-118.43593600206077098846435546875">
        <ele>3468.39990234375</ele>
        <time>2021-06-25T17:34:49.000Z</time>
        <extensions>
          <ns3:TrackPointExtension>
            <ns3:atemp>26.0</ns3:atemp>
            <ns3:hr>122</ns3:hr>
          </ns3:TrackPointExtension>
        </extensions>
      </trkpt>
      <trkpt lat="36.77113604731857776641845703125" lon="-118.4359391033649444580078125">
        <ele>3468.39990234375</ele>
        <time>2021-06-25T17:34:51.000Z</time>
        <extensions>
          <ns3:TrackPointExtension>
            <ns3:atemp>26.0</ns3:atemp>
            <ns3:hr>119</ns3:hr>
          </ns3:TrackPointExtension>
        </extensions>
      </trkpt>
      <trkpt lat="36.77113755606114864349365234375" lon="-118.4359436295926570892333984375">
        <ele>3468.199951171875</ele>
        <time>2021-06-25T17:34:54.000Z</time>
        <extensions>
          <ns3:TrackPointExtension>
            <ns3:atemp>26.0</ns3:atemp>
            <ns3:hr>116</ns3:hr>
          </ns3:TrackPointExtension>
        </extensions>
      </trkpt>
      <trkpt lat="36.77114476449787616729736328125" lon="-118.43594958074390888214111328125">
        <ele>3468.39990234375</ele>
        <time>2021-06-25T17:35:03.000Z</time>
        <extensions>
          <ns3:TrackPointExtension>
            <ns3:atemp>26.0</ns3:atemp>
            <ns3:hr>118</ns3:hr>
          </ns3:TrackPointExtension>
        </extensions>
      </trkpt>
      <trkpt lat="36.77114577032625675201416015625" lon="-118.43593843281269073486328125">
        <ele>3469.39990234375</ele>
        <time>2021-06-25T17:35:15.000Z</time>
        <extensions>
          <ns3:TrackPointExtension>
            <ns3:atemp>26.0</ns3:atemp>
            <ns3:hr>115</ns3:hr>
          </ns3:TrackPointExtension>
        </extensions>
      </trkpt>
      <trkpt lat="36.77114543505012989044189453125" lon="-118.435926698148250579833984375">
        <ele>3469.39990234375</ele>
        <time>2021-06-25T17:35:18.000Z</time>
        <extensions>
          <ns3:TrackPointExtension>
            <ns3:atemp>26.0</ns3:atemp>
            <ns3:hr>111</ns3:hr>
          </ns3:TrackPointExtension>
        </extensions>
      </trkpt>
      <trkpt lat="36.77114543505012989044189453125" lon="-118.43592627905309200286865234375">
        <ele>3469.39990234375</ele>
        <time>2021-06-25T17:35:20.000Z</time>
        <extensions>
          <ns3:TrackPointExtension>
            <ns3:atemp>26.0</ns3:atemp>
            <ns3:hr>106</ns3:hr>
          </ns3:TrackPointExtension>
        </extensions>
      </trkpt>
      <trkpt lat="36.77114543505012989044189453125" lon="-118.43592627905309200286865234375">
        <ele>3469.199951171875</ele>
        <time>2021-06-25T17:35:22.000Z</time>
        <extensions>
          <ns3:TrackPointExtension>
            <ns3:atemp>26.0</ns3:atemp>
            <ns3:hr>102</ns3:hr>
          </ns3:TrackPointExtension>
        </extensions>
      </trkpt>
      <trkpt lat="36.77114543505012989044189453125" lon="-118.43592627905309200286865234375">
        <ele>3469.39990234375</ele>
        <time>2021-06-25T17:35:25.000Z</time>
        <extensions>
          <ns3:TrackPointExtension>
            <ns3:atemp>25.0</ns3:atemp>
            <ns3:hr>99</ns3:hr>
          </ns3:TrackPointExtension>
        </extensions>
      </trkpt>
      <trkpt lat="36.77114744670689105987548828125" lon="-118.43592862598598003387451171875">
        <ele>3470.60009765625</ele>
        <time>2021-06-25T17:35:34.000Z</time>
        <extensions>
          <ns3:TrackPointExtension>
            <ns3:atemp>25.0</ns3:atemp>
            <ns3:hr>99</ns3:hr>
          </ns3:TrackPointExtension>
        </extensions>
      </trkpt>
      <trkpt lat="36.77114845253527164459228515625" lon="-118.43592929653823375701904296875">
        <ele>3470.60009765625</ele>
        <time>2021-06-25T17:35:37.000Z</time>
        <extensions>
          <ns3:TrackPointExtension>
            <ns3:atemp>25.0</ns3:atemp>
            <ns3:hr>96</ns3:hr>
          </ns3:TrackPointExtension>
        </extensions>
      </trkpt>
      <trkpt lat="36.7711502127349376678466796875" lon="-118.4359312243759632110595703125">
        <ele>3471</ele>
        <time>2021-06-25T17:35:42.000Z</time>
        <extensions>
          <ns3:TrackPointExtension>
            <ns3:atemp>26.0</ns3:atemp>
            <ns3:hr>93</ns3:hr>
          </ns3:TrackPointExtension>
        </extensions>
      </trkpt>
      <trkpt lat="36.77115046419203281402587890625" lon="-118.4359355829656124114990234375">
        <ele>3471.60009765625</ele>
        <time>2021-06-25T17:35:44.000Z</time>
        <extensions>
          <ns3:TrackPointExtension>
            <ns3:atemp>26.0</ns3:atemp>
            <ns3:hr>94</ns3:hr>
          </ns3:TrackPointExtension>
        </extensions>
      </trkpt>
      <trkpt lat="36.7711498774588108062744140625" lon="-118.4359506703913211822509765625">
        <ele>3472.60009765625</ele>
        <time>2021-06-25T17:35:55.000Z</time>
        <extensions>
          <ns3:TrackPointExtension>
            <ns3:atemp>26.0</ns3:atemp>
            <ns3:hr>95</ns3:hr>
          </ns3:TrackPointExtension>
        </extensions>
      </trkpt>
      <trkpt lat="36.77114560268819332122802734375" lon="-118.43598612584173679351806640625">
        <ele>3473.800048828125</ele>
        <time>2021-06-25T17:36:05.000Z</time>
        <extensions>
          <ns3:TrackPointExtension>
            <ns3:atemp>26.0</ns3:atemp>
            <ns3:hr>96</ns3:hr>
          </ns3:TrackPointExtension>
        </extensions>
      </trkpt>
      <trkpt lat="36.77114560268819332122802734375" lon="-118.43601462431252002716064453125">
        <ele>3474.800048828125</ele>
        <time>2021-06-25T17:36:10.000Z</time>
        <extensions>
          <ns3:TrackPointExtension>
            <ns3:atemp>26.0</ns3:atemp>
            <ns3:hr>96</ns3:hr>
          </ns3:TrackPointExtension>
        </extensions>
      </trkpt>
      <trkpt lat="36.77114794962108135223388671875" lon="-118.43604245223104953765869140625">
        <ele>3476</ele>
        <time>2021-06-25T17:36:18.000Z</time>
        <extensions>
          <ns3:TrackPointExtension>
            <ns3:atemp>26.0</ns3:atemp>
            <ns3:hr>95</ns3:hr>
          </ns3:TrackPointExtension>
        </extensions>
      </trkpt>
      <trkpt lat="36.77115633152425289154052734375" lon="-118.43605485744774341583251953125">
        <ele>3477.199951171875</ele>
        <time>2021-06-25T17:36:27.000Z</time>
        <extensions>
          <ns3:TrackPointExtension>
            <ns3:atemp>26.0</ns3:atemp>
            <ns3:hr>94</ns3:hr>
          </ns3:TrackPointExtension>
        </extensions>
      </trkpt>
      <trkpt lat="36.77116622216999530792236328125" lon="-118.43607966788113117218017578125">
        <ele>3478.800048828125</ele>
        <time>2021-06-25T17:36:37.000Z</time>
        <extensions>
          <ns3:TrackPointExtension>
            <ns3:atemp>26.0</ns3:atemp>
            <ns3:hr>96</ns3:hr>
          </ns3:TrackPointExtension>
        </extensions>
      </trkpt>
      <trkpt lat="36.771178543567657470703125" lon="-118.436104394495487213134765625">
        <ele>3479</ele>
        <time>2021-06-25T17:36:43.000Z</time>
        <extensions>
          <ns3:TrackPointExtension>
            <ns3:atemp>26.0</ns3:atemp>
            <ns3:hr>99</ns3:hr>
          </ns3:TrackPointExtension>
        </extensions>
      </trkpt>
      <trkpt lat="36.77118533290922641754150390625" lon="-118.4361089207231998443603515625">
        <ele>3479.199951171875</ele>
        <time>2021-06-25T17:36:45.000Z</time>
        <extensions>
          <ns3:TrackPointExtension>
            <ns3:atemp>26.0</ns3:atemp>
            <ns3:hr>103</ns3:hr>
          </ns3:TrackPointExtension>
        </extensions>
      </trkpt>
      <trkpt lat="36.7711907811462879180908203125" lon="-118.43611520715057849884033203125">
        <ele>3480</ele>
        <time>2021-06-25T17:36:49.000Z</time>
        <extensions>
          <ns3:TrackPointExtension>
            <ns3:atemp>26.0</ns3:atemp>
            <ns3:hr>103</ns3:hr>
          </ns3:TrackPointExtension>
        </extensions>
      </trkpt>
      <trkpt lat="36.7711958102881908416748046875" lon="-118.43612484633922576904296875">
        <ele>3481</ele>
        <time>2021-06-25T17:36:58.000Z</time>
        <extensions>
          <ns3:TrackPointExtension>
            <ns3:atemp>26.0</ns3:atemp>
            <ns3:hr>101</ns3:hr>
          </ns3:TrackPointExtension>
        </extensions>
      </trkpt>
      <trkpt lat="36.77120695821940898895263671875" lon="-118.436155021190643310546875">
        <ele>3482</ele>
        <time>2021-06-25T17:37:07.000Z</time>
        <extensions>
          <ns3:TrackPointExtension>
            <ns3:atemp>26.0</ns3:atemp>
            <ns3:hr>99</ns3:hr>
          </ns3:TrackPointExtension>
        </extensions>
      </trkpt>
      <trkpt lat="36.77121852524578571319580078125" lon="-118.43617371283471584320068359375">
        <ele>3482.199951171875</ele>
        <time>2021-06-25T17:37:17.000Z</time>
        <extensions>
          <ns3:TrackPointExtension>
            <ns3:atemp>26.0</ns3:atemp>
            <ns3:hr>96</ns3:hr>
          </ns3:TrackPointExtension>
        </extensions>
      </trkpt>
      <trkpt lat="36.7712246440351009368896484375" lon="-118.4361793287098407745361328125">
        <ele>3482.800048828125</ele>
        <time>2021-06-25T17:37:21.000Z</time>
        <extensions>
          <ns3:TrackPointExtension>
            <ns3:atemp>26.0</ns3:atemp>
            <ns3:hr>99</ns3:hr>
          </ns3:TrackPointExtension>
        </extensions>
      </trkpt>
      <trkpt lat="36.77122724242508411407470703125" lon="-118.43618226237595081329345703125">
        <ele>3483.199951171875</ele>
        <time>2021-06-25T17:37:24.000Z</time>
        <extensions>
          <ns3:TrackPointExtension>
            <ns3:atemp>26.0</ns3:atemp>
            <ns3:hr>101</ns3:hr>
          </ns3:TrackPointExtension>
        </extensions>
      </trkpt>
      <trkpt lat="36.7712295055389404296875" lon="-118.4361860342323780059814453125">
        <ele>3484.39990234375</ele>
        <time>2021-06-25T17:37:30.000Z</time>
        <extensions>
          <ns3:TrackPointExtension>
            <ns3:atemp>26.0</ns3:atemp>
            <ns3:hr>101</ns3:hr>
          </ns3:TrackPointExtension>
        </extensions>
      </trkpt>
      <trkpt lat="36.7712293379008769989013671875" lon="-118.4361897222697734832763671875">
        <ele>3484.60009765625</ele>
        <time>2021-06-25T17:37:37.000Z</time>
        <extensions>
          <ns3:TrackPointExtension>
            <ns3:atemp>25.0</ns3:atemp>
            <ns3:hr>101</ns3:hr>
          </ns3:TrackPointExtension>
        </extensions>
      </trkpt>
      <trkpt lat="36.771228499710559844970703125" lon="-118.43619114719331264495849609375">
        <ele>3485.800048828125</ele>
        <time>2021-06-25T17:37:39.000Z</time>
        <extensions>
          <ns3:TrackPointExtension>
            <ns3:atemp>25.0</ns3:atemp>
            <ns3:hr>100</ns3:hr>
          </ns3:TrackPointExtension>
        </extensions>
      </trkpt>
      <trkpt lat="36.77122481167316436767578125" lon="-118.4361991100013256072998046875">
        <ele>3486.800048828125</ele>
        <time>2021-06-25T17:37:45.000Z</time>
        <extensions>
          <ns3:TrackPointExtension>
            <ns3:atemp>25.0</ns3:atemp>
            <ns3:hr>99</ns3:hr>
          </ns3:TrackPointExtension>
        </extensions>
      </trkpt>
      <trkpt lat="36.77122053690254688262939453125" lon="-118.4362038038671016693115234375">
        <ele>3486.800048828125</ele>
        <time>2021-06-25T17:37:50.000Z</time>
        <extensions>
          <ns3:TrackPointExtension>
            <ns3:atemp>25.0</ns3:atemp>
            <ns3:hr>96</ns3:hr>
          </ns3:TrackPointExtension>
        </extensions>
      </trkpt>
      <trkpt lat="36.7712199501693248748779296875" lon="-118.4362046420574188232421875">
        <ele>3486.60009765625</ele>
        <time>2021-06-25T17:37:51.000Z</time>
        <extensions>
          <ns3:TrackPointExtension>
            <ns3:atemp>25.0</ns3:atemp>
            <ns3:hr>99</ns3:hr>
          </ns3:TrackPointExtension>
        </extensions>
      </trkpt>
      <trkpt lat="36.771219111979007720947265625" lon="-118.43620589934289455413818359375">
        <ele>3486.60009765625</ele>
        <time>2021-06-25T17:37:54.000Z</time>
        <extensions>
          <ns3:TrackPointExtension>
            <ns3:atemp>25.0</ns3:atemp>
            <ns3:hr>96</ns3:hr>
          </ns3:TrackPointExtension>
        </extensions>
      </trkpt>
      <trkpt lat="36.7712189443409442901611328125" lon="-118.4362061507999897003173828125">
        <ele>3486.199951171875</ele>
        <time>2021-06-25T17:37:57.000Z</time>
        <extensions>
          <ns3:TrackPointExtension>
            <ns3:atemp>25.0</ns3:atemp>
            <ns3:hr>99</ns3:hr>
          </ns3:TrackPointExtension>
        </extensions>
      </trkpt>
      <trkpt lat="36.77121886052191257476806640625" lon="-118.436206318438053131103515625">
        <ele>3485.60009765625</ele>
        <time>2021-06-25T17:37:59.000Z</time>
        <extensions>
          <ns3:TrackPointExtension>
            <ns3:atemp>25.0</ns3:atemp>
            <ns3:hr>100</ns3:hr>
          </ns3:TrackPointExtension>
        </extensions>
      </trkpt>
      <trkpt lat="36.77121835760772228240966796875" lon="-118.43620724044740200042724609375">
        <ele>3486.800048828125</ele>
        <time>2021-06-25T17:38:09.000Z</time>
        <extensions>
          <ns3:TrackPointExtension>
            <ns3:atemp>25.0</ns3:atemp>
            <ns3:hr>101</ns3:hr>
          </ns3:TrackPointExtension>
        </extensions>
      </trkpt>
      <trkpt lat="36.771217770874500274658203125" lon="-118.436208330094814300537109375">
        <ele>3487.60009765625</ele>
        <time>2021-06-25T17:38:20.000Z</time>
        <extensions>
          <ns3:TrackPointExtension>
            <ns3:atemp>25.0</ns3:atemp>
            <ns3:hr>98</ns3:hr>
          </ns3:TrackPointExtension>
        </extensions>
      </trkpt>
      <trkpt lat="36.7712176032364368438720703125" lon="-118.4362084977328777313232421875">
        <ele>3488.199951171875</ele>
        <time>2021-06-25T17:38:22.000Z</time>
        <extensions>
          <ns3:TrackPointExtension>
            <ns3:atemp>25.0</ns3:atemp>
            <ns3:hr>96</ns3:hr>
          </ns3:TrackPointExtension>
        </extensions>
      </trkpt>
      <trkpt lat="36.7712172679603099822998046875" lon="-118.4362091682851314544677734375">
        <ele>3488.800048828125</ele>
        <time>2021-06-25T17:38:28.000Z</time>
        <extensions>
          <ns3:TrackPointExtension>
            <ns3:atemp>25.0</ns3:atemp>
            <ns3:hr>92</ns3:hr>
          </ns3:TrackPointExtension>
        </extensions>
      </trkpt>
      <trkpt lat="36.77121676504611968994140625" lon="-118.43621025793254375457763671875">
        <ele>3489</ele>
        <time>2021-06-25T17:38:36.000Z</time>
        <extensions>
          <ns3:TrackPointExtension>
            <ns3:atemp>25.0</ns3:atemp>
            <ns3:hr>95</ns3:hr>
          </ns3:TrackPointExtension>
        </extensions>
      </trkpt>
      <trkpt lat="36.771216094493865966796875" lon="-118.43621126376092433929443359375">
        <ele>3489.39990234375</ele>
        <time>2021-06-25T17:38:43.000Z</time>
        <extensions>
          <ns3:TrackPointExtension>
            <ns3:atemp>25.0</ns3:atemp>
            <ns3:hr>96</ns3:hr>
          </ns3:TrackPointExtension>
        </extensions>
      </trkpt>
      <trkpt lat="36.77121550776064395904541015625" lon="-118.43621210195124149322509765625">
        <ele>3490.60009765625</ele>
        <time>2021-06-25T17:38:49.000Z</time>
        <extensions>
          <ns3:TrackPointExtension>
            <ns3:atemp>25.0</ns3:atemp>
            <ns3:hr>96</ns3:hr>
          </ns3:TrackPointExtension>
        </extensions>
      </trkpt>
      <trkpt lat="36.77121500484645366668701171875" lon="-118.43621277250349521636962890625">
        <ele>3491.800048828125</ele>
        <time>2021-06-25T17:38:54.000Z</time>
        <extensions>
          <ns3:TrackPointExtension>
            <ns3:atemp>25.0</ns3:atemp>
            <ns3:hr>94</ns3:hr>
          </ns3:TrackPointExtension>
        </extensions>
      </trkpt>
      <trkpt lat="36.7712139151990413665771484375" lon="-118.43621428124606609344482421875">
        <ele>3492</ele>
        <time>2021-06-25T17:39:05.000Z</time>
        <extensions>
          <ns3:TrackPointExtension>
            <ns3:atemp>26.0</ns3:atemp>
            <ns3:hr>97</ns3:hr>
          </ns3:TrackPointExtension>
        </extensions>
      </trkpt>
      <trkpt lat="36.771213747560977935791015625" lon="-118.4362145327031612396240234375">
        <ele>3492.199951171875</ele>
        <time>2021-06-25T17:39:07.000Z</time>
        <extensions>
          <ns3:TrackPointExtension>
            <ns3:atemp>26.0</ns3:atemp>
            <ns3:hr>100</ns3:hr>
          </ns3:TrackPointExtension>
        </extensions>
      </trkpt>
      <trkpt lat="36.77121366374194622039794921875" lon="-118.43621478416025638580322265625">
        <ele>3492</ele>
        <time>2021-06-25T17:39:09.000Z</time>
        <extensions>
          <ns3:TrackPointExtension>
            <ns3:atemp>26.0</ns3:atemp>
            <ns3:hr>105</ns3:hr>
          </ns3:TrackPointExtension>
        </extensions>
      </trkpt>
      <trkpt lat="36.7712135799229145050048828125" lon="-118.43621511943638324737548828125">
        <ele>3491.60009765625</ele>
        <time>2021-06-25T17:39:11.000Z</time>
        <extensions>
          <ns3:TrackPointExtension>
            <ns3:atemp>26.0</ns3:atemp>
            <ns3:hr>108</ns3:hr>
          </ns3:TrackPointExtension>
        </extensions>
      </trkpt>
      <trkpt lat="36.77121349610388278961181640625" lon="-118.4362153708934783935546875">
        <ele>3491.60009765625</ele>
        <time>2021-06-25T17:39:14.000Z</time>
        <extensions>
          <ns3:TrackPointExtension>
            <ns3:atemp>26.0</ns3:atemp>
            <ns3:hr>111</ns3:hr>
          </ns3:TrackPointExtension>
        </extensions>
      </trkpt>
      <trkpt lat="36.7712132446467876434326171875" lon="-118.4362162090837955474853515625">
        <ele>3492.800048828125</ele>
        <time>2021-06-25T17:39:19.000Z</time>
        <extensions>
          <ns3:TrackPointExtension>
            <ns3:atemp>26.0</ns3:atemp>
            <ns3:hr>110</ns3:hr>
          </ns3:TrackPointExtension>
        </extensions>
      </trkpt>
      <trkpt lat="36.771213077008724212646484375" lon="-118.43621696345508098602294921875">
        <ele>3494</ele>
        <time>2021-06-25T17:39:25.000Z</time>
        <extensions>
          <ns3:TrackPointExtension>
            <ns3:atemp>26.0</ns3:atemp>
            <ns3:hr>109</ns3:hr>
          </ns3:TrackPointExtension>
        </extensions>
      </trkpt>
      <trkpt lat="36.77121299318969249725341796875" lon="-118.43621738255023956298828125">
        <ele>3494.199951171875</ele>
        <time>2021-06-25T17:39:28.000Z</time>
        <extensions>
          <ns3:TrackPointExtension>
            <ns3:atemp>26.0</ns3:atemp>
            <ns3:hr>106</ns3:hr>
          </ns3:TrackPointExtension>
        </extensions>
      </trkpt>
      <trkpt lat="36.7712129093706607818603515625" lon="-118.43621847219765186309814453125">
        <ele>3494.60009765625</ele>
        <time>2021-06-25T17:39:35.000Z</time>
        <extensions>
          <ns3:TrackPointExtension>
            <ns3:atemp>26.0</ns3:atemp>
            <ns3:hr>109</ns3:hr>
          </ns3:TrackPointExtension>
        </extensions>
      </trkpt>
      <trkpt lat="36.77121282555162906646728515625" lon="-118.4362188912928104400634765625">
        <ele>3495</ele>
        <time>2021-06-25T17:39:37.000Z</time>
        <extensions>
          <ns3:TrackPointExtension>
            <ns3:atemp>26.0</ns3:atemp>
            <ns3:hr>111</ns3:hr>
          </ns3:TrackPointExtension>
        </extensions>
      </trkpt>
      <trkpt lat="36.771213077008724212646484375" lon="-118.43622098676860332489013671875">
        <ele>3496</ele>
        <time>2021-06-25T17:39:47.000Z</time>
        <extensions>
          <ns3:TrackPointExtension>
            <ns3:atemp>26.0</ns3:atemp>
            <ns3:hr>111</ns3:hr>
          </ns3:TrackPointExtension>
        </extensions>
      </trkpt>
      <trkpt lat="36.77121349610388278961181640625" lon="-118.4362229146063327789306640625">
        <ele>3497</ele>
        <time>2021-06-25T17:39:55.000Z</time>
        <extensions>
          <ns3:TrackPointExtension>
            <ns3:atemp>26.0</ns3:atemp>
            <ns3:hr>114</ns3:hr>
          </ns3:TrackPointExtension>
        </extensions>
      </trkpt>
      <trkpt lat="36.7712139151990413665771484375" lon="-118.436224423348903656005859375">
        <ele>3496.800048828125</ele>
        <time>2021-06-25T17:40:01.000Z</time>
        <extensions>
          <ns3:TrackPointExtension>
            <ns3:atemp>26.0</ns3:atemp>
            <ns3:hr>117</ns3:hr>
          </ns3:TrackPointExtension>
        </extensions>
      </trkpt>
      <trkpt lat="36.77121450193226337432861328125" lon="-118.43622601591050624847412109375">
        <ele>3497.199951171875</ele>
        <time>2021-06-25T17:40:07.000Z</time>
        <extensions>
          <ns3:TrackPointExtension>
            <ns3:atemp>26.0</ns3:atemp>
            <ns3:hr>118</ns3:hr>
          </ns3:TrackPointExtension>
        </extensions>
      </trkpt>
      <trkpt lat="36.771215088665485382080078125" lon="-118.43622769229114055633544921875">
        <ele>3498.199951171875</ele>
        <time>2021-06-25T17:40:13.000Z</time>
        <extensions>
          <ns3:TrackPointExtension>
            <ns3:atemp>26.0</ns3:atemp>
            <ns3:hr>115</ns3:hr>
          </ns3:TrackPointExtension>
        </extensions>
      </trkpt>
      <trkpt lat="36.771215759217739105224609375" lon="-118.43622945249080657958984375">
        <ele>3499</ele>
        <time>2021-06-25T17:40:19.000Z</time>
        <extensions>
          <ns3:TrackPointExtension>
            <ns3:atemp>26.0</ns3:atemp>
            <ns3:hr>118</ns3:hr>
          </ns3:TrackPointExtension>
        </extensions>
      </trkpt>
      <trkpt lat="36.77121617831289768218994140625" lon="-118.43623070977628231048583984375">
        <ele>3499.60009765625</ele>
        <time>2021-06-25T17:40:23.000Z</time>
        <extensions>
          <ns3:TrackPointExtension>
            <ns3:atemp>26.0</ns3:atemp>
            <ns3:hr>117</ns3:hr>
          </ns3:TrackPointExtension>
        </extensions>
      </trkpt>
      <trkpt lat="36.77121676504611968994140625" lon="-118.43623238615691661834716796875">
        <ele>3500.800048828125</ele>
        <time>2021-06-25T17:40:28.000Z</time>
        <extensions>
          <ns3:TrackPointExtension>
            <ns3:atemp>26.0</ns3:atemp>
            <ns3:hr>117</ns3:hr>
          </ns3:TrackPointExtension>
        </extensions>
      </trkpt>
      <trkpt lat="36.77121718414127826690673828125" lon="-118.43623372726142406463623046875">
        <ele>3502</ele>
        <time>2021-06-25T17:40:32.000Z</time>
        <extensions>
          <ns3:TrackPointExtension>
            <ns3:atemp>26.0</ns3:atemp>
            <ns3:hr>116</ns3:hr>
          </ns3:TrackPointExtension>
        </extensions>
      </trkpt>
      <trkpt lat="36.77121886052191257476806640625" lon="-118.4362395107746124267578125">
        <ele>3503</ele>
        <time>2021-06-25T17:40:47.000Z</time>
        <extensions>
          <ns3:TrackPointExtension>
            <ns3:atemp>26.0</ns3:atemp>
            <ns3:hr>118</ns3:hr>
          </ns3:TrackPointExtension>
        </extensions>
      </trkpt>
      <trkpt lat="36.77121944725513458251953125" lon="-118.43624177388846874237060546875">
        <ele>3504</ele>
        <time>2021-06-25T17:40:52.000Z</time>
        <extensions>
          <ns3:TrackPointExtension>
            <ns3:atemp>26.0</ns3:atemp>
            <ns3:hr>118</ns3:hr>
          </ns3:TrackPointExtension>
        </extensions>
      </trkpt>
      <trkpt lat="36.77121969871222972869873046875" lon="-118.43624277971684932708740234375">
        <ele>3504</ele>
        <time>2021-06-25T17:40:54.000Z</time>
        <extensions>
          <ns3:TrackPointExtension>
            <ns3:atemp>26.0</ns3:atemp>
            <ns3:hr>115</ns3:hr>
          </ns3:TrackPointExtension>
        </extensions>
      </trkpt>
      <trkpt lat="36.7712209559977054595947265625" lon="-118.43624831177294254302978515625">
        <ele>3504.60009765625</ele>
        <time>2021-06-25T17:41:05.000Z</time>
        <extensions>
          <ns3:TrackPointExtension>
            <ns3:atemp>25.0</ns3:atemp>
            <ns3:hr>118</ns3:hr>
          </ns3:TrackPointExtension>
        </extensions>
      </trkpt>
      <trkpt lat="36.77122120745480060577392578125" lon="-118.43624931760132312774658203125">
        <ele>3504.60009765625</ele>
        <time>2021-06-25T17:41:07.000Z</time>
        <extensions>
          <ns3:TrackPointExtension>
            <ns3:atemp>25.0</ns3:atemp>
            <ns3:hr>121</ns3:hr>
          </ns3:TrackPointExtension>
        </extensions>
      </trkpt>
      <trkpt lat="36.77122137509286403656005859375" lon="-118.43625032342970371246337890625">
        <ele>3504.800048828125</ele>
        <time>2021-06-25T17:41:09.000Z</time>
        <extensions>
          <ns3:TrackPointExtension>
            <ns3:atemp>25.0</ns3:atemp>
            <ns3:hr>124</ns3:hr>
          </ns3:TrackPointExtension>
        </extensions>
      </trkpt>
      <trkpt lat="36.77122154273092746734619140625" lon="-118.43625082634389400482177734375">
        <ele>3505.199951171875</ele>
        <time>2021-06-25T17:41:10.000Z</time>
        <extensions>
          <ns3:TrackPointExtension>
            <ns3:atemp>25.0</ns3:atemp>
            <ns3:hr>124</ns3:hr>
          </ns3:TrackPointExtension>
        </extensions>
      </trkpt>
      <trkpt lat="36.77122238092124462127685546875" lon="-118.4362544305622577667236328125">
        <ele>3506.39990234375</ele>
        <time>2021-06-25T17:41:17.000Z</time>
        <extensions>
          <ns3:TrackPointExtension>
            <ns3:atemp>25.0</ns3:atemp>
            <ns3:hr>125</ns3:hr>
          </ns3:TrackPointExtension>
        </extensions>
      </trkpt>
      <trkpt lat="36.77122271619737148284912109375" lon="-118.436255939304828643798828125">
        <ele>3507.39990234375</ele>
        <time>2021-06-25T17:41:20.000Z</time>
        <extensions>
          <ns3:TrackPointExtension>
            <ns3:atemp>25.0</ns3:atemp>
            <ns3:hr>124</ns3:hr>
          </ns3:TrackPointExtension>
        </extensions>
      </trkpt>
      <trkpt lat="36.77122388966381549835205078125" lon="-118.43626071698963642120361328125">
        <ele>3508.39990234375</ele>
        <time>2021-06-25T17:41:29.000Z</time>
        <extensions>
          <ns3:TrackPointExtension>
            <ns3:atemp>25.0</ns3:atemp>
            <ns3:hr>124</ns3:hr>
          </ns3:TrackPointExtension>
        </extensions>
      </trkpt>
      <trkpt lat="36.7712246440351009368896484375" lon="-118.43626339919865131378173828125">
        <ele>3509.39990234375</ele>
        <time>2021-06-25T17:41:34.000Z</time>
        <extensions>
          <ns3:TrackPointExtension>
            <ns3:atemp>26.0</ns3:atemp>
            <ns3:hr>124</ns3:hr>
          </ns3:TrackPointExtension>
        </extensions>
      </trkpt>
      <trkpt lat="36.7712269909679889678955078125" lon="-118.43627161346375942230224609375">
        <ele>3510.199951171875</ele>
        <time>2021-06-25T17:41:48.000Z</time>
        <extensions>
          <ns3:TrackPointExtension>
            <ns3:atemp>26.0</ns3:atemp>
            <ns3:hr>127</ns3:hr>
          </ns3:TrackPointExtension>
        </extensions>
      </trkpt>
      <trkpt lat="36.771227158606052398681640625" lon="-118.4362722001969814300537109375">
        <ele>3511</ele>
        <time>2021-06-25T17:41:49.000Z</time>
        <extensions>
          <ns3:TrackPointExtension>
            <ns3:atemp>26.0</ns3:atemp>
            <ns3:hr>128</ns3:hr>
          </ns3:TrackPointExtension>
        </extensions>
      </trkpt>
      <trkpt lat="36.7712286673486232757568359375" lon="-118.4362770617008209228515625">
        <ele>3512.39990234375</ele>
        <time>2021-06-25T17:41:57.000Z</time>
        <extensions>
          <ns3:TrackPointExtension>
            <ns3:atemp>26.0</ns3:atemp>
            <ns3:hr>128</ns3:hr>
          </ns3:TrackPointExtension>
        </extensions>
      </trkpt>
      <trkpt lat="36.77123193629086017608642578125" lon="-118.4362882934510707855224609375">
        <ele>3511.199951171875</ele>
        <time>2021-06-25T17:42:14.000Z</time>
        <extensions>
          <ns3:TrackPointExtension>
            <ns3:atemp>26.0</ns3:atemp>
            <ns3:hr>129</ns3:hr>
          </ns3:TrackPointExtension>
        </extensions>
      </trkpt>
      <trkpt lat="36.77123411558568477630615234375" lon="-118.43629558570683002471923828125">
        <ele>3510.39990234375</ele>
        <time>2021-06-25T17:42:25.000Z</time>
        <extensions>
          <ns3:TrackPointExtension>
            <ns3:atemp>26.0</ns3:atemp>
            <ns3:hr>126</ns3:hr>
          </ns3:TrackPointExtension>
        </extensions>
      </trkpt>
      <trkpt lat="36.77123512141406536102294921875" lon="-118.436298854649066925048828125">
        <ele>3510.60009765625</ele>
        <time>2021-06-25T17:42:30.000Z</time>
        <extensions>
          <ns3:TrackPointExtension>
            <ns3:atemp>26.0</ns3:atemp>
            <ns3:hr>123</ns3:hr>
          </ns3:TrackPointExtension>
        </extensions>
      </trkpt>
      <trkpt lat="36.7712357081472873687744140625" lon="-118.43630078248679637908935546875">
        <ele>3510.60009765625</ele>
        <time>2021-06-25T17:42:33.000Z</time>
        <extensions>
          <ns3:TrackPointExtension>
            <ns3:atemp>26.0</ns3:atemp>
            <ns3:hr>119</ns3:hr>
          </ns3:TrackPointExtension>
        </extensions>
      </trkpt>
      <trkpt lat="36.7712370492517948150634765625" lon="-118.43630589544773101806640625">
        <ele>3511</ele>
        <time>2021-06-25T17:42:41.000Z</time>
        <extensions>
          <ns3:TrackPointExtension>
            <ns3:atemp>26.0</ns3:atemp>
            <ns3:hr>116</ns3:hr>
          </ns3:TrackPointExtension>
        </extensions>
      </trkpt>
      <trkpt lat="36.77123847417533397674560546875" lon="-118.436312265694141387939453125">
        <ele>3510.800048828125</ele>
        <time>2021-06-25T17:42:51.000Z</time>
        <extensions>
          <ns3:TrackPointExtension>
            <ns3:atemp>26.0</ns3:atemp>
            <ns3:hr>112</ns3:hr>
          </ns3:TrackPointExtension>
        </extensions>
      </trkpt>
      <trkpt lat="36.77123864181339740753173828125" lon="-118.43631285242736339569091796875">
        <ele>3511</ele>
        <time>2021-06-25T17:42:52.000Z</time>
        <extensions>
          <ns3:TrackPointExtension>
            <ns3:atemp>26.0</ns3:atemp>
            <ns3:hr>108</ns3:hr>
          </ns3:TrackPointExtension>
        </extensions>
      </trkpt>
      <trkpt lat="36.77123880945146083831787109375" lon="-118.43631352297961711883544921875">
        <ele>3511</ele>
        <time>2021-06-25T17:42:53.000Z</time>
        <extensions>
          <ns3:TrackPointExtension>
            <ns3:atemp>26.0</ns3:atemp>
            <ns3:hr>105</ns3:hr>
          </ns3:TrackPointExtension>
        </extensions>
      </trkpt>
      <trkpt lat="36.7712400667369365692138671875" lon="-118.4363191388547420501708984375">
        <ele>3510.39990234375</ele>
        <time>2021-06-25T17:43:02.000Z</time>
        <extensions>
          <ns3:TrackPointExtension>
            <ns3:atemp>26.0</ns3:atemp>
            <ns3:hr>102</ns3:hr>
          </ns3:TrackPointExtension>
        </extensions>
      </trkpt>
      <trkpt lat="36.771240234375" lon="-118.4363198094069957733154296875">
        <ele>3510.199951171875</ele>
        <time>2021-06-25T17:43:03.000Z</time>
        <extensions>
          <ns3:TrackPointExtension>
            <ns3:atemp>26.0</ns3:atemp>
            <ns3:hr>101</ns3:hr>
          </ns3:TrackPointExtension>
        </extensions>
      </trkpt>
      <trkpt lat="36.77124082110822200775146484375" lon="-118.43632224015891551971435546875">
        <ele>3510</ele>
        <time>2021-06-25T17:43:07.000Z</time>
        <extensions>
          <ns3:TrackPointExtension>
            <ns3:atemp>26.0</ns3:atemp>
            <ns3:hr>98</ns3:hr>
          </ns3:TrackPointExtension>
        </extensions>
      </trkpt>
      <trkpt lat="36.77124115638434886932373046875" lon="-118.4363234974443912506103515625">
        <ele>3510.199951171875</ele>
        <time>2021-06-25T17:43:09.000Z</time>
        <extensions>
          <ns3:TrackPointExtension>
            <ns3:atemp>26.0</ns3:atemp>
            <ns3:hr>95</ns3:hr>
          </ns3:TrackPointExtension>
        </extensions>
      </trkpt>
      <trkpt lat="36.771241910755634307861328125" lon="-118.43632659874856472015380859375">
        <ele>3510.60009765625</ele>
        <time>2021-06-25T17:43:14.000Z</time>
        <extensions>
          <ns3:TrackPointExtension>
            <ns3:atemp>26.0</ns3:atemp>
            <ns3:hr>92</ns3:hr>
          </ns3:TrackPointExtension>
        </extensions>
      </trkpt>
      <trkpt lat="36.77124350331723690032958984375" lon="-118.43633213080465793609619140625">
        <ele>3511</ele>
        <time>2021-06-25T17:43:23.000Z</time>
        <extensions>
          <ns3:TrackPointExtension>
            <ns3:atemp>26.0</ns3:atemp>
            <ns3:hr>95</ns3:hr>
          </ns3:TrackPointExtension>
        </extensions>
      </trkpt>
      <trkpt lat="36.77124367095530033111572265625" lon="-118.43633280135691165924072265625">
        <ele>3512</ele>
        <time>2021-06-25T17:43:24.000Z</time>
        <extensions>
          <ns3:TrackPointExtension>
            <ns3:atemp>26.0</ns3:atemp>
            <ns3:hr>96</ns3:hr>
          </ns3:TrackPointExtension>
        </extensions>
      </trkpt>
      <trkpt lat="36.77124417386949062347412109375" lon="-118.43633464537560939788818359375">
        <ele>3512.199951171875</ele>
        <time>2021-06-25T17:43:27.000Z</time>
        <extensions>
          <ns3:TrackPointExtension>
            <ns3:atemp>26.0</ns3:atemp>
            <ns3:hr>99</ns3:hr>
          </ns3:TrackPointExtension>
        </extensions>
      </trkpt>
      <trkpt lat="36.771245934069156646728515625" lon="-118.4363402612507343292236328125">
        <ele>3513.199951171875</ele>
        <time>2021-06-25T17:43:36.000Z</time>
        <extensions>
          <ns3:TrackPointExtension>
            <ns3:atemp>26.0</ns3:atemp>
            <ns3:hr>102</ns3:hr>
          </ns3:TrackPointExtension>
        </extensions>
      </trkpt>
      <trkpt lat="36.77124702371656894683837890625" lon="-118.43634344637393951416015625">
        <ele>3513.39990234375</ele>
        <time>2021-06-25T17:43:41.000Z</time>
        <extensions>
          <ns3:TrackPointExtension>
            <ns3:atemp>26.0</ns3:atemp>
            <ns3:hr>105</ns3:hr>
          </ns3:TrackPointExtension>
        </extensions>
      </trkpt>
      <trkpt lat="36.77124752663075923919677734375" lon="-118.43634470365941524505615234375">
        <ele>3513.39990234375</ele>
        <time>2021-06-25T17:43:43.000Z</time>
        <extensions>
          <ns3:TrackPointExtension>
            <ns3:atemp>26.0</ns3:atemp>
            <ns3:hr>108</ns3:hr>
          </ns3:TrackPointExtension>
        </extensions>
      </trkpt>
      <trkpt lat="36.77124786190688610076904296875" lon="-118.43634537421166896820068359375">
        <ele>3514.39990234375</ele>
        <time>2021-06-25T17:43:44.000Z</time>
        <extensions>
          <ns3:TrackPointExtension>
            <ns3:atemp>26.0</ns3:atemp>
            <ns3:hr>109</ns3:hr>
          </ns3:TrackPointExtension>
        </extensions>
      </trkpt>
      <trkpt lat="36.77124895155429840087890625" lon="-118.4363479726016521453857421875">
        <ele>3515</ele>
        <time>2021-06-25T17:43:48.000Z</time>
        <extensions>
          <ns3:TrackPointExtension>
            <ns3:atemp>26.0</ns3:atemp>
            <ns3:hr>112</ns3:hr>
          </ns3:TrackPointExtension>
        </extensions>
      </trkpt>
      <trkpt lat="36.77125004120171070098876953125" lon="-118.43635057099163532257080078125">
        <ele>3515</ele>
        <time>2021-06-25T17:43:52.000Z</time>
        <extensions>
          <ns3:TrackPointExtension>
            <ns3:atemp>26.0</ns3:atemp>
            <ns3:hr>116</ns3:hr>
          </ns3:TrackPointExtension>
        </extensions>
      </trkpt>
      <trkpt lat="36.77125054411590099334716796875" lon="-118.43635191209614276885986328125">
        <ele>3515.199951171875</ele>
        <time>2021-06-25T17:43:54.000Z</time>
        <extensions>
          <ns3:TrackPointExtension>
            <ns3:atemp>26.0</ns3:atemp>
            <ns3:hr>119</ns3:hr>
          </ns3:TrackPointExtension>
        </extensions>
      </trkpt>
      <trkpt lat="36.7712511308491230010986328125" lon="-118.436353169381618499755859375">
        <ele>3515.39990234375</ele>
        <time>2021-06-25T17:43:56.000Z</time>
        <extensions>
          <ns3:TrackPointExtension>
            <ns3:atemp>26.0</ns3:atemp>
            <ns3:hr>117</ns3:hr>
          </ns3:TrackPointExtension>
        </extensions>
      </trkpt>
      <trkpt lat="36.77125305868685245513916015625" lon="-118.436357863247394561767578125">
        <ele>3516.39990234375</ele>
        <time>2021-06-25T17:44:03.000Z</time>
        <extensions>
          <ns3:TrackPointExtension>
            <ns3:atemp>26.0</ns3:atemp>
            <ns3:hr>119</ns3:hr>
          </ns3:TrackPointExtension>
        </extensions>
      </trkpt>
      <trkpt lat="36.771254651248455047607421875" lon="-118.4363620541989803314208984375">
        <ele>3517.60009765625</ele>
        <time>2021-06-25T17:44:09.000Z</time>
        <extensions>
          <ns3:TrackPointExtension>
            <ns3:atemp>26.0</ns3:atemp>
            <ns3:hr>118</ns3:hr>
          </ns3:TrackPointExtension>
        </extensions>
      </trkpt>
      <trkpt lat="36.7712578363716602325439453125" lon="-118.4363709390163421630859375">
        <ele>3518.800048828125</ele>
        <time>2021-06-25T17:44:21.000Z</time>
        <extensions>
          <ns3:TrackPointExtension>
            <ns3:atemp>26.0</ns3:atemp>
            <ns3:hr>116</ns3:hr>
          </ns3:TrackPointExtension>
        </extensions>
      </trkpt>
      <trkpt lat="36.77125808782875537872314453125" lon="-118.43637160956859588623046875">
        <ele>3519</ele>
        <time>2021-06-25T17:44:22.000Z</time>
        <extensions>
          <ns3:TrackPointExtension>
            <ns3:atemp>26.0</ns3:atemp>
            <ns3:hr>113</ns3:hr>
          </ns3:TrackPointExtension>
        </extensions>
      </trkpt>
      <trkpt lat="36.7712591774761676788330078125" lon="-118.436374627053737640380859375">
        <ele>3519.60009765625</ele>
        <time>2021-06-25T17:44:26.000Z</time>
        <extensions>
          <ns3:TrackPointExtension>
            <ns3:atemp>26.0</ns3:atemp>
            <ns3:hr>116</ns3:hr>
          </ns3:TrackPointExtension>
        </extensions>
      </trkpt>
      <trkpt lat="36.77126060239970684051513671875" lon="-118.43637831509113311767578125">
        <ele>3519.800048828125</ele>
        <time>2021-06-25T17:44:31.000Z</time>
        <extensions>
          <ns3:TrackPointExtension>
            <ns3:atemp>26.0</ns3:atemp>
            <ns3:hr>117</ns3:hr>
          </ns3:TrackPointExtension>
        </extensions>
      </trkpt>
      <trkpt lat="36.77126093767583370208740234375" lon="-118.4363789856433868408203125">
        <ele>3519.800048828125</ele>
        <time>2021-06-25T17:44:32.000Z</time>
        <extensions>
          <ns3:TrackPointExtension>
            <ns3:atemp>26.0</ns3:atemp>
            <ns3:hr>120</ns3:hr>
          </ns3:TrackPointExtension>
        </extensions>
      </trkpt>
      <trkpt lat="36.7712628655135631561279296875" lon="-118.43638409860432147979736328125">
        <ele>3520.199951171875</ele>
        <time>2021-06-25T17:44:39.000Z</time>
        <extensions>
          <ns3:TrackPointExtension>
            <ns3:atemp>26.0</ns3:atemp>
            <ns3:hr>123</ns3:hr>
          </ns3:TrackPointExtension>
        </extensions>
      </trkpt>
      <trkpt lat="36.77126361988484859466552734375" lon="-118.43638611026108264923095703125">
        <ele>3521</ele>
        <time>2021-06-25T17:44:42.000Z</time>
        <extensions>
          <ns3:TrackPointExtension>
            <ns3:atemp>26.0</ns3:atemp>
            <ns3:hr>124</ns3:hr>
          </ns3:TrackPointExtension>
        </extensions>
      </trkpt>
      <trkpt lat="36.77126496098935604095458984375" lon="-118.43638979829847812652587890625">
        <ele>3521.39990234375</ele>
        <time>2021-06-25T17:44:47.000Z</time>
        <extensions>
          <ns3:TrackPointExtension>
            <ns3:atemp>26.0</ns3:atemp>
            <ns3:hr>127</ns3:hr>
          </ns3:TrackPointExtension>
        </extensions>
      </trkpt>
      <trkpt lat="36.7712655477225780487060546875" lon="-118.4363912232220172882080078125">
        <ele>3522.199951171875</ele>
        <time>2021-06-25T17:44:49.000Z</time>
        <extensions>
          <ns3:TrackPointExtension>
            <ns3:atemp>26.0</ns3:atemp>
            <ns3:hr>127</ns3:hr>
          </ns3:TrackPointExtension>
        </extensions>
      </trkpt>
      <trkpt lat="36.7712668888270854949951171875" lon="-118.43639465980231761932373046875">
        <ele>3522.60009765625</ele>
        <time>2021-06-25T17:44:54.000Z</time>
        <extensions>
          <ns3:TrackPointExtension>
            <ns3:atemp>26.0</ns3:atemp>
            <ns3:hr>130</ns3:hr>
          </ns3:TrackPointExtension>
        </extensions>
      </trkpt>
      <trkpt lat="36.77126747556030750274658203125" lon="-118.436396084725856781005859375">
        <ele>3522.800048828125</ele>
        <time>2021-06-25T17:44:56.000Z</time>
        <extensions>
          <ns3:TrackPointExtension>
            <ns3:atemp>26.0</ns3:atemp>
            <ns3:hr>133</ns3:hr>
          </ns3:TrackPointExtension>
        </extensions>
      </trkpt>
      <trkpt lat="36.77126772701740264892578125" lon="-118.436396755278110504150390625">
        <ele>3523.39990234375</ele>
        <time>2021-06-25T17:44:57.000Z</time>
        <extensions>
          <ns3:TrackPointExtension>
            <ns3:atemp>26.0</ns3:atemp>
            <ns3:hr>131</ns3:hr>
          </ns3:TrackPointExtension>
        </extensions>
      </trkpt>
      <trkpt lat="36.77127066068351268768310546875" lon="-118.4364042989909648895263671875">
        <ele>3525</ele>
        <time>2021-06-25T17:45:07.000Z</time>
        <extensions>
          <ns3:TrackPointExtension>
            <ns3:atemp>26.0</ns3:atemp>
            <ns3:hr>129</ns3:hr>
          </ns3:TrackPointExtension>
        </extensions>
      </trkpt>
      <trkpt lat="36.77127200178802013397216796875" lon="-118.43640756793320178985595703125">
        <ele>3526.199951171875</ele>
        <time>2021-06-25T17:45:11.000Z</time>
        <extensions>
          <ns3:TrackPointExtension>
            <ns3:atemp>26.0</ns3:atemp>
            <ns3:hr>127</ns3:hr>
          </ns3:TrackPointExtension>
        </extensions>
      </trkpt>
      <trkpt lat="36.77127309143543243408203125" lon="-118.436410166323184967041015625">
        <ele>3526.199951171875</ele>
        <time>2021-06-25T17:45:14.000Z</time>
        <extensions>
          <ns3:TrackPointExtension>
            <ns3:atemp>26.0</ns3:atemp>
            <ns3:hr>124</ns3:hr>
          </ns3:TrackPointExtension>
        </extensions>
      </trkpt>
      <trkpt lat="36.77127468399703502655029296875" lon="-118.43641377054154872894287109375">
        <ele>3527.199951171875</ele>
        <time>2021-06-25T17:45:18.000Z</time>
        <extensions>
          <ns3:TrackPointExtension>
            <ns3:atemp>26.0</ns3:atemp>
            <ns3:hr>124</ns3:hr>
          </ns3:TrackPointExtension>
        </extensions>
      </trkpt>
      <trkpt lat="36.7712762765586376190185546875" lon="-118.4364173747599124908447265625">
        <ele>3527</ele>
        <time>2021-06-25T17:45:22.000Z</time>
        <extensions>
          <ns3:TrackPointExtension>
            <ns3:atemp>26.0</ns3:atemp>
            <ns3:hr>127</ns3:hr>
          </ns3:TrackPointExtension>
        </extensions>
      </trkpt>
      <trkpt lat="36.771277450025081634521484375" lon="-118.4364200569689273834228515625">
        <ele>3527</ele>
        <time>2021-06-25T17:45:25.000Z</time>
        <extensions>
          <ns3:TrackPointExtension>
            <ns3:atemp>26.0</ns3:atemp>
            <ns3:hr>130</ns3:hr>
          </ns3:TrackPointExtension>
        </extensions>
      </trkpt>
      <trkpt lat="36.7712799645960330963134765625" lon="-118.4364254213869571685791015625">
        <ele>3527.39990234375</ele>
        <time>2021-06-25T17:45:31.000Z</time>
        <extensions>
          <ns3:TrackPointExtension>
            <ns3:atemp>26.0</ns3:atemp>
            <ns3:hr>133</ns3:hr>
          </ns3:TrackPointExtension>
        </extensions>
      </trkpt>
      <trkpt lat="36.77128247916698455810546875" lon="-118.4364307858049869537353515625">
        <ele>3527</ele>
        <time>2021-06-25T17:45:37.000Z</time>
        <extensions>
          <ns3:TrackPointExtension>
            <ns3:atemp>26.0</ns3:atemp>
            <ns3:hr>136</ns3:hr>
          </ns3:TrackPointExtension>
        </extensions>
      </trkpt>
      <trkpt lat="36.7712849937379360198974609375" lon="-118.43643606640398502349853515625">
        <ele>3528.199951171875</ele>
        <time>2021-06-25T17:45:43.000Z</time>
        <extensions>
          <ns3:TrackPointExtension>
            <ns3:atemp>26.0</ns3:atemp>
            <ns3:hr>134</ns3:hr>
          </ns3:TrackPointExtension>
        </extensions>
      </trkpt>
      <trkpt lat="36.771285831928253173828125" lon="-118.4364378266036510467529296875">
        <ele>3528.60009765625</ele>
        <time>2021-06-25T17:45:45.000Z</time>
        <extensions>
          <ns3:TrackPointExtension>
            <ns3:atemp>25.0</ns3:atemp>
            <ns3:hr>133</ns3:hr>
          </ns3:TrackPointExtension>
        </extensions>
      </trkpt>
      <trkpt lat="36.7712883464992046356201171875" lon="-118.43644310720264911651611328125">
        <ele>3527.199951171875</ele>
        <time>2021-06-25T17:45:51.000Z</time>
        <extensions>
          <ns3:TrackPointExtension>
            <ns3:atemp>25.0</ns3:atemp>
            <ns3:hr>133</ns3:hr>
          </ns3:TrackPointExtension>
        </extensions>
      </trkpt>
      <trkpt lat="36.771291196346282958984375" lon="-118.43644939363002777099609375">
        <ele>3528.39990234375</ele>
        <time>2021-06-25T17:45:58.000Z</time>
        <extensions>
          <ns3:TrackPointExtension>
            <ns3:atemp>25.0</ns3:atemp>
            <ns3:hr>130</ns3:hr>
          </ns3:TrackPointExtension>
        </extensions>
      </trkpt>
      <trkpt lat="36.77129278890788555145263671875" lon="-118.43645299784839153289794921875">
        <ele>3530</ele>
        <time>2021-06-25T17:46:02.000Z</time>
        <extensions>
          <ns3:TrackPointExtension>
            <ns3:atemp>25.0</ns3:atemp>
            <ns3:hr>132</ns3:hr>
          </ns3:TrackPointExtension>
        </extensions>
      </trkpt>
      <trkpt lat="36.77129362709820270538330078125" lon="-118.43645484186708927154541015625">
        <ele>3531.39990234375</ele>
        <time>2021-06-25T17:46:04.000Z</time>
        <extensions>
          <ns3:TrackPointExtension>
            <ns3:atemp>25.0</ns3:atemp>
            <ns3:hr>134</ns3:hr>
          </ns3:TrackPointExtension>
        </extensions>
      </trkpt>
      <trkpt lat="36.77129480056464672088623046875" lon="-118.4364576078951358795166015625">
        <ele>3531.60009765625</ele>
        <time>2021-06-25T17:46:07.000Z</time>
        <extensions>
          <ns3:TrackPointExtension>
            <ns3:atemp>25.0</ns3:atemp>
            <ns3:hr>137</ns3:hr>
          </ns3:TrackPointExtension>
        </extensions>
      </trkpt>
      <trkpt lat="36.77129597403109073638916015625" lon="-118.4364602901041507720947265625">
        <ele>3533</ele>
        <time>2021-06-25T17:46:10.000Z</time>
        <extensions>
          <ns3:TrackPointExtension>
            <ns3:atemp>25.0</ns3:atemp>
            <ns3:hr>136</ns3:hr>
          </ns3:TrackPointExtension>
        </extensions>
      </trkpt>
      <trkpt lat="36.7712987400591373443603515625" lon="-118.43646682798862457275390625">
        <ele>3534.39990234375</ele>
        <time>2021-06-25T17:46:17.000Z</time>
        <extensions>
          <ns3:TrackPointExtension>
            <ns3:atemp>25.0</ns3:atemp>
            <ns3:hr>135</ns3:hr>
          </ns3:TrackPointExtension>
        </extensions>
      </trkpt>
      <trkpt lat="36.771301925182342529296875" lon="-118.436474539339542388916015625">
        <ele>3534.199951171875</ele>
        <time>2021-06-25T17:46:25.000Z</time>
        <extensions>
          <ns3:TrackPointExtension>
            <ns3:atemp>25.0</ns3:atemp>
            <ns3:hr>132</ns3:hr>
          </ns3:TrackPointExtension>
        </extensions>
      </trkpt>
      <trkpt lat="36.771305613219738006591796875" lon="-118.43648350797593593597412109375">
        <ele>3535.60009765625</ele>
        <time>2021-06-25T17:46:34.000Z</time>
        <extensions>
          <ns3:TrackPointExtension>
            <ns3:atemp>25.0</ns3:atemp>
            <ns3:hr>130</ns3:hr>
          </ns3:TrackPointExtension>
        </extensions>
      </trkpt>
      <trkpt lat="36.77130770869553089141845703125" lon="-118.436488620936870574951171875">
        <ele>3536.39990234375</ele>
        <time>2021-06-25T17:46:39.000Z</time>
        <extensions>
          <ns3:TrackPointExtension>
            <ns3:atemp>24.0</ns3:atemp>
            <ns3:hr>129</ns3:hr>
          </ns3:TrackPointExtension>
        </extensions>
      </trkpt>
      <trkpt lat="36.77130972035229206085205078125" lon="-118.4364938177168369293212890625">
        <ele>3536.60009765625</ele>
        <time>2021-06-25T17:46:44.000Z</time>
        <extensions>
          <ns3:TrackPointExtension>
            <ns3:atemp>24.0</ns3:atemp>
            <ns3:hr>129</ns3:hr>
          </ns3:TrackPointExtension>
        </extensions>
      </trkpt>
      <trkpt lat="36.77131089381873607635498046875" lon="-118.43649691902101039886474609375">
        <ele>3537.60009765625</ele>
        <time>2021-06-25T17:46:47.000Z</time>
        <extensions>
          <ns3:TrackPointExtension>
            <ns3:atemp>24.0</ns3:atemp>
            <ns3:hr>129</ns3:hr>
          </ns3:TrackPointExtension>
        </extensions>
      </trkpt>
      <trkpt lat="36.77131173200905323028564453125" lon="-118.43649901449680328369140625">
        <ele>3537.800048828125</ele>
        <time>2021-06-25T17:46:49.000Z</time>
        <extensions>
          <ns3:TrackPointExtension>
            <ns3:atemp>24.0</ns3:atemp>
            <ns3:hr>132</ns3:hr>
          </ns3:TrackPointExtension>
        </extensions>
      </trkpt>
      <trkpt lat="36.77131357602775096893310546875" lon="-118.4365042112767696380615234375">
        <ele>3539</ele>
        <time>2021-06-25T17:46:54.000Z</time>
        <extensions>
          <ns3:TrackPointExtension>
            <ns3:atemp>24.0</ns3:atemp>
            <ns3:hr>133</ns3:hr>
          </ns3:TrackPointExtension>
        </extensions>
      </trkpt>
      <trkpt lat="36.77131542004644870758056640625" lon="-118.43650949187576770782470703125">
        <ele>3540.199951171875</ele>
        <time>2021-06-25T17:46:59.000Z</time>
        <extensions>
          <ns3:TrackPointExtension>
            <ns3:atemp>24.0</ns3:atemp>
            <ns3:hr>131</ns3:hr>
          </ns3:TrackPointExtension>
        </extensions>
      </trkpt>
      <trkpt lat="36.77131726406514644622802734375" lon="-118.4365149401128292083740234375">
        <ele>3541.60009765625</ele>
        <time>2021-06-25T17:47:04.000Z</time>
        <extensions>
          <ns3:TrackPointExtension>
            <ns3:atemp>24.0</ns3:atemp>
            <ns3:hr>133</ns3:hr>
          </ns3:TrackPointExtension>
        </extensions>
      </trkpt>
      <trkpt lat="36.771318353712558746337890625" lon="-118.43651820905506610870361328125">
        <ele>3543.39990234375</ele>
        <time>2021-06-25T17:47:07.000Z</time>
        <extensions>
          <ns3:TrackPointExtension>
            <ns3:atemp>24.0</ns3:atemp>
            <ns3:hr>134</ns3:hr>
          </ns3:TrackPointExtension>
        </extensions>
      </trkpt>
      <trkpt lat="36.77131868898868560791015625" lon="-118.4365192987024784088134765625">
        <ele>3543.39990234375</ele>
        <time>2021-06-25T17:47:08.000Z</time>
        <extensions>
          <ns3:TrackPointExtension>
            <ns3:atemp>24.0</ns3:atemp>
            <ns3:hr>130</ns3:hr>
          </ns3:TrackPointExtension>
        </extensions>
      </trkpt>
      <trkpt lat="36.77131910808384418487548828125" lon="-118.4365203045308589935302734375">
        <ele>3543.199951171875</ele>
        <time>2021-06-25T17:47:09.000Z</time>
        <extensions>
          <ns3:TrackPointExtension>
            <ns3:atemp>24.0</ns3:atemp>
            <ns3:hr>134</ns3:hr>
          </ns3:TrackPointExtension>
        </extensions>
      </trkpt>
      <trkpt lat="36.7713205330073833465576171875" lon="-118.436524830758571624755859375">
        <ele>3542</ele>
        <time>2021-06-25T17:47:13.000Z</time>
        <extensions>
          <ns3:TrackPointExtension>
            <ns3:atemp>24.0</ns3:atemp>
            <ns3:hr>135</ns3:hr>
          </ns3:TrackPointExtension>
        </extensions>
      </trkpt>
      <trkpt lat="36.77132162265479564666748046875" lon="-118.436528183519840240478515625">
        <ele>3543</ele>
        <time>2021-06-25T17:47:16.000Z</time>
        <extensions>
          <ns3:TrackPointExtension>
            <ns3:atemp>24.0</ns3:atemp>
            <ns3:hr>135</ns3:hr>
          </ns3:TrackPointExtension>
        </extensions>
      </trkpt>
      <trkpt lat="36.77132380194962024688720703125" lon="-118.43653497286140918731689453125">
        <ele>3543.800048828125</ele>
        <time>2021-06-25T17:47:22.000Z</time>
        <extensions>
          <ns3:TrackPointExtension>
            <ns3:atemp>24.0</ns3:atemp>
            <ns3:hr>138</ns3:hr>
          </ns3:TrackPointExtension>
        </extensions>
      </trkpt>
      <trkpt lat="36.7713245563209056854248046875" lon="-118.4365372359752655029296875">
        <ele>3544.199951171875</ele>
        <time>2021-06-25T17:47:24.000Z</time>
        <extensions>
          <ns3:TrackPointExtension>
            <ns3:atemp>24.0</ns3:atemp>
            <ns3:hr>137</ns3:hr>
          </ns3:TrackPointExtension>
        </extensions>
      </trkpt>
      <trkpt lat="36.77132598124444484710693359375" lon="-118.43654192984104156494140625">
        <ele>3544.199951171875</ele>
        <time>2021-06-25T17:47:28.000Z</time>
        <extensions>
          <ns3:TrackPointExtension>
            <ns3:atemp>24.0</ns3:atemp>
            <ns3:hr>140</ns3:hr>
          </ns3:TrackPointExtension>
        </extensions>
      </trkpt>
      <trkpt lat="36.77145036868751049041748046875" lon="-118.436910398304462432861328125">
        <ele>3545</ele>
        <time>2021-06-25T17:47:33.000Z</time>
        <extensions>
          <ns3:TrackPointExtension>
            <ns3:atemp>24.0</ns3:atemp>
            <ns3:hr>138</ns3:hr>
          </ns3:TrackPointExtension>
        </extensions>
      </trkpt>
      <trkpt lat="36.77147316746413707733154296875" lon="-118.43698340468108654022216796875">
        <ele>3545</ele>
        <time>2021-06-25T17:47:34.000Z</time>
        <extensions>
          <ns3:TrackPointExtension>
            <ns3:atemp>24.0</ns3:atemp>
            <ns3:hr>137</ns3:hr>
          </ns3:TrackPointExtension>
        </extensions>
      </trkpt>
      <trkpt lat="36.7715258896350860595703125" lon="-118.43714970164000988006591796875">
        <ele>3545</ele>
        <time>2021-06-25T17:47:43.000Z</time>
        <extensions>
          <ns3:TrackPointExtension>
            <ns3:atemp>24.0</ns3:atemp>
            <ns3:hr>134</ns3:hr>
          </ns3:TrackPointExtension>
        </extensions>
      </trkpt>
      <trkpt lat="36.77153485827147960662841796875" lon="-118.43718222342431545257568359375">
        <ele>3545</ele>
        <time>2021-06-25T17:47:45.000Z</time>
        <extensions>
          <ns3:TrackPointExtension>
            <ns3:atemp>24.0</ns3:atemp>
            <ns3:hr>133</ns3:hr>
          </ns3:TrackPointExtension>
        </extensions>
      </trkpt>
      <trkpt lat="36.77155614830553531646728515625" lon="-118.43726000748574733734130859375">
        <ele>3545.199951171875</ele>
        <time>2021-06-25T17:47:53.000Z</time>
        <extensions>
          <ns3:TrackPointExtension>
            <ns3:atemp>24.0</ns3:atemp>
            <ns3:hr>133</ns3:hr>
          </ns3:TrackPointExtension>
        </extensions>
      </trkpt>
      <trkpt lat="36.77156050689518451690673828125" lon="-118.4372683055698871612548828125">
        <ele>3546.39990234375</ele>
        <time>2021-06-25T17:48:02.000Z</time>
        <extensions>
          <ns3:TrackPointExtension>
            <ns3:atemp>24.0</ns3:atemp>
            <ns3:hr>134</ns3:hr>
          </ns3:TrackPointExtension>
        </extensions>
      </trkpt>
      <trkpt lat="36.771587915718555450439453125" lon="-118.4372864104807376861572265625">
        <ele>3547.60009765625</ele>
        <time>2021-06-25T17:48:14.000Z</time>
        <extensions>
          <ns3:TrackPointExtension>
            <ns3:atemp>24.0</ns3:atemp>
            <ns3:hr>133</ns3:hr>
          </ns3:TrackPointExtension>
        </extensions>
      </trkpt>
      <trkpt lat="36.77159420214593410491943359375" lon="-118.43729068525135517120361328125">
        <ele>3548.800048828125</ele>
        <time>2021-06-25T17:48:17.000Z</time>
        <extensions>
          <ns3:TrackPointExtension>
            <ns3:atemp>24.0</ns3:atemp>
            <ns3:hr>132</ns3:hr>
          </ns3:TrackPointExtension>
        </extensions>
      </trkpt>
      <trkpt lat="36.771595291793346405029296875" lon="-118.437292613089084625244140625">
        <ele>3549.199951171875</ele>
        <time>2021-06-25T17:48:19.000Z</time>
        <extensions>
          <ns3:TrackPointExtension>
            <ns3:atemp>24.0</ns3:atemp>
            <ns3:hr>131</ns3:hr>
          </ns3:TrackPointExtension>
        </extensions>
      </trkpt>
      <trkpt lat="36.771595962345600128173828125" lon="-118.43731147237122058868408203125">
        <ele>3550.199951171875</ele>
        <time>2021-06-25T17:48:23.000Z</time>
        <extensions>
          <ns3:TrackPointExtension>
            <ns3:atemp>24.0</ns3:atemp>
            <ns3:hr>129</ns3:hr>
          </ns3:TrackPointExtension>
        </extensions>
      </trkpt>
      <trkpt lat="36.7715968005359172821044921875" lon="-118.4373123943805694580078125">
        <ele>3550.60009765625</ele>
        <time>2021-06-25T17:48:26.000Z</time>
        <extensions>
          <ns3:TrackPointExtension>
            <ns3:atemp>24.0</ns3:atemp>
            <ns3:hr>126</ns3:hr>
          </ns3:TrackPointExtension>
        </extensions>
      </trkpt>
      <trkpt lat="36.77160308696329593658447265625" lon="-118.43731381930410861968994140625">
        <ele>3552</ele>
        <time>2021-06-25T17:48:37.000Z</time>
        <extensions>
          <ns3:TrackPointExtension>
            <ns3:atemp>24.0</ns3:atemp>
            <ns3:hr>126</ns3:hr>
          </ns3:TrackPointExtension>
        </extensions>
      </trkpt>
      <trkpt lat="36.77160308696329593658447265625" lon="-118.43731440603733062744140625">
        <ele>3553.199951171875</ele>
        <time>2021-06-25T17:48:39.000Z</time>
        <extensions>
          <ns3:TrackPointExtension>
            <ns3:atemp>24.0</ns3:atemp>
            <ns3:hr>125</ns3:hr>
          </ns3:TrackPointExtension>
        </extensions>
      </trkpt>
      <trkpt lat="36.77160409279167652130126953125" lon="-118.43731851316988468170166015625">
        <ele>3554.39990234375</ele>
        <time>2021-06-25T17:48:48.000Z</time>
        <extensions>
          <ns3:TrackPointExtension>
            <ns3:atemp>24.0</ns3:atemp>
            <ns3:hr>124</ns3:hr>
          </ns3:TrackPointExtension>
        </extensions>
      </trkpt>
      <trkpt lat="36.7716025002300739288330078125" lon="-118.43732723034918308258056640625">
        <ele>3550.800048828125</ele>
        <time>2021-06-25T17:48:52.000Z</time>
        <extensions>
          <ns3:TrackPointExtension>
            <ns3:atemp>24.0</ns3:atemp>
            <ns3:hr>125</ns3:hr>
          </ns3:TrackPointExtension>
        </extensions>
      </trkpt>
      <trkpt lat="36.77160074003040790557861328125" lon="-118.43735740520060062408447265625">
        <ele>3551.60009765625</ele>
        <time>2021-06-25T17:48:59.000Z</time>
        <extensions>
          <ns3:TrackPointExtension>
            <ns3:atemp>24.0</ns3:atemp>
            <ns3:hr>124</ns3:hr>
          </ns3:TrackPointExtension>
        </extensions>
      </trkpt>
      <trkpt lat="36.77160057239234447479248046875" lon="-118.4373581595718860626220703125">
        <ele>3552.39990234375</ele>
        <time>2021-06-25T17:49:00.000Z</time>
        <extensions>
          <ns3:TrackPointExtension>
            <ns3:atemp>24.0</ns3:atemp>
            <ns3:hr>124</ns3:hr>
          </ns3:TrackPointExtension>
        </extensions>
      </trkpt>
      <trkpt lat="36.77159965038299560546875" lon="-118.4373588301241397857666015625">
        <ele>3553.39990234375</ele>
        <time>2021-06-25T17:49:02.000Z</time>
        <extensions>
          <ns3:TrackPointExtension>
            <ns3:atemp>24.0</ns3:atemp>
            <ns3:hr>122</ns3:hr>
          </ns3:TrackPointExtension>
        </extensions>
      </trkpt>
      <trkpt lat="36.77159906364977359771728515625" lon="-118.4373615123331546783447265625">
        <ele>3555.199951171875</ele>
        <time>2021-06-25T17:49:04.000Z</time>
        <extensions>
          <ns3:TrackPointExtension>
            <ns3:atemp>24.0</ns3:atemp>
            <ns3:hr>122</ns3:hr>
          </ns3:TrackPointExtension>
        </extensions>
      </trkpt>
      <trkpt lat="36.77159001119434833526611328125" lon="-118.437363691627979278564453125">
        <ele>3556.800048828125</ele>
        <time>2021-06-25T17:49:09.000Z</time>
        <extensions>
          <ns3:TrackPointExtension>
            <ns3:atemp>24.0</ns3:atemp>
            <ns3:hr>122</ns3:hr>
          </ns3:TrackPointExtension>
        </extensions>
      </trkpt>
      <trkpt lat="36.77157592959702014923095703125" lon="-118.43736645765602588653564453125">
        <ele>3558</ele>
        <time>2021-06-25T17:49:12.000Z</time>
        <extensions>
          <ns3:TrackPointExtension>
            <ns3:atemp>23.0</ns3:atemp>
            <ns3:hr>124</ns3:hr>
          </ns3:TrackPointExtension>
        </extensions>
      </trkpt>
      <trkpt lat="36.771567799150943756103515625" lon="-118.43736939132213592529296875">
        <ele>3559.39990234375</ele>
        <time>2021-06-25T17:49:14.000Z</time>
        <extensions>
          <ns3:TrackPointExtension>
            <ns3:atemp>23.0</ns3:atemp>
            <ns3:hr>126</ns3:hr>
          </ns3:TrackPointExtension>
        </extensions>
      </trkpt>
      <trkpt lat="36.7715612612664699554443359375" lon="-118.43737064860761165618896484375">
        <ele>3559.39990234375</ele>
        <time>2021-06-25T17:49:15.000Z</time>
        <extensions>
          <ns3:TrackPointExtension>
            <ns3:atemp>23.0</ns3:atemp>
            <ns3:hr>126</ns3:hr>
          </ns3:TrackPointExtension>
        </extensions>
      </trkpt>
      <trkpt lat="36.77155178971588611602783203125" lon="-118.4373739175498485565185546875">
        <ele>3559.39990234375</ele>
        <time>2021-06-25T17:49:18.000Z</time>
        <extensions>
          <ns3:TrackPointExtension>
            <ns3:atemp>23.0</ns3:atemp>
            <ns3:hr>129</ns3:hr>
          </ns3:TrackPointExtension>
        </extensions>
      </trkpt>
      <trkpt lat="36.77153402008116245269775390625" lon="-118.43738079071044921875">
        <ele>3557.60009765625</ele>
        <time>2021-06-25T17:49:24.000Z</time>
        <extensions>
          <ns3:TrackPointExtension>
            <ns3:atemp>23.0</ns3:atemp>
            <ns3:hr>128</ns3:hr>
          </ns3:TrackPointExtension>
        </extensions>
      </trkpt>
      <trkpt lat="36.77151893265545368194580078125" lon="-118.4373859874904155731201171875">
        <ele>3560.800048828125</ele>
        <time>2021-06-25T17:49:28.000Z</time>
        <extensions>
          <ns3:TrackPointExtension>
            <ns3:atemp>23.0</ns3:atemp>
            <ns3:hr>129</ns3:hr>
          </ns3:TrackPointExtension>
        </extensions>
      </trkpt>
      <trkpt lat="36.771493367850780487060546875" lon="-118.43738908879458904266357421875">
        <ele>3562.60009765625</ele>
        <time>2021-06-25T17:49:34.000Z</time>
        <extensions>
          <ns3:TrackPointExtension>
            <ns3:atemp>23.0</ns3:atemp>
            <ns3:hr>127</ns3:hr>
          </ns3:TrackPointExtension>
        </extensions>
      </trkpt>
      <trkpt lat="36.7714875005185604095458984375" lon="-118.43738975934684276580810546875">
        <ele>3564.800048828125</ele>
        <time>2021-06-25T17:49:36.000Z</time>
        <extensions>
          <ns3:TrackPointExtension>
            <ns3:atemp>23.0</ns3:atemp>
            <ns3:hr>129</ns3:hr>
          </ns3:TrackPointExtension>
        </extensions>
      </trkpt>
      <trkpt lat="36.7714791186153888702392578125" lon="-118.43739059753715991973876953125">
        <ele>3565.199951171875</ele>
        <time>2021-06-25T17:49:38.000Z</time>
        <extensions>
          <ns3:TrackPointExtension>
            <ns3:atemp>23.0</ns3:atemp>
            <ns3:hr>132</ns3:hr>
          </ns3:TrackPointExtension>
        </extensions>
      </trkpt>
      <trkpt lat="36.77147551439702510833740234375" lon="-118.43739143572747707366943359375">
        <ele>3565.199951171875</ele>
        <time>2021-06-25T17:49:39.000Z</time>
        <extensions>
          <ns3:TrackPointExtension>
            <ns3:atemp>23.0</ns3:atemp>
            <ns3:hr>133</ns3:hr>
          </ns3:TrackPointExtension>
        </extensions>
      </trkpt>
      <trkpt lat="36.771452128887176513671875" lon="-118.43740501441061496734619140625">
        <ele>3565.60009765625</ele>
        <time>2021-06-25T17:49:48.000Z</time>
        <extensions>
          <ns3:TrackPointExtension>
            <ns3:atemp>23.0</ns3:atemp>
            <ns3:hr>136</ns3:hr>
          </ns3:TrackPointExtension>
        </extensions>
      </trkpt>
      <trkpt lat="36.77144802175462245941162109375" lon="-118.43740736134350299835205078125">
        <ele>3566</ele>
        <time>2021-06-25T17:49:49.000Z</time>
        <extensions>
          <ns3:TrackPointExtension>
            <ns3:atemp>23.0</ns3:atemp>
            <ns3:hr>136</ns3:hr>
          </ns3:TrackPointExtension>
        </extensions>
      </trkpt>
      <trkpt lat="36.7714194394648075103759765625" lon="-118.437447510659694671630859375">
        <ele>3565.60009765625</ele>
        <time>2021-06-25T17:50:05.000Z</time>
        <extensions>
          <ns3:TrackPointExtension>
            <ns3:atemp>23.0</ns3:atemp>
            <ns3:hr>133</ns3:hr>
          </ns3:TrackPointExtension>
        </extensions>
      </trkpt>
      <trkpt lat="36.7714157514274120330810546875" lon="-118.4374858997762203216552734375">
        <ele>3565</ele>
        <time>2021-06-25T17:50:14.000Z</time>
        <extensions>
          <ns3:TrackPointExtension>
            <ns3:atemp>23.0</ns3:atemp>
            <ns3:hr>132</ns3:hr>
          </ns3:TrackPointExtension>
        </extensions>
      </trkpt>
      <trkpt lat="36.77140544168651103973388671875" lon="-118.437503166496753692626953125">
        <ele>3564.60009765625</ele>
        <time>2021-06-25T17:50:22.000Z</time>
        <extensions>
          <ns3:TrackPointExtension>
            <ns3:atemp>23.0</ns3:atemp>
            <ns3:hr>129</ns3:hr>
          </ns3:TrackPointExtension>
        </extensions>
      </trkpt>
      <trkpt lat="36.77140359766781330108642578125" lon="-118.4375055134296417236328125">
        <ele>3564.199951171875</ele>
        <time>2021-06-25T17:50:25.000Z</time>
        <extensions>
          <ns3:TrackPointExtension>
            <ns3:atemp>23.0</ns3:atemp>
            <ns3:hr>126</ns3:hr>
          </ns3:TrackPointExtension>
        </extensions>
      </trkpt>
      <trkpt lat="36.77140275947749614715576171875" lon="-118.437506519258022308349609375">
        <ele>3564.199951171875</ele>
        <time>2021-06-25T17:50:27.000Z</time>
        <extensions>
          <ns3:TrackPointExtension>
            <ns3:atemp>23.0</ns3:atemp>
            <ns3:hr>123</ns3:hr>
          </ns3:TrackPointExtension>
        </extensions>
      </trkpt>
      <trkpt lat="36.77139974199235439300537109375" lon="-118.43750752508640289306640625">
        <ele>3564.199951171875</ele>
        <time>2021-06-25T17:50:29.000Z</time>
        <extensions>
          <ns3:TrackPointExtension>
            <ns3:atemp>23.0</ns3:atemp>
            <ns3:hr>120</ns3:hr>
          </ns3:TrackPointExtension>
        </extensions>
      </trkpt>
      <trkpt lat="36.77139806561172008514404296875" lon="-118.43750794418156147003173828125">
        <ele>3563.800048828125</ele>
        <time>2021-06-25T17:50:30.000Z</time>
        <extensions>
          <ns3:TrackPointExtension>
            <ns3:atemp>23.0</ns3:atemp>
            <ns3:hr>118</ns3:hr>
          </ns3:TrackPointExtension>
        </extensions>
      </trkpt>
      <trkpt lat="36.77139571867883205413818359375" lon="-118.437509201467037200927734375">
        <ele>3563.800048828125</ele>
        <time>2021-06-25T17:50:32.000Z</time>
        <extensions>
          <ns3:TrackPointExtension>
            <ns3:atemp>23.0</ns3:atemp>
            <ns3:hr>114</ns3:hr>
          </ns3:TrackPointExtension>
        </extensions>
      </trkpt>
      <trkpt lat="36.771394126117229461669921875" lon="-118.43751012347638607025146484375">
        <ele>3563.60009765625</ele>
        <time>2021-06-25T17:50:34.000Z</time>
        <extensions>
          <ns3:TrackPointExtension>
            <ns3:atemp>23.0</ns3:atemp>
            <ns3:hr>110</ns3:hr>
          </ns3:TrackPointExtension>
        </extensions>
      </trkpt>
      <trkpt lat="36.77139244973659515380859375" lon="-118.4375107102096080780029296875">
        <ele>3563.60009765625</ele>
        <time>2021-06-25T17:50:36.000Z</time>
        <extensions>
          <ns3:TrackPointExtension>
            <ns3:atemp>23.0</ns3:atemp>
            <ns3:hr>106</ns3:hr>
          </ns3:TrackPointExtension>
        </extensions>
      </trkpt>
      <trkpt lat="36.7713917791843414306640625" lon="-118.43751096166670322418212890625">
        <ele>3563.60009765625</ele>
        <time>2021-06-25T17:50:37.000Z</time>
        <extensions>
          <ns3:TrackPointExtension>
            <ns3:atemp>23.0</ns3:atemp>
            <ns3:hr>103</ns3:hr>
          </ns3:TrackPointExtension>
        </extensions>
      </trkpt>
      <trkpt lat="36.7713899351656436920166015625" lon="-118.43751179985702037811279296875">
        <ele>3563.39990234375</ele>
        <time>2021-06-25T17:50:41.000Z</time>
        <extensions>
          <ns3:TrackPointExtension>
            <ns3:atemp>23.0</ns3:atemp>
            <ns3:hr>100</ns3:hr>
          </ns3:TrackPointExtension>
        </extensions>
      </trkpt>
      <trkpt lat="36.77138842642307281494140625" lon="-118.43751263804733753204345703125">
        <ele>3563.60009765625</ele>
        <time>2021-06-25T17:50:46.000Z</time>
        <extensions>
          <ns3:TrackPointExtension>
            <ns3:atemp>23.0</ns3:atemp>
            <ns3:hr>97</ns3:hr>
          </ns3:TrackPointExtension>
        </extensions>
      </trkpt>
      <trkpt lat="36.771387420594692230224609375" lon="-118.4375147335231304168701171875">
        <ele>3563.60009765625</ele>
        <time>2021-06-25T17:50:52.000Z</time>
        <extensions>
          <ns3:TrackPointExtension>
            <ns3:atemp>23.0</ns3:atemp>
            <ns3:hr>100</ns3:hr>
          </ns3:TrackPointExtension>
        </extensions>
      </trkpt>
      <trkpt lat="36.771385408937931060791015625" lon="-118.437517918646335601806640625">
        <ele>3562.800048828125</ele>
        <time>2021-06-25T17:51:00.000Z</time>
        <extensions>
          <ns3:TrackPointExtension>
            <ns3:atemp>24.0</ns3:atemp>
            <ns3:hr>99</ns3:hr>
          </ns3:TrackPointExtension>
        </extensions>
      </trkpt>
      <trkpt lat="36.7713839001953601837158203125" lon="-118.437519930303096771240234375">
        <ele>3562.60009765625</ele>
        <time>2021-06-25T17:51:18.000Z</time>
        <extensions>
          <ns3:TrackPointExtension>
            <ns3:atemp>24.0</ns3:atemp>
            <ns3:hr>98</ns3:hr>
          </ns3:TrackPointExtension>
        </extensions>
      </trkpt>
      <trkpt lat="36.7713835649192333221435546875" lon="-118.4375204332172870635986328125">
        <ele>3562.199951171875</ele>
        <time>2021-06-25T17:51:30.000Z</time>
        <extensions>
          <ns3:TrackPointExtension>
            <ns3:atemp>24.0</ns3:atemp>
            <ns3:hr>98</ns3:hr>
          </ns3:TrackPointExtension>
        </extensions>
      </trkpt>
      <trkpt lat="36.771383397281169891357421875" lon="-118.43752135522663593292236328125">
        <ele>3562</ele>
        <time>2021-06-25T17:51:44.000Z</time>
        <extensions>
          <ns3:TrackPointExtension>
            <ns3:atemp>25.0</ns3:atemp>
            <ns3:hr>101</ns3:hr>
          </ns3:TrackPointExtension>
        </extensions>
      </trkpt>
      <trkpt lat="36.7713832296431064605712890625" lon="-118.43752185814082622528076171875">
        <ele>3562.800048828125</ele>
        <time>2021-06-25T17:51:52.000Z</time>
        <extensions>
          <ns3:TrackPointExtension>
            <ns3:atemp>25.0</ns3:atemp>
            <ns3:hr>104</ns3:hr>
          </ns3:TrackPointExtension>
        </extensions>
      </trkpt>
      <trkpt lat="36.77138297818601131439208984375" lon="-118.437522612512111663818359375">
        <ele>3561.800048828125</ele>
        <time>2021-06-25T17:52:02.000Z</time>
        <extensions>
          <ns3:TrackPointExtension>
            <ns3:atemp>25.0</ns3:atemp>
            <ns3:hr>101</ns3:hr>
          </ns3:TrackPointExtension>
        </extensions>
      </trkpt>
      <trkpt lat="36.77138297818601131439208984375" lon="-118.43752269633114337921142578125">
        <ele>3561.199951171875</ele>
        <time>2021-06-25T17:52:03.000Z</time>
        <extensions>
          <ns3:TrackPointExtension>
            <ns3:atemp>25.0</ns3:atemp>
            <ns3:hr>100</ns3:hr>
          </ns3:TrackPointExtension>
        </extensions>
      </trkpt>
      <trkpt lat="36.77138281054794788360595703125" lon="-118.43752303160727024078369140625">
        <ele>3561.199951171875</ele>
        <time>2021-06-25T17:52:07.000Z</time>
        <extensions>
          <ns3:TrackPointExtension>
            <ns3:atemp>25.0</ns3:atemp>
            <ns3:hr>97</ns3:hr>
          </ns3:TrackPointExtension>
        </extensions>
      </trkpt>
      <trkpt lat="36.77138281054794788360595703125" lon="-118.4375231154263019561767578125">
        <ele>3561.199951171875</ele>
        <time>2021-06-25T17:52:08.000Z</time>
        <extensions>
          <ns3:TrackPointExtension>
            <ns3:atemp>25.0</ns3:atemp>
            <ns3:hr>98</ns3:hr>
          </ns3:TrackPointExtension>
        </extensions>
      </trkpt>
      <trkpt lat="36.77138230763375759124755859375" lon="-118.43752386979758739471435546875">
        <ele>3561.39990234375</ele>
        <time>2021-06-25T17:52:19.000Z</time>
        <extensions>
          <ns3:TrackPointExtension>
            <ns3:atemp>25.0</ns3:atemp>
            <ns3:hr>95</ns3:hr>
          </ns3:TrackPointExtension>
        </extensions>
      </trkpt>
      <trkpt lat="36.7713822238147258758544921875" lon="-118.43752403743565082550048828125">
        <ele>3561.39990234375</ele>
        <time>2021-06-25T17:52:21.000Z</time>
        <extensions>
          <ns3:TrackPointExtension>
            <ns3:atemp>25.0</ns3:atemp>
            <ns3:hr>92</ns3:hr>
          </ns3:TrackPointExtension>
        </extensions>
      </trkpt>
      <trkpt lat="36.77138213999569416046142578125" lon="-118.4375241212546825408935546875">
        <ele>3561.60009765625</ele>
        <time>2021-06-25T17:52:23.000Z</time>
        <extensions>
          <ns3:TrackPointExtension>
            <ns3:atemp>25.0</ns3:atemp>
            <ns3:hr>89</ns3:hr>
          </ns3:TrackPointExtension>
        </extensions>
      </trkpt>
      <trkpt lat="36.7713818885385990142822265625" lon="-118.43752437271177768707275390625">
        <ele>3561</ele>
        <time>2021-06-25T17:52:27.000Z</time>
        <extensions>
          <ns3:TrackPointExtension>
            <ns3:atemp>25.0</ns3:atemp>
            <ns3:hr>86</ns3:hr>
          </ns3:TrackPointExtension>
        </extensions>
      </trkpt>
      <trkpt lat="36.77138172090053558349609375" lon="-118.43752454034984111785888671875">
        <ele>3560.800048828125</ele>
        <time>2021-06-25T17:52:30.000Z</time>
        <extensions>
          <ns3:TrackPointExtension>
            <ns3:atemp>25.0</ns3:atemp>
            <ns3:hr>83</ns3:hr>
          </ns3:TrackPointExtension>
        </extensions>
      </trkpt>
      <trkpt lat="36.771381385624408721923828125" lon="-118.43752487562596797943115234375">
        <ele>3561.39990234375</ele>
        <time>2021-06-25T17:52:36.000Z</time>
        <extensions>
          <ns3:TrackPointExtension>
            <ns3:atemp>26.0</ns3:atemp>
            <ns3:hr>86</ns3:hr>
          </ns3:TrackPointExtension>
        </extensions>
      </trkpt>
      <trkpt lat="36.77138130180537700653076171875" lon="-118.43752504326403141021728515625">
        <ele>3561.60009765625</ele>
        <time>2021-06-25T17:52:38.000Z</time>
        <extensions>
          <ns3:TrackPointExtension>
            <ns3:atemp>26.0</ns3:atemp>
            <ns3:hr>90</ns3:hr>
          </ns3:TrackPointExtension>
        </extensions>
      </trkpt>
      <trkpt lat="36.7713812179863452911376953125" lon="-118.43752504326403141021728515625">
        <ele>3561.60009765625</ele>
        <time>2021-06-25T17:52:39.000Z</time>
        <extensions>
          <ns3:TrackPointExtension>
            <ns3:atemp>26.0</ns3:atemp>
            <ns3:hr>93</ns3:hr>
          </ns3:TrackPointExtension>
        </extensions>
      </trkpt>
      <trkpt lat="36.7713812179863452911376953125" lon="-118.4375251270830631256103515625">
        <ele>3561.60009765625</ele>
        <time>2021-06-25T17:52:40.000Z</time>
        <extensions>
          <ns3:TrackPointExtension>
            <ns3:atemp>26.0</ns3:atemp>
            <ns3:hr>93</ns3:hr>
          </ns3:TrackPointExtension>
        </extensions>
      </trkpt>
      <trkpt lat="36.7713810503482818603515625" lon="-118.43752521090209484100341796875">
        <ele>3561.800048828125</ele>
        <time>2021-06-25T17:52:43.000Z</time>
        <extensions>
          <ns3:TrackPointExtension>
            <ns3:atemp>26.0</ns3:atemp>
            <ns3:hr>90</ns3:hr>
          </ns3:TrackPointExtension>
        </extensions>
      </trkpt>
      <trkpt lat="36.771380715072154998779296875" lon="-118.4375254623591899871826171875">
        <ele>3562.199951171875</ele>
        <time>2021-06-25T17:52:48.000Z</time>
        <extensions>
          <ns3:TrackPointExtension>
            <ns3:atemp>26.0</ns3:atemp>
            <ns3:hr>90</ns3:hr>
          </ns3:TrackPointExtension>
        </extensions>
      </trkpt>
      <trkpt lat="36.77130687050521373748779296875" lon="-118.43756762333214282989501953125">
        <ele>3562</ele>
        <time>2021-06-25T17:53:12.000Z</time>
        <extensions>
          <ns3:TrackPointExtension>
            <ns3:atemp>25.0</ns3:atemp>
            <ns3:hr>89</ns3:hr>
          </ns3:TrackPointExtension>
        </extensions>
      </trkpt>
      <trkpt lat="36.7712683975696563720703125" lon="-118.43758908100426197052001953125">
        <ele>3562</ele>
        <time>2021-06-25T17:53:14.000Z</time>
        <extensions>
          <ns3:TrackPointExtension>
            <ns3:atemp>25.0</ns3:atemp>
            <ns3:hr>89</ns3:hr>
          </ns3:TrackPointExtension>
        </extensions>
      </trkpt>
      <trkpt lat="36.771249286830425262451171875" lon="-118.4376002289354801177978515625">
        <ele>3562</ele>
        <time>2021-06-25T17:53:15.000Z</time>
        <extensions>
          <ns3:TrackPointExtension>
            <ns3:atemp>25.0</ns3:atemp>
            <ns3:hr>89</ns3:hr>
          </ns3:TrackPointExtension>
        </extensions>
      </trkpt>
      <trkpt lat="36.77118030376732349395751953125" lon="-118.43762663193047046661376953125">
        <ele>3562.60009765625</ele>
        <time>2021-06-25T17:53:21.000Z</time>
        <extensions>
          <ns3:TrackPointExtension>
            <ns3:atemp>25.0</ns3:atemp>
            <ns3:hr>92</ns3:hr>
          </ns3:TrackPointExtension>
        </extensions>
      </trkpt>
      <trkpt lat="36.77115666680037975311279296875" lon="-118.43761472962796688079833984375">
        <ele>3563.39990234375</ele>
        <time>2021-06-25T17:53:27.000Z</time>
        <extensions>
          <ns3:TrackPointExtension>
            <ns3:atemp>25.0</ns3:atemp>
            <ns3:hr>93</ns3:hr>
          </ns3:TrackPointExtension>
        </extensions>
      </trkpt>
      <trkpt lat="36.7711482010781764984130859375" lon="-118.437625877559185028076171875">
        <ele>3563.60009765625</ele>
        <time>2021-06-25T17:53:29.000Z</time>
        <extensions>
          <ns3:TrackPointExtension>
            <ns3:atemp>25.0</ns3:atemp>
            <ns3:hr>93</ns3:hr>
          </ns3:TrackPointExtension>
        </extensions>
      </trkpt>
      <trkpt lat="36.77112900651991367340087890625" lon="-118.43765412457287311553955078125">
        <ele>3564.60009765625</ele>
        <time>2021-06-25T17:53:34.000Z</time>
        <extensions>
          <ns3:TrackPointExtension>
            <ns3:atemp>25.0</ns3:atemp>
            <ns3:hr>95</ns3:hr>
          </ns3:TrackPointExtension>
        </extensions>
      </trkpt>
      <trkpt lat="36.7711039446294307708740234375" lon="-118.4376726485788822174072265625">
        <ele>3565.199951171875</ele>
        <time>2021-06-25T17:53:38.000Z</time>
        <extensions>
          <ns3:TrackPointExtension>
            <ns3:atemp>25.0</ns3:atemp>
            <ns3:hr>96</ns3:hr>
          </ns3:TrackPointExtension>
        </extensions>
      </trkpt>
      <trkpt lat="36.771099083125591278076171875" lon="-118.43767675571143627166748046875">
        <ele>3565.39990234375</ele>
        <time>2021-06-25T17:53:39.000Z</time>
        <extensions>
          <ns3:TrackPointExtension>
            <ns3:atemp>25.0</ns3:atemp>
            <ns3:hr>99</ns3:hr>
          </ns3:TrackPointExtension>
        </extensions>
      </trkpt>
      <trkpt lat="36.7710905335843563079833984375" lon="-118.4376771748065948486328125">
        <ele>3565.60009765625</ele>
        <time>2021-06-25T17:53:40.000Z</time>
        <extensions>
          <ns3:TrackPointExtension>
            <ns3:atemp>25.0</ns3:atemp>
            <ns3:hr>97</ns3:hr>
          </ns3:TrackPointExtension>
        </extensions>
      </trkpt>
      <trkpt lat="36.7710640467703342437744140625" lon="-118.43768279068171977996826171875">
        <ele>3566.199951171875</ele>
        <time>2021-06-25T17:53:43.000Z</time>
        <extensions>
          <ns3:TrackPointExtension>
            <ns3:atemp>25.0</ns3:atemp>
            <ns3:hr>100</ns3:hr>
          </ns3:TrackPointExtension>
        </extensions>
      </trkpt>
      <trkpt lat="36.77104267291724681854248046875" lon="-118.43768312595784664154052734375">
        <ele>3566.800048828125</ele>
        <time>2021-06-25T17:53:47.000Z</time>
        <extensions>
          <ns3:TrackPointExtension>
            <ns3:atemp>25.0</ns3:atemp>
            <ns3:hr>103</ns3:hr>
          </ns3:TrackPointExtension>
        </extensions>
      </trkpt>
      <trkpt lat="36.77103797905147075653076171875" lon="-118.4376823715865612030029296875">
        <ele>3567.199951171875</ele>
        <time>2021-06-25T17:53:48.000Z</time>
        <extensions>
          <ns3:TrackPointExtension>
            <ns3:atemp>25.0</ns3:atemp>
            <ns3:hr>104</ns3:hr>
          </ns3:TrackPointExtension>
        </extensions>
      </trkpt>
      <trkpt lat="36.7710194550454616546630859375" lon="-118.43768857419490814208984375">
        <ele>3567.800048828125</ele>
        <time>2021-06-25T17:53:52.000Z</time>
        <extensions>
          <ns3:TrackPointExtension>
            <ns3:atemp>25.0</ns3:atemp>
            <ns3:hr>106</ns3:hr>
          </ns3:TrackPointExtension>
        </extensions>
      </trkpt>
      <trkpt lat="36.77100964821875095367431640625" lon="-118.43769921921193599700927734375">
        <ele>3568.39990234375</ele>
        <time>2021-06-25T17:53:56.000Z</time>
        <extensions>
          <ns3:TrackPointExtension>
            <ns3:atemp>25.0</ns3:atemp>
            <ns3:hr>106</ns3:hr>
          </ns3:TrackPointExtension>
        </extensions>
      </trkpt>
      <trkpt lat="36.77099707536399364471435546875" lon="-118.437698967754840850830078125">
        <ele>3569.199951171875</ele>
        <time>2021-06-25T17:54:00.000Z</time>
        <extensions>
          <ns3:TrackPointExtension>
            <ns3:atemp>25.0</ns3:atemp>
            <ns3:hr>107</ns3:hr>
          </ns3:TrackPointExtension>
        </extensions>
      </trkpt>
      <trkpt lat="36.77099321968853473663330078125" lon="-118.4376984648406505584716796875">
        <ele>3569.39990234375</ele>
        <time>2021-06-25T17:54:01.000Z</time>
        <extensions>
          <ns3:TrackPointExtension>
            <ns3:atemp>25.0</ns3:atemp>
            <ns3:hr>103</ns3:hr>
          </ns3:TrackPointExtension>
        </extensions>
      </trkpt>
      <trkpt lat="36.77098902873694896697998046875" lon="-118.43770190142095088958740234375">
        <ele>3569.39990234375</ele>
        <time>2021-06-25T17:54:02.000Z</time>
        <extensions>
          <ns3:TrackPointExtension>
            <ns3:atemp>25.0</ns3:atemp>
            <ns3:hr>106</ns3:hr>
          </ns3:TrackPointExtension>
        </extensions>
      </trkpt>
      <trkpt lat="36.770969666540622711181640625" lon="-118.4377065114676952362060546875">
        <ele>3569.800048828125</ele>
        <time>2021-06-25T17:54:05.000Z</time>
        <extensions>
          <ns3:TrackPointExtension>
            <ns3:atemp>25.0</ns3:atemp>
            <ns3:hr>107</ns3:hr>
          </ns3:TrackPointExtension>
        </extensions>
      </trkpt>
      <trkpt lat="36.7709492146968841552734375" lon="-118.4377008117735385894775390625">
        <ele>3570.199951171875</ele>
        <time>2021-06-25T17:54:08.000Z</time>
        <extensions>
          <ns3:TrackPointExtension>
            <ns3:atemp>25.0</ns3:atemp>
            <ns3:hr>108</ns3:hr>
          </ns3:TrackPointExtension>
        </extensions>
      </trkpt>
      <trkpt lat="36.7709289304912090301513671875" lon="-118.43770458362996578216552734375">
        <ele>3570.800048828125</ele>
        <time>2021-06-25T17:54:11.000Z</time>
        <extensions>
          <ns3:TrackPointExtension>
            <ns3:atemp>25.0</ns3:atemp>
            <ns3:hr>112</ns3:hr>
          </ns3:TrackPointExtension>
        </extensions>
      </trkpt>
      <trkpt lat="36.77092029713094234466552734375" lon="-118.43772134743630886077880859375">
        <ele>3571.199951171875</ele>
        <time>2021-06-25T17:54:13.000Z</time>
        <extensions>
          <ns3:TrackPointExtension>
            <ns3:atemp>25.0</ns3:atemp>
            <ns3:hr>115</ns3:hr>
          </ns3:TrackPointExtension>
        </extensions>
      </trkpt>
      <trkpt lat="36.77091761492192745208740234375" lon="-118.43773425556719303131103515625">
        <ele>3571.39990234375</ele>
        <time>2021-06-25T17:54:15.000Z</time>
        <extensions>
          <ns3:TrackPointExtension>
            <ns3:atemp>25.0</ns3:atemp>
            <ns3:hr>118</ns3:hr>
          </ns3:TrackPointExtension>
        </extensions>
      </trkpt>
      <trkpt lat="36.77090604789555072784423828125" lon="-118.43777708709239959716796875">
        <ele>3572.199951171875</ele>
        <time>2021-06-25T17:54:21.000Z</time>
        <extensions>
          <ns3:TrackPointExtension>
            <ns3:atemp>25.0</ns3:atemp>
            <ns3:hr>121</ns3:hr>
          </ns3:TrackPointExtension>
        </extensions>
      </trkpt>
      <trkpt lat="36.77090085111558437347412109375" lon="-118.437784127891063690185546875">
        <ele>3572.800048828125</ele>
        <time>2021-06-25T17:54:23.000Z</time>
        <extensions>
          <ns3:TrackPointExtension>
            <ns3:atemp>25.0</ns3:atemp>
            <ns3:hr>120</ns3:hr>
          </ns3:TrackPointExtension>
        </extensions>
      </trkpt>
      <trkpt lat="36.77085542120039463043212890625" lon="-118.4377889893949031829833984375">
        <ele>3574</ele>
        <time>2021-06-25T17:54:31.000Z</time>
        <extensions>
          <ns3:TrackPointExtension>
            <ns3:atemp>25.0</ns3:atemp>
            <ns3:hr>123</ns3:hr>
          </ns3:TrackPointExtension>
        </extensions>
      </trkpt>
      <trkpt lat="36.77084469236433506011962890625" lon="-118.43779259361326694488525390625">
        <ele>3574</ele>
        <time>2021-06-25T17:54:33.000Z</time>
        <extensions>
          <ns3:TrackPointExtension>
            <ns3:atemp>25.0</ns3:atemp>
            <ns3:hr>122</ns3:hr>
          </ns3:TrackPointExtension>
        </extensions>
      </trkpt>
      <trkpt lat="36.77083279006183147430419921875" lon="-118.43781706877052783966064453125">
        <ele>3575</ele>
        <time>2021-06-25T17:54:37.000Z</time>
        <extensions>
          <ns3:TrackPointExtension>
            <ns3:atemp>25.0</ns3:atemp>
            <ns3:hr>119</ns3:hr>
          </ns3:TrackPointExtension>
        </extensions>
      </trkpt>
      <trkpt lat="36.77082072012126445770263671875" lon="-118.43782561831176280975341796875">
        <ele>3575.800048828125</ele>
        <time>2021-06-25T17:54:41.000Z</time>
        <extensions>
          <ns3:TrackPointExtension>
            <ns3:atemp>25.0</ns3:atemp>
            <ns3:hr>118</ns3:hr>
          </ns3:TrackPointExtension>
        </extensions>
      </trkpt>
      <trkpt lat="36.77081736735999584197998046875" lon="-118.43781522475183010101318359375">
        <ele>3576.199951171875</ele>
        <time>2021-06-25T17:54:43.000Z</time>
        <extensions>
          <ns3:TrackPointExtension>
            <ns3:atemp>25.0</ns3:atemp>
            <ns3:hr>117</ns3:hr>
          </ns3:TrackPointExtension>
        </extensions>
      </trkpt>
      <trkpt lat="36.77078895270824432373046875" lon="-118.43782645650207996368408203125">
        <ele>3576.60009765625</ele>
        <time>2021-06-25T17:54:50.000Z</time>
        <extensions>
          <ns3:TrackPointExtension>
            <ns3:atemp>25.0</ns3:atemp>
            <ns3:hr>114</ns3:hr>
          </ns3:TrackPointExtension>
        </extensions>
      </trkpt>
      <trkpt lat="36.7707696743309497833251953125" lon="-118.437834419310092926025390625">
        <ele>3577.199951171875</ele>
        <time>2021-06-25T17:54:55.000Z</time>
        <extensions>
          <ns3:TrackPointExtension>
            <ns3:atemp>25.0</ns3:atemp>
            <ns3:hr>111</ns3:hr>
          </ns3:TrackPointExtension>
        </extensions>
      </trkpt>
      <trkpt lat="36.7707646451890468597412109375" lon="-118.4378354251384735107421875">
        <ele>3577.39990234375</ele>
        <time>2021-06-25T17:54:56.000Z</time>
        <extensions>
          <ns3:TrackPointExtension>
            <ns3:atemp>25.0</ns3:atemp>
            <ns3:hr>111</ns3:hr>
          </ns3:TrackPointExtension>
        </extensions>
      </trkpt>
      <trkpt lat="36.77072935737669467926025390625" lon="-118.4378342516720294952392578125">
        <ele>3579</ele>
        <time>2021-06-25T17:55:02.000Z</time>
        <extensions>
          <ns3:TrackPointExtension>
            <ns3:atemp>25.0</ns3:atemp>
            <ns3:hr>107</ns3:hr>
          </ns3:TrackPointExtension>
        </extensions>
      </trkpt>
      <trkpt lat="36.7707287706434726715087890625" lon="-118.4378630854189395904541015625">
        <ele>3579.199951171875</ele>
        <time>2021-06-25T17:55:06.000Z</time>
        <extensions>
          <ns3:TrackPointExtension>
            <ns3:atemp>25.0</ns3:atemp>
            <ns3:hr>110</ns3:hr>
          </ns3:TrackPointExtension>
        </extensions>
      </trkpt>
      <trkpt lat="36.7707193829119205474853515625" lon="-118.43788982369005680084228515625">
        <ele>3579.39990234375</ele>
        <time>2021-06-25T17:55:09.000Z</time>
        <extensions>
          <ns3:TrackPointExtension>
            <ns3:atemp>25.0</ns3:atemp>
            <ns3:hr>111</ns3:hr>
          </ns3:TrackPointExtension>
        </extensions>
      </trkpt>
      <trkpt lat="36.77067705430090427398681640625" lon="-118.437914215028285980224609375">
        <ele>3580</ele>
        <time>2021-06-25T17:55:16.000Z</time>
        <extensions>
          <ns3:TrackPointExtension>
            <ns3:atemp>25.0</ns3:atemp>
            <ns3:hr>112</ns3:hr>
          </ns3:TrackPointExtension>
        </extensions>
      </trkpt>
      <trkpt lat="36.7706694267690181732177734375" lon="-118.43792083673179149627685546875">
        <ele>3580.199951171875</ele>
        <time>2021-06-25T17:55:18.000Z</time>
        <extensions>
          <ns3:TrackPointExtension>
            <ns3:atemp>25.0</ns3:atemp>
            <ns3:hr>112</ns3:hr>
          </ns3:TrackPointExtension>
        </extensions>
      </trkpt>
      <trkpt lat="36.770662553608417510986328125" lon="-118.43792938627302646636962890625">
        <ele>3581</ele>
        <time>2021-06-25T17:55:21.000Z</time>
        <extensions>
          <ns3:TrackPointExtension>
            <ns3:atemp>25.0</ns3:atemp>
            <ns3:hr>114</ns3:hr>
          </ns3:TrackPointExtension>
        </extensions>
      </trkpt>
      <trkpt lat="36.7706595361232757568359375" lon="-118.4379328228533267974853515625">
        <ele>3581.199951171875</ele>
        <time>2021-06-25T17:55:23.000Z</time>
        <extensions>
          <ns3:TrackPointExtension>
            <ns3:atemp>25.0</ns3:atemp>
            <ns3:hr>117</ns3:hr>
          </ns3:TrackPointExtension>
        </extensions>
      </trkpt>
      <trkpt lat="36.77065375261008739471435546875" lon="-118.4379319846630096435546875">
        <ele>3581.60009765625</ele>
        <time>2021-06-25T17:55:25.000Z</time>
        <extensions>
          <ns3:TrackPointExtension>
            <ns3:atemp>25.0</ns3:atemp>
            <ns3:hr>120</ns3:hr>
          </ns3:TrackPointExtension>
        </extensions>
      </trkpt>
      <trkpt lat="36.77064721472561359405517578125" lon="-118.4379301406443119049072265625">
        <ele>3582</ele>
        <time>2021-06-25T17:55:26.000Z</time>
        <extensions>
          <ns3:TrackPointExtension>
            <ns3:atemp>25.0</ns3:atemp>
            <ns3:hr>120</ns3:hr>
          </ns3:TrackPointExtension>
        </extensions>
      </trkpt>
      <trkpt lat="36.770608238875865936279296875" lon="-118.43792754225432872772216796875">
        <ele>3583</ele>
        <time>2021-06-25T17:55:33.000Z</time>
        <extensions>
          <ns3:TrackPointExtension>
            <ns3:atemp>25.0</ns3:atemp>
            <ns3:hr>120</ns3:hr>
          </ns3:TrackPointExtension>
        </extensions>
      </trkpt>
      <trkpt lat="36.7706020362675189971923828125" lon="-118.43792787753045558929443359375">
        <ele>3583.199951171875</ele>
        <time>2021-06-25T17:55:34.000Z</time>
        <extensions>
          <ns3:TrackPointExtension>
            <ns3:atemp>25.0</ns3:atemp>
            <ns3:hr>120</ns3:hr>
          </ns3:TrackPointExtension>
        </extensions>
      </trkpt>
      <trkpt lat="36.770572364330291748046875" lon="-118.43794397078454494476318359375">
        <ele>3584.39990234375</ele>
        <time>2021-06-25T17:55:41.000Z</time>
        <extensions>
          <ns3:TrackPointExtension>
            <ns3:atemp>25.0</ns3:atemp>
            <ns3:hr>120</ns3:hr>
          </ns3:TrackPointExtension>
        </extensions>
      </trkpt>
      <trkpt lat="36.77057110704481601715087890625" lon="-118.43795469962060451507568359375">
        <ele>3584.60009765625</ele>
        <time>2021-06-25T17:55:44.000Z</time>
        <extensions>
          <ns3:TrackPointExtension>
            <ns3:atemp>25.0</ns3:atemp>
            <ns3:hr>120</ns3:hr>
          </ns3:TrackPointExtension>
        </extensions>
      </trkpt>
      <trkpt lat="36.7705535888671875" lon="-118.437941707670688629150390625">
        <ele>3585</ele>
        <time>2021-06-25T17:55:49.000Z</time>
        <extensions>
          <ns3:TrackPointExtension>
            <ns3:atemp>25.0</ns3:atemp>
            <ns3:hr>119</ns3:hr>
          </ns3:TrackPointExtension>
        </extensions>
      </trkpt>
      <trkpt lat="36.7705366574227809906005859375" lon="-118.43793240375816822052001953125">
        <ele>3586</ele>
        <time>2021-06-25T17:55:54.000Z</time>
        <extensions>
          <ns3:TrackPointExtension>
            <ns3:atemp>25.0</ns3:atemp>
            <ns3:hr>116</ns3:hr>
          </ns3:TrackPointExtension>
        </extensions>
      </trkpt>
      <trkpt lat="36.77051863633096218109130859375" lon="-118.437930643558502197265625">
        <ele>3586.199951171875</ele>
        <time>2021-06-25T17:55:58.000Z</time>
        <extensions>
          <ns3:TrackPointExtension>
            <ns3:atemp>25.0</ns3:atemp>
            <ns3:hr>113</ns3:hr>
          </ns3:TrackPointExtension>
        </extensions>
      </trkpt>
      <trkpt lat="36.77051603794097900390625" lon="-118.43793625943362712860107421875">
        <ele>3587.39990234375</ele>
        <time>2021-06-25T17:55:59.000Z</time>
        <extensions>
          <ns3:TrackPointExtension>
            <ns3:atemp>25.0</ns3:atemp>
            <ns3:hr>112</ns3:hr>
          </ns3:TrackPointExtension>
        </extensions>
      </trkpt>
      <trkpt lat="36.77051260136067867279052734375" lon="-118.43794011510908603668212890625">
        <ele>3587.39990234375</ele>
        <time>2021-06-25T17:56:00.000Z</time>
        <extensions>
          <ns3:TrackPointExtension>
            <ns3:atemp>25.0</ns3:atemp>
            <ns3:hr>112</ns3:hr>
          </ns3:TrackPointExtension>
        </extensions>
      </trkpt>
      <trkpt lat="36.77049734629690647125244140625" lon="-118.4379683621227741241455078125">
        <ele>3587.800048828125</ele>
        <time>2021-06-25T17:56:07.000Z</time>
        <extensions>
          <ns3:TrackPointExtension>
            <ns3:atemp>25.0</ns3:atemp>
            <ns3:hr>109</ns3:hr>
          </ns3:TrackPointExtension>
        </extensions>
      </trkpt>
      <trkpt lat="36.77049927413463592529296875" lon="-118.4379730559885501861572265625">
        <ele>3588</ele>
        <time>2021-06-25T17:56:08.000Z</time>
        <extensions>
          <ns3:TrackPointExtension>
            <ns3:atemp>25.0</ns3:atemp>
            <ns3:hr>109</ns3:hr>
          </ns3:TrackPointExtension>
        </extensions>
      </trkpt>
      <trkpt lat="36.7704960890114307403564453125" lon="-118.43798889778554439544677734375">
        <ele>3588.39990234375</ele>
        <time>2021-06-25T17:56:09.000Z</time>
        <extensions>
          <ns3:TrackPointExtension>
            <ns3:atemp>25.0</ns3:atemp>
            <ns3:hr>108</ns3:hr>
          </ns3:TrackPointExtension>
        </extensions>
      </trkpt>
      <trkpt lat="36.7704960890114307403564453125" lon="-118.43798889778554439544677734375">
        <ele>3589</ele>
        <time>2021-06-25T17:56:20.000Z</time>
        <extensions>
          <ns3:TrackPointExtension>
            <ns3:atemp>25.0</ns3:atemp>
            <ns3:hr>112</ns3:hr>
          </ns3:TrackPointExtension>
        </extensions>
      </trkpt>
      <trkpt lat="36.7704960890114307403564453125" lon="-118.43798889778554439544677734375">
        <ele>3589</ele>
        <time>2021-06-25T17:56:22.000Z</time>
        <extensions>
          <ns3:TrackPointExtension>
            <ns3:atemp>25.0</ns3:atemp>
            <ns3:hr>115</ns3:hr>
          </ns3:TrackPointExtension>
        </extensions>
      </trkpt>
      <trkpt lat="36.7704960890114307403564453125" lon="-118.43798889778554439544677734375">
        <ele>3589</ele>
        <time>2021-06-25T17:56:24.000Z</time>
        <extensions>
          <ns3:TrackPointExtension>
            <ns3:atemp>25.0</ns3:atemp>
            <ns3:hr>118</ns3:hr>
          </ns3:TrackPointExtension>
        </extensions>
      </trkpt>
      <trkpt lat="36.77049080841243267059326171875" lon="-118.4379904903471469879150390625">
        <ele>3589</ele>
        <time>2021-06-25T17:56:30.000Z</time>
        <extensions>
          <ns3:TrackPointExtension>
            <ns3:atemp>25.0</ns3:atemp>
            <ns3:hr>121</ns3:hr>
          </ns3:TrackPointExtension>
        </extensions>
      </trkpt>
      <trkpt lat="36.77047270350158214569091796875" lon="-118.437998034060001373291015625">
        <ele>3589.60009765625</ele>
        <time>2021-06-25T17:56:35.000Z</time>
        <extensions>
          <ns3:TrackPointExtension>
            <ns3:atemp>25.0</ns3:atemp>
            <ns3:hr>121</ns3:hr>
          </ns3:TrackPointExtension>
        </extensions>
      </trkpt>
      <trkpt lat="36.7704672552645206451416015625" lon="-118.4379995428025722503662109375">
        <ele>3590.60009765625</ele>
        <time>2021-06-25T17:56:38.000Z</time>
        <extensions>
          <ns3:TrackPointExtension>
            <ns3:atemp>25.0</ns3:atemp>
            <ns3:hr>124</ns3:hr>
          </ns3:TrackPointExtension>
        </extensions>
      </trkpt>
      <trkpt lat="36.7704618908464908599853515625" lon="-118.43800012953579425811767578125">
        <ele>3590.60009765625</ele>
        <time>2021-06-25T17:56:40.000Z</time>
        <extensions>
          <ns3:TrackPointExtension>
            <ns3:atemp>25.0</ns3:atemp>
            <ns3:hr>125</ns3:hr>
          </ns3:TrackPointExtension>
        </extensions>
      </trkpt>
      <trkpt lat="36.77044956944882869720458984375" lon="-118.43801756389439105987548828125">
        <ele>3591.800048828125</ele>
        <time>2021-06-25T17:56:48.000Z</time>
        <extensions>
          <ns3:TrackPointExtension>
            <ns3:atemp>25.0</ns3:atemp>
            <ns3:hr>125</ns3:hr>
          </ns3:TrackPointExtension>
        </extensions>
      </trkpt>
      <trkpt lat="36.770436577498912811279296875" lon="-118.43803080730140209197998046875">
        <ele>3591.800048828125</ele>
        <time>2021-06-25T17:56:52.000Z</time>
        <extensions>
          <ns3:TrackPointExtension>
            <ns3:atemp>25.0</ns3:atemp>
            <ns3:hr>122</ns3:hr>
          </ns3:TrackPointExtension>
        </extensions>
      </trkpt>
      <trkpt lat="36.77043213509023189544677734375" lon="-118.43803231604397296905517578125">
        <ele>3592.39990234375</ele>
        <time>2021-06-25T17:56:54.000Z</time>
        <extensions>
          <ns3:TrackPointExtension>
            <ns3:atemp>25.0</ns3:atemp>
            <ns3:hr>119</ns3:hr>
          </ns3:TrackPointExtension>
        </extensions>
      </trkpt>
      <trkpt lat="36.77041302435100078582763671875" lon="-118.43803969211876392364501953125">
        <ele>3593.199951171875</ele>
        <time>2021-06-25T17:57:01.000Z</time>
        <extensions>
          <ns3:TrackPointExtension>
            <ns3:atemp>25.0</ns3:atemp>
            <ns3:hr>115</ns3:hr>
          </ns3:TrackPointExtension>
        </extensions>
      </trkpt>
      <trkpt lat="36.7704018764197826385498046875" lon="-118.43804120086133480072021484375">
        <ele>3593.800048828125</ele>
        <time>2021-06-25T17:57:03.000Z</time>
        <extensions>
          <ns3:TrackPointExtension>
            <ns3:atemp>25.0</ns3:atemp>
            <ns3:hr>118</ns3:hr>
          </ns3:TrackPointExtension>
        </extensions>
      </trkpt>
      <trkpt lat="36.77039190195500850677490234375" lon="-118.43804522417485713958740234375">
        <ele>3594.39990234375</ele>
        <time>2021-06-25T17:57:07.000Z</time>
        <extensions>
          <ns3:TrackPointExtension>
            <ns3:atemp>25.0</ns3:atemp>
            <ns3:hr>119</ns3:hr>
          </ns3:TrackPointExtension>
        </extensions>
      </trkpt>
      <trkpt lat="36.7703774012625217437744140625" lon="-118.4380484931170940399169921875">
        <ele>3595.199951171875</ele>
        <time>2021-06-25T17:57:15.000Z</time>
        <extensions>
          <ns3:TrackPointExtension>
            <ns3:atemp>25.0</ns3:atemp>
            <ns3:hr>116</ns3:hr>
          </ns3:TrackPointExtension>
        </extensions>
      </trkpt>
      <trkpt lat="36.7703660018742084503173828125" lon="-118.43805293552577495574951171875">
        <ele>3595.800048828125</ele>
        <time>2021-06-25T17:57:19.000Z</time>
        <extensions>
          <ns3:TrackPointExtension>
            <ns3:atemp>25.0</ns3:atemp>
            <ns3:hr>118</ns3:hr>
          </ns3:TrackPointExtension>
        </extensions>
      </trkpt>
      <trkpt lat="36.77035887725651264190673828125" lon="-118.43805477954447269439697265625">
        <ele>3595.800048828125</ele>
        <time>2021-06-25T17:57:21.000Z</time>
        <extensions>
          <ns3:TrackPointExtension>
            <ns3:atemp>25.0</ns3:atemp>
            <ns3:hr>121</ns3:hr>
          </ns3:TrackPointExtension>
        </extensions>
      </trkpt>
      <trkpt lat="36.77034513093531131744384765625" lon="-118.43805980868637561798095703125">
        <ele>3595.60009765625</ele>
        <time>2021-06-25T17:57:24.000Z</time>
        <extensions>
          <ns3:TrackPointExtension>
            <ns3:atemp>25.0</ns3:atemp>
            <ns3:hr>124</ns3:hr>
          </ns3:TrackPointExtension>
        </extensions>
      </trkpt>
      <trkpt lat="36.7703160457313060760498046875" lon="-118.43806483782827854156494140625">
        <ele>3597</ele>
        <time>2021-06-25T17:57:30.000Z</time>
        <extensions>
          <ns3:TrackPointExtension>
            <ns3:atemp>25.0</ns3:atemp>
            <ns3:hr>123</ns3:hr>
          </ns3:TrackPointExtension>
        </extensions>
      </trkpt>
      <trkpt lat="36.770304143428802490234375" lon="-118.43806684948503971099853515625">
        <ele>3597.39990234375</ele>
        <time>2021-06-25T17:57:33.000Z</time>
        <extensions>
          <ns3:TrackPointExtension>
            <ns3:atemp>25.0</ns3:atemp>
            <ns3:hr>126</ns3:hr>
          </ns3:TrackPointExtension>
        </extensions>
      </trkpt>
      <trkpt lat="36.77029584534466266632080078125" lon="-118.4380679391324520111083984375">
        <ele>3597.39990234375</ele>
        <time>2021-06-25T17:57:35.000Z</time>
        <extensions>
          <ns3:TrackPointExtension>
            <ns3:atemp>25.0</ns3:atemp>
            <ns3:hr>128</ns3:hr>
          </ns3:TrackPointExtension>
        </extensions>
      </trkpt>
      <trkpt lat="36.77028796635568141937255859375" lon="-118.4380686096847057342529296875">
        <ele>3597.60009765625</ele>
        <time>2021-06-25T17:57:37.000Z</time>
        <extensions>
          <ns3:TrackPointExtension>
            <ns3:atemp>25.0</ns3:atemp>
            <ns3:hr>131</ns3:hr>
          </ns3:TrackPointExtension>
        </extensions>
      </trkpt>
      <trkpt lat="36.77028260193765163421630859375" lon="-118.4380687773227691650390625">
        <ele>3598.60009765625</ele>
        <time>2021-06-25T17:57:38.000Z</time>
        <extensions>
          <ns3:TrackPointExtension>
            <ns3:atemp>25.0</ns3:atemp>
            <ns3:hr>131</ns3:hr>
          </ns3:TrackPointExtension>
        </extensions>
      </trkpt>
      <trkpt lat="36.77025075070559978485107421875" lon="-118.4380716271698474884033203125">
        <ele>3598.39990234375</ele>
        <time>2021-06-25T17:57:44.000Z</time>
        <extensions>
          <ns3:TrackPointExtension>
            <ns3:atemp>25.0</ns3:atemp>
            <ns3:hr>132</ns3:hr>
          </ns3:TrackPointExtension>
        </extensions>
      </trkpt>
      <trkpt lat="36.77021504379808902740478515625" lon="-118.43814346008002758026123046875">
        <ele>3596.199951171875</ele>
        <time>2021-06-25T18:29:18.000Z</time>
        <extensions>
          <ns3:TrackPointExtension>
            <ns3:atemp>26.0</ns3:atemp>
            <ns3:hr>82</ns3:hr>
          </ns3:TrackPointExtension>
        </extensions>
      </trkpt>
      <trkpt lat="36.77021504379808902740478515625" lon="-118.43814346008002758026123046875">
        <ele>3596.199951171875</ele>
        <time>2021-06-25T18:29:19.000Z</time>
        <extensions>
          <ns3:TrackPointExtension>
            <ns3:atemp>26.0</ns3:atemp>
            <ns3:hr>82</ns3:hr>
          </ns3:TrackPointExtension>
        </extensions>
      </trkpt>
      <trkpt lat="36.7702191509306430816650390625" lon="-118.43814329244196414947509765625">
        <ele>3595.199951171875</ele>
        <time>2021-06-25T18:29:30.000Z</time>
        <extensions>
          <ns3:TrackPointExtension>
            <ns3:atemp>26.0</ns3:atemp>
            <ns3:hr>84</ns3:hr>
          </ns3:TrackPointExtension>
        </extensions>
      </trkpt>
      <trkpt lat="36.770242787897586822509765625" lon="-118.438139520585536956787109375">
        <ele>3593.800048828125</ele>
        <time>2021-06-25T18:29:40.000Z</time>
        <extensions>
          <ns3:TrackPointExtension>
            <ns3:atemp>26.0</ns3:atemp>
            <ns3:hr>83</ns3:hr>
          </ns3:TrackPointExtension>
        </extensions>
      </trkpt>
      <trkpt lat="36.7702697776257991790771484375" lon="-118.4381277859210968017578125">
        <ele>3592.800048828125</ele>
        <time>2021-06-25T18:29:47.000Z</time>
        <extensions>
          <ns3:TrackPointExtension>
            <ns3:atemp>26.0</ns3:atemp>
            <ns3:hr>83</ns3:hr>
          </ns3:TrackPointExtension>
        </extensions>
      </trkpt>
      <trkpt lat="36.770294420421123504638671875" lon="-118.438101969659328460693359375">
        <ele>3592</ele>
        <time>2021-06-25T18:29:53.000Z</time>
        <extensions>
          <ns3:TrackPointExtension>
            <ns3:atemp>26.0</ns3:atemp>
            <ns3:hr>86</ns3:hr>
          </ns3:TrackPointExtension>
        </extensions>
      </trkpt>
      <trkpt lat="36.77031126804649829864501953125" lon="-118.43808629550039768218994140625">
        <ele>3591.199951171875</ele>
        <time>2021-06-25T18:29:57.000Z</time>
        <extensions>
          <ns3:TrackPointExtension>
            <ns3:atemp>26.0</ns3:atemp>
            <ns3:hr>84</ns3:hr>
          </ns3:TrackPointExtension>
        </extensions>
      </trkpt>
      <trkpt lat="36.77034010179340839385986328125" lon="-118.43808059580624103546142578125">
        <ele>3590.199951171875</ele>
        <time>2021-06-25T18:30:04.000Z</time>
        <extensions>
          <ns3:TrackPointExtension>
            <ns3:atemp>26.0</ns3:atemp>
            <ns3:hr>85</ns3:hr>
          </ns3:TrackPointExtension>
        </extensions>
      </trkpt>
      <trkpt lat="36.77036340348422527313232421875" lon="-118.43807883560657501220703125">
        <ele>3589.199951171875</ele>
        <time>2021-06-25T18:30:15.000Z</time>
        <extensions>
          <ns3:TrackPointExtension>
            <ns3:atemp>26.0</ns3:atemp>
            <ns3:hr>83</ns3:hr>
          </ns3:TrackPointExtension>
        </extensions>
      </trkpt>
      <trkpt lat="36.77036742679774761199951171875" lon="-118.43807875178754329681396484375">
        <ele>3589</ele>
        <time>2021-06-25T18:30:17.000Z</time>
        <extensions>
          <ns3:TrackPointExtension>
            <ns3:atemp>26.0</ns3:atemp>
            <ns3:hr>80</ns3:hr>
          </ns3:TrackPointExtension>
        </extensions>
      </trkpt>
      <trkpt lat="36.770381592214107513427734375" lon="-118.438078500330448150634765625">
        <ele>3588</ele>
        <time>2021-06-25T18:30:24.000Z</time>
        <extensions>
          <ns3:TrackPointExtension>
            <ns3:atemp>26.0</ns3:atemp>
            <ns3:hr>79</ns3:hr>
          </ns3:TrackPointExtension>
        </extensions>
      </trkpt>
      <trkpt lat="36.77039810456335544586181640625" lon="-118.43807321973145008087158203125">
        <ele>3586.800048828125</ele>
        <time>2021-06-25T18:30:30.000Z</time>
        <extensions>
          <ns3:TrackPointExtension>
            <ns3:atemp>26.0</ns3:atemp>
            <ns3:hr>81</ns3:hr>
          </ns3:TrackPointExtension>
        </extensions>
      </trkpt>
      <trkpt lat="36.7704127728939056396484375" lon="-118.4380649216473102569580078125">
        <ele>3585.800048828125</ele>
        <time>2021-06-25T18:30:36.000Z</time>
        <extensions>
          <ns3:TrackPointExtension>
            <ns3:atemp>26.0</ns3:atemp>
            <ns3:hr>83</ns3:hr>
          </ns3:TrackPointExtension>
        </extensions>
      </trkpt>
      <trkpt lat="36.77042459137737751007080078125" lon="-118.43805327080190181732177734375">
        <ele>3584.800048828125</ele>
        <time>2021-06-25T18:30:43.000Z</time>
        <extensions>
          <ns3:TrackPointExtension>
            <ns3:atemp>26.0</ns3:atemp>
            <ns3:hr>80</ns3:hr>
          </ns3:TrackPointExtension>
        </extensions>
      </trkpt>
      <trkpt lat="36.770425848662853240966796875" lon="-118.438052348792552947998046875">
        <ele>3584.60009765625</ele>
        <time>2021-06-25T18:30:44.000Z</time>
        <extensions>
          <ns3:TrackPointExtension>
            <ns3:atemp>26.0</ns3:atemp>
            <ns3:hr>80</ns3:hr>
          </ns3:TrackPointExtension>
        </extensions>
      </trkpt>
      <trkpt lat="36.770432889461517333984375" lon="-118.4380471520125865936279296875">
        <ele>3585.800048828125</ele>
        <time>2021-06-25T18:30:53.000Z</time>
        <extensions>
          <ns3:TrackPointExtension>
            <ns3:atemp>26.0</ns3:atemp>
            <ns3:hr>78</ns3:hr>
          </ns3:TrackPointExtension>
        </extensions>
      </trkpt>
      <trkpt lat="36.77043356001377105712890625" lon="-118.43804664909839630126953125">
        <ele>3584.39990234375</ele>
        <time>2021-06-25T18:30:58.000Z</time>
        <extensions>
          <ns3:TrackPointExtension>
            <ns3:atemp>26.0</ns3:atemp>
            <ns3:hr>80</ns3:hr>
          </ns3:TrackPointExtension>
        </extensions>
      </trkpt>
      <trkpt lat="36.7704342305660247802734375" lon="-118.4380461461842060089111328125">
        <ele>3584.199951171875</ele>
        <time>2021-06-25T18:31:03.000Z</time>
        <extensions>
          <ns3:TrackPointExtension>
            <ns3:atemp>26.0</ns3:atemp>
            <ns3:hr>77</ns3:hr>
          </ns3:TrackPointExtension>
        </extensions>
      </trkpt>
      <trkpt lat="36.7704347334802150726318359375" lon="-118.4380458109080791473388671875">
        <ele>3583.199951171875</ele>
        <time>2021-06-25T18:31:07.000Z</time>
        <extensions>
          <ns3:TrackPointExtension>
            <ns3:atemp>26.0</ns3:atemp>
            <ns3:hr>76</ns3:hr>
          </ns3:TrackPointExtension>
        </extensions>
      </trkpt>
      <trkpt lat="36.77043565548956394195556640625" lon="-118.4380451403558254241943359375">
        <ele>3582</ele>
        <time>2021-06-25T18:31:14.000Z</time>
        <extensions>
          <ns3:TrackPointExtension>
            <ns3:atemp>26.0</ns3:atemp>
            <ns3:hr>78</ns3:hr>
          </ns3:TrackPointExtension>
        </extensions>
      </trkpt>
      <trkpt lat="36.7704364098608493804931640625" lon="-118.4380446374416351318359375">
        <ele>3580.800048828125</ele>
        <time>2021-06-25T18:31:20.000Z</time>
        <extensions>
          <ns3:TrackPointExtension>
            <ns3:atemp>26.0</ns3:atemp>
            <ns3:hr>78</ns3:hr>
          </ns3:TrackPointExtension>
        </extensions>
      </trkpt>
      <trkpt lat="36.77052333019673824310302734375" lon="-118.438000045716762542724609375">
        <ele>3580.60009765625</ele>
        <time>2021-06-25T18:31:26.000Z</time>
        <extensions>
          <ns3:TrackPointExtension>
            <ns3:atemp>26.0</ns3:atemp>
            <ns3:hr>80</ns3:hr>
          </ns3:TrackPointExtension>
        </extensions>
      </trkpt>
      <trkpt lat="36.770550906658172607421875" lon="-118.4379878081381320953369140625">
        <ele>3580.39990234375</ele>
        <time>2021-06-25T18:31:28.000Z</time>
        <extensions>
          <ns3:TrackPointExtension>
            <ns3:atemp>26.0</ns3:atemp>
            <ns3:hr>85</ns3:hr>
          </ns3:TrackPointExtension>
        </extensions>
      </trkpt>
      <trkpt lat="36.7705758847296237945556640625" lon="-118.43797096051275730133056640625">
        <ele>3580.60009765625</ele>
        <time>2021-06-25T18:31:31.000Z</time>
        <extensions>
          <ns3:TrackPointExtension>
            <ns3:atemp>26.0</ns3:atemp>
            <ns3:hr>88</ns3:hr>
          </ns3:TrackPointExtension>
        </extensions>
      </trkpt>
      <trkpt lat="36.7705758847296237945556640625" lon="-118.43797096051275730133056640625">
        <ele>3580.60009765625</ele>
        <time>2021-06-25T18:31:34.000Z</time>
        <extensions>
          <ns3:TrackPointExtension>
            <ns3:atemp>26.0</ns3:atemp>
            <ns3:hr>91</ns3:hr>
          </ns3:TrackPointExtension>
        </extensions>
      </trkpt>
      <trkpt lat="36.7705758847296237945556640625" lon="-118.43797096051275730133056640625">
        <ele>3580.39990234375</ele>
        <time>2021-06-25T18:31:37.000Z</time>
        <extensions>
          <ns3:TrackPointExtension>
            <ns3:atemp>26.0</ns3:atemp>
            <ns3:hr>94</ns3:hr>
          </ns3:TrackPointExtension>
        </extensions>
      </trkpt>
      <trkpt lat="36.7705758847296237945556640625" lon="-118.43797096051275730133056640625">
        <ele>3579.800048828125</ele>
        <time>2021-06-25T18:31:41.000Z</time>
        <extensions>
          <ns3:TrackPointExtension>
            <ns3:atemp>26.0</ns3:atemp>
            <ns3:hr>94</ns3:hr>
          </ns3:TrackPointExtension>
        </extensions>
      </trkpt>
      <trkpt lat="36.77057974040508270263671875" lon="-118.43797096051275730133056640625">
        <ele>3579.60009765625</ele>
        <time>2021-06-25T18:31:46.000Z</time>
        <extensions>
          <ns3:TrackPointExtension>
            <ns3:atemp>26.0</ns3:atemp>
            <ns3:hr>97</ns3:hr>
          </ns3:TrackPointExtension>
        </extensions>
      </trkpt>
      <trkpt lat="36.7705799080431461334228515625" lon="-118.43797096051275730133056640625">
        <ele>3579.39990234375</ele>
        <time>2021-06-25T18:31:47.000Z</time>
        <extensions>
          <ns3:TrackPointExtension>
            <ns3:atemp>26.0</ns3:atemp>
            <ns3:hr>102</ns3:hr>
          </ns3:TrackPointExtension>
        </extensions>
      </trkpt>
      <trkpt lat="36.7705799080431461334228515625" lon="-118.43797096051275730133056640625">
        <ele>3579.60009765625</ele>
        <time>2021-06-25T18:31:48.000Z</time>
        <extensions>
          <ns3:TrackPointExtension>
            <ns3:atemp>26.0</ns3:atemp>
            <ns3:hr>102</ns3:hr>
          </ns3:TrackPointExtension>
        </extensions>
      </trkpt>
      <trkpt lat="36.77058150060474872589111328125" lon="-118.4379695355892181396484375">
        <ele>3579.199951171875</ele>
        <time>2021-06-25T18:31:51.000Z</time>
        <extensions>
          <ns3:TrackPointExtension>
            <ns3:atemp>26.0</ns3:atemp>
            <ns3:hr>105</ns3:hr>
          </ns3:TrackPointExtension>
        </extensions>
      </trkpt>
      <trkpt lat="36.77060849033296108245849609375" lon="-118.4379666857421398162841796875">
        <ele>3578.800048828125</ele>
        <time>2021-06-25T18:31:56.000Z</time>
        <extensions>
          <ns3:TrackPointExtension>
            <ns3:atemp>26.0</ns3:atemp>
            <ns3:hr>102</ns3:hr>
          </ns3:TrackPointExtension>
        </extensions>
      </trkpt>
      <trkpt lat="36.77061586640775203704833984375" lon="-118.4379646740853786468505859375">
        <ele>3578.60009765625</ele>
        <time>2021-06-25T18:31:59.000Z</time>
        <extensions>
          <ns3:TrackPointExtension>
            <ns3:atemp>26.0</ns3:atemp>
            <ns3:hr>99</ns3:hr>
          </ns3:TrackPointExtension>
        </extensions>
      </trkpt>
      <trkpt lat="36.770616956055164337158203125" lon="-118.43796425499022006988525390625">
        <ele>3577.800048828125</ele>
        <time>2021-06-25T18:32:01.000Z</time>
        <extensions>
          <ns3:TrackPointExtension>
            <ns3:atemp>26.0</ns3:atemp>
            <ns3:hr>96</ns3:hr>
          </ns3:TrackPointExtension>
        </extensions>
      </trkpt>
      <trkpt lat="36.77061754278838634490966796875" lon="-118.437961824238300323486328125">
        <ele>3577.60009765625</ele>
        <time>2021-06-25T18:32:04.000Z</time>
        <extensions>
          <ns3:TrackPointExtension>
            <ns3:atemp>26.0</ns3:atemp>
            <ns3:hr>97</ns3:hr>
          </ns3:TrackPointExtension>
        </extensions>
      </trkpt>
      <trkpt lat="36.77063514478504657745361328125" lon="-118.4379562921822071075439453125">
        <ele>3576.60009765625</ele>
        <time>2021-06-25T18:32:13.000Z</time>
        <extensions>
          <ns3:TrackPointExtension>
            <ns3:atemp>26.0</ns3:atemp>
            <ns3:hr>97</ns3:hr>
          </ns3:TrackPointExtension>
        </extensions>
      </trkpt>
      <trkpt lat="36.7706633917987346649169921875" lon="-118.4379395283758640289306640625">
        <ele>3575.39990234375</ele>
        <time>2021-06-25T18:32:19.000Z</time>
        <extensions>
          <ns3:TrackPointExtension>
            <ns3:atemp>26.0</ns3:atemp>
            <ns3:hr>99</ns3:hr>
          </ns3:TrackPointExtension>
        </extensions>
      </trkpt>
      <trkpt lat="36.7706821672618389129638671875" lon="-118.43790826387703418731689453125">
        <ele>3574.800048828125</ele>
        <time>2021-06-25T18:32:24.000Z</time>
        <extensions>
          <ns3:TrackPointExtension>
            <ns3:atemp>26.0</ns3:atemp>
            <ns3:hr>102</ns3:hr>
          </ns3:TrackPointExtension>
        </extensions>
      </trkpt>
      <trkpt lat="36.770698763430118560791015625" lon="-118.4378972835838794708251953125">
        <ele>3574.199951171875</ele>
        <time>2021-06-25T18:32:27.000Z</time>
        <extensions>
          <ns3:TrackPointExtension>
            <ns3:atemp>26.0</ns3:atemp>
            <ns3:hr>103</ns3:hr>
          </ns3:TrackPointExtension>
        </extensions>
      </trkpt>
      <trkpt lat="36.770719550549983978271484375" lon="-118.43788412399590015411376953125">
        <ele>3574.199951171875</ele>
        <time>2021-06-25T18:32:31.000Z</time>
        <extensions>
          <ns3:TrackPointExtension>
            <ns3:atemp>26.0</ns3:atemp>
            <ns3:hr>100</ns3:hr>
          </ns3:TrackPointExtension>
        </extensions>
      </trkpt>
      <trkpt lat="36.770730279386043548583984375" lon="-118.43787440098822116851806640625">
        <ele>3574</ele>
        <time>2021-06-25T18:32:33.000Z</time>
        <extensions>
          <ns3:TrackPointExtension>
            <ns3:atemp>26.0</ns3:atemp>
            <ns3:hr>98</ns3:hr>
          </ns3:TrackPointExtension>
        </extensions>
      </trkpt>
      <trkpt lat="36.77074327133595943450927734375" lon="-118.43786819837987422943115234375">
        <ele>3572.800048828125</ele>
        <time>2021-06-25T18:32:37.000Z</time>
        <extensions>
          <ns3:TrackPointExtension>
            <ns3:atemp>26.0</ns3:atemp>
            <ns3:hr>98</ns3:hr>
          </ns3:TrackPointExtension>
        </extensions>
      </trkpt>
      <trkpt lat="36.7707695066928863525390625" lon="-118.43785755336284637451171875">
        <ele>3571.800048828125</ele>
        <time>2021-06-25T18:32:45.000Z</time>
        <extensions>
          <ns3:TrackPointExtension>
            <ns3:atemp>26.0</ns3:atemp>
            <ns3:hr>98</ns3:hr>
          </ns3:TrackPointExtension>
        </extensions>
      </trkpt>
      <trkpt lat="36.77079440094530582427978515625" lon="-118.4378412924706935882568359375">
        <ele>3570.60009765625</ele>
        <time>2021-06-25T18:32:53.000Z</time>
        <extensions>
          <ns3:TrackPointExtension>
            <ns3:atemp>25.0</ns3:atemp>
            <ns3:hr>100</ns3:hr>
          </ns3:TrackPointExtension>
        </extensions>
      </trkpt>
      <trkpt lat="36.77082658745348453521728515625" lon="-118.43780122697353363037109375">
        <ele>3569.60009765625</ele>
        <time>2021-06-25T18:33:00.000Z</time>
        <extensions>
          <ns3:TrackPointExtension>
            <ns3:atemp>25.0</ns3:atemp>
            <ns3:hr>102</ns3:hr>
          </ns3:TrackPointExtension>
        </extensions>
      </trkpt>
      <trkpt lat="36.7708384059369564056396484375" lon="-118.437798209488391876220703125">
        <ele>3569.39990234375</ele>
        <time>2021-06-25T18:33:03.000Z</time>
        <extensions>
          <ns3:TrackPointExtension>
            <ns3:atemp>25.0</ns3:atemp>
            <ns3:hr>99</ns3:hr>
          </ns3:TrackPointExtension>
        </extensions>
      </trkpt>
      <trkpt lat="36.7708484642207622528076171875" lon="-118.4377950243651866912841796875">
        <ele>3568.39990234375</ele>
        <time>2021-06-25T18:33:05.000Z</time>
        <extensions>
          <ns3:TrackPointExtension>
            <ns3:atemp>25.0</ns3:atemp>
            <ns3:hr>99</ns3:hr>
          </ns3:TrackPointExtension>
        </extensions>
      </trkpt>
      <trkpt lat="36.7708741128444671630859375" lon="-118.437770046293735504150390625">
        <ele>3567.39990234375</ele>
        <time>2021-06-25T18:33:12.000Z</time>
        <extensions>
          <ns3:TrackPointExtension>
            <ns3:atemp>25.0</ns3:atemp>
            <ns3:hr>96</ns3:hr>
          </ns3:TrackPointExtension>
        </extensions>
      </trkpt>
      <trkpt lat="36.7708848416805267333984375" lon="-118.43776560388505458831787109375">
        <ele>3567.60009765625</ele>
        <time>2021-06-25T18:33:15.000Z</time>
        <extensions>
          <ns3:TrackPointExtension>
            <ns3:atemp>25.0</ns3:atemp>
            <ns3:hr>93</ns3:hr>
          </ns3:TrackPointExtension>
        </extensions>
      </trkpt>
      <trkpt lat="36.7709021084010601043701171875" lon="-118.43775822781026363372802734375">
        <ele>3567.60009765625</ele>
        <time>2021-06-25T18:33:19.000Z</time>
        <extensions>
          <ns3:TrackPointExtension>
            <ns3:atemp>25.0</ns3:atemp>
            <ns3:hr>90</ns3:hr>
          </ns3:TrackPointExtension>
        </extensions>
      </trkpt>
      <trkpt lat="36.77091409452259540557861328125" lon="-118.4377484209835529327392578125">
        <ele>3567.39990234375</ele>
        <time>2021-06-25T18:33:22.000Z</time>
        <extensions>
          <ns3:TrackPointExtension>
            <ns3:atemp>25.0</ns3:atemp>
            <ns3:hr>87</ns3:hr>
          </ns3:TrackPointExtension>
        </extensions>
      </trkpt>
      <trkpt lat="36.77093303762376308441162109375" lon="-118.43774146400392055511474609375">
        <ele>3566.39990234375</ele>
        <time>2021-06-25T18:33:29.000Z</time>
        <extensions>
          <ns3:TrackPointExtension>
            <ns3:atemp>25.0</ns3:atemp>
            <ns3:hr>85</ns3:hr>
          </ns3:TrackPointExtension>
        </extensions>
      </trkpt>
      <trkpt lat="36.770940162241458892822265625" lon="-118.43773894943296909332275390625">
        <ele>3566</ele>
        <time>2021-06-25T18:33:31.000Z</time>
        <extensions>
          <ns3:TrackPointExtension>
            <ns3:atemp>25.0</ns3:atemp>
            <ns3:hr>83</ns3:hr>
          </ns3:TrackPointExtension>
        </extensions>
      </trkpt>
      <trkpt lat="36.7709637992084026336669921875" lon="-118.4377323277294635772705078125">
        <ele>3564.800048828125</ele>
        <time>2021-06-25T18:33:35.000Z</time>
        <extensions>
          <ns3:TrackPointExtension>
            <ns3:atemp>25.0</ns3:atemp>
            <ns3:hr>80</ns3:hr>
          </ns3:TrackPointExtension>
        </extensions>
      </trkpt>
      <trkpt lat="36.7709765397012233734130859375" lon="-118.43772989697754383087158203125">
        <ele>3564.60009765625</ele>
        <time>2021-06-25T18:33:37.000Z</time>
        <extensions>
          <ns3:TrackPointExtension>
            <ns3:atemp>25.0</ns3:atemp>
            <ns3:hr>83</ns3:hr>
          </ns3:TrackPointExtension>
        </extensions>
      </trkpt>
      <trkpt lat="36.77099606953561305999755859375" lon="-118.43771732412278652191162109375">
        <ele>3563.39990234375</ele>
        <time>2021-06-25T18:33:40.000Z</time>
        <extensions>
          <ns3:TrackPointExtension>
            <ns3:atemp>25.0</ns3:atemp>
            <ns3:hr>83</ns3:hr>
          </ns3:TrackPointExtension>
        </extensions>
      </trkpt>
      <trkpt lat="36.771129257977008819580078125" lon="-118.43766988255083560943603515625">
        <ele>3562.199951171875</ele>
        <time>2021-06-25T18:33:58.000Z</time>
        <extensions>
          <ns3:TrackPointExtension>
            <ns3:atemp>25.0</ns3:atemp>
            <ns3:hr>83</ns3:hr>
          </ns3:TrackPointExtension>
        </extensions>
      </trkpt>
      <trkpt lat="36.7711981572210788726806640625" lon="-118.4376538731157779693603515625">
        <ele>3561</ele>
        <time>2021-06-25T18:34:02.000Z</time>
        <extensions>
          <ns3:TrackPointExtension>
            <ns3:atemp>25.0</ns3:atemp>
            <ns3:hr>85</ns3:hr>
          </ns3:TrackPointExtension>
        </extensions>
      </trkpt>
      <trkpt lat="36.77123486995697021484375" lon="-118.43761883676052093505859375">
        <ele>3560</ele>
        <time>2021-06-25T18:34:06.000Z</time>
        <extensions>
          <ns3:TrackPointExtension>
            <ns3:atemp>25.0</ns3:atemp>
            <ns3:hr>85</ns3:hr>
          </ns3:TrackPointExtension>
        </extensions>
      </trkpt>
      <trkpt lat="36.771254651248455047607421875" lon="-118.437598384916782379150390625">
        <ele>3559.800048828125</ele>
        <time>2021-06-25T18:34:10.000Z</time>
        <extensions>
          <ns3:TrackPointExtension>
            <ns3:atemp>25.0</ns3:atemp>
            <ns3:hr>86</ns3:hr>
          </ns3:TrackPointExtension>
        </extensions>
      </trkpt>
      <trkpt lat="36.7712705768644809722900390625" lon="-118.43758036382496356964111328125">
        <ele>3559.60009765625</ele>
        <time>2021-06-25T18:34:13.000Z</time>
        <extensions>
          <ns3:TrackPointExtension>
            <ns3:atemp>25.0</ns3:atemp>
            <ns3:hr>84</ns3:hr>
          </ns3:TrackPointExtension>
        </extensions>
      </trkpt>
      <trkpt lat="36.77127736620604991912841796875" lon="-118.43757349066436290740966796875">
        <ele>3562</ele>
        <time>2021-06-25T18:34:14.000Z</time>
        <extensions>
          <ns3:TrackPointExtension>
            <ns3:atemp>25.0</ns3:atemp>
            <ns3:hr>86</ns3:hr>
          </ns3:TrackPointExtension>
        </extensions>
      </trkpt>
      <trkpt lat="36.7713014222681522369384765625" lon="-118.43756561167538166046142578125">
        <ele>3561.39990234375</ele>
        <time>2021-06-25T18:34:18.000Z</time>
        <extensions>
          <ns3:TrackPointExtension>
            <ns3:atemp>25.0</ns3:atemp>
            <ns3:hr>85</ns3:hr>
          </ns3:TrackPointExtension>
        </extensions>
      </trkpt>
      <trkpt lat="36.77130661904811859130859375" lon="-118.437570221722126007080078125">
        <ele>3560</ele>
        <time>2021-06-25T18:34:19.000Z</time>
        <extensions>
          <ns3:TrackPointExtension>
            <ns3:atemp>25.0</ns3:atemp>
            <ns3:hr>87</ns3:hr>
          </ns3:TrackPointExtension>
        </extensions>
      </trkpt>
      <trkpt lat="36.7713101394474506378173828125" lon="-118.4375777654349803924560546875">
        <ele>3560</ele>
        <time>2021-06-25T18:34:20.000Z</time>
        <extensions>
          <ns3:TrackPointExtension>
            <ns3:atemp>25.0</ns3:atemp>
            <ns3:hr>85</ns3:hr>
          </ns3:TrackPointExtension>
        </extensions>
      </trkpt>
      <trkpt lat="36.77131223492324352264404296875" lon="-118.43758656643331050872802734375">
        <ele>3559.800048828125</ele>
        <time>2021-06-25T18:34:21.000Z</time>
        <extensions>
          <ns3:TrackPointExtension>
            <ns3:atemp>25.0</ns3:atemp>
            <ns3:hr>85</ns3:hr>
          </ns3:TrackPointExtension>
        </extensions>
      </trkpt>
      <trkpt lat="36.77131466567516326904296875" lon="-118.4375962056219577789306640625">
        <ele>3559.800048828125</ele>
        <time>2021-06-25T18:34:22.000Z</time>
        <extensions>
          <ns3:TrackPointExtension>
            <ns3:atemp>25.0</ns3:atemp>
            <ns3:hr>86</ns3:hr>
          </ns3:TrackPointExtension>
        </extensions>
      </trkpt>
      <trkpt lat="36.7713188566267490386962890625" lon="-118.43760333023965358734130859375">
        <ele>3559.60009765625</ele>
        <time>2021-06-25T18:34:23.000Z</time>
        <extensions>
          <ns3:TrackPointExtension>
            <ns3:atemp>25.0</ns3:atemp>
            <ns3:hr>86</ns3:hr>
          </ns3:TrackPointExtension>
        </extensions>
      </trkpt>
      <trkpt lat="36.7713383026421070098876953125" lon="-118.437582962214946746826171875">
        <ele>3559</ele>
        <time>2021-06-25T18:34:26.000Z</time>
        <extensions>
          <ns3:TrackPointExtension>
            <ns3:atemp>25.0</ns3:atemp>
            <ns3:hr>86</ns3:hr>
          </ns3:TrackPointExtension>
        </extensions>
      </trkpt>
      <trkpt lat="36.771345846354961395263671875" lon="-118.437573574483394622802734375">
        <ele>3558.800048828125</ele>
        <time>2021-06-25T18:34:27.000Z</time>
        <extensions>
          <ns3:TrackPointExtension>
            <ns3:atemp>25.0</ns3:atemp>
            <ns3:hr>86</ns3:hr>
          </ns3:TrackPointExtension>
        </extensions>
      </trkpt>
      <trkpt lat="36.7713771946728229522705078125" lon="-118.43756544403731822967529296875">
        <ele>3558.800048828125</ele>
        <time>2021-06-25T18:34:31.000Z</time>
        <extensions>
          <ns3:TrackPointExtension>
            <ns3:atemp>25.0</ns3:atemp>
            <ns3:hr>89</ns3:hr>
          </ns3:TrackPointExtension>
        </extensions>
      </trkpt>
      <trkpt lat="36.7713989876210689544677734375" lon="-118.4375784359872341156005859375">
        <ele>3558</ele>
        <time>2021-06-25T18:34:34.000Z</time>
        <extensions>
          <ns3:TrackPointExtension>
            <ns3:atemp>25.0</ns3:atemp>
            <ns3:hr>91</ns3:hr>
          </ns3:TrackPointExtension>
        </extensions>
      </trkpt>
      <trkpt lat="36.77143402397632598876953125" lon="-118.4375537931919097900390625">
        <ele>3556.800048828125</ele>
        <time>2021-06-25T18:34:39.000Z</time>
        <extensions>
          <ns3:TrackPointExtension>
            <ns3:atemp>25.0</ns3:atemp>
            <ns3:hr>91</ns3:hr>
          </ns3:TrackPointExtension>
        </extensions>
      </trkpt>
      <trkpt lat="36.7714392207562923431396484375" lon="-118.43755505047738552093505859375">
        <ele>3556.800048828125</ele>
        <time>2021-06-25T18:34:40.000Z</time>
        <extensions>
          <ns3:TrackPointExtension>
            <ns3:atemp>25.0</ns3:atemp>
            <ns3:hr>92</ns3:hr>
          </ns3:TrackPointExtension>
        </extensions>
      </trkpt>
      <trkpt lat="36.77147467620670795440673828125" lon="-118.4375636838376522064208984375">
        <ele>3555.60009765625</ele>
        <time>2021-06-25T18:34:44.000Z</time>
        <extensions>
          <ns3:TrackPointExtension>
            <ns3:atemp>25.0</ns3:atemp>
            <ns3:hr>92</ns3:hr>
          </ns3:TrackPointExtension>
        </extensions>
      </trkpt>
      <trkpt lat="36.771520860493183135986328125" lon="-118.43757592141628265380859375">
        <ele>3554.800048828125</ele>
        <time>2021-06-25T18:34:49.000Z</time>
        <extensions>
          <ns3:TrackPointExtension>
            <ns3:atemp>25.0</ns3:atemp>
            <ns3:hr>93</ns3:hr>
          </ns3:TrackPointExtension>
        </extensions>
      </trkpt>
      <trkpt lat="36.7715300805866718292236328125" lon="-118.43757634051144123077392578125">
        <ele>3554.60009765625</ele>
        <time>2021-06-25T18:34:50.000Z</time>
        <extensions>
          <ns3:TrackPointExtension>
            <ns3:atemp>25.0</ns3:atemp>
            <ns3:hr>91</ns3:hr>
          </ns3:TrackPointExtension>
        </extensions>
      </trkpt>
      <trkpt lat="36.77156754769384860992431640625" lon="-118.4375730715692043304443359375">
        <ele>3554.60009765625</ele>
        <time>2021-06-25T18:34:54.000Z</time>
        <extensions>
          <ns3:TrackPointExtension>
            <ns3:atemp>25.0</ns3:atemp>
            <ns3:hr>88</ns3:hr>
          </ns3:TrackPointExtension>
        </extensions>
      </trkpt>
      <trkpt lat="36.77157710306346416473388671875" lon="-118.43757198192179203033447265625">
        <ele>3554.39990234375</ele>
        <time>2021-06-25T18:34:55.000Z</time>
        <extensions>
          <ns3:TrackPointExtension>
            <ns3:atemp>25.0</ns3:atemp>
            <ns3:hr>85</ns3:hr>
          </ns3:TrackPointExtension>
        </extensions>
      </trkpt>
      <trkpt lat="36.77158816717565059661865234375" lon="-118.43757114373147487640380859375">
        <ele>3554.39990234375</ele>
        <time>2021-06-25T18:34:56.000Z</time>
        <extensions>
          <ns3:TrackPointExtension>
            <ns3:atemp>25.0</ns3:atemp>
            <ns3:hr>88</ns3:hr>
          </ns3:TrackPointExtension>
        </extensions>
      </trkpt>
      <trkpt lat="36.77164055407047271728515625" lon="-118.43755689449608325958251953125">
        <ele>3554.60009765625</ele>
        <time>2021-06-25T18:35:01.000Z</time>
        <extensions>
          <ns3:TrackPointExtension>
            <ns3:atemp>24.0</ns3:atemp>
            <ns3:hr>89</ns3:hr>
          </ns3:TrackPointExtension>
        </extensions>
      </trkpt>
      <trkpt lat="36.771693527698516845703125" lon="-118.43754381872713565826416015625">
        <ele>3554</ele>
        <time>2021-06-25T18:35:10.000Z</time>
        <extensions>
          <ns3:TrackPointExtension>
            <ns3:atemp>24.0</ns3:atemp>
            <ns3:hr>88</ns3:hr>
          </ns3:TrackPointExtension>
        </extensions>
      </trkpt>
      <trkpt lat="36.77173602394759654998779296875" lon="-118.4374999813735485076904296875">
        <ele>3554.800048828125</ele>
        <time>2021-06-25T18:35:18.000Z</time>
        <extensions>
          <ns3:TrackPointExtension>
            <ns3:atemp>24.0</ns3:atemp>
            <ns3:hr>89</ns3:hr>
          </ns3:TrackPointExtension>
        </extensions>
      </trkpt>
      <trkpt lat="36.7717996425926685333251953125" lon="-118.43742228113114833831787109375">
        <ele>3554.800048828125</ele>
        <time>2021-06-25T18:35:26.000Z</time>
        <extensions>
          <ns3:TrackPointExtension>
            <ns3:atemp>24.0</ns3:atemp>
            <ns3:hr>91</ns3:hr>
          </ns3:TrackPointExtension>
        </extensions>
      </trkpt>
      <trkpt lat="36.77182487212121486663818359375" lon="-118.43736578710377216339111328125">
        <ele>3555.199951171875</ele>
        <time>2021-06-25T18:35:31.000Z</time>
        <extensions>
          <ns3:TrackPointExtension>
            <ns3:atemp>24.0</ns3:atemp>
            <ns3:hr>94</ns3:hr>
          </ns3:TrackPointExtension>
        </extensions>
      </trkpt>
      <trkpt lat="36.77182721905410289764404296875" lon="-118.43735438771545886993408203125">
        <ele>3555.60009765625</ele>
        <time>2021-06-25T18:35:32.000Z</time>
        <extensions>
          <ns3:TrackPointExtension>
            <ns3:atemp>24.0</ns3:atemp>
            <ns3:hr>95</ns3:hr>
          </ns3:TrackPointExtension>
        </extensions>
      </trkpt>
      <trkpt lat="36.77183073945343494415283203125" lon="-118.43734198249876499176025390625">
        <ele>3555.60009765625</ele>
        <time>2021-06-25T18:35:33.000Z</time>
        <extensions>
          <ns3:TrackPointExtension>
            <ns3:atemp>24.0</ns3:atemp>
            <ns3:hr>96</ns3:hr>
          </ns3:TrackPointExtension>
        </extensions>
      </trkpt>
      <trkpt lat="36.7718348465859889984130859375" lon="-118.43731432221829891204833984375">
        <ele>3556</ele>
        <time>2021-06-25T18:35:36.000Z</time>
        <extensions>
          <ns3:TrackPointExtension>
            <ns3:atemp>24.0</ns3:atemp>
            <ns3:hr>99</ns3:hr>
          </ns3:TrackPointExtension>
        </extensions>
      </trkpt>
      <trkpt lat="36.77183526568114757537841796875" lon="-118.437308371067047119140625">
        <ele>3556.199951171875</ele>
        <time>2021-06-25T18:35:38.000Z</time>
        <extensions>
          <ns3:TrackPointExtension>
            <ns3:atemp>24.0</ns3:atemp>
            <ns3:hr>102</ns3:hr>
          </ns3:TrackPointExtension>
        </extensions>
      </trkpt>
      <trkpt lat="36.771834008395671844482421875" lon="-118.43730501830577850341796875">
        <ele>3554.60009765625</ele>
        <time>2021-06-25T18:35:43.000Z</time>
        <extensions>
          <ns3:TrackPointExtension>
            <ns3:atemp>24.0</ns3:atemp>
            <ns3:hr>104</ns3:hr>
          </ns3:TrackPointExtension>
        </extensions>
      </trkpt>
      <trkpt lat="36.77183761261403560638427734375" lon="-118.43724492006003856658935546875">
        <ele>3553.800048828125</ele>
        <time>2021-06-25T18:35:53.000Z</time>
        <extensions>
          <ns3:TrackPointExtension>
            <ns3:atemp>24.0</ns3:atemp>
            <ns3:hr>104</ns3:hr>
          </ns3:TrackPointExtension>
        </extensions>
      </trkpt>
      <trkpt lat="36.771820597350597381591796875" lon="-118.43721843324601650238037109375">
        <ele>3548.199951171875</ele>
        <time>2021-06-25T18:35:57.000Z</time>
        <extensions>
          <ns3:TrackPointExtension>
            <ns3:atemp>24.0</ns3:atemp>
            <ns3:hr>103</ns3:hr>
          </ns3:TrackPointExtension>
        </extensions>
      </trkpt>
      <trkpt lat="36.77181129343807697296142578125" lon="-118.43722245655953884124755859375">
        <ele>3547.60009765625</ele>
        <time>2021-06-25T18:36:01.000Z</time>
        <extensions>
          <ns3:TrackPointExtension>
            <ns3:atemp>24.0</ns3:atemp>
            <ns3:hr>101</ns3:hr>
          </ns3:TrackPointExtension>
        </extensions>
      </trkpt>
      <trkpt lat="36.77182202227413654327392578125" lon="-118.43721943907439708709716796875">
        <ele>3549</ele>
        <time>2021-06-25T18:36:09.000Z</time>
        <extensions>
          <ns3:TrackPointExtension>
            <ns3:atemp>23.0</ns3:atemp>
            <ns3:hr>98</ns3:hr>
          </ns3:TrackPointExtension>
        </extensions>
      </trkpt>
      <trkpt lat="36.77182202227413654327392578125" lon="-118.43721943907439708709716796875">
        <ele>3549.199951171875</ele>
        <time>2021-06-25T18:36:10.000Z</time>
        <extensions>
          <ns3:TrackPointExtension>
            <ns3:atemp>23.0</ns3:atemp>
            <ns3:hr>97</ns3:hr>
          </ns3:TrackPointExtension>
        </extensions>
      </trkpt>
      <trkpt lat="36.77182202227413654327392578125" lon="-118.43721943907439708709716796875">
        <ele>3548</ele>
        <time>2021-06-25T18:36:17.000Z</time>
        <extensions>
          <ns3:TrackPointExtension>
            <ns3:atemp>23.0</ns3:atemp>
            <ns3:hr>94</ns3:hr>
          </ns3:TrackPointExtension>
        </extensions>
      </trkpt>
      <trkpt lat="36.77182202227413654327392578125" lon="-118.43722295947372913360595703125">
        <ele>3548.199951171875</ele>
        <time>2021-06-25T18:36:28.000Z</time>
        <extensions>
          <ns3:TrackPointExtension>
            <ns3:atemp>23.0</ns3:atemp>
            <ns3:hr>97</ns3:hr>
          </ns3:TrackPointExtension>
        </extensions>
      </trkpt>
      <trkpt lat="36.77182202227413654327392578125" lon="-118.437222875654697418212890625">
        <ele>3548.39990234375</ele>
        <time>2021-06-25T18:36:29.000Z</time>
        <extensions>
          <ns3:TrackPointExtension>
            <ns3:atemp>23.0</ns3:atemp>
            <ns3:hr>96</ns3:hr>
          </ns3:TrackPointExtension>
        </extensions>
      </trkpt>
      <trkpt lat="36.77181866951286792755126953125" lon="-118.437222875654697418212890625">
        <ele>3547</ele>
        <time>2021-06-25T18:36:37.000Z</time>
        <extensions>
          <ns3:TrackPointExtension>
            <ns3:atemp>23.0</ns3:atemp>
            <ns3:hr>94</ns3:hr>
          </ns3:TrackPointExtension>
        </extensions>
      </trkpt>
      <trkpt lat="36.771799810230731964111328125" lon="-118.4372079558670520782470703125">
        <ele>3545.39990234375</ele>
        <time>2021-06-25T18:36:42.000Z</time>
        <extensions>
          <ns3:TrackPointExtension>
            <ns3:atemp>23.0</ns3:atemp>
            <ns3:hr>92</ns3:hr>
          </ns3:TrackPointExtension>
        </extensions>
      </trkpt>
      <trkpt lat="36.771792434155941009521484375" lon="-118.43719043768942356109619140625">
        <ele>3543.60009765625</ele>
        <time>2021-06-25T18:36:45.000Z</time>
        <extensions>
          <ns3:TrackPointExtension>
            <ns3:atemp>23.0</ns3:atemp>
            <ns3:hr>91</ns3:hr>
          </ns3:TrackPointExtension>
        </extensions>
      </trkpt>
      <trkpt lat="36.77179075777530670166015625" lon="-118.4371804632246494293212890625">
        <ele>3541.800048828125</ele>
        <time>2021-06-25T18:36:47.000Z</time>
        <extensions>
          <ns3:TrackPointExtension>
            <ns3:atemp>23.0</ns3:atemp>
            <ns3:hr>90</ns3:hr>
          </ns3:TrackPointExtension>
        </extensions>
      </trkpt>
      <trkpt lat="36.7717812024056911468505859375" lon="-118.43716017901897430419921875">
        <ele>3541.199951171875</ele>
        <time>2021-06-25T18:36:51.000Z</time>
        <extensions>
          <ns3:TrackPointExtension>
            <ns3:atemp>23.0</ns3:atemp>
            <ns3:hr>87</ns3:hr>
          </ns3:TrackPointExtension>
        </extensions>
      </trkpt>
      <trkpt lat="36.77177868783473968505859375" lon="-118.43713310547173023223876953125">
        <ele>3542.199951171875</ele>
        <time>2021-06-25T18:36:55.000Z</time>
        <extensions>
          <ns3:TrackPointExtension>
            <ns3:atemp>23.0</ns3:atemp>
            <ns3:hr>84</ns3:hr>
          </ns3:TrackPointExtension>
        </extensions>
      </trkpt>
      <trkpt lat="36.7717466689646244049072265625" lon="-118.4371238015592098236083984375">
        <ele>3539.199951171875</ele>
        <time>2021-06-25T18:37:01.000Z</time>
        <extensions>
          <ns3:TrackPointExtension>
            <ns3:atemp>23.0</ns3:atemp>
            <ns3:hr>82</ns3:hr>
          </ns3:TrackPointExtension>
        </extensions>
      </trkpt>
      <trkpt lat="36.77173233591020107269287109375" lon="-118.4371227957308292388916015625">
        <ele>3539.199951171875</ele>
        <time>2021-06-25T18:37:04.000Z</time>
        <extensions>
          <ns3:TrackPointExtension>
            <ns3:atemp>22.0</ns3:atemp>
            <ns3:hr>86</ns3:hr>
          </ns3:TrackPointExtension>
        </extensions>
      </trkpt>
      <trkpt lat="36.77172948606312274932861328125" lon="-118.43712271191179752349853515625">
        <ele>3539.39990234375</ele>
        <time>2021-06-25T18:37:06.000Z</time>
        <extensions>
          <ns3:TrackPointExtension>
            <ns3:atemp>22.0</ns3:atemp>
            <ns3:hr>89</ns3:hr>
          </ns3:TrackPointExtension>
        </extensions>
      </trkpt>
      <trkpt lat="36.77172906696796417236328125" lon="-118.43712271191179752349853515625">
        <ele>3539.39990234375</ele>
        <time>2021-06-25T18:37:08.000Z</time>
        <extensions>
          <ns3:TrackPointExtension>
            <ns3:atemp>22.0</ns3:atemp>
            <ns3:hr>93</ns3:hr>
          </ns3:TrackPointExtension>
        </extensions>
      </trkpt>
      <trkpt lat="36.77172898314893245697021484375" lon="-118.43712271191179752349853515625">
        <ele>3540.199951171875</ele>
        <time>2021-06-25T18:37:09.000Z</time>
        <extensions>
          <ns3:TrackPointExtension>
            <ns3:atemp>22.0</ns3:atemp>
            <ns3:hr>94</ns3:hr>
          </ns3:TrackPointExtension>
        </extensions>
      </trkpt>
      <trkpt lat="36.77172898314893245697021484375" lon="-118.4371231310069561004638671875">
        <ele>3541</ele>
        <time>2021-06-25T18:37:11.000Z</time>
        <extensions>
          <ns3:TrackPointExtension>
            <ns3:atemp>22.0</ns3:atemp>
            <ns3:hr>97</ns3:hr>
          </ns3:TrackPointExtension>
        </extensions>
      </trkpt>
      <trkpt lat="36.7717285640537738800048828125" lon="-118.43712338246405124664306640625">
        <ele>3541.800048828125</ele>
        <time>2021-06-25T18:37:12.000Z</time>
        <extensions>
          <ns3:TrackPointExtension>
            <ns3:atemp>22.0</ns3:atemp>
            <ns3:hr>98</ns3:hr>
          </ns3:TrackPointExtension>
        </extensions>
      </trkpt>
      <trkpt lat="36.771727390587329864501953125" lon="-118.43712438829243183135986328125">
        <ele>3540.60009765625</ele>
        <time>2021-06-25T18:37:18.000Z</time>
        <extensions>
          <ns3:TrackPointExtension>
            <ns3:atemp>22.0</ns3:atemp>
            <ns3:hr>98</ns3:hr>
          </ns3:TrackPointExtension>
        </extensions>
      </trkpt>
      <trkpt lat="36.771726720035076141357421875" lon="-118.43712438829243183135986328125">
        <ele>3539.199951171875</ele>
        <time>2021-06-25T18:37:20.000Z</time>
        <extensions>
          <ns3:TrackPointExtension>
            <ns3:atemp>22.0</ns3:atemp>
            <ns3:hr>98</ns3:hr>
          </ns3:TrackPointExtension>
        </extensions>
      </trkpt>
      <trkpt lat="36.771720349788665771484375" lon="-118.43712053261697292327880859375">
        <ele>3539</ele>
        <time>2021-06-25T18:37:23.000Z</time>
        <extensions>
          <ns3:TrackPointExtension>
            <ns3:atemp>22.0</ns3:atemp>
            <ns3:hr>98</ns3:hr>
          </ns3:TrackPointExtension>
        </extensions>
      </trkpt>
      <trkpt lat="36.7716651968657970428466796875" lon="-118.4370644576847553253173828125">
        <ele>3538.39990234375</ele>
        <time>2021-06-25T18:37:29.000Z</time>
        <extensions>
          <ns3:TrackPointExtension>
            <ns3:atemp>22.0</ns3:atemp>
            <ns3:hr>96</ns3:hr>
          </ns3:TrackPointExtension>
        </extensions>
      </trkpt>
      <trkpt lat="36.771653629839420318603515625" lon="-118.43705431558191776275634765625">
        <ele>3537.800048828125</ele>
        <time>2021-06-25T18:37:30.000Z</time>
        <extensions>
          <ns3:TrackPointExtension>
            <ns3:atemp>22.0</ns3:atemp>
            <ns3:hr>95</ns3:hr>
          </ns3:TrackPointExtension>
        </extensions>
      </trkpt>
      <trkpt lat="36.771644242107868194580078125" lon="-118.43704484403133392333984375">
        <ele>3537</ele>
        <time>2021-06-25T18:37:31.000Z</time>
        <extensions>
          <ns3:TrackPointExtension>
            <ns3:atemp>22.0</ns3:atemp>
            <ns3:hr>94</ns3:hr>
          </ns3:TrackPointExtension>
        </extensions>
      </trkpt>
      <trkpt lat="36.77163309417665004730224609375" lon="-118.437037132680416107177734375">
        <ele>3535.800048828125</ele>
        <time>2021-06-25T18:37:32.000Z</time>
        <extensions>
          <ns3:TrackPointExtension>
            <ns3:atemp>22.0</ns3:atemp>
            <ns3:hr>95</ns3:hr>
          </ns3:TrackPointExtension>
        </extensions>
      </trkpt>
      <trkpt lat="36.77162135951220989227294921875" lon="-118.4370289184153079986572265625">
        <ele>3534.800048828125</ele>
        <time>2021-06-25T18:37:34.000Z</time>
        <extensions>
          <ns3:TrackPointExtension>
            <ns3:atemp>22.0</ns3:atemp>
            <ns3:hr>94</ns3:hr>
          </ns3:TrackPointExtension>
        </extensions>
      </trkpt>
      <trkpt lat="36.7716172523796558380126953125" lon="-118.4370272420346736907958984375">
        <ele>3533.800048828125</ele>
        <time>2021-06-25T18:37:37.000Z</time>
        <extensions>
          <ns3:TrackPointExtension>
            <ns3:atemp>22.0</ns3:atemp>
            <ns3:hr>93</ns3:hr>
          </ns3:TrackPointExtension>
        </extensions>
      </trkpt>
      <trkpt lat="36.7716199345886707305908203125" lon="-118.43703009188175201416015625">
        <ele>3533.60009765625</ele>
        <time>2021-06-25T18:37:39.000Z</time>
        <extensions>
          <ns3:TrackPointExtension>
            <ns3:atemp>22.0</ns3:atemp>
            <ns3:hr>92</ns3:hr>
          </ns3:TrackPointExtension>
        </extensions>
      </trkpt>
      <trkpt lat="36.77160426042973995208740234375" lon="-118.43701123259961605072021484375">
        <ele>3532.39990234375</ele>
        <time>2021-06-25T18:37:46.000Z</time>
        <extensions>
          <ns3:TrackPointExtension>
            <ns3:atemp>22.0</ns3:atemp>
            <ns3:hr>94</ns3:hr>
          </ns3:TrackPointExtension>
        </extensions>
      </trkpt>
      <trkpt lat="36.77159369923174381256103515625" lon="-118.43700620345771312713623046875">
        <ele>3532</ele>
        <time>2021-06-25T18:37:48.000Z</time>
        <extensions>
          <ns3:TrackPointExtension>
            <ns3:atemp>22.0</ns3:atemp>
            <ns3:hr>94</ns3:hr>
          </ns3:TrackPointExtension>
        </extensions>
      </trkpt>
      <trkpt lat="36.7715840600430965423583984375" lon="-118.4370017610490322113037109375">
        <ele>3531.39990234375</ele>
        <time>2021-06-25T18:37:53.000Z</time>
        <extensions>
          <ns3:TrackPointExtension>
            <ns3:atemp>22.0</ns3:atemp>
            <ns3:hr>95</ns3:hr>
          </ns3:TrackPointExtension>
        </extensions>
      </trkpt>
      <trkpt lat="36.77156352438032627105712890625" lon="-118.43697301112115383148193359375">
        <ele>3530.39990234375</ele>
        <time>2021-06-25T18:37:59.000Z</time>
        <extensions>
          <ns3:TrackPointExtension>
            <ns3:atemp>22.0</ns3:atemp>
            <ns3:hr>94</ns3:hr>
          </ns3:TrackPointExtension>
        </extensions>
      </trkpt>
      <trkpt lat="36.771561764180660247802734375" lon="-118.43696982599794864654541015625">
        <ele>3528.800048828125</ele>
        <time>2021-06-25T18:38:00.000Z</time>
        <extensions>
          <ns3:TrackPointExtension>
            <ns3:atemp>22.0</ns3:atemp>
            <ns3:hr>95</ns3:hr>
          </ns3:TrackPointExtension>
        </extensions>
      </trkpt>
      <trkpt lat="36.77154307253658771514892578125" lon="-118.43695767223834991455078125">
        <ele>3528.199951171875</ele>
        <time>2021-06-25T18:38:05.000Z</time>
        <extensions>
          <ns3:TrackPointExtension>
            <ns3:atemp>22.0</ns3:atemp>
            <ns3:hr>94</ns3:hr>
          </ns3:TrackPointExtension>
        </extensions>
      </trkpt>
      <trkpt lat="36.77154206670820713043212890625" lon="-118.43694685958325862884521484375">
        <ele>3527.39990234375</ele>
        <time>2021-06-25T18:38:08.000Z</time>
        <extensions>
          <ns3:TrackPointExtension>
            <ns3:atemp>23.0</ns3:atemp>
            <ns3:hr>92</ns3:hr>
          </ns3:TrackPointExtension>
        </extensions>
      </trkpt>
      <trkpt lat="36.771532930433750152587890625" lon="-118.43693931587040424346923828125">
        <ele>3526.800048828125</ele>
        <time>2021-06-25T18:38:10.000Z</time>
        <extensions>
          <ns3:TrackPointExtension>
            <ns3:atemp>23.0</ns3:atemp>
            <ns3:hr>92</ns3:hr>
          </ns3:TrackPointExtension>
        </extensions>
      </trkpt>
      <trkpt lat="36.771528907120227813720703125" lon="-118.4369340352714061737060546875">
        <ele>3526.39990234375</ele>
        <time>2021-06-25T18:38:11.000Z</time>
        <extensions>
          <ns3:TrackPointExtension>
            <ns3:atemp>23.0</ns3:atemp>
            <ns3:hr>91</ns3:hr>
          </ns3:TrackPointExtension>
        </extensions>
      </trkpt>
      <trkpt lat="36.7715257219970226287841796875" lon="-118.43693193979561328887939453125">
        <ele>3525.800048828125</ele>
        <time>2021-06-25T18:38:12.000Z</time>
        <extensions>
          <ns3:TrackPointExtension>
            <ns3:atemp>23.0</ns3:atemp>
            <ns3:hr>90</ns3:hr>
          </ns3:TrackPointExtension>
        </extensions>
      </trkpt>
      <trkpt lat="36.77152060903608798980712890625" lon="-118.43693177215754985809326171875">
        <ele>3525</ele>
        <time>2021-06-25T18:38:14.000Z</time>
        <extensions>
          <ns3:TrackPointExtension>
            <ns3:atemp>23.0</ns3:atemp>
            <ns3:hr>90</ns3:hr>
          </ns3:TrackPointExtension>
        </extensions>
      </trkpt>
      <trkpt lat="36.771508120000362396240234375" lon="-118.43692238442599773406982421875">
        <ele>3524.60009765625</ele>
        <time>2021-06-25T18:38:17.000Z</time>
        <extensions>
          <ns3:TrackPointExtension>
            <ns3:atemp>23.0</ns3:atemp>
            <ns3:hr>87</ns3:hr>
          </ns3:TrackPointExtension>
        </extensions>
      </trkpt>
      <trkpt lat="36.77150107920169830322265625" lon="-118.436916433274745941162109375">
        <ele>3523.60009765625</ele>
        <time>2021-06-25T18:38:18.000Z</time>
        <extensions>
          <ns3:TrackPointExtension>
            <ns3:atemp>23.0</ns3:atemp>
            <ns3:hr>89</ns3:hr>
          </ns3:TrackPointExtension>
        </extensions>
      </trkpt>
      <trkpt lat="36.771485991775989532470703125" lon="-118.43690159730613231658935546875">
        <ele>3523.199951171875</ele>
        <time>2021-06-25T18:38:22.000Z</time>
        <extensions>
          <ns3:TrackPointExtension>
            <ns3:atemp>23.0</ns3:atemp>
            <ns3:hr>89</ns3:hr>
          </ns3:TrackPointExtension>
        </extensions>
      </trkpt>
      <trkpt lat="36.7714704014360904693603515625" lon="-118.43689086847007274627685546875">
        <ele>3521.800048828125</ele>
        <time>2021-06-25T18:38:26.000Z</time>
        <extensions>
          <ns3:TrackPointExtension>
            <ns3:atemp>23.0</ns3:atemp>
            <ns3:hr>91</ns3:hr>
          </ns3:TrackPointExtension>
        </extensions>
      </trkpt>
      <trkpt lat="36.77145757712423801422119140625" lon="-118.43687460757791996002197265625">
        <ele>3520.199951171875</ele>
        <time>2021-06-25T18:38:31.000Z</time>
        <extensions>
          <ns3:TrackPointExtension>
            <ns3:atemp>23.0</ns3:atemp>
            <ns3:hr>94</ns3:hr>
          </ns3:TrackPointExtension>
        </extensions>
      </trkpt>
      <trkpt lat="36.7714492790400981903076171875" lon="-118.436872847378253936767578125">
        <ele>3520</ele>
        <time>2021-06-25T18:38:33.000Z</time>
        <extensions>
          <ns3:TrackPointExtension>
            <ns3:atemp>23.0</ns3:atemp>
            <ns3:hr>94</ns3:hr>
          </ns3:TrackPointExtension>
        </extensions>
      </trkpt>
      <trkpt lat="36.77144609391689300537109375" lon="-118.43687041662633419036865234375">
        <ele>3518.60009765625</ele>
        <time>2021-06-25T18:38:34.000Z</time>
        <extensions>
          <ns3:TrackPointExtension>
            <ns3:atemp>23.0</ns3:atemp>
            <ns3:hr>94</ns3:hr>
          </ns3:TrackPointExtension>
        </extensions>
      </trkpt>
      <trkpt lat="36.77142706699669361114501953125" lon="-118.4368461929261684417724609375">
        <ele>3517.60009765625</ele>
        <time>2021-06-25T18:38:41.000Z</time>
        <extensions>
          <ns3:TrackPointExtension>
            <ns3:atemp>23.0</ns3:atemp>
            <ns3:hr>93</ns3:hr>
          </ns3:TrackPointExtension>
        </extensions>
      </trkpt>
      <trkpt lat="36.77142329514026641845703125" lon="-118.436847366392612457275390625">
        <ele>3517.39990234375</ele>
        <time>2021-06-25T18:38:42.000Z</time>
        <extensions>
          <ns3:TrackPointExtension>
            <ns3:atemp>23.0</ns3:atemp>
            <ns3:hr>93</ns3:hr>
          </ns3:TrackPointExtension>
        </extensions>
      </trkpt>
      <trkpt lat="36.77140845917165279388427734375" lon="-118.436841331422328948974609375">
        <ele>3515.800048828125</ele>
        <time>2021-06-25T18:38:47.000Z</time>
        <extensions>
          <ns3:TrackPointExtension>
            <ns3:atemp>23.0</ns3:atemp>
            <ns3:hr>92</ns3:hr>
          </ns3:TrackPointExtension>
        </extensions>
      </trkpt>
      <trkpt lat="36.771400161087512969970703125" lon="-118.4368304349482059478759765625">
        <ele>3515.39990234375</ele>
        <time>2021-06-25T18:38:51.000Z</time>
        <extensions>
          <ns3:TrackPointExtension>
            <ns3:atemp>23.0</ns3:atemp>
            <ns3:hr>92</ns3:hr>
          </ns3:TrackPointExtension>
        </extensions>
      </trkpt>
      <trkpt lat="36.77141164429485797882080078125" lon="-118.43679866753518581390380859375">
        <ele>3514.39990234375</ele>
        <time>2021-06-25T18:38:57.000Z</time>
        <extensions>
          <ns3:TrackPointExtension>
            <ns3:atemp>23.0</ns3:atemp>
            <ns3:hr>90</ns3:hr>
          </ns3:TrackPointExtension>
        </extensions>
      </trkpt>
      <trkpt lat="36.77141214720904827117919921875" lon="-118.43679011799395084381103515625">
        <ele>3514.199951171875</ele>
        <time>2021-06-25T18:38:58.000Z</time>
        <extensions>
          <ns3:TrackPointExtension>
            <ns3:atemp>23.0</ns3:atemp>
            <ns3:hr>91</ns3:hr>
          </ns3:TrackPointExtension>
        </extensions>
      </trkpt>
      <trkpt lat="36.771409548819065093994140625" lon="-118.4367741085588932037353515625">
        <ele>3512.800048828125</ele>
        <time>2021-06-25T18:39:00.000Z</time>
        <extensions>
          <ns3:TrackPointExtension>
            <ns3:atemp>23.0</ns3:atemp>
            <ns3:hr>90</ns3:hr>
          </ns3:TrackPointExtension>
        </extensions>
      </trkpt>
      <trkpt lat="36.77139873616397380828857421875" lon="-118.43676346354186534881591796875">
        <ele>3511.800048828125</ele>
        <time>2021-06-25T18:39:02.000Z</time>
        <extensions>
          <ns3:TrackPointExtension>
            <ns3:atemp>23.0</ns3:atemp>
            <ns3:hr>90</ns3:hr>
          </ns3:TrackPointExtension>
        </extensions>
      </trkpt>
      <trkpt lat="36.771386750042438507080078125" lon="-118.4367519803345203399658203125">
        <ele>3511</ele>
        <time>2021-06-25T18:39:04.000Z</time>
        <extensions>
          <ns3:TrackPointExtension>
            <ns3:atemp>23.0</ns3:atemp>
            <ns3:hr>90</ns3:hr>
          </ns3:TrackPointExtension>
        </extensions>
      </trkpt>
      <trkpt lat="36.77138037979602813720703125" lon="-118.436747454106807708740234375">
        <ele>3510.39990234375</ele>
        <time>2021-06-25T18:39:06.000Z</time>
        <extensions>
          <ns3:TrackPointExtension>
            <ns3:atemp>23.0</ns3:atemp>
            <ns3:hr>91</ns3:hr>
          </ns3:TrackPointExtension>
        </extensions>
      </trkpt>
      <trkpt lat="36.77137644030153751373291015625" lon="-118.436745442450046539306640625">
        <ele>3510.39990234375</ele>
        <time>2021-06-25T18:39:07.000Z</time>
        <extensions>
          <ns3:TrackPointExtension>
            <ns3:atemp>23.0</ns3:atemp>
            <ns3:hr>91</ns3:hr>
          </ns3:TrackPointExtension>
        </extensions>
      </trkpt>
      <trkpt lat="36.77137543447315692901611328125" lon="-118.43674200586974620819091796875">
        <ele>3509.39990234375</ele>
        <time>2021-06-25T18:39:10.000Z</time>
        <extensions>
          <ns3:TrackPointExtension>
            <ns3:atemp>23.0</ns3:atemp>
            <ns3:hr>92</ns3:hr>
          </ns3:TrackPointExtension>
        </extensions>
      </trkpt>
      <trkpt lat="36.77135967649519443511962890625" lon="-118.43672641552984714508056640625">
        <ele>3508.60009765625</ele>
        <time>2021-06-25T18:39:13.000Z</time>
        <extensions>
          <ns3:TrackPointExtension>
            <ns3:atemp>23.0</ns3:atemp>
            <ns3:hr>92</ns3:hr>
          </ns3:TrackPointExtension>
        </extensions>
      </trkpt>
      <trkpt lat="36.7713554017245769500732421875" lon="-118.43672222457826137542724609375">
        <ele>3508.199951171875</ele>
        <time>2021-06-25T18:39:14.000Z</time>
        <extensions>
          <ns3:TrackPointExtension>
            <ns3:atemp>23.0</ns3:atemp>
            <ns3:hr>92</ns3:hr>
          </ns3:TrackPointExtension>
        </extensions>
      </trkpt>
      <trkpt lat="36.77135213278234004974365234375" lon="-118.43670428730547428131103515625">
        <ele>3507.199951171875</ele>
        <time>2021-06-25T18:39:19.000Z</time>
        <extensions>
          <ns3:TrackPointExtension>
            <ns3:atemp>23.0</ns3:atemp>
            <ns3:hr>92</ns3:hr>
          </ns3:TrackPointExtension>
        </extensions>
      </trkpt>
      <trkpt lat="36.77134408615529537200927734375" lon="-118.4367375634610652923583984375">
        <ele>3507.39990234375</ele>
        <time>2021-06-25T18:39:25.000Z</time>
        <extensions>
          <ns3:TrackPointExtension>
            <ns3:atemp>23.0</ns3:atemp>
            <ns3:hr>95</ns3:hr>
          </ns3:TrackPointExtension>
        </extensions>
      </trkpt>
      <trkpt lat="36.77134014666080474853515625" lon="-118.436736725270748138427734375">
        <ele>3508</ele>
        <time>2021-06-25T18:39:28.000Z</time>
        <extensions>
          <ns3:TrackPointExtension>
            <ns3:atemp>23.0</ns3:atemp>
            <ns3:hr>96</ns3:hr>
          </ns3:TrackPointExtension>
        </extensions>
      </trkpt>
      <trkpt lat="36.77134014666080474853515625" lon="-118.436736725270748138427734375">
        <ele>3507.199951171875</ele>
        <time>2021-06-25T18:39:34.000Z</time>
        <extensions>
          <ns3:TrackPointExtension>
            <ns3:atemp>24.0</ns3:atemp>
            <ns3:hr>96</ns3:hr>
          </ns3:TrackPointExtension>
        </extensions>
      </trkpt>
      <trkpt lat="36.77134014666080474853515625" lon="-118.436736725270748138427734375">
        <ele>3506.800048828125</ele>
        <time>2021-06-25T18:39:35.000Z</time>
        <extensions>
          <ns3:TrackPointExtension>
            <ns3:atemp>24.0</ns3:atemp>
            <ns3:hr>97</ns3:hr>
          </ns3:TrackPointExtension>
        </extensions>
      </trkpt>
      <trkpt lat="36.77134014666080474853515625" lon="-118.436736725270748138427734375">
        <ele>3506.39990234375</ele>
        <time>2021-06-25T18:39:39.000Z</time>
        <extensions>
          <ns3:TrackPointExtension>
            <ns3:atemp>24.0</ns3:atemp>
            <ns3:hr>100</ns3:hr>
          </ns3:TrackPointExtension>
        </extensions>
      </trkpt>
      <trkpt lat="36.77134014666080474853515625" lon="-118.43672675080597400665283203125">
        <ele>3506</ele>
        <time>2021-06-25T18:39:45.000Z</time>
        <extensions>
          <ns3:TrackPointExtension>
            <ns3:atemp>24.0</ns3:atemp>
            <ns3:hr>103</ns3:hr>
          </ns3:TrackPointExtension>
        </extensions>
      </trkpt>
      <trkpt lat="36.77133838646113872528076171875" lon="-118.43672566115856170654296875">
        <ele>3505.800048828125</ele>
        <time>2021-06-25T18:39:48.000Z</time>
        <extensions>
          <ns3:TrackPointExtension>
            <ns3:atemp>24.0</ns3:atemp>
            <ns3:hr>104</ns3:hr>
          </ns3:TrackPointExtension>
        </extensions>
      </trkpt>
      <trkpt lat="36.77133738063275814056396484375" lon="-118.43672188930213451385498046875">
        <ele>3504.39990234375</ele>
        <time>2021-06-25T18:39:54.000Z</time>
        <extensions>
          <ns3:TrackPointExtension>
            <ns3:atemp>24.0</ns3:atemp>
            <ns3:hr>105</ns3:hr>
          </ns3:TrackPointExtension>
        </extensions>
      </trkpt>
      <trkpt lat="36.77131374366581439971923828125" lon="-118.4366916306316852569580078125">
        <ele>3503.39990234375</ele>
        <time>2021-06-25T18:40:15.000Z</time>
        <extensions>
          <ns3:TrackPointExtension>
            <ns3:atemp>24.0</ns3:atemp>
            <ns3:hr>103</ns3:hr>
          </ns3:TrackPointExtension>
        </extensions>
      </trkpt>
      <trkpt lat="36.77129999734461307525634765625" lon="-118.43665349297225475311279296875">
        <ele>3502.60009765625</ele>
        <time>2021-06-25T18:40:30.000Z</time>
        <extensions>
          <ns3:TrackPointExtension>
            <ns3:atemp>24.0</ns3:atemp>
            <ns3:hr>106</ns3:hr>
          </ns3:TrackPointExtension>
        </extensions>
      </trkpt>
      <trkpt lat="36.7712937109172344207763671875" lon="-118.43665097840130329132080078125">
        <ele>3502.199951171875</ele>
        <time>2021-06-25T18:40:39.000Z</time>
        <extensions>
          <ns3:TrackPointExtension>
            <ns3:atemp>24.0</ns3:atemp>
            <ns3:hr>105</ns3:hr>
          </ns3:TrackPointExtension>
        </extensions>
      </trkpt>
      <trkpt lat="36.771289519965648651123046875" lon="-118.43664661981165409088134765625">
        <ele>3500.60009765625</ele>
        <time>2021-06-25T18:40:44.000Z</time>
        <extensions>
          <ns3:TrackPointExtension>
            <ns3:atemp>24.0</ns3:atemp>
            <ns3:hr>104</ns3:hr>
          </ns3:TrackPointExtension>
        </extensions>
      </trkpt>
      <trkpt lat="36.771284826099872589111328125" lon="-118.4366356395184993743896484375">
        <ele>3499.60009765625</ele>
        <time>2021-06-25T18:40:47.000Z</time>
        <extensions>
          <ns3:TrackPointExtension>
            <ns3:atemp>24.0</ns3:atemp>
            <ns3:hr>103</ns3:hr>
          </ns3:TrackPointExtension>
        </extensions>
      </trkpt>
      <trkpt lat="36.77128071896731853485107421875" lon="-118.4365598671138286590576171875">
        <ele>3498.39990234375</ele>
        <time>2021-06-25T18:40:52.000Z</time>
        <extensions>
          <ns3:TrackPointExtension>
            <ns3:atemp>24.0</ns3:atemp>
            <ns3:hr>103</ns3:hr>
          </ns3:TrackPointExtension>
        </extensions>
      </trkpt>
      <trkpt lat="36.7712732590734958648681640625" lon="-118.43654301948845386505126953125">
        <ele>3498.199951171875</ele>
        <time>2021-06-25T18:40:53.000Z</time>
        <extensions>
          <ns3:TrackPointExtension>
            <ns3:atemp>24.0</ns3:atemp>
            <ns3:hr>103</ns3:hr>
          </ns3:TrackPointExtension>
        </extensions>
      </trkpt>
      <trkpt lat="36.7712632007896900177001953125" lon="-118.43652441166341304779052734375">
        <ele>3497</ele>
        <time>2021-06-25T18:40:54.000Z</time>
        <extensions>
          <ns3:TrackPointExtension>
            <ns3:atemp>24.0</ns3:atemp>
            <ns3:hr>103</ns3:hr>
          </ns3:TrackPointExtension>
        </extensions>
      </trkpt>
      <trkpt lat="36.771243251860141754150390625" lon="-118.4365035407245159149169921875">
        <ele>3495.800048828125</ele>
        <time>2021-06-25T18:40:56.000Z</time>
        <extensions>
          <ns3:TrackPointExtension>
            <ns3:atemp>24.0</ns3:atemp>
            <ns3:hr>103</ns3:hr>
          </ns3:TrackPointExtension>
        </extensions>
      </trkpt>
      <trkpt lat="36.77123696543276309967041015625" lon="-118.43650178052484989166259765625">
        <ele>3495.199951171875</ele>
        <time>2021-06-25T18:40:57.000Z</time>
        <extensions>
          <ns3:TrackPointExtension>
            <ns3:atemp>24.0</ns3:atemp>
            <ns3:hr>103</ns3:hr>
          </ns3:TrackPointExtension>
        </extensions>
      </trkpt>
      <trkpt lat="36.7712347023189067840576171875" lon="-118.43649926595389842987060546875">
        <ele>3494.800048828125</ele>
        <time>2021-06-25T18:40:58.000Z</time>
        <extensions>
          <ns3:TrackPointExtension>
            <ns3:atemp>24.0</ns3:atemp>
            <ns3:hr>101</ns3:hr>
          </ns3:TrackPointExtension>
        </extensions>
      </trkpt>
      <trkpt lat="36.771233864128589630126953125" lon="-118.43649490736424922943115234375">
        <ele>3495.199951171875</ele>
        <time>2021-06-25T18:41:00.000Z</time>
        <extensions>
          <ns3:TrackPointExtension>
            <ns3:atemp>24.0</ns3:atemp>
            <ns3:hr>98</ns3:hr>
          </ns3:TrackPointExtension>
        </extensions>
      </trkpt>
      <trkpt lat="36.7712286673486232757568359375" lon="-118.43649121932685375213623046875">
        <ele>3494.800048828125</ele>
        <time>2021-06-25T18:41:01.000Z</time>
        <extensions>
          <ns3:TrackPointExtension>
            <ns3:atemp>24.0</ns3:atemp>
            <ns3:hr>97</ns3:hr>
          </ns3:TrackPointExtension>
        </extensions>
      </trkpt>
      <trkpt lat="36.771213077008724212646484375" lon="-118.4364881180226802825927734375">
        <ele>3492.199951171875</ele>
        <time>2021-06-25T18:41:03.000Z</time>
        <extensions>
          <ns3:TrackPointExtension>
            <ns3:atemp>24.0</ns3:atemp>
            <ns3:hr>96</ns3:hr>
          </ns3:TrackPointExtension>
        </extensions>
      </trkpt>
      <trkpt lat="36.77119002677500247955322265625" lon="-118.436479903757572174072265625">
        <ele>3492</ele>
        <time>2021-06-25T18:41:09.000Z</time>
        <extensions>
          <ns3:TrackPointExtension>
            <ns3:atemp>24.0</ns3:atemp>
            <ns3:hr>98</ns3:hr>
          </ns3:TrackPointExtension>
        </extensions>
      </trkpt>
      <trkpt lat="36.7711718380451202392578125" lon="-118.43645735643804073333740234375">
        <ele>3492</ele>
        <time>2021-06-25T18:41:16.000Z</time>
        <extensions>
          <ns3:TrackPointExtension>
            <ns3:atemp>24.0</ns3:atemp>
            <ns3:hr>101</ns3:hr>
          </ns3:TrackPointExtension>
        </extensions>
      </trkpt>
      <trkpt lat="36.77117091603577136993408203125" lon="-118.436455428600311279296875">
        <ele>3492</ele>
        <time>2021-06-25T18:41:17.000Z</time>
        <extensions>
          <ns3:TrackPointExtension>
            <ns3:atemp>24.0</ns3:atemp>
            <ns3:hr>101</ns3:hr>
          </ns3:TrackPointExtension>
        </extensions>
      </trkpt>
      <trkpt lat="36.77116789855062961578369140625" lon="-118.43642718158662319183349609375">
        <ele>3489.39990234375</ele>
        <time>2021-06-25T18:41:22.000Z</time>
        <extensions>
          <ns3:TrackPointExtension>
            <ns3:atemp>24.0</ns3:atemp>
            <ns3:hr>103</ns3:hr>
          </ns3:TrackPointExtension>
        </extensions>
      </trkpt>
      <trkpt lat="36.7711653001606464385986328125" lon="-118.43641695566475391387939453125">
        <ele>3488.199951171875</ele>
        <time>2021-06-25T18:41:26.000Z</time>
        <extensions>
          <ns3:TrackPointExtension>
            <ns3:atemp>24.0</ns3:atemp>
            <ns3:hr>103</ns3:hr>
          </ns3:TrackPointExtension>
        </extensions>
      </trkpt>
      <trkpt lat="36.7711404897272586822509765625" lon="-118.43638527207076549530029296875">
        <ele>3487.39990234375</ele>
        <time>2021-06-25T18:41:34.000Z</time>
        <extensions>
          <ns3:TrackPointExtension>
            <ns3:atemp>24.0</ns3:atemp>
            <ns3:hr>101</ns3:hr>
          </ns3:TrackPointExtension>
        </extensions>
      </trkpt>
      <trkpt lat="36.7711388133466243743896484375" lon="-118.43638326041400432586669921875">
        <ele>3486.800048828125</ele>
        <time>2021-06-25T18:41:35.000Z</time>
        <extensions>
          <ns3:TrackPointExtension>
            <ns3:atemp>24.0</ns3:atemp>
            <ns3:hr>101</ns3:hr>
          </ns3:TrackPointExtension>
        </extensions>
      </trkpt>
      <trkpt lat="36.7711398191750049591064453125" lon="-118.43637655489146709442138671875">
        <ele>3486.60009765625</ele>
        <time>2021-06-25T18:41:41.000Z</time>
        <extensions>
          <ns3:TrackPointExtension>
            <ns3:atemp>24.0</ns3:atemp>
            <ns3:hr>98</ns3:hr>
          </ns3:TrackPointExtension>
        </extensions>
      </trkpt>
      <trkpt lat="36.771138645708560943603515625" lon="-118.43637387268245220184326171875">
        <ele>3486.199951171875</ele>
        <time>2021-06-25T18:41:48.000Z</time>
        <extensions>
          <ns3:TrackPointExtension>
            <ns3:atemp>24.0</ns3:atemp>
            <ns3:hr>101</ns3:hr>
          </ns3:TrackPointExtension>
        </extensions>
      </trkpt>
      <trkpt lat="36.7711388133466243743896484375" lon="-118.43637387268245220184326171875">
        <ele>3485.39990234375</ele>
        <time>2021-06-25T18:41:57.000Z</time>
        <extensions>
          <ns3:TrackPointExtension>
            <ns3:atemp>24.0</ns3:atemp>
            <ns3:hr>102</ns3:hr>
          </ns3:TrackPointExtension>
        </extensions>
      </trkpt>
      <trkpt lat="36.77114300429821014404296875" lon="-118.43635124154388904571533203125">
        <ele>3484.199951171875</ele>
        <time>2021-06-25T18:42:01.000Z</time>
        <extensions>
          <ns3:TrackPointExtension>
            <ns3:atemp>24.0</ns3:atemp>
            <ns3:hr>104</ns3:hr>
          </ns3:TrackPointExtension>
        </extensions>
      </trkpt>
      <trkpt lat="36.771135628223419189453125" lon="-118.436326682567596435546875">
        <ele>3482.800048828125</ele>
        <time>2021-06-25T18:42:03.000Z</time>
        <extensions>
          <ns3:TrackPointExtension>
            <ns3:atemp>24.0</ns3:atemp>
            <ns3:hr>104</ns3:hr>
          </ns3:TrackPointExtension>
        </extensions>
      </trkpt>
      <trkpt lat="36.77112967707216739654541015625" lon="-118.43630732037127017974853515625">
        <ele>3481.800048828125</ele>
        <time>2021-06-25T18:42:05.000Z</time>
        <extensions>
          <ns3:TrackPointExtension>
            <ns3:atemp>24.0</ns3:atemp>
            <ns3:hr>103</ns3:hr>
          </ns3:TrackPointExtension>
        </extensions>
      </trkpt>
      <trkpt lat="36.77112950943410396575927734375" lon="-118.43629675917327404022216796875">
        <ele>3481.39990234375</ele>
        <time>2021-06-25T18:42:06.000Z</time>
        <extensions>
          <ns3:TrackPointExtension>
            <ns3:atemp>24.0</ns3:atemp>
            <ns3:hr>103</ns3:hr>
          </ns3:TrackPointExtension>
        </extensions>
      </trkpt>
      <trkpt lat="36.77112917415797710418701171875" lon="-118.4362542629241943359375">
        <ele>3480</ele>
        <time>2021-06-25T18:42:11.000Z</time>
        <extensions>
          <ns3:TrackPointExtension>
            <ns3:atemp>24.0</ns3:atemp>
            <ns3:hr>104</ns3:hr>
          </ns3:TrackPointExtension>
        </extensions>
      </trkpt>
      <trkpt lat="36.7711193673312664031982421875" lon="-118.43625132925808429718017578125">
        <ele>3479.60009765625</ele>
        <time>2021-06-25T18:42:13.000Z</time>
        <extensions>
          <ns3:TrackPointExtension>
            <ns3:atemp>24.0</ns3:atemp>
            <ns3:hr>104</ns3:hr>
          </ns3:TrackPointExtension>
        </extensions>
      </trkpt>
      <trkpt lat="36.771087348461151123046875" lon="-118.43624948523938655853271484375">
        <ele>3479.199951171875</ele>
        <time>2021-06-25T18:42:18.000Z</time>
        <extensions>
          <ns3:TrackPointExtension>
            <ns3:atemp>24.0</ns3:atemp>
            <ns3:hr>101</ns3:hr>
          </ns3:TrackPointExtension>
        </extensions>
      </trkpt>
      <trkpt lat="36.77109028212726116180419921875" lon="-118.43622542917728424072265625">
        <ele>3479.199951171875</ele>
        <time>2021-06-25T18:42:22.000Z</time>
        <extensions>
          <ns3:TrackPointExtension>
            <ns3:atemp>24.0</ns3:atemp>
            <ns3:hr>99</ns3:hr>
          </ns3:TrackPointExtension>
        </extensions>
      </trkpt>
      <trkpt lat="36.77109078504145145416259765625" lon="-118.43621679581701755523681640625">
        <ele>3478.39990234375</ele>
        <time>2021-06-25T18:42:24.000Z</time>
        <extensions>
          <ns3:TrackPointExtension>
            <ns3:atemp>24.0</ns3:atemp>
            <ns3:hr>99</ns3:hr>
          </ns3:TrackPointExtension>
        </extensions>
      </trkpt>
      <trkpt lat="36.77109061740338802337646484375" lon="-118.436203300952911376953125">
        <ele>3476.60009765625</ele>
        <time>2021-06-25T18:42:26.000Z</time>
        <extensions>
          <ns3:TrackPointExtension>
            <ns3:atemp>24.0</ns3:atemp>
            <ns3:hr>98</ns3:hr>
          </ns3:TrackPointExtension>
        </extensions>
      </trkpt>
      <trkpt lat="36.7710886895656585693359375" lon="-118.43618896789848804473876953125">
        <ele>3476.60009765625</ele>
        <time>2021-06-25T18:42:29.000Z</time>
        <extensions>
          <ns3:TrackPointExtension>
            <ns3:atemp>24.0</ns3:atemp>
            <ns3:hr>98</ns3:hr>
          </ns3:TrackPointExtension>
        </extensions>
      </trkpt>
      <trkpt lat="36.771073602139949798583984375" lon="-118.4361803345382213592529296875">
        <ele>3475.60009765625</ele>
        <time>2021-06-25T18:42:33.000Z</time>
        <extensions>
          <ns3:TrackPointExtension>
            <ns3:atemp>24.0</ns3:atemp>
            <ns3:hr>98</ns3:hr>
          </ns3:TrackPointExtension>
        </extensions>
      </trkpt>
      <trkpt lat="36.771066226065158843994140625" lon="-118.4361712820827960968017578125">
        <ele>3475.199951171875</ele>
        <time>2021-06-25T18:42:35.000Z</time>
        <extensions>
          <ns3:TrackPointExtension>
            <ns3:atemp>24.0</ns3:atemp>
            <ns3:hr>96</ns3:hr>
          </ns3:TrackPointExtension>
        </extensions>
      </trkpt>
      <trkpt lat="36.77105926908552646636962890625" lon="-118.43614538200199604034423828125">
        <ele>3474.39990234375</ele>
        <time>2021-06-25T18:42:40.000Z</time>
        <extensions>
          <ns3:TrackPointExtension>
            <ns3:atemp>24.0</ns3:atemp>
            <ns3:hr>98</ns3:hr>
          </ns3:TrackPointExtension>
        </extensions>
      </trkpt>
      <trkpt lat="36.77103227935731410980224609375" lon="-118.43612945638597011566162109375">
        <ele>3473.800048828125</ele>
        <time>2021-06-25T18:42:44.000Z</time>
        <extensions>
          <ns3:TrackPointExtension>
            <ns3:atemp>23.0</ns3:atemp>
            <ns3:hr>100</ns3:hr>
          </ns3:TrackPointExtension>
        </extensions>
      </trkpt>
      <trkpt lat="36.7710218019783496856689453125" lon="-118.43612107448279857635498046875">
        <ele>3473.199951171875</ele>
        <time>2021-06-25T18:42:47.000Z</time>
        <extensions>
          <ns3:TrackPointExtension>
            <ns3:atemp>23.0</ns3:atemp>
            <ns3:hr>102</ns3:hr>
          </ns3:TrackPointExtension>
        </extensions>
      </trkpt>
      <trkpt lat="36.7710218019783496856689453125" lon="-118.436106741428375244140625">
        <ele>3472.800048828125</ele>
        <time>2021-06-25T18:42:51.000Z</time>
        <extensions>
          <ns3:TrackPointExtension>
            <ns3:atemp>23.0</ns3:atemp>
            <ns3:hr>105</ns3:hr>
          </ns3:TrackPointExtension>
        </extensions>
      </trkpt>
      <trkpt lat="36.7710234783589839935302734375" lon="-118.43610313721001148223876953125">
        <ele>3472.60009765625</ele>
        <time>2021-06-25T18:42:52.000Z</time>
        <extensions>
          <ns3:TrackPointExtension>
            <ns3:atemp>23.0</ns3:atemp>
            <ns3:hr>105</ns3:hr>
          </ns3:TrackPointExtension>
        </extensions>
      </trkpt>
      <trkpt lat="36.7710291780531406402587890625" lon="-118.43607681803405284881591796875">
        <ele>3472.199951171875</ele>
        <time>2021-06-25T18:42:59.000Z</time>
        <extensions>
          <ns3:TrackPointExtension>
            <ns3:atemp>23.0</ns3:atemp>
            <ns3:hr>106</ns3:hr>
          </ns3:TrackPointExtension>
        </extensions>
      </trkpt>
      <trkpt lat="36.7710291780531406402587890625" lon="-118.43607681803405284881591796875">
        <ele>3472</ele>
        <time>2021-06-25T18:43:01.000Z</time>
        <extensions>
          <ns3:TrackPointExtension>
            <ns3:atemp>24.0</ns3:atemp>
            <ns3:hr>106</ns3:hr>
          </ns3:TrackPointExtension>
        </extensions>
      </trkpt>
      <trkpt lat="36.7710291780531406402587890625" lon="-118.43607681803405284881591796875">
        <ele>3471.60009765625</ele>
        <time>2021-06-25T18:43:08.000Z</time>
        <extensions>
          <ns3:TrackPointExtension>
            <ns3:atemp>24.0</ns3:atemp>
            <ns3:hr>109</ns3:hr>
          </ns3:TrackPointExtension>
        </extensions>
      </trkpt>
      <trkpt lat="36.7710291780531406402587890625" lon="-118.43607681803405284881591796875">
        <ele>3470.800048828125</ele>
        <time>2021-06-25T18:43:09.000Z</time>
        <extensions>
          <ns3:TrackPointExtension>
            <ns3:atemp>24.0</ns3:atemp>
            <ns3:hr>109</ns3:hr>
          </ns3:TrackPointExtension>
        </extensions>
      </trkpt>
      <trkpt lat="36.7710291780531406402587890625" lon="-118.436074554920196533203125">
        <ele>3469.39990234375</ele>
        <time>2021-06-25T18:43:14.000Z</time>
        <extensions>
          <ns3:TrackPointExtension>
            <ns3:atemp>24.0</ns3:atemp>
            <ns3:hr>110</ns3:hr>
          </ns3:TrackPointExtension>
        </extensions>
      </trkpt>
      <trkpt lat="36.77101853303611278533935546875" lon="-118.436026610434055328369140625">
        <ele>3468.199951171875</ele>
        <time>2021-06-25T18:43:27.000Z</time>
        <extensions>
          <ns3:TrackPointExtension>
            <ns3:atemp>24.0</ns3:atemp>
            <ns3:hr>107</ns3:hr>
          </ns3:TrackPointExtension>
        </extensions>
      </trkpt>
      <trkpt lat="36.7710083909332752227783203125" lon="-118.4360167197883129119873046875">
        <ele>3467</ele>
        <time>2021-06-25T18:43:29.000Z</time>
        <extensions>
          <ns3:TrackPointExtension>
            <ns3:atemp>24.0</ns3:atemp>
            <ns3:hr>105</ns3:hr>
          </ns3:TrackPointExtension>
        </extensions>
      </trkpt>
      <trkpt lat="36.77100193686783313751220703125" lon="-118.4360126964747905731201171875">
        <ele>3464.60009765625</ele>
        <time>2021-06-25T18:43:30.000Z</time>
        <extensions>
          <ns3:TrackPointExtension>
            <ns3:atemp>24.0</ns3:atemp>
            <ns3:hr>106</ns3:hr>
          </ns3:TrackPointExtension>
        </extensions>
      </trkpt>
      <trkpt lat="36.7709953151643276214599609375" lon="-118.43600590713322162628173828125">
        <ele>3464.60009765625</ele>
        <time>2021-06-25T18:43:34.000Z</time>
        <extensions>
          <ns3:TrackPointExtension>
            <ns3:atemp>24.0</ns3:atemp>
            <ns3:hr>103</ns3:hr>
          </ns3:TrackPointExtension>
        </extensions>
      </trkpt>
      <trkpt lat="36.7709921300411224365234375" lon="-118.43599568121135234832763671875">
        <ele>3463.60009765625</ele>
        <time>2021-06-25T18:43:38.000Z</time>
        <extensions>
          <ns3:TrackPointExtension>
            <ns3:atemp>24.0</ns3:atemp>
            <ns3:hr>105</ns3:hr>
          </ns3:TrackPointExtension>
        </extensions>
      </trkpt>
      <trkpt lat="36.77098969928920269012451171875" lon="-118.43598478473722934722900390625">
        <ele>3462.800048828125</ele>
        <time>2021-06-25T18:43:41.000Z</time>
        <extensions>
          <ns3:TrackPointExtension>
            <ns3:atemp>24.0</ns3:atemp>
            <ns3:hr>102</ns3:hr>
          </ns3:TrackPointExtension>
        </extensions>
      </trkpt>
      <trkpt lat="36.7709855921566486358642578125" lon="-118.43597807921469211578369140625">
        <ele>3461.60009765625</ele>
        <time>2021-06-25T18:43:43.000Z</time>
        <extensions>
          <ns3:TrackPointExtension>
            <ns3:atemp>24.0</ns3:atemp>
            <ns3:hr>103</ns3:hr>
          </ns3:TrackPointExtension>
        </extensions>
      </trkpt>
      <trkpt lat="36.77096840925514698028564453125" lon="-118.43593851663172245025634765625">
        <ele>3460.39990234375</ele>
        <time>2021-06-25T18:43:51.000Z</time>
        <extensions>
          <ns3:TrackPointExtension>
            <ns3:atemp>23.0</ns3:atemp>
            <ns3:hr>101</ns3:hr>
          </ns3:TrackPointExtension>
        </extensions>
      </trkpt>
      <trkpt lat="36.77094611339271068572998046875" lon="-118.43588738702237606048583984375">
        <ele>3460.199951171875</ele>
        <time>2021-06-25T18:43:55.000Z</time>
        <extensions>
          <ns3:TrackPointExtension>
            <ns3:atemp>23.0</ns3:atemp>
            <ns3:hr>105</ns3:hr>
          </ns3:TrackPointExtension>
        </extensions>
      </trkpt>
      <trkpt lat="36.77093982696533203125" lon="-118.4358480758965015411376953125">
        <ele>3458.60009765625</ele>
        <time>2021-06-25T18:44:01.000Z</time>
        <extensions>
          <ns3:TrackPointExtension>
            <ns3:atemp>23.0</ns3:atemp>
            <ns3:hr>106</ns3:hr>
          </ns3:TrackPointExtension>
        </extensions>
      </trkpt>
      <trkpt lat="36.77093982696533203125" lon="-118.435830138623714447021484375">
        <ele>3457.800048828125</ele>
        <time>2021-06-25T18:44:07.000Z</time>
        <extensions>
          <ns3:TrackPointExtension>
            <ns3:atemp>23.0</ns3:atemp>
            <ns3:hr>105</ns3:hr>
          </ns3:TrackPointExtension>
        </extensions>
      </trkpt>
      <trkpt lat="36.77093907259404659271240234375" lon="-118.43582569621503353118896484375">
        <ele>3457.39990234375</ele>
        <time>2021-06-25T18:44:08.000Z</time>
        <extensions>
          <ns3:TrackPointExtension>
            <ns3:atemp>23.0</ns3:atemp>
            <ns3:hr>105</ns3:hr>
          </ns3:TrackPointExtension>
        </extensions>
      </trkpt>
      <trkpt lat="36.77093286998569965362548828125" lon="-118.4357897378504276275634765625">
        <ele>3458.39990234375</ele>
        <time>2021-06-25T18:44:16.000Z</time>
        <extensions>
          <ns3:TrackPointExtension>
            <ns3:atemp>23.0</ns3:atemp>
            <ns3:hr>102</ns3:hr>
          </ns3:TrackPointExtension>
        </extensions>
      </trkpt>
      <trkpt lat="36.77093270234763622283935546875" lon="-118.4357860498130321502685546875">
        <ele>3458.39990234375</ele>
        <time>2021-06-25T18:44:17.000Z</time>
        <extensions>
          <ns3:TrackPointExtension>
            <ns3:atemp>23.0</ns3:atemp>
            <ns3:hr>99</ns3:hr>
          </ns3:TrackPointExtension>
        </extensions>
      </trkpt>
      <trkpt lat="36.7709326185286045074462890625" lon="-118.435778506100177764892578125">
        <ele>3456.39990234375</ele>
        <time>2021-06-25T18:44:20.000Z</time>
        <extensions>
          <ns3:TrackPointExtension>
            <ns3:atemp>23.0</ns3:atemp>
            <ns3:hr>96</ns3:hr>
          </ns3:TrackPointExtension>
        </extensions>
      </trkpt>
      <trkpt lat="36.770918369293212890625" lon="-118.4357709623873233795166015625">
        <ele>3454.800048828125</ele>
        <time>2021-06-25T18:44:29.000Z</time>
        <extensions>
          <ns3:TrackPointExtension>
            <ns3:atemp>23.0</ns3:atemp>
            <ns3:hr>97</ns3:hr>
          </ns3:TrackPointExtension>
        </extensions>
      </trkpt>
      <trkpt lat="36.77091694436967372894287109375" lon="-118.4357552044093608856201171875">
        <ele>3453.800048828125</ele>
        <time>2021-06-25T18:44:32.000Z</time>
        <extensions>
          <ns3:TrackPointExtension>
            <ns3:atemp>23.0</ns3:atemp>
            <ns3:hr>98</ns3:hr>
          </ns3:TrackPointExtension>
        </extensions>
      </trkpt>
      <trkpt lat="36.77090051583945751190185546875" lon="-118.435661830008029937744140625">
        <ele>3452.800048828125</ele>
        <time>2021-06-25T18:44:49.000Z</time>
        <extensions>
          <ns3:TrackPointExtension>
            <ns3:atemp>23.0</ns3:atemp>
            <ns3:hr>95</ns3:hr>
          </ns3:TrackPointExtension>
        </extensions>
      </trkpt>
      <trkpt lat="36.7709004320204257965087890625" lon="-118.43565948307514190673828125">
        <ele>3452.800048828125</ele>
        <time>2021-06-25T18:44:50.000Z</time>
        <extensions>
          <ns3:TrackPointExtension>
            <ns3:atemp>23.0</ns3:atemp>
            <ns3:hr>97</ns3:hr>
          </ns3:TrackPointExtension>
        </extensions>
      </trkpt>
      <trkpt lat="36.77090034820139408111572265625" lon="-118.4356566332280635833740234375">
        <ele>3452.199951171875</ele>
        <time>2021-06-25T18:44:52.000Z</time>
        <extensions>
          <ns3:TrackPointExtension>
            <ns3:atemp>23.0</ns3:atemp>
            <ns3:hr>100</ns3:hr>
          </ns3:TrackPointExtension>
        </extensions>
      </trkpt>
      <trkpt lat="36.77090152166783809661865234375" lon="-118.4356522746384143829345703125">
        <ele>3451.60009765625</ele>
        <time>2021-06-25T18:44:55.000Z</time>
        <extensions>
          <ns3:TrackPointExtension>
            <ns3:atemp>23.0</ns3:atemp>
            <ns3:hr>98</ns3:hr>
          </ns3:TrackPointExtension>
        </extensions>
      </trkpt>
      <trkpt lat="36.770901940762996673583984375" lon="-118.4356448985636234283447265625">
        <ele>3451</ele>
        <time>2021-06-25T18:44:59.000Z</time>
        <extensions>
          <ns3:TrackPointExtension>
            <ns3:atemp>23.0</ns3:atemp>
            <ns3:hr>101</ns3:hr>
          </ns3:TrackPointExtension>
        </extensions>
      </trkpt>
      <trkpt lat="36.77090370096266269683837890625" lon="-118.43563861213624477386474609375">
        <ele>3450.39990234375</ele>
        <time>2021-06-25T18:45:02.000Z</time>
        <extensions>
          <ns3:TrackPointExtension>
            <ns3:atemp>23.0</ns3:atemp>
            <ns3:hr>104</ns3:hr>
          </ns3:TrackPointExtension>
        </extensions>
      </trkpt>
      <trkpt lat="36.770906634628772735595703125" lon="-118.43563542701303958892822265625">
        <ele>3450.199951171875</ele>
        <time>2021-06-25T18:45:03.000Z</time>
        <extensions>
          <ns3:TrackPointExtension>
            <ns3:atemp>23.0</ns3:atemp>
            <ns3:hr>105</ns3:hr>
          </ns3:TrackPointExtension>
        </extensions>
      </trkpt>
      <trkpt lat="36.77091903984546661376953125" lon="-118.43561983667314052581787109375">
        <ele>3449.39990234375</ele>
        <time>2021-06-25T18:45:06.000Z</time>
        <extensions>
          <ns3:TrackPointExtension>
            <ns3:atemp>23.0</ns3:atemp>
            <ns3:hr>108</ns3:hr>
          </ns3:TrackPointExtension>
        </extensions>
      </trkpt>
      <trkpt lat="36.77095281891524791717529296875" lon="-118.435578681528568267822265625">
        <ele>3448.199951171875</ele>
        <time>2021-06-25T18:45:15.000Z</time>
        <extensions>
          <ns3:TrackPointExtension>
            <ns3:atemp>23.0</ns3:atemp>
            <ns3:hr>109</ns3:hr>
          </ns3:TrackPointExtension>
        </extensions>
      </trkpt>
      <trkpt lat="36.77098483778536319732666015625" lon="-118.43551087193191051483154296875">
        <ele>3447.199951171875</ele>
        <time>2021-06-25T18:45:19.000Z</time>
        <extensions>
          <ns3:TrackPointExtension>
            <ns3:atemp>23.0</ns3:atemp>
            <ns3:hr>107</ns3:hr>
          </ns3:TrackPointExtension>
        </extensions>
      </trkpt>
      <trkpt lat="36.77099011838436126708984375" lon="-118.43549410812556743621826171875">
        <ele>3446.60009765625</ele>
        <time>2021-06-25T18:45:20.000Z</time>
        <extensions>
          <ns3:TrackPointExtension>
            <ns3:atemp>23.0</ns3:atemp>
            <ns3:hr>106</ns3:hr>
          </ns3:TrackPointExtension>
        </extensions>
      </trkpt>
      <trkpt lat="36.77099422551691532135009765625" lon="-118.43547969125211238861083984375">
        <ele>3446.39990234375</ele>
        <time>2021-06-25T18:45:21.000Z</time>
        <extensions>
          <ns3:TrackPointExtension>
            <ns3:atemp>23.0</ns3:atemp>
            <ns3:hr>105</ns3:hr>
          </ns3:TrackPointExtension>
        </extensions>
      </trkpt>
      <trkpt lat="36.7710060440003871917724609375" lon="-118.43544951640069484710693359375">
        <ele>3445.39990234375</ele>
        <time>2021-06-25T18:45:23.000Z</time>
        <extensions>
          <ns3:TrackPointExtension>
            <ns3:atemp>23.0</ns3:atemp>
            <ns3:hr>103</ns3:hr>
          </ns3:TrackPointExtension>
        </extensions>
      </trkpt>
      <trkpt lat="36.7710097320377826690673828125" lon="-118.43543350696563720703125">
        <ele>3445.39990234375</ele>
        <time>2021-06-25T18:45:25.000Z</time>
        <extensions>
          <ns3:TrackPointExtension>
            <ns3:atemp>23.0</ns3:atemp>
            <ns3:hr>100</ns3:hr>
          </ns3:TrackPointExtension>
        </extensions>
      </trkpt>
      <trkpt lat="36.771008558571338653564453125" lon="-118.435431830585002899169921875">
        <ele>3445.39990234375</ele>
        <time>2021-06-25T18:45:26.000Z</time>
        <extensions>
          <ns3:TrackPointExtension>
            <ns3:atemp>23.0</ns3:atemp>
            <ns3:hr>99</ns3:hr>
          </ns3:TrackPointExtension>
        </extensions>
      </trkpt>
      <trkpt lat="36.77100596018135547637939453125" lon="-118.4354276396334171295166015625">
        <ele>3445.39990234375</ele>
        <time>2021-06-25T18:45:27.000Z</time>
        <extensions>
          <ns3:TrackPointExtension>
            <ns3:atemp>23.0</ns3:atemp>
            <ns3:hr>97</ns3:hr>
          </ns3:TrackPointExtension>
        </extensions>
      </trkpt>
      <trkpt lat="36.771004199981689453125" lon="-118.43540291301906108856201171875">
        <ele>3445.39990234375</ele>
        <time>2021-06-25T18:45:41.000Z</time>
        <extensions>
          <ns3:TrackPointExtension>
            <ns3:atemp>24.0</ns3:atemp>
            <ns3:hr>98</ns3:hr>
          </ns3:TrackPointExtension>
        </extensions>
      </trkpt>
      <trkpt lat="36.771004199981689453125" lon="-118.43540291301906108856201171875">
        <ele>3445.39990234375</ele>
        <time>2021-06-25T18:45:44.000Z</time>
        <extensions>
          <ns3:TrackPointExtension>
            <ns3:atemp>24.0</ns3:atemp>
            <ns3:hr>101</ns3:hr>
          </ns3:TrackPointExtension>
        </extensions>
      </trkpt>
      <trkpt lat="36.770992465317249298095703125" lon="-118.43536972068250179290771484375">
        <ele>3443.800048828125</ele>
        <time>2021-06-25T18:45:53.000Z</time>
        <extensions>
          <ns3:TrackPointExtension>
            <ns3:atemp>24.0</ns3:atemp>
            <ns3:hr>99</ns3:hr>
          </ns3:TrackPointExtension>
        </extensions>
      </trkpt>
      <trkpt lat="36.77098148502409458160400390625" lon="-118.43536251224577426910400390625">
        <ele>3442.60009765625</ele>
        <time>2021-06-25T18:45:59.000Z</time>
        <extensions>
          <ns3:TrackPointExtension>
            <ns3:atemp>24.0</ns3:atemp>
            <ns3:hr>100</ns3:hr>
          </ns3:TrackPointExtension>
        </extensions>
      </trkpt>
      <trkpt lat="36.7709641344845294952392578125" lon="-118.43536066822707653045654296875">
        <ele>3441.39990234375</ele>
        <time>2021-06-25T18:46:03.000Z</time>
        <extensions>
          <ns3:TrackPointExtension>
            <ns3:atemp>24.0</ns3:atemp>
            <ns3:hr>103</ns3:hr>
          </ns3:TrackPointExtension>
        </extensions>
      </trkpt>
      <trkpt lat="36.770947538316249847412109375" lon="-118.43534859828650951385498046875">
        <ele>3440.39990234375</ele>
        <time>2021-06-25T18:46:08.000Z</time>
        <extensions>
          <ns3:TrackPointExtension>
            <ns3:atemp>24.0</ns3:atemp>
            <ns3:hr>104</ns3:hr>
          </ns3:TrackPointExtension>
        </extensions>
      </trkpt>
      <trkpt lat="36.7709290981292724609375" lon="-118.43533284030854701995849609375">
        <ele>3439</ele>
        <time>2021-06-25T18:46:16.000Z</time>
        <extensions>
          <ns3:TrackPointExtension>
            <ns3:atemp>24.0</ns3:atemp>
            <ns3:hr>104</ns3:hr>
          </ns3:TrackPointExtension>
        </extensions>
      </trkpt>
      <trkpt lat="36.770924068987369537353515625" lon="-118.4352921880781650543212890625">
        <ele>3438.39990234375</ele>
        <time>2021-06-25T18:46:23.000Z</time>
        <extensions>
          <ns3:TrackPointExtension>
            <ns3:atemp>24.0</ns3:atemp>
            <ns3:hr>108</ns3:hr>
          </ns3:TrackPointExtension>
        </extensions>
      </trkpt>
      <trkpt lat="36.77092281170189380645751953125" lon="-118.43525572679936885833740234375">
        <ele>3438</ele>
        <time>2021-06-25T18:46:31.000Z</time>
        <extensions>
          <ns3:TrackPointExtension>
            <ns3:atemp>24.0</ns3:atemp>
            <ns3:hr>111</ns3:hr>
          </ns3:TrackPointExtension>
        </extensions>
      </trkpt>
      <trkpt lat="36.77092440426349639892578125" lon="-118.43522270210087299346923828125">
        <ele>3436.800048828125</ele>
        <time>2021-06-25T18:46:36.000Z</time>
        <extensions>
          <ns3:TrackPointExtension>
            <ns3:atemp>24.0</ns3:atemp>
            <ns3:hr>109</ns3:hr>
          </ns3:TrackPointExtension>
        </extensions>
      </trkpt>
      <trkpt lat="36.77093018777668476104736328125" lon="-118.4351999871432781219482421875">
        <ele>3435.60009765625</ele>
        <time>2021-06-25T18:46:43.000Z</time>
        <extensions>
          <ns3:TrackPointExtension>
            <ns3:atemp>24.0</ns3:atemp>
            <ns3:hr>107</ns3:hr>
          </ns3:TrackPointExtension>
        </extensions>
      </trkpt>
      <trkpt lat="36.77093421109020709991455078125" lon="-118.43515346758067607879638671875">
        <ele>3434.60009765625</ele>
        <time>2021-06-25T18:46:51.000Z</time>
        <extensions>
          <ns3:TrackPointExtension>
            <ns3:atemp>24.0</ns3:atemp>
            <ns3:hr>105</ns3:hr>
          </ns3:TrackPointExtension>
        </extensions>
      </trkpt>
      <trkpt lat="36.77093421109020709991455078125" lon="-118.43514240346848964691162109375">
        <ele>3433.199951171875</ele>
        <time>2021-06-25T18:46:56.000Z</time>
        <extensions>
          <ns3:TrackPointExtension>
            <ns3:atemp>24.0</ns3:atemp>
            <ns3:hr>104</ns3:hr>
          </ns3:TrackPointExtension>
        </extensions>
      </trkpt>
      <trkpt lat="36.77092515863478183746337890625" lon="-118.43511071987450122833251953125">
        <ele>3432.199951171875</ele>
        <time>2021-06-25T18:47:01.000Z</time>
        <extensions>
          <ns3:TrackPointExtension>
            <ns3:atemp>24.0</ns3:atemp>
            <ns3:hr>103</ns3:hr>
          </ns3:TrackPointExtension>
        </extensions>
      </trkpt>
      <trkpt lat="36.7708886973559856414794921875" lon="-118.435051627457141876220703125">
        <ele>3431.60009765625</ele>
        <time>2021-06-25T18:47:05.000Z</time>
        <extensions>
          <ns3:TrackPointExtension>
            <ns3:atemp>24.0</ns3:atemp>
            <ns3:hr>102</ns3:hr>
          </ns3:TrackPointExtension>
        </extensions>
      </trkpt>
      <trkpt lat="36.7708783037960529327392578125" lon="-118.43502002768218517303466796875">
        <ele>3431.39990234375</ele>
        <time>2021-06-25T18:47:07.000Z</time>
        <extensions>
          <ns3:TrackPointExtension>
            <ns3:atemp>24.0</ns3:atemp>
            <ns3:hr>102</ns3:hr>
          </ns3:TrackPointExtension>
        </extensions>
      </trkpt>
      <trkpt lat="36.770875453948974609375" lon="-118.43500175513327121734619140625">
        <ele>3431.39990234375</ele>
        <time>2021-06-25T18:47:08.000Z</time>
        <extensions>
          <ns3:TrackPointExtension>
            <ns3:atemp>24.0</ns3:atemp>
            <ns3:hr>102</ns3:hr>
          </ns3:TrackPointExtension>
        </extensions>
      </trkpt>
      <trkpt lat="36.77087134681642055511474609375" lon="-118.434958755970001220703125">
        <ele>3430.800048828125</ele>
        <time>2021-06-25T18:47:10.000Z</time>
        <extensions>
          <ns3:TrackPointExtension>
            <ns3:atemp>24.0</ns3:atemp>
            <ns3:hr>102</ns3:hr>
          </ns3:TrackPointExtension>
        </extensions>
      </trkpt>
      <trkpt lat="36.77087184973061084747314453125" lon="-118.4349305927753448486328125">
        <ele>3430.60009765625</ele>
        <time>2021-06-25T18:47:12.000Z</time>
        <extensions>
          <ns3:TrackPointExtension>
            <ns3:atemp>24.0</ns3:atemp>
            <ns3:hr>103</ns3:hr>
          </ns3:TrackPointExtension>
        </extensions>
      </trkpt>
      <trkpt lat="36.77087704651057720184326171875" lon="-118.4349153377115726470947265625">
        <ele>3430.60009765625</ele>
        <time>2021-06-25T18:47:14.000Z</time>
        <extensions>
          <ns3:TrackPointExtension>
            <ns3:atemp>24.0</ns3:atemp>
            <ns3:hr>100</ns3:hr>
          </ns3:TrackPointExtension>
        </extensions>
      </trkpt>
      <trkpt lat="36.77087168209254741668701171875" lon="-118.4349015913903713226318359375">
        <ele>3430.39990234375</ele>
        <time>2021-06-25T18:47:15.000Z</time>
        <extensions>
          <ns3:TrackPointExtension>
            <ns3:atemp>24.0</ns3:atemp>
            <ns3:hr>101</ns3:hr>
          </ns3:TrackPointExtension>
        </extensions>
      </trkpt>
      <trkpt lat="36.7708648927509784698486328125" lon="-118.43489178456366062164306640625">
        <ele>3429.800048828125</ele>
        <time>2021-06-25T18:47:16.000Z</time>
        <extensions>
          <ns3:TrackPointExtension>
            <ns3:atemp>24.0</ns3:atemp>
            <ns3:hr>101</ns3:hr>
          </ns3:TrackPointExtension>
        </extensions>
      </trkpt>
      <trkpt lat="36.77085223607718944549560546875" lon="-118.43488558195531368255615234375">
        <ele>3428.39990234375</ele>
        <time>2021-06-25T18:47:18.000Z</time>
        <extensions>
          <ns3:TrackPointExtension>
            <ns3:atemp>24.0</ns3:atemp>
            <ns3:hr>100</ns3:hr>
          </ns3:TrackPointExtension>
        </extensions>
      </trkpt>
      <trkpt lat="36.77084259688854217529296875" lon="-118.4348808042705059051513671875">
        <ele>3428.199951171875</ele>
        <time>2021-06-25T18:47:21.000Z</time>
        <extensions>
          <ns3:TrackPointExtension>
            <ns3:atemp>24.0</ns3:atemp>
            <ns3:hr>100</ns3:hr>
          </ns3:TrackPointExtension>
        </extensions>
      </trkpt>
      <trkpt lat="36.77086531184613704681396484375" lon="-118.4348459355533123016357421875">
        <ele>3428.199951171875</ele>
        <time>2021-06-25T18:47:26.000Z</time>
        <extensions>
          <ns3:TrackPointExtension>
            <ns3:atemp>24.0</ns3:atemp>
            <ns3:hr>97</ns3:hr>
          </ns3:TrackPointExtension>
        </extensions>
      </trkpt>
      <trkpt lat="36.77085894159972667694091796875" lon="-118.43483872711658477783203125">
        <ele>3427.800048828125</ele>
        <time>2021-06-25T18:47:27.000Z</time>
        <extensions>
          <ns3:TrackPointExtension>
            <ns3:atemp>24.0</ns3:atemp>
            <ns3:hr>96</ns3:hr>
          </ns3:TrackPointExtension>
        </extensions>
      </trkpt>
      <trkpt lat="36.77084201015532016754150390625" lon="-118.43483294360339641571044921875">
        <ele>3427</ele>
        <time>2021-06-25T18:47:29.000Z</time>
        <extensions>
          <ns3:TrackPointExtension>
            <ns3:atemp>24.0</ns3:atemp>
            <ns3:hr>97</ns3:hr>
          </ns3:TrackPointExtension>
        </extensions>
      </trkpt>
      <trkpt lat="36.77083790302276611328125" lon="-118.43482707627117633819580078125">
        <ele>3426.39990234375</ele>
        <time>2021-06-25T18:47:31.000Z</time>
        <extensions>
          <ns3:TrackPointExtension>
            <ns3:atemp>24.0</ns3:atemp>
            <ns3:hr>98</ns3:hr>
          </ns3:TrackPointExtension>
        </extensions>
      </trkpt>
      <trkpt lat="36.7708420939743518829345703125" lon="-118.434816934168338775634765625">
        <ele>3426</ele>
        <time>2021-06-25T18:47:33.000Z</time>
        <extensions>
          <ns3:TrackPointExtension>
            <ns3:atemp>24.0</ns3:atemp>
            <ns3:hr>98</ns3:hr>
          </ns3:TrackPointExtension>
        </extensions>
      </trkpt>
      <trkpt lat="36.7708427645266056060791015625" lon="-118.4348080493509769439697265625">
        <ele>3426</ele>
        <time>2021-06-25T18:47:34.000Z</time>
        <extensions>
          <ns3:TrackPointExtension>
            <ns3:atemp>24.0</ns3:atemp>
            <ns3:hr>99</ns3:hr>
          </ns3:TrackPointExtension>
        </extensions>
      </trkpt>
      <trkpt lat="36.7708446085453033447265625" lon="-118.4348013438284397125244140625">
        <ele>3426</ele>
        <time>2021-06-25T18:47:35.000Z</time>
        <extensions>
          <ns3:TrackPointExtension>
            <ns3:atemp>24.0</ns3:atemp>
            <ns3:hr>100</ns3:hr>
          </ns3:TrackPointExtension>
        </extensions>
      </trkpt>
      <trkpt lat="36.77083413116633892059326171875" lon="-118.43477410264313220977783203125">
        <ele>3424.800048828125</ele>
        <time>2021-06-25T18:47:39.000Z</time>
        <extensions>
          <ns3:TrackPointExtension>
            <ns3:atemp>24.0</ns3:atemp>
            <ns3:hr>103</ns3:hr>
          </ns3:TrackPointExtension>
        </extensions>
      </trkpt>
      <trkpt lat="36.77083320915699005126953125" lon="-118.43475817702710628509521484375">
        <ele>3424.800048828125</ele>
        <time>2021-06-25T18:47:41.000Z</time>
        <extensions>
          <ns3:TrackPointExtension>
            <ns3:atemp>24.0</ns3:atemp>
            <ns3:hr>105</ns3:hr>
          </ns3:TrackPointExtension>
        </extensions>
      </trkpt>
      <trkpt lat="36.77081988193094730377197265625" lon="-118.4347178600728511810302734375">
        <ele>3423.39990234375</ele>
        <time>2021-06-25T18:47:47.000Z</time>
        <extensions>
          <ns3:TrackPointExtension>
            <ns3:atemp>24.0</ns3:atemp>
            <ns3:hr>107</ns3:hr>
          </ns3:TrackPointExtension>
        </extensions>
      </trkpt>
      <trkpt lat="36.77081082947552204132080078125" lon="-118.434712998569011688232421875">
        <ele>3423.199951171875</ele>
        <time>2021-06-25T18:47:48.000Z</time>
        <extensions>
          <ns3:TrackPointExtension>
            <ns3:atemp>24.0</ns3:atemp>
            <ns3:hr>107</ns3:hr>
          </ns3:TrackPointExtension>
        </extensions>
      </trkpt>
      <trkpt lat="36.77077420055866241455078125" lon="-118.43471224419772624969482421875">
        <ele>3422.800048828125</ele>
        <time>2021-06-25T18:47:52.000Z</time>
        <extensions>
          <ns3:TrackPointExtension>
            <ns3:atemp>24.0</ns3:atemp>
            <ns3:hr>107</ns3:hr>
          </ns3:TrackPointExtension>
        </extensions>
      </trkpt>
      <trkpt lat="36.77076640538871288299560546875" lon="-118.43470738269388675689697265625">
        <ele>3422.60009765625</ele>
        <time>2021-06-25T18:47:53.000Z</time>
        <extensions>
          <ns3:TrackPointExtension>
            <ns3:atemp>24.0</ns3:atemp>
            <ns3:hr>107</ns3:hr>
          </ns3:TrackPointExtension>
        </extensions>
      </trkpt>
      <trkpt lat="36.77076037041842937469482421875" lon="-118.4347034431993961334228515625">
        <ele>3422.39990234375</ele>
        <time>2021-06-25T18:47:55.000Z</time>
        <extensions>
          <ns3:TrackPointExtension>
            <ns3:atemp>24.0</ns3:atemp>
            <ns3:hr>107</ns3:hr>
          </ns3:TrackPointExtension>
        </extensions>
      </trkpt>
      <trkpt lat="36.77076322026550769805908203125" lon="-118.4346977435052394866943359375">
        <ele>3422.39990234375</ele>
        <time>2021-06-25T18:47:56.000Z</time>
        <extensions>
          <ns3:TrackPointExtension>
            <ns3:atemp>24.0</ns3:atemp>
            <ns3:hr>107</ns3:hr>
          </ns3:TrackPointExtension>
        </extensions>
      </trkpt>
      <trkpt lat="36.77077151834964752197265625" lon="-118.43466564081609249114990234375">
        <ele>3421.60009765625</ele>
        <time>2021-06-25T18:47:59.000Z</time>
        <extensions>
          <ns3:TrackPointExtension>
            <ns3:atemp>24.0</ns3:atemp>
            <ns3:hr>106</ns3:hr>
          </ns3:TrackPointExtension>
        </extensions>
      </trkpt>
      <trkpt lat="36.77074796520173549652099609375" lon="-118.43464585952460765838623046875">
        <ele>3421</ele>
        <time>2021-06-25T18:48:02.000Z</time>
        <extensions>
          <ns3:TrackPointExtension>
            <ns3:atemp>24.0</ns3:atemp>
            <ns3:hr>107</ns3:hr>
          </ns3:TrackPointExtension>
        </extensions>
      </trkpt>
      <trkpt lat="36.7707145214080810546875" lon="-118.43464351259171962738037109375">
        <ele>3420.39990234375</ele>
        <time>2021-06-25T18:48:08.000Z</time>
        <extensions>
          <ns3:TrackPointExtension>
            <ns3:atemp>24.0</ns3:atemp>
            <ns3:hr>107</ns3:hr>
          </ns3:TrackPointExtension>
        </extensions>
      </trkpt>
      <trkpt lat="36.77070002071559429168701171875" lon="-118.4346380643546581268310546875">
        <ele>3419.60009765625</ele>
        <time>2021-06-25T18:48:10.000Z</time>
        <extensions>
          <ns3:TrackPointExtension>
            <ns3:atemp>24.0</ns3:atemp>
            <ns3:hr>107</ns3:hr>
          </ns3:TrackPointExtension>
        </extensions>
      </trkpt>
      <trkpt lat="36.770680658519268035888671875" lon="-118.43462054617702960968017578125">
        <ele>3419.39990234375</ele>
        <time>2021-06-25T18:48:12.000Z</time>
        <extensions>
          <ns3:TrackPointExtension>
            <ns3:atemp>24.0</ns3:atemp>
            <ns3:hr>106</ns3:hr>
          </ns3:TrackPointExtension>
        </extensions>
      </trkpt>
      <trkpt lat="36.77066045813262462615966796875" lon="-118.43461451120674610137939453125">
        <ele>3419</ele>
        <time>2021-06-25T18:48:14.000Z</time>
        <extensions>
          <ns3:TrackPointExtension>
            <ns3:atemp>24.0</ns3:atemp>
            <ns3:hr>105</ns3:hr>
          </ns3:TrackPointExtension>
        </extensions>
      </trkpt>
      <trkpt lat="36.7706434428691864013671875" lon="-118.43463362194597721099853515625">
        <ele>3418.800048828125</ele>
        <time>2021-06-25T18:48:18.000Z</time>
        <extensions>
          <ns3:TrackPointExtension>
            <ns3:atemp>24.0</ns3:atemp>
            <ns3:hr>102</ns3:hr>
          </ns3:TrackPointExtension>
        </extensions>
      </trkpt>
      <trkpt lat="36.7706456221640110015869140625" lon="-118.4346256591379642486572265625">
        <ele>3418.199951171875</ele>
        <time>2021-06-25T18:48:19.000Z</time>
        <extensions>
          <ns3:TrackPointExtension>
            <ns3:atemp>24.0</ns3:atemp>
            <ns3:hr>100</ns3:hr>
          </ns3:TrackPointExtension>
        </extensions>
      </trkpt>
      <trkpt lat="36.77064436487853527069091796875" lon="-118.43461048789322376251220703125">
        <ele>3417.800048828125</ele>
        <time>2021-06-25T18:48:21.000Z</time>
        <extensions>
          <ns3:TrackPointExtension>
            <ns3:atemp>24.0</ns3:atemp>
            <ns3:hr>96</ns3:hr>
          </ns3:TrackPointExtension>
        </extensions>
      </trkpt>
      <trkpt lat="36.77064034156501293182373046875" lon="-118.43460612930357456207275390625">
        <ele>3417.39990234375</ele>
        <time>2021-06-25T18:48:22.000Z</time>
        <extensions>
          <ns3:TrackPointExtension>
            <ns3:atemp>24.0</ns3:atemp>
            <ns3:hr>95</ns3:hr>
          </ns3:TrackPointExtension>
        </extensions>
      </trkpt>
      <trkpt lat="36.7706436105072498321533203125" lon="-118.43458550982177257537841796875">
        <ele>3417.199951171875</ele>
        <time>2021-06-25T18:48:25.000Z</time>
        <extensions>
          <ns3:TrackPointExtension>
            <ns3:atemp>24.0</ns3:atemp>
            <ns3:hr>91</ns3:hr>
          </ns3:TrackPointExtension>
        </extensions>
      </trkpt>
      <trkpt lat="36.77064436487853527069091796875" lon="-118.434578217566013336181640625">
        <ele>3417</ele>
        <time>2021-06-25T18:48:26.000Z</time>
        <extensions>
          <ns3:TrackPointExtension>
            <ns3:atemp>24.0</ns3:atemp>
            <ns3:hr>89</ns3:hr>
          </ns3:TrackPointExtension>
        </extensions>
      </trkpt>
      <trkpt lat="36.7706365697085857391357421875" lon="-118.4345639683306217193603515625">
        <ele>3416.199951171875</ele>
        <time>2021-06-25T18:48:28.000Z</time>
        <extensions>
          <ns3:TrackPointExtension>
            <ns3:atemp>24.0</ns3:atemp>
            <ns3:hr>87</ns3:hr>
          </ns3:TrackPointExtension>
        </extensions>
      </trkpt>
      <trkpt lat="36.770636737346649169921875" lon="-118.43455533497035503387451171875">
        <ele>3416</ele>
        <time>2021-06-25T18:48:29.000Z</time>
        <extensions>
          <ns3:TrackPointExtension>
            <ns3:atemp>24.0</ns3:atemp>
            <ns3:hr>86</ns3:hr>
          </ns3:TrackPointExtension>
        </extensions>
      </trkpt>
      <trkpt lat="36.77063128910958766937255859375" lon="-118.4345133416354656219482421875">
        <ele>3415.199951171875</ele>
        <time>2021-06-25T18:48:34.000Z</time>
        <extensions>
          <ns3:TrackPointExtension>
            <ns3:atemp>24.0</ns3:atemp>
            <ns3:hr>81</ns3:hr>
          </ns3:TrackPointExtension>
        </extensions>
      </trkpt>
      <trkpt lat="36.77062190137803554534912109375" lon="-118.43451158143579959869384765625">
        <ele>3415</ele>
        <time>2021-06-25T18:48:35.000Z</time>
        <extensions>
          <ns3:TrackPointExtension>
            <ns3:atemp>24.0</ns3:atemp>
            <ns3:hr>85</ns3:hr>
          </ns3:TrackPointExtension>
        </extensions>
      </trkpt>
      <trkpt lat="36.77060698159039020538330078125" lon="-118.4345143474638462066650390625">
        <ele>3414.800048828125</ele>
        <time>2021-06-25T18:48:37.000Z</time>
        <extensions>
          <ns3:TrackPointExtension>
            <ns3:atemp>24.0</ns3:atemp>
            <ns3:hr>84</ns3:hr>
          </ns3:TrackPointExtension>
        </extensions>
      </trkpt>
      <trkpt lat="36.77059642039239406585693359375" lon="-118.43451946042478084564208984375">
        <ele>3414.39990234375</ele>
        <time>2021-06-25T18:48:39.000Z</time>
        <extensions>
          <ns3:TrackPointExtension>
            <ns3:atemp>24.0</ns3:atemp>
            <ns3:hr>84</ns3:hr>
          </ns3:TrackPointExtension>
        </extensions>
      </trkpt>
      <trkpt lat="36.77058116532862186431884765625" lon="-118.434521891176700592041015625">
        <ele>3414</ele>
        <time>2021-06-25T18:48:41.000Z</time>
        <extensions>
          <ns3:TrackPointExtension>
            <ns3:atemp>24.0</ns3:atemp>
            <ns3:hr>83</ns3:hr>
          </ns3:TrackPointExtension>
        </extensions>
      </trkpt>
      <trkpt lat="36.7705737054347991943359375" lon="-118.43452314846217632293701171875">
        <ele>3413.60009765625</ele>
        <time>2021-06-25T18:48:42.000Z</time>
        <extensions>
          <ns3:TrackPointExtension>
            <ns3:atemp>24.0</ns3:atemp>
            <ns3:hr>83</ns3:hr>
          </ns3:TrackPointExtension>
        </extensions>
      </trkpt>
      <trkpt lat="36.7705584503710269927978515625" lon="-118.434527255594730377197265625">
        <ele>3413.39990234375</ele>
        <time>2021-06-25T18:48:44.000Z</time>
        <extensions>
          <ns3:TrackPointExtension>
            <ns3:atemp>24.0</ns3:atemp>
            <ns3:hr>83</ns3:hr>
          </ns3:TrackPointExtension>
        </extensions>
      </trkpt>
      <trkpt lat="36.77054428495466709136962890625" lon="-118.4345301054418087005615234375">
        <ele>3413</ele>
        <time>2021-06-25T18:48:46.000Z</time>
        <extensions>
          <ns3:TrackPointExtension>
            <ns3:atemp>24.0</ns3:atemp>
            <ns3:hr>84</ns3:hr>
          </ns3:TrackPointExtension>
        </extensions>
      </trkpt>
      <trkpt lat="36.77053942345082759857177734375" lon="-118.4345294348895549774169921875">
        <ele>3413</ele>
        <time>2021-06-25T18:48:47.000Z</time>
        <extensions>
          <ns3:TrackPointExtension>
            <ns3:atemp>24.0</ns3:atemp>
            <ns3:hr>83</ns3:hr>
          </ns3:TrackPointExtension>
        </extensions>
      </trkpt>
      <trkpt lat="36.770529784262180328369140625" lon="-118.434527926146984100341796875">
        <ele>3413</ele>
        <time>2021-06-25T18:48:48.000Z</time>
        <extensions>
          <ns3:TrackPointExtension>
            <ns3:atemp>24.0</ns3:atemp>
            <ns3:hr>83</ns3:hr>
          </ns3:TrackPointExtension>
        </extensions>
      </trkpt>
      <trkpt lat="36.7705192230641841888427734375" lon="-118.4345260821282863616943359375">
        <ele>3412.800048828125</ele>
        <time>2021-06-25T18:48:49.000Z</time>
        <extensions>
          <ns3:TrackPointExtension>
            <ns3:atemp>24.0</ns3:atemp>
            <ns3:hr>83</ns3:hr>
          </ns3:TrackPointExtension>
        </extensions>
      </trkpt>
      <trkpt lat="36.77049525082111358642578125" lon="-118.43450889922678470611572265625">
        <ele>3412.199951171875</ele>
        <time>2021-06-25T18:48:53.000Z</time>
        <extensions>
          <ns3:TrackPointExtension>
            <ns3:atemp>24.0</ns3:atemp>
            <ns3:hr>86</ns3:hr>
          </ns3:TrackPointExtension>
        </extensions>
      </trkpt>
      <trkpt lat="36.77049416117370128631591796875" lon="-118.43450319953262805938720703125">
        <ele>3412.199951171875</ele>
        <time>2021-06-25T18:48:54.000Z</time>
        <extensions>
          <ns3:TrackPointExtension>
            <ns3:atemp>24.0</ns3:atemp>
            <ns3:hr>86</ns3:hr>
          </ns3:TrackPointExtension>
        </extensions>
      </trkpt>
      <trkpt lat="36.7704934068024158477783203125" lon="-118.4344987571239471435546875">
        <ele>3412.199951171875</ele>
        <time>2021-06-25T18:48:55.000Z</time>
        <extensions>
          <ns3:TrackPointExtension>
            <ns3:atemp>24.0</ns3:atemp>
            <ns3:hr>88</ns3:hr>
          </ns3:TrackPointExtension>
        </extensions>
      </trkpt>
      <trkpt lat="36.770495586097240447998046875" lon="-118.4344938956201076507568359375">
        <ele>3411.39990234375</ele>
        <time>2021-06-25T18:48:56.000Z</time>
        <extensions>
          <ns3:TrackPointExtension>
            <ns3:atemp>24.0</ns3:atemp>
            <ns3:hr>87</ns3:hr>
          </ns3:TrackPointExtension>
        </extensions>
      </trkpt>
      <trkpt lat="36.77051067352294921875" lon="-118.434468246996402740478515625">
        <ele>3410.800048828125</ele>
        <time>2021-06-25T18:48:59.000Z</time>
        <extensions>
          <ns3:TrackPointExtension>
            <ns3:atemp>24.0</ns3:atemp>
            <ns3:hr>87</ns3:hr>
          </ns3:TrackPointExtension>
        </extensions>
      </trkpt>
      <trkpt lat="36.770515702664852142333984375" lon="-118.43443882651627063751220703125">
        <ele>3410.60009765625</ele>
        <time>2021-06-25T18:49:02.000Z</time>
        <extensions>
          <ns3:TrackPointExtension>
            <ns3:atemp>24.0</ns3:atemp>
            <ns3:hr>88</ns3:hr>
          </ns3:TrackPointExtension>
        </extensions>
      </trkpt>
      <trkpt lat="36.77051092498004436492919921875" lon="-118.43442290090024471282958984375">
        <ele>3410</ele>
        <time>2021-06-25T18:49:05.000Z</time>
        <extensions>
          <ns3:TrackPointExtension>
            <ns3:atemp>24.0</ns3:atemp>
            <ns3:hr>88</ns3:hr>
          </ns3:TrackPointExtension>
        </extensions>
      </trkpt>
      <trkpt lat="36.77051913924515247344970703125" lon="-118.43440823256969451904296875">
        <ele>3409.60009765625</ele>
        <time>2021-06-25T18:49:07.000Z</time>
        <extensions>
          <ns3:TrackPointExtension>
            <ns3:atemp>24.0</ns3:atemp>
            <ns3:hr>87</ns3:hr>
          </ns3:TrackPointExtension>
        </extensions>
      </trkpt>
      <trkpt lat="36.770522408187389373779296875" lon="-118.43439750373363494873046875">
        <ele>3409.39990234375</ele>
        <time>2021-06-25T18:49:08.000Z</time>
        <extensions>
          <ns3:TrackPointExtension>
            <ns3:atemp>24.0</ns3:atemp>
            <ns3:hr>88</ns3:hr>
          </ns3:TrackPointExtension>
        </extensions>
      </trkpt>
      <trkpt lat="36.7705227434635162353515625" lon="-118.43438400886952877044677734375">
        <ele>3408.60009765625</ele>
        <time>2021-06-25T18:49:10.000Z</time>
        <extensions>
          <ns3:TrackPointExtension>
            <ns3:atemp>24.0</ns3:atemp>
            <ns3:hr>88</ns3:hr>
          </ns3:TrackPointExtension>
        </extensions>
      </trkpt>
      <trkpt lat="36.77052014507353305816650390625" lon="-118.434377051889896392822265625">
        <ele>3408.60009765625</ele>
        <time>2021-06-25T18:49:11.000Z</time>
        <extensions>
          <ns3:TrackPointExtension>
            <ns3:atemp>24.0</ns3:atemp>
            <ns3:hr>87</ns3:hr>
          </ns3:TrackPointExtension>
        </extensions>
      </trkpt>
      <trkpt lat="36.77051813341677188873291015625" lon="-118.434360958635807037353515625">
        <ele>3407.800048828125</ele>
        <time>2021-06-25T18:49:13.000Z</time>
        <extensions>
          <ns3:TrackPointExtension>
            <ns3:atemp>24.0</ns3:atemp>
            <ns3:hr>84</ns3:hr>
          </ns3:TrackPointExtension>
        </extensions>
      </trkpt>
      <trkpt lat="36.77052148617804050445556640625" lon="-118.4343527443706989288330078125">
        <ele>3407.39990234375</ele>
        <time>2021-06-25T18:49:14.000Z</time>
        <extensions>
          <ns3:TrackPointExtension>
            <ns3:atemp>24.0</ns3:atemp>
            <ns3:hr>83</ns3:hr>
          </ns3:TrackPointExtension>
        </extensions>
      </trkpt>
      <trkpt lat="36.7705249227583408355712890625" lon="-118.434348888695240020751953125">
        <ele>3407.39990234375</ele>
        <time>2021-06-25T18:49:15.000Z</time>
        <extensions>
          <ns3:TrackPointExtension>
            <ns3:atemp>24.0</ns3:atemp>
            <ns3:hr>81</ns3:hr>
          </ns3:TrackPointExtension>
        </extensions>
      </trkpt>
      <trkpt lat="36.77053389139473438262939453125" lon="-118.43433371745049953460693359375">
        <ele>3407</ele>
        <time>2021-06-25T18:49:17.000Z</time>
        <extensions>
          <ns3:TrackPointExtension>
            <ns3:atemp>24.0</ns3:atemp>
            <ns3:hr>79</ns3:hr>
          </ns3:TrackPointExtension>
        </extensions>
      </trkpt>
      <trkpt lat="36.77053690887987613677978515625" lon="-118.43432282097637653350830078125">
        <ele>3406.60009765625</ele>
        <time>2021-06-25T18:49:18.000Z</time>
        <extensions>
          <ns3:TrackPointExtension>
            <ns3:atemp>24.0</ns3:atemp>
            <ns3:hr>84</ns3:hr>
          </ns3:TrackPointExtension>
        </extensions>
      </trkpt>
      <trkpt lat="36.7705282755196094512939453125" lon="-118.43430094420909881591796875">
        <ele>3406.199951171875</ele>
        <time>2021-06-25T18:49:21.000Z</time>
        <extensions>
          <ns3:TrackPointExtension>
            <ns3:atemp>24.0</ns3:atemp>
            <ns3:hr>83</ns3:hr>
          </ns3:TrackPointExtension>
        </extensions>
      </trkpt>
      <trkpt lat="36.77052198909223079681396484375" lon="-118.43429650180041790008544921875">
        <ele>3405.60009765625</ele>
        <time>2021-06-25T18:49:22.000Z</time>
        <extensions>
          <ns3:TrackPointExtension>
            <ns3:atemp>24.0</ns3:atemp>
            <ns3:hr>81</ns3:hr>
          </ns3:TrackPointExtension>
        </extensions>
      </trkpt>
      <trkpt lat="36.7705172114074230194091796875" lon="-118.4342917241156101226806640625">
        <ele>3405.39990234375</ele>
        <time>2021-06-25T18:49:23.000Z</time>
        <extensions>
          <ns3:TrackPointExtension>
            <ns3:atemp>24.0</ns3:atemp>
            <ns3:hr>88</ns3:hr>
          </ns3:TrackPointExtension>
        </extensions>
      </trkpt>
      <trkpt lat="36.77051528356969356536865234375" lon="-118.4342895448207855224609375">
        <ele>3404.800048828125</ele>
        <time>2021-06-25T18:49:24.000Z</time>
        <extensions>
          <ns3:TrackPointExtension>
            <ns3:atemp>24.0</ns3:atemp>
            <ns3:hr>86</ns3:hr>
          </ns3:TrackPointExtension>
        </extensions>
      </trkpt>
      <trkpt lat="36.770518720149993896484375" lon="-118.434285856783390045166015625">
        <ele>3404.60009765625</ele>
        <time>2021-06-25T18:49:25.000Z</time>
        <extensions>
          <ns3:TrackPointExtension>
            <ns3:atemp>24.0</ns3:atemp>
            <ns3:hr>87</ns3:hr>
          </ns3:TrackPointExtension>
        </extensions>
      </trkpt>
      <trkpt lat="36.77054059691727161407470703125" lon="-118.43426582403481006622314453125">
        <ele>3404.60009765625</ele>
        <time>2021-06-25T18:49:28.000Z</time>
        <extensions>
          <ns3:TrackPointExtension>
            <ns3:atemp>24.0</ns3:atemp>
            <ns3:hr>87</ns3:hr>
          </ns3:TrackPointExtension>
        </extensions>
      </trkpt>
      <trkpt lat="36.77055023610591888427734375" lon="-118.4342414326965808868408203125">
        <ele>3404.60009765625</ele>
        <time>2021-06-25T18:49:30.000Z</time>
        <extensions>
          <ns3:TrackPointExtension>
            <ns3:atemp>24.0</ns3:atemp>
            <ns3:hr>87</ns3:hr>
          </ns3:TrackPointExtension>
        </extensions>
      </trkpt>
      <trkpt lat="36.77054747007787227630615234375" lon="-118.4342333860695362091064453125">
        <ele>3404.60009765625</ele>
        <time>2021-06-25T18:49:31.000Z</time>
        <extensions>
          <ns3:TrackPointExtension>
            <ns3:atemp>24.0</ns3:atemp>
            <ns3:hr>87</ns3:hr>
          </ns3:TrackPointExtension>
        </extensions>
      </trkpt>
      <trkpt lat="36.7705309577286243438720703125" lon="-118.43421536497771739959716796875">
        <ele>3403.800048828125</ele>
        <time>2021-06-25T18:49:34.000Z</time>
        <extensions>
          <ns3:TrackPointExtension>
            <ns3:atemp>24.0</ns3:atemp>
            <ns3:hr>88</ns3:hr>
          </ns3:TrackPointExtension>
        </extensions>
      </trkpt>
      <trkpt lat="36.770515032112598419189453125" lon="-118.4341944940388202667236328125">
        <ele>3403.60009765625</ele>
        <time>2021-06-25T18:49:36.000Z</time>
        <extensions>
          <ns3:TrackPointExtension>
            <ns3:atemp>24.0</ns3:atemp>
            <ns3:hr>89</ns3:hr>
          </ns3:TrackPointExtension>
        </extensions>
      </trkpt>
      <trkpt lat="36.77050723694264888763427734375" lon="-118.434183597564697265625">
        <ele>3403</ele>
        <time>2021-06-25T18:49:37.000Z</time>
        <extensions>
          <ns3:TrackPointExtension>
            <ns3:atemp>24.0</ns3:atemp>
            <ns3:hr>88</ns3:hr>
          </ns3:TrackPointExtension>
        </extensions>
      </trkpt>
      <trkpt lat="36.77048024721443653106689453125" lon="-118.43416021205484867095947265625">
        <ele>3402.199951171875</ele>
        <time>2021-06-25T18:49:39.000Z</time>
        <extensions>
          <ns3:TrackPointExtension>
            <ns3:atemp>24.0</ns3:atemp>
            <ns3:hr>89</ns3:hr>
          </ns3:TrackPointExtension>
        </extensions>
      </trkpt>
      <trkpt lat="36.7704464681446552276611328125" lon="-118.43413020484149456024169921875">
        <ele>3401.39990234375</ele>
        <time>2021-06-25T18:49:44.000Z</time>
        <extensions>
          <ns3:TrackPointExtension>
            <ns3:atemp>24.0</ns3:atemp>
            <ns3:hr>88</ns3:hr>
          </ns3:TrackPointExtension>
        </extensions>
      </trkpt>
      <trkpt lat="36.77042417228221893310546875" lon="-118.43410640023648738861083984375">
        <ele>3400.800048828125</ele>
        <time>2021-06-25T18:49:47.000Z</time>
        <extensions>
          <ns3:TrackPointExtension>
            <ns3:atemp>24.0</ns3:atemp>
            <ns3:hr>90</ns3:hr>
          </ns3:TrackPointExtension>
        </extensions>
      </trkpt>
      <trkpt lat="36.7704159580171108245849609375" lon="-118.4340798296034336090087890625">
        <ele>3399.800048828125</ele>
        <time>2021-06-25T18:49:51.000Z</time>
        <extensions>
          <ns3:TrackPointExtension>
            <ns3:atemp>24.0</ns3:atemp>
            <ns3:hr>89</ns3:hr>
          </ns3:TrackPointExtension>
        </extensions>
      </trkpt>
      <trkpt lat="36.77039139904081821441650390625" lon="-118.43402258120477199554443359375">
        <ele>3399</ele>
        <time>2021-06-25T18:49:59.000Z</time>
        <extensions>
          <ns3:TrackPointExtension>
            <ns3:atemp>24.0</ns3:atemp>
            <ns3:hr>89</ns3:hr>
          </ns3:TrackPointExtension>
        </extensions>
      </trkpt>
      <trkpt lat="36.770385615527629852294921875" lon="-118.43401906080543994903564453125">
        <ele>3398.39990234375</ele>
        <time>2021-06-25T18:50:00.000Z</time>
        <extensions>
          <ns3:TrackPointExtension>
            <ns3:atemp>24.0</ns3:atemp>
            <ns3:hr>89</ns3:hr>
          </ns3:TrackPointExtension>
        </extensions>
      </trkpt>
      <trkpt lat="36.7703752219676971435546875" lon="-118.43399844132363796234130859375">
        <ele>3397.800048828125</ele>
        <time>2021-06-25T18:50:05.000Z</time>
        <extensions>
          <ns3:TrackPointExtension>
            <ns3:atemp>24.0</ns3:atemp>
            <ns3:hr>88</ns3:hr>
          </ns3:TrackPointExtension>
        </extensions>
      </trkpt>
      <trkpt lat="36.77037815563380718231201171875" lon="-118.43401704914867877960205078125">
        <ele>3397.39990234375</ele>
        <time>2021-06-25T18:50:11.000Z</time>
        <extensions>
          <ns3:TrackPointExtension>
            <ns3:atemp>24.0</ns3:atemp>
            <ns3:hr>90</ns3:hr>
          </ns3:TrackPointExtension>
        </extensions>
      </trkpt>
      <trkpt lat="36.77037815563380718231201171875" lon="-118.43401704914867877960205078125">
        <ele>3397.39990234375</ele>
        <time>2021-06-25T18:50:12.000Z</time>
        <extensions>
          <ns3:TrackPointExtension>
            <ns3:atemp>24.0</ns3:atemp>
            <ns3:hr>91</ns3:hr>
          </ns3:TrackPointExtension>
        </extensions>
      </trkpt>
      <trkpt lat="36.77037815563380718231201171875" lon="-118.43401704914867877960205078125">
        <ele>3397.199951171875</ele>
        <time>2021-06-25T18:50:16.000Z</time>
        <extensions>
          <ns3:TrackPointExtension>
            <ns3:atemp>24.0</ns3:atemp>
            <ns3:hr>94</ns3:hr>
          </ns3:TrackPointExtension>
        </extensions>
      </trkpt>
      <trkpt lat="36.77037815563380718231201171875" lon="-118.43401704914867877960205078125">
        <ele>3397.39990234375</ele>
        <time>2021-06-25T18:50:18.000Z</time>
        <extensions>
          <ns3:TrackPointExtension>
            <ns3:atemp>24.0</ns3:atemp>
            <ns3:hr>93</ns3:hr>
          </ns3:TrackPointExtension>
        </extensions>
      </trkpt>
      <trkpt lat="36.77036675624549388885498046875" lon="-118.43401084654033184051513671875">
        <ele>3396.199951171875</ele>
        <time>2021-06-25T18:50:24.000Z</time>
        <extensions>
          <ns3:TrackPointExtension>
            <ns3:atemp>24.0</ns3:atemp>
            <ns3:hr>94</ns3:hr>
          </ns3:TrackPointExtension>
        </extensions>
      </trkpt>
      <trkpt lat="36.770335994660854339599609375" lon="-118.4339913167059421539306640625">
        <ele>3396</ele>
        <time>2021-06-25T18:50:28.000Z</time>
        <extensions>
          <ns3:TrackPointExtension>
            <ns3:atemp>24.0</ns3:atemp>
            <ns3:hr>93</ns3:hr>
          </ns3:TrackPointExtension>
        </extensions>
      </trkpt>
      <trkpt lat="36.7703076638281345367431640625" lon="-118.4339802525937557220458984375">
        <ele>3395.60009765625</ele>
        <time>2021-06-25T18:50:34.000Z</time>
        <extensions>
          <ns3:TrackPointExtension>
            <ns3:atemp>24.0</ns3:atemp>
            <ns3:hr>90</ns3:hr>
          </ns3:TrackPointExtension>
        </extensions>
      </trkpt>
      <trkpt lat="36.77030774764716625213623046875" lon="-118.4339785762131214141845703125">
        <ele>3395.60009765625</ele>
        <time>2021-06-25T18:50:35.000Z</time>
        <extensions>
          <ns3:TrackPointExtension>
            <ns3:atemp>24.0</ns3:atemp>
            <ns3:hr>90</ns3:hr>
          </ns3:TrackPointExtension>
        </extensions>
      </trkpt>
      <trkpt lat="36.7703224159777164459228515625" lon="-118.4339792467653751373291015625">
        <ele>3395</ele>
        <time>2021-06-25T18:50:38.000Z</time>
        <extensions>
          <ns3:TrackPointExtension>
            <ns3:atemp>24.0</ns3:atemp>
            <ns3:hr>89</ns3:hr>
          </ns3:TrackPointExtension>
        </extensions>
      </trkpt>
      <trkpt lat="36.7703287862241268157958984375" lon="-118.43396340496838092803955078125">
        <ele>3395</ele>
        <time>2021-06-25T18:50:40.000Z</time>
        <extensions>
          <ns3:TrackPointExtension>
            <ns3:atemp>24.0</ns3:atemp>
            <ns3:hr>87</ns3:hr>
          </ns3:TrackPointExtension>
        </extensions>
      </trkpt>
      <trkpt lat="36.77030556835234165191650390625" lon="-118.43394077382981777191162109375">
        <ele>3394</ele>
        <time>2021-06-25T18:50:44.000Z</time>
        <extensions>
          <ns3:TrackPointExtension>
            <ns3:atemp>24.0</ns3:atemp>
            <ns3:hr>85</ns3:hr>
          </ns3:TrackPointExtension>
        </extensions>
      </trkpt>
      <trkpt lat="36.77028662525117397308349609375" lon="-118.43394563533365726470947265625">
        <ele>3393</ele>
        <time>2021-06-25T18:50:47.000Z</time>
        <extensions>
          <ns3:TrackPointExtension>
            <ns3:atemp>24.0</ns3:atemp>
            <ns3:hr>87</ns3:hr>
          </ns3:TrackPointExtension>
        </extensions>
      </trkpt>
      <trkpt lat="36.7702949233353137969970703125" lon="-118.43392350710928440093994140625">
        <ele>3392.39990234375</ele>
        <time>2021-06-25T18:50:50.000Z</time>
        <extensions>
          <ns3:TrackPointExtension>
            <ns3:atemp>24.0</ns3:atemp>
            <ns3:hr>91</ns3:hr>
          </ns3:TrackPointExtension>
        </extensions>
      </trkpt>
      <trkpt lat="36.77030858583748340606689453125" lon="-118.43390825204551219940185546875">
        <ele>3391.800048828125</ele>
        <time>2021-06-25T18:50:52.000Z</time>
        <extensions>
          <ns3:TrackPointExtension>
            <ns3:atemp>24.0</ns3:atemp>
            <ns3:hr>89</ns3:hr>
          </ns3:TrackPointExtension>
        </extensions>
      </trkpt>
      <trkpt lat="36.770309843122959136962890625" lon="-118.43389601446688175201416015625">
        <ele>3391.800048828125</ele>
        <time>2021-06-25T18:50:53.000Z</time>
        <extensions>
          <ns3:TrackPointExtension>
            <ns3:atemp>24.0</ns3:atemp>
            <ns3:hr>85</ns3:hr>
          </ns3:TrackPointExtension>
        </extensions>
      </trkpt>
      <trkpt lat="36.77030892111361026763916015625" lon="-118.433888889849185943603515625">
        <ele>3391.60009765625</ele>
        <time>2021-06-25T18:50:54.000Z</time>
        <extensions>
          <ns3:TrackPointExtension>
            <ns3:atemp>24.0</ns3:atemp>
            <ns3:hr>88</ns3:hr>
          </ns3:TrackPointExtension>
        </extensions>
      </trkpt>
      <trkpt lat="36.7702744714915752410888671875" lon="-118.43386600725352764129638671875">
        <ele>3390.800048828125</ele>
        <time>2021-06-25T18:50:58.000Z</time>
        <extensions>
          <ns3:TrackPointExtension>
            <ns3:atemp>25.0</ns3:atemp>
            <ns3:hr>86</ns3:hr>
          </ns3:TrackPointExtension>
        </extensions>
      </trkpt>
      <trkpt lat="36.77024723030626773834228515625" lon="-118.43384899199008941650390625">
        <ele>3390.60009765625</ele>
        <time>2021-06-25T18:51:03.000Z</time>
        <extensions>
          <ns3:TrackPointExtension>
            <ns3:atemp>25.0</ns3:atemp>
            <ns3:hr>85</ns3:hr>
          </ns3:TrackPointExtension>
        </extensions>
      </trkpt>
      <trkpt lat="36.77024580538272857666015625" lon="-118.43385033309459686279296875">
        <ele>3390.199951171875</ele>
        <time>2021-06-25T18:51:04.000Z</time>
        <extensions>
          <ns3:TrackPointExtension>
            <ns3:atemp>25.0</ns3:atemp>
            <ns3:hr>88</ns3:hr>
          </ns3:TrackPointExtension>
        </extensions>
      </trkpt>
      <trkpt lat="36.77024655975401401519775390625" lon="-118.43385444022715091705322265625">
        <ele>3390.199951171875</ele>
        <time>2021-06-25T18:51:05.000Z</time>
        <extensions>
          <ns3:TrackPointExtension>
            <ns3:atemp>25.0</ns3:atemp>
            <ns3:hr>86</ns3:hr>
          </ns3:TrackPointExtension>
        </extensions>
      </trkpt>
      <trkpt lat="36.7702399380505084991455078125" lon="-118.43384203501045703887939453125">
        <ele>3390.60009765625</ele>
        <time>2021-06-25T18:51:15.000Z</time>
        <extensions>
          <ns3:TrackPointExtension>
            <ns3:atemp>25.0</ns3:atemp>
            <ns3:hr>88</ns3:hr>
          </ns3:TrackPointExtension>
        </extensions>
      </trkpt>
      <trkpt lat="36.77022728137671947479248046875" lon="-118.43383315019309520721435546875">
        <ele>3389.60009765625</ele>
        <time>2021-06-25T18:51:18.000Z</time>
        <extensions>
          <ns3:TrackPointExtension>
            <ns3:atemp>25.0</ns3:atemp>
            <ns3:hr>88</ns3:hr>
          </ns3:TrackPointExtension>
        </extensions>
      </trkpt>
      <trkpt lat="36.77019576542079448699951171875" lon="-118.43380649574100971221923828125">
        <ele>3389</ele>
        <time>2021-06-25T18:51:23.000Z</time>
        <extensions>
          <ns3:TrackPointExtension>
            <ns3:atemp>24.0</ns3:atemp>
            <ns3:hr>85</ns3:hr>
          </ns3:TrackPointExtension>
        </extensions>
      </trkpt>
      <trkpt lat="36.7701913230121135711669921875" lon="-118.4337995387613773345947265625">
        <ele>3388.800048828125</ele>
        <time>2021-06-25T18:51:24.000Z</time>
        <extensions>
          <ns3:TrackPointExtension>
            <ns3:atemp>25.0</ns3:atemp>
            <ns3:hr>89</ns3:hr>
          </ns3:TrackPointExtension>
        </extensions>
      </trkpt>
      <trkpt lat="36.7701775766909122467041015625" lon="-118.43378436751663684844970703125">
        <ele>3388.199951171875</ele>
        <time>2021-06-25T18:51:26.000Z</time>
        <extensions>
          <ns3:TrackPointExtension>
            <ns3:atemp>25.0</ns3:atemp>
            <ns3:hr>87</ns3:hr>
          </ns3:TrackPointExtension>
        </extensions>
      </trkpt>
      <trkpt lat="36.7701634950935840606689453125" lon="-118.433773554861545562744140625">
        <ele>3387.800048828125</ele>
        <time>2021-06-25T18:51:28.000Z</time>
        <extensions>
          <ns3:TrackPointExtension>
            <ns3:atemp>24.0</ns3:atemp>
            <ns3:hr>91</ns3:hr>
          </ns3:TrackPointExtension>
        </extensions>
      </trkpt>
      <trkpt lat="36.77014899440109729766845703125" lon="-118.4337636642158031463623046875">
        <ele>3387.60009765625</ele>
        <time>2021-06-25T18:51:30.000Z</time>
        <extensions>
          <ns3:TrackPointExtension>
            <ns3:atemp>24.0</ns3:atemp>
            <ns3:hr>94</ns3:hr>
          </ns3:TrackPointExtension>
        </extensions>
      </trkpt>
      <trkpt lat="36.770134828984737396240234375" lon="-118.4337452240288257598876953125">
        <ele>3386.199951171875</ele>
        <time>2021-06-25T18:51:33.000Z</time>
        <extensions>
          <ns3:TrackPointExtension>
            <ns3:atemp>24.0</ns3:atemp>
            <ns3:hr>96</ns3:hr>
          </ns3:TrackPointExtension>
        </extensions>
      </trkpt>
      <trkpt lat="36.7701256088912487030029296875" lon="-118.43370708636939525604248046875">
        <ele>3385.199951171875</ele>
        <time>2021-06-25T18:51:37.000Z</time>
        <extensions>
          <ns3:TrackPointExtension>
            <ns3:atemp>24.0</ns3:atemp>
            <ns3:hr>98</ns3:hr>
          </ns3:TrackPointExtension>
        </extensions>
      </trkpt>
      <trkpt lat="36.7701262794435024261474609375" lon="-118.43369618989527225494384765625">
        <ele>3385.199951171875</ele>
        <time>2021-06-25T18:51:38.000Z</time>
        <extensions>
          <ns3:TrackPointExtension>
            <ns3:atemp>24.0</ns3:atemp>
            <ns3:hr>98</ns3:hr>
          </ns3:TrackPointExtension>
        </extensions>
      </trkpt>
      <trkpt lat="36.77007875405251979827880859375" lon="-118.433640785515308380126953125">
        <ele>3384.39990234375</ele>
        <time>2021-06-25T18:51:45.000Z</time>
        <extensions>
          <ns3:TrackPointExtension>
            <ns3:atemp>24.0</ns3:atemp>
            <ns3:hr>98</ns3:hr>
          </ns3:TrackPointExtension>
        </extensions>
      </trkpt>
      <trkpt lat="36.77007816731929779052734375" lon="-118.43363181687891483306884765625">
        <ele>3383.800048828125</ele>
        <time>2021-06-25T18:51:46.000Z</time>
        <extensions>
          <ns3:TrackPointExtension>
            <ns3:atemp>24.0</ns3:atemp>
            <ns3:hr>98</ns3:hr>
          </ns3:TrackPointExtension>
        </extensions>
      </trkpt>
      <trkpt lat="36.77008730359375476837158203125" lon="-118.4335975348949432373046875">
        <ele>3382.199951171875</ele>
        <time>2021-06-25T18:51:51.000Z</time>
        <extensions>
          <ns3:TrackPointExtension>
            <ns3:atemp>24.0</ns3:atemp>
            <ns3:hr>100</ns3:hr>
          </ns3:TrackPointExtension>
        </extensions>
      </trkpt>
      <trkpt lat="36.77009115926921367645263671875" lon="-118.43358772806823253631591796875">
        <ele>3382</ele>
        <time>2021-06-25T18:51:52.000Z</time>
        <extensions>
          <ns3:TrackPointExtension>
            <ns3:atemp>24.0</ns3:atemp>
            <ns3:hr>100</ns3:hr>
          </ns3:TrackPointExtension>
        </extensions>
      </trkpt>
      <trkpt lat="36.7701018042862415313720703125" lon="-118.43357012607157230377197265625">
        <ele>3381.800048828125</ele>
        <time>2021-06-25T18:51:54.000Z</time>
        <extensions>
          <ns3:TrackPointExtension>
            <ns3:atemp>24.0</ns3:atemp>
            <ns3:hr>101</ns3:hr>
          </ns3:TrackPointExtension>
        </extensions>
      </trkpt>
      <trkpt lat="36.7701095156371593475341796875" lon="-118.433541543781757354736328125">
        <ele>3380.800048828125</ele>
        <time>2021-06-25T18:51:57.000Z</time>
        <extensions>
          <ns3:TrackPointExtension>
            <ns3:atemp>24.0</ns3:atemp>
            <ns3:hr>101</ns3:hr>
          </ns3:TrackPointExtension>
        </extensions>
      </trkpt>
      <trkpt lat="36.77010809071362018585205078125" lon="-118.433490581810474395751953125">
        <ele>3379.39990234375</ele>
        <time>2021-06-25T18:52:01.000Z</time>
        <extensions>
          <ns3:TrackPointExtension>
            <ns3:atemp>24.0</ns3:atemp>
            <ns3:hr>101</ns3:hr>
          </ns3:TrackPointExtension>
        </extensions>
      </trkpt>
      <trkpt lat="36.77010473795235157012939453125" lon="-118.43347842805087566375732421875">
        <ele>3379.39990234375</ele>
        <time>2021-06-25T18:52:02.000Z</time>
        <extensions>
          <ns3:TrackPointExtension>
            <ns3:atemp>24.0</ns3:atemp>
            <ns3:hr>101</ns3:hr>
          </ns3:TrackPointExtension>
        </extensions>
      </trkpt>
      <trkpt lat="36.77004556171596050262451171875" lon="-118.4334580600261688232421875">
        <ele>3379</ele>
        <time>2021-06-25T18:52:08.000Z</time>
        <extensions>
          <ns3:TrackPointExtension>
            <ns3:atemp>25.0</ns3:atemp>
            <ns3:hr>102</ns3:hr>
          </ns3:TrackPointExtension>
        </extensions>
      </trkpt>
      <trkpt lat="36.770028881728649139404296875" lon="-118.4334607422351837158203125">
        <ele>3378.39990234375</ele>
        <time>2021-06-25T18:52:10.000Z</time>
        <extensions>
          <ns3:TrackPointExtension>
            <ns3:atemp>25.0</ns3:atemp>
            <ns3:hr>102</ns3:hr>
          </ns3:TrackPointExtension>
        </extensions>
      </trkpt>
      <trkpt lat="36.77002343349158763885498046875" lon="-118.4334446489810943603515625">
        <ele>3377.800048828125</ele>
        <time>2021-06-25T18:52:12.000Z</time>
        <extensions>
          <ns3:TrackPointExtension>
            <ns3:atemp>25.0</ns3:atemp>
            <ns3:hr>102</ns3:hr>
          </ns3:TrackPointExtension>
        </extensions>
      </trkpt>
      <trkpt lat="36.77002209238708019256591796875" lon="-118.43343014828860759735107421875">
        <ele>3377.800048828125</ele>
        <time>2021-06-25T18:52:13.000Z</time>
        <extensions>
          <ns3:TrackPointExtension>
            <ns3:atemp>25.0</ns3:atemp>
            <ns3:hr>102</ns3:hr>
          </ns3:TrackPointExtension>
        </extensions>
      </trkpt>
      <trkpt lat="36.77001136355102062225341796875" lon="-118.43341288156807422637939453125">
        <ele>3377.39990234375</ele>
        <time>2021-06-25T18:52:15.000Z</time>
        <extensions>
          <ns3:TrackPointExtension>
            <ns3:atemp>25.0</ns3:atemp>
            <ns3:hr>102</ns3:hr>
          </ns3:TrackPointExtension>
        </extensions>
      </trkpt>
      <trkpt lat="36.7700055800378322601318359375" lon="-118.43340835534036159515380859375">
        <ele>3377.199951171875</ele>
        <time>2021-06-25T18:52:16.000Z</time>
        <extensions>
          <ns3:TrackPointExtension>
            <ns3:atemp>25.0</ns3:atemp>
            <ns3:hr>103</ns3:hr>
          </ns3:TrackPointExtension>
        </extensions>
      </trkpt>
      <trkpt lat="36.76999233663082122802734375" lon="-118.4333841316401958465576171875">
        <ele>3376.60009765625</ele>
        <time>2021-06-25T18:52:19.000Z</time>
        <extensions>
          <ns3:TrackPointExtension>
            <ns3:atemp>25.0</ns3:atemp>
            <ns3:hr>103</ns3:hr>
          </ns3:TrackPointExtension>
        </extensions>
      </trkpt>
      <trkpt lat="36.76997532136738300323486328125" lon="-118.43333878554403781890869140625">
        <ele>3376</ele>
        <time>2021-06-25T18:52:23.000Z</time>
        <extensions>
          <ns3:TrackPointExtension>
            <ns3:atemp>25.0</ns3:atemp>
            <ns3:hr>104</ns3:hr>
          </ns3:TrackPointExtension>
        </extensions>
      </trkpt>
      <trkpt lat="36.7699462361633777618408203125" lon="-118.4333266317844390869140625">
        <ele>3375.199951171875</ele>
        <time>2021-06-25T18:52:27.000Z</time>
        <extensions>
          <ns3:TrackPointExtension>
            <ns3:atemp>25.0</ns3:atemp>
            <ns3:hr>104</ns3:hr>
          </ns3:TrackPointExtension>
        </extensions>
      </trkpt>
      <trkpt lat="36.7699380218982696533203125" lon="-118.433318920433521270751953125">
        <ele>3375</ele>
        <time>2021-06-25T18:52:29.000Z</time>
        <extensions>
          <ns3:TrackPointExtension>
            <ns3:atemp>25.0</ns3:atemp>
            <ns3:hr>101</ns3:hr>
          </ns3:TrackPointExtension>
        </extensions>
      </trkpt>
      <trkpt lat="36.76993475295603275299072265625" lon="-118.43331011943519115447998046875">
        <ele>3374.60009765625</ele>
        <time>2021-06-25T18:52:30.000Z</time>
        <extensions>
          <ns3:TrackPointExtension>
            <ns3:atemp>25.0</ns3:atemp>
            <ns3:hr>100</ns3:hr>
          </ns3:TrackPointExtension>
        </extensions>
      </trkpt>
      <trkpt lat="36.7699328251183032989501953125" lon="-118.43327365815639495849609375">
        <ele>3373.199951171875</ele>
        <time>2021-06-25T18:52:33.000Z</time>
        <extensions>
          <ns3:TrackPointExtension>
            <ns3:atemp>25.0</ns3:atemp>
            <ns3:hr>98</ns3:hr>
          </ns3:TrackPointExtension>
        </extensions>
      </trkpt>
      <trkpt lat="36.76993072964251041412353515625" lon="-118.43327525071799755096435546875">
        <ele>3373.199951171875</ele>
        <time>2021-06-25T18:52:34.000Z</time>
        <extensions>
          <ns3:TrackPointExtension>
            <ns3:atemp>25.0</ns3:atemp>
            <ns3:hr>98</ns3:hr>
          </ns3:TrackPointExtension>
        </extensions>
      </trkpt>
      <trkpt lat="36.76989845931529998779296875" lon="-118.43324356712400913238525390625">
        <ele>3372.199951171875</ele>
        <time>2021-06-25T18:52:37.000Z</time>
        <extensions>
          <ns3:TrackPointExtension>
            <ns3:atemp>25.0</ns3:atemp>
            <ns3:hr>96</ns3:hr>
          </ns3:TrackPointExtension>
        </extensions>
      </trkpt>
      <trkpt lat="36.7698925919830799102783203125" lon="-118.43323878943920135498046875">
        <ele>3371</ele>
        <time>2021-06-25T18:52:38.000Z</time>
        <extensions>
          <ns3:TrackPointExtension>
            <ns3:atemp>25.0</ns3:atemp>
            <ns3:hr>95</ns3:hr>
          </ns3:TrackPointExtension>
        </extensions>
      </trkpt>
      <trkpt lat="36.76988228224217891693115234375" lon="-118.43323753215372562408447265625">
        <ele>3370.800048828125</ele>
        <time>2021-06-25T18:52:40.000Z</time>
        <extensions>
          <ns3:TrackPointExtension>
            <ns3:atemp>25.0</ns3:atemp>
            <ns3:hr>96</ns3:hr>
          </ns3:TrackPointExtension>
        </extensions>
      </trkpt>
      <trkpt lat="36.76987297832965850830078125" lon="-118.4332470037043094635009765625">
        <ele>3370.800048828125</ele>
        <time>2021-06-25T18:52:41.000Z</time>
        <extensions>
          <ns3:TrackPointExtension>
            <ns3:atemp>25.0</ns3:atemp>
            <ns3:hr>96</ns3:hr>
          </ns3:TrackPointExtension>
        </extensions>
      </trkpt>
      <trkpt lat="36.7698711343109607696533203125" lon="-118.43325228430330753326416015625">
        <ele>3370.60009765625</ele>
        <time>2021-06-25T18:52:45.000Z</time>
        <extensions>
          <ns3:TrackPointExtension>
            <ns3:atemp>25.0</ns3:atemp>
            <ns3:hr>94</ns3:hr>
          </ns3:TrackPointExtension>
        </extensions>
      </trkpt>
      <trkpt lat="36.76984976045787334442138671875" lon="-118.4332409687340259552001953125">
        <ele>3370.39990234375</ele>
        <time>2021-06-25T18:52:51.000Z</time>
        <extensions>
          <ns3:TrackPointExtension>
            <ns3:atemp>25.0</ns3:atemp>
            <ns3:hr>93</ns3:hr>
          </ns3:TrackPointExtension>
        </extensions>
      </trkpt>
      <trkpt lat="36.769840456545352935791015625" lon="-118.43320970423519611358642578125">
        <ele>3369.800048828125</ele>
        <time>2021-06-25T18:52:55.000Z</time>
        <extensions>
          <ns3:TrackPointExtension>
            <ns3:atemp>25.0</ns3:atemp>
            <ns3:hr>94</ns3:hr>
          </ns3:TrackPointExtension>
        </extensions>
      </trkpt>
      <trkpt lat="36.769830398261547088623046875" lon="-118.43317709863185882568359375">
        <ele>3369.39990234375</ele>
        <time>2021-06-25T18:52:58.000Z</time>
        <extensions>
          <ns3:TrackPointExtension>
            <ns3:atemp>25.0</ns3:atemp>
            <ns3:hr>94</ns3:hr>
          </ns3:TrackPointExtension>
        </extensions>
      </trkpt>
      <trkpt lat="36.76981891505420207977294921875" lon="-118.4331055171787738800048828125">
        <ele>3368.60009765625</ele>
        <time>2021-06-25T18:53:04.000Z</time>
        <extensions>
          <ns3:TrackPointExtension>
            <ns3:atemp>25.0</ns3:atemp>
            <ns3:hr>93</ns3:hr>
          </ns3:TrackPointExtension>
        </extensions>
      </trkpt>
      <trkpt lat="36.7698141373693943023681640625" lon="-118.43308112584054470062255859375">
        <ele>3368.60009765625</ele>
        <time>2021-06-25T18:53:06.000Z</time>
        <extensions>
          <ns3:TrackPointExtension>
            <ns3:atemp>25.0</ns3:atemp>
            <ns3:hr>91</ns3:hr>
          </ns3:TrackPointExtension>
        </extensions>
      </trkpt>
      <trkpt lat="36.7697997204959392547607421875" lon="-118.4330455027520656585693359375">
        <ele>3368.39990234375</ele>
        <time>2021-06-25T18:53:10.000Z</time>
        <extensions>
          <ns3:TrackPointExtension>
            <ns3:atemp>25.0</ns3:atemp>
            <ns3:hr>89</ns3:hr>
          </ns3:TrackPointExtension>
        </extensions>
      </trkpt>
      <trkpt lat="36.7697809450328350067138671875" lon="-118.43301658518612384796142578125">
        <ele>3367</ele>
        <time>2021-06-25T18:53:13.000Z</time>
        <extensions>
          <ns3:TrackPointExtension>
            <ns3:atemp>25.0</ns3:atemp>
            <ns3:hr>88</ns3:hr>
          </ns3:TrackPointExtension>
        </extensions>
      </trkpt>
      <trkpt lat="36.76976292394101619720458984375" lon="-118.4329931996762752532958984375">
        <ele>3366.39990234375</ele>
        <time>2021-06-25T18:53:16.000Z</time>
        <extensions>
          <ns3:TrackPointExtension>
            <ns3:atemp>25.0</ns3:atemp>
            <ns3:hr>89</ns3:hr>
          </ns3:TrackPointExtension>
        </extensions>
      </trkpt>
      <trkpt lat="36.76975102163851261138916015625" lon="-118.432980291545391082763671875">
        <ele>3367</ele>
        <time>2021-06-25T18:53:18.000Z</time>
        <extensions>
          <ns3:TrackPointExtension>
            <ns3:atemp>25.0</ns3:atemp>
            <ns3:hr>88</ns3:hr>
          </ns3:TrackPointExtension>
        </extensions>
      </trkpt>
      <trkpt lat="36.7697366885840892791748046875" lon="-118.432938046753406524658203125">
        <ele>3367.39990234375</ele>
        <time>2021-06-25T18:53:22.000Z</time>
        <extensions>
          <ns3:TrackPointExtension>
            <ns3:atemp>24.0</ns3:atemp>
            <ns3:hr>83</ns3:hr>
          </ns3:TrackPointExtension>
        </extensions>
      </trkpt>
      <trkpt lat="36.7697293125092983245849609375" lon="-118.4329288266599178314208984375">
        <ele>3367.39990234375</ele>
        <time>2021-06-25T18:53:23.000Z</time>
        <extensions>
          <ns3:TrackPointExtension>
            <ns3:atemp>24.0</ns3:atemp>
            <ns3:hr>80</ns3:hr>
          </ns3:TrackPointExtension>
        </extensions>
      </trkpt>
      <trkpt lat="36.76972210407257080078125" lon="-118.43292287550866603851318359375">
        <ele>3367.60009765625</ele>
        <time>2021-06-25T18:53:24.000Z</time>
        <extensions>
          <ns3:TrackPointExtension>
            <ns3:atemp>25.0</ns3:atemp>
            <ns3:hr>77</ns3:hr>
          </ns3:TrackPointExtension>
        </extensions>
      </trkpt>
      <trkpt lat="36.76970743574202060699462890625" lon="-118.4328865818679332733154296875">
        <ele>3367.199951171875</ele>
        <time>2021-06-25T18:53:28.000Z</time>
        <extensions>
          <ns3:TrackPointExtension>
            <ns3:atemp>24.0</ns3:atemp>
            <ns3:hr>74</ns3:hr>
          </ns3:TrackPointExtension>
        </extensions>
      </trkpt>
      <trkpt lat="36.76968949846923351287841796875" lon="-118.4328671358525753021240234375">
        <ele>3367.60009765625</ele>
        <time>2021-06-25T18:53:31.000Z</time>
        <extensions>
          <ns3:TrackPointExtension>
            <ns3:atemp>24.0</ns3:atemp>
            <ns3:hr>73</ns3:hr>
          </ns3:TrackPointExtension>
        </extensions>
      </trkpt>
      <trkpt lat="36.76966418512165546417236328125" lon="-118.43282581306993961334228515625">
        <ele>3365.800048828125</ele>
        <time>2021-06-25T18:53:36.000Z</time>
        <extensions>
          <ns3:TrackPointExtension>
            <ns3:atemp>24.0</ns3:atemp>
            <ns3:hr>73</ns3:hr>
          </ns3:TrackPointExtension>
        </extensions>
      </trkpt>
      <trkpt lat="36.76964767277240753173828125" lon="-118.43279094435274600982666015625">
        <ele>3365.39990234375</ele>
        <time>2021-06-25T18:53:40.000Z</time>
        <extensions>
          <ns3:TrackPointExtension>
            <ns3:atemp>24.0</ns3:atemp>
            <ns3:hr>74</ns3:hr>
          </ns3:TrackPointExtension>
        </extensions>
      </trkpt>
      <trkpt lat="36.76957416348159313201904296875" lon="-118.43269522301852703094482421875">
        <ele>3366.39990234375</ele>
        <time>2021-06-25T18:53:51.000Z</time>
        <extensions>
          <ns3:TrackPointExtension>
            <ns3:atemp>24.0</ns3:atemp>
            <ns3:hr>78</ns3:hr>
          </ns3:TrackPointExtension>
        </extensions>
      </trkpt>
      <trkpt lat="36.7695680446922779083251953125" lon="-118.4326867572963237762451171875">
        <ele>3366.199951171875</ele>
        <time>2021-06-25T18:53:52.000Z</time>
        <extensions>
          <ns3:TrackPointExtension>
            <ns3:atemp>24.0</ns3:atemp>
            <ns3:hr>79</ns3:hr>
          </ns3:TrackPointExtension>
        </extensions>
      </trkpt>
      <trkpt lat="36.7695626802742481231689453125" lon="-118.432668149471282958984375">
        <ele>3366</ele>
        <time>2021-06-25T18:53:54.000Z</time>
        <extensions>
          <ns3:TrackPointExtension>
            <ns3:atemp>24.0</ns3:atemp>
            <ns3:hr>81</ns3:hr>
          </ns3:TrackPointExtension>
        </extensions>
      </trkpt>
      <trkpt lat="36.76957500167191028594970703125" lon="-118.43263529241085052490234375">
        <ele>3366</ele>
        <time>2021-06-25T18:53:57.000Z</time>
        <extensions>
          <ns3:TrackPointExtension>
            <ns3:atemp>24.0</ns3:atemp>
            <ns3:hr>84</ns3:hr>
          </ns3:TrackPointExtension>
        </extensions>
      </trkpt>
      <trkpt lat="36.769580952823162078857421875" lon="-118.4326260723173618316650390625">
        <ele>3366</ele>
        <time>2021-06-25T18:53:58.000Z</time>
        <extensions>
          <ns3:TrackPointExtension>
            <ns3:atemp>24.0</ns3:atemp>
            <ns3:hr>84</ns3:hr>
          </ns3:TrackPointExtension>
        </extensions>
      </trkpt>
      <trkpt lat="36.7695952020585536956787109375" lon="-118.43259028159081935882568359375">
        <ele>3365.800048828125</ele>
        <time>2021-06-25T18:54:01.000Z</time>
        <extensions>
          <ns3:TrackPointExtension>
            <ns3:atemp>24.0</ns3:atemp>
            <ns3:hr>84</ns3:hr>
          </ns3:TrackPointExtension>
        </extensions>
      </trkpt>
      <trkpt lat="36.769611127674579620361328125" lon="-118.43254384584724903106689453125">
        <ele>3364.800048828125</ele>
        <time>2021-06-25T18:54:05.000Z</time>
        <extensions>
          <ns3:TrackPointExtension>
            <ns3:atemp>24.0</ns3:atemp>
            <ns3:hr>87</ns3:hr>
          </ns3:TrackPointExtension>
        </extensions>
      </trkpt>
      <trkpt lat="36.76961305551230907440185546875" lon="-118.43253328464925289154052734375">
        <ele>3364.800048828125</ele>
        <time>2021-06-25T18:54:06.000Z</time>
        <extensions>
          <ns3:TrackPointExtension>
            <ns3:atemp>24.0</ns3:atemp>
            <ns3:hr>87</ns3:hr>
          </ns3:TrackPointExtension>
        </extensions>
      </trkpt>
      <trkpt lat="36.76964440383017063140869140625" lon="-118.43246639706194400787353515625">
        <ele>3366.39990234375</ele>
        <time>2021-06-25T18:54:13.000Z</time>
        <extensions>
          <ns3:TrackPointExtension>
            <ns3:atemp>24.0</ns3:atemp>
            <ns3:hr>90</ns3:hr>
          </ns3:TrackPointExtension>
        </extensions>
      </trkpt>
      <trkpt lat="36.7696605809032917022705078125" lon="-118.432451896369457244873046875">
        <ele>3366.39990234375</ele>
        <time>2021-06-25T18:54:15.000Z</time>
        <extensions>
          <ns3:TrackPointExtension>
            <ns3:atemp>24.0</ns3:atemp>
            <ns3:hr>90</ns3:hr>
          </ns3:TrackPointExtension>
        </extensions>
      </trkpt>
      <trkpt lat="36.76968430168926715850830078125" lon="-118.4324128367006778717041015625">
        <ele>3366.60009765625</ele>
        <time>2021-06-25T18:54:19.000Z</time>
        <extensions>
          <ns3:TrackPointExtension>
            <ns3:atemp>24.0</ns3:atemp>
            <ns3:hr>93</ns3:hr>
          </ns3:TrackPointExtension>
        </extensions>
      </trkpt>
      <trkpt lat="36.7696860618889331817626953125" lon="-118.43239766545593738555908203125">
        <ele>3366.39990234375</ele>
        <time>2021-06-25T18:54:20.000Z</time>
        <extensions>
          <ns3:TrackPointExtension>
            <ns3:atemp>24.0</ns3:atemp>
            <ns3:hr>93</ns3:hr>
          </ns3:TrackPointExtension>
        </extensions>
      </trkpt>
      <trkpt lat="36.7696733213961124420166015625" lon="-118.4323658980429172515869140625">
        <ele>3366.199951171875</ele>
        <time>2021-06-25T18:54:23.000Z</time>
        <extensions>
          <ns3:TrackPointExtension>
            <ns3:atemp>24.0</ns3:atemp>
            <ns3:hr>96</ns3:hr>
          </ns3:TrackPointExtension>
        </extensions>
      </trkpt>
      <trkpt lat="36.76968027837574481964111328125" lon="-118.4323437698185443878173828125">
        <ele>3366.39990234375</ele>
        <time>2021-06-25T18:54:25.000Z</time>
        <extensions>
          <ns3:TrackPointExtension>
            <ns3:atemp>24.0</ns3:atemp>
            <ns3:hr>96</ns3:hr>
          </ns3:TrackPointExtension>
        </extensions>
      </trkpt>
      <trkpt lat="36.76968446932733058929443359375" lon="-118.43233580701053142547607421875">
        <ele>3366.39990234375</ele>
        <time>2021-06-25T18:54:26.000Z</time>
        <extensions>
          <ns3:TrackPointExtension>
            <ns3:atemp>24.0</ns3:atemp>
            <ns3:hr>100</ns3:hr>
          </ns3:TrackPointExtension>
        </extensions>
      </trkpt>
      <trkpt lat="36.76968899555504322052001953125" lon="-118.43232491053640842437744140625">
        <ele>3366.39990234375</ele>
        <time>2021-06-25T18:54:27.000Z</time>
        <extensions>
          <ns3:TrackPointExtension>
            <ns3:atemp>24.0</ns3:atemp>
            <ns3:hr>97</ns3:hr>
          </ns3:TrackPointExtension>
        </extensions>
      </trkpt>
      <trkpt lat="36.76970131695270538330078125" lon="-118.43230362050235271453857421875">
        <ele>3366</ele>
        <time>2021-06-25T18:54:29.000Z</time>
        <extensions>
          <ns3:TrackPointExtension>
            <ns3:atemp>24.0</ns3:atemp>
            <ns3:hr>100</ns3:hr>
          </ns3:TrackPointExtension>
        </extensions>
      </trkpt>
      <trkpt lat="36.7697286419570446014404296875" lon="-118.4322683326900005340576171875">
        <ele>3365.800048828125</ele>
        <time>2021-06-25T18:54:33.000Z</time>
        <extensions>
          <ns3:TrackPointExtension>
            <ns3:atemp>24.0</ns3:atemp>
            <ns3:hr>103</ns3:hr>
          </ns3:TrackPointExtension>
        </extensions>
      </trkpt>
      <trkpt lat="36.76975856535136699676513671875" lon="-118.43222348950803279876708984375">
        <ele>3365.39990234375</ele>
        <time>2021-06-25T18:54:37.000Z</time>
        <extensions>
          <ns3:TrackPointExtension>
            <ns3:atemp>24.0</ns3:atemp>
            <ns3:hr>101</ns3:hr>
          </ns3:TrackPointExtension>
        </extensions>
      </trkpt>
      <trkpt lat="36.76978052593767642974853515625" lon="-118.432196080684661865234375">
        <ele>3365.39990234375</ele>
        <time>2021-06-25T18:54:40.000Z</time>
        <extensions>
          <ns3:TrackPointExtension>
            <ns3:atemp>24.0</ns3:atemp>
            <ns3:hr>100</ns3:hr>
          </ns3:TrackPointExtension>
        </extensions>
      </trkpt>
      <trkpt lat="36.76979653537273406982421875" lon="-118.432182334363460540771484375">
        <ele>3365.60009765625</ele>
        <time>2021-06-25T18:54:42.000Z</time>
        <extensions>
          <ns3:TrackPointExtension>
            <ns3:atemp>24.0</ns3:atemp>
            <ns3:hr>96</ns3:hr>
          </ns3:TrackPointExtension>
        </extensions>
      </trkpt>
      <trkpt lat="36.76980315707623958587646484375" lon="-118.43217001296579837799072265625">
        <ele>3365.199951171875</ele>
        <time>2021-06-25T18:54:44.000Z</time>
        <extensions>
          <ns3:TrackPointExtension>
            <ns3:atemp>24.0</ns3:atemp>
            <ns3:hr>94</ns3:hr>
          </ns3:TrackPointExtension>
        </extensions>
      </trkpt>
      <trkpt lat="36.7698164843022823333740234375" lon="-118.43214822001755237579345703125">
        <ele>3365</ele>
        <time>2021-06-25T18:54:46.000Z</time>
        <extensions>
          <ns3:TrackPointExtension>
            <ns3:atemp>24.0</ns3:atemp>
            <ns3:hr>92</ns3:hr>
          </ns3:TrackPointExtension>
        </extensions>
      </trkpt>
      <trkpt lat="36.7698441445827484130859375" lon="-118.4320847690105438232421875">
        <ele>3364.39990234375</ele>
        <time>2021-06-25T18:54:52.000Z</time>
        <extensions>
          <ns3:TrackPointExtension>
            <ns3:atemp>24.0</ns3:atemp>
            <ns3:hr>90</ns3:hr>
          </ns3:TrackPointExtension>
        </extensions>
      </trkpt>
      <trkpt lat="36.76988504827022552490234375" lon="-118.432028777897357940673828125">
        <ele>3363.800048828125</ele>
        <time>2021-06-25T18:54:58.000Z</time>
        <extensions>
          <ns3:TrackPointExtension>
            <ns3:atemp>24.0</ns3:atemp>
            <ns3:hr>90</ns3:hr>
          </ns3:TrackPointExtension>
        </extensions>
      </trkpt>
      <trkpt lat="36.7699009738862514495849609375" lon="-118.431993238627910614013671875">
        <ele>3364</ele>
        <time>2021-06-25T18:55:01.000Z</time>
        <extensions>
          <ns3:TrackPointExtension>
            <ns3:atemp>24.0</ns3:atemp>
            <ns3:hr>91</ns3:hr>
          </ns3:TrackPointExtension>
        </extensions>
      </trkpt>
      <trkpt lat="36.76995470188558101654052734375" lon="-118.4318877942860126495361328125">
        <ele>3364.199951171875</ele>
        <time>2021-06-25T18:55:10.000Z</time>
        <extensions>
          <ns3:TrackPointExtension>
            <ns3:atemp>24.0</ns3:atemp>
            <ns3:hr>92</ns3:hr>
          </ns3:TrackPointExtension>
        </extensions>
      </trkpt>
      <trkpt lat="36.7699621617794036865234375" lon="-118.43184948898851871490478515625">
        <ele>3364.199951171875</ele>
        <time>2021-06-25T18:55:13.000Z</time>
        <extensions>
          <ns3:TrackPointExtension>
            <ns3:atemp>24.0</ns3:atemp>
            <ns3:hr>92</ns3:hr>
          </ns3:TrackPointExtension>
        </extensions>
      </trkpt>
      <trkpt lat="36.76995612680912017822265625" lon="-118.4317627362906932830810546875">
        <ele>3363.60009765625</ele>
        <time>2021-06-25T18:55:19.000Z</time>
        <extensions>
          <ns3:TrackPointExtension>
            <ns3:atemp>24.0</ns3:atemp>
            <ns3:hr>93</ns3:hr>
          </ns3:TrackPointExtension>
        </extensions>
      </trkpt>
      <trkpt lat="36.76995503716170787811279296875" lon="-118.431749828159809112548828125">
        <ele>3363.39990234375</ele>
        <time>2021-06-25T18:55:20.000Z</time>
        <extensions>
          <ns3:TrackPointExtension>
            <ns3:atemp>24.0</ns3:atemp>
            <ns3:hr>90</ns3:hr>
          </ns3:TrackPointExtension>
        </extensions>
      </trkpt>
      <trkpt lat="36.769944392144680023193359375" lon="-118.431708253920078277587890625">
        <ele>3363.39990234375</ele>
        <time>2021-06-25T18:55:23.000Z</time>
        <extensions>
          <ns3:TrackPointExtension>
            <ns3:atemp>24.0</ns3:atemp>
            <ns3:hr>90</ns3:hr>
          </ns3:TrackPointExtension>
        </extensions>
      </trkpt>
      <trkpt lat="36.7699402011930942535400390625" lon="-118.43167883343994617462158203125">
        <ele>3363.199951171875</ele>
        <time>2021-06-25T18:55:26.000Z</time>
        <extensions>
          <ns3:TrackPointExtension>
            <ns3:atemp>24.0</ns3:atemp>
            <ns3:hr>87</ns3:hr>
          </ns3:TrackPointExtension>
        </extensions>
      </trkpt>
      <trkpt lat="36.76994011737406253814697265625" lon="-118.431643880903720855712890625">
        <ele>3362.800048828125</ele>
        <time>2021-06-25T18:55:29.000Z</time>
        <extensions>
          <ns3:TrackPointExtension>
            <ns3:atemp>24.0</ns3:atemp>
            <ns3:hr>86</ns3:hr>
          </ns3:TrackPointExtension>
        </extensions>
      </trkpt>
      <trkpt lat="36.76994095556437969207763671875" lon="-118.43163206242024898529052734375">
        <ele>3362.39990234375</ele>
        <time>2021-06-25T18:55:30.000Z</time>
        <extensions>
          <ns3:TrackPointExtension>
            <ns3:atemp>24.0</ns3:atemp>
            <ns3:hr>90</ns3:hr>
          </ns3:TrackPointExtension>
        </extensions>
      </trkpt>
      <trkpt lat="36.769948415458202362060546875" lon="-118.4315779991447925567626953125">
        <ele>3361.800048828125</ele>
        <time>2021-06-25T18:55:35.000Z</time>
        <extensions>
          <ns3:TrackPointExtension>
            <ns3:atemp>24.0</ns3:atemp>
            <ns3:hr>90</ns3:hr>
          </ns3:TrackPointExtension>
        </extensions>
      </trkpt>
      <trkpt lat="36.769946403801441192626953125" lon="-118.43156299553811550140380859375">
        <ele>3361.800048828125</ele>
        <time>2021-06-25T18:55:36.000Z</time>
        <extensions>
          <ns3:TrackPointExtension>
            <ns3:atemp>24.0</ns3:atemp>
            <ns3:hr>91</ns3:hr>
          </ns3:TrackPointExtension>
        </extensions>
      </trkpt>
      <trkpt lat="36.769943051040172576904296875" lon="-118.43153801746666431427001953125">
        <ele>3361.60009765625</ele>
        <time>2021-06-25T18:55:38.000Z</time>
        <extensions>
          <ns3:TrackPointExtension>
            <ns3:atemp>24.0</ns3:atemp>
            <ns3:hr>91</ns3:hr>
          </ns3:TrackPointExtension>
        </extensions>
      </trkpt>
      <trkpt lat="36.769926287233829498291015625" lon="-118.43149376101791858673095703125">
        <ele>3361</ele>
        <time>2021-06-25T18:55:42.000Z</time>
        <extensions>
          <ns3:TrackPointExtension>
            <ns3:atemp>24.0</ns3:atemp>
            <ns3:hr>88</ns3:hr>
          </ns3:TrackPointExtension>
        </extensions>
      </trkpt>
      <trkpt lat="36.7699083499610424041748046875" lon="-118.4314589761197566986083984375">
        <ele>3360.60009765625</ele>
        <time>2021-06-25T18:55:45.000Z</time>
        <extensions>
          <ns3:TrackPointExtension>
            <ns3:atemp>24.0</ns3:atemp>
            <ns3:hr>88</ns3:hr>
          </ns3:TrackPointExtension>
        </extensions>
      </trkpt>
      <trkpt lat="36.76990340463817119598388671875" lon="-118.43139602802693843841552734375">
        <ele>3360.39990234375</ele>
        <time>2021-06-25T18:55:50.000Z</time>
        <extensions>
          <ns3:TrackPointExtension>
            <ns3:atemp>24.0</ns3:atemp>
            <ns3:hr>89</ns3:hr>
          </ns3:TrackPointExtension>
        </extensions>
      </trkpt>
      <trkpt lat="36.76986535079777240753173828125" lon="-118.43130885623395442962646484375">
        <ele>3359.800048828125</ele>
        <time>2021-06-25T18:55:58.000Z</time>
        <extensions>
          <ns3:TrackPointExtension>
            <ns3:atemp>24.0</ns3:atemp>
            <ns3:hr>90</ns3:hr>
          </ns3:TrackPointExtension>
        </extensions>
      </trkpt>
      <trkpt lat="36.76983433775603771209716796875" lon="-118.43128756619989871978759765625">
        <ele>3359.39990234375</ele>
        <time>2021-06-25T18:56:01.000Z</time>
        <extensions>
          <ns3:TrackPointExtension>
            <ns3:atemp>24.0</ns3:atemp>
            <ns3:hr>90</ns3:hr>
          </ns3:TrackPointExtension>
        </extensions>
      </trkpt>
      <trkpt lat="36.769794858992099761962890625" lon="-118.431246913969516754150390625">
        <ele>3358.199951171875</ele>
        <time>2021-06-25T18:56:07.000Z</time>
        <extensions>
          <ns3:TrackPointExtension>
            <ns3:atemp>25.0</ns3:atemp>
            <ns3:hr>89</ns3:hr>
          </ns3:TrackPointExtension>
        </extensions>
      </trkpt>
      <trkpt lat="36.76973174326121807098388671875" lon="-118.43120072968304157257080078125">
        <ele>3357.800048828125</ele>
        <time>2021-06-25T18:56:14.000Z</time>
        <extensions>
          <ns3:TrackPointExtension>
            <ns3:atemp>25.0</ns3:atemp>
            <ns3:hr>89</ns3:hr>
          </ns3:TrackPointExtension>
        </extensions>
      </trkpt>
      <trkpt lat="36.7696629278361797332763671875" lon="-118.43115127645432949066162109375">
        <ele>3357.60009765625</ele>
        <time>2021-06-25T18:56:22.000Z</time>
        <extensions>
          <ns3:TrackPointExtension>
            <ns3:atemp>25.0</ns3:atemp>
            <ns3:hr>88</ns3:hr>
          </ns3:TrackPointExtension>
        </extensions>
      </trkpt>
      <trkpt lat="36.76963401027023792266845703125" lon="-118.43111691065132617950439453125">
        <ele>3357.199951171875</ele>
        <time>2021-06-25T18:56:26.000Z</time>
        <extensions>
          <ns3:TrackPointExtension>
            <ns3:atemp>25.0</ns3:atemp>
            <ns3:hr>90</ns3:hr>
          </ns3:TrackPointExtension>
        </extensions>
      </trkpt>
      <trkpt lat="36.7696092836558818817138671875" lon="-118.43108489178121089935302734375">
        <ele>3357</ele>
        <time>2021-06-25T18:56:30.000Z</time>
        <extensions>
          <ns3:TrackPointExtension>
            <ns3:atemp>25.0</ns3:atemp>
            <ns3:hr>92</ns3:hr>
          </ns3:TrackPointExtension>
        </extensions>
      </trkpt>
      <trkpt lat="36.7696076072752475738525390625" lon="-118.4310781024396419525146484375">
        <ele>3357</ele>
        <time>2021-06-25T18:56:31.000Z</time>
        <extensions>
          <ns3:TrackPointExtension>
            <ns3:atemp>25.0</ns3:atemp>
            <ns3:hr>92</ns3:hr>
          </ns3:TrackPointExtension>
        </extensions>
      </trkpt>
      <trkpt lat="36.769571565091609954833984375" lon="-118.4310118854045867919921875">
        <ele>3356.60009765625</ele>
        <time>2021-06-25T18:56:37.000Z</time>
        <extensions>
          <ns3:TrackPointExtension>
            <ns3:atemp>25.0</ns3:atemp>
            <ns3:hr>95</ns3:hr>
          </ns3:TrackPointExtension>
        </extensions>
      </trkpt>
      <trkpt lat="36.7695599980652332305908203125" lon="-118.430992774665355682373046875">
        <ele>3356</ele>
        <time>2021-06-25T18:56:39.000Z</time>
        <extensions>
          <ns3:TrackPointExtension>
            <ns3:atemp>25.0</ns3:atemp>
            <ns3:hr>93</ns3:hr>
          </ns3:TrackPointExtension>
        </extensions>
      </trkpt>
      <trkpt lat="36.76955739967525005340576171875" lon="-118.43097902834415435791015625">
        <ele>3355.60009765625</ele>
        <time>2021-06-25T18:56:40.000Z</time>
        <extensions>
          <ns3:TrackPointExtension>
            <ns3:atemp>25.0</ns3:atemp>
            <ns3:hr>93</ns3:hr>
          </ns3:TrackPointExtension>
        </extensions>
      </trkpt>
      <trkpt lat="36.76953292451798915863037109375" lon="-118.4309175051748752593994140625">
        <ele>3355.199951171875</ele>
        <time>2021-06-25T18:56:45.000Z</time>
        <extensions>
          <ns3:TrackPointExtension>
            <ns3:atemp>25.0</ns3:atemp>
            <ns3:hr>96</ns3:hr>
          </ns3:TrackPointExtension>
        </extensions>
      </trkpt>
      <trkpt lat="36.76952655427157878875732421875" lon="-118.43089479021728038787841796875">
        <ele>3354.800048828125</ele>
        <time>2021-06-25T18:56:47.000Z</time>
        <extensions>
          <ns3:TrackPointExtension>
            <ns3:atemp>25.0</ns3:atemp>
            <ns3:hr>95</ns3:hr>
          </ns3:TrackPointExtension>
        </extensions>
      </trkpt>
      <trkpt lat="36.7695036716759204864501953125" lon="-118.4308521263301372528076171875">
        <ele>3354.60009765625</ele>
        <time>2021-06-25T18:56:51.000Z</time>
        <extensions>
          <ns3:TrackPointExtension>
            <ns3:atemp>25.0</ns3:atemp>
            <ns3:hr>93</ns3:hr>
          </ns3:TrackPointExtension>
        </extensions>
      </trkpt>
      <trkpt lat="36.76945346407592296600341796875" lon="-118.43082211911678314208984375">
        <ele>3353.39990234375</ele>
        <time>2021-06-25T18:56:57.000Z</time>
        <extensions>
          <ns3:TrackPointExtension>
            <ns3:atemp>25.0</ns3:atemp>
            <ns3:hr>91</ns3:hr>
          </ns3:TrackPointExtension>
        </extensions>
      </trkpt>
      <trkpt lat="36.76943988539278507232666015625" lon="-118.430807702243328094482421875">
        <ele>3353.39990234375</ele>
        <time>2021-06-25T18:56:59.000Z</time>
        <extensions>
          <ns3:TrackPointExtension>
            <ns3:atemp>25.0</ns3:atemp>
            <ns3:hr>90</ns3:hr>
          </ns3:TrackPointExtension>
        </extensions>
      </trkpt>
      <trkpt lat="36.76942261867225170135498046875" lon="-118.43078884296119213104248046875">
        <ele>3352.60009765625</ele>
        <time>2021-06-25T18:57:03.000Z</time>
        <extensions>
          <ns3:TrackPointExtension>
            <ns3:atemp>25.0</ns3:atemp>
            <ns3:hr>88</ns3:hr>
          </ns3:TrackPointExtension>
        </extensions>
      </trkpt>
      <trkpt lat="36.76942178048193454742431640625" lon="-118.43077518045902252197265625">
        <ele>3352.60009765625</ele>
        <time>2021-06-25T18:57:05.000Z</time>
        <extensions>
          <ns3:TrackPointExtension>
            <ns3:atemp>25.0</ns3:atemp>
            <ns3:hr>89</ns3:hr>
          </ns3:TrackPointExtension>
        </extensions>
      </trkpt>
      <trkpt lat="36.7694201879203319549560546875" lon="-118.4307673014700412750244140625">
        <ele>3352.60009765625</ele>
        <time>2021-06-25T18:57:06.000Z</time>
        <extensions>
          <ns3:TrackPointExtension>
            <ns3:atemp>25.0</ns3:atemp>
            <ns3:hr>89</ns3:hr>
          </ns3:TrackPointExtension>
        </extensions>
      </trkpt>
      <trkpt lat="36.7694164998829364776611328125" lon="-118.43074961565434932708740234375">
        <ele>3352.60009765625</ele>
        <time>2021-06-25T18:57:08.000Z</time>
        <extensions>
          <ns3:TrackPointExtension>
            <ns3:atemp>25.0</ns3:atemp>
            <ns3:hr>90</ns3:hr>
          </ns3:TrackPointExtension>
        </extensions>
      </trkpt>
      <trkpt lat="36.769413650035858154296875" lon="-118.430731929838657379150390625">
        <ele>3352.60009765625</ele>
        <time>2021-06-25T18:57:10.000Z</time>
        <extensions>
          <ns3:TrackPointExtension>
            <ns3:atemp>25.0</ns3:atemp>
            <ns3:hr>92</ns3:hr>
          </ns3:TrackPointExtension>
        </extensions>
      </trkpt>
      <trkpt lat="36.769411973655223846435546875" lon="-118.43072312884032726287841796875">
        <ele>3352.60009765625</ele>
        <time>2021-06-25T18:57:11.000Z</time>
        <extensions>
          <ns3:TrackPointExtension>
            <ns3:atemp>25.0</ns3:atemp>
            <ns3:hr>92</ns3:hr>
          </ns3:TrackPointExtension>
        </extensions>
      </trkpt>
      <trkpt lat="36.76940786652266979217529296875" lon="-118.43070250935852527618408203125">
        <ele>3352.60009765625</ele>
        <time>2021-06-25T18:57:13.000Z</time>
        <extensions>
          <ns3:TrackPointExtension>
            <ns3:atemp>25.0</ns3:atemp>
            <ns3:hr>92</ns3:hr>
          </ns3:TrackPointExtension>
        </extensions>
      </trkpt>
      <trkpt lat="36.7694042623043060302734375" lon="-118.4306908585131168365478515625">
        <ele>3352.60009765625</ele>
        <time>2021-06-25T18:57:14.000Z</time>
        <extensions>
          <ns3:TrackPointExtension>
            <ns3:atemp>25.0</ns3:atemp>
            <ns3:hr>93</ns3:hr>
          </ns3:TrackPointExtension>
        </extensions>
      </trkpt>
      <trkpt lat="36.769404597580432891845703125" lon="-118.43059857375919818878173828125">
        <ele>3352.800048828125</ele>
        <time>2021-06-25T18:57:24.000Z</time>
        <extensions>
          <ns3:TrackPointExtension>
            <ns3:atemp>25.0</ns3:atemp>
            <ns3:hr>93</ns3:hr>
          </ns3:TrackPointExtension>
        </extensions>
      </trkpt>
      <trkpt lat="36.7694123089313507080078125" lon="-118.4305463545024394989013671875">
        <ele>3352.800048828125</ele>
        <time>2021-06-25T18:57:31.000Z</time>
        <extensions>
          <ns3:TrackPointExtension>
            <ns3:atemp>25.0</ns3:atemp>
            <ns3:hr>96</ns3:hr>
          </ns3:TrackPointExtension>
        </extensions>
      </trkpt>
      <trkpt lat="36.7694141529500484466552734375" lon="-118.4305336140096187591552734375">
        <ele>3353</ele>
        <time>2021-06-25T18:57:33.000Z</time>
        <extensions>
          <ns3:TrackPointExtension>
            <ns3:atemp>25.0</ns3:atemp>
            <ns3:hr>97</ns3:hr>
          </ns3:TrackPointExtension>
        </extensions>
      </trkpt>
      <trkpt lat="36.76942580379545688629150390625" lon="-118.43047854490578174591064453125">
        <ele>3353.39990234375</ele>
        <time>2021-06-25T18:57:38.000Z</time>
        <extensions>
          <ns3:TrackPointExtension>
            <ns3:atemp>26.0</ns3:atemp>
            <ns3:hr>98</ns3:hr>
          </ns3:TrackPointExtension>
        </extensions>
      </trkpt>
      <trkpt lat="36.76941893063485622406005859375" lon="-118.430455662310123443603515625">
        <ele>3353.39990234375</ele>
        <time>2021-06-25T18:57:40.000Z</time>
        <extensions>
          <ns3:TrackPointExtension>
            <ns3:atemp>26.0</ns3:atemp>
            <ns3:hr>99</ns3:hr>
          </ns3:TrackPointExtension>
        </extensions>
      </trkpt>
      <trkpt lat="36.76942295394837856292724609375" lon="-118.4304377250373363494873046875">
        <ele>3353.199951171875</ele>
        <time>2021-06-25T18:57:42.000Z</time>
        <extensions>
          <ns3:TrackPointExtension>
            <ns3:atemp>26.0</ns3:atemp>
            <ns3:hr>99</ns3:hr>
          </ns3:TrackPointExtension>
        </extensions>
      </trkpt>
      <trkpt lat="36.76942613907158374786376953125" lon="-118.4304189495742321014404296875">
        <ele>3353</ele>
        <time>2021-06-25T18:57:44.000Z</time>
        <extensions>
          <ns3:TrackPointExtension>
            <ns3:atemp>26.0</ns3:atemp>
            <ns3:hr>100</ns3:hr>
          </ns3:TrackPointExtension>
        </extensions>
      </trkpt>
      <trkpt lat="36.76942865364253520965576171875" lon="-118.4303857572376728057861328125">
        <ele>3353</ele>
        <time>2021-06-25T18:57:47.000Z</time>
        <extensions>
          <ns3:TrackPointExtension>
            <ns3:atemp>26.0</ns3:atemp>
            <ns3:hr>100</ns3:hr>
          </ns3:TrackPointExtension>
        </extensions>
      </trkpt>
      <trkpt lat="36.76942362450063228607177734375" lon="-118.43033127486705780029296875">
        <ele>3352.39990234375</ele>
        <time>2021-06-25T18:57:52.000Z</time>
        <extensions>
          <ns3:TrackPointExtension>
            <ns3:atemp>26.0</ns3:atemp>
            <ns3:hr>99</ns3:hr>
          </ns3:TrackPointExtension>
        </extensions>
      </trkpt>
      <trkpt lat="36.76942446269094944000244140625" lon="-118.43031727708876132965087890625">
        <ele>3352.39990234375</ele>
        <time>2021-06-25T18:57:53.000Z</time>
        <extensions>
          <ns3:TrackPointExtension>
            <ns3:atemp>26.0</ns3:atemp>
            <ns3:hr>98</ns3:hr>
          </ns3:TrackPointExtension>
        </extensions>
      </trkpt>
      <trkpt lat="36.76942714489996433258056640625" lon="-118.4302969090640544891357421875">
        <ele>3352.39990234375</ele>
        <time>2021-06-25T18:57:55.000Z</time>
        <extensions>
          <ns3:TrackPointExtension>
            <ns3:atemp>26.0</ns3:atemp>
            <ns3:hr>95</ns3:hr>
          </ns3:TrackPointExtension>
        </extensions>
      </trkpt>
      <trkpt lat="36.769416667520999908447265625" lon="-118.43024904839694499969482421875">
        <ele>3352.60009765625</ele>
        <time>2021-06-25T18:57:59.000Z</time>
        <extensions>
          <ns3:TrackPointExtension>
            <ns3:atemp>26.0</ns3:atemp>
            <ns3:hr>92</ns3:hr>
          </ns3:TrackPointExtension>
        </extensions>
      </trkpt>
      <trkpt lat="36.76941390149295330047607421875" lon="-118.430241085588932037353515625">
        <ele>3352.800048828125</ele>
        <time>2021-06-25T18:58:00.000Z</time>
        <extensions>
          <ns3:TrackPointExtension>
            <ns3:atemp>26.0</ns3:atemp>
            <ns3:hr>95</ns3:hr>
          </ns3:TrackPointExtension>
        </extensions>
      </trkpt>
      <trkpt lat="36.76941297948360443115234375" lon="-118.43023446388542652130126953125">
        <ele>3352.60009765625</ele>
        <time>2021-06-25T18:58:01.000Z</time>
        <extensions>
          <ns3:TrackPointExtension>
            <ns3:atemp>26.0</ns3:atemp>
            <ns3:hr>95</ns3:hr>
          </ns3:TrackPointExtension>
        </extensions>
      </trkpt>
      <trkpt lat="36.76943150348961353302001953125" lon="-118.4301755391061305999755859375">
        <ele>3352.800048828125</ele>
        <time>2021-06-25T18:58:08.000Z</time>
        <extensions>
          <ns3:TrackPointExtension>
            <ns3:atemp>26.0</ns3:atemp>
            <ns3:hr>94</ns3:hr>
          </ns3:TrackPointExtension>
        </extensions>
      </trkpt>
      <trkpt lat="36.769438125193119049072265625" lon="-118.43007436953485012054443359375">
        <ele>3352.60009765625</ele>
        <time>2021-06-25T18:58:18.000Z</time>
        <extensions>
          <ns3:TrackPointExtension>
            <ns3:atemp>26.0</ns3:atemp>
            <ns3:hr>97</ns3:hr>
          </ns3:TrackPointExtension>
        </extensions>
      </trkpt>
      <trkpt lat="36.769437454640865325927734375" lon="-118.43006431125104427337646484375">
        <ele>3352.60009765625</ele>
        <time>2021-06-25T18:58:19.000Z</time>
        <extensions>
          <ns3:TrackPointExtension>
            <ns3:atemp>26.0</ns3:atemp>
            <ns3:hr>100</ns3:hr>
          </ns3:TrackPointExtension>
        </extensions>
      </trkpt>
      <trkpt lat="36.769442148506641387939453125" lon="-118.43003950081765651702880859375">
        <ele>3352.60009765625</ele>
        <time>2021-06-25T18:58:21.000Z</time>
        <extensions>
          <ns3:TrackPointExtension>
            <ns3:atemp>26.0</ns3:atemp>
            <ns3:hr>103</ns3:hr>
          </ns3:TrackPointExtension>
        </extensions>
      </trkpt>
      <trkpt lat="36.7694485187530517578125" lon="-118.43001519329845905303955078125">
        <ele>3352.60009765625</ele>
        <time>2021-06-25T18:58:23.000Z</time>
        <extensions>
          <ns3:TrackPointExtension>
            <ns3:atemp>26.0</ns3:atemp>
            <ns3:hr>106</ns3:hr>
          </ns3:TrackPointExtension>
        </extensions>
      </trkpt>
      <trkpt lat="36.7694567330181598663330078125" lon="-118.42997294850647449493408203125">
        <ele>3353</ele>
        <time>2021-06-25T18:58:27.000Z</time>
        <extensions>
          <ns3:TrackPointExtension>
            <ns3:atemp>26.0</ns3:atemp>
            <ns3:hr>105</ns3:hr>
          </ns3:TrackPointExtension>
        </extensions>
      </trkpt>
      <trkpt lat="36.7694627679884433746337890625" lon="-118.4299183823168277740478515625">
        <ele>3352.800048828125</ele>
        <time>2021-06-25T18:58:32.000Z</time>
        <extensions>
          <ns3:TrackPointExtension>
            <ns3:atemp>26.0</ns3:atemp>
            <ns3:hr>102</ns3:hr>
          </ns3:TrackPointExtension>
        </extensions>
      </trkpt>
      <trkpt lat="36.76946419291198253631591796875" lon="-118.42989918775856494903564453125">
        <ele>3352.800048828125</ele>
        <time>2021-06-25T18:58:34.000Z</time>
        <extensions>
          <ns3:TrackPointExtension>
            <ns3:atemp>26.0</ns3:atemp>
            <ns3:hr>103</ns3:hr>
          </ns3:TrackPointExtension>
        </extensions>
      </trkpt>
      <trkpt lat="36.76945027895271778106689453125" lon="-118.4298664145171642303466796875">
        <ele>3352.39990234375</ele>
        <time>2021-06-25T18:58:37.000Z</time>
        <extensions>
          <ns3:TrackPointExtension>
            <ns3:atemp>26.0</ns3:atemp>
            <ns3:hr>104</ns3:hr>
          </ns3:TrackPointExtension>
        </extensions>
      </trkpt>
      <trkpt lat="36.7694356106221675872802734375" lon="-118.4298531711101531982421875">
        <ele>3352.39990234375</ele>
        <time>2021-06-25T18:58:39.000Z</time>
        <extensions>
          <ns3:TrackPointExtension>
            <ns3:atemp>26.0</ns3:atemp>
            <ns3:hr>101</ns3:hr>
          </ns3:TrackPointExtension>
        </extensions>
      </trkpt>
      <trkpt lat="36.7694309167563915252685546875" lon="-118.4298449568450450897216796875">
        <ele>3352.199951171875</ele>
        <time>2021-06-25T18:58:40.000Z</time>
        <extensions>
          <ns3:TrackPointExtension>
            <ns3:atemp>26.0</ns3:atemp>
            <ns3:hr>102</ns3:hr>
          </ns3:TrackPointExtension>
        </extensions>
      </trkpt>
      <trkpt lat="36.76941541023552417755126953125" lon="-118.4297941625118255615234375">
        <ele>3352.199951171875</ele>
        <time>2021-06-25T18:58:45.000Z</time>
        <extensions>
          <ns3:TrackPointExtension>
            <ns3:atemp>26.0</ns3:atemp>
            <ns3:hr>99</ns3:hr>
          </ns3:TrackPointExtension>
        </extensions>
      </trkpt>
      <trkpt lat="36.76943183876574039459228515625" lon="-118.4297574497759342193603515625">
        <ele>3351.800048828125</ele>
        <time>2021-06-25T18:58:49.000Z</time>
        <extensions>
          <ns3:TrackPointExtension>
            <ns3:atemp>26.0</ns3:atemp>
            <ns3:hr>101</ns3:hr>
          </ns3:TrackPointExtension>
        </extensions>
      </trkpt>
      <trkpt lat="36.76943787373602390289306640625" lon="-118.42972635291516780853271484375">
        <ele>3352</ele>
        <time>2021-06-25T18:58:52.000Z</time>
        <extensions>
          <ns3:TrackPointExtension>
            <ns3:atemp>26.0</ns3:atemp>
            <ns3:hr>98</ns3:hr>
          </ns3:TrackPointExtension>
        </extensions>
      </trkpt>
      <trkpt lat="36.7694547213613986968994140625" lon="-118.4296696074306964874267578125">
        <ele>3352.199951171875</ele>
        <time>2021-06-25T18:58:56.000Z</time>
        <extensions>
          <ns3:TrackPointExtension>
            <ns3:atemp>26.0</ns3:atemp>
            <ns3:hr>97</ns3:hr>
          </ns3:TrackPointExtension>
        </extensions>
      </trkpt>
      <trkpt lat="36.7694470100104808807373046875" lon="-118.4295703656971454620361328125">
        <ele>3351.800048828125</ele>
        <time>2021-06-25T18:59:04.000Z</time>
        <extensions>
          <ns3:TrackPointExtension>
            <ns3:atemp>26.0</ns3:atemp>
            <ns3:hr>97</ns3:hr>
          </ns3:TrackPointExtension>
        </extensions>
      </trkpt>
      <trkpt lat="36.7694376222789287567138671875" lon="-118.4295251034200191497802734375">
        <ele>3351.60009765625</ele>
        <time>2021-06-25T18:59:08.000Z</time>
        <extensions>
          <ns3:TrackPointExtension>
            <ns3:atemp>26.0</ns3:atemp>
            <ns3:hr>94</ns3:hr>
          </ns3:TrackPointExtension>
        </extensions>
      </trkpt>
      <trkpt lat="36.769437454640865325927734375" lon="-118.429497443139553070068359375">
        <ele>3351.39990234375</ele>
        <time>2021-06-25T18:59:11.000Z</time>
        <extensions>
          <ns3:TrackPointExtension>
            <ns3:atemp>26.0</ns3:atemp>
            <ns3:hr>95</ns3:hr>
          </ns3:TrackPointExtension>
        </extensions>
      </trkpt>
      <trkpt lat="36.76943820901215076446533203125" lon="-118.42948394827544689178466796875">
        <ele>3351.39990234375</ele>
        <time>2021-06-25T18:59:12.000Z</time>
        <extensions>
          <ns3:TrackPointExtension>
            <ns3:atemp>26.0</ns3:atemp>
            <ns3:hr>98</ns3:hr>
          </ns3:TrackPointExtension>
        </extensions>
      </trkpt>
      <trkpt lat="36.769437454640865325927734375" lon="-118.4294722974300384521484375">
        <ele>3351.39990234375</ele>
        <time>2021-06-25T18:59:13.000Z</time>
        <extensions>
          <ns3:TrackPointExtension>
            <ns3:atemp>26.0</ns3:atemp>
            <ns3:hr>95</ns3:hr>
          </ns3:TrackPointExtension>
        </extensions>
      </trkpt>
      <trkpt lat="36.7694359458982944488525390625" lon="-118.4294600598514080047607421875">
        <ele>3351.199951171875</ele>
        <time>2021-06-25T18:59:14.000Z</time>
        <extensions>
          <ns3:TrackPointExtension>
            <ns3:atemp>26.0</ns3:atemp>
            <ns3:hr>95</ns3:hr>
          </ns3:TrackPointExtension>
        </extensions>
      </trkpt>
      <trkpt lat="36.7694176733493804931640625" lon="-118.429379761219024658203125">
        <ele>3350.39990234375</ele>
        <time>2021-06-25T18:59:20.000Z</time>
        <extensions>
          <ns3:TrackPointExtension>
            <ns3:atemp>26.0</ns3:atemp>
            <ns3:hr>93</ns3:hr>
          </ns3:TrackPointExtension>
        </extensions>
      </trkpt>
      <trkpt lat="36.769418008625507354736328125" lon="-118.42935989610850811004638671875">
        <ele>3350.199951171875</ele>
        <time>2021-06-25T18:59:22.000Z</time>
        <extensions>
          <ns3:TrackPointExtension>
            <ns3:atemp>26.0</ns3:atemp>
            <ns3:hr>92</ns3:hr>
          </ns3:TrackPointExtension>
        </extensions>
      </trkpt>
      <trkpt lat="36.76940920762717723846435546875" lon="-118.42931614257395267486572265625">
        <ele>3350.39990234375</ele>
        <time>2021-06-25T18:59:26.000Z</time>
        <extensions>
          <ns3:TrackPointExtension>
            <ns3:atemp>26.0</ns3:atemp>
            <ns3:hr>90</ns3:hr>
          </ns3:TrackPointExtension>
        </extensions>
      </trkpt>
      <trkpt lat="36.76941440440714359283447265625" lon="-118.42923031188547611236572265625">
        <ele>3351</ele>
        <time>2021-06-25T18:59:34.000Z</time>
        <extensions>
          <ns3:TrackPointExtension>
            <ns3:atemp>27.0</ns3:atemp>
            <ns3:hr>90</ns3:hr>
          </ns3:TrackPointExtension>
        </extensions>
      </trkpt>
      <trkpt lat="36.76941390149295330047607421875" lon="-118.429216481745243072509765625">
        <ele>3351</ele>
        <time>2021-06-25T18:59:35.000Z</time>
        <extensions>
          <ns3:TrackPointExtension>
            <ns3:atemp>27.0</ns3:atemp>
            <ns3:hr>90</ns3:hr>
          </ns3:TrackPointExtension>
        </extensions>
      </trkpt>
      <trkpt lat="36.76941859535872936248779296875" lon="-118.429178260266780853271484375">
        <ele>3350.800048828125</ele>
        <time>2021-06-25T18:59:40.000Z</time>
        <extensions>
          <ns3:TrackPointExtension>
            <ns3:atemp>27.0</ns3:atemp>
            <ns3:hr>93</ns3:hr>
          </ns3:TrackPointExtension>
        </extensions>
      </trkpt>
      <trkpt lat="36.76942429505288600921630859375" lon="-118.42916962690651416778564453125">
        <ele>3350.60009765625</ele>
        <time>2021-06-25T18:59:41.000Z</time>
        <extensions>
          <ns3:TrackPointExtension>
            <ns3:atemp>27.0</ns3:atemp>
            <ns3:hr>93</ns3:hr>
          </ns3:TrackPointExtension>
        </extensions>
      </trkpt>
      <trkpt lat="36.76942831836640834808349609375" lon="-118.4290952794253826141357421875">
        <ele>3349.39990234375</ele>
        <time>2021-06-25T18:59:49.000Z</time>
        <extensions>
          <ns3:TrackPointExtension>
            <ns3:atemp>27.0</ns3:atemp>
            <ns3:hr>94</ns3:hr>
          </ns3:TrackPointExtension>
        </extensions>
      </trkpt>
      <trkpt lat="36.76943334750831127166748046875" lon="-118.42907742597162723541259765625">
        <ele>3349</ele>
        <time>2021-06-25T18:59:51.000Z</time>
        <extensions>
          <ns3:TrackPointExtension>
            <ns3:atemp>27.0</ns3:atemp>
            <ns3:hr>95</ns3:hr>
          </ns3:TrackPointExtension>
        </extensions>
      </trkpt>
      <trkpt lat="36.7694352753460407257080078125" lon="-118.429063595831394195556640625">
        <ele>3348</ele>
        <time>2021-06-25T18:59:53.000Z</time>
        <extensions>
          <ns3:TrackPointExtension>
            <ns3:atemp>27.0</ns3:atemp>
            <ns3:hr>95</ns3:hr>
          </ns3:TrackPointExtension>
        </extensions>
      </trkpt>
      <trkpt lat="36.76943854428827762603759765625" lon="-118.4290557168424129486083984375">
        <ele>3347.800048828125</ele>
        <time>2021-06-25T18:59:54.000Z</time>
        <extensions>
          <ns3:TrackPointExtension>
            <ns3:atemp>27.0</ns3:atemp>
            <ns3:hr>95</ns3:hr>
          </ns3:TrackPointExtension>
        </extensions>
      </trkpt>
      <trkpt lat="36.76944248378276824951171875" lon="-118.42903786338865756988525390625">
        <ele>3347.800048828125</ele>
        <time>2021-06-25T18:59:56.000Z</time>
        <extensions>
          <ns3:TrackPointExtension>
            <ns3:atemp>27.0</ns3:atemp>
            <ns3:hr>96</ns3:hr>
          </ns3:TrackPointExtension>
        </extensions>
      </trkpt>
      <trkpt lat="36.76945530809462070465087890625" lon="-118.4289722330868244171142578125">
        <ele>3346.800048828125</ele>
        <time>2021-06-25T19:00:04.000Z</time>
        <extensions>
          <ns3:TrackPointExtension>
            <ns3:atemp>27.0</ns3:atemp>
            <ns3:hr>97</ns3:hr>
          </ns3:TrackPointExtension>
        </extensions>
      </trkpt>
      <trkpt lat="36.76945011131465435028076171875" lon="-118.428956307470798492431640625">
        <ele>3346.39990234375</ele>
        <time>2021-06-25T19:00:06.000Z</time>
        <extensions>
          <ns3:TrackPointExtension>
            <ns3:atemp>27.0</ns3:atemp>
            <ns3:hr>98</ns3:hr>
          </ns3:TrackPointExtension>
        </extensions>
      </trkpt>
      <trkpt lat="36.76942345686256885528564453125" lon="-118.42893610708415508270263671875">
        <ele>3345</ele>
        <time>2021-06-25T19:00:09.000Z</time>
        <extensions>
          <ns3:TrackPointExtension>
            <ns3:atemp>27.0</ns3:atemp>
            <ns3:hr>100</ns3:hr>
          </ns3:TrackPointExtension>
        </extensions>
      </trkpt>
      <trkpt lat="36.76937970332801342010498046875" lon="-118.42890308238565921783447265625">
        <ele>3344.60009765625</ele>
        <time>2021-06-25T19:00:13.000Z</time>
        <extensions>
          <ns3:TrackPointExtension>
            <ns3:atemp>27.0</ns3:atemp>
            <ns3:hr>97</ns3:hr>
          </ns3:TrackPointExtension>
        </extensions>
      </trkpt>
      <trkpt lat="36.76936729811131954193115234375" lon="-118.42889218591153621673583984375">
        <ele>3344.60009765625</ele>
        <time>2021-06-25T19:00:14.000Z</time>
        <extensions>
          <ns3:TrackPointExtension>
            <ns3:atemp>27.0</ns3:atemp>
            <ns3:hr>97</ns3:hr>
          </ns3:TrackPointExtension>
        </extensions>
      </trkpt>
      <trkpt lat="36.7693092115223407745361328125" lon="-118.4288508631289005279541015625">
        <ele>3344</ele>
        <time>2021-06-25T19:00:20.000Z</time>
        <extensions>
          <ns3:TrackPointExtension>
            <ns3:atemp>26.0</ns3:atemp>
            <ns3:hr>96</ns3:hr>
          </ns3:TrackPointExtension>
        </extensions>
      </trkpt>
      <trkpt lat="36.76928347907960414886474609375" lon="-118.428842984139919281005859375">
        <ele>3343</ele>
        <time>2021-06-25T19:00:23.000Z</time>
        <extensions>
          <ns3:TrackPointExtension>
            <ns3:atemp>26.0</ns3:atemp>
            <ns3:hr>98</ns3:hr>
          </ns3:TrackPointExtension>
        </extensions>
      </trkpt>
      <trkpt lat="36.76927945576608180999755859375" lon="-118.42884005047380924224853515625">
        <ele>3342.60009765625</ele>
        <time>2021-06-25T19:00:24.000Z</time>
        <extensions>
          <ns3:TrackPointExtension>
            <ns3:atemp>26.0</ns3:atemp>
            <ns3:hr>98</ns3:hr>
          </ns3:TrackPointExtension>
        </extensions>
      </trkpt>
      <trkpt lat="36.76925011910498142242431640625" lon="-118.4288210235536098480224609375">
        <ele>3341.800048828125</ele>
        <time>2021-06-25T19:00:29.000Z</time>
        <extensions>
          <ns3:TrackPointExtension>
            <ns3:atemp>26.0</ns3:atemp>
            <ns3:hr>99</ns3:hr>
          </ns3:TrackPointExtension>
        </extensions>
      </trkpt>
      <trkpt lat="36.76923670805990695953369140625" lon="-118.42881272546947002410888671875">
        <ele>3341.199951171875</ele>
        <time>2021-06-25T19:00:31.000Z</time>
        <extensions>
          <ns3:TrackPointExtension>
            <ns3:atemp>26.0</ns3:atemp>
            <ns3:hr>99</ns3:hr>
          </ns3:TrackPointExtension>
        </extensions>
      </trkpt>
      <trkpt lat="36.76922916434705257415771484375" lon="-118.4288097918033599853515625">
        <ele>3341.199951171875</ele>
        <time>2021-06-25T19:00:32.000Z</time>
        <extensions>
          <ns3:TrackPointExtension>
            <ns3:atemp>26.0</ns3:atemp>
            <ns3:hr>98</ns3:hr>
          </ns3:TrackPointExtension>
        </extensions>
      </trkpt>
      <trkpt lat="36.7692025937139987945556640625" lon="-118.428802751004695892333984375">
        <ele>3340.199951171875</ele>
        <time>2021-06-25T19:00:36.000Z</time>
        <extensions>
          <ns3:TrackPointExtension>
            <ns3:atemp>26.0</ns3:atemp>
            <ns3:hr>101</ns3:hr>
          </ns3:TrackPointExtension>
        </extensions>
      </trkpt>
      <trkpt lat="36.7691962234675884246826171875" lon="-118.428800739347934722900390625">
        <ele>3340.199951171875</ele>
        <time>2021-06-25T19:00:37.000Z</time>
        <extensions>
          <ns3:TrackPointExtension>
            <ns3:atemp>26.0</ns3:atemp>
            <ns3:hr>101</ns3:hr>
          </ns3:TrackPointExtension>
        </extensions>
      </trkpt>
      <trkpt lat="36.76916914992034435272216796875" lon="-118.42879596166312694549560546875">
        <ele>3339.199951171875</ele>
        <time>2021-06-25T19:00:42.000Z</time>
        <extensions>
          <ns3:TrackPointExtension>
            <ns3:atemp>26.0</ns3:atemp>
            <ns3:hr>103</ns3:hr>
          </ns3:TrackPointExtension>
        </extensions>
      </trkpt>
      <trkpt lat="36.7691603489220142364501953125" lon="-118.42879344709217548370361328125">
        <ele>3339</ele>
        <time>2021-06-25T19:00:44.000Z</time>
        <extensions>
          <ns3:TrackPointExtension>
            <ns3:atemp>26.0</ns3:atemp>
            <ns3:hr>103</ns3:hr>
          </ns3:TrackPointExtension>
        </extensions>
      </trkpt>
      <trkpt lat="36.7691600136458873748779296875" lon="-118.4287885017693042755126953125">
        <ele>3337.800048828125</ele>
        <time>2021-06-25T19:00:46.000Z</time>
        <extensions>
          <ns3:TrackPointExtension>
            <ns3:atemp>26.0</ns3:atemp>
            <ns3:hr>102</ns3:hr>
          </ns3:TrackPointExtension>
        </extensions>
      </trkpt>
      <trkpt lat="36.76913076080381870269775390625" lon="-118.42879042960703372955322265625">
        <ele>3337.39990234375</ele>
        <time>2021-06-25T19:00:50.000Z</time>
        <extensions>
          <ns3:TrackPointExtension>
            <ns3:atemp>26.0</ns3:atemp>
            <ns3:hr>102</ns3:hr>
          </ns3:TrackPointExtension>
        </extensions>
      </trkpt>
      <trkpt lat="36.7691110633313655853271484375" lon="-118.428776599466800689697265625">
        <ele>3336.60009765625</ele>
        <time>2021-06-25T19:00:53.000Z</time>
        <extensions>
          <ns3:TrackPointExtension>
            <ns3:atemp>26.0</ns3:atemp>
            <ns3:hr>100</ns3:hr>
          </ns3:TrackPointExtension>
        </extensions>
      </trkpt>
      <trkpt lat="36.7691130749881267547607421875" lon="-118.42876126058399677276611328125">
        <ele>3336</ele>
        <time>2021-06-25T19:00:57.000Z</time>
        <extensions>
          <ns3:TrackPointExtension>
            <ns3:atemp>26.0</ns3:atemp>
            <ns3:hr>98</ns3:hr>
          </ns3:TrackPointExtension>
        </extensions>
      </trkpt>
      <trkpt lat="36.769133023917675018310546875" lon="-118.4287486039102077484130859375">
        <ele>3335</ele>
        <time>2021-06-25T19:01:00.000Z</time>
        <extensions>
          <ns3:TrackPointExtension>
            <ns3:atemp>26.0</ns3:atemp>
            <ns3:hr>95</ns3:hr>
          </ns3:TrackPointExtension>
        </extensions>
      </trkpt>
      <trkpt lat="36.76913796924054622650146484375" lon="-118.42871147207915782928466796875">
        <ele>3334.199951171875</ele>
        <time>2021-06-25T19:01:06.000Z</time>
        <extensions>
          <ns3:TrackPointExtension>
            <ns3:atemp>26.0</ns3:atemp>
            <ns3:hr>95</ns3:hr>
          </ns3:TrackPointExtension>
        </extensions>
      </trkpt>
      <trkpt lat="36.7691472731530666351318359375" lon="-118.42869319953024387359619140625">
        <ele>3333.800048828125</ele>
        <time>2021-06-25T19:01:08.000Z</time>
        <extensions>
          <ns3:TrackPointExtension>
            <ns3:atemp>26.0</ns3:atemp>
            <ns3:hr>96</ns3:hr>
          </ns3:TrackPointExtension>
        </extensions>
      </trkpt>
      <trkpt lat="36.7691583372652530670166015625" lon="-118.4286756813526153564453125">
        <ele>3333.60009765625</ele>
        <time>2021-06-25T19:01:10.000Z</time>
        <extensions>
          <ns3:TrackPointExtension>
            <ns3:atemp>26.0</ns3:atemp>
            <ns3:hr>100</ns3:hr>
          </ns3:TrackPointExtension>
        </extensions>
      </trkpt>
      <trkpt lat="36.7691633664071559906005859375" lon="-118.428666628897190093994140625">
        <ele>3333.199951171875</ele>
        <time>2021-06-25T19:01:11.000Z</time>
        <extensions>
          <ns3:TrackPointExtension>
            <ns3:atemp>26.0</ns3:atemp>
            <ns3:hr>103</ns3:hr>
          </ns3:TrackPointExtension>
        </extensions>
      </trkpt>
      <trkpt lat="36.76917292177677154541015625" lon="-118.4286515414714813232421875">
        <ele>3333</ele>
        <time>2021-06-25T19:01:13.000Z</time>
        <extensions>
          <ns3:TrackPointExtension>
            <ns3:atemp>26.0</ns3:atemp>
            <ns3:hr>107</ns3:hr>
          </ns3:TrackPointExtension>
        </extensions>
      </trkpt>
      <trkpt lat="36.769175939261913299560546875" lon="-118.42864139936864376068115234375">
        <ele>3332.60009765625</ele>
        <time>2021-06-25T19:01:14.000Z</time>
        <extensions>
          <ns3:TrackPointExtension>
            <ns3:atemp>26.0</ns3:atemp>
            <ns3:hr>108</ns3:hr>
          </ns3:TrackPointExtension>
        </extensions>
      </trkpt>
      <trkpt lat="36.76915389485657215118408203125" lon="-118.42858649790287017822265625">
        <ele>3331.199951171875</ele>
        <time>2021-06-25T19:01:20.000Z</time>
        <extensions>
          <ns3:TrackPointExtension>
            <ns3:atemp>27.0</ns3:atemp>
            <ns3:hr>108</ns3:hr>
          </ns3:TrackPointExtension>
        </extensions>
      </trkpt>
      <trkpt lat="36.76915012300014495849609375" lon="-118.42857350595295429229736328125">
        <ele>3331</ele>
        <time>2021-06-25T19:01:21.000Z</time>
        <extensions>
          <ns3:TrackPointExtension>
            <ns3:atemp>27.0</ns3:atemp>
            <ns3:hr>105</ns3:hr>
          </ns3:TrackPointExtension>
        </extensions>
      </trkpt>
      <trkpt lat="36.76914417184889316558837890625" lon="-118.42856193892657756805419921875">
        <ele>3330.60009765625</ele>
        <time>2021-06-25T19:01:22.000Z</time>
        <extensions>
          <ns3:TrackPointExtension>
            <ns3:atemp>27.0</ns3:atemp>
            <ns3:hr>104</ns3:hr>
          </ns3:TrackPointExtension>
        </extensions>
      </trkpt>
      <trkpt lat="36.7691268213093280792236328125" lon="-118.42854224145412445068359375">
        <ele>3330</ele>
        <time>2021-06-25T19:01:24.000Z</time>
        <extensions>
          <ns3:TrackPointExtension>
            <ns3:atemp>27.0</ns3:atemp>
            <ns3:hr>103</ns3:hr>
          </ns3:TrackPointExtension>
        </extensions>
      </trkpt>
      <trkpt lat="36.76912807859480381011962890625" lon="-118.42850762419402599334716796875">
        <ele>3329.39990234375</ele>
        <time>2021-06-25T19:01:29.000Z</time>
        <extensions>
          <ns3:TrackPointExtension>
            <ns3:atemp>27.0</ns3:atemp>
            <ns3:hr>101</ns3:hr>
          </ns3:TrackPointExtension>
        </extensions>
      </trkpt>
      <trkpt lat="36.76914417184889316558837890625" lon="-118.4284879267215728759765625">
        <ele>3329</ele>
        <time>2021-06-25T19:01:32.000Z</time>
        <extensions>
          <ns3:TrackPointExtension>
            <ns3:atemp>27.0</ns3:atemp>
            <ns3:hr>101</ns3:hr>
          </ns3:TrackPointExtension>
        </extensions>
      </trkpt>
      <trkpt lat="36.76912673749029636383056640625" lon="-118.4284455142915248870849609375">
        <ele>3328</ele>
        <time>2021-06-25T19:01:37.000Z</time>
        <extensions>
          <ns3:TrackPointExtension>
            <ns3:atemp>27.0</ns3:atemp>
            <ns3:hr>102</ns3:hr>
          </ns3:TrackPointExtension>
        </extensions>
      </trkpt>
      <trkpt lat="36.76909689791500568389892578125" lon="-118.4283948875963687896728515625">
        <ele>3327</ele>
        <time>2021-06-25T19:01:41.000Z</time>
        <extensions>
          <ns3:TrackPointExtension>
            <ns3:atemp>27.0</ns3:atemp>
            <ns3:hr>101</ns3:hr>
          </ns3:TrackPointExtension>
        </extensions>
      </trkpt>
      <trkpt lat="36.76906571723520755767822265625" lon="-118.42836789786815643310546875">
        <ele>3326.199951171875</ele>
        <time>2021-06-25T19:01:46.000Z</time>
        <extensions>
          <ns3:TrackPointExtension>
            <ns3:atemp>27.0</ns3:atemp>
            <ns3:hr>99</ns3:hr>
          </ns3:TrackPointExtension>
        </extensions>
      </trkpt>
      <trkpt lat="36.7690590955317020416259765625" lon="-118.42836529947817325592041015625">
        <ele>3326</ele>
        <time>2021-06-25T19:01:47.000Z</time>
        <extensions>
          <ns3:TrackPointExtension>
            <ns3:atemp>27.0</ns3:atemp>
            <ns3:hr>99</ns3:hr>
          </ns3:TrackPointExtension>
        </extensions>
      </trkpt>
      <trkpt lat="36.7690470255911350250244140625" lon="-118.4283093921840190887451171875">
        <ele>3325.199951171875</ele>
        <time>2021-06-25T19:01:54.000Z</time>
        <extensions>
          <ns3:TrackPointExtension>
            <ns3:atemp>27.0</ns3:atemp>
            <ns3:hr>101</ns3:hr>
          </ns3:TrackPointExtension>
        </extensions>
      </trkpt>
      <trkpt lat="36.7690285854041576385498046875" lon="-118.4282953105866909027099609375">
        <ele>3324.60009765625</ele>
        <time>2021-06-25T19:01:56.000Z</time>
        <extensions>
          <ns3:TrackPointExtension>
            <ns3:atemp>27.0</ns3:atemp>
            <ns3:hr>98</ns3:hr>
          </ns3:TrackPointExtension>
        </extensions>
      </trkpt>
      <trkpt lat="36.7690208740532398223876953125" lon="-118.42828500084578990936279296875">
        <ele>3323.39990234375</ele>
        <time>2021-06-25T19:01:58.000Z</time>
        <extensions>
          <ns3:TrackPointExtension>
            <ns3:atemp>27.0</ns3:atemp>
            <ns3:hr>98</ns3:hr>
          </ns3:TrackPointExtension>
        </extensions>
      </trkpt>
      <trkpt lat="36.76901877857744693756103515625" lon="-118.4282733500003814697265625">
        <ele>3323.199951171875</ele>
        <time>2021-06-25T19:02:00.000Z</time>
        <extensions>
          <ns3:TrackPointExtension>
            <ns3:atemp>27.0</ns3:atemp>
            <ns3:hr>98</ns3:hr>
          </ns3:TrackPointExtension>
        </extensions>
      </trkpt>
      <trkpt lat="36.76898592151701450347900390625" lon="-118.42822800390422344207763671875">
        <ele>3322.199951171875</ele>
        <time>2021-06-25T19:02:05.000Z</time>
        <extensions>
          <ns3:TrackPointExtension>
            <ns3:atemp>27.0</ns3:atemp>
            <ns3:hr>97</ns3:hr>
          </ns3:TrackPointExtension>
        </extensions>
      </trkpt>
      <trkpt lat="36.7689685709774494171142578125" lon="-118.42821610160171985626220703125">
        <ele>3322</ele>
        <time>2021-06-25T19:02:08.000Z</time>
        <extensions>
          <ns3:TrackPointExtension>
            <ns3:atemp>27.0</ns3:atemp>
            <ns3:hr>98</ns3:hr>
          </ns3:TrackPointExtension>
        </extensions>
      </trkpt>
      <trkpt lat="36.76896907389163970947265625" lon="-118.428189195692539215087890625">
        <ele>3321.199951171875</ele>
        <time>2021-06-25T19:02:13.000Z</time>
        <extensions>
          <ns3:TrackPointExtension>
            <ns3:atemp>27.0</ns3:atemp>
            <ns3:hr>97</ns3:hr>
          </ns3:TrackPointExtension>
        </extensions>
      </trkpt>
      <trkpt lat="36.768973432481288909912109375" lon="-118.42815600335597991943359375">
        <ele>3320</ele>
        <time>2021-06-25T19:02:18.000Z</time>
        <extensions>
          <ns3:TrackPointExtension>
            <ns3:atemp>27.0</ns3:atemp>
            <ns3:hr>96</ns3:hr>
          </ns3:TrackPointExtension>
        </extensions>
      </trkpt>
      <trkpt lat="36.7689697444438934326171875" lon="-118.4281246550381183624267578125">
        <ele>3319</ele>
        <time>2021-06-25T19:02:22.000Z</time>
        <extensions>
          <ns3:TrackPointExtension>
            <ns3:atemp>27.0</ns3:atemp>
            <ns3:hr>98</ns3:hr>
          </ns3:TrackPointExtension>
        </extensions>
      </trkpt>
      <trkpt lat="36.76896664313971996307373046875" lon="-118.42811853624880313873291015625">
        <ele>3318.800048828125</ele>
        <time>2021-06-25T19:02:23.000Z</time>
        <extensions>
          <ns3:TrackPointExtension>
            <ns3:atemp>27.0</ns3:atemp>
            <ns3:hr>95</ns3:hr>
          </ns3:TrackPointExtension>
        </extensions>
      </trkpt>
      <trkpt lat="36.76896094344556331634521484375" lon="-118.42811333946883678436279296875">
        <ele>3318.800048828125</ele>
        <time>2021-06-25T19:02:24.000Z</time>
        <extensions>
          <ns3:TrackPointExtension>
            <ns3:atemp>27.0</ns3:atemp>
            <ns3:hr>95</ns3:hr>
          </ns3:TrackPointExtension>
        </extensions>
      </trkpt>
      <trkpt lat="36.76892758347094058990478515625" lon="-118.4280676580965518951416015625">
        <ele>3317.800048828125</ele>
        <time>2021-06-25T19:02:30.000Z</time>
        <extensions>
          <ns3:TrackPointExtension>
            <ns3:atemp>27.0</ns3:atemp>
            <ns3:hr>92</ns3:hr>
          </ns3:TrackPointExtension>
        </extensions>
      </trkpt>
      <trkpt lat="36.76890947856009006500244140625" lon="-118.428063131868839263916015625">
        <ele>3317.800048828125</ele>
        <time>2021-06-25T19:02:31.000Z</time>
        <extensions>
          <ns3:TrackPointExtension>
            <ns3:atemp>27.0</ns3:atemp>
            <ns3:hr>91</ns3:hr>
          </ns3:TrackPointExtension>
        </extensions>
      </trkpt>
      <trkpt lat="36.76887519657611846923828125" lon="-118.42803505249321460723876953125">
        <ele>3317.60009765625</ele>
        <time>2021-06-25T19:02:34.000Z</time>
        <extensions>
          <ns3:TrackPointExtension>
            <ns3:atemp>27.0</ns3:atemp>
            <ns3:hr>88</ns3:hr>
          </ns3:TrackPointExtension>
        </extensions>
      </trkpt>
      <trkpt lat="36.768853403627872467041015625" lon="-118.4279942326247692108154296875">
        <ele>3316.60009765625</ele>
        <time>2021-06-25T19:02:38.000Z</time>
        <extensions>
          <ns3:TrackPointExtension>
            <ns3:atemp>27.0</ns3:atemp>
            <ns3:hr>88</ns3:hr>
          </ns3:TrackPointExtension>
        </extensions>
      </trkpt>
      <trkpt lat="36.7688418366014957427978515625" lon="-118.42798610217869281768798828125">
        <ele>3316.199951171875</ele>
        <time>2021-06-25T19:02:40.000Z</time>
        <extensions>
          <ns3:TrackPointExtension>
            <ns3:atemp>27.0</ns3:atemp>
            <ns3:hr>90</ns3:hr>
          </ns3:TrackPointExtension>
        </extensions>
      </trkpt>
      <trkpt lat="36.7688284255564212799072265625" lon="-118.42796020209789276123046875">
        <ele>3315.800048828125</ele>
        <time>2021-06-25T19:02:44.000Z</time>
        <extensions>
          <ns3:TrackPointExtension>
            <ns3:atemp>27.0</ns3:atemp>
            <ns3:hr>92</ns3:hr>
          </ns3:TrackPointExtension>
        </extensions>
      </trkpt>
      <trkpt lat="36.768823899328708648681640625" lon="-118.42795215547084808349609375">
        <ele>3315.60009765625</ele>
        <time>2021-06-25T19:02:45.000Z</time>
        <extensions>
          <ns3:TrackPointExtension>
            <ns3:atemp>27.0</ns3:atemp>
            <ns3:hr>94</ns3:hr>
          </ns3:TrackPointExtension>
        </extensions>
      </trkpt>
      <trkpt lat="36.7687623761594295501708984375" lon="-118.4279120899736881256103515625">
        <ele>3315.60009765625</ele>
        <time>2021-06-25T19:02:50.000Z</time>
        <extensions>
          <ns3:TrackPointExtension>
            <ns3:atemp>27.0</ns3:atemp>
            <ns3:hr>93</ns3:hr>
          </ns3:TrackPointExtension>
        </extensions>
      </trkpt>
      <trkpt lat="36.7687529884278774261474609375" lon="-118.42790882103145122528076171875">
        <ele>3315.60009765625</ele>
        <time>2021-06-25T19:02:51.000Z</time>
        <extensions>
          <ns3:TrackPointExtension>
            <ns3:atemp>27.0</ns3:atemp>
            <ns3:hr>93</ns3:hr>
          </ns3:TrackPointExtension>
        </extensions>
      </trkpt>
      <trkpt lat="36.76873211748898029327392578125" lon="-118.42787445522844791412353515625">
        <ele>3315.39990234375</ele>
        <time>2021-06-25T19:02:56.000Z</time>
        <extensions>
          <ns3:TrackPointExtension>
            <ns3:atemp>27.0</ns3:atemp>
            <ns3:hr>90</ns3:hr>
          </ns3:TrackPointExtension>
        </extensions>
      </trkpt>
      <trkpt lat="36.7687422595918178558349609375" lon="-118.4278359822928905487060546875">
        <ele>3315.39990234375</ele>
        <time>2021-06-25T19:03:00.000Z</time>
        <extensions>
          <ns3:TrackPointExtension>
            <ns3:atemp>27.0</ns3:atemp>
            <ns3:hr>93</ns3:hr>
          </ns3:TrackPointExtension>
        </extensions>
      </trkpt>
      <trkpt lat="36.7687516473233699798583984375" lon="-118.42777051962912082672119140625">
        <ele>3314.60009765625</ele>
        <time>2021-06-25T19:03:06.000Z</time>
        <extensions>
          <ns3:TrackPointExtension>
            <ns3:atemp>27.0</ns3:atemp>
            <ns3:hr>95</ns3:hr>
          </ns3:TrackPointExtension>
        </extensions>
      </trkpt>
      <trkpt lat="36.768754161894321441650390625" lon="-118.4277571924030780792236328125">
        <ele>3314.199951171875</ele>
        <time>2021-06-25T19:03:07.000Z</time>
        <extensions>
          <ns3:TrackPointExtension>
            <ns3:atemp>27.0</ns3:atemp>
            <ns3:hr>94</ns3:hr>
          </ns3:TrackPointExtension>
        </extensions>
      </trkpt>
      <trkpt lat="36.768737733364105224609375" lon="-118.42770027928054332733154296875">
        <ele>3314</ele>
        <time>2021-06-25T19:03:15.000Z</time>
        <extensions>
          <ns3:TrackPointExtension>
            <ns3:atemp>27.0</ns3:atemp>
            <ns3:hr>95</ns3:hr>
          </ns3:TrackPointExtension>
        </extensions>
      </trkpt>
      <trkpt lat="36.768739409744739532470703125" lon="-118.4276926517486572265625">
        <ele>3314</ele>
        <time>2021-06-25T19:03:16.000Z</time>
        <extensions>
          <ns3:TrackPointExtension>
            <ns3:atemp>27.0</ns3:atemp>
            <ns3:hr>96</ns3:hr>
          </ns3:TrackPointExtension>
        </extensions>
      </trkpt>
      <trkpt lat="36.7687449418008327484130859375" lon="-118.4276740439236164093017578125">
        <ele>3314</ele>
        <time>2021-06-25T19:03:18.000Z</time>
        <extensions>
          <ns3:TrackPointExtension>
            <ns3:atemp>27.0</ns3:atemp>
            <ns3:hr>96</ns3:hr>
          </ns3:TrackPointExtension>
        </extensions>
      </trkpt>
      <trkpt lat="36.768759526312351226806640625" lon="-118.4276475571095943450927734375">
        <ele>3313.39990234375</ele>
        <time>2021-06-25T19:03:20.000Z</time>
        <extensions>
          <ns3:TrackPointExtension>
            <ns3:atemp>27.0</ns3:atemp>
            <ns3:hr>96</ns3:hr>
          </ns3:TrackPointExtension>
        </extensions>
      </trkpt>
      <trkpt lat="36.7687714286148548126220703125" lon="-118.427635319530963897705078125">
        <ele>3313.199951171875</ele>
        <time>2021-06-25T19:03:21.000Z</time>
        <extensions>
          <ns3:TrackPointExtension>
            <ns3:atemp>27.0</ns3:atemp>
            <ns3:hr>96</ns3:hr>
          </ns3:TrackPointExtension>
        </extensions>
      </trkpt>
      <trkpt lat="36.76877369172871112823486328125" lon="-118.42762333340942859649658203125">
        <ele>3313</ele>
        <time>2021-06-25T19:03:22.000Z</time>
        <extensions>
          <ns3:TrackPointExtension>
            <ns3:atemp>27.0</ns3:atemp>
            <ns3:hr>96</ns3:hr>
          </ns3:TrackPointExtension>
        </extensions>
      </trkpt>
      <trkpt lat="36.76876313053071498870849609375" lon="-118.42759072780609130859375">
        <ele>3312.800048828125</ele>
        <time>2021-06-25T19:03:25.000Z</time>
        <extensions>
          <ns3:TrackPointExtension>
            <ns3:atemp>27.0</ns3:atemp>
            <ns3:hr>95</ns3:hr>
          </ns3:TrackPointExtension>
        </extensions>
      </trkpt>
      <trkpt lat="36.76876178942620754241943359375" lon="-118.4275737963616847991943359375">
        <ele>3312.800048828125</ele>
        <time>2021-06-25T19:03:27.000Z</time>
        <extensions>
          <ns3:TrackPointExtension>
            <ns3:atemp>27.0</ns3:atemp>
            <ns3:hr>97</ns3:hr>
          </ns3:TrackPointExtension>
        </extensions>
      </trkpt>
      <trkpt lat="36.76876254379749298095703125" lon="-118.42754739336669445037841796875">
        <ele>3312.800048828125</ele>
        <time>2021-06-25T19:03:29.000Z</time>
        <extensions>
          <ns3:TrackPointExtension>
            <ns3:atemp>27.0</ns3:atemp>
            <ns3:hr>98</ns3:hr>
          </ns3:TrackPointExtension>
        </extensions>
      </trkpt>
      <trkpt lat="36.768759191036224365234375" lon="-118.42750783078372478485107421875">
        <ele>3312.800048828125</ele>
        <time>2021-06-25T19:03:33.000Z</time>
        <extensions>
          <ns3:TrackPointExtension>
            <ns3:atemp>27.0</ns3:atemp>
            <ns3:hr>100</ns3:hr>
          </ns3:TrackPointExtension>
        </extensions>
      </trkpt>
      <trkpt lat="36.76876111887395381927490234375" lon="-118.4274929948151111602783203125">
        <ele>3312.60009765625</ele>
        <time>2021-06-25T19:03:34.000Z</time>
        <extensions>
          <ns3:TrackPointExtension>
            <ns3:atemp>27.0</ns3:atemp>
            <ns3:hr>100</ns3:hr>
          </ns3:TrackPointExtension>
        </extensions>
      </trkpt>
      <trkpt lat="36.76875625737011432647705078125" lon="-118.42746491543948650360107421875">
        <ele>3312</ele>
        <time>2021-06-25T19:03:36.000Z</time>
        <extensions>
          <ns3:TrackPointExtension>
            <ns3:atemp>27.0</ns3:atemp>
            <ns3:hr>101</ns3:hr>
          </ns3:TrackPointExtension>
        </extensions>
      </trkpt>
      <trkpt lat="36.76875592209398746490478515625" lon="-118.4274460561573505401611328125">
        <ele>3311.60009765625</ele>
        <time>2021-06-25T19:03:38.000Z</time>
        <extensions>
          <ns3:TrackPointExtension>
            <ns3:atemp>27.0</ns3:atemp>
            <ns3:hr>100</ns3:hr>
          </ns3:TrackPointExtension>
        </extensions>
      </trkpt>
      <trkpt lat="36.7687573470175266265869140625" lon="-118.42740230262279510498046875">
        <ele>3311.39990234375</ele>
        <time>2021-06-25T19:03:42.000Z</time>
        <extensions>
          <ns3:TrackPointExtension>
            <ns3:atemp>27.0</ns3:atemp>
            <ns3:hr>101</ns3:hr>
          </ns3:TrackPointExtension>
        </extensions>
      </trkpt>
      <trkpt lat="36.7687516473233699798583984375" lon="-118.42737103812396526336669921875">
        <ele>3310.800048828125</ele>
        <time>2021-06-25T19:03:45.000Z</time>
        <extensions>
          <ns3:TrackPointExtension>
            <ns3:atemp>27.0</ns3:atemp>
            <ns3:hr>102</ns3:hr>
          </ns3:TrackPointExtension>
        </extensions>
      </trkpt>
      <trkpt lat="36.76874184049665927886962890625" lon="-118.427309431135654449462890625">
        <ele>3310.39990234375</ele>
        <time>2021-06-25T19:03:51.000Z</time>
        <extensions>
          <ns3:TrackPointExtension>
            <ns3:atemp>27.0</ns3:atemp>
            <ns3:hr>99</ns3:hr>
          </ns3:TrackPointExtension>
        </extensions>
      </trkpt>
      <trkpt lat="36.7687486298382282257080078125" lon="-118.42726291157305240631103515625">
        <ele>3310</ele>
        <time>2021-06-25T19:03:56.000Z</time>
        <extensions>
          <ns3:TrackPointExtension>
            <ns3:atemp>27.0</ns3:atemp>
            <ns3:hr>96</ns3:hr>
          </ns3:TrackPointExtension>
        </extensions>
      </trkpt>
      <trkpt lat="36.76874284632503986358642578125" lon="-118.427243717014789581298828125">
        <ele>3310</ele>
        <time>2021-06-25T19:03:58.000Z</time>
        <extensions>
          <ns3:TrackPointExtension>
            <ns3:atemp>27.0</ns3:atemp>
            <ns3:hr>96</ns3:hr>
          </ns3:TrackPointExtension>
        </extensions>
      </trkpt>
      <trkpt lat="36.76873815245926380157470703125" lon="-118.4272234328091144561767578125">
        <ele>3309.60009765625</ele>
        <time>2021-06-25T19:04:00.000Z</time>
        <extensions>
          <ns3:TrackPointExtension>
            <ns3:atemp>27.0</ns3:atemp>
            <ns3:hr>96</ns3:hr>
          </ns3:TrackPointExtension>
        </extensions>
      </trkpt>
      <trkpt lat="36.768738068640232086181640625" lon="-118.427121676504611968994140625">
        <ele>3309.39990234375</ele>
        <time>2021-06-25T19:04:09.000Z</time>
        <extensions>
          <ns3:TrackPointExtension>
            <ns3:atemp>27.0</ns3:atemp>
            <ns3:hr>95</ns3:hr>
          </ns3:TrackPointExtension>
        </extensions>
      </trkpt>
      <trkpt lat="36.76875122822821140289306640625" lon="-118.4270440600812435150146484375">
        <ele>3309</ele>
        <time>2021-06-25T19:04:16.000Z</time>
        <extensions>
          <ns3:TrackPointExtension>
            <ns3:atemp>27.0</ns3:atemp>
            <ns3:hr>95</ns3:hr>
          </ns3:TrackPointExtension>
        </extensions>
      </trkpt>
      <trkpt lat="36.768776290118694305419921875" lon="-118.42701061628758907318115234375">
        <ele>3308.800048828125</ele>
        <time>2021-06-25T19:04:19.000Z</time>
        <extensions>
          <ns3:TrackPointExtension>
            <ns3:atemp>27.0</ns3:atemp>
            <ns3:hr>98</ns3:hr>
          </ns3:TrackPointExtension>
        </extensions>
      </trkpt>
      <trkpt lat="36.768785007297992706298828125" lon="-118.4269961155951023101806640625">
        <ele>3308.39990234375</ele>
        <time>2021-06-25T19:04:20.000Z</time>
        <extensions>
          <ns3:TrackPointExtension>
            <ns3:atemp>27.0</ns3:atemp>
            <ns3:hr>99</ns3:hr>
          </ns3:TrackPointExtension>
        </extensions>
      </trkpt>
      <trkpt lat="36.7687781341373920440673828125" lon="-118.4269488416612148284912109375">
        <ele>3308.39990234375</ele>
        <time>2021-06-25T19:04:24.000Z</time>
        <extensions>
          <ns3:TrackPointExtension>
            <ns3:atemp>27.0</ns3:atemp>
            <ns3:hr>100</ns3:hr>
          </ns3:TrackPointExtension>
        </extensions>
      </trkpt>
      <trkpt lat="36.7687627114355564117431640625" lon="-118.4268710575997829437255859375">
        <ele>3307.39990234375</ele>
        <time>2021-06-25T19:04:32.000Z</time>
        <extensions>
          <ns3:TrackPointExtension>
            <ns3:atemp>27.0</ns3:atemp>
            <ns3:hr>100</ns3:hr>
          </ns3:TrackPointExtension>
        </extensions>
      </trkpt>
      <trkpt lat="36.768756173551082611083984375" lon="-118.4268589876592159271240234375">
        <ele>3307</ele>
        <time>2021-06-25T19:04:33.000Z</time>
        <extensions>
          <ns3:TrackPointExtension>
            <ns3:atemp>27.0</ns3:atemp>
            <ns3:hr>100</ns3:hr>
          </ns3:TrackPointExtension>
        </extensions>
      </trkpt>
      <trkpt lat="36.76872826181352138519287109375" lon="-118.426822610199451446533203125">
        <ele>3306.800048828125</ele>
        <time>2021-06-25T19:04:37.000Z</time>
        <extensions>
          <ns3:TrackPointExtension>
            <ns3:atemp>27.0</ns3:atemp>
            <ns3:hr>97</ns3:hr>
          </ns3:TrackPointExtension>
        </extensions>
      </trkpt>
      <trkpt lat="36.7687355540692806243896484375" lon="-118.4267939440906047821044921875">
        <ele>3306.60009765625</ele>
        <time>2021-06-25T19:04:40.000Z</time>
        <extensions>
          <ns3:TrackPointExtension>
            <ns3:atemp>27.0</ns3:atemp>
            <ns3:hr>97</ns3:hr>
          </ns3:TrackPointExtension>
        </extensions>
      </trkpt>
      <trkpt lat="36.768736727535724639892578125" lon="-118.42671163380146026611328125">
        <ele>3306</ele>
        <time>2021-06-25T19:04:48.000Z</time>
        <extensions>
          <ns3:TrackPointExtension>
            <ns3:atemp>27.0</ns3:atemp>
            <ns3:hr>95</ns3:hr>
          </ns3:TrackPointExtension>
        </extensions>
      </trkpt>
      <trkpt lat="36.76873781718313694000244140625" lon="-118.4266970492899417877197265625">
        <ele>3305.800048828125</ele>
        <time>2021-06-25T19:04:49.000Z</time>
        <extensions>
          <ns3:TrackPointExtension>
            <ns3:atemp>27.0</ns3:atemp>
            <ns3:hr>96</ns3:hr>
          </ns3:TrackPointExtension>
        </extensions>
      </trkpt>
      <trkpt lat="36.76873630844056606292724609375" lon="-118.42668749392032623291015625">
        <ele>3305.800048828125</ele>
        <time>2021-06-25T19:04:50.000Z</time>
        <extensions>
          <ns3:TrackPointExtension>
            <ns3:atemp>27.0</ns3:atemp>
            <ns3:hr>94</ns3:hr>
          </ns3:TrackPointExtension>
        </extensions>
      </trkpt>
      <trkpt lat="36.76870462484657764434814453125" lon="-118.4266103804111480712890625">
        <ele>3305.199951171875</ele>
        <time>2021-06-25T19:04:57.000Z</time>
        <extensions>
          <ns3:TrackPointExtension>
            <ns3:atemp>27.0</ns3:atemp>
            <ns3:hr>97</ns3:hr>
          </ns3:TrackPointExtension>
        </extensions>
      </trkpt>
      <trkpt lat="36.7686949856579303741455078125" lon="-118.426591940224170684814453125">
        <ele>3304.800048828125</ele>
        <time>2021-06-25T19:04:59.000Z</time>
        <extensions>
          <ns3:TrackPointExtension>
            <ns3:atemp>27.0</ns3:atemp>
            <ns3:hr>97</ns3:hr>
          </ns3:TrackPointExtension>
        </extensions>
      </trkpt>
      <trkpt lat="36.76868249662220478057861328125" lon="-118.42654659412801265716552734375">
        <ele>3304.39990234375</ele>
        <time>2021-06-25T19:05:05.000Z</time>
        <extensions>
          <ns3:TrackPointExtension>
            <ns3:atemp>27.0</ns3:atemp>
            <ns3:hr>95</ns3:hr>
          </ns3:TrackPointExtension>
        </extensions>
      </trkpt>
      <trkpt lat="36.76869414746761322021484375" lon="-118.42651315033435821533203125">
        <ele>3303.199951171875</ele>
        <time>2021-06-25T19:05:09.000Z</time>
        <extensions>
          <ns3:TrackPointExtension>
            <ns3:atemp>27.0</ns3:atemp>
            <ns3:hr>96</ns3:hr>
          </ns3:TrackPointExtension>
        </extensions>
      </trkpt>
      <trkpt lat="36.76869682967662811279296875" lon="-118.4264858253300189971923828125">
        <ele>3302.39990234375</ele>
        <time>2021-06-25T19:05:12.000Z</time>
        <extensions>
          <ns3:TrackPointExtension>
            <ns3:atemp>27.0</ns3:atemp>
            <ns3:hr>95</ns3:hr>
          </ns3:TrackPointExtension>
        </extensions>
      </trkpt>
      <trkpt lat="36.76869842223823070526123046875" lon="-118.42646663077175617218017578125">
        <ele>3302.39990234375</ele>
        <time>2021-06-25T19:05:14.000Z</time>
        <extensions>
          <ns3:TrackPointExtension>
            <ns3:atemp>27.0</ns3:atemp>
            <ns3:hr>93</ns3:hr>
          </ns3:TrackPointExtension>
        </extensions>
      </trkpt>
      <trkpt lat="36.76870261318981647491455078125" lon="-118.426433019340038299560546875">
        <ele>3302.39990234375</ele>
        <time>2021-06-25T19:05:16.000Z</time>
        <extensions>
          <ns3:TrackPointExtension>
            <ns3:atemp>27.0</ns3:atemp>
            <ns3:hr>93</ns3:hr>
          </ns3:TrackPointExtension>
        </extensions>
      </trkpt>
      <trkpt lat="36.76869641058146953582763671875" lon="-118.4264184348285198211669921875">
        <ele>3302.199951171875</ele>
        <time>2021-06-25T19:05:17.000Z</time>
        <extensions>
          <ns3:TrackPointExtension>
            <ns3:atemp>27.0</ns3:atemp>
            <ns3:hr>92</ns3:hr>
          </ns3:TrackPointExtension>
        </extensions>
      </trkpt>
      <trkpt lat="36.76866087131202220916748046875" lon="-118.426394127309322357177734375">
        <ele>3301.39990234375</ele>
        <time>2021-06-25T19:05:20.000Z</time>
        <extensions>
          <ns3:TrackPointExtension>
            <ns3:atemp>27.0</ns3:atemp>
            <ns3:hr>93</ns3:hr>
          </ns3:TrackPointExtension>
        </extensions>
      </trkpt>
      <trkpt lat="36.76865735091269016265869140625" lon="-118.42637635767459869384765625">
        <ele>3301.199951171875</ele>
        <time>2021-06-25T19:05:22.000Z</time>
        <extensions>
          <ns3:TrackPointExtension>
            <ns3:atemp>27.0</ns3:atemp>
            <ns3:hr>94</ns3:hr>
          </ns3:TrackPointExtension>
        </extensions>
      </trkpt>
      <trkpt lat="36.7686617933213710784912109375" lon="-118.42636487446725368499755859375">
        <ele>3301</ele>
        <time>2021-06-25T19:05:23.000Z</time>
        <extensions>
          <ns3:TrackPointExtension>
            <ns3:atemp>27.0</ns3:atemp>
            <ns3:hr>94</ns3:hr>
          </ns3:TrackPointExtension>
        </extensions>
      </trkpt>
      <trkpt lat="36.76868216134607791900634765625" lon="-118.4263359569013118743896484375">
        <ele>3300.800048828125</ele>
        <time>2021-06-25T19:05:26.000Z</time>
        <extensions>
          <ns3:TrackPointExtension>
            <ns3:atemp>27.0</ns3:atemp>
            <ns3:hr>97</ns3:hr>
          </ns3:TrackPointExtension>
        </extensions>
      </trkpt>
      <trkpt lat="36.768689453601837158203125" lon="-118.42632849700748920440673828125">
        <ele>3300.60009765625</ele>
        <time>2021-06-25T19:05:27.000Z</time>
        <extensions>
          <ns3:TrackPointExtension>
            <ns3:atemp>27.0</ns3:atemp>
            <ns3:hr>94</ns3:hr>
          </ns3:TrackPointExtension>
        </extensions>
      </trkpt>
      <trkpt lat="36.76871133036911487579345703125" lon="-118.426288850605487823486328125">
        <ele>3299.800048828125</ele>
        <time>2021-06-25T19:05:32.000Z</time>
        <extensions>
          <ns3:TrackPointExtension>
            <ns3:atemp>27.0</ns3:atemp>
            <ns3:hr>97</ns3:hr>
          </ns3:TrackPointExtension>
        </extensions>
      </trkpt>
      <trkpt lat="36.768702529370784759521484375" lon="-118.426252305507659912109375">
        <ele>3299.60009765625</ele>
        <time>2021-06-25T19:05:35.000Z</time>
        <extensions>
          <ns3:TrackPointExtension>
            <ns3:atemp>27.0</ns3:atemp>
            <ns3:hr>98</ns3:hr>
          </ns3:TrackPointExtension>
        </extensions>
      </trkpt>
      <trkpt lat="36.76868568174540996551513671875" lon="-118.42621676623821258544921875">
        <ele>3299</ele>
        <time>2021-06-25T19:05:38.000Z</time>
        <extensions>
          <ns3:TrackPointExtension>
            <ns3:atemp>27.0</ns3:atemp>
            <ns3:hr>101</ns3:hr>
          </ns3:TrackPointExtension>
        </extensions>
      </trkpt>
      <trkpt lat="36.76867344416677951812744140625" lon="-118.42617452144622802734375">
        <ele>3298.800048828125</ele>
        <time>2021-06-25T19:05:41.000Z</time>
        <extensions>
          <ns3:TrackPointExtension>
            <ns3:atemp>27.0</ns3:atemp>
            <ns3:hr>101</ns3:hr>
          </ns3:TrackPointExtension>
        </extensions>
      </trkpt>
      <trkpt lat="36.7686765454709529876708984375" lon="-118.42616580426692962646484375">
        <ele>3298.60009765625</ele>
        <time>2021-06-25T19:05:42.000Z</time>
        <extensions>
          <ns3:TrackPointExtension>
            <ns3:atemp>27.0</ns3:atemp>
            <ns3:hr>101</ns3:hr>
          </ns3:TrackPointExtension>
        </extensions>
      </trkpt>
      <trkpt lat="36.768636815249919891357421875" lon="-118.42611861415207386016845703125">
        <ele>3298.60009765625</ele>
        <time>2021-06-25T19:05:47.000Z</time>
        <extensions>
          <ns3:TrackPointExtension>
            <ns3:atemp>27.0</ns3:atemp>
            <ns3:hr>100</ns3:hr>
          </ns3:TrackPointExtension>
        </extensions>
      </trkpt>
      <trkpt lat="36.76863647997379302978515625" lon="-118.42611023224890232086181640625">
        <ele>3298.800048828125</ele>
        <time>2021-06-25T19:05:48.000Z</time>
        <extensions>
          <ns3:TrackPointExtension>
            <ns3:atemp>27.0</ns3:atemp>
            <ns3:hr>100</ns3:hr>
          </ns3:TrackPointExtension>
        </extensions>
      </trkpt>
      <trkpt lat="36.76863471977412700653076171875" lon="-118.4260844998061656951904296875">
        <ele>3298.60009765625</ele>
        <time>2021-06-25T19:05:50.000Z</time>
        <extensions>
          <ns3:TrackPointExtension>
            <ns3:atemp>27.0</ns3:atemp>
            <ns3:hr>100</ns3:hr>
          </ns3:TrackPointExtension>
        </extensions>
      </trkpt>
      <trkpt lat="36.76862399093806743621826171875" lon="-118.42606765218079090118408203125">
        <ele>3298.60009765625</ele>
        <time>2021-06-25T19:05:52.000Z</time>
        <extensions>
          <ns3:TrackPointExtension>
            <ns3:atemp>27.0</ns3:atemp>
            <ns3:hr>101</ns3:hr>
          </ns3:TrackPointExtension>
        </extensions>
      </trkpt>
      <trkpt lat="36.7686054669320583343505859375" lon="-118.4260469488799571990966796875">
        <ele>3298.199951171875</ele>
        <time>2021-06-25T19:05:56.000Z</time>
        <extensions>
          <ns3:TrackPointExtension>
            <ns3:atemp>27.0</ns3:atemp>
            <ns3:hr>100</ns3:hr>
          </ns3:TrackPointExtension>
        </extensions>
      </trkpt>
      <trkpt lat="36.768600940704345703125" lon="-118.42603194527328014373779296875">
        <ele>3298.199951171875</ele>
        <time>2021-06-25T19:05:58.000Z</time>
        <extensions>
          <ns3:TrackPointExtension>
            <ns3:atemp>27.0</ns3:atemp>
            <ns3:hr>100</ns3:hr>
          </ns3:TrackPointExtension>
        </extensions>
      </trkpt>
      <trkpt lat="36.768593229353427886962890625" lon="-118.4260114096105098724365234375">
        <ele>3297.199951171875</ele>
        <time>2021-06-25T19:06:00.000Z</time>
        <extensions>
          <ns3:TrackPointExtension>
            <ns3:atemp>27.0</ns3:atemp>
            <ns3:hr>99</ns3:hr>
          </ns3:TrackPointExtension>
        </extensions>
      </trkpt>
      <trkpt lat="36.76857889629900455474853515625" lon="-118.42598333023488521575927734375">
        <ele>3296.60009765625</ele>
        <time>2021-06-25T19:06:05.000Z</time>
        <extensions>
          <ns3:TrackPointExtension>
            <ns3:atemp>27.0</ns3:atemp>
            <ns3:hr>98</ns3:hr>
          </ns3:TrackPointExtension>
        </extensions>
      </trkpt>
      <trkpt lat="36.7685746215283870697021484375" lon="-118.425979055464267730712890625">
        <ele>3296.60009765625</ele>
        <time>2021-06-25T19:06:06.000Z</time>
        <extensions>
          <ns3:TrackPointExtension>
            <ns3:atemp>27.0</ns3:atemp>
            <ns3:hr>97</ns3:hr>
          </ns3:TrackPointExtension>
        </extensions>
      </trkpt>
      <trkpt lat="36.76857168786227703094482421875" lon="-118.4259668178856372833251953125">
        <ele>3296.199951171875</ele>
        <time>2021-06-25T19:06:09.000Z</time>
        <extensions>
          <ns3:TrackPointExtension>
            <ns3:atemp>27.0</ns3:atemp>
            <ns3:hr>96</ns3:hr>
          </ns3:TrackPointExtension>
        </extensions>
      </trkpt>
      <trkpt lat="36.7685672454535961151123046875" lon="-118.42593781650066375732421875">
        <ele>3295.60009765625</ele>
        <time>2021-06-25T19:06:12.000Z</time>
        <extensions>
          <ns3:TrackPointExtension>
            <ns3:atemp>27.0</ns3:atemp>
            <ns3:hr>94</ns3:hr>
          </ns3:TrackPointExtension>
        </extensions>
      </trkpt>
      <trkpt lat="36.76855869591236114501953125" lon="-118.42590739019215106964111328125">
        <ele>3294.60009765625</ele>
        <time>2021-06-25T19:06:16.000Z</time>
        <extensions>
          <ns3:TrackPointExtension>
            <ns3:atemp>26.0</ns3:atemp>
            <ns3:hr>94</ns3:hr>
          </ns3:TrackPointExtension>
        </extensions>
      </trkpt>
      <trkpt lat="36.76856271922588348388671875" lon="-118.42589766718447208404541015625">
        <ele>3294.60009765625</ele>
        <time>2021-06-25T19:06:17.000Z</time>
        <extensions>
          <ns3:TrackPointExtension>
            <ns3:atemp>26.0</ns3:atemp>
            <ns3:hr>97</ns3:hr>
          </ns3:TrackPointExtension>
        </extensions>
      </trkpt>
      <trkpt lat="36.768562383949756622314453125" lon="-118.4258902072906494140625">
        <ele>3294.60009765625</ele>
        <time>2021-06-25T19:06:18.000Z</time>
        <extensions>
          <ns3:TrackPointExtension>
            <ns3:atemp>26.0</ns3:atemp>
            <ns3:hr>100</ns3:hr>
          </ns3:TrackPointExtension>
        </extensions>
      </trkpt>
      <trkpt lat="36.76855442114174365997314453125" lon="-118.4258781373500823974609375">
        <ele>3294.60009765625</ele>
        <time>2021-06-25T19:06:20.000Z</time>
        <extensions>
          <ns3:TrackPointExtension>
            <ns3:atemp>26.0</ns3:atemp>
            <ns3:hr>105</ns3:hr>
          </ns3:TrackPointExtension>
        </extensions>
      </trkpt>
      <trkpt lat="36.768496334552764892578125" lon="-118.42580630443990230560302734375">
        <ele>3293.39990234375</ele>
        <time>2021-06-25T19:06:25.000Z</time>
        <extensions>
          <ns3:TrackPointExtension>
            <ns3:atemp>26.0</ns3:atemp>
            <ns3:hr>106</ns3:hr>
          </ns3:TrackPointExtension>
        </extensions>
      </trkpt>
      <trkpt lat="36.7684837616980075836181640625" lon="-118.425793983042240142822265625">
        <ele>3293</ele>
        <time>2021-06-25T19:06:26.000Z</time>
        <extensions>
          <ns3:TrackPointExtension>
            <ns3:atemp>26.0</ns3:atemp>
            <ns3:hr>106</ns3:hr>
          </ns3:TrackPointExtension>
        </extensions>
      </trkpt>
      <trkpt lat="36.7684737034142017364501953125" lon="-118.4257918037474155426025390625">
        <ele>3292.800048828125</ele>
        <time>2021-06-25T19:06:27.000Z</time>
        <extensions>
          <ns3:TrackPointExtension>
            <ns3:atemp>26.0</ns3:atemp>
            <ns3:hr>108</ns3:hr>
          </ns3:TrackPointExtension>
        </extensions>
      </trkpt>
      <trkpt lat="36.76847060211002826690673828125" lon="-118.4257762134075164794921875">
        <ele>3292</ele>
        <time>2021-06-25T19:06:34.000Z</time>
        <extensions>
          <ns3:TrackPointExtension>
            <ns3:atemp>26.0</ns3:atemp>
            <ns3:hr>107</ns3:hr>
          </ns3:TrackPointExtension>
        </extensions>
      </trkpt>
      <trkpt lat="36.7684619687497615814208984375" lon="-118.42578719370067119598388671875">
        <ele>3291.800048828125</ele>
        <time>2021-06-25T19:06:39.000Z</time>
        <extensions>
          <ns3:TrackPointExtension>
            <ns3:atemp>26.0</ns3:atemp>
            <ns3:hr>111</ns3:hr>
          </ns3:TrackPointExtension>
        </extensions>
      </trkpt>
      <trkpt lat="36.76845501177012920379638671875" lon="-118.42576540075242519378662109375">
        <ele>3291.39990234375</ele>
        <time>2021-06-25T19:06:45.000Z</time>
        <extensions>
          <ns3:TrackPointExtension>
            <ns3:atemp>26.0</ns3:atemp>
            <ns3:hr>111</ns3:hr>
          </ns3:TrackPointExtension>
        </extensions>
      </trkpt>
      <trkpt lat="36.76845501177012920379638671875" lon="-118.42576540075242519378662109375">
        <ele>3291.39990234375</ele>
        <time>2021-06-25T19:06:51.000Z</time>
        <extensions>
          <ns3:TrackPointExtension>
            <ns3:atemp>26.0</ns3:atemp>
            <ns3:hr>114</ns3:hr>
          </ns3:TrackPointExtension>
        </extensions>
      </trkpt>
      <trkpt lat="36.76845501177012920379638671875" lon="-118.42576556839048862457275390625">
        <ele>3290.800048828125</ele>
        <time>2021-06-25T19:06:53.000Z</time>
        <extensions>
          <ns3:TrackPointExtension>
            <ns3:atemp>26.0</ns3:atemp>
            <ns3:hr>112</ns3:hr>
          </ns3:TrackPointExtension>
        </extensions>
      </trkpt>
      <trkpt lat="36.76845702342689037322998046875" lon="-118.4257777221500873565673828125">
        <ele>3290.199951171875</ele>
        <time>2021-06-25T19:06:59.000Z</time>
        <extensions>
          <ns3:TrackPointExtension>
            <ns3:atemp>26.0</ns3:atemp>
            <ns3:hr>109</ns3:hr>
          </ns3:TrackPointExtension>
        </extensions>
      </trkpt>
      <trkpt lat="36.7684589512646198272705078125" lon="-118.42577814124524593353271484375">
        <ele>3290.39990234375</ele>
        <time>2021-06-25T19:07:02.000Z</time>
        <extensions>
          <ns3:TrackPointExtension>
            <ns3:atemp>26.0</ns3:atemp>
            <ns3:hr>106</ns3:hr>
          </ns3:TrackPointExtension>
        </extensions>
      </trkpt>
      <trkpt lat="36.76846121437847614288330078125" lon="-118.42577847652137279510498046875">
        <ele>3290.39990234375</ele>
        <time>2021-06-25T19:07:05.000Z</time>
        <extensions>
          <ns3:TrackPointExtension>
            <ns3:atemp>26.0</ns3:atemp>
            <ns3:hr>103</ns3:hr>
          </ns3:TrackPointExtension>
        </extensions>
      </trkpt>
      <trkpt lat="36.7684633098542690277099609375" lon="-118.42577797360718250274658203125">
        <ele>3290.39990234375</ele>
        <time>2021-06-25T19:07:15.000Z</time>
        <extensions>
          <ns3:TrackPointExtension>
            <ns3:atemp>26.0</ns3:atemp>
            <ns3:hr>100</ns3:hr>
          </ns3:TrackPointExtension>
        </extensions>
      </trkpt>
      <trkpt lat="36.76846339367330074310302734375" lon="-118.42577026225626468658447265625">
        <ele>3290.800048828125</ele>
        <time>2021-06-25T19:07:33.000Z</time>
        <extensions>
          <ns3:TrackPointExtension>
            <ns3:atemp>26.0</ns3:atemp>
            <ns3:hr>97</ns3:hr>
          </ns3:TrackPointExtension>
        </extensions>
      </trkpt>
      <trkpt lat="36.76845601759850978851318359375" lon="-118.42576808296144008636474609375">
        <ele>3290.39990234375</ele>
        <time>2021-06-25T19:07:47.000Z</time>
        <extensions>
          <ns3:TrackPointExtension>
            <ns3:atemp>26.0</ns3:atemp>
            <ns3:hr>94</ns3:hr>
          </ns3:TrackPointExtension>
        </extensions>
      </trkpt>
      <trkpt lat="36.76845467649400234222412109375" lon="-118.42576808296144008636474609375">
        <ele>3290.39990234375</ele>
        <time>2021-06-25T19:07:49.000Z</time>
        <extensions>
          <ns3:TrackPointExtension>
            <ns3:atemp>26.0</ns3:atemp>
            <ns3:hr>91</ns3:hr>
          </ns3:TrackPointExtension>
        </extensions>
      </trkpt>
      <trkpt lat="36.76845400594174861907958984375" lon="-118.425769843161106109619140625">
        <ele>3290.800048828125</ele>
        <time>2021-06-25T19:07:51.000Z</time>
        <extensions>
          <ns3:TrackPointExtension>
            <ns3:atemp>26.0</ns3:atemp>
            <ns3:hr>88</ns3:hr>
          </ns3:TrackPointExtension>
        </extensions>
      </trkpt>
      <trkpt lat="36.76845165900886058807373046875" lon="-118.42577663250267505645751953125">
        <ele>3290.800048828125</ele>
        <time>2021-06-25T19:07:54.000Z</time>
        <extensions>
          <ns3:TrackPointExtension>
            <ns3:atemp>26.0</ns3:atemp>
            <ns3:hr>85</ns3:hr>
          </ns3:TrackPointExtension>
        </extensions>
      </trkpt>
      <trkpt lat="36.7684441991150379180908203125" lon="-118.42579054646193981170654296875">
        <ele>3291</ele>
        <time>2021-06-25T19:07:57.000Z</time>
        <extensions>
          <ns3:TrackPointExtension>
            <ns3:atemp>26.0</ns3:atemp>
            <ns3:hr>82</ns3:hr>
          </ns3:TrackPointExtension>
        </extensions>
      </trkpt>
      <trkpt lat="36.76843263208866119384765625" lon="-118.425808064639568328857421875">
        <ele>3291</ele>
        <time>2021-06-25T19:08:01.000Z</time>
        <extensions>
          <ns3:TrackPointExtension>
            <ns3:atemp>26.0</ns3:atemp>
            <ns3:hr>79</ns3:hr>
          </ns3:TrackPointExtension>
        </extensions>
      </trkpt>
      <trkpt lat="36.7684281058609485626220703125" lon="-118.425809405744075775146484375">
        <ele>3290.800048828125</ele>
        <time>2021-06-25T19:08:09.000Z</time>
        <extensions>
          <ns3:TrackPointExtension>
            <ns3:atemp>26.0</ns3:atemp>
            <ns3:hr>82</ns3:hr>
          </ns3:TrackPointExtension>
        </extensions>
      </trkpt>
      <trkpt lat="36.7684281058609485626220703125" lon="-118.425809405744075775146484375">
        <ele>3290.800048828125</ele>
        <time>2021-06-25T19:08:13.000Z</time>
        <extensions>
          <ns3:TrackPointExtension>
            <ns3:atemp>26.0</ns3:atemp>
            <ns3:hr>85</ns3:hr>
          </ns3:TrackPointExtension>
        </extensions>
      </trkpt>
      <trkpt lat="36.7684284411370754241943359375" lon="-118.425809405744075775146484375">
        <ele>3290.800048828125</ele>
        <time>2021-06-25T19:08:15.000Z</time>
        <extensions>
          <ns3:TrackPointExtension>
            <ns3:atemp>26.0</ns3:atemp>
            <ns3:hr>88</ns3:hr>
          </ns3:TrackPointExtension>
        </extensions>
      </trkpt>
      <trkpt lat="36.768429279327392578125" lon="-118.4258092381060123443603515625">
        <ele>3290.800048828125</ele>
        <time>2021-06-25T19:08:17.000Z</time>
        <extensions>
          <ns3:TrackPointExtension>
            <ns3:atemp>26.0</ns3:atemp>
            <ns3:hr>91</ns3:hr>
          </ns3:TrackPointExtension>
        </extensions>
      </trkpt>
      <trkpt lat="36.76843372173607349395751953125" lon="-118.425780236721038818359375">
        <ele>3291.199951171875</ele>
        <time>2021-06-25T19:08:27.000Z</time>
        <extensions>
          <ns3:TrackPointExtension>
            <ns3:atemp>26.0</ns3:atemp>
            <ns3:hr>88</ns3:hr>
          </ns3:TrackPointExtension>
        </extensions>
      </trkpt>
      <trkpt lat="36.76843472756445407867431640625" lon="-118.42577814124524593353271484375">
        <ele>3291.199951171875</ele>
        <time>2021-06-25T19:08:30.000Z</time>
        <extensions>
          <ns3:TrackPointExtension>
            <ns3:atemp>26.0</ns3:atemp>
            <ns3:hr>85</ns3:hr>
          </ns3:TrackPointExtension>
        </extensions>
      </trkpt>
      <trkpt lat="36.7684354819357395172119140625" lon="-118.42577763833105564117431640625">
        <ele>3291</ele>
        <time>2021-06-25T19:08:35.000Z</time>
        <extensions>
          <ns3:TrackPointExtension>
            <ns3:atemp>26.0</ns3:atemp>
            <ns3:hr>82</ns3:hr>
          </ns3:TrackPointExtension>
        </extensions>
      </trkpt>
      <trkpt lat="36.7684378288686275482177734375" lon="-118.42579297721385955810546875">
        <ele>3291</ele>
        <time>2021-06-25T19:08:59.000Z</time>
        <extensions>
          <ns3:TrackPointExtension>
            <ns3:atemp>26.0</ns3:atemp>
            <ns3:hr>79</ns3:hr>
          </ns3:TrackPointExtension>
        </extensions>
      </trkpt>
      <trkpt lat="36.76844025962054729461669921875" lon="-118.42579473741352558135986328125">
        <ele>3291</ele>
        <time>2021-06-25T19:09:06.000Z</time>
        <extensions>
          <ns3:TrackPointExtension>
            <ns3:atemp>26.0</ns3:atemp>
            <ns3:hr>82</ns3:hr>
          </ns3:TrackPointExtension>
        </extensions>
      </trkpt>
      <trkpt lat="36.76844067871570587158203125" lon="-118.4257948212325572967529296875">
        <ele>3291</ele>
        <time>2021-06-25T19:09:08.000Z</time>
        <extensions>
          <ns3:TrackPointExtension>
            <ns3:atemp>26.0</ns3:atemp>
            <ns3:hr>85</ns3:hr>
          </ns3:TrackPointExtension>
        </extensions>
      </trkpt>
      <trkpt lat="36.76844176836311817169189453125" lon="-118.42579356394708156585693359375">
        <ele>3291.199951171875</ele>
        <time>2021-06-25T19:09:11.000Z</time>
        <extensions>
          <ns3:TrackPointExtension>
            <ns3:atemp>26.0</ns3:atemp>
            <ns3:hr>88</ns3:hr>
          </ns3:TrackPointExtension>
        </extensions>
      </trkpt>
      <trkpt lat="36.7684455402195453643798828125" lon="-118.42577663250267505645751953125">
        <ele>3289.800048828125</ele>
        <time>2021-06-25T19:09:45.000Z</time>
        <extensions>
          <ns3:TrackPointExtension>
            <ns3:atemp>27.0</ns3:atemp>
            <ns3:hr>87</ns3:hr>
          </ns3:TrackPointExtension>
        </extensions>
      </trkpt>
      <trkpt lat="36.76844537258148193359375" lon="-118.42577663250267505645751953125">
        <ele>3288.39990234375</ele>
        <time>2021-06-25T19:09:51.000Z</time>
        <extensions>
          <ns3:TrackPointExtension>
            <ns3:atemp>26.0</ns3:atemp>
            <ns3:hr>86</ns3:hr>
          </ns3:TrackPointExtension>
        </extensions>
      </trkpt>
      <trkpt lat="36.76844227127730846405029296875" lon="-118.4257666580379009246826171875">
        <ele>3287.60009765625</ele>
        <time>2021-06-25T19:09:58.000Z</time>
        <extensions>
          <ns3:TrackPointExtension>
            <ns3:atemp>26.0</ns3:atemp>
            <ns3:hr>91</ns3:hr>
          </ns3:TrackPointExtension>
        </extensions>
      </trkpt>
      <trkpt lat="36.76843464374542236328125" lon="-118.42574947513639926910400390625">
        <ele>3287.39990234375</ele>
        <time>2021-06-25T19:09:59.000Z</time>
        <extensions>
          <ns3:TrackPointExtension>
            <ns3:atemp>26.0</ns3:atemp>
            <ns3:hr>94</ns3:hr>
          </ns3:TrackPointExtension>
        </extensions>
      </trkpt>
      <trkpt lat="36.7684334702789783477783203125" lon="-118.42573639936745166778564453125">
        <ele>3287.199951171875</ele>
        <time>2021-06-25T19:10:00.000Z</time>
        <extensions>
          <ns3:TrackPointExtension>
            <ns3:atemp>26.0</ns3:atemp>
            <ns3:hr>97</ns3:hr>
          </ns3:TrackPointExtension>
        </extensions>
      </trkpt>
      <trkpt lat="36.76843238063156604766845703125" lon="-118.4257244132459163665771484375">
        <ele>3287.199951171875</ele>
        <time>2021-06-25T19:10:01.000Z</time>
        <extensions>
          <ns3:TrackPointExtension>
            <ns3:atemp>26.0</ns3:atemp>
            <ns3:hr>100</ns3:hr>
          </ns3:TrackPointExtension>
        </extensions>
      </trkpt>
      <trkpt lat="36.7684297822415828704833984375" lon="-118.42571393586695194244384765625">
        <ele>3287</ele>
        <time>2021-06-25T19:10:02.000Z</time>
        <extensions>
          <ns3:TrackPointExtension>
            <ns3:atemp>26.0</ns3:atemp>
            <ns3:hr>103</ns3:hr>
          </ns3:TrackPointExtension>
        </extensions>
      </trkpt>
      <trkpt lat="36.7684371583163738250732421875" lon="-118.425686694681644439697265625">
        <ele>3286.39990234375</ele>
        <time>2021-06-25T19:10:04.000Z</time>
        <extensions>
          <ns3:TrackPointExtension>
            <ns3:atemp>26.0</ns3:atemp>
            <ns3:hr>106</ns3:hr>
          </ns3:TrackPointExtension>
        </extensions>
      </trkpt>
      <trkpt lat="36.7684415169060230255126953125" lon="-118.4256727807223796844482421875">
        <ele>3286.199951171875</ele>
        <time>2021-06-25T19:10:05.000Z</time>
        <extensions>
          <ns3:TrackPointExtension>
            <ns3:atemp>26.0</ns3:atemp>
            <ns3:hr>107</ns3:hr>
          </ns3:TrackPointExtension>
        </extensions>
      </trkpt>
      <trkpt lat="36.7684440314769744873046875" lon="-118.4256610460579395294189453125">
        <ele>3286</ele>
        <time>2021-06-25T19:10:06.000Z</time>
        <extensions>
          <ns3:TrackPointExtension>
            <ns3:atemp>26.0</ns3:atemp>
            <ns3:hr>108</ns3:hr>
          </ns3:TrackPointExtension>
        </extensions>
      </trkpt>
      <trkpt lat="36.76845836453139781951904296875" lon="-118.425620980560779571533203125">
        <ele>3285.800048828125</ele>
        <time>2021-06-25T19:10:10.000Z</time>
        <extensions>
          <ns3:TrackPointExtension>
            <ns3:atemp>26.0</ns3:atemp>
            <ns3:hr>108</ns3:hr>
          </ns3:TrackPointExtension>
        </extensions>
      </trkpt>
      <trkpt lat="36.76846389658749103546142578125" lon="-118.425611592829227447509765625">
        <ele>3285</ele>
        <time>2021-06-25T19:10:11.000Z</time>
        <extensions>
          <ns3:TrackPointExtension>
            <ns3:atemp>26.0</ns3:atemp>
            <ns3:hr>108</ns3:hr>
          </ns3:TrackPointExtension>
        </extensions>
      </trkpt>
      <trkpt lat="36.7684743739664554595947265625" lon="-118.4255993552505970001220703125">
        <ele>3284</ele>
        <time>2021-06-25T19:10:16.000Z</time>
        <extensions>
          <ns3:TrackPointExtension>
            <ns3:atemp>26.0</ns3:atemp>
            <ns3:hr>109</ns3:hr>
          </ns3:TrackPointExtension>
        </extensions>
      </trkpt>
      <trkpt lat="36.76847378723323345184326171875" lon="-118.4255856089293956756591796875">
        <ele>3283.800048828125</ele>
        <time>2021-06-25T19:10:17.000Z</time>
        <extensions>
          <ns3:TrackPointExtension>
            <ns3:atemp>26.0</ns3:atemp>
            <ns3:hr>107</ns3:hr>
          </ns3:TrackPointExtension>
        </extensions>
      </trkpt>
      <trkpt lat="36.768475882709026336669921875" lon="-118.425560295581817626953125">
        <ele>3283</ele>
        <time>2021-06-25T19:10:21.000Z</time>
        <extensions>
          <ns3:TrackPointExtension>
            <ns3:atemp>26.0</ns3:atemp>
            <ns3:hr>104</ns3:hr>
          </ns3:TrackPointExtension>
        </extensions>
      </trkpt>
      <trkpt lat="36.7684770561754703521728515625" lon="-118.4255621396005153656005859375">
        <ele>3282.800048828125</ele>
        <time>2021-06-25T19:10:22.000Z</time>
        <extensions>
          <ns3:TrackPointExtension>
            <ns3:atemp>26.0</ns3:atemp>
            <ns3:hr>103</ns3:hr>
          </ns3:TrackPointExtension>
        </extensions>
      </trkpt>
      <trkpt lat="36.76848602481186389923095703125" lon="-118.4255651570856571197509765625">
        <ele>3282</ele>
        <time>2021-06-25T19:10:25.000Z</time>
        <extensions>
          <ns3:TrackPointExtension>
            <ns3:atemp>26.0</ns3:atemp>
            <ns3:hr>103</ns3:hr>
          </ns3:TrackPointExtension>
        </extensions>
      </trkpt>
      <trkpt lat="36.76849298179149627685546875" lon="-118.425559289753437042236328125">
        <ele>3281.800048828125</ele>
        <time>2021-06-25T19:10:26.000Z</time>
        <extensions>
          <ns3:TrackPointExtension>
            <ns3:atemp>26.0</ns3:atemp>
            <ns3:hr>101</ns3:hr>
          </ns3:TrackPointExtension>
        </extensions>
      </trkpt>
      <trkpt lat="36.76849423907697200775146484375" lon="-118.42551277019083499908447265625">
        <ele>3280.60009765625</ele>
        <time>2021-06-25T19:10:31.000Z</time>
        <extensions>
          <ns3:TrackPointExtension>
            <ns3:atemp>26.0</ns3:atemp>
            <ns3:hr>102</ns3:hr>
          </ns3:TrackPointExtension>
        </extensions>
      </trkpt>
      <trkpt lat="36.76849071867763996124267578125" lon="-118.42550220899283885955810546875">
        <ele>3280.60009765625</ele>
        <time>2021-06-25T19:10:32.000Z</time>
        <extensions>
          <ns3:TrackPointExtension>
            <ns3:atemp>26.0</ns3:atemp>
            <ns3:hr>103</ns3:hr>
          </ns3:TrackPointExtension>
        </extensions>
      </trkpt>
      <trkpt lat="36.768471859395503997802734375" lon="-118.42548108659684658050537109375">
        <ele>3279.39990234375</ele>
        <time>2021-06-25T19:10:36.000Z</time>
        <extensions>
          <ns3:TrackPointExtension>
            <ns3:atemp>26.0</ns3:atemp>
            <ns3:hr>103</ns3:hr>
          </ns3:TrackPointExtension>
        </extensions>
      </trkpt>
      <trkpt lat="36.7684616334736347198486328125" lon="-118.42546113766729831695556640625">
        <ele>3279</ele>
        <time>2021-06-25T19:10:39.000Z</time>
        <extensions>
          <ns3:TrackPointExtension>
            <ns3:atemp>26.0</ns3:atemp>
            <ns3:hr>102</ns3:hr>
          </ns3:TrackPointExtension>
        </extensions>
      </trkpt>
      <trkpt lat="36.76846087910234928131103515625" lon="-118.4254561923444271087646484375">
        <ele>3278.60009765625</ele>
        <time>2021-06-25T19:10:41.000Z</time>
        <extensions>
          <ns3:TrackPointExtension>
            <ns3:atemp>26.0</ns3:atemp>
            <ns3:hr>102</ns3:hr>
          </ns3:TrackPointExtension>
        </extensions>
      </trkpt>
      <trkpt lat="36.7684633098542690277099609375" lon="-118.42545635998249053955078125">
        <ele>3278.39990234375</ele>
        <time>2021-06-25T19:10:42.000Z</time>
        <extensions>
          <ns3:TrackPointExtension>
            <ns3:atemp>26.0</ns3:atemp>
            <ns3:hr>103</ns3:hr>
          </ns3:TrackPointExtension>
        </extensions>
      </trkpt>
      <trkpt lat="36.76846808753907680511474609375" lon="-118.42545493505895137786865234375">
        <ele>3277.60009765625</ele>
        <time>2021-06-25T19:10:44.000Z</time>
        <extensions>
          <ns3:TrackPointExtension>
            <ns3:atemp>26.0</ns3:atemp>
            <ns3:hr>102</ns3:hr>
          </ns3:TrackPointExtension>
        </extensions>
      </trkpt>
      <trkpt lat="36.768476553261280059814453125" lon="-118.42543984763324260711669921875">
        <ele>3277.39990234375</ele>
        <time>2021-06-25T19:10:47.000Z</time>
        <extensions>
          <ns3:TrackPointExtension>
            <ns3:atemp>26.0</ns3:atemp>
            <ns3:hr>99</ns3:hr>
          </ns3:TrackPointExtension>
        </extensions>
      </trkpt>
      <trkpt lat="36.768474541604518890380859375" lon="-118.42542015016078948974609375">
        <ele>3277.39990234375</ele>
        <time>2021-06-25T19:10:50.000Z</time>
        <extensions>
          <ns3:TrackPointExtension>
            <ns3:atemp>26.0</ns3:atemp>
            <ns3:hr>99</ns3:hr>
          </ns3:TrackPointExtension>
        </extensions>
      </trkpt>
      <trkpt lat="36.7684693448245525360107421875" lon="-118.42540531419217586517333984375">
        <ele>3277.199951171875</ele>
        <time>2021-06-25T19:10:52.000Z</time>
        <extensions>
          <ns3:TrackPointExtension>
            <ns3:atemp>26.0</ns3:atemp>
            <ns3:hr>99</ns3:hr>
          </ns3:TrackPointExtension>
        </extensions>
      </trkpt>
      <trkpt lat="36.76848552189767360687255859375" lon="-118.4253980219364166259765625">
        <ele>3276.199951171875</ele>
        <time>2021-06-25T19:10:56.000Z</time>
        <extensions>
          <ns3:TrackPointExtension>
            <ns3:atemp>26.0</ns3:atemp>
            <ns3:hr>98</ns3:hr>
          </ns3:TrackPointExtension>
        </extensions>
      </trkpt>
      <trkpt lat="36.7684887908399105072021484375" lon="-118.42539475299417972564697265625">
        <ele>3275.800048828125</ele>
        <time>2021-06-25T19:10:58.000Z</time>
        <extensions>
          <ns3:TrackPointExtension>
            <ns3:atemp>26.0</ns3:atemp>
            <ns3:hr>96</ns3:hr>
          </ns3:TrackPointExtension>
        </extensions>
      </trkpt>
      <trkpt lat="36.76848786883056163787841796875" lon="-118.4253730438649654388427734375">
        <ele>3275.39990234375</ele>
        <time>2021-06-25T19:11:02.000Z</time>
        <extensions>
          <ns3:TrackPointExtension>
            <ns3:atemp>26.0</ns3:atemp>
            <ns3:hr>93</ns3:hr>
          </ns3:TrackPointExtension>
        </extensions>
      </trkpt>
      <trkpt lat="36.768487282097339630126953125" lon="-118.42537262476980686187744140625">
        <ele>3275</ele>
        <time>2021-06-25T19:11:03.000Z</time>
        <extensions>
          <ns3:TrackPointExtension>
            <ns3:atemp>26.0</ns3:atemp>
            <ns3:hr>92</ns3:hr>
          </ns3:TrackPointExtension>
        </extensions>
      </trkpt>
      <trkpt lat="36.76848300732672214508056640625" lon="-118.425367176532745361328125">
        <ele>3274.199951171875</ele>
        <time>2021-06-25T19:11:06.000Z</time>
        <extensions>
          <ns3:TrackPointExtension>
            <ns3:atemp>26.0</ns3:atemp>
            <ns3:hr>91</ns3:hr>
          </ns3:TrackPointExtension>
        </extensions>
      </trkpt>
      <trkpt lat="36.76848418079316616058349609375" lon="-118.42535435222089290618896484375">
        <ele>3273.60009765625</ele>
        <time>2021-06-25T19:11:09.000Z</time>
        <extensions>
          <ns3:TrackPointExtension>
            <ns3:atemp>26.0</ns3:atemp>
            <ns3:hr>93</ns3:hr>
          </ns3:TrackPointExtension>
        </extensions>
      </trkpt>
      <trkpt lat="36.7684844322502613067626953125" lon="-118.4253364987671375274658203125">
        <ele>3272</ele>
        <time>2021-06-25T19:11:13.000Z</time>
        <extensions>
          <ns3:TrackPointExtension>
            <ns3:atemp>26.0</ns3:atemp>
            <ns3:hr>90</ns3:hr>
          </ns3:TrackPointExtension>
        </extensions>
      </trkpt>
      <trkpt lat="36.7685025371611118316650390625" lon="-118.4253026358783245086669921875">
        <ele>3271.199951171875</ele>
        <time>2021-06-25T19:11:19.000Z</time>
        <extensions>
          <ns3:TrackPointExtension>
            <ns3:atemp>26.0</ns3:atemp>
            <ns3:hr>90</ns3:hr>
          </ns3:TrackPointExtension>
        </extensions>
      </trkpt>
      <trkpt lat="36.76850966177880764007568359375" lon="-118.42528696171939373016357421875">
        <ele>3270.60009765625</ele>
        <time>2021-06-25T19:11:21.000Z</time>
        <extensions>
          <ns3:TrackPointExtension>
            <ns3:atemp>27.0</ns3:atemp>
            <ns3:hr>89</ns3:hr>
          </ns3:TrackPointExtension>
        </extensions>
      </trkpt>
      <trkpt lat="36.7685110867023468017578125" lon="-118.4252909012138843536376953125">
        <ele>3269.60009765625</ele>
        <time>2021-06-25T19:11:24.000Z</time>
        <extensions>
          <ns3:TrackPointExtension>
            <ns3:atemp>27.0</ns3:atemp>
            <ns3:hr>89</ns3:hr>
          </ns3:TrackPointExtension>
        </extensions>
      </trkpt>
      <trkpt lat="36.768517792224884033203125" lon="-118.4252719581127166748046875">
        <ele>3269.39990234375</ele>
        <time>2021-06-25T19:11:27.000Z</time>
        <extensions>
          <ns3:TrackPointExtension>
            <ns3:atemp>27.0</ns3:atemp>
            <ns3:hr>90</ns3:hr>
          </ns3:TrackPointExtension>
        </extensions>
      </trkpt>
      <trkpt lat="36.76852927543222904205322265625" lon="-118.4252624027431011199951171875">
        <ele>3268.60009765625</ele>
        <time>2021-06-25T19:11:31.000Z</time>
        <extensions>
          <ns3:TrackPointExtension>
            <ns3:atemp>27.0</ns3:atemp>
            <ns3:hr>91</ns3:hr>
          </ns3:TrackPointExtension>
        </extensions>
      </trkpt>
      <trkpt lat="36.76854184828698635101318359375" lon="-118.4252550266683101654052734375">
        <ele>3268.199951171875</ele>
        <time>2021-06-25T19:11:33.000Z</time>
        <extensions>
          <ns3:TrackPointExtension>
            <ns3:atemp>27.0</ns3:atemp>
            <ns3:hr>92</ns3:hr>
          </ns3:TrackPointExtension>
        </extensions>
      </trkpt>
      <trkpt lat="36.76854704506695270538330078125" lon="-118.42525159008800983428955078125">
        <ele>3268</ele>
        <time>2021-06-25T19:11:36.000Z</time>
        <extensions>
          <ns3:TrackPointExtension>
            <ns3:atemp>27.0</ns3:atemp>
            <ns3:hr>95</ns3:hr>
          </ns3:TrackPointExtension>
        </extensions>
      </trkpt>
      <trkpt lat="36.76854805089533329010009765625" lon="-118.425246812403202056884765625">
        <ele>3268</ele>
        <time>2021-06-25T19:11:37.000Z</time>
        <extensions>
          <ns3:TrackPointExtension>
            <ns3:atemp>27.0</ns3:atemp>
            <ns3:hr>92</ns3:hr>
          </ns3:TrackPointExtension>
        </extensions>
      </trkpt>
      <trkpt lat="36.76855006255209445953369140625" lon="-118.425240777432918548583984375">
        <ele>3267.800048828125</ele>
        <time>2021-06-25T19:11:40.000Z</time>
        <extensions>
          <ns3:TrackPointExtension>
            <ns3:atemp>27.0</ns3:atemp>
            <ns3:hr>92</ns3:hr>
          </ns3:TrackPointExtension>
        </extensions>
      </trkpt>
      <trkpt lat="36.7685578577220439910888671875" lon="-118.4252278693020343780517578125">
        <ele>3267.800048828125</ele>
        <time>2021-06-25T19:11:42.000Z</time>
        <extensions>
          <ns3:TrackPointExtension>
            <ns3:atemp>27.0</ns3:atemp>
            <ns3:hr>94</ns3:hr>
          </ns3:TrackPointExtension>
        </extensions>
      </trkpt>
      <trkpt lat="36.76855995319783687591552734375" lon="-118.42521856538951396942138671875">
        <ele>3267.39990234375</ele>
        <time>2021-06-25T19:11:44.000Z</time>
        <extensions>
          <ns3:TrackPointExtension>
            <ns3:atemp>27.0</ns3:atemp>
            <ns3:hr>95</ns3:hr>
          </ns3:TrackPointExtension>
        </extensions>
      </trkpt>
      <trkpt lat="36.768597252666950225830078125" lon="-118.4251805953681468963623046875">
        <ele>3266.199951171875</ele>
        <time>2021-06-25T19:11:51.000Z</time>
        <extensions>
          <ns3:TrackPointExtension>
            <ns3:atemp>27.0</ns3:atemp>
            <ns3:hr>95</ns3:hr>
          </ns3:TrackPointExtension>
        </extensions>
      </trkpt>
      <trkpt lat="36.76859817467629909515380859375" lon="-118.42518269084393978118896484375">
        <ele>3266.199951171875</ele>
        <time>2021-06-25T19:11:52.000Z</time>
        <extensions>
          <ns3:TrackPointExtension>
            <ns3:atemp>27.0</ns3:atemp>
            <ns3:hr>95</ns3:hr>
          </ns3:TrackPointExtension>
        </extensions>
      </trkpt>
      <trkpt lat="36.76865701563656330108642578125" lon="-118.4251544438302516937255859375">
        <ele>3265.39990234375</ele>
        <time>2021-06-25T19:12:00.000Z</time>
        <extensions>
          <ns3:TrackPointExtension>
            <ns3:atemp>27.0</ns3:atemp>
            <ns3:hr>95</ns3:hr>
          </ns3:TrackPointExtension>
        </extensions>
      </trkpt>
      <trkpt lat="36.7686678282916545867919921875" lon="-118.4251095168292522430419921875">
        <ele>3264.199951171875</ele>
        <time>2021-06-25T19:12:04.000Z</time>
        <extensions>
          <ns3:TrackPointExtension>
            <ns3:atemp>27.0</ns3:atemp>
            <ns3:hr>93</ns3:hr>
          </ns3:TrackPointExtension>
        </extensions>
      </trkpt>
      <trkpt lat="36.76865584217011928558349609375" lon="-118.42508194036781787872314453125">
        <ele>3263.60009765625</ele>
        <time>2021-06-25T19:12:07.000Z</time>
        <extensions>
          <ns3:TrackPointExtension>
            <ns3:atemp>27.0</ns3:atemp>
            <ns3:hr>90</ns3:hr>
          </ns3:TrackPointExtension>
        </extensions>
      </trkpt>
      <trkpt lat="36.7686467058956623077392578125" lon="-118.425071127712726593017578125">
        <ele>3263.39990234375</ele>
        <time>2021-06-25T19:12:08.000Z</time>
        <extensions>
          <ns3:TrackPointExtension>
            <ns3:atemp>27.0</ns3:atemp>
            <ns3:hr>89</ns3:hr>
          </ns3:TrackPointExtension>
        </extensions>
      </trkpt>
      <trkpt lat="36.76863270811736583709716796875" lon="-118.42504874803125858306884765625">
        <ele>3263.199951171875</ele>
        <time>2021-06-25T19:12:10.000Z</time>
        <extensions>
          <ns3:TrackPointExtension>
            <ns3:atemp>27.0</ns3:atemp>
            <ns3:hr>89</ns3:hr>
          </ns3:TrackPointExtension>
        </extensions>
      </trkpt>
      <trkpt lat="36.76862717606127262115478515625" lon="-118.42503751628100872039794921875">
        <ele>3262.800048828125</ele>
        <time>2021-06-25T19:12:11.000Z</time>
        <extensions>
          <ns3:TrackPointExtension>
            <ns3:atemp>27.0</ns3:atemp>
            <ns3:hr>89</ns3:hr>
          </ns3:TrackPointExtension>
        </extensions>
      </trkpt>
      <trkpt lat="36.76863052882254123687744140625" lon="-118.425038270652294158935546875">
        <ele>3262.39990234375</ele>
        <time>2021-06-25T19:12:15.000Z</time>
        <extensions>
          <ns3:TrackPointExtension>
            <ns3:atemp>27.0</ns3:atemp>
            <ns3:hr>87</ns3:hr>
          </ns3:TrackPointExtension>
        </extensions>
      </trkpt>
      <trkpt lat="36.76863254047930240631103515625" lon="-118.42503282241523265838623046875">
        <ele>3262.199951171875</ele>
        <time>2021-06-25T19:12:16.000Z</time>
        <extensions>
          <ns3:TrackPointExtension>
            <ns3:atemp>27.0</ns3:atemp>
            <ns3:hr>87</ns3:hr>
          </ns3:TrackPointExtension>
        </extensions>
      </trkpt>
      <trkpt lat="36.76862650550901889801025390625" lon="-118.425016142427921295166015625">
        <ele>3261.800048828125</ele>
        <time>2021-06-25T19:12:18.000Z</time>
        <extensions>
          <ns3:TrackPointExtension>
            <ns3:atemp>27.0</ns3:atemp>
            <ns3:hr>87</ns3:hr>
          </ns3:TrackPointExtension>
        </extensions>
      </trkpt>
      <trkpt lat="36.76861770451068878173828125" lon="-118.4249995462596416473388671875">
        <ele>3261.199951171875</ele>
        <time>2021-06-25T19:12:20.000Z</time>
        <extensions>
          <ns3:TrackPointExtension>
            <ns3:atemp>27.0</ns3:atemp>
            <ns3:hr>87</ns3:hr>
          </ns3:TrackPointExtension>
        </extensions>
      </trkpt>
      <trkpt lat="36.768622063100337982177734375" lon="-118.42498236335813999176025390625">
        <ele>3261.199951171875</ele>
        <time>2021-06-25T19:12:22.000Z</time>
        <extensions>
          <ns3:TrackPointExtension>
            <ns3:atemp>27.0</ns3:atemp>
            <ns3:hr>87</ns3:hr>
          </ns3:TrackPointExtension>
        </extensions>
      </trkpt>
      <trkpt lat="36.768623404204845428466796875" lon="-118.4249742329120635986328125">
        <ele>3261.199951171875</ele>
        <time>2021-06-25T19:12:23.000Z</time>
        <extensions>
          <ns3:TrackPointExtension>
            <ns3:atemp>26.0</ns3:atemp>
            <ns3:hr>87</ns3:hr>
          </ns3:TrackPointExtension>
        </extensions>
      </trkpt>
      <trkpt lat="36.76862415857613086700439453125" lon="-118.42496551573276519775390625">
        <ele>3261</ele>
        <time>2021-06-25T19:12:25.000Z</time>
        <extensions>
          <ns3:TrackPointExtension>
            <ns3:atemp>26.0</ns3:atemp>
            <ns3:hr>87</ns3:hr>
          </ns3:TrackPointExtension>
        </extensions>
      </trkpt>
      <trkpt lat="36.768628768622875213623046875" lon="-118.4249502606689929962158203125">
        <ele>3261</ele>
        <time>2021-06-25T19:12:27.000Z</time>
        <extensions>
          <ns3:TrackPointExtension>
            <ns3:atemp>26.0</ns3:atemp>
            <ns3:hr>86</ns3:hr>
          </ns3:TrackPointExtension>
        </extensions>
      </trkpt>
      <trkpt lat="36.7686343006789684295654296875" lon="-118.42493995092809200286865234375">
        <ele>3260.39990234375</ele>
        <time>2021-06-25T19:12:28.000Z</time>
        <extensions>
          <ns3:TrackPointExtension>
            <ns3:atemp>26.0</ns3:atemp>
            <ns3:hr>85</ns3:hr>
          </ns3:TrackPointExtension>
        </extensions>
      </trkpt>
      <trkpt lat="36.7686425149440765380859375" lon="-118.4249180741608142852783203125">
        <ele>3260.199951171875</ele>
        <time>2021-06-25T19:12:30.000Z</time>
        <extensions>
          <ns3:TrackPointExtension>
            <ns3:atemp>26.0</ns3:atemp>
            <ns3:hr>85</ns3:hr>
          </ns3:TrackPointExtension>
        </extensions>
      </trkpt>
      <trkpt lat="36.768625080585479736328125" lon="-118.42485512606799602508544921875">
        <ele>3259.199951171875</ele>
        <time>2021-06-25T19:12:36.000Z</time>
        <extensions>
          <ns3:TrackPointExtension>
            <ns3:atemp>26.0</ns3:atemp>
            <ns3:hr>84</ns3:hr>
          </ns3:TrackPointExtension>
        </extensions>
      </trkpt>
      <trkpt lat="36.7686158604919910430908203125" lon="-118.4248386137187480926513671875">
        <ele>3258.60009765625</ele>
        <time>2021-06-25T19:12:39.000Z</time>
        <extensions>
          <ns3:TrackPointExtension>
            <ns3:atemp>26.0</ns3:atemp>
            <ns3:hr>86</ns3:hr>
          </ns3:TrackPointExtension>
        </extensions>
      </trkpt>
      <trkpt lat="36.7686331272125244140625" lon="-118.42481036670506000518798828125">
        <ele>3258.39990234375</ele>
        <time>2021-06-25T19:12:43.000Z</time>
        <extensions>
          <ns3:TrackPointExtension>
            <ns3:atemp>26.0</ns3:atemp>
            <ns3:hr>88</ns3:hr>
          </ns3:TrackPointExtension>
        </extensions>
      </trkpt>
      <trkpt lat="36.7686463706195354461669921875" lon="-118.4247972071170806884765625">
        <ele>3257.800048828125</ele>
        <time>2021-06-25T19:12:45.000Z</time>
        <extensions>
          <ns3:TrackPointExtension>
            <ns3:atemp>26.0</ns3:atemp>
            <ns3:hr>89</ns3:hr>
          </ns3:TrackPointExtension>
        </extensions>
      </trkpt>
      <trkpt lat="36.76864922046661376953125" lon="-118.42477901838719844818115234375">
        <ele>3257.60009765625</ele>
        <time>2021-06-25T19:12:47.000Z</time>
        <extensions>
          <ns3:TrackPointExtension>
            <ns3:atemp>26.0</ns3:atemp>
            <ns3:hr>90</ns3:hr>
          </ns3:TrackPointExtension>
        </extensions>
      </trkpt>
      <trkpt lat="36.76865885965526103973388671875" lon="-118.424766696989536285400390625">
        <ele>3256.60009765625</ele>
        <time>2021-06-25T19:12:50.000Z</time>
        <extensions>
          <ns3:TrackPointExtension>
            <ns3:atemp>26.0</ns3:atemp>
            <ns3:hr>91</ns3:hr>
          </ns3:TrackPointExtension>
        </extensions>
      </trkpt>
      <trkpt lat="36.768665648996829986572265625" lon="-118.42476476915180683135986328125">
        <ele>3256.60009765625</ele>
        <time>2021-06-25T19:12:51.000Z</time>
        <extensions>
          <ns3:TrackPointExtension>
            <ns3:atemp>26.0</ns3:atemp>
            <ns3:hr>91</ns3:hr>
          </ns3:TrackPointExtension>
        </extensions>
      </trkpt>
      <trkpt lat="36.768681742250919342041015625" lon="-118.42476644553244113922119140625">
        <ele>3256.199951171875</ele>
        <time>2021-06-25T19:12:56.000Z</time>
        <extensions>
          <ns3:TrackPointExtension>
            <ns3:atemp>26.0</ns3:atemp>
            <ns3:hr>91</ns3:hr>
          </ns3:TrackPointExtension>
        </extensions>
      </trkpt>
      <trkpt lat="36.768685095012187957763671875" lon="-118.42477097176015377044677734375">
        <ele>3256.199951171875</ele>
        <time>2021-06-25T19:12:57.000Z</time>
        <extensions>
          <ns3:TrackPointExtension>
            <ns3:atemp>26.0</ns3:atemp>
            <ns3:hr>90</ns3:hr>
          </ns3:TrackPointExtension>
        </extensions>
      </trkpt>
      <trkpt lat="36.76870663650333881378173828125" lon="-118.42476007528603076934814453125">
        <ele>3255</ele>
        <time>2021-06-25T19:13:00.000Z</time>
        <extensions>
          <ns3:TrackPointExtension>
            <ns3:atemp>26.0</ns3:atemp>
            <ns3:hr>88</ns3:hr>
          </ns3:TrackPointExtension>
        </extensions>
      </trkpt>
      <trkpt lat="36.76871602423489093780517578125" lon="-118.42475353740155696868896484375">
        <ele>3255</ele>
        <time>2021-06-25T19:13:02.000Z</time>
        <extensions>
          <ns3:TrackPointExtension>
            <ns3:atemp>26.0</ns3:atemp>
            <ns3:hr>88</ns3:hr>
          </ns3:TrackPointExtension>
        </extensions>
      </trkpt>
      <trkpt lat="36.76872490905225276947021484375" lon="-118.42474146746098995208740234375">
        <ele>3254.800048828125</ele>
        <time>2021-06-25T19:13:04.000Z</time>
        <extensions>
          <ns3:TrackPointExtension>
            <ns3:atemp>26.0</ns3:atemp>
            <ns3:hr>87</ns3:hr>
          </ns3:TrackPointExtension>
        </extensions>
      </trkpt>
      <trkpt lat="36.76873161457479000091552734375" lon="-118.42473744414746761322021484375">
        <ele>3254.800048828125</ele>
        <time>2021-06-25T19:13:05.000Z</time>
        <extensions>
          <ns3:TrackPointExtension>
            <ns3:atemp>26.0</ns3:atemp>
            <ns3:hr>87</ns3:hr>
          </ns3:TrackPointExtension>
        </extensions>
      </trkpt>
      <trkpt lat="36.76873865537345409393310546875" lon="-118.424734510481357574462890625">
        <ele>3254.60009765625</ele>
        <time>2021-06-25T19:13:06.000Z</time>
        <extensions>
          <ns3:TrackPointExtension>
            <ns3:atemp>26.0</ns3:atemp>
            <ns3:hr>86</ns3:hr>
          </ns3:TrackPointExtension>
        </extensions>
      </trkpt>
      <trkpt lat="36.7687606997787952423095703125" lon="-118.42471062205731868743896484375">
        <ele>3254.199951171875</ele>
        <time>2021-06-25T19:13:09.000Z</time>
        <extensions>
          <ns3:TrackPointExtension>
            <ns3:atemp>26.0</ns3:atemp>
            <ns3:hr>85</ns3:hr>
          </ns3:TrackPointExtension>
        </extensions>
      </trkpt>
      <trkpt lat="36.768762879073619842529296875" lon="-118.42470156960189342498779296875">
        <ele>3253.60009765625</ele>
        <time>2021-06-25T19:13:10.000Z</time>
        <extensions>
          <ns3:TrackPointExtension>
            <ns3:atemp>26.0</ns3:atemp>
            <ns3:hr>85</ns3:hr>
          </ns3:TrackPointExtension>
        </extensions>
      </trkpt>
      <trkpt lat="36.76877654157578945159912109375" lon="-118.42467156238853931427001953125">
        <ele>3253.39990234375</ele>
        <time>2021-06-25T19:13:13.000Z</time>
        <extensions>
          <ns3:TrackPointExtension>
            <ns3:atemp>26.0</ns3:atemp>
            <ns3:hr>82</ns3:hr>
          </ns3:TrackPointExtension>
        </extensions>
      </trkpt>
      <trkpt lat="36.76878559403121471405029296875" lon="-118.4246475063264369964599609375">
        <ele>3253.199951171875</ele>
        <time>2021-06-25T19:13:16.000Z</time>
        <extensions>
          <ns3:TrackPointExtension>
            <ns3:atemp>26.0</ns3:atemp>
            <ns3:hr>81</ns3:hr>
          </ns3:TrackPointExtension>
        </extensions>
      </trkpt>
      <trkpt lat="36.7687885276973247528076171875" lon="-118.42462889850139617919921875">
        <ele>3253.199951171875</ele>
        <time>2021-06-25T19:13:18.000Z</time>
        <extensions>
          <ns3:TrackPointExtension>
            <ns3:atemp>26.0</ns3:atemp>
            <ns3:hr>85</ns3:hr>
          </ns3:TrackPointExtension>
        </extensions>
      </trkpt>
      <trkpt lat="36.76879263482987880706787109375" lon="-118.4246139787137508392333984375">
        <ele>3253.199951171875</ele>
        <time>2021-06-25T19:13:19.000Z</time>
        <extensions>
          <ns3:TrackPointExtension>
            <ns3:atemp>26.0</ns3:atemp>
            <ns3:hr>81</ns3:hr>
          </ns3:TrackPointExtension>
        </extensions>
      </trkpt>
      <trkpt lat="36.7688009329140186309814453125" lon="-118.4245757572352886199951171875">
        <ele>3252.60009765625</ele>
        <time>2021-06-25T19:13:22.000Z</time>
        <extensions>
          <ns3:TrackPointExtension>
            <ns3:atemp>26.0</ns3:atemp>
            <ns3:hr>79</ns3:hr>
          </ns3:TrackPointExtension>
        </extensions>
      </trkpt>
      <trkpt lat="36.7688089795410633087158203125" lon="-118.4245539642870426177978515625">
        <ele>3252.800048828125</ele>
        <time>2021-06-25T19:13:24.000Z</time>
        <extensions>
          <ns3:TrackPointExtension>
            <ns3:atemp>26.0</ns3:atemp>
            <ns3:hr>80</ns3:hr>
          </ns3:TrackPointExtension>
        </extensions>
      </trkpt>
      <trkpt lat="36.768875531852245330810546875" lon="-118.4244513697922229766845703125">
        <ele>3252.39990234375</ele>
        <time>2021-06-25T19:13:34.000Z</time>
        <extensions>
          <ns3:TrackPointExtension>
            <ns3:atemp>26.0</ns3:atemp>
            <ns3:hr>80</ns3:hr>
          </ns3:TrackPointExtension>
        </extensions>
      </trkpt>
      <trkpt lat="36.76889791153371334075927734375" lon="-118.424429409205913543701171875">
        <ele>3252.199951171875</ele>
        <time>2021-06-25T19:13:37.000Z</time>
        <extensions>
          <ns3:TrackPointExtension>
            <ns3:atemp>26.0</ns3:atemp>
            <ns3:hr>83</ns3:hr>
          </ns3:TrackPointExtension>
        </extensions>
      </trkpt>
      <trkpt lat="36.7689206264913082122802734375" lon="-118.424403928220272064208984375">
        <ele>3252</ele>
        <time>2021-06-25T19:13:43.000Z</time>
        <extensions>
          <ns3:TrackPointExtension>
            <ns3:atemp>26.0</ns3:atemp>
            <ns3:hr>84</ns3:hr>
          </ns3:TrackPointExtension>
        </extensions>
      </trkpt>
      <trkpt lat="36.7689186148345470428466796875" lon="-118.4244034253060817718505859375">
        <ele>3252</ele>
        <time>2021-06-25T19:13:46.000Z</time>
        <extensions>
          <ns3:TrackPointExtension>
            <ns3:atemp>26.0</ns3:atemp>
            <ns3:hr>84</ns3:hr>
          </ns3:TrackPointExtension>
        </extensions>
      </trkpt>
      <trkpt lat="36.76891568116843700408935546875" lon="-118.42440359294414520263671875">
        <ele>3251.800048828125</ele>
        <time>2021-06-25T19:13:54.000Z</time>
        <extensions>
          <ns3:TrackPointExtension>
            <ns3:atemp>26.0</ns3:atemp>
            <ns3:hr>84</ns3:hr>
          </ns3:TrackPointExtension>
        </extensions>
      </trkpt>
      <trkpt lat="36.76891568116843700408935546875" lon="-118.42440359294414520263671875">
        <ele>3251.60009765625</ele>
        <time>2021-06-25T19:13:57.000Z</time>
        <extensions>
          <ns3:TrackPointExtension>
            <ns3:atemp>26.0</ns3:atemp>
            <ns3:hr>86</ns3:hr>
          </ns3:TrackPointExtension>
        </extensions>
      </trkpt>
      <trkpt lat="36.76896211691200733184814453125" lon="-118.42440652661025524139404296875">
        <ele>3251.60009765625</ele>
        <time>2021-06-25T19:14:02.000Z</time>
        <extensions>
          <ns3:TrackPointExtension>
            <ns3:atemp>26.0</ns3:atemp>
            <ns3:hr>87</ns3:hr>
          </ns3:TrackPointExtension>
        </extensions>
      </trkpt>
      <trkpt lat="36.76899933256208896636962890625" lon="-118.42444055713713169097900390625">
        <ele>3252.60009765625</ele>
        <time>2021-06-25T19:14:07.000Z</time>
        <extensions>
          <ns3:TrackPointExtension>
            <ns3:atemp>26.0</ns3:atemp>
            <ns3:hr>88</ns3:hr>
          </ns3:TrackPointExtension>
        </extensions>
      </trkpt>
      <trkpt lat="36.76901659928262233734130859375" lon="-118.42444793321192264556884765625">
        <ele>3252.60009765625</ele>
        <time>2021-06-25T19:14:10.000Z</time>
        <extensions>
          <ns3:TrackPointExtension>
            <ns3:atemp>26.0</ns3:atemp>
            <ns3:hr>89</ns3:hr>
          </ns3:TrackPointExtension>
        </extensions>
      </trkpt>
      <trkpt lat="36.7690322734415531158447265625" lon="-118.4244560636579990386962890625">
        <ele>3252.60009765625</ele>
        <time>2021-06-25T19:14:15.000Z</time>
        <extensions>
          <ns3:TrackPointExtension>
            <ns3:atemp>26.0</ns3:atemp>
            <ns3:hr>90</ns3:hr>
          </ns3:TrackPointExtension>
        </extensions>
      </trkpt>
      <trkpt lat="36.76904073916375637054443359375" lon="-118.42445597983896732330322265625">
        <ele>3252.800048828125</ele>
        <time>2021-06-25T19:14:17.000Z</time>
        <extensions>
          <ns3:TrackPointExtension>
            <ns3:atemp>26.0</ns3:atemp>
            <ns3:hr>90</ns3:hr>
          </ns3:TrackPointExtension>
        </extensions>
      </trkpt>
      <trkpt lat="36.76904819905757904052734375" lon="-118.42446528375148773193359375">
        <ele>3252.800048828125</ele>
        <time>2021-06-25T19:14:19.000Z</time>
        <extensions>
          <ns3:TrackPointExtension>
            <ns3:atemp>26.0</ns3:atemp>
            <ns3:hr>87</ns3:hr>
          </ns3:TrackPointExtension>
        </extensions>
      </trkpt>
      <trkpt lat="36.7690557427704334259033203125" lon="-118.42449084855616092681884765625">
        <ele>3252.60009765625</ele>
        <time>2021-06-25T19:14:21.000Z</time>
        <extensions>
          <ns3:TrackPointExtension>
            <ns3:atemp>26.0</ns3:atemp>
            <ns3:hr>90</ns3:hr>
          </ns3:TrackPointExtension>
        </extensions>
      </trkpt>
      <trkpt lat="36.7690802179276943206787109375" lon="-118.42450509779155254364013671875">
        <ele>3252.39990234375</ele>
        <time>2021-06-25T19:14:24.000Z</time>
        <extensions>
          <ns3:TrackPointExtension>
            <ns3:atemp>26.0</ns3:atemp>
            <ns3:hr>90</ns3:hr>
          </ns3:TrackPointExtension>
        </extensions>
      </trkpt>
      <trkpt lat="36.76912321709096431732177734375" lon="-118.424532003700733184814453125">
        <ele>3252.60009765625</ele>
        <time>2021-06-25T19:14:29.000Z</time>
        <extensions>
          <ns3:TrackPointExtension>
            <ns3:atemp>26.0</ns3:atemp>
            <ns3:hr>91</ns3:hr>
          </ns3:TrackPointExtension>
        </extensions>
      </trkpt>
      <trkpt lat="36.769123636186122894287109375" lon="-118.42457986436784267425537109375">
        <ele>3252.60009765625</ele>
        <time>2021-06-25T19:14:33.000Z</time>
        <extensions>
          <ns3:TrackPointExtension>
            <ns3:atemp>26.0</ns3:atemp>
            <ns3:hr>90</ns3:hr>
          </ns3:TrackPointExtension>
        </extensions>
      </trkpt>
      <trkpt lat="36.76918842829763889312744140625" lon="-118.4246072731912136077880859375">
        <ele>3252.199951171875</ele>
        <time>2021-06-25T19:14:40.000Z</time>
        <extensions>
          <ns3:TrackPointExtension>
            <ns3:atemp>26.0</ns3:atemp>
            <ns3:hr>91</ns3:hr>
          </ns3:TrackPointExtension>
        </extensions>
      </trkpt>
      <trkpt lat="36.76922480575740337371826171875" lon="-118.42461205087602138519287109375">
        <ele>3251.800048828125</ele>
        <time>2021-06-25T19:14:43.000Z</time>
        <extensions>
          <ns3:TrackPointExtension>
            <ns3:atemp>26.0</ns3:atemp>
            <ns3:hr>94</ns3:hr>
          </ns3:TrackPointExtension>
        </extensions>
      </trkpt>
      <trkpt lat="36.76924810744822025299072265625" lon="-118.42463023960590362548828125">
        <ele>3251.800048828125</ele>
        <time>2021-06-25T19:14:46.000Z</time>
        <extensions>
          <ns3:TrackPointExtension>
            <ns3:atemp>26.0</ns3:atemp>
            <ns3:hr>90</ns3:hr>
          </ns3:TrackPointExtension>
        </extensions>
      </trkpt>
      <trkpt lat="36.76926705054938793182373046875" lon="-118.4246364422142505645751953125">
        <ele>3252</ele>
        <time>2021-06-25T19:14:48.000Z</time>
        <extensions>
          <ns3:TrackPointExtension>
            <ns3:atemp>26.0</ns3:atemp>
            <ns3:hr>88</ns3:hr>
          </ns3:TrackPointExtension>
        </extensions>
      </trkpt>
      <trkpt lat="36.7692983150482177734375" lon="-118.42464406974613666534423828125">
        <ele>3252</ele>
        <time>2021-06-25T19:14:51.000Z</time>
        <extensions>
          <ns3:TrackPointExtension>
            <ns3:atemp>26.0</ns3:atemp>
            <ns3:hr>91</ns3:hr>
          </ns3:TrackPointExtension>
        </extensions>
      </trkpt>
      <trkpt lat="36.76933460868895053863525390625" lon="-118.42466385103762149810791015625">
        <ele>3251.800048828125</ele>
        <time>2021-06-25T19:14:56.000Z</time>
        <extensions>
          <ns3:TrackPointExtension>
            <ns3:atemp>26.0</ns3:atemp>
            <ns3:hr>88</ns3:hr>
          </ns3:TrackPointExtension>
        </extensions>
      </trkpt>
      <trkpt lat="36.7693869955837726593017578125" lon="-118.42463065870106220245361328125">
        <ele>3251.800048828125</ele>
        <time>2021-06-25T19:15:00.000Z</time>
        <extensions>
          <ns3:TrackPointExtension>
            <ns3:atemp>26.0</ns3:atemp>
            <ns3:hr>86</ns3:hr>
          </ns3:TrackPointExtension>
        </extensions>
      </trkpt>
      <trkpt lat="36.76948808133602142333984375" lon="-118.42454482801258563995361328125">
        <ele>3252.199951171875</ele>
        <time>2021-06-25T19:15:11.000Z</time>
        <extensions>
          <ns3:TrackPointExtension>
            <ns3:atemp>26.0</ns3:atemp>
            <ns3:hr>89</ns3:hr>
          </ns3:TrackPointExtension>
        </extensions>
      </trkpt>
      <trkpt lat="36.76949738524854183197021484375" lon="-118.424536697566509246826171875">
        <ele>3252.39990234375</ele>
        <time>2021-06-25T19:15:12.000Z</time>
        <extensions>
          <ns3:TrackPointExtension>
            <ns3:atemp>26.0</ns3:atemp>
            <ns3:hr>90</ns3:hr>
          </ns3:TrackPointExtension>
        </extensions>
      </trkpt>
      <trkpt lat="36.76950308494269847869873046875" lon="-118.42452253215014934539794921875">
        <ele>3252.800048828125</ele>
        <time>2021-06-25T19:15:14.000Z</time>
        <extensions>
          <ns3:TrackPointExtension>
            <ns3:atemp>26.0</ns3:atemp>
            <ns3:hr>91</ns3:hr>
          </ns3:TrackPointExtension>
        </extensions>
      </trkpt>
      <trkpt lat="36.76952169276773929595947265625" lon="-118.42450861819088459014892578125">
        <ele>3252.800048828125</ele>
        <time>2021-06-25T19:15:18.000Z</time>
        <extensions>
          <ns3:TrackPointExtension>
            <ns3:atemp>26.0</ns3:atemp>
            <ns3:hr>93</ns3:hr>
          </ns3:TrackPointExtension>
        </extensions>
      </trkpt>
      <trkpt lat="36.769544072449207305908203125" lon="-118.42449068091809749603271484375">
        <ele>3253.199951171875</ele>
        <time>2021-06-25T19:15:21.000Z</time>
        <extensions>
          <ns3:TrackPointExtension>
            <ns3:atemp>26.0</ns3:atemp>
            <ns3:hr>93</ns3:hr>
          </ns3:TrackPointExtension>
        </extensions>
      </trkpt>
      <trkpt lat="36.7695549689233303070068359375" lon="-118.4244765155017375946044921875">
        <ele>3253.199951171875</ele>
        <time>2021-06-25T19:15:23.000Z</time>
        <extensions>
          <ns3:TrackPointExtension>
            <ns3:atemp>26.0</ns3:atemp>
            <ns3:hr>93</ns3:hr>
          </ns3:TrackPointExtension>
        </extensions>
      </trkpt>
      <trkpt lat="36.76956544630229473114013671875" lon="-118.42446603812277317047119140625">
        <ele>3253.199951171875</ele>
        <time>2021-06-25T19:15:25.000Z</time>
        <extensions>
          <ns3:TrackPointExtension>
            <ns3:atemp>26.0</ns3:atemp>
            <ns3:hr>94</ns3:hr>
          </ns3:TrackPointExtension>
        </extensions>
      </trkpt>
      <trkpt lat="36.7695690505206584930419921875" lon="-118.4244574047625064849853515625">
        <ele>3253.199951171875</ele>
        <time>2021-06-25T19:15:27.000Z</time>
        <extensions>
          <ns3:TrackPointExtension>
            <ns3:atemp>26.0</ns3:atemp>
            <ns3:hr>95</ns3:hr>
          </ns3:TrackPointExtension>
        </extensions>
      </trkpt>
      <trkpt lat="36.76956729032099246978759765625" lon="-118.4244538843631744384765625">
        <ele>3253.199951171875</ele>
        <time>2021-06-25T19:15:28.000Z</time>
        <extensions>
          <ns3:TrackPointExtension>
            <ns3:atemp>26.0</ns3:atemp>
            <ns3:hr>95</ns3:hr>
          </ns3:TrackPointExtension>
        </extensions>
      </trkpt>
      <trkpt lat="36.76958866417407989501953125" lon="-118.42442312277853488922119140625">
        <ele>3253.60009765625</ele>
        <time>2021-06-25T19:15:31.000Z</time>
        <extensions>
          <ns3:TrackPointExtension>
            <ns3:atemp>26.0</ns3:atemp>
            <ns3:hr>95</ns3:hr>
          </ns3:TrackPointExtension>
        </extensions>
      </trkpt>
      <trkpt lat="36.76959411241114139556884765625" lon="-118.42441759072244167327880859375">
        <ele>3253.60009765625</ele>
        <time>2021-06-25T19:15:33.000Z</time>
        <extensions>
          <ns3:TrackPointExtension>
            <ns3:atemp>26.0</ns3:atemp>
            <ns3:hr>98</ns3:hr>
          </ns3:TrackPointExtension>
        </extensions>
      </trkpt>
      <trkpt lat="36.76962160505354404449462890625" lon="-118.42439060099422931671142578125">
        <ele>3254</ele>
        <time>2021-06-25T19:15:37.000Z</time>
        <extensions>
          <ns3:TrackPointExtension>
            <ns3:atemp>26.0</ns3:atemp>
            <ns3:hr>99</ns3:hr>
          </ns3:TrackPointExtension>
        </extensions>
      </trkpt>
      <trkpt lat="36.76964339800179004669189453125" lon="-118.42434986494481563568115234375">
        <ele>3254.199951171875</ele>
        <time>2021-06-25T19:15:43.000Z</time>
        <extensions>
          <ns3:TrackPointExtension>
            <ns3:atemp>26.0</ns3:atemp>
            <ns3:hr>100</ns3:hr>
          </ns3:TrackPointExtension>
        </extensions>
      </trkpt>
      <trkpt lat="36.76967072300612926483154296875" lon="-118.4242931194603443145751953125">
        <ele>3255</ele>
        <time>2021-06-25T19:15:51.000Z</time>
        <extensions>
          <ns3:TrackPointExtension>
            <ns3:atemp>26.0</ns3:atemp>
            <ns3:hr>103</ns3:hr>
          </ns3:TrackPointExtension>
        </extensions>
      </trkpt>
      <trkpt lat="36.76967860199511051177978515625" lon="-118.424287252128124237060546875">
        <ele>3255.199951171875</ele>
        <time>2021-06-25T19:15:52.000Z</time>
        <extensions>
          <ns3:TrackPointExtension>
            <ns3:atemp>26.0</ns3:atemp>
            <ns3:hr>103</ns3:hr>
          </ns3:TrackPointExtension>
        </extensions>
      </trkpt>
      <trkpt lat="36.76968715153634548187255859375" lon="-118.42426688410341739654541015625">
        <ele>3255.199951171875</ele>
        <time>2021-06-25T19:15:55.000Z</time>
        <extensions>
          <ns3:TrackPointExtension>
            <ns3:atemp>26.0</ns3:atemp>
            <ns3:hr>106</ns3:hr>
          </ns3:TrackPointExtension>
        </extensions>
      </trkpt>
      <trkpt lat="36.769707016646862030029296875" lon="-118.42422883026301860809326171875">
        <ele>3254.800048828125</ele>
        <time>2021-06-25T19:15:59.000Z</time>
        <extensions>
          <ns3:TrackPointExtension>
            <ns3:atemp>26.0</ns3:atemp>
            <ns3:hr>106</ns3:hr>
          </ns3:TrackPointExtension>
        </extensions>
      </trkpt>
      <trkpt lat="36.76968681626021862030029296875" lon="-118.424159847199916839599609375">
        <ele>3255.39990234375</ele>
        <time>2021-06-25T19:16:07.000Z</time>
        <extensions>
          <ns3:TrackPointExtension>
            <ns3:atemp>26.0</ns3:atemp>
            <ns3:hr>105</ns3:hr>
          </ns3:TrackPointExtension>
        </extensions>
      </trkpt>
      <trkpt lat="36.7696885764598846435546875" lon="-118.4241409040987491607666015625">
        <ele>3255.39990234375</ele>
        <time>2021-06-25T19:16:09.000Z</time>
        <extensions>
          <ns3:TrackPointExtension>
            <ns3:atemp>26.0</ns3:atemp>
            <ns3:hr>106</ns3:hr>
          </ns3:TrackPointExtension>
        </extensions>
      </trkpt>
      <trkpt lat="36.76969435997307300567626953125" lon="-118.42411165125668048858642578125">
        <ele>3255.199951171875</ele>
        <time>2021-06-25T19:16:14.000Z</time>
        <extensions>
          <ns3:TrackPointExtension>
            <ns3:atemp>26.0</ns3:atemp>
            <ns3:hr>107</ns3:hr>
          </ns3:TrackPointExtension>
        </extensions>
      </trkpt>
      <trkpt lat="36.7696639336645603179931640625" lon="-118.42405264265835285186767578125">
        <ele>3254.60009765625</ele>
        <time>2021-06-25T19:16:20.000Z</time>
        <extensions>
          <ns3:TrackPointExtension>
            <ns3:atemp>26.0</ns3:atemp>
            <ns3:hr>106</ns3:hr>
          </ns3:TrackPointExtension>
        </extensions>
      </trkpt>
      <trkpt lat="36.76965848542749881744384765625" lon="-118.42400520108640193939208984375">
        <ele>3254.39990234375</ele>
        <time>2021-06-25T19:16:26.000Z</time>
        <extensions>
          <ns3:TrackPointExtension>
            <ns3:atemp>26.0</ns3:atemp>
            <ns3:hr>102</ns3:hr>
          </ns3:TrackPointExtension>
        </extensions>
      </trkpt>
      <trkpt lat="36.76965546794235706329345703125" lon="-118.42397804372012615203857421875">
        <ele>3254.60009765625</ele>
        <time>2021-06-25T19:16:30.000Z</time>
        <extensions>
          <ns3:TrackPointExtension>
            <ns3:atemp>26.0</ns3:atemp>
            <ns3:hr>98</ns3:hr>
          </ns3:TrackPointExtension>
        </extensions>
      </trkpt>
      <trkpt lat="36.76964323036372661590576171875" lon="-118.42398273758590221405029296875">
        <ele>3254.199951171875</ele>
        <time>2021-06-25T19:16:32.000Z</time>
        <extensions>
          <ns3:TrackPointExtension>
            <ns3:atemp>26.0</ns3:atemp>
            <ns3:hr>99</ns3:hr>
          </ns3:TrackPointExtension>
        </extensions>
      </trkpt>
      <trkpt lat="36.7696295678615570068359375" lon="-118.4239883534610271453857421875">
        <ele>3254.199951171875</ele>
        <time>2021-06-25T19:16:34.000Z</time>
        <extensions>
          <ns3:TrackPointExtension>
            <ns3:atemp>26.0</ns3:atemp>
            <ns3:hr>98</ns3:hr>
          </ns3:TrackPointExtension>
        </extensions>
      </trkpt>
      <trkpt lat="36.76960836164653301239013671875" lon="-118.4239276684820652008056640625">
        <ele>3254</ele>
        <time>2021-06-25T19:16:41.000Z</time>
        <extensions>
          <ns3:TrackPointExtension>
            <ns3:atemp>26.0</ns3:atemp>
            <ns3:hr>100</ns3:hr>
          </ns3:TrackPointExtension>
        </extensions>
      </trkpt>
      <trkpt lat="36.76960366778075695037841796875" lon="-118.42392473481595516204833984375">
        <ele>3253.60009765625</ele>
        <time>2021-06-25T19:16:47.000Z</time>
        <extensions>
          <ns3:TrackPointExtension>
            <ns3:atemp>26.0</ns3:atemp>
            <ns3:hr>102</ns3:hr>
          </ns3:TrackPointExtension>
        </extensions>
      </trkpt>
      <trkpt lat="36.76960081793367862701416015625" lon="-118.42390931211411952972412109375">
        <ele>3252.60009765625</ele>
        <time>2021-06-25T19:16:53.000Z</time>
        <extensions>
          <ns3:TrackPointExtension>
            <ns3:atemp>26.0</ns3:atemp>
            <ns3:hr>102</ns3:hr>
          </ns3:TrackPointExtension>
        </extensions>
      </trkpt>
      <trkpt lat="36.7696029134094715118408203125" lon="-118.42390193603932857513427734375">
        <ele>3252.60009765625</ele>
        <time>2021-06-25T19:16:54.000Z</time>
        <extensions>
          <ns3:TrackPointExtension>
            <ns3:atemp>26.0</ns3:atemp>
            <ns3:hr>102</ns3:hr>
          </ns3:TrackPointExtension>
        </extensions>
      </trkpt>
      <trkpt lat="36.76960601471364498138427734375" lon="-118.42387343756854534149169921875">
        <ele>3252.60009765625</ele>
        <time>2021-06-25T19:16:59.000Z</time>
        <extensions>
          <ns3:TrackPointExtension>
            <ns3:atemp>26.0</ns3:atemp>
            <ns3:hr>102</ns3:hr>
          </ns3:TrackPointExtension>
        </extensions>
      </trkpt>
      <trkpt lat="36.7696099542081356048583984375" lon="-118.423869498074054718017578125">
        <ele>3252.60009765625</ele>
        <time>2021-06-25T19:17:00.000Z</time>
        <extensions>
          <ns3:TrackPointExtension>
            <ns3:atemp>26.0</ns3:atemp>
            <ns3:hr>105</ns3:hr>
          </ns3:TrackPointExtension>
        </extensions>
      </trkpt>
      <trkpt lat="36.769622862339019775390625" lon="-118.42385147698223590850830078125">
        <ele>3252.60009765625</ele>
        <time>2021-06-25T19:17:03.000Z</time>
        <extensions>
          <ns3:TrackPointExtension>
            <ns3:atemp>26.0</ns3:atemp>
            <ns3:hr>102</ns3:hr>
          </ns3:TrackPointExtension>
        </extensions>
      </trkpt>
      <trkpt lat="36.76961791701614856719970703125" lon="-118.42382499016821384429931640625">
        <ele>3252.60009765625</ele>
        <time>2021-06-25T19:17:07.000Z</time>
        <extensions>
          <ns3:TrackPointExtension>
            <ns3:atemp>26.0</ns3:atemp>
            <ns3:hr>100</ns3:hr>
          </ns3:TrackPointExtension>
        </extensions>
      </trkpt>
      <trkpt lat="36.76961657591164112091064453125" lon="-118.4238056279718875885009765625">
        <ele>3252.60009765625</ele>
        <time>2021-06-25T19:17:10.000Z</time>
        <extensions>
          <ns3:TrackPointExtension>
            <ns3:atemp>26.0</ns3:atemp>
            <ns3:hr>103</ns3:hr>
          </ns3:TrackPointExtension>
        </extensions>
      </trkpt>
      <trkpt lat="36.76961557008326053619384765625" lon="-118.4238019399344921112060546875">
        <ele>3252.60009765625</ele>
        <time>2021-06-25T19:17:11.000Z</time>
        <extensions>
          <ns3:TrackPointExtension>
            <ns3:atemp>26.0</ns3:atemp>
            <ns3:hr>100</ns3:hr>
          </ns3:TrackPointExtension>
        </extensions>
      </trkpt>
      <trkpt lat="36.769628226757049560546875" lon="-118.4237828291952610015869140625">
        <ele>3252.60009765625</ele>
        <time>2021-06-25T19:17:15.000Z</time>
        <extensions>
          <ns3:TrackPointExtension>
            <ns3:atemp>26.0</ns3:atemp>
            <ns3:hr>96</ns3:hr>
          </ns3:TrackPointExtension>
        </extensions>
      </trkpt>
      <trkpt lat="36.7696431465446949005126953125" lon="-118.42375986278057098388671875">
        <ele>3252.60009765625</ele>
        <time>2021-06-25T19:17:18.000Z</time>
        <extensions>
          <ns3:TrackPointExtension>
            <ns3:atemp>26.0</ns3:atemp>
            <ns3:hr>93</ns3:hr>
          </ns3:TrackPointExtension>
        </extensions>
      </trkpt>
      <trkpt lat="36.76964356563985347747802734375" lon="-118.423732034862041473388671875">
        <ele>3252.60009765625</ele>
        <time>2021-06-25T19:17:21.000Z</time>
        <extensions>
          <ns3:TrackPointExtension>
            <ns3:atemp>26.0</ns3:atemp>
            <ns3:hr>96</ns3:hr>
          </ns3:TrackPointExtension>
        </extensions>
      </trkpt>
      <trkpt lat="36.76964633166790008544921875" lon="-118.42372340150177478790283203125">
        <ele>3252.60009765625</ele>
        <time>2021-06-25T19:17:22.000Z</time>
        <extensions>
          <ns3:TrackPointExtension>
            <ns3:atemp>26.0</ns3:atemp>
            <ns3:hr>93</ns3:hr>
          </ns3:TrackPointExtension>
        </extensions>
      </trkpt>
      <trkpt lat="36.76962831057608127593994140625" lon="-118.42367076314985752105712890625">
        <ele>3252.60009765625</ele>
        <time>2021-06-25T19:17:29.000Z</time>
        <extensions>
          <ns3:TrackPointExtension>
            <ns3:atemp>26.0</ns3:atemp>
            <ns3:hr>91</ns3:hr>
          </ns3:TrackPointExtension>
        </extensions>
      </trkpt>
      <trkpt lat="36.76962579600512981414794921875" lon="-118.42360974289476871490478515625">
        <ele>3252.60009765625</ele>
        <time>2021-06-25T19:17:36.000Z</time>
        <extensions>
          <ns3:TrackPointExtension>
            <ns3:atemp>27.0</ns3:atemp>
            <ns3:hr>90</ns3:hr>
          </ns3:TrackPointExtension>
        </extensions>
      </trkpt>
      <trkpt lat="36.7696081101894378662109375" lon="-118.42353715561330318450927734375">
        <ele>3252.60009765625</ele>
        <time>2021-06-25T19:17:45.000Z</time>
        <extensions>
          <ns3:TrackPointExtension>
            <ns3:atemp>27.0</ns3:atemp>
            <ns3:hr>92</ns3:hr>
          </ns3:TrackPointExtension>
        </extensions>
      </trkpt>
      <trkpt lat="36.7696082778275012969970703125" lon="-118.4234572760760784149169921875">
        <ele>3252.60009765625</ele>
        <time>2021-06-25T19:17:53.000Z</time>
        <extensions>
          <ns3:TrackPointExtension>
            <ns3:atemp>27.0</ns3:atemp>
            <ns3:hr>92</ns3:hr>
          </ns3:TrackPointExtension>
        </extensions>
      </trkpt>
      <trkpt lat="36.76961280405521392822265625" lon="-118.42344763688743114471435546875">
        <ele>3249.800048828125</ele>
        <time>2021-06-25T19:17:54.000Z</time>
        <extensions>
          <ns3:TrackPointExtension>
            <ns3:atemp>27.0</ns3:atemp>
            <ns3:hr>92</ns3:hr>
          </ns3:TrackPointExtension>
        </extensions>
      </trkpt>
      <trkpt lat="36.76963350735604763031005859375" lon="-118.42338837683200836181640625">
        <ele>3249.800048828125</ele>
        <time>2021-06-25T19:18:01.000Z</time>
        <extensions>
          <ns3:TrackPointExtension>
            <ns3:atemp>27.0</ns3:atemp>
            <ns3:hr>93</ns3:hr>
          </ns3:TrackPointExtension>
        </extensions>
      </trkpt>
      <trkpt lat="36.7696387879550457000732421875" lon="-118.423382341861724853515625">
        <ele>3250</ele>
        <time>2021-06-25T19:18:03.000Z</time>
        <extensions>
          <ns3:TrackPointExtension>
            <ns3:atemp>27.0</ns3:atemp>
            <ns3:hr>93</ns3:hr>
          </ns3:TrackPointExtension>
        </extensions>
      </trkpt>
      <trkpt lat="36.7696532048285007476806640625" lon="-118.4233810007572174072265625">
        <ele>3249.800048828125</ele>
        <time>2021-06-25T19:18:05.000Z</time>
        <extensions>
          <ns3:TrackPointExtension>
            <ns3:atemp>27.0</ns3:atemp>
            <ns3:hr>92</ns3:hr>
          </ns3:TrackPointExtension>
        </extensions>
      </trkpt>
      <trkpt lat="36.76966938190162181854248046875" lon="-118.42337739653885364532470703125">
        <ele>3249.800048828125</ele>
        <time>2021-06-25T19:18:08.000Z</time>
        <extensions>
          <ns3:TrackPointExtension>
            <ns3:atemp>27.0</ns3:atemp>
            <ns3:hr>90</ns3:hr>
          </ns3:TrackPointExtension>
        </extensions>
      </trkpt>
      <trkpt lat="36.769665442407131195068359375" lon="-118.4233997762203216552734375">
        <ele>3249.60009765625</ele>
        <time>2021-06-25T19:18:10.000Z</time>
        <extensions>
          <ns3:TrackPointExtension>
            <ns3:atemp>27.0</ns3:atemp>
            <ns3:hr>90</ns3:hr>
          </ns3:TrackPointExtension>
        </extensions>
      </trkpt>
      <trkpt lat="36.76968715153634548187255859375" lon="-118.42339575290679931640625">
        <ele>3249.60009765625</ele>
        <time>2021-06-25T19:18:12.000Z</time>
        <extensions>
          <ns3:TrackPointExtension>
            <ns3:atemp>27.0</ns3:atemp>
            <ns3:hr>88</ns3:hr>
          </ns3:TrackPointExtension>
        </extensions>
      </trkpt>
      <trkpt lat="36.769702993333339691162109375" lon="-118.4233747981488704681396484375">
        <ele>3249</ele>
        <time>2021-06-25T19:18:14.000Z</time>
        <extensions>
          <ns3:TrackPointExtension>
            <ns3:atemp>27.0</ns3:atemp>
            <ns3:hr>91</ns3:hr>
          </ns3:TrackPointExtension>
        </extensions>
      </trkpt>
      <trkpt lat="36.769707016646862030029296875" lon="-118.42336951754987239837646484375">
        <ele>3249</ele>
        <time>2021-06-25T19:18:15.000Z</time>
        <extensions>
          <ns3:TrackPointExtension>
            <ns3:atemp>27.0</ns3:atemp>
            <ns3:hr>89</ns3:hr>
          </ns3:TrackPointExtension>
        </extensions>
      </trkpt>
      <trkpt lat="36.76971363835036754608154296875" lon="-118.42336130328476428985595703125">
        <ele>3248.800048828125</ele>
        <time>2021-06-25T19:18:16.000Z</time>
        <extensions>
          <ns3:TrackPointExtension>
            <ns3:atemp>27.0</ns3:atemp>
            <ns3:hr>89</ns3:hr>
          </ns3:TrackPointExtension>
        </extensions>
      </trkpt>
      <trkpt lat="36.76971799694001674652099609375" lon="-118.42335350811481475830078125">
        <ele>3248.800048828125</ele>
        <time>2021-06-25T19:18:17.000Z</time>
        <extensions>
          <ns3:TrackPointExtension>
            <ns3:atemp>27.0</ns3:atemp>
            <ns3:hr>89</ns3:hr>
          </ns3:TrackPointExtension>
        </extensions>
      </trkpt>
      <trkpt lat="36.76973761059343814849853515625" lon="-118.42331637628376483917236328125">
        <ele>3248.39990234375</ele>
        <time>2021-06-25T19:18:22.000Z</time>
        <extensions>
          <ns3:TrackPointExtension>
            <ns3:atemp>27.0</ns3:atemp>
            <ns3:hr>88</ns3:hr>
          </ns3:TrackPointExtension>
        </extensions>
      </trkpt>
      <trkpt lat="36.769746579229831695556640625" lon="-118.42325300909578800201416015625">
        <ele>3247.800048828125</ele>
        <time>2021-06-25T19:18:28.000Z</time>
        <extensions>
          <ns3:TrackPointExtension>
            <ns3:atemp>27.0</ns3:atemp>
            <ns3:hr>89</ns3:hr>
          </ns3:TrackPointExtension>
        </extensions>
      </trkpt>
      <trkpt lat="36.76975588314235210418701171875" lon="-118.42320732772350311279296875">
        <ele>3247.60009765625</ele>
        <time>2021-06-25T19:18:33.000Z</time>
        <extensions>
          <ns3:TrackPointExtension>
            <ns3:atemp>27.0</ns3:atemp>
            <ns3:hr>92</ns3:hr>
          </ns3:TrackPointExtension>
        </extensions>
      </trkpt>
      <trkpt lat="36.76976845599710941314697265625" lon="-118.42314161360263824462890625">
        <ele>3247.199951171875</ele>
        <time>2021-06-25T19:18:40.000Z</time>
        <extensions>
          <ns3:TrackPointExtension>
            <ns3:atemp>27.0</ns3:atemp>
            <ns3:hr>92</ns3:hr>
          </ns3:TrackPointExtension>
        </extensions>
      </trkpt>
      <trkpt lat="36.76977130584418773651123046875" lon="-118.423121161758899688720703125">
        <ele>3247.39990234375</ele>
        <time>2021-06-25T19:18:42.000Z</time>
        <extensions>
          <ns3:TrackPointExtension>
            <ns3:atemp>27.0</ns3:atemp>
            <ns3:hr>92</ns3:hr>
          </ns3:TrackPointExtension>
        </extensions>
      </trkpt>
      <trkpt lat="36.76979117095470428466796875" lon="-118.42302636243402957916259765625">
        <ele>3247.60009765625</ele>
        <time>2021-06-25T19:18:51.000Z</time>
        <extensions>
          <ns3:TrackPointExtension>
            <ns3:atemp>27.0</ns3:atemp>
            <ns3:hr>94</ns3:hr>
          </ns3:TrackPointExtension>
        </extensions>
      </trkpt>
      <trkpt lat="36.7697886563837528228759765625" lon="-118.4229630790650844573974609375">
        <ele>3248.199951171875</ele>
        <time>2021-06-25T19:18:59.000Z</time>
        <extensions>
          <ns3:TrackPointExtension>
            <ns3:atemp>27.0</ns3:atemp>
            <ns3:hr>97</ns3:hr>
          </ns3:TrackPointExtension>
        </extensions>
      </trkpt>
      <trkpt lat="36.7697920091450214385986328125" lon="-118.42296123504638671875">
        <ele>3248.199951171875</ele>
        <time>2021-06-25T19:19:00.000Z</time>
        <extensions>
          <ns3:TrackPointExtension>
            <ns3:atemp>27.0</ns3:atemp>
            <ns3:hr>97</ns3:hr>
          </ns3:TrackPointExtension>
        </extensions>
      </trkpt>
      <trkpt lat="36.769804917275905609130859375" lon="-118.422952182590961456298828125">
        <ele>3248.39990234375</ele>
        <time>2021-06-25T19:19:02.000Z</time>
        <extensions>
          <ns3:TrackPointExtension>
            <ns3:atemp>27.0</ns3:atemp>
            <ns3:hr>96</ns3:hr>
          </ns3:TrackPointExtension>
        </extensions>
      </trkpt>
      <trkpt lat="36.76981690339744091033935546875" lon="-118.422938100993633270263671875">
        <ele>3248.800048828125</ele>
        <time>2021-06-25T19:19:04.000Z</time>
        <extensions>
          <ns3:TrackPointExtension>
            <ns3:atemp>27.0</ns3:atemp>
            <ns3:hr>95</ns3:hr>
          </ns3:TrackPointExtension>
        </extensions>
      </trkpt>
      <trkpt lat="36.76982444711029529571533203125" lon="-118.42293114401400089263916015625">
        <ele>3248.800048828125</ele>
        <time>2021-06-25T19:19:05.000Z</time>
        <extensions>
          <ns3:TrackPointExtension>
            <ns3:atemp>27.0</ns3:atemp>
            <ns3:hr>98</ns3:hr>
          </ns3:TrackPointExtension>
        </extensions>
      </trkpt>
      <trkpt lat="36.7698392830789089202880859375" lon="-118.42292075045406818389892578125">
        <ele>3249</ele>
        <time>2021-06-25T19:19:07.000Z</time>
        <extensions>
          <ns3:TrackPointExtension>
            <ns3:atemp>27.0</ns3:atemp>
            <ns3:hr>96</ns3:hr>
          </ns3:TrackPointExtension>
        </extensions>
      </trkpt>
      <trkpt lat="36.76985110156238079071044921875" lon="-118.4229107759892940521240234375">
        <ele>3249</ele>
        <time>2021-06-25T19:19:09.000Z</time>
        <extensions>
          <ns3:TrackPointExtension>
            <ns3:atemp>27.0</ns3:atemp>
            <ns3:hr>98</ns3:hr>
          </ns3:TrackPointExtension>
        </extensions>
      </trkpt>
      <trkpt lat="36.76986920647323131561279296875" lon="-118.42291354201734066009521484375">
        <ele>3249</ele>
        <time>2021-06-25T19:19:12.000Z</time>
        <extensions>
          <ns3:TrackPointExtension>
            <ns3:atemp>27.0</ns3:atemp>
            <ns3:hr>101</ns3:hr>
          </ns3:TrackPointExtension>
        </extensions>
      </trkpt>
      <trkpt lat="36.76988094113767147064208984375" lon="-118.42291940934956073760986328125">
        <ele>3249.199951171875</ele>
        <time>2021-06-25T19:19:15.000Z</time>
        <extensions>
          <ns3:TrackPointExtension>
            <ns3:atemp>27.0</ns3:atemp>
            <ns3:hr>103</ns3:hr>
          </ns3:TrackPointExtension>
        </extensions>
      </trkpt>
      <trkpt lat="36.7698845453560352325439453125" lon="-118.42292167246341705322265625">
        <ele>3249.39990234375</ele>
        <time>2021-06-25T19:19:16.000Z</time>
        <extensions>
          <ns3:TrackPointExtension>
            <ns3:atemp>27.0</ns3:atemp>
            <ns3:hr>104</ns3:hr>
          </ns3:TrackPointExtension>
        </extensions>
      </trkpt>
      <trkpt lat="36.76988831721246242523193359375" lon="-118.42292125336825847625732421875">
        <ele>3249.39990234375</ele>
        <time>2021-06-25T19:19:17.000Z</time>
        <extensions>
          <ns3:TrackPointExtension>
            <ns3:atemp>27.0</ns3:atemp>
            <ns3:hr>106</ns3:hr>
          </ns3:TrackPointExtension>
        </extensions>
      </trkpt>
      <trkpt lat="36.76989770494401454925537109375" lon="-118.422903902828693389892578125">
        <ele>3249.800048828125</ele>
        <time>2021-06-25T19:19:19.000Z</time>
        <extensions>
          <ns3:TrackPointExtension>
            <ns3:atemp>27.0</ns3:atemp>
            <ns3:hr>109</ns3:hr>
          </ns3:TrackPointExtension>
        </extensions>
      </trkpt>
      <trkpt lat="36.76990357227623462677001953125" lon="-118.42289694584906101226806640625">
        <ele>3250</ele>
        <time>2021-06-25T19:19:20.000Z</time>
        <extensions>
          <ns3:TrackPointExtension>
            <ns3:atemp>27.0</ns3:atemp>
            <ns3:hr>110</ns3:hr>
          </ns3:TrackPointExtension>
        </extensions>
      </trkpt>
      <trkpt lat="36.769910193979740142822265625" lon="-118.42290331609547138214111328125">
        <ele>3250.60009765625</ele>
        <time>2021-06-25T19:19:23.000Z</time>
        <extensions>
          <ns3:TrackPointExtension>
            <ns3:atemp>27.0</ns3:atemp>
            <ns3:hr>112</ns3:hr>
          </ns3:TrackPointExtension>
        </extensions>
      </trkpt>
      <trkpt lat="36.7699452303349971771240234375" lon="-118.4228611551225185394287109375">
        <ele>3251</ele>
        <time>2021-06-25T19:19:29.000Z</time>
        <extensions>
          <ns3:TrackPointExtension>
            <ns3:atemp>27.0</ns3:atemp>
            <ns3:hr>111</ns3:hr>
          </ns3:TrackPointExtension>
        </extensions>
      </trkpt>
      <trkpt lat="36.7699398659169673919677734375" lon="-118.42284833081066608428955078125">
        <ele>3251.199951171875</ele>
        <time>2021-06-25T19:19:31.000Z</time>
        <extensions>
          <ns3:TrackPointExtension>
            <ns3:atemp>27.0</ns3:atemp>
            <ns3:hr>111</ns3:hr>
          </ns3:TrackPointExtension>
        </extensions>
      </trkpt>
      <trkpt lat="36.769921593368053436279296875" lon="-118.42283894307911396026611328125">
        <ele>3252</ele>
        <time>2021-06-25T19:19:36.000Z</time>
        <extensions>
          <ns3:TrackPointExtension>
            <ns3:atemp>27.0</ns3:atemp>
            <ns3:hr>111</ns3:hr>
          </ns3:TrackPointExtension>
        </extensions>
      </trkpt>
      <trkpt lat="36.7699234373867511749267578125" lon="-118.4228333272039890289306640625">
        <ele>3252.199951171875</ele>
        <time>2021-06-25T19:19:37.000Z</time>
        <extensions>
          <ns3:TrackPointExtension>
            <ns3:atemp>27.0</ns3:atemp>
            <ns3:hr>111</ns3:hr>
          </ns3:TrackPointExtension>
        </extensions>
      </trkpt>
      <trkpt lat="36.76992553286254405975341796875" lon="-118.42277490533888339996337890625">
        <ele>3253</ele>
        <time>2021-06-25T19:19:44.000Z</time>
        <extensions>
          <ns3:TrackPointExtension>
            <ns3:atemp>27.0</ns3:atemp>
            <ns3:hr>112</ns3:hr>
          </ns3:TrackPointExtension>
        </extensions>
      </trkpt>
      <trkpt lat="36.76992469467222690582275390625" lon="-118.422765433788299560546875">
        <ele>3253.39990234375</ele>
        <time>2021-06-25T19:19:45.000Z</time>
        <extensions>
          <ns3:TrackPointExtension>
            <ns3:atemp>27.0</ns3:atemp>
            <ns3:hr>112</ns3:hr>
          </ns3:TrackPointExtension>
        </extensions>
      </trkpt>
      <trkpt lat="36.76991312764585018157958984375" lon="-118.42274305410683155059814453125">
        <ele>3254</ele>
        <time>2021-06-25T19:19:49.000Z</time>
        <extensions>
          <ns3:TrackPointExtension>
            <ns3:atemp>27.0</ns3:atemp>
            <ns3:hr>109</ns3:hr>
          </ns3:TrackPointExtension>
        </extensions>
      </trkpt>
      <trkpt lat="36.7698992975056171417236328125" lon="-118.42271673493087291717529296875">
        <ele>3254.39990234375</ele>
        <time>2021-06-25T19:19:53.000Z</time>
        <extensions>
          <ns3:TrackPointExtension>
            <ns3:atemp>27.0</ns3:atemp>
            <ns3:hr>107</ns3:hr>
          </ns3:TrackPointExtension>
        </extensions>
      </trkpt>
      <trkpt lat="36.76989569328725337982177734375" lon="-118.42271153815090656280517578125">
        <ele>3254.800048828125</ele>
        <time>2021-06-25T19:19:54.000Z</time>
        <extensions>
          <ns3:TrackPointExtension>
            <ns3:atemp>27.0</ns3:atemp>
            <ns3:hr>107</ns3:hr>
          </ns3:TrackPointExtension>
        </extensions>
      </trkpt>
      <trkpt lat="36.7698959447443485260009765625" lon="-118.4226931817829608917236328125">
        <ele>3255.199951171875</ele>
        <time>2021-06-25T19:19:56.000Z</time>
        <extensions>
          <ns3:TrackPointExtension>
            <ns3:atemp>27.0</ns3:atemp>
            <ns3:hr>107</ns3:hr>
          </ns3:TrackPointExtension>
        </extensions>
      </trkpt>
      <trkpt lat="36.76988529972732067108154296875" lon="-118.42265621758997440338134765625">
        <ele>3255.39990234375</ele>
        <time>2021-06-25T19:20:00.000Z</time>
        <extensions>
          <ns3:TrackPointExtension>
            <ns3:atemp>27.0</ns3:atemp>
            <ns3:hr>109</ns3:hr>
          </ns3:TrackPointExtension>
        </extensions>
      </trkpt>
      <trkpt lat="36.76988228224217891693115234375" lon="-118.422647416591644287109375">
        <ele>3255.60009765625</ele>
        <time>2021-06-25T19:20:01.000Z</time>
        <extensions>
          <ns3:TrackPointExtension>
            <ns3:atemp>27.0</ns3:atemp>
            <ns3:hr>109</ns3:hr>
          </ns3:TrackPointExtension>
        </extensions>
      </trkpt>
      <trkpt lat="36.769881360232830047607421875" lon="-118.42263643629848957061767578125">
        <ele>3255.800048828125</ele>
        <time>2021-06-25T19:20:02.000Z</time>
        <extensions>
          <ns3:TrackPointExtension>
            <ns3:atemp>27.0</ns3:atemp>
            <ns3:hr>110</ns3:hr>
          </ns3:TrackPointExtension>
        </extensions>
      </trkpt>
      <trkpt lat="36.76987809129059314727783203125" lon="-118.42262906022369861602783203125">
        <ele>3256</ele>
        <time>2021-06-25T19:20:03.000Z</time>
        <extensions>
          <ns3:TrackPointExtension>
            <ns3:atemp>27.0</ns3:atemp>
            <ns3:hr>110</ns3:hr>
          </ns3:TrackPointExtension>
        </extensions>
      </trkpt>
      <trkpt lat="36.7698741517961025238037109375" lon="-118.42262336052954196929931640625">
        <ele>3256.199951171875</ele>
        <time>2021-06-25T19:20:04.000Z</time>
        <extensions>
          <ns3:TrackPointExtension>
            <ns3:atemp>27.0</ns3:atemp>
            <ns3:hr>111</ns3:hr>
          </ns3:TrackPointExtension>
        </extensions>
      </trkpt>
      <trkpt lat="36.76987289451062679290771484375" lon="-118.42261011712253093719482421875">
        <ele>3256.199951171875</ele>
        <time>2021-06-25T19:20:06.000Z</time>
        <extensions>
          <ns3:TrackPointExtension>
            <ns3:atemp>27.0</ns3:atemp>
            <ns3:hr>113</ns3:hr>
          </ns3:TrackPointExtension>
        </extensions>
      </trkpt>
      <trkpt lat="36.76988278515636920928955078125" lon="-118.42256384901702404022216796875">
        <ele>3256.800048828125</ele>
        <time>2021-06-25T19:20:11.000Z</time>
        <extensions>
          <ns3:TrackPointExtension>
            <ns3:atemp>27.0</ns3:atemp>
            <ns3:hr>115</ns3:hr>
          </ns3:TrackPointExtension>
        </extensions>
      </trkpt>
      <trkpt lat="36.76988446153700351715087890625" lon="-118.4225547127425670623779296875">
        <ele>3257</ele>
        <time>2021-06-25T19:20:12.000Z</time>
        <extensions>
          <ns3:TrackPointExtension>
            <ns3:atemp>27.0</ns3:atemp>
            <ns3:hr>115</ns3:hr>
          </ns3:TrackPointExtension>
        </extensions>
      </trkpt>
      <trkpt lat="36.7698862217366695404052734375" lon="-118.42254616320133209228515625">
        <ele>3257</ele>
        <time>2021-06-25T19:20:13.000Z</time>
        <extensions>
          <ns3:TrackPointExtension>
            <ns3:atemp>27.0</ns3:atemp>
            <ns3:hr>115</ns3:hr>
          </ns3:TrackPointExtension>
        </extensions>
      </trkpt>
      <trkpt lat="36.76988597027957439422607421875" lon="-118.4225369431078433990478515625">
        <ele>3257.39990234375</ele>
        <time>2021-06-25T19:20:14.000Z</time>
        <extensions>
          <ns3:TrackPointExtension>
            <ns3:atemp>27.0</ns3:atemp>
            <ns3:hr>116</ns3:hr>
          </ns3:TrackPointExtension>
        </extensions>
      </trkpt>
      <trkpt lat="36.7698736488819122314453125" lon="-118.42251070775091648101806640625">
        <ele>3257</ele>
        <time>2021-06-25T19:20:17.000Z</time>
        <extensions>
          <ns3:TrackPointExtension>
            <ns3:atemp>27.0</ns3:atemp>
            <ns3:hr>115</ns3:hr>
          </ns3:TrackPointExtension>
        </extensions>
      </trkpt>
      <trkpt lat="36.769864596426486968994140625" lon="-118.42248983681201934814453125">
        <ele>3257</ele>
        <time>2021-06-25T19:20:19.000Z</time>
        <extensions>
          <ns3:TrackPointExtension>
            <ns3:atemp>27.0</ns3:atemp>
            <ns3:hr>119</ns3:hr>
          </ns3:TrackPointExtension>
        </extensions>
      </trkpt>
      <trkpt lat="36.76985026337206363677978515625" lon="-118.42247500084340572357177734375">
        <ele>3256.800048828125</ele>
        <time>2021-06-25T19:20:21.000Z</time>
        <extensions>
          <ns3:TrackPointExtension>
            <ns3:atemp>27.0</ns3:atemp>
            <ns3:hr>119</ns3:hr>
          </ns3:TrackPointExtension>
        </extensions>
      </trkpt>
      <trkpt lat="36.76984422840178012847900390625" lon="-118.42246946878731250762939453125">
        <ele>3256.800048828125</ele>
        <time>2021-06-25T19:20:22.000Z</time>
        <extensions>
          <ns3:TrackPointExtension>
            <ns3:atemp>27.0</ns3:atemp>
            <ns3:hr>120</ns3:hr>
          </ns3:TrackPointExtension>
        </extensions>
      </trkpt>
      <trkpt lat="36.76981589756906032562255859375" lon="-118.42243024148046970367431640625">
        <ele>3256.39990234375</ele>
        <time>2021-06-25T19:20:27.000Z</time>
        <extensions>
          <ns3:TrackPointExtension>
            <ns3:atemp>27.0</ns3:atemp>
            <ns3:hr>118</ns3:hr>
          </ns3:TrackPointExtension>
        </extensions>
      </trkpt>
      <trkpt lat="36.76980860531330108642578125" lon="-118.42241607606410980224609375">
        <ele>3256.199951171875</ele>
        <time>2021-06-25T19:20:29.000Z</time>
        <extensions>
          <ns3:TrackPointExtension>
            <ns3:atemp>27.0</ns3:atemp>
            <ns3:hr>121</ns3:hr>
          </ns3:TrackPointExtension>
        </extensions>
      </trkpt>
      <trkpt lat="36.769808270037174224853515625" lon="-118.4224105440080165863037109375">
        <ele>3256.199951171875</ele>
        <time>2021-06-25T19:20:30.000Z</time>
        <extensions>
          <ns3:TrackPointExtension>
            <ns3:atemp>27.0</ns3:atemp>
            <ns3:hr>122</ns3:hr>
          </ns3:TrackPointExtension>
        </extensions>
      </trkpt>
      <trkpt lat="36.76980701275169849395751953125" lon="-118.42237693257629871368408203125">
        <ele>3255.60009765625</ele>
        <time>2021-06-25T19:20:34.000Z</time>
        <extensions>
          <ns3:TrackPointExtension>
            <ns3:atemp>27.0</ns3:atemp>
            <ns3:hr>125</ns3:hr>
          </ns3:TrackPointExtension>
        </extensions>
      </trkpt>
      <trkpt lat="36.76981019787490367889404296875" lon="-118.42233602888882160186767578125">
        <ele>3255.39990234375</ele>
        <time>2021-06-25T19:20:39.000Z</time>
        <extensions>
          <ns3:TrackPointExtension>
            <ns3:atemp>27.0</ns3:atemp>
            <ns3:hr>124</ns3:hr>
          </ns3:TrackPointExtension>
        </extensions>
      </trkpt>
      <trkpt lat="36.76982603967189788818359375" lon="-118.4223096258938312530517578125">
        <ele>3255</ele>
        <time>2021-06-25T19:20:43.000Z</time>
        <extensions>
          <ns3:TrackPointExtension>
            <ns3:atemp>27.0</ns3:atemp>
            <ns3:hr>123</ns3:hr>
          </ns3:TrackPointExtension>
        </extensions>
      </trkpt>
      <trkpt lat="36.76982067525386810302734375" lon="-118.42228473164141178131103515625">
        <ele>3254.60009765625</ele>
        <time>2021-06-25T19:20:46.000Z</time>
        <extensions>
          <ns3:TrackPointExtension>
            <ns3:atemp>27.0</ns3:atemp>
            <ns3:hr>122</ns3:hr>
          </ns3:TrackPointExtension>
        </extensions>
      </trkpt>
      <trkpt lat="36.7698262073099613189697265625" lon="-118.42227551154792308807373046875">
        <ele>3254</ele>
        <time>2021-06-25T19:20:48.000Z</time>
        <extensions>
          <ns3:TrackPointExtension>
            <ns3:atemp>27.0</ns3:atemp>
            <ns3:hr>121</ns3:hr>
          </ns3:TrackPointExtension>
        </extensions>
      </trkpt>
      <trkpt lat="36.76985898055136203765869140625" lon="-118.42226277105510234832763671875">
        <ele>3253.800048828125</ele>
        <time>2021-06-25T19:20:53.000Z</time>
        <extensions>
          <ns3:TrackPointExtension>
            <ns3:atemp>27.0</ns3:atemp>
            <ns3:hr>119</ns3:hr>
          </ns3:TrackPointExtension>
        </extensions>
      </trkpt>
      <trkpt lat="36.769846491515636444091796875" lon="-118.4222150780260562896728515625">
        <ele>3253.199951171875</ele>
        <time>2021-06-25T19:20:59.000Z</time>
        <extensions>
          <ns3:TrackPointExtension>
            <ns3:atemp>27.0</ns3:atemp>
            <ns3:hr>119</ns3:hr>
          </ns3:TrackPointExtension>
        </extensions>
      </trkpt>
      <trkpt lat="36.7698416300117969512939453125" lon="-118.4221932850778102874755859375">
        <ele>3252.60009765625</ele>
        <time>2021-06-25T19:21:01.000Z</time>
        <extensions>
          <ns3:TrackPointExtension>
            <ns3:atemp>27.0</ns3:atemp>
            <ns3:hr>118</ns3:hr>
          </ns3:TrackPointExtension>
        </extensions>
      </trkpt>
      <trkpt lat="36.76984121091663837432861328125" lon="-118.42215732671320438385009765625">
        <ele>3252.199951171875</ele>
        <time>2021-06-25T19:21:05.000Z</time>
        <extensions>
          <ns3:TrackPointExtension>
            <ns3:atemp>27.0</ns3:atemp>
            <ns3:hr>114</ns3:hr>
          </ns3:TrackPointExtension>
        </extensions>
      </trkpt>
      <trkpt lat="36.76984883844852447509765625" lon="-118.42214425094425678253173828125">
        <ele>3251.800048828125</ele>
        <time>2021-06-25T19:21:07.000Z</time>
        <extensions>
          <ns3:TrackPointExtension>
            <ns3:atemp>27.0</ns3:atemp>
            <ns3:hr>113</ns3:hr>
          </ns3:TrackPointExtension>
        </extensions>
      </trkpt>
      <trkpt lat="36.76985378377139568328857421875" lon="-118.42211675830185413360595703125">
        <ele>3251.60009765625</ele>
        <time>2021-06-25T19:21:10.000Z</time>
        <extensions>
          <ns3:TrackPointExtension>
            <ns3:atemp>27.0</ns3:atemp>
            <ns3:hr>110</ns3:hr>
          </ns3:TrackPointExtension>
        </extensions>
      </trkpt>
      <trkpt lat="36.76983634941279888153076171875" lon="-118.42207870446145534515380859375">
        <ele>3251.39990234375</ele>
        <time>2021-06-25T19:21:14.000Z</time>
        <extensions>
          <ns3:TrackPointExtension>
            <ns3:atemp>27.0</ns3:atemp>
            <ns3:hr>108</ns3:hr>
          </ns3:TrackPointExtension>
        </extensions>
      </trkpt>
      <trkpt lat="36.7698265425860881805419921875" lon="-118.42202925123274326324462890625">
        <ele>3250.39990234375</ele>
        <time>2021-06-25T19:21:21.000Z</time>
        <extensions>
          <ns3:TrackPointExtension>
            <ns3:atemp>27.0</ns3:atemp>
            <ns3:hr>107</ns3:hr>
          </ns3:TrackPointExtension>
        </extensions>
      </trkpt>
      <trkpt lat="36.76983232609927654266357421875" lon="-118.4220236353576183319091796875">
        <ele>3250.199951171875</ele>
        <time>2021-06-25T19:21:22.000Z</time>
        <extensions>
          <ns3:TrackPointExtension>
            <ns3:atemp>27.0</ns3:atemp>
            <ns3:hr>106</ns3:hr>
          </ns3:TrackPointExtension>
        </extensions>
      </trkpt>
      <trkpt lat="36.7698275484144687652587890625" lon="-118.4219951368868350982666015625">
        <ele>3249.39990234375</ele>
        <time>2021-06-25T19:21:25.000Z</time>
        <extensions>
          <ns3:TrackPointExtension>
            <ns3:atemp>27.0</ns3:atemp>
            <ns3:hr>105</ns3:hr>
          </ns3:TrackPointExtension>
        </extensions>
      </trkpt>
      <trkpt lat="36.76981455646455287933349609375" lon="-118.4219703264534473419189453125">
        <ele>3249</ele>
        <time>2021-06-25T19:21:28.000Z</time>
        <extensions>
          <ns3:TrackPointExtension>
            <ns3:atemp>27.0</ns3:atemp>
            <ns3:hr>105</ns3:hr>
          </ns3:TrackPointExtension>
        </extensions>
      </trkpt>
      <trkpt lat="36.76979896612465381622314453125" lon="-118.421940989792346954345703125">
        <ele>3248.199951171875</ele>
        <time>2021-06-25T19:21:32.000Z</time>
        <extensions>
          <ns3:TrackPointExtension>
            <ns3:atemp>27.0</ns3:atemp>
            <ns3:hr>105</ns3:hr>
          </ns3:TrackPointExtension>
        </extensions>
      </trkpt>
      <trkpt lat="36.76980181597173213958740234375" lon="-118.42192062176764011383056640625">
        <ele>3248.199951171875</ele>
        <time>2021-06-25T19:21:34.000Z</time>
        <extensions>
          <ns3:TrackPointExtension>
            <ns3:atemp>27.0</ns3:atemp>
            <ns3:hr>105</ns3:hr>
          </ns3:TrackPointExtension>
        </extensions>
      </trkpt>
      <trkpt lat="36.76981606520712375640869140625" lon="-118.421864211559295654296875">
        <ele>3247.39990234375</ele>
        <time>2021-06-25T19:21:40.000Z</time>
        <extensions>
          <ns3:TrackPointExtension>
            <ns3:atemp>27.0</ns3:atemp>
            <ns3:hr>102</ns3:hr>
          </ns3:TrackPointExtension>
        </extensions>
      </trkpt>
      <trkpt lat="36.7698148079216480255126953125" lon="-118.42184803448617458343505859375">
        <ele>3247.39990234375</ele>
        <time>2021-06-25T19:21:42.000Z</time>
        <extensions>
          <ns3:TrackPointExtension>
            <ns3:atemp>27.0</ns3:atemp>
            <ns3:hr>102</ns3:hr>
          </ns3:TrackPointExtension>
        </extensions>
      </trkpt>
      <trkpt lat="36.769834421575069427490234375" lon="-118.42181165702641010284423828125">
        <ele>3247.39990234375</ele>
        <time>2021-06-25T19:21:47.000Z</time>
        <extensions>
          <ns3:TrackPointExtension>
            <ns3:atemp>27.0</ns3:atemp>
            <ns3:hr>99</ns3:hr>
          </ns3:TrackPointExtension>
        </extensions>
      </trkpt>
      <trkpt lat="36.769836433231830596923828125" lon="-118.421786092221736907958984375">
        <ele>3247.199951171875</ele>
        <time>2021-06-25T19:21:50.000Z</time>
        <extensions>
          <ns3:TrackPointExtension>
            <ns3:atemp>27.0</ns3:atemp>
            <ns3:hr>96</ns3:hr>
          </ns3:TrackPointExtension>
        </extensions>
      </trkpt>
      <trkpt lat="36.76982603967189788818359375" lon="-118.42173906974494457244873046875">
        <ele>3247.199951171875</ele>
        <time>2021-06-25T19:21:54.000Z</time>
        <extensions>
          <ns3:TrackPointExtension>
            <ns3:atemp>27.0</ns3:atemp>
            <ns3:hr>93</ns3:hr>
          </ns3:TrackPointExtension>
        </extensions>
      </trkpt>
      <trkpt lat="36.76983282901346683502197265625" lon="-118.4217259101569652557373046875">
        <ele>3247.199951171875</ele>
        <time>2021-06-25T19:21:56.000Z</time>
        <extensions>
          <ns3:TrackPointExtension>
            <ns3:atemp>27.0</ns3:atemp>
            <ns3:hr>92</ns3:hr>
          </ns3:TrackPointExtension>
        </extensions>
      </trkpt>
      <trkpt lat="36.76984615623950958251953125" lon="-118.4216482937335968017578125">
        <ele>3247</ele>
        <time>2021-06-25T19:22:03.000Z</time>
        <extensions>
          <ns3:TrackPointExtension>
            <ns3:atemp>27.0</ns3:atemp>
            <ns3:hr>91</ns3:hr>
          </ns3:TrackPointExtension>
        </extensions>
      </trkpt>
      <trkpt lat="36.76987775601446628570556640625" lon="-118.42161417938768863677978515625">
        <ele>3247.199951171875</ele>
        <time>2021-06-25T19:22:07.000Z</time>
        <extensions>
          <ns3:TrackPointExtension>
            <ns3:atemp>27.0</ns3:atemp>
            <ns3:hr>94</ns3:hr>
          </ns3:TrackPointExtension>
        </extensions>
      </trkpt>
      <trkpt lat="36.76990239880979061126708984375" lon="-118.42159406282007694244384765625">
        <ele>3247.39990234375</ele>
        <time>2021-06-25T19:22:12.000Z</time>
        <extensions>
          <ns3:TrackPointExtension>
            <ns3:atemp>27.0</ns3:atemp>
            <ns3:hr>97</ns3:hr>
          </ns3:TrackPointExtension>
        </extensions>
      </trkpt>
      <trkpt lat="36.76990625448524951934814453125" lon="-118.42156606726348400115966796875">
        <ele>3247.60009765625</ele>
        <time>2021-06-25T19:22:14.000Z</time>
        <extensions>
          <ns3:TrackPointExtension>
            <ns3:atemp>27.0</ns3:atemp>
            <ns3:hr>100</ns3:hr>
          </ns3:TrackPointExtension>
        </extensions>
      </trkpt>
      <trkpt lat="36.76988764666020870208740234375" lon="-118.42151493765413761138916015625">
        <ele>3248.199951171875</ele>
        <time>2021-06-25T19:22:19.000Z</time>
        <extensions>
          <ns3:TrackPointExtension>
            <ns3:atemp>27.0</ns3:atemp>
            <ns3:hr>100</ns3:hr>
          </ns3:TrackPointExtension>
        </extensions>
      </trkpt>
      <trkpt lat="36.76988496445119380950927734375" lon="-118.42150202952325344085693359375">
        <ele>3248</ele>
        <time>2021-06-25T19:22:20.000Z</time>
        <extensions>
          <ns3:TrackPointExtension>
            <ns3:atemp>27.0</ns3:atemp>
            <ns3:hr>97</ns3:hr>
          </ns3:TrackPointExtension>
        </extensions>
      </trkpt>
      <trkpt lat="36.76987976767122745513916015625" lon="-118.42149213887751102447509765625">
        <ele>3248</ele>
        <time>2021-06-25T19:22:21.000Z</time>
        <extensions>
          <ns3:TrackPointExtension>
            <ns3:atemp>27.0</ns3:atemp>
            <ns3:hr>102</ns3:hr>
          </ns3:TrackPointExtension>
        </extensions>
      </trkpt>
      <trkpt lat="36.7698709666728973388671875" lon="-118.4214325435459613800048828125">
        <ele>3248</ele>
        <time>2021-06-25T19:22:27.000Z</time>
        <extensions>
          <ns3:TrackPointExtension>
            <ns3:atemp>27.0</ns3:atemp>
            <ns3:hr>101</ns3:hr>
          </ns3:TrackPointExtension>
        </extensions>
      </trkpt>
      <trkpt lat="36.76987431943416595458984375" lon="-118.4214201383292675018310546875">
        <ele>3248.39990234375</ele>
        <time>2021-06-25T19:22:28.000Z</time>
        <extensions>
          <ns3:TrackPointExtension>
            <ns3:atemp>27.0</ns3:atemp>
            <ns3:hr>101</ns3:hr>
          </ns3:TrackPointExtension>
        </extensions>
      </trkpt>
      <trkpt lat="36.76989451982080936431884765625" lon="-118.42139281332492828369140625">
        <ele>3249.199951171875</ele>
        <time>2021-06-25T19:22:32.000Z</time>
        <extensions>
          <ns3:TrackPointExtension>
            <ns3:atemp>27.0</ns3:atemp>
            <ns3:hr>104</ns3:hr>
          </ns3:TrackPointExtension>
        </extensions>
      </trkpt>
      <trkpt lat="36.76991949789226055145263671875" lon="-118.42136892490088939666748046875">
        <ele>3248.800048828125</ele>
        <time>2021-06-25T19:22:35.000Z</time>
        <extensions>
          <ns3:TrackPointExtension>
            <ns3:atemp>27.0</ns3:atemp>
            <ns3:hr>104</ns3:hr>
          </ns3:TrackPointExtension>
        </extensions>
      </trkpt>
      <trkpt lat="36.7699244432151317596435546875" lon="-118.421358279883861541748046875">
        <ele>3248.800048828125</ele>
        <time>2021-06-25T19:22:36.000Z</time>
        <extensions>
          <ns3:TrackPointExtension>
            <ns3:atemp>27.0</ns3:atemp>
            <ns3:hr>105</ns3:hr>
          </ns3:TrackPointExtension>
        </extensions>
      </trkpt>
      <trkpt lat="36.7699527740478515625" lon="-118.4212602116167545318603515625">
        <ele>3247.800048828125</ele>
        <time>2021-06-25T19:22:44.000Z</time>
        <extensions>
          <ns3:TrackPointExtension>
            <ns3:atemp>27.0</ns3:atemp>
            <ns3:hr>105</ns3:hr>
          </ns3:TrackPointExtension>
        </extensions>
      </trkpt>
      <trkpt lat="36.76995587535202503204345703125" lon="-118.42125065624713897705078125">
        <ele>3247.800048828125</ele>
        <time>2021-06-25T19:22:45.000Z</time>
        <extensions>
          <ns3:TrackPointExtension>
            <ns3:atemp>27.0</ns3:atemp>
            <ns3:hr>105</ns3:hr>
          </ns3:TrackPointExtension>
        </extensions>
      </trkpt>
      <trkpt lat="36.76997096277773380279541015625" lon="-118.42122157104313373565673828125">
        <ele>3247.199951171875</ele>
        <time>2021-06-25T19:22:48.000Z</time>
        <extensions>
          <ns3:TrackPointExtension>
            <ns3:atemp>27.0</ns3:atemp>
            <ns3:hr>105</ns3:hr>
          </ns3:TrackPointExtension>
        </extensions>
      </trkpt>
      <trkpt lat="36.7699921689927577972412109375" lon="-118.4211898036301136016845703125">
        <ele>3247</ele>
        <time>2021-06-25T19:22:52.000Z</time>
        <extensions>
          <ns3:TrackPointExtension>
            <ns3:atemp>27.0</ns3:atemp>
            <ns3:hr>104</ns3:hr>
          </ns3:TrackPointExtension>
        </extensions>
      </trkpt>
      <trkpt lat="36.770023517310619354248046875" lon="-118.421108834445476531982421875">
        <ele>3247.800048828125</ele>
        <time>2021-06-25T19:23:02.000Z</time>
        <extensions>
          <ns3:TrackPointExtension>
            <ns3:atemp>27.0</ns3:atemp>
            <ns3:hr>103</ns3:hr>
          </ns3:TrackPointExtension>
        </extensions>
      </trkpt>
      <trkpt lat="36.77003399468958377838134765625" lon="-118.4210892207920551300048828125">
        <ele>3248.800048828125</ele>
        <time>2021-06-25T19:23:05.000Z</time>
        <extensions>
          <ns3:TrackPointExtension>
            <ns3:atemp>27.0</ns3:atemp>
            <ns3:hr>102</ns3:hr>
          </ns3:TrackPointExtension>
        </extensions>
      </trkpt>
      <trkpt lat="36.7700511775910854339599609375" lon="-118.42106826603412628173828125">
        <ele>3249</ele>
        <time>2021-06-25T19:23:08.000Z</time>
        <extensions>
          <ns3:TrackPointExtension>
            <ns3:atemp>27.0</ns3:atemp>
            <ns3:hr>102</ns3:hr>
          </ns3:TrackPointExtension>
        </extensions>
      </trkpt>
      <trkpt lat="36.77008126862347126007080078125" lon="-118.4210318885743618011474609375">
        <ele>3249.60009765625</ele>
        <time>2021-06-25T19:23:12.000Z</time>
        <extensions>
          <ns3:TrackPointExtension>
            <ns3:atemp>27.0</ns3:atemp>
            <ns3:hr>105</ns3:hr>
          </ns3:TrackPointExtension>
        </extensions>
      </trkpt>
      <trkpt lat="36.7700981162488460540771484375" lon="-118.4210027195513248443603515625">
        <ele>3249.39990234375</ele>
        <time>2021-06-25T19:23:15.000Z</time>
        <extensions>
          <ns3:TrackPointExtension>
            <ns3:atemp>27.0</ns3:atemp>
            <ns3:hr>105</ns3:hr>
          </ns3:TrackPointExtension>
        </extensions>
      </trkpt>
      <trkpt lat="36.7701391875743865966796875" lon="-118.4209537692368030548095703125">
        <ele>3248</ele>
        <time>2021-06-25T19:23:23.000Z</time>
        <extensions>
          <ns3:TrackPointExtension>
            <ns3:atemp>27.0</ns3:atemp>
            <ns3:hr>104</ns3:hr>
          </ns3:TrackPointExtension>
        </extensions>
      </trkpt>
      <trkpt lat="36.77014161832630634307861328125" lon="-118.4209403581917285919189453125">
        <ele>3247.800048828125</ele>
        <time>2021-06-25T19:23:24.000Z</time>
        <extensions>
          <ns3:TrackPointExtension>
            <ns3:atemp>27.0</ns3:atemp>
            <ns3:hr>103</ns3:hr>
          </ns3:TrackPointExtension>
        </extensions>
      </trkpt>
      <trkpt lat="36.77015720866620540618896484375" lon="-118.420881517231464385986328125">
        <ele>3248.199951171875</ele>
        <time>2021-06-25T19:23:30.000Z</time>
        <extensions>
          <ns3:TrackPointExtension>
            <ns3:atemp>27.0</ns3:atemp>
            <ns3:hr>103</ns3:hr>
          </ns3:TrackPointExtension>
        </extensions>
      </trkpt>
      <trkpt lat="36.770162992179393768310546875" lon="-118.42085503041744232177734375">
        <ele>3249.199951171875</ele>
        <time>2021-06-25T19:23:33.000Z</time>
        <extensions>
          <ns3:TrackPointExtension>
            <ns3:atemp>27.0</ns3:atemp>
            <ns3:hr>103</ns3:hr>
          </ns3:TrackPointExtension>
        </extensions>
      </trkpt>
      <trkpt lat="36.77017782814800739288330078125" lon="-118.420811109244823455810546875">
        <ele>3249.199951171875</ele>
        <time>2021-06-25T19:23:38.000Z</time>
        <extensions>
          <ns3:TrackPointExtension>
            <ns3:atemp>27.0</ns3:atemp>
            <ns3:hr>102</ns3:hr>
          </ns3:TrackPointExtension>
        </extensions>
      </trkpt>
      <trkpt lat="36.77019978873431682586669921875" lon="-118.42077397741377353668212890625">
        <ele>3250.199951171875</ele>
        <time>2021-06-25T19:23:43.000Z</time>
        <extensions>
          <ns3:TrackPointExtension>
            <ns3:atemp>27.0</ns3:atemp>
            <ns3:hr>102</ns3:hr>
          </ns3:TrackPointExtension>
        </extensions>
      </trkpt>
      <trkpt lat="36.77020431496202945709228515625" lon="-118.42073793523013591766357421875">
        <ele>3250.60009765625</ele>
        <time>2021-06-25T19:23:48.000Z</time>
        <extensions>
          <ns3:TrackPointExtension>
            <ns3:atemp>27.0</ns3:atemp>
            <ns3:hr>104</ns3:hr>
          </ns3:TrackPointExtension>
        </extensions>
      </trkpt>
      <trkpt lat="36.77019844762980937957763671875" lon="-118.42072427272796630859375">
        <ele>3250.39990234375</ele>
        <time>2021-06-25T19:23:51.000Z</time>
        <extensions>
          <ns3:TrackPointExtension>
            <ns3:atemp>27.0</ns3:atemp>
            <ns3:hr>105</ns3:hr>
          </ns3:TrackPointExtension>
        </extensions>
      </trkpt>
      <trkpt lat="36.770182438194751739501953125" lon="-118.42072636820375919342041015625">
        <ele>3250.39990234375</ele>
        <time>2021-06-25T19:23:53.000Z</time>
        <extensions>
          <ns3:TrackPointExtension>
            <ns3:atemp>27.0</ns3:atemp>
            <ns3:hr>104</ns3:hr>
          </ns3:TrackPointExtension>
        </extensions>
      </trkpt>
      <trkpt lat="36.7701685242354869842529296875" lon="-118.420709855854511260986328125">
        <ele>3250.60009765625</ele>
        <time>2021-06-25T19:23:59.000Z</time>
        <extensions>
          <ns3:TrackPointExtension>
            <ns3:atemp>27.0</ns3:atemp>
            <ns3:hr>105</ns3:hr>
          </ns3:TrackPointExtension>
        </extensions>
      </trkpt>
      <trkpt lat="36.77019618451595306396484375" lon="-118.42069803737103939056396484375">
        <ele>3250.199951171875</ele>
        <time>2021-06-25T19:24:05.000Z</time>
        <extensions>
          <ns3:TrackPointExtension>
            <ns3:atemp>27.0</ns3:atemp>
            <ns3:hr>104</ns3:hr>
          </ns3:TrackPointExtension>
        </extensions>
      </trkpt>
      <trkpt lat="36.7702523432672023773193359375" lon="-118.42067641206085681915283203125">
        <ele>3249.199951171875</ele>
        <time>2021-06-25T19:24:14.000Z</time>
        <extensions>
          <ns3:TrackPointExtension>
            <ns3:atemp>27.0</ns3:atemp>
            <ns3:hr>106</ns3:hr>
          </ns3:TrackPointExtension>
        </extensions>
      </trkpt>
      <trkpt lat="36.77026365883648395538330078125" lon="-118.42066819779574871063232421875">
        <ele>3248.800048828125</ele>
        <time>2021-06-25T19:24:15.000Z</time>
        <extensions>
          <ns3:TrackPointExtension>
            <ns3:atemp>27.0</ns3:atemp>
            <ns3:hr>107</ns3:hr>
          </ns3:TrackPointExtension>
        </extensions>
      </trkpt>
      <trkpt lat="36.77029073238372802734375" lon="-118.420575074851512908935546875">
        <ele>3249</ele>
        <time>2021-06-25T19:24:23.000Z</time>
        <extensions>
          <ns3:TrackPointExtension>
            <ns3:atemp>27.0</ns3:atemp>
            <ns3:hr>105</ns3:hr>
          </ns3:TrackPointExtension>
        </extensions>
      </trkpt>
      <trkpt lat="36.77029953338205814361572265625" lon="-118.4205534495413303375244140625">
        <ele>3249.39990234375</ele>
        <time>2021-06-25T19:24:26.000Z</time>
        <extensions>
          <ns3:TrackPointExtension>
            <ns3:atemp>27.0</ns3:atemp>
            <ns3:hr>109</ns3:hr>
          </ns3:TrackPointExtension>
        </extensions>
      </trkpt>
      <trkpt lat="36.770302467048168182373046875" lon="-118.42054565437138080596923828125">
        <ele>3249.39990234375</ele>
        <time>2021-06-25T19:24:27.000Z</time>
        <extensions>
          <ns3:TrackPointExtension>
            <ns3:atemp>27.0</ns3:atemp>
            <ns3:hr>106</ns3:hr>
          </ns3:TrackPointExtension>
        </extensions>
      </trkpt>
      <trkpt lat="36.77029006183147430419921875" lon="-118.4205205924808979034423828125">
        <ele>3250</ele>
        <time>2021-06-25T19:24:30.000Z</time>
        <extensions>
          <ns3:TrackPointExtension>
            <ns3:atemp>27.0</ns3:atemp>
            <ns3:hr>105</ns3:hr>
          </ns3:TrackPointExtension>
        </extensions>
      </trkpt>
      <trkpt lat="36.7702939175069332122802734375" lon="-118.42049905098974704742431640625">
        <ele>3250.39990234375</ele>
        <time>2021-06-25T19:24:33.000Z</time>
        <extensions>
          <ns3:TrackPointExtension>
            <ns3:atemp>27.0</ns3:atemp>
            <ns3:hr>104</ns3:hr>
          </ns3:TrackPointExtension>
        </extensions>
      </trkpt>
      <trkpt lat="36.77031327970325946807861328125" lon="-118.42048346064984798431396484375">
        <ele>3250.39990234375</ele>
        <time>2021-06-25T19:24:37.000Z</time>
        <extensions>
          <ns3:TrackPointExtension>
            <ns3:atemp>27.0</ns3:atemp>
            <ns3:hr>107</ns3:hr>
          </ns3:TrackPointExtension>
        </extensions>
      </trkpt>
      <trkpt lat="36.77032090723514556884765625" lon="-118.420471139252185821533203125">
        <ele>3250</ele>
        <time>2021-06-25T19:24:39.000Z</time>
        <extensions>
          <ns3:TrackPointExtension>
            <ns3:atemp>27.0</ns3:atemp>
            <ns3:hr>111</ns3:hr>
          </ns3:TrackPointExtension>
        </extensions>
      </trkpt>
      <trkpt lat="36.770334653556346893310546875" lon="-118.42045345343649387359619140625">
        <ele>3249.60009765625</ele>
        <time>2021-06-25T19:24:42.000Z</time>
        <extensions>
          <ns3:TrackPointExtension>
            <ns3:atemp>27.0</ns3:atemp>
            <ns3:hr>114</ns3:hr>
          </ns3:TrackPointExtension>
        </extensions>
      </trkpt>
      <trkpt lat="36.77036088891327381134033203125" lon="-118.42038304544985294342041015625">
        <ele>3249.60009765625</ele>
        <time>2021-06-25T19:24:48.000Z</time>
        <extensions>
          <ns3:TrackPointExtension>
            <ns3:atemp>27.0</ns3:atemp>
            <ns3:hr>114</ns3:hr>
          </ns3:TrackPointExtension>
        </extensions>
      </trkpt>
      <trkpt lat="36.77037396468222141265869140625" lon="-118.42035136185586452484130859375">
        <ele>3249.800048828125</ele>
        <time>2021-06-25T19:24:52.000Z</time>
        <extensions>
          <ns3:TrackPointExtension>
            <ns3:atemp>27.0</ns3:atemp>
            <ns3:hr>117</ns3:hr>
          </ns3:TrackPointExtension>
        </extensions>
      </trkpt>
      <trkpt lat="36.7703918181359767913818359375" lon="-118.4203341789543628692626953125">
        <ele>3249.800048828125</ele>
        <time>2021-06-25T19:24:56.000Z</time>
        <extensions>
          <ns3:TrackPointExtension>
            <ns3:atemp>27.0</ns3:atemp>
            <ns3:hr>117</ns3:hr>
          </ns3:TrackPointExtension>
        </extensions>
      </trkpt>
      <trkpt lat="36.7704112641513347625732421875" lon="-118.4203237853944301605224609375">
        <ele>3249.199951171875</ele>
        <time>2021-06-25T19:25:00.000Z</time>
        <extensions>
          <ns3:TrackPointExtension>
            <ns3:atemp>27.0</ns3:atemp>
            <ns3:hr>115</ns3:hr>
          </ns3:TrackPointExtension>
        </extensions>
      </trkpt>
      <trkpt lat="36.77042710594832897186279296875" lon="-118.4203200973570346832275390625">
        <ele>3249</ele>
        <time>2021-06-25T19:25:03.000Z</time>
        <extensions>
          <ns3:TrackPointExtension>
            <ns3:atemp>27.0</ns3:atemp>
            <ns3:hr>114</ns3:hr>
          </ns3:TrackPointExtension>
        </extensions>
      </trkpt>
      <trkpt lat="36.77044101990759372711181640625" lon="-118.420323617756366729736328125">
        <ele>3247.800048828125</ele>
        <time>2021-06-25T19:25:07.000Z</time>
        <extensions>
          <ns3:TrackPointExtension>
            <ns3:atemp>27.0</ns3:atemp>
            <ns3:hr>113</ns3:hr>
          </ns3:TrackPointExtension>
        </extensions>
      </trkpt>
      <trkpt lat="36.77046398632228374481201171875" lon="-118.42031783424317836761474609375">
        <ele>3247</ele>
        <time>2021-06-25T19:25:11.000Z</time>
        <extensions>
          <ns3:TrackPointExtension>
            <ns3:atemp>27.0</ns3:atemp>
            <ns3:hr>110</ns3:hr>
          </ns3:TrackPointExtension>
        </extensions>
      </trkpt>
      <trkpt lat="36.77047203294932842254638671875" lon="-118.4203110449016094207763671875">
        <ele>3247</ele>
        <time>2021-06-25T19:25:12.000Z</time>
        <extensions>
          <ns3:TrackPointExtension>
            <ns3:atemp>27.0</ns3:atemp>
            <ns3:hr>108</ns3:hr>
          </ns3:TrackPointExtension>
        </extensions>
      </trkpt>
      <trkpt lat="36.77049349062144756317138671875" lon="-118.42029176652431488037109375">
        <ele>3246.800048828125</ele>
        <time>2021-06-25T19:25:15.000Z</time>
        <extensions>
          <ns3:TrackPointExtension>
            <ns3:atemp>27.0</ns3:atemp>
            <ns3:hr>105</ns3:hr>
          </ns3:TrackPointExtension>
        </extensions>
      </trkpt>
      <trkpt lat="36.7705027945339679718017578125" lon="-118.42027969658374786376953125">
        <ele>3246.60009765625</ele>
        <time>2021-06-25T19:25:16.000Z</time>
        <extensions>
          <ns3:TrackPointExtension>
            <ns3:atemp>27.0</ns3:atemp>
            <ns3:hr>104</ns3:hr>
          </ns3:TrackPointExtension>
        </extensions>
      </trkpt>
      <trkpt lat="36.77052819170057773590087890625" lon="-118.42023233883082866668701171875">
        <ele>3246.60009765625</ele>
        <time>2021-06-25T19:25:21.000Z</time>
        <extensions>
          <ns3:TrackPointExtension>
            <ns3:atemp>27.0</ns3:atemp>
            <ns3:hr>102</ns3:hr>
          </ns3:TrackPointExtension>
        </extensions>
      </trkpt>
      <trkpt lat="36.77054487168788909912109375" lon="-118.420188166201114654541015625">
        <ele>3246.60009765625</ele>
        <time>2021-06-25T19:25:28.000Z</time>
        <extensions>
          <ns3:TrackPointExtension>
            <ns3:atemp>27.0</ns3:atemp>
            <ns3:hr>100</ns3:hr>
          </ns3:TrackPointExtension>
        </extensions>
      </trkpt>
      <trkpt lat="36.7705711908638477325439453125" lon="-118.4201373718678951263427734375">
        <ele>3246.60009765625</ele>
        <time>2021-06-25T19:25:34.000Z</time>
        <extensions>
          <ns3:TrackPointExtension>
            <ns3:atemp>27.0</ns3:atemp>
            <ns3:hr>101</ns3:hr>
          </ns3:TrackPointExtension>
        </extensions>
      </trkpt>
      <trkpt lat="36.7706057243049144744873046875" lon="-118.4200813807547092437744140625">
        <ele>3246.199951171875</ele>
        <time>2021-06-25T19:25:42.000Z</time>
        <extensions>
          <ns3:TrackPointExtension>
            <ns3:atemp>27.0</ns3:atemp>
            <ns3:hr>100</ns3:hr>
          </ns3:TrackPointExtension>
        </extensions>
      </trkpt>
      <trkpt lat="36.77061854861676692962646484375" lon="-118.420084230601787567138671875">
        <ele>3246.39990234375</ele>
        <time>2021-06-25T19:25:46.000Z</time>
        <extensions>
          <ns3:TrackPointExtension>
            <ns3:atemp>27.0</ns3:atemp>
            <ns3:hr>100</ns3:hr>
          </ns3:TrackPointExtension>
        </extensions>
      </trkpt>
      <trkpt lat="36.7705762200057506561279296875" lon="-118.42004634439945220947265625">
        <ele>3246.199951171875</ele>
        <time>2021-06-25T19:25:53.000Z</time>
        <extensions>
          <ns3:TrackPointExtension>
            <ns3:atemp>27.0</ns3:atemp>
            <ns3:hr>102</ns3:hr>
          </ns3:TrackPointExtension>
        </extensions>
      </trkpt>
      <trkpt lat="36.77057303488254547119140625" lon="-118.42002731747925281524658203125">
        <ele>3246.60009765625</ele>
        <time>2021-06-25T19:26:00.000Z</time>
        <extensions>
          <ns3:TrackPointExtension>
            <ns3:atemp>28.0</ns3:atemp>
            <ns3:hr>99</ns3:hr>
          </ns3:TrackPointExtension>
        </extensions>
      </trkpt>
      <trkpt lat="36.770576722919940948486328125" lon="-118.42002731747925281524658203125">
        <ele>3246.800048828125</ele>
        <time>2021-06-25T19:26:08.000Z</time>
        <extensions>
          <ns3:TrackPointExtension>
            <ns3:atemp>28.0</ns3:atemp>
            <ns3:hr>98</ns3:hr>
          </ns3:TrackPointExtension>
        </extensions>
      </trkpt>
      <trkpt lat="36.77061653696000576019287109375" lon="-118.4199864976108074188232421875">
        <ele>3246.60009765625</ele>
        <time>2021-06-25T19:26:14.000Z</time>
        <extensions>
          <ns3:TrackPointExtension>
            <ns3:atemp>28.0</ns3:atemp>
            <ns3:hr>96</ns3:hr>
          </ns3:TrackPointExtension>
        </extensions>
      </trkpt>
      <trkpt lat="36.770657859742641448974609375" lon="-118.4199529699981212615966796875">
        <ele>3246.39990234375</ele>
        <time>2021-06-25T19:26:17.000Z</time>
        <extensions>
          <ns3:TrackPointExtension>
            <ns3:atemp>28.0</ns3:atemp>
            <ns3:hr>99</ns3:hr>
          </ns3:TrackPointExtension>
        </extensions>
      </trkpt>
      <trkpt lat="36.77071024663746356964111328125" lon="-118.41990628279745578765869140625">
        <ele>3246.39990234375</ele>
        <time>2021-06-25T19:26:21.000Z</time>
        <extensions>
          <ns3:TrackPointExtension>
            <ns3:atemp>28.0</ns3:atemp>
            <ns3:hr>101</ns3:hr>
          </ns3:TrackPointExtension>
        </extensions>
      </trkpt>
      <trkpt lat="36.7707331292331218719482421875" lon="-118.419879376888275146484375">
        <ele>3246.39990234375</ele>
        <time>2021-06-25T19:26:25.000Z</time>
        <extensions>
          <ns3:TrackPointExtension>
            <ns3:atemp>28.0</ns3:atemp>
            <ns3:hr>104</ns3:hr>
          </ns3:TrackPointExtension>
        </extensions>
      </trkpt>
      <trkpt lat="36.77075274288654327392578125" lon="-118.41988583095371723175048828125">
        <ele>3246.60009765625</ele>
        <time>2021-06-25T19:26:29.000Z</time>
        <extensions>
          <ns3:TrackPointExtension>
            <ns3:atemp>28.0</ns3:atemp>
            <ns3:hr>105</ns3:hr>
          </ns3:TrackPointExtension>
        </extensions>
      </trkpt>
      <trkpt lat="36.77083061076700687408447265625" lon="-118.419847525656223297119140625">
        <ele>3246.39990234375</ele>
        <time>2021-06-25T19:26:35.000Z</time>
        <extensions>
          <ns3:TrackPointExtension>
            <ns3:atemp>28.0</ns3:atemp>
            <ns3:hr>104</ns3:hr>
          </ns3:TrackPointExtension>
        </extensions>
      </trkpt>
      <trkpt lat="36.77086480893194675445556640625" lon="-118.4198185242712497711181640625">
        <ele>3246.800048828125</ele>
        <time>2021-06-25T19:26:42.000Z</time>
        <extensions>
          <ns3:TrackPointExtension>
            <ns3:atemp>28.0</ns3:atemp>
            <ns3:hr>102</ns3:hr>
          </ns3:TrackPointExtension>
        </extensions>
      </trkpt>
      <trkpt lat="36.77090034820139408111572265625" lon="-118.41979421675205230712890625">
        <ele>3247.60009765625</ele>
        <time>2021-06-25T19:26:46.000Z</time>
        <extensions>
          <ns3:TrackPointExtension>
            <ns3:atemp>28.0</ns3:atemp>
            <ns3:hr>104</ns3:hr>
          </ns3:TrackPointExtension>
        </extensions>
      </trkpt>
      <trkpt lat="36.77091359160840511322021484375" lon="-118.41979027725756168365478515625">
        <ele>3247.60009765625</ele>
        <time>2021-06-25T19:26:48.000Z</time>
        <extensions>
          <ns3:TrackPointExtension>
            <ns3:atemp>28.0</ns3:atemp>
            <ns3:hr>107</ns3:hr>
          </ns3:TrackPointExtension>
        </extensions>
      </trkpt>
      <trkpt lat="36.7709255777299404144287109375" lon="-118.41978323645889759063720703125">
        <ele>3247.800048828125</ele>
        <time>2021-06-25T19:26:50.000Z</time>
        <extensions>
          <ns3:TrackPointExtension>
            <ns3:atemp>28.0</ns3:atemp>
            <ns3:hr>110</ns3:hr>
          </ns3:TrackPointExtension>
        </extensions>
      </trkpt>
      <trkpt lat="36.770930103957653045654296875" lon="-118.41976446099579334259033203125">
        <ele>3247.800048828125</ele>
        <time>2021-06-25T19:26:52.000Z</time>
        <extensions>
          <ns3:TrackPointExtension>
            <ns3:atemp>28.0</ns3:atemp>
            <ns3:hr>113</ns3:hr>
          </ns3:TrackPointExtension>
        </extensions>
      </trkpt>
      <trkpt lat="36.7709530703723430633544921875" lon="-118.41973562724888324737548828125">
        <ele>3248.39990234375</ele>
        <time>2021-06-25T19:26:54.000Z</time>
        <extensions>
          <ns3:TrackPointExtension>
            <ns3:atemp>28.0</ns3:atemp>
            <ns3:hr>118</ns3:hr>
          </ns3:TrackPointExtension>
        </extensions>
      </trkpt>
      <trkpt lat="36.7709815688431262969970703125" lon="-118.41971601359546184539794921875">
        <ele>3248.60009765625</ele>
        <time>2021-06-25T19:26:57.000Z</time>
        <extensions>
          <ns3:TrackPointExtension>
            <ns3:atemp>28.0</ns3:atemp>
            <ns3:hr>119</ns3:hr>
          </ns3:TrackPointExtension>
        </extensions>
      </trkpt>
      <trkpt lat="36.7709869332611560821533203125" lon="-118.4197105653584003448486328125">
        <ele>3248.60009765625</ele>
        <time>2021-06-25T19:26:58.000Z</time>
        <extensions>
          <ns3:TrackPointExtension>
            <ns3:atemp>28.0</ns3:atemp>
            <ns3:hr>121</ns3:hr>
          </ns3:TrackPointExtension>
        </extensions>
      </trkpt>
      <trkpt lat="36.771007888019084930419921875" lon="-118.41969455592334270477294921875">
        <ele>3249.199951171875</ele>
        <time>2021-06-25T19:27:02.000Z</time>
        <extensions>
          <ns3:TrackPointExtension>
            <ns3:atemp>28.0</ns3:atemp>
            <ns3:hr>124</ns3:hr>
          </ns3:TrackPointExtension>
        </extensions>
      </trkpt>
      <trkpt lat="36.7710137553513050079345703125" lon="-118.4196857549250125885009765625">
        <ele>3249.800048828125</ele>
        <time>2021-06-25T19:27:03.000Z</time>
        <extensions>
          <ns3:TrackPointExtension>
            <ns3:atemp>28.0</ns3:atemp>
            <ns3:hr>125</ns3:hr>
          </ns3:TrackPointExtension>
        </extensions>
      </trkpt>
      <trkpt lat="36.7710191197693347930908203125" lon="-118.41966555453836917877197265625">
        <ele>3249.800048828125</ele>
        <time>2021-06-25T19:27:05.000Z</time>
        <extensions>
          <ns3:TrackPointExtension>
            <ns3:atemp>28.0</ns3:atemp>
            <ns3:hr>127</ns3:hr>
          </ns3:TrackPointExtension>
        </extensions>
      </trkpt>
      <trkpt lat="36.7710457742214202880859375" lon="-118.4196398220956325531005859375">
        <ele>3250.39990234375</ele>
        <time>2021-06-25T19:27:11.000Z</time>
        <extensions>
          <ns3:TrackPointExtension>
            <ns3:atemp>28.0</ns3:atemp>
            <ns3:hr>125</ns3:hr>
          </ns3:TrackPointExtension>
        </extensions>
      </trkpt>
      <trkpt lat="36.771063543856143951416015625" lon="-118.4196151793003082275390625">
        <ele>3250.800048828125</ele>
        <time>2021-06-25T19:27:14.000Z</time>
        <extensions>
          <ns3:TrackPointExtension>
            <ns3:atemp>28.0</ns3:atemp>
            <ns3:hr>125</ns3:hr>
          </ns3:TrackPointExtension>
        </extensions>
      </trkpt>
      <trkpt lat="36.7710975743830204010009765625" lon="-118.41957419179379940032958984375">
        <ele>3251.60009765625</ele>
        <time>2021-06-25T19:27:21.000Z</time>
        <extensions>
          <ns3:TrackPointExtension>
            <ns3:atemp>28.0</ns3:atemp>
            <ns3:hr>124</ns3:hr>
          </ns3:TrackPointExtension>
        </extensions>
      </trkpt>
      <trkpt lat="36.77110872231423854827880859375" lon="-118.41957218013703823089599609375">
        <ele>3252</ele>
        <time>2021-06-25T19:27:24.000Z</time>
        <extensions>
          <ns3:TrackPointExtension>
            <ns3:atemp>28.0</ns3:atemp>
            <ns3:hr>122</ns3:hr>
          </ns3:TrackPointExtension>
        </extensions>
      </trkpt>
      <trkpt lat="36.771120540797710418701171875" lon="-118.4195804782211780548095703125">
        <ele>3251.800048828125</ele>
        <time>2021-06-25T19:27:28.000Z</time>
        <extensions>
          <ns3:TrackPointExtension>
            <ns3:atemp>28.0</ns3:atemp>
            <ns3:hr>120</ns3:hr>
          </ns3:TrackPointExtension>
        </extensions>
      </trkpt>
      <trkpt lat="36.77117711864411830902099609375" lon="-118.41956346295773983001708984375">
        <ele>3251.800048828125</ele>
        <time>2021-06-25T19:27:36.000Z</time>
        <extensions>
          <ns3:TrackPointExtension>
            <ns3:atemp>28.0</ns3:atemp>
            <ns3:hr>118</ns3:hr>
          </ns3:TrackPointExtension>
        </extensions>
      </trkpt>
      <trkpt lat="36.77126999013125896453857421875" lon="-118.419484086334705352783203125">
        <ele>3251.800048828125</ele>
        <time>2021-06-25T19:27:46.000Z</time>
        <extensions>
          <ns3:TrackPointExtension>
            <ns3:atemp>28.0</ns3:atemp>
            <ns3:hr>117</ns3:hr>
          </ns3:TrackPointExtension>
        </extensions>
      </trkpt>
      <trkpt lat="36.7712896876037120819091796875" lon="-118.4194971621036529541015625">
        <ele>3251.800048828125</ele>
        <time>2021-06-25T19:27:50.000Z</time>
        <extensions>
          <ns3:TrackPointExtension>
            <ns3:atemp>28.0</ns3:atemp>
            <ns3:hr>114</ns3:hr>
          </ns3:TrackPointExtension>
        </extensions>
      </trkpt>
      <trkpt lat="36.77131625823676586151123046875" lon="-118.419483415782451629638671875">
        <ele>3251.800048828125</ele>
        <time>2021-06-25T19:27:53.000Z</time>
        <extensions>
          <ns3:TrackPointExtension>
            <ns3:atemp>28.0</ns3:atemp>
            <ns3:hr>112</ns3:hr>
          </ns3:TrackPointExtension>
        </extensions>
      </trkpt>
      <trkpt lat="36.77136420272290706634521484375" lon="-118.41945131309330463409423828125">
        <ele>3251.39990234375</ele>
        <time>2021-06-25T19:28:00.000Z</time>
        <extensions>
          <ns3:TrackPointExtension>
            <ns3:atemp>28.0</ns3:atemp>
            <ns3:hr>110</ns3:hr>
          </ns3:TrackPointExtension>
        </extensions>
      </trkpt>
      <trkpt lat="36.77140912972390651702880859375" lon="-118.419425077736377716064453125">
        <ele>3251.60009765625</ele>
        <time>2021-06-25T19:28:07.000Z</time>
        <extensions>
          <ns3:TrackPointExtension>
            <ns3:atemp>28.0</ns3:atemp>
            <ns3:hr>110</ns3:hr>
          </ns3:TrackPointExtension>
        </extensions>
      </trkpt>
      <trkpt lat="36.77144047804176807403564453125" lon="-118.41941225342452526092529296875">
        <ele>3251.800048828125</ele>
        <time>2021-06-25T19:28:11.000Z</time>
        <extensions>
          <ns3:TrackPointExtension>
            <ns3:atemp>28.0</ns3:atemp>
            <ns3:hr>107</ns3:hr>
          </ns3:TrackPointExtension>
        </extensions>
      </trkpt>
      <trkpt lat="36.771458499133586883544921875" lon="-118.4194024465978145599365234375">
        <ele>3251.800048828125</ele>
        <time>2021-06-25T19:28:14.000Z</time>
        <extensions>
          <ns3:TrackPointExtension>
            <ns3:atemp>28.0</ns3:atemp>
            <ns3:hr>105</ns3:hr>
          </ns3:TrackPointExtension>
        </extensions>
      </trkpt>
      <trkpt lat="36.77149412222206592559814453125" lon="-118.4193769656121730804443359375">
        <ele>3253</ele>
        <time>2021-06-25T19:28:19.000Z</time>
        <extensions>
          <ns3:TrackPointExtension>
            <ns3:atemp>28.0</ns3:atemp>
            <ns3:hr>104</ns3:hr>
          </ns3:TrackPointExtension>
        </extensions>
      </trkpt>
      <trkpt lat="36.77151038311421871185302734375" lon="-118.41935659758746623992919921875">
        <ele>3253.199951171875</ele>
        <time>2021-06-25T19:28:22.000Z</time>
        <extensions>
          <ns3:TrackPointExtension>
            <ns3:atemp>28.0</ns3:atemp>
            <ns3:hr>104</ns3:hr>
          </ns3:TrackPointExtension>
        </extensions>
      </trkpt>
      <trkpt lat="36.77153502590954303741455078125" lon="-118.41932809911668300628662109375">
        <ele>3253.39990234375</ele>
        <time>2021-06-25T19:28:26.000Z</time>
        <extensions>
          <ns3:TrackPointExtension>
            <ns3:atemp>28.0</ns3:atemp>
            <ns3:hr>106</ns3:hr>
          </ns3:TrackPointExtension>
        </extensions>
      </trkpt>
      <trkpt lat="36.77155740559101104736328125" lon="-118.41930530034005641937255859375">
        <ele>3254</ele>
        <time>2021-06-25T19:28:30.000Z</time>
        <extensions>
          <ns3:TrackPointExtension>
            <ns3:atemp>28.0</ns3:atemp>
            <ns3:hr>106</ns3:hr>
          </ns3:TrackPointExtension>
        </extensions>
      </trkpt>
      <trkpt lat="36.7716145701706409454345703125" lon="-118.41926774941384792327880859375">
        <ele>3254.39990234375</ele>
        <time>2021-06-25T19:28:38.000Z</time>
        <extensions>
          <ns3:TrackPointExtension>
            <ns3:atemp>28.0</ns3:atemp>
            <ns3:hr>105</ns3:hr>
          </ns3:TrackPointExtension>
        </extensions>
      </trkpt>
      <trkpt lat="36.7716175876557826995849609375" lon="-118.41922466643154621124267578125">
        <ele>3254.800048828125</ele>
        <time>2021-06-25T19:28:43.000Z</time>
        <extensions>
          <ns3:TrackPointExtension>
            <ns3:atemp>28.0</ns3:atemp>
            <ns3:hr>107</ns3:hr>
          </ns3:TrackPointExtension>
        </extensions>
      </trkpt>
      <trkpt lat="36.77161850966513156890869140625" lon="-118.41921351850032806396484375">
        <ele>3255.199951171875</ele>
        <time>2021-06-25T19:28:44.000Z</time>
        <extensions>
          <ns3:TrackPointExtension>
            <ns3:atemp>28.0</ns3:atemp>
            <ns3:hr>107</ns3:hr>
          </ns3:TrackPointExtension>
        </extensions>
      </trkpt>
      <trkpt lat="36.77162990905344486236572265625" lon="-118.41919851489365100860595703125">
        <ele>3255.39990234375</ele>
        <time>2021-06-25T19:28:46.000Z</time>
        <extensions>
          <ns3:TrackPointExtension>
            <ns3:atemp>28.0</ns3:atemp>
            <ns3:hr>109</ns3:hr>
          </ns3:TrackPointExtension>
        </extensions>
      </trkpt>
      <trkpt lat="36.77164650522172451019287109375" lon="-118.41918803751468658447265625">
        <ele>3255.800048828125</ele>
        <time>2021-06-25T19:28:49.000Z</time>
        <extensions>
          <ns3:TrackPointExtension>
            <ns3:atemp>28.0</ns3:atemp>
            <ns3:hr>109</ns3:hr>
          </ns3:TrackPointExtension>
        </extensions>
      </trkpt>
      <trkpt lat="36.77166896872222423553466796875" lon="-118.41919449158012866973876953125">
        <ele>3256</ele>
        <time>2021-06-25T19:28:52.000Z</time>
        <extensions>
          <ns3:TrackPointExtension>
            <ns3:atemp>28.0</ns3:atemp>
            <ns3:hr>111</ns3:hr>
          </ns3:TrackPointExtension>
        </extensions>
      </trkpt>
      <trkpt lat="36.77168539725244045257568359375" lon="-118.41918879188597202301025390625">
        <ele>3256.800048828125</ele>
        <time>2021-06-25T19:28:54.000Z</time>
        <extensions>
          <ns3:TrackPointExtension>
            <ns3:atemp>28.0</ns3:atemp>
            <ns3:hr>113</ns3:hr>
          </ns3:TrackPointExtension>
        </extensions>
      </trkpt>
      <trkpt lat="36.77171590737998485565185546875" lon="-118.41917864978313446044921875">
        <ele>3256.800048828125</ele>
        <time>2021-06-25T19:28:57.000Z</time>
        <extensions>
          <ns3:TrackPointExtension>
            <ns3:atemp>28.0</ns3:atemp>
            <ns3:hr>115</ns3:hr>
          </ns3:TrackPointExtension>
        </extensions>
      </trkpt>
      <trkpt lat="36.77171967923641204833984375" lon="-118.4191954135894775390625">
        <ele>3258</ele>
        <time>2021-06-25T19:29:02.000Z</time>
        <extensions>
          <ns3:TrackPointExtension>
            <ns3:atemp>28.0</ns3:atemp>
            <ns3:hr>116</ns3:hr>
          </ns3:TrackPointExtension>
        </extensions>
      </trkpt>
      <trkpt lat="36.771728061139583587646484375" lon="-118.41918091289699077606201171875">
        <ele>3258</ele>
        <time>2021-06-25T19:29:03.000Z</time>
        <extensions>
          <ns3:TrackPointExtension>
            <ns3:atemp>28.0</ns3:atemp>
            <ns3:hr>115</ns3:hr>
          </ns3:TrackPointExtension>
        </extensions>
      </trkpt>
      <trkpt lat="36.77173669449985027313232421875" lon="-118.41913313604891300201416015625">
        <ele>3258.199951171875</ele>
        <time>2021-06-25T19:29:06.000Z</time>
        <extensions>
          <ns3:TrackPointExtension>
            <ns3:atemp>28.0</ns3:atemp>
            <ns3:hr>112</ns3:hr>
          </ns3:TrackPointExtension>
        </extensions>
      </trkpt>
      <trkpt lat="36.7717211879789829254150390625" lon="-118.419087789952754974365234375">
        <ele>3258.800048828125</ele>
        <time>2021-06-25T19:29:11.000Z</time>
        <extensions>
          <ns3:TrackPointExtension>
            <ns3:atemp>28.0</ns3:atemp>
            <ns3:hr>110</ns3:hr>
          </ns3:TrackPointExtension>
        </extensions>
      </trkpt>
      <trkpt lat="36.77172278054058551788330078125" lon="-118.4190718643367290496826171875">
        <ele>3259</ele>
        <time>2021-06-25T19:29:13.000Z</time>
        <extensions>
          <ns3:TrackPointExtension>
            <ns3:atemp>28.0</ns3:atemp>
            <ns3:hr>111</ns3:hr>
          </ns3:TrackPointExtension>
        </extensions>
      </trkpt>
      <trkpt lat="36.77173443138599395751953125" lon="-118.41904697008430957794189453125">
        <ele>3259.800048828125</ele>
        <time>2021-06-25T19:29:16.000Z</time>
        <extensions>
          <ns3:TrackPointExtension>
            <ns3:atemp>28.0</ns3:atemp>
            <ns3:hr>112</ns3:hr>
          </ns3:TrackPointExtension>
        </extensions>
      </trkpt>
      <trkpt lat="36.77173853851854801177978515625" lon="-118.419038169085979461669921875">
        <ele>3260</ele>
        <time>2021-06-25T19:29:18.000Z</time>
        <extensions>
          <ns3:TrackPointExtension>
            <ns3:atemp>28.0</ns3:atemp>
            <ns3:hr>112</ns3:hr>
          </ns3:TrackPointExtension>
        </extensions>
      </trkpt>
      <trkpt lat="36.771734766662120819091796875" lon="-118.41903456486761569976806640625">
        <ele>3260</ele>
        <time>2021-06-25T19:29:19.000Z</time>
        <extensions>
          <ns3:TrackPointExtension>
            <ns3:atemp>28.0</ns3:atemp>
            <ns3:hr>113</ns3:hr>
          </ns3:TrackPointExtension>
        </extensions>
      </trkpt>
      <trkpt lat="36.7717128060758113861083984375" lon="-118.419028110802173614501953125">
        <ele>3260.199951171875</ele>
        <time>2021-06-25T19:29:22.000Z</time>
        <extensions>
          <ns3:TrackPointExtension>
            <ns3:atemp>28.0</ns3:atemp>
            <ns3:hr>115</ns3:hr>
          </ns3:TrackPointExtension>
        </extensions>
      </trkpt>
      <trkpt lat="36.77169076167047023773193359375" lon="-118.41901713050901889801025390625">
        <ele>3260.39990234375</ele>
        <time>2021-06-25T19:29:25.000Z</time>
        <extensions>
          <ns3:TrackPointExtension>
            <ns3:atemp>28.0</ns3:atemp>
            <ns3:hr>118</ns3:hr>
          </ns3:TrackPointExtension>
        </extensions>
      </trkpt>
      <trkpt lat="36.77167701534926891326904296875" lon="-118.4190021269023418426513671875">
        <ele>3260.60009765625</ele>
        <time>2021-06-25T19:29:27.000Z</time>
        <extensions>
          <ns3:TrackPointExtension>
            <ns3:atemp>28.0</ns3:atemp>
            <ns3:hr>121</ns3:hr>
          </ns3:TrackPointExtension>
        </extensions>
      </trkpt>
      <trkpt lat="36.771626807749271392822265625" lon="-118.41894906945526599884033203125">
        <ele>3260.800048828125</ele>
        <time>2021-06-25T19:29:31.000Z</time>
        <extensions>
          <ns3:TrackPointExtension>
            <ns3:atemp>28.0</ns3:atemp>
            <ns3:hr>122</ns3:hr>
          </ns3:TrackPointExtension>
        </extensions>
      </trkpt>
      <trkpt lat="36.77158112637698650360107421875" lon="-118.4188911505043506622314453125">
        <ele>3260.800048828125</ele>
        <time>2021-06-25T19:29:37.000Z</time>
        <extensions>
          <ns3:TrackPointExtension>
            <ns3:atemp>28.0</ns3:atemp>
            <ns3:hr>119</ns3:hr>
          </ns3:TrackPointExtension>
        </extensions>
      </trkpt>
      <trkpt lat="36.7715696431696414947509765625" lon="-118.4188877977430820465087890625">
        <ele>3261</ele>
        <time>2021-06-25T19:29:38.000Z</time>
        <extensions>
          <ns3:TrackPointExtension>
            <ns3:atemp>28.0</ns3:atemp>
            <ns3:hr>119</ns3:hr>
          </ns3:TrackPointExtension>
        </extensions>
      </trkpt>
      <trkpt lat="36.77156000398099422454833984375" lon="-118.4188851155340671539306640625">
        <ele>3261.199951171875</ele>
        <time>2021-06-25T19:29:39.000Z</time>
        <extensions>
          <ns3:TrackPointExtension>
            <ns3:atemp>28.0</ns3:atemp>
            <ns3:hr>120</ns3:hr>
          </ns3:TrackPointExtension>
        </extensions>
      </trkpt>
      <trkpt lat="36.77147937007248401641845703125" lon="-118.4188670106232166290283203125">
        <ele>3261.800048828125</ele>
        <time>2021-06-25T19:29:48.000Z</time>
        <extensions>
          <ns3:TrackPointExtension>
            <ns3:atemp>28.0</ns3:atemp>
            <ns3:hr>119</ns3:hr>
          </ns3:TrackPointExtension>
        </extensions>
      </trkpt>
      <trkpt lat="36.77146830596029758453369140625" lon="-118.41885142028331756591796875">
        <ele>3262.199951171875</ele>
        <time>2021-06-25T19:29:51.000Z</time>
        <extensions>
          <ns3:TrackPointExtension>
            <ns3:atemp>28.0</ns3:atemp>
            <ns3:hr>118</ns3:hr>
          </ns3:TrackPointExtension>
        </extensions>
      </trkpt>
      <trkpt lat="36.7714593373239040374755859375" lon="-118.4188230894505977630615234375">
        <ele>3262.60009765625</ele>
        <time>2021-06-25T19:29:54.000Z</time>
        <extensions>
          <ns3:TrackPointExtension>
            <ns3:atemp>28.0</ns3:atemp>
            <ns3:hr>116</ns3:hr>
          </ns3:TrackPointExtension>
        </extensions>
      </trkpt>
      <trkpt lat="36.7714502848684787750244140625" lon="-118.41876500286161899566650390625">
        <ele>3263.39990234375</ele>
        <time>2021-06-25T19:29:59.000Z</time>
        <extensions>
          <ns3:TrackPointExtension>
            <ns3:atemp>28.0</ns3:atemp>
            <ns3:hr>115</ns3:hr>
          </ns3:TrackPointExtension>
        </extensions>
      </trkpt>
      <trkpt lat="36.7714576609432697296142578125" lon="-118.418746478855609893798828125">
        <ele>3263.60009765625</ele>
        <time>2021-06-25T19:30:02.000Z</time>
        <extensions>
          <ns3:TrackPointExtension>
            <ns3:atemp>28.0</ns3:atemp>
            <ns3:hr>115</ns3:hr>
          </ns3:TrackPointExtension>
        </extensions>
      </trkpt>
      <trkpt lat="36.77146017551422119140625" lon="-118.4187385998666286468505859375">
        <ele>3264</ele>
        <time>2021-06-25T19:30:05.000Z</time>
        <extensions>
          <ns3:TrackPointExtension>
            <ns3:atemp>28.0</ns3:atemp>
            <ns3:hr>115</ns3:hr>
          </ns3:TrackPointExtension>
        </extensions>
      </trkpt>
      <trkpt lat="36.77149093709886074066162109375" lon="-118.4186970256268978118896484375">
        <ele>3264.199951171875</ele>
        <time>2021-06-25T19:30:10.000Z</time>
        <extensions>
          <ns3:TrackPointExtension>
            <ns3:atemp>28.0</ns3:atemp>
            <ns3:hr>114</ns3:hr>
          </ns3:TrackPointExtension>
        </extensions>
      </trkpt>
      <trkpt lat="36.7714891768991947174072265625" lon="-118.41868772171437740325927734375">
        <ele>3264.60009765625</ele>
        <time>2021-06-25T19:30:11.000Z</time>
        <extensions>
          <ns3:TrackPointExtension>
            <ns3:atemp>28.0</ns3:atemp>
            <ns3:hr>114</ns3:hr>
          </ns3:TrackPointExtension>
        </extensions>
      </trkpt>
      <trkpt lat="36.7714776098728179931640625" lon="-118.4186339937150478363037109375">
        <ele>3265</ele>
        <time>2021-06-25T19:30:17.000Z</time>
        <extensions>
          <ns3:TrackPointExtension>
            <ns3:atemp>28.0</ns3:atemp>
            <ns3:hr>116</ns3:hr>
          </ns3:TrackPointExtension>
        </extensions>
      </trkpt>
      <trkpt lat="36.77147023379802703857421875" lon="-118.4186115302145481109619140625">
        <ele>3265.60009765625</ele>
        <time>2021-06-25T19:30:19.000Z</time>
        <extensions>
          <ns3:TrackPointExtension>
            <ns3:atemp>28.0</ns3:atemp>
            <ns3:hr>116</ns3:hr>
          </ns3:TrackPointExtension>
        </extensions>
      </trkpt>
      <trkpt lat="36.7714626900851726531982421875" lon="-118.41856584884226322174072265625">
        <ele>3266.199951171875</ele>
        <time>2021-06-25T19:30:24.000Z</time>
        <extensions>
          <ns3:TrackPointExtension>
            <ns3:atemp>28.0</ns3:atemp>
            <ns3:hr>116</ns3:hr>
          </ns3:TrackPointExtension>
        </extensions>
      </trkpt>
      <trkpt lat="36.7714308388531208038330078125" lon="-118.4185012243688106536865234375">
        <ele>3267</ele>
        <time>2021-06-25T19:30:31.000Z</time>
        <extensions>
          <ns3:TrackPointExtension>
            <ns3:atemp>28.0</ns3:atemp>
            <ns3:hr>117</ns3:hr>
          </ns3:TrackPointExtension>
        </extensions>
      </trkpt>
      <trkpt lat="36.77142941392958164215087890625" lon="-118.41849359683692455291748046875">
        <ele>3267.199951171875</ele>
        <time>2021-06-25T19:30:32.000Z</time>
        <extensions>
          <ns3:TrackPointExtension>
            <ns3:atemp>28.0</ns3:atemp>
            <ns3:hr>117</ns3:hr>
          </ns3:TrackPointExtension>
        </extensions>
      </trkpt>
      <trkpt lat="36.77143695764243602752685546875" lon="-118.4184217639267444610595703125">
        <ele>3268</ele>
        <time>2021-06-25T19:30:40.000Z</time>
        <extensions>
          <ns3:TrackPointExtension>
            <ns3:atemp>28.0</ns3:atemp>
            <ns3:hr>117</ns3:hr>
          </ns3:TrackPointExtension>
        </extensions>
      </trkpt>
      <trkpt lat="36.77143427543342113494873046875" lon="-118.41840558685362339019775390625">
        <ele>3268.199951171875</ele>
        <time>2021-06-25T19:30:41.000Z</time>
        <extensions>
          <ns3:TrackPointExtension>
            <ns3:atemp>28.0</ns3:atemp>
            <ns3:hr>117</ns3:hr>
          </ns3:TrackPointExtension>
        </extensions>
      </trkpt>
      <trkpt lat="36.7714137397706508636474609375" lon="-118.418344147503376007080078125">
        <ele>3268.39990234375</ele>
        <time>2021-06-25T19:30:44.000Z</time>
        <extensions>
          <ns3:TrackPointExtension>
            <ns3:atemp>28.0</ns3:atemp>
            <ns3:hr>120</ns3:hr>
          </ns3:TrackPointExtension>
        </extensions>
      </trkpt>
      <trkpt lat="36.7714040167629718780517578125" lon="-118.4183384478092193603515625">
        <ele>3268.39990234375</ele>
        <time>2021-06-25T19:30:45.000Z</time>
        <extensions>
          <ns3:TrackPointExtension>
            <ns3:atemp>28.0</ns3:atemp>
            <ns3:hr>117</ns3:hr>
          </ns3:TrackPointExtension>
        </extensions>
      </trkpt>
      <trkpt lat="36.77138918079435825347900390625" lon="-118.41830248944461345672607421875">
        <ele>3268.60009765625</ele>
        <time>2021-06-25T19:30:48.000Z</time>
        <extensions>
          <ns3:TrackPointExtension>
            <ns3:atemp>28.0</ns3:atemp>
            <ns3:hr>117</ns3:hr>
          </ns3:TrackPointExtension>
        </extensions>
      </trkpt>
      <trkpt lat="36.77133587189018726348876953125" lon="-118.4182615019381046295166015625">
        <ele>3268.800048828125</ele>
        <time>2021-06-25T19:30:52.000Z</time>
        <extensions>
          <ns3:TrackPointExtension>
            <ns3:atemp>28.0</ns3:atemp>
            <ns3:hr>114</ns3:hr>
          </ns3:TrackPointExtension>
        </extensions>
      </trkpt>
      <trkpt lat="36.77129924297332763671875" lon="-118.4182373620569705963134765625">
        <ele>3268.800048828125</ele>
        <time>2021-06-25T19:30:55.000Z</time>
        <extensions>
          <ns3:TrackPointExtension>
            <ns3:atemp>28.0</ns3:atemp>
            <ns3:hr>117</ns3:hr>
          </ns3:TrackPointExtension>
        </extensions>
      </trkpt>
      <trkpt lat="36.771292202174663543701171875" lon="-118.41823476366698741912841796875">
        <ele>3269</ele>
        <time>2021-06-25T19:30:56.000Z</time>
        <extensions>
          <ns3:TrackPointExtension>
            <ns3:atemp>28.0</ns3:atemp>
            <ns3:hr>118</ns3:hr>
          </ns3:TrackPointExtension>
        </extensions>
      </trkpt>
      <trkpt lat="36.77125205285847187042236328125" lon="-118.418225459754467010498046875">
        <ele>3269.199951171875</ele>
        <time>2021-06-25T19:30:59.000Z</time>
        <extensions>
          <ns3:TrackPointExtension>
            <ns3:atemp>28.0</ns3:atemp>
            <ns3:hr>116</ns3:hr>
          </ns3:TrackPointExtension>
        </extensions>
      </trkpt>
      <trkpt lat="36.771220453083515167236328125" lon="-118.4182262979447841644287109375">
        <ele>3269.199951171875</ele>
        <time>2021-06-25T19:31:02.000Z</time>
        <extensions>
          <ns3:TrackPointExtension>
            <ns3:atemp>28.0</ns3:atemp>
            <ns3:hr>115</ns3:hr>
          </ns3:TrackPointExtension>
        </extensions>
      </trkpt>
      <trkpt lat="36.77119974978268146514892578125" lon="-118.418212719261646270751953125">
        <ele>3269.199951171875</ele>
        <time>2021-06-25T19:31:04.000Z</time>
        <extensions>
          <ns3:TrackPointExtension>
            <ns3:atemp>28.0</ns3:atemp>
            <ns3:hr>117</ns3:hr>
          </ns3:TrackPointExtension>
        </extensions>
      </trkpt>
      <trkpt lat="36.77119153551757335662841796875" lon="-118.41820492409169673919677734375">
        <ele>3269.39990234375</ele>
        <time>2021-06-25T19:31:05.000Z</time>
        <extensions>
          <ns3:TrackPointExtension>
            <ns3:atemp>28.0</ns3:atemp>
            <ns3:hr>114</ns3:hr>
          </ns3:TrackPointExtension>
        </extensions>
      </trkpt>
      <trkpt lat="36.77112154662609100341796875" lon="-118.418163098394870758056640625">
        <ele>3269.39990234375</ele>
        <time>2021-06-25T19:31:12.000Z</time>
        <extensions>
          <ns3:TrackPointExtension>
            <ns3:atemp>28.0</ns3:atemp>
            <ns3:hr>117</ns3:hr>
          </ns3:TrackPointExtension>
        </extensions>
      </trkpt>
      <trkpt lat="36.77111274562776088714599609375" lon="-118.41815404593944549560546875">
        <ele>3269.39990234375</ele>
        <time>2021-06-25T19:31:13.000Z</time>
        <extensions>
          <ns3:TrackPointExtension>
            <ns3:atemp>28.0</ns3:atemp>
            <ns3:hr>118</ns3:hr>
          </ns3:TrackPointExtension>
        </extensions>
      </trkpt>
      <trkpt lat="36.7711036093533039093017578125" lon="-118.41814826242625713348388671875">
        <ele>3269.39990234375</ele>
        <time>2021-06-25T19:31:14.000Z</time>
        <extensions>
          <ns3:TrackPointExtension>
            <ns3:atemp>28.0</ns3:atemp>
            <ns3:hr>118</ns3:hr>
          </ns3:TrackPointExtension>
        </extensions>
      </trkpt>
      <trkpt lat="36.77106496877968311309814453125" lon="-118.41814423911273479461669921875">
        <ele>3269.39990234375</ele>
        <time>2021-06-25T19:31:18.000Z</time>
        <extensions>
          <ns3:TrackPointExtension>
            <ns3:atemp>28.0</ns3:atemp>
            <ns3:hr>114</ns3:hr>
          </ns3:TrackPointExtension>
        </extensions>
      </trkpt>
      <trkpt lat="36.77104250527918338775634765625" lon="-118.41813837178051471710205078125">
        <ele>3269.39990234375</ele>
        <time>2021-06-25T19:31:20.000Z</time>
        <extensions>
          <ns3:TrackPointExtension>
            <ns3:atemp>28.0</ns3:atemp>
            <ns3:hr>111</ns3:hr>
          </ns3:TrackPointExtension>
        </extensions>
      </trkpt>
      <trkpt lat="36.77102498710155487060546875" lon="-118.41812797822058200836181640625">
        <ele>3269.39990234375</ele>
        <time>2021-06-25T19:31:22.000Z</time>
        <extensions>
          <ns3:TrackPointExtension>
            <ns3:atemp>28.0</ns3:atemp>
            <ns3:hr>109</ns3:hr>
          </ns3:TrackPointExtension>
        </extensions>
      </trkpt>
      <trkpt lat="36.770987100899219512939453125" lon="-118.4180995635688304901123046875">
        <ele>3269.60009765625</ele>
        <time>2021-06-25T19:31:27.000Z</time>
        <extensions>
          <ns3:TrackPointExtension>
            <ns3:atemp>28.0</ns3:atemp>
            <ns3:hr>108</ns3:hr>
          </ns3:TrackPointExtension>
        </extensions>
      </trkpt>
      <trkpt lat="36.77095801569521427154541015625" lon="-118.41803812421858310699462890625">
        <ele>3270</ele>
        <time>2021-06-25T19:31:32.000Z</time>
        <extensions>
          <ns3:TrackPointExtension>
            <ns3:atemp>28.0</ns3:atemp>
            <ns3:hr>107</ns3:hr>
          </ns3:TrackPointExtension>
        </extensions>
      </trkpt>
      <trkpt lat="36.7709215544164180755615234375" lon="-118.41802421025931835174560546875">
        <ele>3270.199951171875</ele>
        <time>2021-06-25T19:31:35.000Z</time>
        <extensions>
          <ns3:TrackPointExtension>
            <ns3:atemp>28.0</ns3:atemp>
            <ns3:hr>108</ns3:hr>
          </ns3:TrackPointExtension>
        </extensions>
      </trkpt>
      <trkpt lat="36.7708910442888736724853515625" lon="-118.41801264323294162750244140625">
        <ele>3270.199951171875</ele>
        <time>2021-06-25T19:31:38.000Z</time>
        <extensions>
          <ns3:TrackPointExtension>
            <ns3:atemp>28.0</ns3:atemp>
            <ns3:hr>107</ns3:hr>
          </ns3:TrackPointExtension>
        </extensions>
      </trkpt>
      <trkpt lat="36.7708846740424633026123046875" lon="-118.4180004894733428955078125">
        <ele>3270.199951171875</ele>
        <time>2021-06-25T19:31:39.000Z</time>
        <extensions>
          <ns3:TrackPointExtension>
            <ns3:atemp>28.0</ns3:atemp>
            <ns3:hr>107</ns3:hr>
          </ns3:TrackPointExtension>
        </extensions>
      </trkpt>
      <trkpt lat="36.77085072733461856842041015625" lon="-118.41796419583261013031005859375">
        <ele>3270.800048828125</ele>
        <time>2021-06-25T19:31:43.000Z</time>
        <extensions>
          <ns3:TrackPointExtension>
            <ns3:atemp>28.0</ns3:atemp>
            <ns3:hr>106</ns3:hr>
          </ns3:TrackPointExtension>
        </extensions>
      </trkpt>
      <trkpt lat="36.77082826383411884307861328125" lon="-118.417923040688037872314453125">
        <ele>3271.60009765625</ele>
        <time>2021-06-25T19:31:47.000Z</time>
        <extensions>
          <ns3:TrackPointExtension>
            <ns3:atemp>28.0</ns3:atemp>
            <ns3:hr>106</ns3:hr>
          </ns3:TrackPointExtension>
        </extensions>
      </trkpt>
      <trkpt lat="36.77080571651458740234375" lon="-118.41787040233612060546875">
        <ele>3272.199951171875</ele>
        <time>2021-06-25T19:31:52.000Z</time>
        <extensions>
          <ns3:TrackPointExtension>
            <ns3:atemp>28.0</ns3:atemp>
            <ns3:hr>108</ns3:hr>
          </ns3:TrackPointExtension>
        </extensions>
      </trkpt>
      <trkpt lat="36.77082004956901073455810546875" lon="-118.41783461160957813262939453125">
        <ele>3272.800048828125</ele>
        <time>2021-06-25T19:31:55.000Z</time>
        <extensions>
          <ns3:TrackPointExtension>
            <ns3:atemp>28.0</ns3:atemp>
            <ns3:hr>108</ns3:hr>
          </ns3:TrackPointExtension>
        </extensions>
      </trkpt>
      <trkpt lat="36.77082524634897708892822265625" lon="-118.41782187111675739288330078125">
        <ele>3272.800048828125</ele>
        <time>2021-06-25T19:31:56.000Z</time>
        <extensions>
          <ns3:TrackPointExtension>
            <ns3:atemp>28.0</ns3:atemp>
            <ns3:hr>108</ns3:hr>
          </ns3:TrackPointExtension>
        </extensions>
      </trkpt>
      <trkpt lat="36.770820803940296173095703125" lon="-118.4177844040095806121826171875">
        <ele>3272.800048828125</ele>
        <time>2021-06-25T19:31:59.000Z</time>
        <extensions>
          <ns3:TrackPointExtension>
            <ns3:atemp>28.0</ns3:atemp>
            <ns3:hr>107</ns3:hr>
          </ns3:TrackPointExtension>
        </extensions>
      </trkpt>
      <trkpt lat="36.770775206387042999267578125" lon="-118.41770988889038562774658203125">
        <ele>3271</ele>
        <time>2021-06-25T19:32:05.000Z</time>
        <extensions>
          <ns3:TrackPointExtension>
            <ns3:atemp>28.0</ns3:atemp>
            <ns3:hr>105</ns3:hr>
          </ns3:TrackPointExtension>
        </extensions>
      </trkpt>
      <trkpt lat="36.770770512521266937255859375" lon="-118.41768021695315837860107421875">
        <ele>3271</ele>
        <time>2021-06-25T19:32:07.000Z</time>
        <extensions>
          <ns3:TrackPointExtension>
            <ns3:atemp>28.0</ns3:atemp>
            <ns3:hr>104</ns3:hr>
          </ns3:TrackPointExtension>
        </extensions>
      </trkpt>
      <trkpt lat="36.770751066505908966064453125" lon="-118.4176687337458133697509765625">
        <ele>3271</ele>
        <time>2021-06-25T19:32:11.000Z</time>
        <extensions>
          <ns3:TrackPointExtension>
            <ns3:atemp>28.0</ns3:atemp>
            <ns3:hr>103</ns3:hr>
          </ns3:TrackPointExtension>
        </extensions>
      </trkpt>
      <trkpt lat="36.770743690431118011474609375" lon="-118.41766730882227420806884765625">
        <ele>3271</ele>
        <time>2021-06-25T19:32:12.000Z</time>
        <extensions>
          <ns3:TrackPointExtension>
            <ns3:atemp>28.0</ns3:atemp>
            <ns3:hr>104</ns3:hr>
          </ns3:TrackPointExtension>
        </extensions>
      </trkpt>
      <trkpt lat="36.77071477286517620086669921875" lon="-118.4176637046039104461669921875">
        <ele>3272.199951171875</ele>
        <time>2021-06-25T19:32:15.000Z</time>
        <extensions>
          <ns3:TrackPointExtension>
            <ns3:atemp>28.0</ns3:atemp>
            <ns3:hr>105</ns3:hr>
          </ns3:TrackPointExtension>
        </extensions>
      </trkpt>
      <trkpt lat="36.7706724442541599273681640625" lon="-118.41766630299389362335205078125">
        <ele>3272.60009765625</ele>
        <time>2021-06-25T19:32:19.000Z</time>
        <extensions>
          <ns3:TrackPointExtension>
            <ns3:atemp>28.0</ns3:atemp>
            <ns3:hr>107</ns3:hr>
          </ns3:TrackPointExtension>
        </extensions>
      </trkpt>
      <trkpt lat="36.770637743175029754638671875" lon="-118.4176838211715221405029296875">
        <ele>3273.199951171875</ele>
        <time>2021-06-25T19:32:22.000Z</time>
        <extensions>
          <ns3:TrackPointExtension>
            <ns3:atemp>28.0</ns3:atemp>
            <ns3:hr>107</ns3:hr>
          </ns3:TrackPointExtension>
        </extensions>
      </trkpt>
      <trkpt lat="36.770613603293895721435546875" lon="-118.41767820529639720916748046875">
        <ele>3273.60009765625</ele>
        <time>2021-06-25T19:32:25.000Z</time>
        <extensions>
          <ns3:TrackPointExtension>
            <ns3:atemp>28.0</ns3:atemp>
            <ns3:hr>107</ns3:hr>
          </ns3:TrackPointExtension>
        </extensions>
      </trkpt>
      <trkpt lat="36.7705919779837131500244140625" lon="-118.41766177676618099212646484375">
        <ele>3274</ele>
        <time>2021-06-25T19:32:27.000Z</time>
        <extensions>
          <ns3:TrackPointExtension>
            <ns3:atemp>28.0</ns3:atemp>
            <ns3:hr>107</ns3:hr>
          </ns3:TrackPointExtension>
        </extensions>
      </trkpt>
      <trkpt lat="36.77058041095733642578125" lon="-118.4176566638052463531494140625">
        <ele>3274</ele>
        <time>2021-06-25T19:32:28.000Z</time>
        <extensions>
          <ns3:TrackPointExtension>
            <ns3:atemp>28.0</ns3:atemp>
            <ns3:hr>107</ns3:hr>
          </ns3:TrackPointExtension>
        </extensions>
      </trkpt>
      <trkpt lat="36.77057026885449886322021484375" lon="-118.41765624471008777618408203125">
        <ele>3274.39990234375</ele>
        <time>2021-06-25T19:32:29.000Z</time>
        <extensions>
          <ns3:TrackPointExtension>
            <ns3:atemp>28.0</ns3:atemp>
            <ns3:hr>109</ns3:hr>
          </ns3:TrackPointExtension>
        </extensions>
      </trkpt>
      <trkpt lat="36.77054512314498424530029296875" lon="-118.41765976510941982269287109375">
        <ele>3274.39990234375</ele>
        <time>2021-06-25T19:32:31.000Z</time>
        <extensions>
          <ns3:TrackPointExtension>
            <ns3:atemp>28.0</ns3:atemp>
            <ns3:hr>108</ns3:hr>
          </ns3:TrackPointExtension>
        </extensions>
      </trkpt>
      <trkpt lat="36.77050874568521976470947265625" lon="-118.41766932047903537750244140625">
        <ele>3274.60009765625</ele>
        <time>2021-06-25T19:32:34.000Z</time>
        <extensions>
          <ns3:TrackPointExtension>
            <ns3:atemp>27.0</ns3:atemp>
            <ns3:hr>109</ns3:hr>
          </ns3:TrackPointExtension>
        </extensions>
      </trkpt>
      <trkpt lat="36.7704028822481632232666015625" lon="-118.41767099685966968536376953125">
        <ele>3274.39990234375</ele>
        <time>2021-06-25T19:32:43.000Z</time>
        <extensions>
          <ns3:TrackPointExtension>
            <ns3:atemp>27.0</ns3:atemp>
            <ns3:hr>107</ns3:hr>
          </ns3:TrackPointExtension>
        </extensions>
      </trkpt>
      <trkpt lat="36.7704355716705322265625" lon="-118.41756253503262996673583984375">
        <ele>3271</ele>
        <time>2021-06-25T20:13:07.000Z</time>
        <extensions>
          <ns3:TrackPointExtension>
            <ns3:atemp>24.0</ns3:atemp>
            <ns3:hr>106</ns3:hr>
          </ns3:TrackPointExtension>
        </extensions>
      </trkpt>
      <trkpt lat="36.7704504914581775665283203125" lon="-118.41753889806568622589111328125">
        <ele>3270.60009765625</ele>
        <time>2021-06-25T20:13:10.000Z</time>
        <extensions>
          <ns3:TrackPointExtension>
            <ns3:atemp>24.0</ns3:atemp>
            <ns3:hr>106</ns3:hr>
          </ns3:TrackPointExtension>
        </extensions>
      </trkpt>
      <trkpt lat="36.77046440541744232177734375" lon="-118.41745558194816112518310546875">
        <ele>3271</ele>
        <time>2021-06-25T20:13:17.000Z</time>
        <extensions>
          <ns3:TrackPointExtension>
            <ns3:atemp>24.0</ns3:atemp>
            <ns3:hr>102</ns3:hr>
          </ns3:TrackPointExtension>
        </extensions>
      </trkpt>
      <trkpt lat="36.77047722972929477691650390625" lon="-118.4174286760389804840087890625">
        <ele>3271</ele>
        <time>2021-06-25T20:13:19.000Z</time>
        <extensions>
          <ns3:TrackPointExtension>
            <ns3:atemp>24.0</ns3:atemp>
            <ns3:hr>99</ns3:hr>
          </ns3:TrackPointExtension>
        </extensions>
      </trkpt>
      <trkpt lat="36.770483516156673431396484375" lon="-118.4173969924449920654296875">
        <ele>3271</ele>
        <time>2021-06-25T20:13:21.000Z</time>
        <extensions>
          <ns3:TrackPointExtension>
            <ns3:atemp>24.0</ns3:atemp>
            <ns3:hr>96</ns3:hr>
          </ns3:TrackPointExtension>
        </extensions>
      </trkpt>
      <trkpt lat="36.77048854529857635498046875" lon="-118.41736304573714733123779296875">
        <ele>3271</ele>
        <time>2021-06-25T20:13:24.000Z</time>
        <extensions>
          <ns3:TrackPointExtension>
            <ns3:atemp>24.0</ns3:atemp>
            <ns3:hr>93</ns3:hr>
          </ns3:TrackPointExtension>
        </extensions>
      </trkpt>
      <trkpt lat="36.77050773985683917999267578125" lon="-118.4173136763274669647216796875">
        <ele>3271</ele>
        <time>2021-06-25T20:13:29.000Z</time>
        <extensions>
          <ns3:TrackPointExtension>
            <ns3:atemp>24.0</ns3:atemp>
            <ns3:hr>91</ns3:hr>
          </ns3:TrackPointExtension>
        </extensions>
      </trkpt>
      <trkpt lat="36.7705577798187732696533203125" lon="-118.41724880039691925048828125">
        <ele>3271</ele>
        <time>2021-06-25T20:13:38.000Z</time>
        <extensions>
          <ns3:TrackPointExtension>
            <ns3:atemp>24.0</ns3:atemp>
            <ns3:hr>92</ns3:hr>
          </ns3:TrackPointExtension>
        </extensions>
      </trkpt>
      <trkpt lat="36.77060245536267757415771484375" lon="-118.41719607822597026824951171875">
        <ele>3269.800048828125</ele>
        <time>2021-06-25T20:13:45.000Z</time>
        <extensions>
          <ns3:TrackPointExtension>
            <ns3:atemp>24.0</ns3:atemp>
            <ns3:hr>92</ns3:hr>
          </ns3:TrackPointExtension>
        </extensions>
      </trkpt>
      <trkpt lat="36.77061268128454685211181640625" lon="-118.4171728603541851043701171875">
        <ele>3269.800048828125</ele>
        <time>2021-06-25T20:13:47.000Z</time>
        <extensions>
          <ns3:TrackPointExtension>
            <ns3:atemp>24.0</ns3:atemp>
            <ns3:hr>91</ns3:hr>
          </ns3:TrackPointExtension>
        </extensions>
      </trkpt>
      <trkpt lat="36.770618967711925506591796875" lon="-118.4171514026820659637451171875">
        <ele>3269.800048828125</ele>
        <time>2021-06-25T20:13:49.000Z</time>
        <extensions>
          <ns3:TrackPointExtension>
            <ns3:atemp>24.0</ns3:atemp>
            <ns3:hr>94</ns3:hr>
          </ns3:TrackPointExtension>
        </extensions>
      </trkpt>
      <trkpt lat="36.7706275172531604766845703125" lon="-118.417133130133152008056640625">
        <ele>3269.800048828125</ele>
        <time>2021-06-25T20:13:51.000Z</time>
        <extensions>
          <ns3:TrackPointExtension>
            <ns3:atemp>24.0</ns3:atemp>
            <ns3:hr>94</ns3:hr>
          </ns3:TrackPointExtension>
        </extensions>
      </trkpt>
      <trkpt lat="36.77064285613596439361572265625" lon="-118.41712600551545619964599609375">
        <ele>3269.800048828125</ele>
        <time>2021-06-25T20:13:53.000Z</time>
        <extensions>
          <ns3:TrackPointExtension>
            <ns3:atemp>24.0</ns3:atemp>
            <ns3:hr>91</ns3:hr>
          </ns3:TrackPointExtension>
        </extensions>
      </trkpt>
      <trkpt lat="36.770650483667850494384765625" lon="-118.41712550260126590728759765625">
        <ele>3269.800048828125</ele>
        <time>2021-06-25T20:13:54.000Z</time>
        <extensions>
          <ns3:TrackPointExtension>
            <ns3:atemp>24.0</ns3:atemp>
            <ns3:hr>92</ns3:hr>
          </ns3:TrackPointExtension>
        </extensions>
      </trkpt>
      <trkpt lat="36.77065794356167316436767578125" lon="-118.4171192161738872528076171875">
        <ele>3269.800048828125</ele>
        <time>2021-06-25T20:13:55.000Z</time>
        <extensions>
          <ns3:TrackPointExtension>
            <ns3:atemp>24.0</ns3:atemp>
            <ns3:hr>88</ns3:hr>
          </ns3:TrackPointExtension>
        </extensions>
      </trkpt>
      <trkpt lat="36.77066213451325893402099609375" lon="-118.417106308043003082275390625">
        <ele>3269.800048828125</ele>
        <time>2021-06-25T20:13:56.000Z</time>
        <extensions>
          <ns3:TrackPointExtension>
            <ns3:atemp>24.0</ns3:atemp>
            <ns3:hr>91</ns3:hr>
          </ns3:TrackPointExtension>
        </extensions>
      </trkpt>
      <trkpt lat="36.77066129632294178009033203125" lon="-118.41709096916019916534423828125">
        <ele>3269.800048828125</ele>
        <time>2021-06-25T20:13:57.000Z</time>
        <extensions>
          <ns3:TrackPointExtension>
            <ns3:atemp>24.0</ns3:atemp>
            <ns3:hr>91</ns3:hr>
          </ns3:TrackPointExtension>
        </extensions>
      </trkpt>
      <trkpt lat="36.770659871399402618408203125" lon="-118.4170635603368282318115234375">
        <ele>3269.800048828125</ele>
        <time>2021-06-25T20:13:59.000Z</time>
        <extensions>
          <ns3:TrackPointExtension>
            <ns3:atemp>24.0</ns3:atemp>
            <ns3:hr>91</ns3:hr>
          </ns3:TrackPointExtension>
        </extensions>
      </trkpt>
      <trkpt lat="36.7706353962421417236328125" lon="-118.416992314159870147705078125">
        <ele>3268.60009765625</ele>
        <time>2021-06-25T20:14:04.000Z</time>
        <extensions>
          <ns3:TrackPointExtension>
            <ns3:atemp>24.0</ns3:atemp>
            <ns3:hr>89</ns3:hr>
          </ns3:TrackPointExtension>
        </extensions>
      </trkpt>
      <trkpt lat="36.7706318758428096771240234375" lon="-118.41697898693382740020751953125">
        <ele>3270</ele>
        <time>2021-06-25T20:14:05.000Z</time>
        <extensions>
          <ns3:TrackPointExtension>
            <ns3:atemp>24.0</ns3:atemp>
            <ns3:hr>88</ns3:hr>
          </ns3:TrackPointExtension>
        </extensions>
      </trkpt>
      <trkpt lat="36.77063011564314365386962890625" lon="-118.4169415198266506195068359375">
        <ele>3269.39990234375</ele>
        <time>2021-06-25T20:14:08.000Z</time>
        <extensions>
          <ns3:TrackPointExtension>
            <ns3:atemp>24.0</ns3:atemp>
            <ns3:hr>87</ns3:hr>
          </ns3:TrackPointExtension>
        </extensions>
      </trkpt>
      <trkpt lat="36.7706352286040782928466796875" lon="-118.416928611695766448974609375">
        <ele>3268.800048828125</ele>
        <time>2021-06-25T20:14:09.000Z</time>
        <extensions>
          <ns3:TrackPointExtension>
            <ns3:atemp>24.0</ns3:atemp>
            <ns3:hr>87</ns3:hr>
          </ns3:TrackPointExtension>
        </extensions>
      </trkpt>
      <trkpt lat="36.77064151503145694732666015625" lon="-118.416842110455036163330078125">
        <ele>3269.60009765625</ele>
        <time>2021-06-25T20:14:16.000Z</time>
        <extensions>
          <ns3:TrackPointExtension>
            <ns3:atemp>24.0</ns3:atemp>
            <ns3:hr>85</ns3:hr>
          </ns3:TrackPointExtension>
        </extensions>
      </trkpt>
      <trkpt lat="36.77064478397369384765625" lon="-118.41670422814786434173583984375">
        <ele>3269.199951171875</ele>
        <time>2021-06-25T20:14:26.000Z</time>
        <extensions>
          <ns3:TrackPointExtension>
            <ns3:atemp>24.0</ns3:atemp>
            <ns3:hr>84</ns3:hr>
          </ns3:TrackPointExtension>
        </extensions>
      </trkpt>
      <trkpt lat="36.770643107593059539794921875" lon="-118.416674472391605377197265625">
        <ele>3268.800048828125</ele>
        <time>2021-06-25T20:14:28.000Z</time>
        <extensions>
          <ns3:TrackPointExtension>
            <ns3:atemp>24.0</ns3:atemp>
            <ns3:hr>87</ns3:hr>
          </ns3:TrackPointExtension>
        </extensions>
      </trkpt>
      <trkpt lat="36.77065392024815082550048828125" lon="-118.41661688871681690216064453125">
        <ele>3269</ele>
        <time>2021-06-25T20:14:32.000Z</time>
        <extensions>
          <ns3:TrackPointExtension>
            <ns3:atemp>24.0</ns3:atemp>
            <ns3:hr>84</ns3:hr>
          </ns3:TrackPointExtension>
        </extensions>
      </trkpt>
      <trkpt lat="36.770657189190387725830078125" lon="-118.416543714702129364013671875">
        <ele>3268.60009765625</ele>
        <time>2021-06-25T20:14:37.000Z</time>
        <extensions>
          <ns3:TrackPointExtension>
            <ns3:atemp>24.0</ns3:atemp>
            <ns3:hr>83</ns3:hr>
          </ns3:TrackPointExtension>
        </extensions>
      </trkpt>
      <trkpt lat="36.770668588578701019287109375" lon="-118.41648277826607227325439453125">
        <ele>3268.60009765625</ele>
        <time>2021-06-25T20:14:41.000Z</time>
        <extensions>
          <ns3:TrackPointExtension>
            <ns3:atemp>24.0</ns3:atemp>
            <ns3:hr>80</ns3:hr>
          </ns3:TrackPointExtension>
        </extensions>
      </trkpt>
      <trkpt lat="36.7706757970154285430908203125" lon="-118.416408598423004150390625">
        <ele>3269</ele>
        <time>2021-06-25T20:14:46.000Z</time>
        <extensions>
          <ns3:TrackPointExtension>
            <ns3:atemp>24.0</ns3:atemp>
            <ns3:hr>80</ns3:hr>
          </ns3:TrackPointExtension>
        </extensions>
      </trkpt>
      <trkpt lat="36.77068610675632953643798828125" lon="-118.416254706680774688720703125">
        <ele>3269.60009765625</ele>
        <time>2021-06-25T20:14:56.000Z</time>
        <extensions>
          <ns3:TrackPointExtension>
            <ns3:atemp>25.0</ns3:atemp>
            <ns3:hr>83</ns3:hr>
          </ns3:TrackPointExtension>
        </extensions>
      </trkpt>
      <trkpt lat="36.770679987967014312744140625" lon="-118.4162414632737636566162109375">
        <ele>3269.199951171875</ele>
        <time>2021-06-25T20:14:58.000Z</time>
        <extensions>
          <ns3:TrackPointExtension>
            <ns3:atemp>25.0</ns3:atemp>
            <ns3:hr>84</ns3:hr>
          </ns3:TrackPointExtension>
        </extensions>
      </trkpt>
      <trkpt lat="36.77066464908421039581298828125" lon="-118.416248671710491180419921875">
        <ele>3269.199951171875</ele>
        <time>2021-06-25T20:15:00.000Z</time>
        <extensions>
          <ns3:TrackPointExtension>
            <ns3:atemp>25.0</ns3:atemp>
            <ns3:hr>84</ns3:hr>
          </ns3:TrackPointExtension>
        </extensions>
      </trkpt>
      <trkpt lat="36.770663894712924957275390625" lon="-118.4162572212517261505126953125">
        <ele>3269</ele>
        <time>2021-06-25T20:15:01.000Z</time>
        <extensions>
          <ns3:TrackPointExtension>
            <ns3:atemp>25.0</ns3:atemp>
            <ns3:hr>85</ns3:hr>
          </ns3:TrackPointExtension>
        </extensions>
      </trkpt>
      <trkpt lat="36.77065526135265827178955078125" lon="-118.41627457179129123687744140625">
        <ele>3269</ele>
        <time>2021-06-25T20:15:04.000Z</time>
        <extensions>
          <ns3:TrackPointExtension>
            <ns3:atemp>25.0</ns3:atemp>
            <ns3:hr>87</ns3:hr>
          </ns3:TrackPointExtension>
        </extensions>
      </trkpt>
      <trkpt lat="36.77064620889723300933837890625" lon="-118.41626183129847049713134765625">
        <ele>3269</ele>
        <time>2021-06-25T20:15:06.000Z</time>
        <extensions>
          <ns3:TrackPointExtension>
            <ns3:atemp>25.0</ns3:atemp>
            <ns3:hr>88</ns3:hr>
          </ns3:TrackPointExtension>
        </extensions>
      </trkpt>
      <trkpt lat="36.7706419341266155242919921875" lon="-118.41625411994755268096923828125">
        <ele>3268.800048828125</ele>
        <time>2021-06-25T20:15:07.000Z</time>
        <extensions>
          <ns3:TrackPointExtension>
            <ns3:atemp>25.0</ns3:atemp>
            <ns3:hr>88</ns3:hr>
          </ns3:TrackPointExtension>
        </extensions>
      </trkpt>
      <trkpt lat="36.7706432752311229705810546875" lon="-118.416256718337535858154296875">
        <ele>3268.199951171875</ele>
        <time>2021-06-25T20:15:14.000Z</time>
        <extensions>
          <ns3:TrackPointExtension>
            <ns3:atemp>25.0</ns3:atemp>
            <ns3:hr>91</ns3:hr>
          </ns3:TrackPointExtension>
        </extensions>
      </trkpt>
      <trkpt lat="36.7706432752311229705810546875" lon="-118.416256718337535858154296875">
        <ele>3268.199951171875</ele>
        <time>2021-06-25T20:15:15.000Z</time>
        <extensions>
          <ns3:TrackPointExtension>
            <ns3:atemp>25.0</ns3:atemp>
            <ns3:hr>91</ns3:hr>
          </ns3:TrackPointExtension>
        </extensions>
      </trkpt>
      <trkpt lat="36.7706432752311229705810546875" lon="-118.41625981964170932769775390625">
        <ele>3268.39990234375</ele>
        <time>2021-06-25T20:15:21.000Z</time>
        <extensions>
          <ns3:TrackPointExtension>
            <ns3:atemp>25.0</ns3:atemp>
            <ns3:hr>88</ns3:hr>
          </ns3:TrackPointExtension>
        </extensions>
      </trkpt>
      <trkpt lat="36.77064319141209125518798828125" lon="-118.41626216657459735870361328125">
        <ele>3268.39990234375</ele>
        <time>2021-06-25T20:15:23.000Z</time>
        <extensions>
          <ns3:TrackPointExtension>
            <ns3:atemp>25.0</ns3:atemp>
            <ns3:hr>88</ns3:hr>
          </ns3:TrackPointExtension>
        </extensions>
      </trkpt>
      <trkpt lat="36.7706372402608394622802734375" lon="-118.41626577079296112060546875">
        <ele>3268.39990234375</ele>
        <time>2021-06-25T20:15:29.000Z</time>
        <extensions>
          <ns3:TrackPointExtension>
            <ns3:atemp>25.0</ns3:atemp>
            <ns3:hr>85</ns3:hr>
          </ns3:TrackPointExtension>
        </extensions>
      </trkpt>
      <trkpt lat="36.7706489749252796173095703125" lon="-118.41627993620932102203369140625">
        <ele>3267.60009765625</ele>
        <time>2021-06-25T20:15:50.000Z</time>
        <extensions>
          <ns3:TrackPointExtension>
            <ns3:atemp>25.0</ns3:atemp>
            <ns3:hr>84</ns3:hr>
          </ns3:TrackPointExtension>
        </extensions>
      </trkpt>
      <trkpt lat="36.7706489749252796173095703125" lon="-118.4162941016256809234619140625">
        <ele>3268.199951171875</ele>
        <time>2021-06-25T20:15:59.000Z</time>
        <extensions>
          <ns3:TrackPointExtension>
            <ns3:atemp>25.0</ns3:atemp>
            <ns3:hr>86</ns3:hr>
          </ns3:TrackPointExtension>
        </extensions>
      </trkpt>
      <trkpt lat="36.77064386196434497833251953125" lon="-118.41630508191883563995361328125">
        <ele>3267.800048828125</ele>
        <time>2021-06-25T20:16:20.000Z</time>
        <extensions>
          <ns3:TrackPointExtension>
            <ns3:atemp>26.0</ns3:atemp>
            <ns3:hr>85</ns3:hr>
          </ns3:TrackPointExtension>
        </extensions>
      </trkpt>
      <trkpt lat="36.77064352668821811676025390625" lon="-118.41632117517292499542236328125">
        <ele>3267.800048828125</ele>
        <time>2021-06-25T20:16:28.000Z</time>
        <extensions>
          <ns3:TrackPointExtension>
            <ns3:atemp>26.0</ns3:atemp>
            <ns3:hr>82</ns3:hr>
          </ns3:TrackPointExtension>
        </extensions>
      </trkpt>
      <trkpt lat="36.770672611892223358154296875" lon="-118.41636174358427524566650390625">
        <ele>3267.39990234375</ele>
        <time>2021-06-25T20:16:32.000Z</time>
        <extensions>
          <ns3:TrackPointExtension>
            <ns3:atemp>26.0</ns3:atemp>
            <ns3:hr>81</ns3:hr>
          </ns3:TrackPointExtension>
        </extensions>
      </trkpt>
      <trkpt lat="36.77075500600039958953857421875" lon="-118.4164778329432010650634765625">
        <ele>3267.60009765625</ele>
        <time>2021-06-25T20:16:41.000Z</time>
        <extensions>
          <ns3:TrackPointExtension>
            <ns3:atemp>26.0</ns3:atemp>
            <ns3:hr>78</ns3:hr>
          </ns3:TrackPointExtension>
        </extensions>
      </trkpt>
      <trkpt lat="36.7707703448832035064697265625" lon="-118.41650172136723995208740234375">
        <ele>3267.60009765625</ele>
        <time>2021-06-25T20:16:43.000Z</time>
        <extensions>
          <ns3:TrackPointExtension>
            <ns3:atemp>26.0</ns3:atemp>
            <ns3:hr>79</ns3:hr>
          </ns3:TrackPointExtension>
        </extensions>
      </trkpt>
      <trkpt lat="36.770841591060161590576171875" lon="-118.416581265628337860107421875">
        <ele>3268.39990234375</ele>
        <time>2021-06-25T20:16:52.000Z</time>
        <extensions>
          <ns3:TrackPointExtension>
            <ns3:atemp>26.0</ns3:atemp>
            <ns3:hr>78</ns3:hr>
          </ns3:TrackPointExtension>
        </extensions>
      </trkpt>
      <trkpt lat="36.77090588025748729705810546875" lon="-118.4166471473872661590576171875">
        <ele>3268.60009765625</ele>
        <time>2021-06-25T20:17:00.000Z</time>
        <extensions>
          <ns3:TrackPointExtension>
            <ns3:atemp>26.0</ns3:atemp>
            <ns3:hr>81</ns3:hr>
          </ns3:TrackPointExtension>
        </extensions>
      </trkpt>
      <trkpt lat="36.77092834375798702239990234375" lon="-118.41666315682232379913330078125">
        <ele>3268.800048828125</ele>
        <time>2021-06-25T20:17:02.000Z</time>
        <extensions>
          <ns3:TrackPointExtension>
            <ns3:atemp>26.0</ns3:atemp>
            <ns3:hr>81</ns3:hr>
          </ns3:TrackPointExtension>
        </extensions>
      </trkpt>
      <trkpt lat="36.770941503345966339111328125" lon="-118.41666944324970245361328125">
        <ele>3268.800048828125</ele>
        <time>2021-06-25T20:17:03.000Z</time>
        <extensions>
          <ns3:TrackPointExtension>
            <ns3:atemp>26.0</ns3:atemp>
            <ns3:hr>80</ns3:hr>
          </ns3:TrackPointExtension>
        </extensions>
      </trkpt>
      <trkpt lat="36.77100126631557941436767578125" lon="-118.41669366694986820220947265625">
        <ele>3269.199951171875</ele>
        <time>2021-06-25T20:17:08.000Z</time>
        <extensions>
          <ns3:TrackPointExtension>
            <ns3:atemp>26.0</ns3:atemp>
            <ns3:hr>83</ns3:hr>
          </ns3:TrackPointExtension>
        </extensions>
      </trkpt>
      <trkpt lat="36.77100998349487781524658203125" lon="-118.41672442853450775146484375">
        <ele>3269.60009765625</ele>
        <time>2021-06-25T20:17:11.000Z</time>
        <extensions>
          <ns3:TrackPointExtension>
            <ns3:atemp>26.0</ns3:atemp>
            <ns3:hr>87</ns3:hr>
          </ns3:TrackPointExtension>
        </extensions>
      </trkpt>
      <trkpt lat="36.77101551555097103118896484375" lon="-118.41673247516155242919921875">
        <ele>3269.60009765625</ele>
        <time>2021-06-25T20:17:12.000Z</time>
        <extensions>
          <ns3:TrackPointExtension>
            <ns3:atemp>26.0</ns3:atemp>
            <ns3:hr>84</ns3:hr>
          </ns3:TrackPointExtension>
        </extensions>
      </trkpt>
      <trkpt lat="36.77102356217801570892333984375" lon="-118.416739515960216522216796875">
        <ele>3269.60009765625</ele>
        <time>2021-06-25T20:17:13.000Z</time>
        <extensions>
          <ns3:TrackPointExtension>
            <ns3:atemp>26.0</ns3:atemp>
            <ns3:hr>85</ns3:hr>
          </ns3:TrackPointExtension>
        </extensions>
      </trkpt>
      <trkpt lat="36.7710399068892002105712890625" lon="-118.41675301082432270050048828125">
        <ele>3269.800048828125</ele>
        <time>2021-06-25T20:17:15.000Z</time>
        <extensions>
          <ns3:TrackPointExtension>
            <ns3:atemp>26.0</ns3:atemp>
            <ns3:hr>86</ns3:hr>
          </ns3:TrackPointExtension>
        </extensions>
      </trkpt>
      <trkpt lat="36.771066896617412567138671875" lon="-118.41679207049310207366943359375">
        <ele>3270</ele>
        <time>2021-06-25T20:17:20.000Z</time>
        <extensions>
          <ns3:TrackPointExtension>
            <ns3:atemp>26.0</ns3:atemp>
            <ns3:hr>89</ns3:hr>
          </ns3:TrackPointExtension>
        </extensions>
      </trkpt>
      <trkpt lat="36.77107460796833038330078125" lon="-118.41679961420595645904541015625">
        <ele>3270</ele>
        <time>2021-06-25T20:17:21.000Z</time>
        <extensions>
          <ns3:TrackPointExtension>
            <ns3:atemp>26.0</ns3:atemp>
            <ns3:hr>89</ns3:hr>
          </ns3:TrackPointExtension>
        </extensions>
      </trkpt>
      <trkpt lat="36.7710881866514682769775390625" lon="-118.41680984012782573699951171875">
        <ele>3270.199951171875</ele>
        <time>2021-06-25T20:17:23.000Z</time>
        <extensions>
          <ns3:TrackPointExtension>
            <ns3:atemp>26.0</ns3:atemp>
            <ns3:hr>88</ns3:hr>
          </ns3:TrackPointExtension>
        </extensions>
      </trkpt>
      <trkpt lat="36.77111743949353694915771484375" lon="-118.41682744212448596954345703125">
        <ele>3270.800048828125</ele>
        <time>2021-06-25T20:17:27.000Z</time>
        <extensions>
          <ns3:TrackPointExtension>
            <ns3:atemp>26.0</ns3:atemp>
            <ns3:hr>87</ns3:hr>
          </ns3:TrackPointExtension>
        </extensions>
      </trkpt>
      <trkpt lat="36.77112498320639133453369140625" lon="-118.41683481819927692413330078125">
        <ele>3270.800048828125</ele>
        <time>2021-06-25T20:17:28.000Z</time>
        <extensions>
          <ns3:TrackPointExtension>
            <ns3:atemp>26.0</ns3:atemp>
            <ns3:hr>87</ns3:hr>
          </ns3:TrackPointExtension>
        </extensions>
      </trkpt>
      <trkpt lat="36.7711428366601467132568359375" lon="-118.4168506599962711334228515625">
        <ele>3270.800048828125</ele>
        <time>2021-06-25T20:17:30.000Z</time>
        <extensions>
          <ns3:TrackPointExtension>
            <ns3:atemp>26.0</ns3:atemp>
            <ns3:hr>89</ns3:hr>
          </ns3:TrackPointExtension>
        </extensions>
      </trkpt>
      <trkpt lat="36.7711596004664897918701171875" lon="-118.41686951927840709686279296875">
        <ele>3271</ele>
        <time>2021-06-25T20:17:32.000Z</time>
        <extensions>
          <ns3:TrackPointExtension>
            <ns3:atemp>26.0</ns3:atemp>
            <ns3:hr>92</ns3:hr>
          </ns3:TrackPointExtension>
        </extensions>
      </trkpt>
      <trkpt lat="36.7711857520043849945068359375" lon="-118.4168925695121288299560546875">
        <ele>3271.39990234375</ele>
        <time>2021-06-25T20:17:35.000Z</time>
        <extensions>
          <ns3:TrackPointExtension>
            <ns3:atemp>27.0</ns3:atemp>
            <ns3:hr>95</ns3:hr>
          </ns3:TrackPointExtension>
        </extensions>
      </trkpt>
      <trkpt lat="36.77123864181339740753173828125" lon="-118.41692852787673473358154296875">
        <ele>3271.800048828125</ele>
        <time>2021-06-25T20:17:40.000Z</time>
        <extensions>
          <ns3:TrackPointExtension>
            <ns3:atemp>27.0</ns3:atemp>
            <ns3:hr>98</ns3:hr>
          </ns3:TrackPointExtension>
        </extensions>
      </trkpt>
      <trkpt lat="36.77125020883977413177490234375" lon="-118.41693632304668426513671875">
        <ele>3271.800048828125</ele>
        <time>2021-06-25T20:17:41.000Z</time>
        <extensions>
          <ns3:TrackPointExtension>
            <ns3:atemp>27.0</ns3:atemp>
            <ns3:hr>99</ns3:hr>
          </ns3:TrackPointExtension>
        </extensions>
      </trkpt>
      <trkpt lat="36.771350204944610595703125" lon="-118.417007066309452056884765625">
        <ele>3271.39990234375</ele>
        <time>2021-06-25T20:17:51.000Z</time>
        <extensions>
          <ns3:TrackPointExtension>
            <ns3:atemp>27.0</ns3:atemp>
            <ns3:hr>98</ns3:hr>
          </ns3:TrackPointExtension>
        </extensions>
      </trkpt>
      <trkpt lat="36.7714191041886806488037109375" lon="-118.41705610044300556182861328125">
        <ele>3271.800048828125</ele>
        <time>2021-06-25T20:17:58.000Z</time>
        <extensions>
          <ns3:TrackPointExtension>
            <ns3:atemp>27.0</ns3:atemp>
            <ns3:hr>97</ns3:hr>
          </ns3:TrackPointExtension>
        </extensions>
      </trkpt>
      <trkpt lat="36.77146227099001407623291015625" lon="-118.41710136272013187408447265625">
        <ele>3272</ele>
        <time>2021-06-25T20:18:03.000Z</time>
        <extensions>
          <ns3:TrackPointExtension>
            <ns3:atemp>27.0</ns3:atemp>
            <ns3:hr>98</ns3:hr>
          </ns3:TrackPointExtension>
        </extensions>
      </trkpt>
      <trkpt lat="36.77149043418467044830322265625" lon="-118.417120389640331268310546875">
        <ele>3272</ele>
        <time>2021-06-25T20:18:06.000Z</time>
        <extensions>
          <ns3:TrackPointExtension>
            <ns3:atemp>27.0</ns3:atemp>
            <ns3:hr>101</ns3:hr>
          </ns3:TrackPointExtension>
        </extensions>
      </trkpt>
      <trkpt lat="36.771562434732913970947265625" lon="-118.4171517379581928253173828125">
        <ele>3272</ele>
        <time>2021-06-25T20:18:13.000Z</time>
        <extensions>
          <ns3:TrackPointExtension>
            <ns3:atemp>27.0</ns3:atemp>
            <ns3:hr>102</ns3:hr>
          </ns3:TrackPointExtension>
        </extensions>
      </trkpt>
      <trkpt lat="36.771587245166301727294921875" lon="-118.41714897193014621734619140625">
        <ele>3272</ele>
        <time>2021-06-25T20:18:15.000Z</time>
        <extensions>
          <ns3:TrackPointExtension>
            <ns3:atemp>27.0</ns3:atemp>
            <ns3:hr>103</ns3:hr>
          </ns3:TrackPointExtension>
        </extensions>
      </trkpt>
      <trkpt lat="36.7716588266193866729736328125" lon="-118.41715098358690738677978515625">
        <ele>3272.60009765625</ele>
        <time>2021-06-25T20:18:21.000Z</time>
        <extensions>
          <ns3:TrackPointExtension>
            <ns3:atemp>27.0</ns3:atemp>
            <ns3:hr>104</ns3:hr>
          </ns3:TrackPointExtension>
        </extensions>
      </trkpt>
      <trkpt lat="36.77168858237564563751220703125" lon="-118.417181074619293212890625">
        <ele>3272.800048828125</ele>
        <time>2021-06-25T20:18:25.000Z</time>
        <extensions>
          <ns3:TrackPointExtension>
            <ns3:atemp>27.0</ns3:atemp>
            <ns3:hr>104</ns3:hr>
          </ns3:TrackPointExtension>
        </extensions>
      </trkpt>
      <trkpt lat="36.77173912525177001953125" lon="-118.4172291867434978485107421875">
        <ele>3273.39990234375</ele>
        <time>2021-06-25T20:18:32.000Z</time>
        <extensions>
          <ns3:TrackPointExtension>
            <ns3:atemp>27.0</ns3:atemp>
            <ns3:hr>105</ns3:hr>
          </ns3:TrackPointExtension>
        </extensions>
      </trkpt>
      <trkpt lat="36.771760247647762298583984375" lon="-118.41724636964499950408935546875">
        <ele>3273.39990234375</ele>
        <time>2021-06-25T20:18:35.000Z</time>
        <extensions>
          <ns3:TrackPointExtension>
            <ns3:atemp>27.0</ns3:atemp>
            <ns3:hr>106</ns3:hr>
          </ns3:TrackPointExtension>
        </extensions>
      </trkpt>
      <trkpt lat="36.7718009836971759796142578125" lon="-118.4172637201845645904541015625">
        <ele>3273.60009765625</ele>
        <time>2021-06-25T20:18:39.000Z</time>
        <extensions>
          <ns3:TrackPointExtension>
            <ns3:atemp>27.0</ns3:atemp>
            <ns3:hr>108</ns3:hr>
          </ns3:TrackPointExtension>
        </extensions>
      </trkpt>
      <trkpt lat="36.77183191291987895965576171875" lon="-118.41729733161628246307373046875">
        <ele>3274</ele>
        <time>2021-06-25T20:18:42.000Z</time>
        <extensions>
          <ns3:TrackPointExtension>
            <ns3:atemp>27.0</ns3:atemp>
            <ns3:hr>108</ns3:hr>
          </ns3:TrackPointExtension>
        </extensions>
      </trkpt>
      <trkpt lat="36.7719129659235477447509765625" lon="-118.4173277579247951507568359375">
        <ele>3274.199951171875</ele>
        <time>2021-06-25T20:18:48.000Z</time>
        <extensions>
          <ns3:TrackPointExtension>
            <ns3:atemp>27.0</ns3:atemp>
            <ns3:hr>109</ns3:hr>
          </ns3:TrackPointExtension>
        </extensions>
      </trkpt>
      <trkpt lat="36.77192352712154388427734375" lon="-118.4173408336937427520751953125">
        <ele>3274.39990234375</ele>
        <time>2021-06-25T20:18:50.000Z</time>
        <extensions>
          <ns3:TrackPointExtension>
            <ns3:atemp>27.0</ns3:atemp>
            <ns3:hr>112</ns3:hr>
          </ns3:TrackPointExtension>
        </extensions>
      </trkpt>
      <trkpt lat="36.77192428149282932281494140625" lon="-118.417347706854343414306640625">
        <ele>3274.39990234375</ele>
        <time>2021-06-25T20:18:51.000Z</time>
        <extensions>
          <ns3:TrackPointExtension>
            <ns3:atemp>27.0</ns3:atemp>
            <ns3:hr>109</ns3:hr>
          </ns3:TrackPointExtension>
        </extensions>
      </trkpt>
      <trkpt lat="36.77198119461536407470703125" lon="-118.41737092472612857818603515625">
        <ele>3275</ele>
        <time>2021-06-25T20:18:57.000Z</time>
        <extensions>
          <ns3:TrackPointExtension>
            <ns3:atemp>27.0</ns3:atemp>
            <ns3:hr>106</ns3:hr>
          </ns3:TrackPointExtension>
        </extensions>
      </trkpt>
      <trkpt lat="36.77200240083038806915283203125" lon="-118.4173803962767124176025390625">
        <ele>3275.199951171875</ele>
        <time>2021-06-25T20:19:00.000Z</time>
        <extensions>
          <ns3:TrackPointExtension>
            <ns3:atemp>27.0</ns3:atemp>
            <ns3:hr>105</ns3:hr>
          </ns3:TrackPointExtension>
        </extensions>
      </trkpt>
      <trkpt lat="36.772058643400669097900390625" lon="-118.41739607043564319610595703125">
        <ele>3275.60009765625</ele>
        <time>2021-06-25T20:19:05.000Z</time>
        <extensions>
          <ns3:TrackPointExtension>
            <ns3:atemp>27.0</ns3:atemp>
            <ns3:hr>104</ns3:hr>
          </ns3:TrackPointExtension>
        </extensions>
      </trkpt>
      <trkpt lat="36.77209460176527500152587890625" lon="-118.41740143485367298126220703125">
        <ele>3276.199951171875</ele>
        <time>2021-06-25T20:19:09.000Z</time>
        <extensions>
          <ns3:TrackPointExtension>
            <ns3:atemp>27.0</ns3:atemp>
            <ns3:hr>102</ns3:hr>
          </ns3:TrackPointExtension>
        </extensions>
      </trkpt>
      <trkpt lat="36.77211798727512359619140625" lon="-118.41740311123430728912353515625">
        <ele>3276.199951171875</ele>
        <time>2021-06-25T20:19:11.000Z</time>
        <extensions>
          <ns3:TrackPointExtension>
            <ns3:atemp>27.0</ns3:atemp>
            <ns3:hr>103</ns3:hr>
          </ns3:TrackPointExtension>
        </extensions>
      </trkpt>
      <trkpt lat="36.7721307277679443359375" lon="-118.41740210540592670440673828125">
        <ele>3276.199951171875</ele>
        <time>2021-06-25T20:19:12.000Z</time>
        <extensions>
          <ns3:TrackPointExtension>
            <ns3:atemp>27.0</ns3:atemp>
            <ns3:hr>103</ns3:hr>
          </ns3:TrackPointExtension>
        </extensions>
      </trkpt>
      <trkpt lat="36.77214086987078189849853515625" lon="-118.41740177012979984283447265625">
        <ele>3276.199951171875</ele>
        <time>2021-06-25T20:19:13.000Z</time>
        <extensions>
          <ns3:TrackPointExtension>
            <ns3:atemp>27.0</ns3:atemp>
            <ns3:hr>103</ns3:hr>
          </ns3:TrackPointExtension>
        </extensions>
      </trkpt>
      <trkpt lat="36.7721956036984920501708984375" lon="-118.4174189530313014984130859375">
        <ele>3276.199951171875</ele>
        <time>2021-06-25T20:19:18.000Z</time>
        <extensions>
          <ns3:TrackPointExtension>
            <ns3:atemp>27.0</ns3:atemp>
            <ns3:hr>100</ns3:hr>
          </ns3:TrackPointExtension>
        </extensions>
      </trkpt>
      <trkpt lat="36.7722163908183574676513671875" lon="-118.417436219751834869384765625">
        <ele>3276.39990234375</ele>
        <time>2021-06-25T20:19:21.000Z</time>
        <extensions>
          <ns3:TrackPointExtension>
            <ns3:atemp>27.0</ns3:atemp>
            <ns3:hr>97</ns3:hr>
          </ns3:TrackPointExtension>
        </extensions>
      </trkpt>
      <trkpt lat="36.77223332226276397705078125" lon="-118.4174363873898983001708984375">
        <ele>3276.60009765625</ele>
        <time>2021-06-25T20:19:23.000Z</time>
        <extensions>
          <ns3:TrackPointExtension>
            <ns3:atemp>27.0</ns3:atemp>
            <ns3:hr>94</ns3:hr>
          </ns3:TrackPointExtension>
        </extensions>
      </trkpt>
      <trkpt lat="36.772241033613681793212890625" lon="-118.4174323640763759613037109375">
        <ele>3276.800048828125</ele>
        <time>2021-06-25T20:19:24.000Z</time>
        <extensions>
          <ns3:TrackPointExtension>
            <ns3:atemp>27.0</ns3:atemp>
            <ns3:hr>94</ns3:hr>
          </ns3:TrackPointExtension>
        </extensions>
      </trkpt>
      <trkpt lat="36.77228034473955631256103515625" lon="-118.4174130856990814208984375">
        <ele>3277.39990234375</ele>
        <time>2021-06-25T20:19:28.000Z</time>
        <extensions>
          <ns3:TrackPointExtension>
            <ns3:atemp>27.0</ns3:atemp>
            <ns3:hr>94</ns3:hr>
          </ns3:TrackPointExtension>
        </extensions>
      </trkpt>
      <trkpt lat="36.772289983928203582763671875" lon="-118.417411744594573974609375">
        <ele>3277.39990234375</ele>
        <time>2021-06-25T20:19:29.000Z</time>
        <extensions>
          <ns3:TrackPointExtension>
            <ns3:atemp>27.0</ns3:atemp>
            <ns3:hr>94</ns3:hr>
          </ns3:TrackPointExtension>
        </extensions>
      </trkpt>
      <trkpt lat="36.77232309244573116302490234375" lon="-118.41742993332445621490478515625">
        <ele>3277.60009765625</ele>
        <time>2021-06-25T20:19:33.000Z</time>
        <extensions>
          <ns3:TrackPointExtension>
            <ns3:atemp>27.0</ns3:atemp>
            <ns3:hr>96</ns3:hr>
          </ns3:TrackPointExtension>
        </extensions>
      </trkpt>
      <trkpt lat="36.77234136499464511871337890625" lon="-118.41743982397019863128662109375">
        <ele>3278</ele>
        <time>2021-06-25T20:19:35.000Z</time>
        <extensions>
          <ns3:TrackPointExtension>
            <ns3:atemp>27.0</ns3:atemp>
            <ns3:hr>95</ns3:hr>
          </ns3:TrackPointExtension>
        </extensions>
      </trkpt>
      <trkpt lat="36.772399283945560455322265625" lon="-118.41747234575450420379638671875">
        <ele>3278.39990234375</ele>
        <time>2021-06-25T20:19:41.000Z</time>
        <extensions>
          <ns3:TrackPointExtension>
            <ns3:atemp>27.0</ns3:atemp>
            <ns3:hr>98</ns3:hr>
          </ns3:TrackPointExtension>
        </extensions>
      </trkpt>
      <trkpt lat="36.77242199890315532684326171875" lon="-118.41748374514281749725341796875">
        <ele>3278.39990234375</ele>
        <time>2021-06-25T20:19:43.000Z</time>
        <extensions>
          <ns3:TrackPointExtension>
            <ns3:atemp>27.0</ns3:atemp>
            <ns3:hr>99</ns3:hr>
          </ns3:TrackPointExtension>
        </extensions>
      </trkpt>
      <trkpt lat="36.77244924008846282958984375" lon="-118.4174977429211139678955078125">
        <ele>3278.39990234375</ele>
        <time>2021-06-25T20:19:46.000Z</time>
        <extensions>
          <ns3:TrackPointExtension>
            <ns3:atemp>27.0</ns3:atemp>
            <ns3:hr>102</ns3:hr>
          </ns3:TrackPointExtension>
        </extensions>
      </trkpt>
      <trkpt lat="36.77246675826609134674072265625" lon="-118.41750738210976123809814453125">
        <ele>3278.39990234375</ele>
        <time>2021-06-25T20:19:48.000Z</time>
        <extensions>
          <ns3:TrackPointExtension>
            <ns3:atemp>28.0</ns3:atemp>
            <ns3:hr>100</ns3:hr>
          </ns3:TrackPointExtension>
        </extensions>
      </trkpt>
      <trkpt lat="36.772511936724185943603515625" lon="-118.41753445565700531005859375">
        <ele>3278</ele>
        <time>2021-06-25T20:19:53.000Z</time>
        <extensions>
          <ns3:TrackPointExtension>
            <ns3:atemp>28.0</ns3:atemp>
            <ns3:hr>99</ns3:hr>
          </ns3:TrackPointExtension>
        </extensions>
      </trkpt>
      <trkpt lat="36.77257840521633625030517578125" lon="-118.4175886027514934539794921875">
        <ele>3277.800048828125</ele>
        <time>2021-06-25T20:20:01.000Z</time>
        <extensions>
          <ns3:TrackPointExtension>
            <ns3:atemp>28.0</ns3:atemp>
            <ns3:hr>97</ns3:hr>
          </ns3:TrackPointExtension>
        </extensions>
      </trkpt>
      <trkpt lat="36.77263556979596614837646484375" lon="-118.41764367185533046722412109375">
        <ele>3277.60009765625</ele>
        <time>2021-06-25T20:20:07.000Z</time>
        <extensions>
          <ns3:TrackPointExtension>
            <ns3:atemp>28.0</ns3:atemp>
            <ns3:hr>101</ns3:hr>
          </ns3:TrackPointExtension>
        </extensions>
      </trkpt>
      <trkpt lat="36.77264026366174221038818359375" lon="-118.4176529757678508758544921875">
        <ele>3277.199951171875</ele>
        <time>2021-06-25T20:20:08.000Z</time>
        <extensions>
          <ns3:TrackPointExtension>
            <ns3:atemp>27.0</ns3:atemp>
            <ns3:hr>101</ns3:hr>
          </ns3:TrackPointExtension>
        </extensions>
      </trkpt>
      <trkpt lat="36.7726690135896205902099609375" lon="-118.41771039180457592010498046875">
        <ele>3277.199951171875</ele>
        <time>2021-06-25T20:20:12.000Z</time>
        <extensions>
          <ns3:TrackPointExtension>
            <ns3:atemp>28.0</ns3:atemp>
            <ns3:hr>104</ns3:hr>
          </ns3:TrackPointExtension>
        </extensions>
      </trkpt>
      <trkpt lat="36.77270145155489444732666015625" lon="-118.41774274595081806182861328125">
        <ele>3277.199951171875</ele>
        <time>2021-06-25T20:20:16.000Z</time>
        <extensions>
          <ns3:TrackPointExtension>
            <ns3:atemp>28.0</ns3:atemp>
            <ns3:hr>106</ns3:hr>
          </ns3:TrackPointExtension>
        </extensions>
      </trkpt>
      <trkpt lat="36.772798933088779449462890625" lon="-118.41778432019054889678955078125">
        <ele>3277</ele>
        <time>2021-06-25T20:20:24.000Z</time>
        <extensions>
          <ns3:TrackPointExtension>
            <ns3:atemp>28.0</ns3:atemp>
            <ns3:hr>106</ns3:hr>
          </ns3:TrackPointExtension>
        </extensions>
      </trkpt>
      <trkpt lat="36.7728923074901103973388671875" lon="-118.417818434536457061767578125">
        <ele>3277.199951171875</ele>
        <time>2021-06-25T20:20:33.000Z</time>
        <extensions>
          <ns3:TrackPointExtension>
            <ns3:atemp>28.0</ns3:atemp>
            <ns3:hr>104</ns3:hr>
          </ns3:TrackPointExtension>
        </extensions>
      </trkpt>
      <trkpt lat="36.7729898728430271148681640625" lon="-118.41784936375916004180908203125">
        <ele>3277.60009765625</ele>
        <time>2021-06-25T20:20:43.000Z</time>
        <extensions>
          <ns3:TrackPointExtension>
            <ns3:atemp>28.0</ns3:atemp>
            <ns3:hr>101</ns3:hr>
          </ns3:TrackPointExtension>
        </extensions>
      </trkpt>
      <trkpt lat="36.77309297025203704833984375" lon="-118.41788716614246368408203125">
        <ele>3278</ele>
        <time>2021-06-25T20:20:53.000Z</time>
        <extensions>
          <ns3:TrackPointExtension>
            <ns3:atemp>28.0</ns3:atemp>
            <ns3:hr>101</ns3:hr>
          </ns3:TrackPointExtension>
        </extensions>
      </trkpt>
      <trkpt lat="36.77310395054519176483154296875" lon="-118.41789253056049346923828125">
        <ele>3278.199951171875</ele>
        <time>2021-06-25T20:20:54.000Z</time>
        <extensions>
          <ns3:TrackPointExtension>
            <ns3:atemp>28.0</ns3:atemp>
            <ns3:hr>100</ns3:hr>
          </ns3:TrackPointExtension>
        </extensions>
      </trkpt>
      <trkpt lat="36.77311652339994907379150390625" lon="-118.417900912463665008544921875">
        <ele>3278.199951171875</ele>
        <time>2021-06-25T20:20:55.000Z</time>
        <extensions>
          <ns3:TrackPointExtension>
            <ns3:atemp>28.0</ns3:atemp>
            <ns3:hr>98</ns3:hr>
          </ns3:TrackPointExtension>
        </extensions>
      </trkpt>
      <trkpt lat="36.7731310240924358367919921875" lon="-118.41790837235748767852783203125">
        <ele>3278.39990234375</ele>
        <time>2021-06-25T20:20:56.000Z</time>
        <extensions>
          <ns3:TrackPointExtension>
            <ns3:atemp>28.0</ns3:atemp>
            <ns3:hr>100</ns3:hr>
          </ns3:TrackPointExtension>
        </extensions>
      </trkpt>
      <trkpt lat="36.77319757640361785888671875" lon="-118.4179141558706760406494140625">
        <ele>3278.199951171875</ele>
        <time>2021-06-25T20:21:02.000Z</time>
        <extensions>
          <ns3:TrackPointExtension>
            <ns3:atemp>28.0</ns3:atemp>
            <ns3:hr>101</ns3:hr>
          </ns3:TrackPointExtension>
        </extensions>
      </trkpt>
      <trkpt lat="36.77325918339192867279052734375" lon="-118.41792647726833820343017578125">
        <ele>3278.199951171875</ele>
        <time>2021-06-25T20:21:08.000Z</time>
        <extensions>
          <ns3:TrackPointExtension>
            <ns3:atemp>28.0</ns3:atemp>
            <ns3:hr>98</ns3:hr>
          </ns3:TrackPointExtension>
        </extensions>
      </trkpt>
      <trkpt lat="36.7732859216630458831787109375" lon="-118.41792698018252849578857421875">
        <ele>3278.199951171875</ele>
        <time>2021-06-25T20:21:10.000Z</time>
        <extensions>
          <ns3:TrackPointExtension>
            <ns3:atemp>28.0</ns3:atemp>
            <ns3:hr>97</ns3:hr>
          </ns3:TrackPointExtension>
        </extensions>
      </trkpt>
      <trkpt lat="36.77334819920361042022705078125" lon="-118.41794843785464763641357421875">
        <ele>3278.39990234375</ele>
        <time>2021-06-25T20:21:16.000Z</time>
        <extensions>
          <ns3:TrackPointExtension>
            <ns3:atemp>28.0</ns3:atemp>
            <ns3:hr>96</ns3:hr>
          </ns3:TrackPointExtension>
        </extensions>
      </trkpt>
      <trkpt lat="36.77340134046971797943115234375" lon="-118.4180004894733428955078125">
        <ele>3278.39990234375</ele>
        <time>2021-06-25T20:21:22.000Z</time>
        <extensions>
          <ns3:TrackPointExtension>
            <ns3:atemp>28.0</ns3:atemp>
            <ns3:hr>96</ns3:hr>
          </ns3:TrackPointExtension>
        </extensions>
      </trkpt>
      <trkpt lat="36.77343486808240413665771484375" lon="-118.41801532544195652008056640625">
        <ele>3278.800048828125</ele>
        <time>2021-06-25T20:21:25.000Z</time>
        <extensions>
          <ns3:TrackPointExtension>
            <ns3:atemp>28.0</ns3:atemp>
            <ns3:hr>96</ns3:hr>
          </ns3:TrackPointExtension>
        </extensions>
      </trkpt>
      <trkpt lat="36.77344928495585918426513671875" lon="-118.41802823357284069061279296875">
        <ele>3279.39990234375</ele>
        <time>2021-06-25T20:21:28.000Z</time>
        <extensions>
          <ns3:TrackPointExtension>
            <ns3:atemp>28.0</ns3:atemp>
            <ns3:hr>97</ns3:hr>
          </ns3:TrackPointExtension>
        </extensions>
      </trkpt>
      <trkpt lat="36.77349555306136608123779296875" lon="-118.4180596657097339630126953125">
        <ele>3279.800048828125</ele>
        <time>2021-06-25T20:21:33.000Z</time>
        <extensions>
          <ns3:TrackPointExtension>
            <ns3:atemp>28.0</ns3:atemp>
            <ns3:hr>99</ns3:hr>
          </ns3:TrackPointExtension>
        </extensions>
      </trkpt>
      <trkpt lat="36.773514412343502044677734375" lon="-118.4180687181651592254638671875">
        <ele>3280</ele>
        <time>2021-06-25T20:21:36.000Z</time>
        <extensions>
          <ns3:TrackPointExtension>
            <ns3:atemp>28.0</ns3:atemp>
            <ns3:hr>101</ns3:hr>
          </ns3:TrackPointExtension>
        </extensions>
      </trkpt>
      <trkpt lat="36.7735541425645351409912109375" lon="-118.41805907897651195526123046875">
        <ele>3280.199951171875</ele>
        <time>2021-06-25T20:21:39.000Z</time>
        <extensions>
          <ns3:TrackPointExtension>
            <ns3:atemp>28.0</ns3:atemp>
            <ns3:hr>104</ns3:hr>
          </ns3:TrackPointExtension>
        </extensions>
      </trkpt>
      <trkpt lat="36.77356579340994358062744140625" lon="-118.41805882751941680908203125">
        <ele>3280.199951171875</ele>
        <time>2021-06-25T20:21:40.000Z</time>
        <extensions>
          <ns3:TrackPointExtension>
            <ns3:atemp>28.0</ns3:atemp>
            <ns3:hr>104</ns3:hr>
          </ns3:TrackPointExtension>
        </extensions>
      </trkpt>
      <trkpt lat="36.773608960211277008056640625" lon="-118.41805891133844852447509765625">
        <ele>3280.39990234375</ele>
        <time>2021-06-25T20:21:44.000Z</time>
        <extensions>
          <ns3:TrackPointExtension>
            <ns3:atemp>28.0</ns3:atemp>
            <ns3:hr>105</ns3:hr>
          </ns3:TrackPointExtension>
        </extensions>
      </trkpt>
      <trkpt lat="36.77366855554282665252685546875" lon="-118.4180707298219203948974609375">
        <ele>3280.60009765625</ele>
        <time>2021-06-25T20:21:49.000Z</time>
        <extensions>
          <ns3:TrackPointExtension>
            <ns3:atemp>28.0</ns3:atemp>
            <ns3:hr>105</ns3:hr>
          </ns3:TrackPointExtension>
        </extensions>
      </trkpt>
      <trkpt lat="36.77376058883965015411376953125" lon="-118.4181119687855243682861328125">
        <ele>3280.199951171875</ele>
        <time>2021-06-25T20:21:57.000Z</time>
        <extensions>
          <ns3:TrackPointExtension>
            <ns3:atemp>28.0</ns3:atemp>
            <ns3:hr>104</ns3:hr>
          </ns3:TrackPointExtension>
        </extensions>
      </trkpt>
      <trkpt lat="36.77380551584064960479736328125" lon="-118.418167792260646820068359375">
        <ele>3280.39990234375</ele>
        <time>2021-06-25T20:22:04.000Z</time>
        <extensions>
          <ns3:TrackPointExtension>
            <ns3:atemp>28.0</ns3:atemp>
            <ns3:hr>104</ns3:hr>
          </ns3:TrackPointExtension>
        </extensions>
      </trkpt>
      <trkpt lat="36.77381272427737712860107421875" lon="-118.41817944310605525970458984375">
        <ele>3280.39990234375</ele>
        <time>2021-06-25T20:22:06.000Z</time>
        <extensions>
          <ns3:TrackPointExtension>
            <ns3:atemp>28.0</ns3:atemp>
            <ns3:hr>102</ns3:hr>
          </ns3:TrackPointExtension>
        </extensions>
      </trkpt>
      <trkpt lat="36.77385203540325164794921875" lon="-118.4182159043848514556884765625">
        <ele>3280.60009765625</ele>
        <time>2021-06-25T20:22:11.000Z</time>
        <extensions>
          <ns3:TrackPointExtension>
            <ns3:atemp>28.0</ns3:atemp>
            <ns3:hr>103</ns3:hr>
          </ns3:TrackPointExtension>
        </extensions>
      </trkpt>
      <trkpt lat="36.77389805205166339874267578125" lon="-118.41825471259653568267822265625">
        <ele>3281.199951171875</ele>
        <time>2021-06-25T20:22:16.000Z</time>
        <extensions>
          <ns3:TrackPointExtension>
            <ns3:atemp>28.0</ns3:atemp>
            <ns3:hr>106</ns3:hr>
          </ns3:TrackPointExtension>
        </extensions>
      </trkpt>
      <trkpt lat="36.7739091999828815460205078125" lon="-118.41825840063393115997314453125">
        <ele>3281.199951171875</ele>
        <time>2021-06-25T20:22:17.000Z</time>
        <extensions>
          <ns3:TrackPointExtension>
            <ns3:atemp>28.0</ns3:atemp>
            <ns3:hr>108</ns3:hr>
          </ns3:TrackPointExtension>
        </extensions>
      </trkpt>
      <trkpt lat="36.77392923273146152496337890625" lon="-118.4182635135948657989501953125">
        <ele>3281.60009765625</ele>
        <time>2021-06-25T20:22:19.000Z</time>
        <extensions>
          <ns3:TrackPointExtension>
            <ns3:atemp>28.0</ns3:atemp>
            <ns3:hr>110</ns3:hr>
          </ns3:TrackPointExtension>
        </extensions>
      </trkpt>
      <trkpt lat="36.77394582889974117279052734375" lon="-118.41826711781322956085205078125">
        <ele>3281.800048828125</ele>
        <time>2021-06-25T20:22:21.000Z</time>
        <extensions>
          <ns3:TrackPointExtension>
            <ns3:atemp>28.0</ns3:atemp>
            <ns3:hr>112</ns3:hr>
          </ns3:TrackPointExtension>
        </extensions>
      </trkpt>
      <trkpt lat="36.77398555912077426910400390625" lon="-118.418302237987518310546875">
        <ele>3282.199951171875</ele>
        <time>2021-06-25T20:22:27.000Z</time>
        <extensions>
          <ns3:TrackPointExtension>
            <ns3:atemp>28.0</ns3:atemp>
            <ns3:hr>114</ns3:hr>
          </ns3:TrackPointExtension>
        </extensions>
      </trkpt>
      <trkpt lat="36.774010956287384033203125" lon="-118.4182982146739959716796875">
        <ele>3283</ele>
        <time>2021-06-25T20:22:30.000Z</time>
        <extensions>
          <ns3:TrackPointExtension>
            <ns3:atemp>28.0</ns3:atemp>
            <ns3:hr>114</ns3:hr>
          </ns3:TrackPointExtension>
        </extensions>
      </trkpt>
      <trkpt lat="36.77406820468604564666748046875" lon="-118.418313972651958465576171875">
        <ele>3283.60009765625</ele>
        <time>2021-06-25T20:22:36.000Z</time>
        <extensions>
          <ns3:TrackPointExtension>
            <ns3:atemp>28.0</ns3:atemp>
            <ns3:hr>116</ns3:hr>
          </ns3:TrackPointExtension>
        </extensions>
      </trkpt>
      <trkpt lat="36.77409703843295574188232421875" lon="-118.41832042671740055084228515625">
        <ele>3283.39990234375</ele>
        <time>2021-06-25T20:22:38.000Z</time>
        <extensions>
          <ns3:TrackPointExtension>
            <ns3:atemp>28.0</ns3:atemp>
            <ns3:hr>116</ns3:hr>
          </ns3:TrackPointExtension>
        </extensions>
      </trkpt>
      <trkpt lat="36.77413794212043285369873046875" lon="-118.41833450831472873687744140625">
        <ele>3283.39990234375</ele>
        <time>2021-06-25T20:22:42.000Z</time>
        <extensions>
          <ns3:TrackPointExtension>
            <ns3:atemp>28.0</ns3:atemp>
            <ns3:hr>117</ns3:hr>
          </ns3:TrackPointExtension>
        </extensions>
      </trkpt>
      <trkpt lat="36.7741864733397960662841796875" lon="-118.41834926046431064605712890625">
        <ele>3283.39990234375</ele>
        <time>2021-06-25T20:22:46.000Z</time>
        <extensions>
          <ns3:TrackPointExtension>
            <ns3:atemp>28.0</ns3:atemp>
            <ns3:hr>117</ns3:hr>
          </ns3:TrackPointExtension>
        </extensions>
      </trkpt>
      <trkpt lat="36.774217151105403900146484375" lon="-118.4183573909103870391845703125">
        <ele>3283.60009765625</ele>
        <time>2021-06-25T20:22:49.000Z</time>
        <extensions>
          <ns3:TrackPointExtension>
            <ns3:atemp>28.0</ns3:atemp>
            <ns3:hr>117</ns3:hr>
          </ns3:TrackPointExtension>
        </extensions>
      </trkpt>
      <trkpt lat="36.7742484994232654571533203125" lon="-118.4183604083955287933349609375">
        <ele>3284</ele>
        <time>2021-06-25T20:22:52.000Z</time>
        <extensions>
          <ns3:TrackPointExtension>
            <ns3:atemp>28.0</ns3:atemp>
            <ns3:hr>117</ns3:hr>
          </ns3:TrackPointExtension>
        </extensions>
      </trkpt>
      <trkpt lat="36.77431262098252773284912109375" lon="-118.41837532818317413330078125">
        <ele>3284.60009765625</ele>
        <time>2021-06-25T20:22:58.000Z</time>
        <extensions>
          <ns3:TrackPointExtension>
            <ns3:atemp>28.0</ns3:atemp>
            <ns3:hr>116</ns3:hr>
          </ns3:TrackPointExtension>
        </extensions>
      </trkpt>
      <trkpt lat="36.774335838854312896728515625" lon="-118.41838027350604534149169921875">
        <ele>3285.199951171875</ele>
        <time>2021-06-25T20:23:01.000Z</time>
        <extensions>
          <ns3:TrackPointExtension>
            <ns3:atemp>28.0</ns3:atemp>
            <ns3:hr>117</ns3:hr>
          </ns3:TrackPointExtension>
        </extensions>
      </trkpt>
      <trkpt lat="36.7743628285825252532958984375" lon="-118.41841246001422405242919921875">
        <ele>3285.39990234375</ele>
        <time>2021-06-25T20:23:06.000Z</time>
        <extensions>
          <ns3:TrackPointExtension>
            <ns3:atemp>28.0</ns3:atemp>
            <ns3:hr>116</ns3:hr>
          </ns3:TrackPointExtension>
        </extensions>
      </trkpt>
      <trkpt lat="36.77440968342125415802001953125" lon="-118.41850684024393558502197265625">
        <ele>3285.39990234375</ele>
        <time>2021-06-25T20:23:15.000Z</time>
        <extensions>
          <ns3:TrackPointExtension>
            <ns3:atemp>28.0</ns3:atemp>
            <ns3:hr>119</ns3:hr>
          </ns3:TrackPointExtension>
        </extensions>
      </trkpt>
      <trkpt lat="36.77441722713410854339599609375" lon="-118.4185132943093776702880859375">
        <ele>3285.199951171875</ele>
        <time>2021-06-25T20:23:16.000Z</time>
        <extensions>
          <ns3:TrackPointExtension>
            <ns3:atemp>28.0</ns3:atemp>
            <ns3:hr>119</ns3:hr>
          </ns3:TrackPointExtension>
        </extensions>
      </trkpt>
      <trkpt lat="36.77447388879954814910888671875" lon="-118.41858780942857265472412109375">
        <ele>3285</ele>
        <time>2021-06-25T20:23:24.000Z</time>
        <extensions>
          <ns3:TrackPointExtension>
            <ns3:atemp>28.0</ns3:atemp>
            <ns3:hr>118</ns3:hr>
          </ns3:TrackPointExtension>
        </extensions>
      </trkpt>
      <trkpt lat="36.77448160015046596527099609375" lon="-118.41859401203691959381103515625">
        <ele>3285.199951171875</ele>
        <time>2021-06-25T20:23:25.000Z</time>
        <extensions>
          <ns3:TrackPointExtension>
            <ns3:atemp>28.0</ns3:atemp>
            <ns3:hr>117</ns3:hr>
          </ns3:TrackPointExtension>
        </extensions>
      </trkpt>
      <trkpt lat="36.774518229067325592041015625" lon="-118.4186219237744808197021484375">
        <ele>3285.199951171875</ele>
        <time>2021-06-25T20:23:30.000Z</time>
        <extensions>
          <ns3:TrackPointExtension>
            <ns3:atemp>28.0</ns3:atemp>
            <ns3:hr>115</ns3:hr>
          </ns3:TrackPointExtension>
        </extensions>
      </trkpt>
      <trkpt lat="36.77452619187533855438232421875" lon="-118.4186477400362491607666015625">
        <ele>3285.199951171875</ele>
        <time>2021-06-25T20:23:32.000Z</time>
        <extensions>
          <ns3:TrackPointExtension>
            <ns3:atemp>28.0</ns3:atemp>
            <ns3:hr>114</ns3:hr>
          </ns3:TrackPointExtension>
        </extensions>
      </trkpt>
      <trkpt lat="36.77455754019320011138916015625" lon="-118.41868403367698192596435546875">
        <ele>3284.800048828125</ele>
        <time>2021-06-25T20:23:36.000Z</time>
        <extensions>
          <ns3:TrackPointExtension>
            <ns3:atemp>28.0</ns3:atemp>
            <ns3:hr>117</ns3:hr>
          </ns3:TrackPointExtension>
        </extensions>
      </trkpt>
      <trkpt lat="36.7745871283113956451416015625" lon="-118.41870096512138843536376953125">
        <ele>3285</ele>
        <time>2021-06-25T20:23:39.000Z</time>
        <extensions>
          <ns3:TrackPointExtension>
            <ns3:atemp>28.0</ns3:atemp>
            <ns3:hr>116</ns3:hr>
          </ns3:TrackPointExtension>
        </extensions>
      </trkpt>
      <trkpt lat="36.77460213191807270050048828125" lon="-118.41871186159551143646240234375">
        <ele>3285.39990234375</ele>
        <time>2021-06-25T20:23:41.000Z</time>
        <extensions>
          <ns3:TrackPointExtension>
            <ns3:atemp>28.0</ns3:atemp>
            <ns3:hr>113</ns3:hr>
          </ns3:TrackPointExtension>
        </extensions>
      </trkpt>
      <trkpt lat="36.77461788989603519439697265625" lon="-118.41872728429734706878662109375">
        <ele>3285.199951171875</ele>
        <time>2021-06-25T20:23:43.000Z</time>
        <extensions>
          <ns3:TrackPointExtension>
            <ns3:atemp>28.0</ns3:atemp>
            <ns3:hr>110</ns3:hr>
          </ns3:TrackPointExtension>
        </extensions>
      </trkpt>
      <trkpt lat="36.77466667257249355316162109375" lon="-118.41876600868999958038330078125">
        <ele>3285</ele>
        <time>2021-06-25T20:23:48.000Z</time>
        <extensions>
          <ns3:TrackPointExtension>
            <ns3:atemp>28.0</ns3:atemp>
            <ns3:hr>113</ns3:hr>
          </ns3:TrackPointExtension>
        </extensions>
      </trkpt>
      <trkpt lat="36.77467639558017253875732421875" lon="-118.4187707863748073577880859375">
        <ele>3285</ele>
        <time>2021-06-25T20:23:49.000Z</time>
        <extensions>
          <ns3:TrackPointExtension>
            <ns3:atemp>28.0</ns3:atemp>
            <ns3:hr>113</ns3:hr>
          </ns3:TrackPointExtension>
        </extensions>
      </trkpt>
      <trkpt lat="36.77472065202891826629638671875" lon="-118.41877807863056659698486328125">
        <ele>3285.39990234375</ele>
        <time>2021-06-25T20:23:54.000Z</time>
        <extensions>
          <ns3:TrackPointExtension>
            <ns3:atemp>28.0</ns3:atemp>
            <ns3:hr>110</ns3:hr>
          </ns3:TrackPointExtension>
        </extensions>
      </trkpt>
      <trkpt lat="36.77474713884294033050537109375" lon="-118.41878076083958148956298828125">
        <ele>3285.60009765625</ele>
        <time>2021-06-25T20:23:57.000Z</time>
        <extensions>
          <ns3:TrackPointExtension>
            <ns3:atemp>28.0</ns3:atemp>
            <ns3:hr>107</ns3:hr>
          </ns3:TrackPointExtension>
        </extensions>
      </trkpt>
      <trkpt lat="36.77475635893642902374267578125" lon="-118.41878143139183521270751953125">
        <ele>3285.800048828125</ele>
        <time>2021-06-25T20:23:58.000Z</time>
        <extensions>
          <ns3:TrackPointExtension>
            <ns3:atemp>28.0</ns3:atemp>
            <ns3:hr>107</ns3:hr>
          </ns3:TrackPointExtension>
        </extensions>
      </trkpt>
      <trkpt lat="36.7747916467487812042236328125" lon="-118.4187882207334041595458984375">
        <ele>3286.39990234375</ele>
        <time>2021-06-25T20:24:02.000Z</time>
        <extensions>
          <ns3:TrackPointExtension>
            <ns3:atemp>28.0</ns3:atemp>
            <ns3:hr>107</ns3:hr>
          </ns3:TrackPointExtension>
        </extensions>
      </trkpt>
      <trkpt lat="36.77482190541923046112060546875" lon="-118.418798781931400299072265625">
        <ele>3286.39990234375</ele>
        <time>2021-06-25T20:24:05.000Z</time>
        <extensions>
          <ns3:TrackPointExtension>
            <ns3:atemp>28.0</ns3:atemp>
            <ns3:hr>107</ns3:hr>
          </ns3:TrackPointExtension>
        </extensions>
      </trkpt>
      <trkpt lat="36.77489616908133029937744140625" lon="-118.41883474029600620269775390625">
        <ele>3287</ele>
        <time>2021-06-25T20:24:13.000Z</time>
        <extensions>
          <ns3:TrackPointExtension>
            <ns3:atemp>28.0</ns3:atemp>
            <ns3:hr>110</ns3:hr>
          </ns3:TrackPointExtension>
        </extensions>
      </trkpt>
      <trkpt lat="36.77492760121822357177734375" lon="-118.41882862150669097900390625">
        <ele>3287.60009765625</ele>
        <time>2021-06-25T20:24:17.000Z</time>
        <extensions>
          <ns3:TrackPointExtension>
            <ns3:atemp>28.0</ns3:atemp>
            <ns3:hr>113</ns3:hr>
          </ns3:TrackPointExtension>
        </extensions>
      </trkpt>
      <trkpt lat="36.77494159899652004241943359375" lon="-118.41883272863924503326416015625">
        <ele>3287.60009765625</ele>
        <time>2021-06-25T20:24:19.000Z</time>
        <extensions>
          <ns3:TrackPointExtension>
            <ns3:atemp>28.0</ns3:atemp>
            <ns3:hr>114</ns3:hr>
          </ns3:TrackPointExtension>
        </extensions>
      </trkpt>
      <trkpt lat="36.77495568059384822845458984375" lon="-118.41884245164692401885986328125">
        <ele>3288</ele>
        <time>2021-06-25T20:24:21.000Z</time>
        <extensions>
          <ns3:TrackPointExtension>
            <ns3:atemp>28.0</ns3:atemp>
            <ns3:hr>116</ns3:hr>
          </ns3:TrackPointExtension>
        </extensions>
      </trkpt>
      <trkpt lat="36.7749713547527790069580078125" lon="-118.418857119977474212646484375">
        <ele>3288.199951171875</ele>
        <time>2021-06-25T20:24:26.000Z</time>
        <extensions>
          <ns3:TrackPointExtension>
            <ns3:atemp>28.0</ns3:atemp>
            <ns3:hr>117</ns3:hr>
          </ns3:TrackPointExtension>
        </extensions>
      </trkpt>
      <trkpt lat="36.774969510734081268310546875" lon="-118.4188614785671234130859375">
        <ele>3288</ele>
        <time>2021-06-25T20:24:28.000Z</time>
        <extensions>
          <ns3:TrackPointExtension>
            <ns3:atemp>28.0</ns3:atemp>
            <ns3:hr>117</ns3:hr>
          </ns3:TrackPointExtension>
        </extensions>
      </trkpt>
      <trkpt lat="36.77500463090837001800537109375" lon="-118.41890833340585231781005859375">
        <ele>3287.800048828125</ele>
        <time>2021-06-25T20:24:34.000Z</time>
        <extensions>
          <ns3:TrackPointExtension>
            <ns3:atemp>28.0</ns3:atemp>
            <ns3:hr>116</ns3:hr>
          </ns3:TrackPointExtension>
        </extensions>
      </trkpt>
      <trkpt lat="36.77500949241220951080322265625" lon="-118.41890908777713775634765625">
        <ele>3288</ele>
        <time>2021-06-25T20:24:39.000Z</time>
        <extensions>
          <ns3:TrackPointExtension>
            <ns3:atemp>28.0</ns3:atemp>
            <ns3:hr>114</ns3:hr>
          </ns3:TrackPointExtension>
        </extensions>
      </trkpt>
      <trkpt lat="36.77500865422189235687255859375" lon="-118.4189159609377384185791015625">
        <ele>3287.800048828125</ele>
        <time>2021-06-25T20:24:47.000Z</time>
        <extensions>
          <ns3:TrackPointExtension>
            <ns3:atemp>28.0</ns3:atemp>
            <ns3:hr>111</ns3:hr>
          </ns3:TrackPointExtension>
        </extensions>
      </trkpt>
      <trkpt lat="36.77500865422189235687255859375" lon="-118.4189159609377384185791015625">
        <ele>3287.800048828125</ele>
        <time>2021-06-25T20:24:48.000Z</time>
        <extensions>
          <ns3:TrackPointExtension>
            <ns3:atemp>28.0</ns3:atemp>
            <ns3:hr>110</ns3:hr>
          </ns3:TrackPointExtension>
        </extensions>
      </trkpt>
      <trkpt lat="36.77500865422189235687255859375" lon="-118.4189159609377384185791015625">
        <ele>3288</ele>
        <time>2021-06-25T20:24:52.000Z</time>
        <extensions>
          <ns3:TrackPointExtension>
            <ns3:atemp>28.0</ns3:atemp>
            <ns3:hr>107</ns3:hr>
          </ns3:TrackPointExtension>
        </extensions>
      </trkpt>
      <trkpt lat="36.77500865422189235687255859375" lon="-118.4189159609377384185791015625">
        <ele>3288.199951171875</ele>
        <time>2021-06-25T20:24:56.000Z</time>
        <extensions>
          <ns3:TrackPointExtension>
            <ns3:atemp>28.0</ns3:atemp>
            <ns3:hr>110</ns3:hr>
          </ns3:TrackPointExtension>
        </extensions>
      </trkpt>
      <trkpt lat="36.77500940859317779541015625" lon="-118.41891386546194553375244140625">
        <ele>3287.800048828125</ele>
        <time>2021-06-25T20:25:00.000Z</time>
        <extensions>
          <ns3:TrackPointExtension>
            <ns3:atemp>29.0</ns3:atemp>
            <ns3:hr>113</ns3:hr>
          </ns3:TrackPointExtension>
        </extensions>
      </trkpt>
      <trkpt lat="36.77506866864860057830810546875" lon="-118.41894420795142650604248046875">
        <ele>3287.60009765625</ele>
        <time>2021-06-25T20:25:13.000Z</time>
        <extensions>
          <ns3:TrackPointExtension>
            <ns3:atemp>29.0</ns3:atemp>
            <ns3:hr>113</ns3:hr>
          </ns3:TrackPointExtension>
        </extensions>
      </trkpt>
      <trkpt lat="36.77513974718749523162841796875" lon="-118.41899969615042209625244140625">
        <ele>3287.199951171875</ele>
        <time>2021-06-25T20:25:19.000Z</time>
        <extensions>
          <ns3:TrackPointExtension>
            <ns3:atemp>29.0</ns3:atemp>
            <ns3:hr>110</ns3:hr>
          </ns3:TrackPointExtension>
        </extensions>
      </trkpt>
      <trkpt lat="36.77517277188599109649658203125" lon="-118.4190272726118564605712890625">
        <ele>3287.60009765625</ele>
        <time>2021-06-25T20:25:23.000Z</time>
        <extensions>
          <ns3:TrackPointExtension>
            <ns3:atemp>29.0</ns3:atemp>
            <ns3:hr>109</ns3:hr>
          </ns3:TrackPointExtension>
        </extensions>
      </trkpt>
      <trkpt lat="36.775203533470630645751953125" lon="-118.41906071640551090240478515625">
        <ele>3287.60009765625</ele>
        <time>2021-06-25T20:25:27.000Z</time>
        <extensions>
          <ns3:TrackPointExtension>
            <ns3:atemp>29.0</ns3:atemp>
            <ns3:hr>109</ns3:hr>
          </ns3:TrackPointExtension>
        </extensions>
      </trkpt>
      <trkpt lat="36.77522138692438602447509765625" lon="-118.4190916456282138824462890625">
        <ele>3287.60009765625</ele>
        <time>2021-06-25T20:25:30.000Z</time>
        <extensions>
          <ns3:TrackPointExtension>
            <ns3:atemp>29.0</ns3:atemp>
            <ns3:hr>108</ns3:hr>
          </ns3:TrackPointExtension>
        </extensions>
      </trkpt>
      <trkpt lat="36.7752325348556041717529296875" lon="-118.41909675858914852142333984375">
        <ele>3287.60009765625</ele>
        <time>2021-06-25T20:25:31.000Z</time>
        <extensions>
          <ns3:TrackPointExtension>
            <ns3:atemp>29.0</ns3:atemp>
            <ns3:hr>107</ns3:hr>
          </ns3:TrackPointExtension>
        </extensions>
      </trkpt>
      <trkpt lat="36.775296069681644439697265625" lon="-118.4191483072936534881591796875">
        <ele>3287.199951171875</ele>
        <time>2021-06-25T20:25:40.000Z</time>
        <extensions>
          <ns3:TrackPointExtension>
            <ns3:atemp>29.0</ns3:atemp>
            <ns3:hr>104</ns3:hr>
          </ns3:TrackPointExtension>
        </extensions>
      </trkpt>
      <trkpt lat="36.77531057037413120269775390625" lon="-118.4191667474806308746337890625">
        <ele>3286.39990234375</ele>
        <time>2021-06-25T20:25:42.000Z</time>
        <extensions>
          <ns3:TrackPointExtension>
            <ns3:atemp>29.0</ns3:atemp>
            <ns3:hr>104</ns3:hr>
          </ns3:TrackPointExtension>
        </extensions>
      </trkpt>
      <trkpt lat="36.7753176949918270111083984375" lon="-118.419189043343067169189453125">
        <ele>3285.800048828125</ele>
        <time>2021-06-25T20:25:47.000Z</time>
        <extensions>
          <ns3:TrackPointExtension>
            <ns3:atemp>29.0</ns3:atemp>
            <ns3:hr>104</ns3:hr>
          </ns3:TrackPointExtension>
        </extensions>
      </trkpt>
      <trkpt lat="36.775318868458271026611328125" lon="-118.41919650323688983917236328125">
        <ele>3285.800048828125</ele>
        <time>2021-06-25T20:25:49.000Z</time>
        <extensions>
          <ns3:TrackPointExtension>
            <ns3:atemp>29.0</ns3:atemp>
            <ns3:hr>103</ns3:hr>
          </ns3:TrackPointExtension>
        </extensions>
      </trkpt>
      <trkpt lat="36.7753190360963344573974609375" lon="-118.419198095798492431640625">
        <ele>3285.800048828125</ele>
        <time>2021-06-25T20:25:50.000Z</time>
        <extensions>
          <ns3:TrackPointExtension>
            <ns3:atemp>29.0</ns3:atemp>
            <ns3:hr>106</ns3:hr>
          </ns3:TrackPointExtension>
        </extensions>
      </trkpt>
      <trkpt lat="36.775317527353763580322265625" lon="-118.4191972576081752777099609375">
        <ele>3285.800048828125</ele>
        <time>2021-06-25T20:25:51.000Z</time>
        <extensions>
          <ns3:TrackPointExtension>
            <ns3:atemp>29.0</ns3:atemp>
            <ns3:hr>103</ns3:hr>
          </ns3:TrackPointExtension>
        </extensions>
      </trkpt>
      <trkpt lat="36.7753203772008419036865234375" lon="-118.41918845660984516143798828125">
        <ele>3285.800048828125</ele>
        <time>2021-06-25T20:25:55.000Z</time>
        <extensions>
          <ns3:TrackPointExtension>
            <ns3:atemp>29.0</ns3:atemp>
            <ns3:hr>102</ns3:hr>
          </ns3:TrackPointExtension>
        </extensions>
      </trkpt>
      <trkpt lat="36.7753203772008419036865234375" lon="-118.41918845660984516143798828125">
        <ele>3285.800048828125</ele>
        <time>2021-06-25T20:25:57.000Z</time>
        <extensions>
          <ns3:TrackPointExtension>
            <ns3:atemp>29.0</ns3:atemp>
            <ns3:hr>105</ns3:hr>
          </ns3:TrackPointExtension>
        </extensions>
      </trkpt>
      <trkpt lat="36.7753203772008419036865234375" lon="-118.41918845660984516143798828125">
        <ele>3285.800048828125</ele>
        <time>2021-06-25T20:25:58.000Z</time>
        <extensions>
          <ns3:TrackPointExtension>
            <ns3:atemp>29.0</ns3:atemp>
            <ns3:hr>108</ns3:hr>
          </ns3:TrackPointExtension>
        </extensions>
      </trkpt>
      <trkpt lat="36.7753203772008419036865234375" lon="-118.41918845660984516143798828125">
        <ele>3285.800048828125</ele>
        <time>2021-06-25T20:26:01.000Z</time>
        <extensions>
          <ns3:TrackPointExtension>
            <ns3:atemp>29.0</ns3:atemp>
            <ns3:hr>105</ns3:hr>
          </ns3:TrackPointExtension>
        </extensions>
      </trkpt>
      <trkpt lat="36.7753203772008419036865234375" lon="-118.41918845660984516143798828125">
        <ele>3285.39990234375</ele>
        <time>2021-06-25T20:26:06.000Z</time>
        <extensions>
          <ns3:TrackPointExtension>
            <ns3:atemp>29.0</ns3:atemp>
            <ns3:hr>105</ns3:hr>
          </ns3:TrackPointExtension>
        </extensions>
      </trkpt>
      <trkpt lat="36.7753689922392368316650390625" lon="-118.4192244149744510650634765625">
        <ele>3284.39990234375</ele>
        <time>2021-06-25T20:26:14.000Z</time>
        <extensions>
          <ns3:TrackPointExtension>
            <ns3:atemp>29.0</ns3:atemp>
            <ns3:hr>106</ns3:hr>
          </ns3:TrackPointExtension>
        </extensions>
      </trkpt>
      <trkpt lat="36.77542624063789844512939453125" lon="-118.41927311383187770843505859375">
        <ele>3284</ele>
        <time>2021-06-25T20:26:19.000Z</time>
        <extensions>
          <ns3:TrackPointExtension>
            <ns3:atemp>29.0</ns3:atemp>
            <ns3:hr>108</ns3:hr>
          </ns3:TrackPointExtension>
        </extensions>
      </trkpt>
      <trkpt lat="36.7754353769123554229736328125" lon="-118.419317789375782012939453125">
        <ele>3283.800048828125</ele>
        <time>2021-06-25T20:26:23.000Z</time>
        <extensions>
          <ns3:TrackPointExtension>
            <ns3:atemp>29.0</ns3:atemp>
            <ns3:hr>108</ns3:hr>
          </ns3:TrackPointExtension>
        </extensions>
      </trkpt>
      <trkpt lat="36.7754377238452434539794921875" lon="-118.4193427674472332000732421875">
        <ele>3283.199951171875</ele>
        <time>2021-06-25T20:26:25.000Z</time>
        <extensions>
          <ns3:TrackPointExtension>
            <ns3:atemp>29.0</ns3:atemp>
            <ns3:hr>107</ns3:hr>
          </ns3:TrackPointExtension>
        </extensions>
      </trkpt>
      <trkpt lat="36.77545758895576000213623046875" lon="-118.419422395527362823486328125">
        <ele>3283.199951171875</ele>
        <time>2021-06-25T20:26:32.000Z</time>
        <extensions>
          <ns3:TrackPointExtension>
            <ns3:atemp>29.0</ns3:atemp>
            <ns3:hr>109</ns3:hr>
          </ns3:TrackPointExtension>
        </extensions>
      </trkpt>
      <trkpt lat="36.77547368220984935760498046875" lon="-118.41946103610098361968994140625">
        <ele>3283.199951171875</ele>
        <time>2021-06-25T20:26:36.000Z</time>
        <extensions>
          <ns3:TrackPointExtension>
            <ns3:atemp>29.0</ns3:atemp>
            <ns3:hr>106</ns3:hr>
          </ns3:TrackPointExtension>
        </extensions>
      </trkpt>
      <trkpt lat="36.77550218068063259124755859375" lon="-118.41949070803821086883544921875">
        <ele>3283.60009765625</ele>
        <time>2021-06-25T20:26:41.000Z</time>
        <extensions>
          <ns3:TrackPointExtension>
            <ns3:atemp>29.0</ns3:atemp>
            <ns3:hr>105</ns3:hr>
          </ns3:TrackPointExtension>
        </extensions>
      </trkpt>
      <trkpt lat="36.7755081318318843841552734375" lon="-118.41949783265590667724609375">
        <ele>3283.800048828125</ele>
        <time>2021-06-25T20:26:42.000Z</time>
        <extensions>
          <ns3:TrackPointExtension>
            <ns3:atemp>29.0</ns3:atemp>
            <ns3:hr>105</ns3:hr>
          </ns3:TrackPointExtension>
        </extensions>
      </trkpt>
      <trkpt lat="36.775526739656925201416015625" lon="-118.4195172786712646484375">
        <ele>3284</ele>
        <time>2021-06-25T20:26:45.000Z</time>
        <extensions>
          <ns3:TrackPointExtension>
            <ns3:atemp>29.0</ns3:atemp>
            <ns3:hr>102</ns3:hr>
          </ns3:TrackPointExtension>
        </extensions>
      </trkpt>
      <trkpt lat="36.7755436711013317108154296875" lon="-118.41953244991600513458251953125">
        <ele>3284.199951171875</ele>
        <time>2021-06-25T20:26:47.000Z</time>
        <extensions>
          <ns3:TrackPointExtension>
            <ns3:atemp>29.0</ns3:atemp>
            <ns3:hr>105</ns3:hr>
          </ns3:TrackPointExtension>
        </extensions>
      </trkpt>
      <trkpt lat="36.77555523812770843505859375" lon="-118.41954619623720645904541015625">
        <ele>3284</ele>
        <time>2021-06-25T20:26:49.000Z</time>
        <extensions>
          <ns3:TrackPointExtension>
            <ns3:atemp>29.0</ns3:atemp>
            <ns3:hr>103</ns3:hr>
          </ns3:TrackPointExtension>
        </extensions>
      </trkpt>
      <trkpt lat="36.775561273097991943359375" lon="-118.41955147683620452880859375">
        <ele>3283.39990234375</ele>
        <time>2021-06-25T20:26:53.000Z</time>
        <extensions>
          <ns3:TrackPointExtension>
            <ns3:atemp>29.0</ns3:atemp>
            <ns3:hr>100</ns3:hr>
          </ns3:TrackPointExtension>
        </extensions>
      </trkpt>
      <trkpt lat="36.77555817179381847381591796875" lon="-118.41955340467393398284912109375">
        <ele>3283.39990234375</ele>
        <time>2021-06-25T20:26:54.000Z</time>
        <extensions>
          <ns3:TrackPointExtension>
            <ns3:atemp>29.0</ns3:atemp>
            <ns3:hr>103</ns3:hr>
          </ns3:TrackPointExtension>
        </extensions>
      </trkpt>
      <trkpt lat="36.77555632777512073516845703125" lon="-118.41955508105456829071044921875">
        <ele>3283.39990234375</ele>
        <time>2021-06-25T20:26:55.000Z</time>
        <extensions>
          <ns3:TrackPointExtension>
            <ns3:atemp>29.0</ns3:atemp>
            <ns3:hr>102</ns3:hr>
          </ns3:TrackPointExtension>
        </extensions>
      </trkpt>
      <trkpt lat="36.775556243956089019775390625" lon="-118.41955323703587055206298828125">
        <ele>3283.800048828125</ele>
        <time>2021-06-25T20:26:59.000Z</time>
        <extensions>
          <ns3:TrackPointExtension>
            <ns3:atemp>29.0</ns3:atemp>
            <ns3:hr>105</ns3:hr>
          </ns3:TrackPointExtension>
        </extensions>
      </trkpt>
      <trkpt lat="36.7755560763180255889892578125" lon="-118.41955281794071197509765625">
        <ele>3283.800048828125</ele>
        <time>2021-06-25T20:27:04.000Z</time>
        <extensions>
          <ns3:TrackPointExtension>
            <ns3:atemp>29.0</ns3:atemp>
            <ns3:hr>105</ns3:hr>
          </ns3:TrackPointExtension>
        </extensions>
      </trkpt>
      <trkpt lat="36.7755560763180255889892578125" lon="-118.41955323703587055206298828125">
        <ele>3283.800048828125</ele>
        <time>2021-06-25T20:27:11.000Z</time>
        <extensions>
          <ns3:TrackPointExtension>
            <ns3:atemp>29.0</ns3:atemp>
            <ns3:hr>102</ns3:hr>
          </ns3:TrackPointExtension>
        </extensions>
      </trkpt>
      <trkpt lat="36.775598824024200439453125" lon="-118.4195942245423793792724609375">
        <ele>3284.199951171875</ele>
        <time>2021-06-25T20:27:24.000Z</time>
        <extensions>
          <ns3:TrackPointExtension>
            <ns3:atemp>29.0</ns3:atemp>
            <ns3:hr>105</ns3:hr>
          </ns3:TrackPointExtension>
        </extensions>
      </trkpt>
      <trkpt lat="36.77565582096576690673828125" lon="-118.4196505509316921234130859375">
        <ele>3283.800048828125</ele>
        <time>2021-06-25T20:27:30.000Z</time>
        <extensions>
          <ns3:TrackPointExtension>
            <ns3:atemp>29.0</ns3:atemp>
            <ns3:hr>106</ns3:hr>
          </ns3:TrackPointExtension>
        </extensions>
      </trkpt>
      <trkpt lat="36.77566126920282840728759765625" lon="-118.41966002248227596282958984375">
        <ele>3283.800048828125</ele>
        <time>2021-06-25T20:27:31.000Z</time>
        <extensions>
          <ns3:TrackPointExtension>
            <ns3:atemp>29.0</ns3:atemp>
            <ns3:hr>106</ns3:hr>
          </ns3:TrackPointExtension>
        </extensions>
      </trkpt>
      <trkpt lat="36.7757522128522396087646484375" lon="-118.4197809733450412750244140625">
        <ele>3282.800048828125</ele>
        <time>2021-06-25T20:27:43.000Z</time>
        <extensions>
          <ns3:TrackPointExtension>
            <ns3:atemp>29.0</ns3:atemp>
            <ns3:hr>104</ns3:hr>
          </ns3:TrackPointExtension>
        </extensions>
      </trkpt>
      <trkpt lat="36.77580091170966625213623046875" lon="-118.41987610794603824615478515625">
        <ele>3282.800048828125</ele>
        <time>2021-06-25T20:27:51.000Z</time>
        <extensions>
          <ns3:TrackPointExtension>
            <ns3:atemp>29.0</ns3:atemp>
            <ns3:hr>101</ns3:hr>
          </ns3:TrackPointExtension>
        </extensions>
      </trkpt>
      <trkpt lat="36.77581096999347209930419921875" lon="-118.41988834552466869354248046875">
        <ele>3282.800048828125</ele>
        <time>2021-06-25T20:27:52.000Z</time>
        <extensions>
          <ns3:TrackPointExtension>
            <ns3:atemp>29.0</ns3:atemp>
            <ns3:hr>100</ns3:hr>
          </ns3:TrackPointExtension>
        </extensions>
      </trkpt>
      <trkpt lat="36.7758668772876262664794921875" lon="-118.4199799597263336181640625">
        <ele>3282.60009765625</ele>
        <time>2021-06-25T20:28:01.000Z</time>
        <extensions>
          <ns3:TrackPointExtension>
            <ns3:atemp>29.0</ns3:atemp>
            <ns3:hr>101</ns3:hr>
          </ns3:TrackPointExtension>
        </extensions>
      </trkpt>
      <trkpt lat="36.77590451203286647796630859375" lon="-118.42001591809093952178955078125">
        <ele>3283</ele>
        <time>2021-06-25T20:28:06.000Z</time>
        <extensions>
          <ns3:TrackPointExtension>
            <ns3:atemp>29.0</ns3:atemp>
            <ns3:hr>99</ns3:hr>
          </ns3:TrackPointExtension>
        </extensions>
      </trkpt>
      <trkpt lat="36.7759144864976406097412109375" lon="-118.42002178542315959930419921875">
        <ele>3283.199951171875</ele>
        <time>2021-06-25T20:28:08.000Z</time>
        <extensions>
          <ns3:TrackPointExtension>
            <ns3:atemp>29.0</ns3:atemp>
            <ns3:hr>98</ns3:hr>
          </ns3:TrackPointExtension>
        </extensions>
      </trkpt>
      <trkpt lat="36.7759718187153339385986328125" lon="-118.42003687284886837005615234375">
        <ele>3284</ele>
        <time>2021-06-25T20:28:15.000Z</time>
        <extensions>
          <ns3:TrackPointExtension>
            <ns3:atemp>29.0</ns3:atemp>
            <ns3:hr>100</ns3:hr>
          </ns3:TrackPointExtension>
        </extensions>
      </trkpt>
      <trkpt lat="36.77598263137042522430419921875" lon="-118.42003687284886837005615234375">
        <ele>3285</ele>
        <time>2021-06-25T20:28:16.000Z</time>
        <extensions>
          <ns3:TrackPointExtension>
            <ns3:atemp>29.0</ns3:atemp>
            <ns3:hr>101</ns3:hr>
          </ns3:TrackPointExtension>
        </extensions>
      </trkpt>
      <trkpt lat="36.7760150693356990814208984375" lon="-118.42003553174436092376708984375">
        <ele>3286</ele>
        <time>2021-06-25T20:28:20.000Z</time>
        <extensions>
          <ns3:TrackPointExtension>
            <ns3:atemp>29.0</ns3:atemp>
            <ns3:hr>105</ns3:hr>
          </ns3:TrackPointExtension>
        </extensions>
      </trkpt>
      <trkpt lat="36.776043064892292022705078125" lon="-118.4200481884181499481201171875">
        <ele>3286</ele>
        <time>2021-06-25T20:28:22.000Z</time>
        <extensions>
          <ns3:TrackPointExtension>
            <ns3:atemp>29.0</ns3:atemp>
            <ns3:hr>108</ns3:hr>
          </ns3:TrackPointExtension>
        </extensions>
      </trkpt>
      <trkpt lat="36.7760656960308551788330078125" lon="-118.4200471825897693634033203125">
        <ele>3286.199951171875</ele>
        <time>2021-06-25T20:28:24.000Z</time>
        <extensions>
          <ns3:TrackPointExtension>
            <ns3:atemp>29.0</ns3:atemp>
            <ns3:hr>112</ns3:hr>
          </ns3:TrackPointExtension>
        </extensions>
      </trkpt>
      <trkpt lat="36.776078604161739349365234375" lon="-118.4200485236942768096923828125">
        <ele>3286.199951171875</ele>
        <time>2021-06-25T20:28:25.000Z</time>
        <extensions>
          <ns3:TrackPointExtension>
            <ns3:atemp>29.0</ns3:atemp>
            <ns3:hr>113</ns3:hr>
          </ns3:TrackPointExtension>
        </extensions>
      </trkpt>
      <trkpt lat="36.77609578706324100494384765625" lon="-118.4200522117316722869873046875">
        <ele>3287</ele>
        <time>2021-06-25T20:28:28.000Z</time>
        <extensions>
          <ns3:TrackPointExtension>
            <ns3:atemp>29.0</ns3:atemp>
            <ns3:hr>116</ns3:hr>
          </ns3:TrackPointExtension>
        </extensions>
      </trkpt>
      <trkpt lat="36.7761062644422054290771484375" lon="-118.42006000690162181854248046875">
        <ele>3288</ele>
        <time>2021-06-25T20:28:30.000Z</time>
        <extensions>
          <ns3:TrackPointExtension>
            <ns3:atemp>29.0</ns3:atemp>
            <ns3:hr>119</ns3:hr>
          </ns3:TrackPointExtension>
        </extensions>
      </trkpt>
      <trkpt lat="36.776114143431186676025390625" lon="-118.42006654478609561920166015625">
        <ele>3288.199951171875</ele>
        <time>2021-06-25T20:28:31.000Z</time>
        <extensions>
          <ns3:TrackPointExtension>
            <ns3:atemp>29.0</ns3:atemp>
            <ns3:hr>119</ns3:hr>
          </ns3:TrackPointExtension>
        </extensions>
      </trkpt>
      <trkpt lat="36.776139624416828155517578125" lon="-118.420078195631504058837890625">
        <ele>3288.199951171875</ele>
        <time>2021-06-25T20:28:34.000Z</time>
        <extensions>
          <ns3:TrackPointExtension>
            <ns3:atemp>29.0</ns3:atemp>
            <ns3:hr>121</ns3:hr>
          </ns3:TrackPointExtension>
        </extensions>
      </trkpt>
      <trkpt lat="36.776162087917327880859375" lon="-118.4200899302959442138671875">
        <ele>3288.60009765625</ele>
        <time>2021-06-25T20:28:38.000Z</time>
        <extensions>
          <ns3:TrackPointExtension>
            <ns3:atemp>29.0</ns3:atemp>
            <ns3:hr>120</ns3:hr>
          </ns3:TrackPointExtension>
        </extensions>
      </trkpt>
      <trkpt lat="36.77617440931499004364013671875" lon="-118.42009655199944972991943359375">
        <ele>3288.60009765625</ele>
        <time>2021-06-25T20:28:40.000Z</time>
        <extensions>
          <ns3:TrackPointExtension>
            <ns3:atemp>29.0</ns3:atemp>
            <ns3:hr>120</ns3:hr>
          </ns3:TrackPointExtension>
        </extensions>
      </trkpt>
      <trkpt lat="36.776193268597126007080078125" lon="-118.420094959437847137451171875">
        <ele>3289.199951171875</ele>
        <time>2021-06-25T20:28:43.000Z</time>
        <extensions>
          <ns3:TrackPointExtension>
            <ns3:atemp>29.0</ns3:atemp>
            <ns3:hr>118</ns3:hr>
          </ns3:TrackPointExtension>
        </extensions>
      </trkpt>
      <trkpt lat="36.7761994712054729461669921875" lon="-118.42009537853300571441650390625">
        <ele>3289.60009765625</ele>
        <time>2021-06-25T20:28:44.000Z</time>
        <extensions>
          <ns3:TrackPointExtension>
            <ns3:atemp>29.0</ns3:atemp>
            <ns3:hr>121</ns3:hr>
          </ns3:TrackPointExtension>
        </extensions>
      </trkpt>
      <trkpt lat="36.7762226052582263946533203125" lon="-118.4201011620461940765380859375">
        <ele>3290</ele>
        <time>2021-06-25T20:28:47.000Z</time>
        <extensions>
          <ns3:TrackPointExtension>
            <ns3:atemp>29.0</ns3:atemp>
            <ns3:hr>122</ns3:hr>
          </ns3:TrackPointExtension>
        </extensions>
      </trkpt>
      <trkpt lat="36.77623744122684001922607421875" lon="-118.42011147178709506988525390625">
        <ele>3290</ele>
        <time>2021-06-25T20:28:49.000Z</time>
        <extensions>
          <ns3:TrackPointExtension>
            <ns3:atemp>29.0</ns3:atemp>
            <ns3:hr>122</ns3:hr>
          </ns3:TrackPointExtension>
        </extensions>
      </trkpt>
      <trkpt lat="36.776250936090946197509765625" lon="-118.4201330132782459259033203125">
        <ele>3289.800048828125</ele>
        <time>2021-06-25T20:28:52.000Z</time>
        <extensions>
          <ns3:TrackPointExtension>
            <ns3:atemp>29.0</ns3:atemp>
            <ns3:hr>120</ns3:hr>
          </ns3:TrackPointExtension>
        </extensions>
      </trkpt>
      <trkpt lat="36.77626225166022777557373046875" lon="-118.420150615274906158447265625">
        <ele>3289.800048828125</ele>
        <time>2021-06-25T20:28:54.000Z</time>
        <extensions>
          <ns3:TrackPointExtension>
            <ns3:atemp>29.0</ns3:atemp>
            <ns3:hr>122</ns3:hr>
          </ns3:TrackPointExtension>
        </extensions>
      </trkpt>
      <trkpt lat="36.77627113647758960723876953125" lon="-118.42017517425119876861572265625">
        <ele>3289.199951171875</ele>
        <time>2021-06-25T20:28:56.000Z</time>
        <extensions>
          <ns3:TrackPointExtension>
            <ns3:atemp>29.0</ns3:atemp>
            <ns3:hr>122</ns3:hr>
          </ns3:TrackPointExtension>
        </extensions>
      </trkpt>
      <trkpt lat="36.7763010598719120025634765625" lon="-118.42022764496505260467529296875">
        <ele>3288.199951171875</ele>
        <time>2021-06-25T20:29:01.000Z</time>
        <extensions>
          <ns3:TrackPointExtension>
            <ns3:atemp>29.0</ns3:atemp>
            <ns3:hr>119</ns3:hr>
          </ns3:TrackPointExtension>
        </extensions>
      </trkpt>
      <trkpt lat="36.77631966769695281982421875" lon="-118.420235775411128997802734375">
        <ele>3288.199951171875</ele>
        <time>2021-06-25T20:29:03.000Z</time>
        <extensions>
          <ns3:TrackPointExtension>
            <ns3:atemp>29.0</ns3:atemp>
            <ns3:hr>117</ns3:hr>
          </ns3:TrackPointExtension>
        </extensions>
      </trkpt>
      <trkpt lat="36.77636719308793544769287109375" lon="-118.4202694706618785858154296875">
        <ele>3289</ele>
        <time>2021-06-25T20:29:09.000Z</time>
        <extensions>
          <ns3:TrackPointExtension>
            <ns3:atemp>29.0</ns3:atemp>
            <ns3:hr>117</ns3:hr>
          </ns3:TrackPointExtension>
        </extensions>
      </trkpt>
      <trkpt lat="36.7763753235340118408203125" lon="-118.42029168270528316497802734375">
        <ele>3289.199951171875</ele>
        <time>2021-06-25T20:29:11.000Z</time>
        <extensions>
          <ns3:TrackPointExtension>
            <ns3:atemp>29.0</ns3:atemp>
            <ns3:hr>112</ns3:hr>
          </ns3:TrackPointExtension>
        </extensions>
      </trkpt>
      <trkpt lat="36.7763795144855976104736328125" lon="-118.4203046746551990509033203125">
        <ele>3289.199951171875</ele>
        <time>2021-06-25T20:29:12.000Z</time>
        <extensions>
          <ns3:TrackPointExtension>
            <ns3:atemp>29.0</ns3:atemp>
            <ns3:hr>112</ns3:hr>
          </ns3:TrackPointExtension>
        </extensions>
      </trkpt>
      <trkpt lat="36.776393763720989227294921875" lon="-118.420338369905948638916015625">
        <ele>3288.60009765625</ele>
        <time>2021-06-25T20:29:15.000Z</time>
        <extensions>
          <ns3:TrackPointExtension>
            <ns3:atemp>29.0</ns3:atemp>
            <ns3:hr>115</ns3:hr>
          </ns3:TrackPointExtension>
        </extensions>
      </trkpt>
      <trkpt lat="36.7764106951653957366943359375" lon="-118.42036913149058818817138671875">
        <ele>3288.60009765625</ele>
        <time>2021-06-25T20:29:18.000Z</time>
        <extensions>
          <ns3:TrackPointExtension>
            <ns3:atemp>29.0</ns3:atemp>
            <ns3:hr>115</ns3:hr>
          </ns3:TrackPointExtension>
        </extensions>
      </trkpt>
      <trkpt lat="36.77643223665654659271240234375" lon="-118.42037717811763286590576171875">
        <ele>3288.60009765625</ele>
        <time>2021-06-25T20:29:20.000Z</time>
        <extensions>
          <ns3:TrackPointExtension>
            <ns3:atemp>29.0</ns3:atemp>
            <ns3:hr>115</ns3:hr>
          </ns3:TrackPointExtension>
        </extensions>
      </trkpt>
      <trkpt lat="36.77654388360679149627685546875" lon="-118.420449011027812957763671875">
        <ele>3289</ele>
        <time>2021-06-25T20:29:33.000Z</time>
        <extensions>
          <ns3:TrackPointExtension>
            <ns3:atemp>29.0</ns3:atemp>
            <ns3:hr>115</ns3:hr>
          </ns3:TrackPointExtension>
        </extensions>
      </trkpt>
      <trkpt lat="36.77662275731563568115234375" lon="-118.4204880706965923309326171875">
        <ele>3288.39990234375</ele>
        <time>2021-06-25T20:29:41.000Z</time>
        <extensions>
          <ns3:TrackPointExtension>
            <ns3:atemp>29.0</ns3:atemp>
            <ns3:hr>114</ns3:hr>
          </ns3:TrackPointExtension>
        </extensions>
      </trkpt>
      <trkpt lat="36.77671101875603199005126953125" lon="-118.42051095329225063323974609375">
        <ele>3289.199951171875</ele>
        <time>2021-06-25T20:29:50.000Z</time>
        <extensions>
          <ns3:TrackPointExtension>
            <ns3:atemp>29.0</ns3:atemp>
            <ns3:hr>113</ns3:hr>
          </ns3:TrackPointExtension>
        </extensions>
      </trkpt>
      <trkpt lat="36.776718981564044952392578125" lon="-118.4205169044435024261474609375">
        <ele>3289.39990234375</ele>
        <time>2021-06-25T20:29:51.000Z</time>
        <extensions>
          <ns3:TrackPointExtension>
            <ns3:atemp>29.0</ns3:atemp>
            <ns3:hr>113</ns3:hr>
          </ns3:TrackPointExtension>
        </extensions>
      </trkpt>
      <trkpt lat="36.776787377893924713134765625" lon="-118.42054188251495361328125">
        <ele>3290</ele>
        <time>2021-06-25T20:29:59.000Z</time>
        <extensions>
          <ns3:TrackPointExtension>
            <ns3:atemp>29.0</ns3:atemp>
            <ns3:hr>110</ns3:hr>
          </ns3:TrackPointExtension>
        </extensions>
      </trkpt>
      <trkpt lat="36.77680891938507556915283203125" lon="-118.42055856250226497650146484375">
        <ele>3290.39990234375</ele>
        <time>2021-06-25T20:30:02.000Z</time>
        <extensions>
          <ns3:TrackPointExtension>
            <ns3:atemp>29.0</ns3:atemp>
            <ns3:hr>110</ns3:hr>
          </ns3:TrackPointExtension>
        </extensions>
      </trkpt>
      <trkpt lat="36.7768428660929203033447265625" lon="-118.4205849654972553253173828125">
        <ele>3291.800048828125</ele>
        <time>2021-06-25T20:30:08.000Z</time>
        <extensions>
          <ns3:TrackPointExtension>
            <ns3:atemp>29.0</ns3:atemp>
            <ns3:hr>112</ns3:hr>
          </ns3:TrackPointExtension>
        </extensions>
      </trkpt>
      <trkpt lat="36.7768864519894123077392578125" lon="-118.42060667462646961212158203125">
        <ele>3292.199951171875</ele>
        <time>2021-06-25T20:30:12.000Z</time>
        <extensions>
          <ns3:TrackPointExtension>
            <ns3:atemp>29.0</ns3:atemp>
            <ns3:hr>114</ns3:hr>
          </ns3:TrackPointExtension>
        </extensions>
      </trkpt>
      <trkpt lat="36.77693414501845836639404296875" lon="-118.420643471181392669677734375">
        <ele>3292.60009765625</ele>
        <time>2021-06-25T20:30:18.000Z</time>
        <extensions>
          <ns3:TrackPointExtension>
            <ns3:atemp>29.0</ns3:atemp>
            <ns3:hr>117</ns3:hr>
          </ns3:TrackPointExtension>
        </extensions>
      </trkpt>
      <trkpt lat="36.7769434489309787750244140625" lon="-118.42064741067588329315185546875">
        <ele>3292.800048828125</ele>
        <time>2021-06-25T20:30:19.000Z</time>
        <extensions>
          <ns3:TrackPointExtension>
            <ns3:atemp>29.0</ns3:atemp>
            <ns3:hr>116</ns3:hr>
          </ns3:TrackPointExtension>
        </extensions>
      </trkpt>
      <trkpt lat="36.77698812447488307952880859375" lon="-118.420667946338653564453125">
        <ele>3293.199951171875</ele>
        <time>2021-06-25T20:30:24.000Z</time>
        <extensions>
          <ns3:TrackPointExtension>
            <ns3:atemp>29.0</ns3:atemp>
            <ns3:hr>116</ns3:hr>
          </ns3:TrackPointExtension>
        </extensions>
      </trkpt>
      <trkpt lat="36.77700220607221126556396484375" lon="-118.420678339898586273193359375">
        <ele>3293.39990234375</ele>
        <time>2021-06-25T20:30:26.000Z</time>
        <extensions>
          <ns3:TrackPointExtension>
            <ns3:atemp>29.0</ns3:atemp>
            <ns3:hr>113</ns3:hr>
          </ns3:TrackPointExtension>
        </extensions>
      </trkpt>
      <trkpt lat="36.7770108394324779510498046875" lon="-118.420683033764362335205078125">
        <ele>3293.800048828125</ele>
        <time>2021-06-25T20:30:27.000Z</time>
        <extensions>
          <ns3:TrackPointExtension>
            <ns3:atemp>29.0</ns3:atemp>
            <ns3:hr>118</ns3:hr>
          </ns3:TrackPointExtension>
        </extensions>
      </trkpt>
      <trkpt lat="36.77705417387187480926513671875" lon="-118.42070407234132289886474609375">
        <ele>3294.199951171875</ele>
        <time>2021-06-25T20:30:32.000Z</time>
        <extensions>
          <ns3:TrackPointExtension>
            <ns3:atemp>29.0</ns3:atemp>
            <ns3:hr>121</ns3:hr>
          </ns3:TrackPointExtension>
        </extensions>
      </trkpt>
      <trkpt lat="36.7771107517182826995849609375" lon="-118.4207425452768802642822265625">
        <ele>3294.800048828125</ele>
        <time>2021-06-25T20:30:39.000Z</time>
        <extensions>
          <ns3:TrackPointExtension>
            <ns3:atemp>29.0</ns3:atemp>
            <ns3:hr>124</ns3:hr>
          </ns3:TrackPointExtension>
        </extensions>
      </trkpt>
      <trkpt lat="36.7771355621516704559326171875" lon="-118.42075637541711330413818359375">
        <ele>3295.199951171875</ele>
        <time>2021-06-25T20:30:42.000Z</time>
        <extensions>
          <ns3:TrackPointExtension>
            <ns3:atemp>29.0</ns3:atemp>
            <ns3:hr>124</ns3:hr>
          </ns3:TrackPointExtension>
        </extensions>
      </trkpt>
      <trkpt lat="36.777163557708263397216796875" lon="-118.42076542787253856658935546875">
        <ele>3296</ele>
        <time>2021-06-25T20:30:45.000Z</time>
        <extensions>
          <ns3:TrackPointExtension>
            <ns3:atemp>29.0</ns3:atemp>
            <ns3:hr>125</ns3:hr>
          </ns3:TrackPointExtension>
        </extensions>
      </trkpt>
      <trkpt lat="36.7771972529590129852294921875" lon="-118.42077883891761302947998046875">
        <ele>3296.39990234375</ele>
        <time>2021-06-25T20:30:50.000Z</time>
        <extensions>
          <ns3:TrackPointExtension>
            <ns3:atemp>29.0</ns3:atemp>
            <ns3:hr>127</ns3:hr>
          </ns3:TrackPointExtension>
        </extensions>
      </trkpt>
      <trkpt lat="36.77724494598805904388427734375" lon="-118.42080163769423961639404296875">
        <ele>3297.39990234375</ele>
        <time>2021-06-25T20:30:56.000Z</time>
        <extensions>
          <ns3:TrackPointExtension>
            <ns3:atemp>29.0</ns3:atemp>
            <ns3:hr>125</ns3:hr>
          </ns3:TrackPointExtension>
        </extensions>
      </trkpt>
      <trkpt lat="36.777260117232799530029296875" lon="-118.420803733170032501220703125">
        <ele>3297.60009765625</ele>
        <time>2021-06-25T20:30:58.000Z</time>
        <extensions>
          <ns3:TrackPointExtension>
            <ns3:atemp>29.0</ns3:atemp>
            <ns3:hr>124</ns3:hr>
          </ns3:TrackPointExtension>
        </extensions>
      </trkpt>
      <trkpt lat="36.777286268770694732666015625" lon="-118.42081588692963123321533203125">
        <ele>3298.39990234375</ele>
        <time>2021-06-25T20:31:01.000Z</time>
        <extensions>
          <ns3:TrackPointExtension>
            <ns3:atemp>29.0</ns3:atemp>
            <ns3:hr>122</ns3:hr>
          </ns3:TrackPointExtension>
        </extensions>
      </trkpt>
      <trkpt lat="36.77732222713530063629150390625" lon="-118.42083759605884552001953125">
        <ele>3298.60009765625</ele>
        <time>2021-06-25T20:31:05.000Z</time>
        <extensions>
          <ns3:TrackPointExtension>
            <ns3:atemp>29.0</ns3:atemp>
            <ns3:hr>121</ns3:hr>
          </ns3:TrackPointExtension>
        </extensions>
      </trkpt>
      <trkpt lat="36.7773853428661823272705078125" lon="-118.4208793379366397857666015625">
        <ele>3299.60009765625</ele>
        <time>2021-06-25T20:31:13.000Z</time>
        <extensions>
          <ns3:TrackPointExtension>
            <ns3:atemp>29.0</ns3:atemp>
            <ns3:hr>123</ns3:hr>
          </ns3:TrackPointExtension>
        </extensions>
      </trkpt>
      <trkpt lat="36.77740369923412799835205078125" lon="-118.42088260687887668609619140625">
        <ele>3299.60009765625</ele>
        <time>2021-06-25T20:31:15.000Z</time>
        <extensions>
          <ns3:TrackPointExtension>
            <ns3:atemp>29.0</ns3:atemp>
            <ns3:hr>125</ns3:hr>
          </ns3:TrackPointExtension>
        </extensions>
      </trkpt>
      <trkpt lat="36.77746304310858249664306640625" lon="-118.4209346584975719451904296875">
        <ele>3300.199951171875</ele>
        <time>2021-06-25T20:31:23.000Z</time>
        <extensions>
          <ns3:TrackPointExtension>
            <ns3:atemp>29.0</ns3:atemp>
            <ns3:hr>128</ns3:hr>
          </ns3:TrackPointExtension>
        </extensions>
      </trkpt>
      <trkpt lat="36.77747041918337345123291015625" lon="-118.420963324606418609619140625">
        <ele>3300.199951171875</ele>
        <time>2021-06-25T20:31:25.000Z</time>
        <extensions>
          <ns3:TrackPointExtension>
            <ns3:atemp>29.0</ns3:atemp>
            <ns3:hr>127</ns3:hr>
          </ns3:TrackPointExtension>
        </extensions>
      </trkpt>
      <trkpt lat="36.77753311581909656524658203125" lon="-118.4210241772234439849853515625">
        <ele>3300.199951171875</ele>
        <time>2021-06-25T20:31:33.000Z</time>
        <extensions>
          <ns3:TrackPointExtension>
            <ns3:atemp>29.0</ns3:atemp>
            <ns3:hr>128</ns3:hr>
          </ns3:TrackPointExtension>
        </extensions>
      </trkpt>
      <trkpt lat="36.77754434756934642791748046875" lon="-118.42103331349790096282958984375">
        <ele>3300.60009765625</ele>
        <time>2021-06-25T20:31:35.000Z</time>
        <extensions>
          <ns3:TrackPointExtension>
            <ns3:atemp>29.0</ns3:atemp>
            <ns3:hr>129</ns3:hr>
          </ns3:TrackPointExtension>
        </extensions>
      </trkpt>
      <trkpt lat="36.77756178192794322967529296875" lon="-118.42104270122945308685302734375">
        <ele>3301</ele>
        <time>2021-06-25T20:31:37.000Z</time>
        <extensions>
          <ns3:TrackPointExtension>
            <ns3:atemp>29.0</ns3:atemp>
            <ns3:hr>129</ns3:hr>
          </ns3:TrackPointExtension>
        </extensions>
      </trkpt>
      <trkpt lat="36.77757318131625652313232421875" lon="-118.421054519712924957275390625">
        <ele>3301.39990234375</ele>
        <time>2021-06-25T20:31:39.000Z</time>
        <extensions>
          <ns3:TrackPointExtension>
            <ns3:atemp>29.0</ns3:atemp>
            <ns3:hr>129</ns3:hr>
          </ns3:TrackPointExtension>
        </extensions>
      </trkpt>
      <trkpt lat="36.77759363315999507904052734375" lon="-118.42106868512928485870361328125">
        <ele>3301.60009765625</ele>
        <time>2021-06-25T20:31:42.000Z</time>
        <extensions>
          <ns3:TrackPointExtension>
            <ns3:atemp>28.0</ns3:atemp>
            <ns3:hr>129</ns3:hr>
          </ns3:TrackPointExtension>
        </extensions>
      </trkpt>
      <trkpt lat="36.77760352380573749542236328125" lon="-118.4210768155753612518310546875">
        <ele>3301.60009765625</ele>
        <time>2021-06-25T20:31:43.000Z</time>
        <extensions>
          <ns3:TrackPointExtension>
            <ns3:atemp>28.0</ns3:atemp>
            <ns3:hr>129</ns3:hr>
          </ns3:TrackPointExtension>
        </extensions>
      </trkpt>
      <trkpt lat="36.77763872779905796051025390625" lon="-118.4211093373596668243408203125">
        <ele>3302.800048828125</ele>
        <time>2021-06-25T20:31:48.000Z</time>
        <extensions>
          <ns3:TrackPointExtension>
            <ns3:atemp>28.0</ns3:atemp>
            <ns3:hr>129</ns3:hr>
          </ns3:TrackPointExtension>
        </extensions>
      </trkpt>
      <trkpt lat="36.7776632867753505706787109375" lon="-118.4211281128227710723876953125">
        <ele>3303</ele>
        <time>2021-06-25T20:31:51.000Z</time>
        <extensions>
          <ns3:TrackPointExtension>
            <ns3:atemp>28.0</ns3:atemp>
            <ns3:hr>128</ns3:hr>
          </ns3:TrackPointExtension>
        </extensions>
      </trkpt>
      <trkpt lat="36.77768281660974025726318359375" lon="-118.4211318008601665496826171875">
        <ele>3303.800048828125</ele>
        <time>2021-06-25T20:31:53.000Z</time>
        <extensions>
          <ns3:TrackPointExtension>
            <ns3:atemp>28.0</ns3:atemp>
            <ns3:hr>127</ns3:hr>
          </ns3:TrackPointExtension>
        </extensions>
      </trkpt>
      <trkpt lat="36.7777078785002231597900390625" lon="-118.42116340063512325286865234375">
        <ele>3304.60009765625</ele>
        <time>2021-06-25T20:31:58.000Z</time>
        <extensions>
          <ns3:TrackPointExtension>
            <ns3:atemp>28.0</ns3:atemp>
            <ns3:hr>127</ns3:hr>
          </ns3:TrackPointExtension>
        </extensions>
      </trkpt>
      <trkpt lat="36.7777149192988872528076171875" lon="-118.42116960324347019195556640625">
        <ele>3304.800048828125</ele>
        <time>2021-06-25T20:31:59.000Z</time>
        <extensions>
          <ns3:TrackPointExtension>
            <ns3:atemp>28.0</ns3:atemp>
            <ns3:hr>127</ns3:hr>
          </ns3:TrackPointExtension>
        </extensions>
      </trkpt>
      <trkpt lat="36.77775372751057147979736328125" lon="-118.42118888162076473236083984375">
        <ele>3305.800048828125</ele>
        <time>2021-06-25T20:32:04.000Z</time>
        <extensions>
          <ns3:TrackPointExtension>
            <ns3:atemp>28.0</ns3:atemp>
            <ns3:hr>127</ns3:hr>
          </ns3:TrackPointExtension>
        </extensions>
      </trkpt>
      <trkpt lat="36.77778725512325763702392578125" lon="-118.42121503315865993499755859375">
        <ele>3306.39990234375</ele>
        <time>2021-06-25T20:32:09.000Z</time>
        <extensions>
          <ns3:TrackPointExtension>
            <ns3:atemp>28.0</ns3:atemp>
            <ns3:hr>126</ns3:hr>
          </ns3:TrackPointExtension>
        </extensions>
      </trkpt>
      <trkpt lat="36.777796559035778045654296875" lon="-118.4212374128401279449462890625">
        <ele>3306.39990234375</ele>
        <time>2021-06-25T20:32:11.000Z</time>
        <extensions>
          <ns3:TrackPointExtension>
            <ns3:atemp>28.0</ns3:atemp>
            <ns3:hr>126</ns3:hr>
          </ns3:TrackPointExtension>
        </extensions>
      </trkpt>
      <trkpt lat="36.777813322842121124267578125" lon="-118.4212682582437992095947265625">
        <ele>3307</ele>
        <time>2021-06-25T20:32:14.000Z</time>
        <extensions>
          <ns3:TrackPointExtension>
            <ns3:atemp>28.0</ns3:atemp>
            <ns3:hr>127</ns3:hr>
          </ns3:TrackPointExtension>
        </extensions>
      </trkpt>
      <trkpt lat="36.777816675603389739990234375" lon="-118.4212756343185901641845703125">
        <ele>3307.199951171875</ele>
        <time>2021-06-25T20:32:15.000Z</time>
        <extensions>
          <ns3:TrackPointExtension>
            <ns3:atemp>28.0</ns3:atemp>
            <ns3:hr>127</ns3:hr>
          </ns3:TrackPointExtension>
        </extensions>
      </trkpt>
      <trkpt lat="36.7778450064361095428466796875" lon="-118.42130287550389766693115234375">
        <ele>3307.800048828125</ele>
        <time>2021-06-25T20:32:20.000Z</time>
        <extensions>
          <ns3:TrackPointExtension>
            <ns3:atemp>28.0</ns3:atemp>
            <ns3:hr>130</ns3:hr>
          </ns3:TrackPointExtension>
        </extensions>
      </trkpt>
      <trkpt lat="36.7778580822050571441650390625" lon="-118.42131159268319606781005859375">
        <ele>3308</ele>
        <time>2021-06-25T20:32:22.000Z</time>
        <extensions>
          <ns3:TrackPointExtension>
            <ns3:atemp>28.0</ns3:atemp>
            <ns3:hr>131</ns3:hr>
          </ns3:TrackPointExtension>
        </extensions>
      </trkpt>
      <trkpt lat="36.7778627760708332061767578125" lon="-118.421317376196384429931640625">
        <ele>3308.199951171875</ele>
        <time>2021-06-25T20:32:23.000Z</time>
        <extensions>
          <ns3:TrackPointExtension>
            <ns3:atemp>28.0</ns3:atemp>
            <ns3:hr>132</ns3:hr>
          </ns3:TrackPointExtension>
        </extensions>
      </trkpt>
      <trkpt lat="36.77789487875998020172119140625" lon="-118.42134411446750164031982421875">
        <ele>3309</ele>
        <time>2021-06-25T20:32:28.000Z</time>
        <extensions>
          <ns3:TrackPointExtension>
            <ns3:atemp>28.0</ns3:atemp>
            <ns3:hr>134</ns3:hr>
          </ns3:TrackPointExtension>
        </extensions>
      </trkpt>
      <trkpt lat="36.77792555652558803558349609375" lon="-118.421375714242458343505859375">
        <ele>3309.39990234375</ele>
        <time>2021-06-25T20:32:32.000Z</time>
        <extensions>
          <ns3:TrackPointExtension>
            <ns3:atemp>28.0</ns3:atemp>
            <ns3:hr>133</ns3:hr>
          </ns3:TrackPointExtension>
        </extensions>
      </trkpt>
      <trkpt lat="36.777990348637104034423828125" lon="-118.42144737951457500457763671875">
        <ele>3310</ele>
        <time>2021-06-25T20:32:41.000Z</time>
        <extensions>
          <ns3:TrackPointExtension>
            <ns3:atemp>28.0</ns3:atemp>
            <ns3:hr>130</ns3:hr>
          </ns3:TrackPointExtension>
        </extensions>
      </trkpt>
      <trkpt lat="36.777999065816402435302734375" lon="-118.4214551746845245361328125">
        <ele>3310.199951171875</ele>
        <time>2021-06-25T20:32:42.000Z</time>
        <extensions>
          <ns3:TrackPointExtension>
            <ns3:atemp>28.0</ns3:atemp>
            <ns3:hr>129</ns3:hr>
          </ns3:TrackPointExtension>
        </extensions>
      </trkpt>
      <trkpt lat="36.7780243791639804840087890625" lon="-118.42149012722074985504150390625">
        <ele>3310.199951171875</ele>
        <time>2021-06-25T20:32:45.000Z</time>
        <extensions>
          <ns3:TrackPointExtension>
            <ns3:atemp>28.0</ns3:atemp>
            <ns3:hr>126</ns3:hr>
          </ns3:TrackPointExtension>
        </extensions>
      </trkpt>
      <trkpt lat="36.7780387960374355316162109375" lon="-118.4215317852795124053955078125">
        <ele>3311</ele>
        <time>2021-06-25T20:32:50.000Z</time>
        <extensions>
          <ns3:TrackPointExtension>
            <ns3:atemp>28.0</ns3:atemp>
            <ns3:hr>124</ns3:hr>
          </ns3:TrackPointExtension>
        </extensions>
      </trkpt>
      <trkpt lat="36.7780475132167339324951171875" lon="-118.42155131511390209197998046875">
        <ele>3311.199951171875</ele>
        <time>2021-06-25T20:32:52.000Z</time>
        <extensions>
          <ns3:TrackPointExtension>
            <ns3:atemp>28.0</ns3:atemp>
            <ns3:hr>125</ns3:hr>
          </ns3:TrackPointExtension>
        </extensions>
      </trkpt>
      <trkpt lat="36.77806033752858638763427734375" lon="-118.421567492187023162841796875">
        <ele>3311.199951171875</ele>
        <time>2021-06-25T20:32:54.000Z</time>
        <extensions>
          <ns3:TrackPointExtension>
            <ns3:atemp>28.0</ns3:atemp>
            <ns3:hr>123</ns3:hr>
          </ns3:TrackPointExtension>
        </extensions>
      </trkpt>
      <trkpt lat="36.77810576744377613067626953125" lon="-118.42158551327884197235107421875">
        <ele>3311.199951171875</ele>
        <time>2021-06-25T20:32:58.000Z</time>
        <extensions>
          <ns3:TrackPointExtension>
            <ns3:atemp>28.0</ns3:atemp>
            <ns3:hr>123</ns3:hr>
          </ns3:TrackPointExtension>
        </extensions>
      </trkpt>
      <trkpt lat="36.7781390435993671417236328125" lon="-118.4216075576841831207275390625">
        <ele>3312.39990234375</ele>
        <time>2021-06-25T20:33:03.000Z</time>
        <extensions>
          <ns3:TrackPointExtension>
            <ns3:atemp>28.0</ns3:atemp>
            <ns3:hr>124</ns3:hr>
          </ns3:TrackPointExtension>
        </extensions>
      </trkpt>
      <trkpt lat="36.778172738850116729736328125" lon="-118.42161501757800579071044921875">
        <ele>3313.39990234375</ele>
        <time>2021-06-25T20:33:08.000Z</time>
        <extensions>
          <ns3:TrackPointExtension>
            <ns3:atemp>28.0</ns3:atemp>
            <ns3:hr>126</ns3:hr>
          </ns3:TrackPointExtension>
        </extensions>
      </trkpt>
      <trkpt lat="36.7781802825629711151123046875" lon="-118.42162155546247959136962890625">
        <ele>3313.39990234375</ele>
        <time>2021-06-25T20:33:09.000Z</time>
        <extensions>
          <ns3:TrackPointExtension>
            <ns3:atemp>28.0</ns3:atemp>
            <ns3:hr>127</ns3:hr>
          </ns3:TrackPointExtension>
        </extensions>
      </trkpt>
      <trkpt lat="36.7782260477542877197265625" lon="-118.42167637310922145843505859375">
        <ele>3314</ele>
        <time>2021-06-25T20:33:17.000Z</time>
        <extensions>
          <ns3:TrackPointExtension>
            <ns3:atemp>28.0</ns3:atemp>
            <ns3:hr>126</ns3:hr>
          </ns3:TrackPointExtension>
        </extensions>
      </trkpt>
      <trkpt lat="36.7782461643218994140625" lon="-118.421693556010723114013671875">
        <ele>3314.60009765625</ele>
        <time>2021-06-25T20:33:20.000Z</time>
        <extensions>
          <ns3:TrackPointExtension>
            <ns3:atemp>28.0</ns3:atemp>
            <ns3:hr>127</ns3:hr>
          </ns3:TrackPointExtension>
        </extensions>
      </trkpt>
      <trkpt lat="36.778270304203033447265625" lon="-118.421716354787349700927734375">
        <ele>3315</ele>
        <time>2021-06-25T20:33:24.000Z</time>
        <extensions>
          <ns3:TrackPointExtension>
            <ns3:atemp>28.0</ns3:atemp>
            <ns3:hr>127</ns3:hr>
          </ns3:TrackPointExtension>
        </extensions>
      </trkpt>
      <trkpt lat="36.778290085494518280029296875" lon="-118.421737812459468841552734375">
        <ele>3315.60009765625</ele>
        <time>2021-06-25T20:33:27.000Z</time>
        <extensions>
          <ns3:TrackPointExtension>
            <ns3:atemp>28.0</ns3:atemp>
            <ns3:hr>125</ns3:hr>
          </ns3:TrackPointExtension>
        </extensions>
      </trkpt>
      <trkpt lat="36.7783333361148834228515625" lon="-118.4217703342437744140625">
        <ele>3316.39990234375</ele>
        <time>2021-06-25T20:33:33.000Z</time>
        <extensions>
          <ns3:TrackPointExtension>
            <ns3:atemp>28.0</ns3:atemp>
            <ns3:hr>122</ns3:hr>
          </ns3:TrackPointExtension>
        </extensions>
      </trkpt>
      <trkpt lat="36.7783459089696407318115234375" lon="-118.421778380870819091796875">
        <ele>3316.60009765625</ele>
        <time>2021-06-25T20:33:35.000Z</time>
        <extensions>
          <ns3:TrackPointExtension>
            <ns3:atemp>28.0</ns3:atemp>
            <ns3:hr>122</ns3:hr>
          </ns3:TrackPointExtension>
        </extensions>
      </trkpt>
      <trkpt lat="36.7783599905669689178466796875" lon="-118.42178349383175373077392578125">
        <ele>3316.800048828125</ele>
        <time>2021-06-25T20:33:37.000Z</time>
        <extensions>
          <ns3:TrackPointExtension>
            <ns3:atemp>28.0</ns3:atemp>
            <ns3:hr>125</ns3:hr>
          </ns3:TrackPointExtension>
        </extensions>
      </trkpt>
      <trkpt lat="36.77837197668850421905517578125" lon="-118.42180210165679454803466796875">
        <ele>3317.39990234375</ele>
        <time>2021-06-25T20:33:40.000Z</time>
        <extensions>
          <ns3:TrackPointExtension>
            <ns3:atemp>28.0</ns3:atemp>
            <ns3:hr>122</ns3:hr>
          </ns3:TrackPointExtension>
        </extensions>
      </trkpt>
      <trkpt lat="36.778377592563629150390625" lon="-118.42180176638066768646240234375">
        <ele>3317.800048828125</ele>
        <time>2021-06-25T20:33:41.000Z</time>
        <extensions>
          <ns3:TrackPointExtension>
            <ns3:atemp>28.0</ns3:atemp>
            <ns3:hr>122</ns3:hr>
          </ns3:TrackPointExtension>
        </extensions>
      </trkpt>
      <trkpt lat="36.7783841304481029510498046875" lon="-118.4217979945242404937744140625">
        <ele>3318</ele>
        <time>2021-06-25T20:33:42.000Z</time>
        <extensions>
          <ns3:TrackPointExtension>
            <ns3:atemp>28.0</ns3:atemp>
            <ns3:hr>122</ns3:hr>
          </ns3:TrackPointExtension>
        </extensions>
      </trkpt>
      <trkpt lat="36.77840642631053924560546875" lon="-118.4217931330204010009765625">
        <ele>3319</ele>
        <time>2021-06-25T20:33:46.000Z</time>
        <extensions>
          <ns3:TrackPointExtension>
            <ns3:atemp>28.0</ns3:atemp>
            <ns3:hr>122</ns3:hr>
          </ns3:TrackPointExtension>
        </extensions>
      </trkpt>
      <trkpt lat="36.77844204939901828765869140625" lon="-118.42180696316063404083251953125">
        <ele>3319.60009765625</ele>
        <time>2021-06-25T20:33:51.000Z</time>
        <extensions>
          <ns3:TrackPointExtension>
            <ns3:atemp>28.0</ns3:atemp>
            <ns3:hr>122</ns3:hr>
          </ns3:TrackPointExtension>
        </extensions>
      </trkpt>
      <trkpt lat="36.77849301137030124664306640625" lon="-118.42184116132557392120361328125">
        <ele>3319.800048828125</ele>
        <time>2021-06-25T20:33:59.000Z</time>
        <extensions>
          <ns3:TrackPointExtension>
            <ns3:atemp>28.0</ns3:atemp>
            <ns3:hr>121</ns3:hr>
          </ns3:TrackPointExtension>
        </extensions>
      </trkpt>
      <trkpt lat="36.7785068415105342864990234375" lon="-118.42183663509786128997802734375">
        <ele>3320.199951171875</ele>
        <time>2021-06-25T20:34:01.000Z</time>
        <extensions>
          <ns3:TrackPointExtension>
            <ns3:atemp>28.0</ns3:atemp>
            <ns3:hr>122</ns3:hr>
          </ns3:TrackPointExtension>
        </extensions>
      </trkpt>
      <trkpt lat="36.77853810600936412811279296875" lon="-118.42183462344110012054443359375">
        <ele>3321.199951171875</ele>
        <time>2021-06-25T20:34:06.000Z</time>
        <extensions>
          <ns3:TrackPointExtension>
            <ns3:atemp>28.0</ns3:atemp>
            <ns3:hr>122</ns3:hr>
          </ns3:TrackPointExtension>
        </extensions>
      </trkpt>
      <trkpt lat="36.77854715846478939056396484375" lon="-118.4218442626297473907470703125">
        <ele>3321.39990234375</ele>
        <time>2021-06-25T20:34:08.000Z</time>
        <extensions>
          <ns3:TrackPointExtension>
            <ns3:atemp>28.0</ns3:atemp>
            <ns3:hr>122</ns3:hr>
          </ns3:TrackPointExtension>
        </extensions>
      </trkpt>
      <trkpt lat="36.77858412265777587890625" lon="-118.4218918718397617340087890625">
        <ele>3321.60009765625</ele>
        <time>2021-06-25T20:34:14.000Z</time>
        <extensions>
          <ns3:TrackPointExtension>
            <ns3:atemp>28.0</ns3:atemp>
            <ns3:hr>125</ns3:hr>
          </ns3:TrackPointExtension>
        </extensions>
      </trkpt>
      <trkpt lat="36.7786003835499286651611328125" lon="-118.4218975715339183807373046875">
        <ele>3321.800048828125</ele>
        <time>2021-06-25T20:34:16.000Z</time>
        <extensions>
          <ns3:TrackPointExtension>
            <ns3:atemp>28.0</ns3:atemp>
            <ns3:hr>125</ns3:hr>
          </ns3:TrackPointExtension>
        </extensions>
      </trkpt>
      <trkpt lat="36.77865092642605304718017578125" lon="-118.4219549037516117095947265625">
        <ele>3321.60009765625</ele>
        <time>2021-06-25T20:34:24.000Z</time>
        <extensions>
          <ns3:TrackPointExtension>
            <ns3:atemp>28.0</ns3:atemp>
            <ns3:hr>124</ns3:hr>
          </ns3:TrackPointExtension>
        </extensions>
      </trkpt>
      <trkpt lat="36.77869736216962337493896484375" lon="-118.42196387238800525665283203125">
        <ele>3322.39990234375</ele>
        <time>2021-06-25T20:34:29.000Z</time>
        <extensions>
          <ns3:TrackPointExtension>
            <ns3:atemp>28.0</ns3:atemp>
            <ns3:hr>122</ns3:hr>
          </ns3:TrackPointExtension>
        </extensions>
      </trkpt>
      <trkpt lat="36.77872401662170886993408203125" lon="-118.42197074554860591888427734375">
        <ele>3322.800048828125</ele>
        <time>2021-06-25T20:34:32.000Z</time>
        <extensions>
          <ns3:TrackPointExtension>
            <ns3:atemp>28.0</ns3:atemp>
            <ns3:hr>121</ns3:hr>
          </ns3:TrackPointExtension>
        </extensions>
      </trkpt>
      <trkpt lat="36.7787378467619419097900390625" lon="-118.42198549769818782806396484375">
        <ele>3323.60009765625</ele>
        <time>2021-06-25T20:34:35.000Z</time>
        <extensions>
          <ns3:TrackPointExtension>
            <ns3:atemp>28.0</ns3:atemp>
            <ns3:hr>122</ns3:hr>
          </ns3:TrackPointExtension>
        </extensions>
      </trkpt>
      <trkpt lat="36.77877598442137241363525390625" lon="-118.4220130741596221923828125">
        <ele>3324.199951171875</ele>
        <time>2021-06-25T20:34:41.000Z</time>
        <extensions>
          <ns3:TrackPointExtension>
            <ns3:atemp>28.0</ns3:atemp>
            <ns3:hr>122</ns3:hr>
          </ns3:TrackPointExtension>
        </extensions>
      </trkpt>
      <trkpt lat="36.77879509516060352325439453125" lon="-118.42202581465244293212890625">
        <ele>3324.800048828125</ele>
        <time>2021-06-25T20:34:44.000Z</time>
        <extensions>
          <ns3:TrackPointExtension>
            <ns3:atemp>28.0</ns3:atemp>
            <ns3:hr>120</ns3:hr>
          </ns3:TrackPointExtension>
        </extensions>
      </trkpt>
      <trkpt lat="36.77884823642671108245849609375" lon="-118.42207568697631359100341796875">
        <ele>3325.800048828125</ele>
        <time>2021-06-25T20:34:52.000Z</time>
        <extensions>
          <ns3:TrackPointExtension>
            <ns3:atemp>28.0</ns3:atemp>
            <ns3:hr>118</ns3:hr>
          </ns3:TrackPointExtension>
        </extensions>
      </trkpt>
      <trkpt lat="36.77885829471051692962646484375" lon="-118.42207937501370906829833984375">
        <ele>3325.800048828125</ele>
        <time>2021-06-25T20:34:53.000Z</time>
        <extensions>
          <ns3:TrackPointExtension>
            <ns3:atemp>28.0</ns3:atemp>
            <ns3:hr>118</ns3:hr>
          </ns3:TrackPointExtension>
        </extensions>
      </trkpt>
      <trkpt lat="36.7788971029222011566162109375" lon="-118.4220759384334087371826171875">
        <ele>3326.800048828125</ele>
        <time>2021-06-25T20:34:59.000Z</time>
        <extensions>
          <ns3:TrackPointExtension>
            <ns3:atemp>28.0</ns3:atemp>
            <ns3:hr>116</ns3:hr>
          </ns3:TrackPointExtension>
        </extensions>
      </trkpt>
      <trkpt lat="36.7789048142731189727783203125" lon="-118.42207317240536212921142578125">
        <ele>3327</ele>
        <time>2021-06-25T20:35:00.000Z</time>
        <extensions>
          <ns3:TrackPointExtension>
            <ns3:atemp>28.0</ns3:atemp>
            <ns3:hr>116</ns3:hr>
          </ns3:TrackPointExtension>
        </extensions>
      </trkpt>
      <trkpt lat="36.7789262719452381134033203125" lon="-118.42207702808082103729248046875">
        <ele>3327.60009765625</ele>
        <time>2021-06-25T20:35:04.000Z</time>
        <extensions>
          <ns3:TrackPointExtension>
            <ns3:atemp>28.0</ns3:atemp>
            <ns3:hr>119</ns3:hr>
          </ns3:TrackPointExtension>
        </extensions>
      </trkpt>
      <trkpt lat="36.77894948981702327728271484375" lon="-118.42208482325077056884765625">
        <ele>3327.800048828125</ele>
        <time>2021-06-25T20:35:07.000Z</time>
        <extensions>
          <ns3:TrackPointExtension>
            <ns3:atemp>28.0</ns3:atemp>
            <ns3:hr>121</ns3:hr>
          </ns3:TrackPointExtension>
        </extensions>
      </trkpt>
      <trkpt lat="36.77895493805408477783203125" lon="-118.422087170183658599853515625">
        <ele>3328</ele>
        <time>2021-06-25T20:35:08.000Z</time>
        <extensions>
          <ns3:TrackPointExtension>
            <ns3:atemp>28.0</ns3:atemp>
            <ns3:hr>121</ns3:hr>
          </ns3:TrackPointExtension>
        </extensions>
      </trkpt>
      <trkpt lat="36.77900866605341434478759765625" lon="-118.422111980617046356201171875">
        <ele>3328.800048828125</ele>
        <time>2021-06-25T20:35:16.000Z</time>
        <extensions>
          <ns3:TrackPointExtension>
            <ns3:atemp>28.0</ns3:atemp>
            <ns3:hr>123</ns3:hr>
          </ns3:TrackPointExtension>
        </extensions>
      </trkpt>
      <trkpt lat="36.77901755087077617645263671875" lon="-118.42211575247347354888916015625">
        <ele>3328.800048828125</ele>
        <time>2021-06-25T20:35:18.000Z</time>
        <extensions>
          <ns3:TrackPointExtension>
            <ns3:atemp>28.0</ns3:atemp>
            <ns3:hr>125</ns3:hr>
          </ns3:TrackPointExtension>
        </extensions>
      </trkpt>
      <trkpt lat="36.77902333438396453857421875" lon="-118.4221369586884975433349609375">
        <ele>3329.199951171875</ele>
        <time>2021-06-25T20:35:22.000Z</time>
        <extensions>
          <ns3:TrackPointExtension>
            <ns3:atemp>28.0</ns3:atemp>
            <ns3:hr>123</ns3:hr>
          </ns3:TrackPointExtension>
        </extensions>
      </trkpt>
      <trkpt lat="36.779023669660091400146484375" lon="-118.42213670723140239715576171875">
        <ele>3329.39990234375</ele>
        <time>2021-06-25T20:35:24.000Z</time>
        <extensions>
          <ns3:TrackPointExtension>
            <ns3:atemp>28.0</ns3:atemp>
            <ns3:hr>119</ns3:hr>
          </ns3:TrackPointExtension>
        </extensions>
      </trkpt>
      <trkpt lat="36.77902408875524997711181640625" lon="-118.4221356175839900970458984375">
        <ele>3329.39990234375</ele>
        <time>2021-06-25T20:35:25.000Z</time>
        <extensions>
          <ns3:TrackPointExtension>
            <ns3:atemp>28.0</ns3:atemp>
            <ns3:hr>124</ns3:hr>
          </ns3:TrackPointExtension>
        </extensions>
      </trkpt>
      <trkpt lat="36.77902777679264545440673828125" lon="-118.42213419266045093536376953125">
        <ele>3329</ele>
        <time>2021-06-25T20:35:30.000Z</time>
        <extensions>
          <ns3:TrackPointExtension>
            <ns3:atemp>28.0</ns3:atemp>
            <ns3:hr>127</ns3:hr>
          </ns3:TrackPointExtension>
        </extensions>
      </trkpt>
      <trkpt lat="36.77902601659297943115234375" lon="-118.42213419266045093536376953125">
        <ele>3329</ele>
        <time>2021-06-25T20:35:39.000Z</time>
        <extensions>
          <ns3:TrackPointExtension>
            <ns3:atemp>28.0</ns3:atemp>
            <ns3:hr>129</ns3:hr>
          </ns3:TrackPointExtension>
        </extensions>
      </trkpt>
      <trkpt lat="36.779011599719524383544921875" lon="-118.4221351146697998046875">
        <ele>3329</ele>
        <time>2021-06-25T20:36:04.000Z</time>
        <extensions>
          <ns3:TrackPointExtension>
            <ns3:atemp>28.0</ns3:atemp>
            <ns3:hr>126</ns3:hr>
          </ns3:TrackPointExtension>
        </extensions>
      </trkpt>
      <trkpt lat="36.77901537157595157623291015625" lon="-118.42213000170886516571044921875">
        <ele>3329.199951171875</ele>
        <time>2021-06-25T20:36:08.000Z</time>
        <extensions>
          <ns3:TrackPointExtension>
            <ns3:atemp>28.0</ns3:atemp>
            <ns3:hr>123</ns3:hr>
          </ns3:TrackPointExtension>
        </extensions>
      </trkpt>
      <trkpt lat="36.77902241237461566925048828125" lon="-118.42211608774960041046142578125">
        <ele>3329</ele>
        <time>2021-06-25T20:36:11.000Z</time>
        <extensions>
          <ns3:TrackPointExtension>
            <ns3:atemp>28.0</ns3:atemp>
            <ns3:hr>119</ns3:hr>
          </ns3:TrackPointExtension>
        </extensions>
      </trkpt>
      <trkpt lat="36.77902878262102603912353515625" lon="-118.42211566865444183349609375">
        <ele>3329</ele>
        <time>2021-06-25T20:36:15.000Z</time>
        <extensions>
          <ns3:TrackPointExtension>
            <ns3:atemp>28.0</ns3:atemp>
            <ns3:hr>116</ns3:hr>
          </ns3:TrackPointExtension>
        </extensions>
      </trkpt>
      <trkpt lat="36.7790315486490726470947265625" lon="-118.42211566865444183349609375">
        <ele>3329</ele>
        <time>2021-06-25T20:36:18.000Z</time>
        <extensions>
          <ns3:TrackPointExtension>
            <ns3:atemp>28.0</ns3:atemp>
            <ns3:hr>113</ns3:hr>
          </ns3:TrackPointExtension>
        </extensions>
      </trkpt>
      <trkpt lat="36.77903397940099239349365234375" lon="-118.42211022041738033294677734375">
        <ele>3329</ele>
        <time>2021-06-25T20:36:22.000Z</time>
        <extensions>
          <ns3:TrackPointExtension>
            <ns3:atemp>28.0</ns3:atemp>
            <ns3:hr>110</ns3:hr>
          </ns3:TrackPointExtension>
        </extensions>
      </trkpt>
      <trkpt lat="36.77903397940099239349365234375" lon="-118.42210636474192142486572265625">
        <ele>3329.39990234375</ele>
        <time>2021-06-25T20:36:31.000Z</time>
        <extensions>
          <ns3:TrackPointExtension>
            <ns3:atemp>28.0</ns3:atemp>
            <ns3:hr>107</ns3:hr>
          </ns3:TrackPointExtension>
        </extensions>
      </trkpt>
      <trkpt lat="36.7790295369923114776611328125" lon="-118.42210368253290653228759765625">
        <ele>3329.60009765625</ele>
        <time>2021-06-25T20:36:45.000Z</time>
        <extensions>
          <ns3:TrackPointExtension>
            <ns3:atemp>28.0</ns3:atemp>
            <ns3:hr>110</ns3:hr>
          </ns3:TrackPointExtension>
        </extensions>
      </trkpt>
      <trkpt lat="36.77903733216226100921630859375" lon="-118.42209647409617900848388671875">
        <ele>3329.39990234375</ele>
        <time>2021-06-25T20:36:59.000Z</time>
        <extensions>
          <ns3:TrackPointExtension>
            <ns3:atemp>28.0</ns3:atemp>
            <ns3:hr>107</ns3:hr>
          </ns3:TrackPointExtension>
        </extensions>
      </trkpt>
      <trkpt lat="36.77904001437127590179443359375" lon="-118.4220962226390838623046875">
        <ele>3330</ele>
        <time>2021-06-25T20:37:03.000Z</time>
        <extensions>
          <ns3:TrackPointExtension>
            <ns3:atemp>28.0</ns3:atemp>
            <ns3:hr>106</ns3:hr>
          </ns3:TrackPointExtension>
        </extensions>
      </trkpt>
      <trkpt lat="36.77904487587511539459228515625" lon="-118.4220997430384159088134765625">
        <ele>3330.199951171875</ele>
        <time>2021-06-25T20:37:07.000Z</time>
        <extensions>
          <ns3:TrackPointExtension>
            <ns3:atemp>28.0</ns3:atemp>
            <ns3:hr>103</ns3:hr>
          </ns3:TrackPointExtension>
        </extensions>
      </trkpt>
      <trkpt lat="36.7790761403739452362060546875" lon="-118.4221289120614528656005859375">
        <ele>3330.39990234375</ele>
        <time>2021-06-25T20:37:10.000Z</time>
        <extensions>
          <ns3:TrackPointExtension>
            <ns3:atemp>28.0</ns3:atemp>
            <ns3:hr>100</ns3:hr>
          </ns3:TrackPointExtension>
        </extensions>
      </trkpt>
      <trkpt lat="36.7790848575532436370849609375" lon="-118.42213754542171955108642578125">
        <ele>3330.39990234375</ele>
        <time>2021-06-25T20:37:11.000Z</time>
        <extensions>
          <ns3:TrackPointExtension>
            <ns3:atemp>28.0</ns3:atemp>
            <ns3:hr>99</ns3:hr>
          </ns3:TrackPointExtension>
        </extensions>
      </trkpt>
      <trkpt lat="36.779111512005329132080078125" lon="-118.42215313576161861419677734375">
        <ele>3330.39990234375</ele>
        <time>2021-06-25T20:37:13.000Z</time>
        <extensions>
          <ns3:TrackPointExtension>
            <ns3:atemp>28.0</ns3:atemp>
            <ns3:hr>96</ns3:hr>
          </ns3:TrackPointExtension>
        </extensions>
      </trkpt>
      <trkpt lat="36.77913489751517772674560546875" lon="-118.42216738499701023101806640625">
        <ele>3331</ele>
        <time>2021-06-25T20:37:15.000Z</time>
        <extensions>
          <ns3:TrackPointExtension>
            <ns3:atemp>28.0</ns3:atemp>
            <ns3:hr>93</ns3:hr>
          </ns3:TrackPointExtension>
        </extensions>
      </trkpt>
      <trkpt lat="36.77917580120265483856201171875" lon="-118.42219102196395397186279296875">
        <ele>3331.39990234375</ele>
        <time>2021-06-25T20:37:20.000Z</time>
        <extensions>
          <ns3:TrackPointExtension>
            <ns3:atemp>28.0</ns3:atemp>
            <ns3:hr>91</ns3:hr>
          </ns3:TrackPointExtension>
        </extensions>
      </trkpt>
      <trkpt lat="36.7792085744440555572509765625" lon="-118.422216586768627166748046875">
        <ele>3331.60009765625</ele>
        <time>2021-06-25T20:37:24.000Z</time>
        <extensions>
          <ns3:TrackPointExtension>
            <ns3:atemp>28.0</ns3:atemp>
            <ns3:hr>95</ns3:hr>
          </ns3:TrackPointExtension>
        </extensions>
      </trkpt>
      <trkpt lat="36.77924017421901226043701171875" lon="-118.4222221188247203826904296875">
        <ele>3332.199951171875</ele>
        <time>2021-06-25T20:37:28.000Z</time>
        <extensions>
          <ns3:TrackPointExtension>
            <ns3:atemp>28.0</ns3:atemp>
            <ns3:hr>96</ns3:hr>
          </ns3:TrackPointExtension>
        </extensions>
      </trkpt>
      <trkpt lat="36.77925132215023040771484375" lon="-118.42222102917730808258056640625">
        <ele>3332.60009765625</ele>
        <time>2021-06-25T20:37:30.000Z</time>
        <extensions>
          <ns3:TrackPointExtension>
            <ns3:atemp>28.0</ns3:atemp>
            <ns3:hr>99</ns3:hr>
          </ns3:TrackPointExtension>
        </extensions>
      </trkpt>
      <trkpt lat="36.7792578600347042083740234375" lon="-118.42222270555794239044189453125">
        <ele>3332.60009765625</ele>
        <time>2021-06-25T20:37:31.000Z</time>
        <extensions>
          <ns3:TrackPointExtension>
            <ns3:atemp>28.0</ns3:atemp>
            <ns3:hr>100</ns3:hr>
          </ns3:TrackPointExtension>
        </extensions>
      </trkpt>
      <trkpt lat="36.77927546203136444091796875" lon="-118.42223712243139743804931640625">
        <ele>3332.60009765625</ele>
        <time>2021-06-25T20:37:33.000Z</time>
        <extensions>
          <ns3:TrackPointExtension>
            <ns3:atemp>28.0</ns3:atemp>
            <ns3:hr>103</ns3:hr>
          </ns3:TrackPointExtension>
        </extensions>
      </trkpt>
      <trkpt lat="36.77930119447410106658935546875" lon="-118.42225472442805767059326171875">
        <ele>3332.60009765625</ele>
        <time>2021-06-25T20:37:36.000Z</time>
        <extensions>
          <ns3:TrackPointExtension>
            <ns3:atemp>28.0</ns3:atemp>
            <ns3:hr>106</ns3:hr>
          </ns3:TrackPointExtension>
        </extensions>
      </trkpt>
      <trkpt lat="36.77930823527276515960693359375" lon="-118.42225824482738971710205078125">
        <ele>3332.60009765625</ele>
        <time>2021-06-25T20:37:37.000Z</time>
        <extensions>
          <ns3:TrackPointExtension>
            <ns3:atemp>28.0</ns3:atemp>
            <ns3:hr>105</ns3:hr>
          </ns3:TrackPointExtension>
        </extensions>
      </trkpt>
      <trkpt lat="36.7793426848948001861572265625" lon="-118.4222764335572719573974609375">
        <ele>3333</ele>
        <time>2021-06-25T20:37:41.000Z</time>
        <extensions>
          <ns3:TrackPointExtension>
            <ns3:atemp>28.0</ns3:atemp>
            <ns3:hr>109</ns3:hr>
          </ns3:TrackPointExtension>
        </extensions>
      </trkpt>
      <trkpt lat="36.779360957443714141845703125" lon="-118.42228238470852375030517578125">
        <ele>3333.60009765625</ele>
        <time>2021-06-25T20:37:43.000Z</time>
        <extensions>
          <ns3:TrackPointExtension>
            <ns3:atemp>28.0</ns3:atemp>
            <ns3:hr>110</ns3:hr>
          </ns3:TrackPointExtension>
        </extensions>
      </trkpt>
      <trkpt lat="36.77937797270715236663818359375" lon="-118.42229730449616909027099609375">
        <ele>3334.199951171875</ele>
        <time>2021-06-25T20:37:46.000Z</time>
        <extensions>
          <ns3:TrackPointExtension>
            <ns3:atemp>28.0</ns3:atemp>
            <ns3:hr>112</ns3:hr>
          </ns3:TrackPointExtension>
        </extensions>
      </trkpt>
      <trkpt lat="36.7794476263225078582763671875" lon="-118.42236687429249286651611328125">
        <ele>3333.39990234375</ele>
        <time>2021-06-25T20:37:54.000Z</time>
        <extensions>
          <ns3:TrackPointExtension>
            <ns3:atemp>28.0</ns3:atemp>
            <ns3:hr>112</ns3:hr>
          </ns3:TrackPointExtension>
        </extensions>
      </trkpt>
      <trkpt lat="36.7794824950397014617919921875" lon="-118.42240911908447742462158203125">
        <ele>3333.800048828125</ele>
        <time>2021-06-25T20:37:59.000Z</time>
        <extensions>
          <ns3:TrackPointExtension>
            <ns3:atemp>28.0</ns3:atemp>
            <ns3:hr>115</ns3:hr>
          </ns3:TrackPointExtension>
        </extensions>
      </trkpt>
      <trkpt lat="36.77950210869312286376953125" lon="-118.4224199317395687103271484375">
        <ele>3333.800048828125</ele>
        <time>2021-06-25T20:38:01.000Z</time>
        <extensions>
          <ns3:TrackPointExtension>
            <ns3:atemp>28.0</ns3:atemp>
            <ns3:hr>117</ns3:hr>
          </ns3:TrackPointExtension>
        </extensions>
      </trkpt>
      <trkpt lat="36.77951627410948276519775390625" lon="-118.42241942882537841796875">
        <ele>3333.800048828125</ele>
        <time>2021-06-25T20:38:02.000Z</time>
        <extensions>
          <ns3:TrackPointExtension>
            <ns3:atemp>28.0</ns3:atemp>
            <ns3:hr>117</ns3:hr>
          </ns3:TrackPointExtension>
        </extensions>
      </trkpt>
      <trkpt lat="36.77957427687942981719970703125" lon="-118.42242370359599590301513671875">
        <ele>3334.60009765625</ele>
        <time>2021-06-25T20:38:08.000Z</time>
        <extensions>
          <ns3:TrackPointExtension>
            <ns3:atemp>28.0</ns3:atemp>
            <ns3:hr>116</ns3:hr>
          </ns3:TrackPointExtension>
        </extensions>
      </trkpt>
      <trkpt lat="36.7796192876994609832763671875" lon="-118.42243258841335773468017578125">
        <ele>3335.39990234375</ele>
        <time>2021-06-25T20:38:14.000Z</time>
        <extensions>
          <ns3:TrackPointExtension>
            <ns3:atemp>28.0</ns3:atemp>
            <ns3:hr>117</ns3:hr>
          </ns3:TrackPointExtension>
        </extensions>
      </trkpt>
      <trkpt lat="36.77964082919061183929443359375" lon="-118.42243627645075321197509765625">
        <ele>3336</ele>
        <time>2021-06-25T20:38:17.000Z</time>
        <extensions>
          <ns3:TrackPointExtension>
            <ns3:atemp>28.0</ns3:atemp>
            <ns3:hr>115</ns3:hr>
          </ns3:TrackPointExtension>
        </extensions>
      </trkpt>
      <trkpt lat="36.7796663939952850341796875" lon="-118.42243828810751438140869140625">
        <ele>3336.199951171875</ele>
        <time>2021-06-25T20:38:21.000Z</time>
        <extensions>
          <ns3:TrackPointExtension>
            <ns3:atemp>28.0</ns3:atemp>
            <ns3:hr>114</ns3:hr>
          </ns3:TrackPointExtension>
        </extensions>
      </trkpt>
      <trkpt lat="36.77967921830713748931884765625" lon="-118.422439880669116973876953125">
        <ele>3336.60009765625</ele>
        <time>2021-06-25T20:38:23.000Z</time>
        <extensions>
          <ns3:TrackPointExtension>
            <ns3:atemp>28.0</ns3:atemp>
            <ns3:hr>114</ns3:hr>
          </ns3:TrackPointExtension>
        </extensions>
      </trkpt>
      <trkpt lat="36.77968458272516727447509765625" lon="-118.42244558036327362060546875">
        <ele>3336.60009765625</ele>
        <time>2021-06-25T20:38:24.000Z</time>
        <extensions>
          <ns3:TrackPointExtension>
            <ns3:atemp>28.0</ns3:atemp>
            <ns3:hr>114</ns3:hr>
          </ns3:TrackPointExtension>
        </extensions>
      </trkpt>
      <trkpt lat="36.77970285527408123016357421875" lon="-118.42244801111519336700439453125">
        <ele>3337.199951171875</ele>
        <time>2021-06-25T20:38:27.000Z</time>
        <extensions>
          <ns3:TrackPointExtension>
            <ns3:atemp>28.0</ns3:atemp>
            <ns3:hr>115</ns3:hr>
          </ns3:TrackPointExtension>
        </extensions>
      </trkpt>
      <trkpt lat="36.77971861325204372406005859375" lon="-118.422455973923206329345703125">
        <ele>3337.60009765625</ele>
        <time>2021-06-25T20:38:29.000Z</time>
        <extensions>
          <ns3:TrackPointExtension>
            <ns3:atemp>28.0</ns3:atemp>
            <ns3:hr>115</ns3:hr>
          </ns3:TrackPointExtension>
        </extensions>
      </trkpt>
      <trkpt lat="36.77975297905504703521728515625" lon="-118.42246997170150279998779296875">
        <ele>3338.39990234375</ele>
        <time>2021-06-25T20:38:34.000Z</time>
        <extensions>
          <ns3:TrackPointExtension>
            <ns3:atemp>28.0</ns3:atemp>
            <ns3:hr>118</ns3:hr>
          </ns3:TrackPointExtension>
        </extensions>
      </trkpt>
      <trkpt lat="36.7797570861876010894775390625" lon="-118.42247550375759601593017578125">
        <ele>3338.60009765625</ele>
        <time>2021-06-25T20:38:35.000Z</time>
        <extensions>
          <ns3:TrackPointExtension>
            <ns3:atemp>29.0</ns3:atemp>
            <ns3:hr>119</ns3:hr>
          </ns3:TrackPointExtension>
        </extensions>
      </trkpt>
      <trkpt lat="36.77977644838392734527587890625" lon="-118.4224806167185306549072265625">
        <ele>3338.60009765625</ele>
        <time>2021-06-25T20:38:37.000Z</time>
        <extensions>
          <ns3:TrackPointExtension>
            <ns3:atemp>29.0</ns3:atemp>
            <ns3:hr>121</ns3:hr>
          </ns3:TrackPointExtension>
        </extensions>
      </trkpt>
      <trkpt lat="36.77979723550379276275634765625" lon="-118.4224836342036724090576171875">
        <ele>3338.60009765625</ele>
        <time>2021-06-25T20:38:40.000Z</time>
        <extensions>
          <ns3:TrackPointExtension>
            <ns3:atemp>29.0</ns3:atemp>
            <ns3:hr>122</ns3:hr>
          </ns3:TrackPointExtension>
        </extensions>
      </trkpt>
      <trkpt lat="36.7798110656440258026123046875" lon="-118.4224876575171947479248046875">
        <ele>3339.39990234375</ele>
        <time>2021-06-25T20:38:43.000Z</time>
        <extensions>
          <ns3:TrackPointExtension>
            <ns3:atemp>29.0</ns3:atemp>
            <ns3:hr>121</ns3:hr>
          </ns3:TrackPointExtension>
        </extensions>
      </trkpt>
      <trkpt lat="36.7798167653381824493408203125" lon="-118.422486819326877593994140625">
        <ele>3339.60009765625</ele>
        <time>2021-06-25T20:38:44.000Z</time>
        <extensions>
          <ns3:TrackPointExtension>
            <ns3:atemp>29.0</ns3:atemp>
            <ns3:hr>122</ns3:hr>
          </ns3:TrackPointExtension>
        </extensions>
      </trkpt>
      <trkpt lat="36.77984249778091907501220703125" lon="-118.42248656786978244781494140625">
        <ele>3340.60009765625</ele>
        <time>2021-06-25T20:38:50.000Z</time>
        <extensions>
          <ns3:TrackPointExtension>
            <ns3:atemp>29.0</ns3:atemp>
            <ns3:hr>125</ns3:hr>
          </ns3:TrackPointExtension>
        </extensions>
      </trkpt>
      <trkpt lat="36.77984903566539287567138671875" lon="-118.42248581349849700927734375">
        <ele>3340.60009765625</ele>
        <time>2021-06-25T20:38:51.000Z</time>
        <extensions>
          <ns3:TrackPointExtension>
            <ns3:atemp>29.0</ns3:atemp>
            <ns3:hr>126</ns3:hr>
          </ns3:TrackPointExtension>
        </extensions>
      </trkpt>
      <trkpt lat="36.7798626981675624847412109375" lon="-118.42248338274657726287841796875">
        <ele>3341</ele>
        <time>2021-06-25T20:38:53.000Z</time>
        <extensions>
          <ns3:TrackPointExtension>
            <ns3:atemp>29.0</ns3:atemp>
            <ns3:hr>127</ns3:hr>
          </ns3:TrackPointExtension>
        </extensions>
      </trkpt>
      <trkpt lat="36.77992916665971279144287109375" lon="-118.42249453067779541015625">
        <ele>3342</ele>
        <time>2021-06-25T20:39:03.000Z</time>
        <extensions>
          <ns3:TrackPointExtension>
            <ns3:atemp>29.0</ns3:atemp>
            <ns3:hr>127</ns3:hr>
          </ns3:TrackPointExtension>
        </extensions>
      </trkpt>
      <trkpt lat="36.77997074089944362640380859375" lon="-118.4224930219352245330810546875">
        <ele>3343.199951171875</ele>
        <time>2021-06-25T20:39:08.000Z</time>
        <extensions>
          <ns3:TrackPointExtension>
            <ns3:atemp>29.0</ns3:atemp>
            <ns3:hr>127</ns3:hr>
          </ns3:TrackPointExtension>
        </extensions>
      </trkpt>
      <trkpt lat="36.77999571897089481353759765625" lon="-118.42250785790383815765380859375">
        <ele>3343.800048828125</ele>
        <time>2021-06-25T20:39:13.000Z</time>
        <extensions>
          <ns3:TrackPointExtension>
            <ns3:atemp>29.0</ns3:atemp>
            <ns3:hr>127</ns3:hr>
          </ns3:TrackPointExtension>
        </extensions>
      </trkpt>
      <trkpt lat="36.7800082080066204071044921875" lon="-118.4225151501595973968505859375">
        <ele>3344</ele>
        <time>2021-06-25T20:39:16.000Z</time>
        <extensions>
          <ns3:TrackPointExtension>
            <ns3:atemp>29.0</ns3:atemp>
            <ns3:hr>127</ns3:hr>
          </ns3:TrackPointExtension>
        </extensions>
      </trkpt>
      <trkpt lat="36.780006699264049530029296875" lon="-118.42251959256827831268310546875">
        <ele>3344.39990234375</ele>
        <time>2021-06-25T20:39:17.000Z</time>
        <extensions>
          <ns3:TrackPointExtension>
            <ns3:atemp>29.0</ns3:atemp>
            <ns3:hr>127</ns3:hr>
          </ns3:TrackPointExtension>
        </extensions>
      </trkpt>
      <trkpt lat="36.780006028711795806884765625" lon="-118.42251724563539028167724609375">
        <ele>3344.39990234375</ele>
        <time>2021-06-25T20:39:20.000Z</time>
        <extensions>
          <ns3:TrackPointExtension>
            <ns3:atemp>29.0</ns3:atemp>
            <ns3:hr>124</ns3:hr>
          </ns3:TrackPointExtension>
        </extensions>
      </trkpt>
      <trkpt lat="36.78000644780695438385009765625" lon="-118.4225138090550899505615234375">
        <ele>3344.39990234375</ele>
        <time>2021-06-25T20:39:22.000Z</time>
        <extensions>
          <ns3:TrackPointExtension>
            <ns3:atemp>29.0</ns3:atemp>
            <ns3:hr>122</ns3:hr>
          </ns3:TrackPointExtension>
        </extensions>
      </trkpt>
      <trkpt lat="36.78000728599727153778076171875" lon="-118.4225151501595973968505859375">
        <ele>3345.39990234375</ele>
        <time>2021-06-25T20:39:37.000Z</time>
        <extensions>
          <ns3:TrackPointExtension>
            <ns3:atemp>29.0</ns3:atemp>
            <ns3:hr>121</ns3:hr>
          </ns3:TrackPointExtension>
        </extensions>
      </trkpt>
      <trkpt lat="36.78008683025836944580078125" lon="-118.42253719456493854522705078125">
        <ele>3346</ele>
        <time>2021-06-25T20:39:44.000Z</time>
        <extensions>
          <ns3:TrackPointExtension>
            <ns3:atemp>29.0</ns3:atemp>
            <ns3:hr>124</ns3:hr>
          </ns3:TrackPointExtension>
        </extensions>
      </trkpt>
      <trkpt lat="36.78011340089142322540283203125" lon="-118.42254557646811008453369140625">
        <ele>3346.800048828125</ele>
        <time>2021-06-25T20:39:46.000Z</time>
        <extensions>
          <ns3:TrackPointExtension>
            <ns3:atemp>29.0</ns3:atemp>
            <ns3:hr>127</ns3:hr>
          </ns3:TrackPointExtension>
        </extensions>
      </trkpt>
      <trkpt lat="36.78017207421362400054931640625" lon="-118.42255764640867710113525390625">
        <ele>3347.800048828125</ele>
        <time>2021-06-25T20:39:54.000Z</time>
        <extensions>
          <ns3:TrackPointExtension>
            <ns3:atemp>29.0</ns3:atemp>
            <ns3:hr>126</ns3:hr>
          </ns3:TrackPointExtension>
        </extensions>
      </trkpt>
      <trkpt lat="36.7801852338016033172607421875" lon="-118.422563932836055755615234375">
        <ele>3348.39990234375</ele>
        <time>2021-06-25T20:39:56.000Z</time>
        <extensions>
          <ns3:TrackPointExtension>
            <ns3:atemp>29.0</ns3:atemp>
            <ns3:hr>125</ns3:hr>
          </ns3:TrackPointExtension>
        </extensions>
      </trkpt>
      <trkpt lat="36.7802093736827373504638671875" lon="-118.42257038690149784088134765625">
        <ele>3349</ele>
        <time>2021-06-25T20:39:59.000Z</time>
        <extensions>
          <ns3:TrackPointExtension>
            <ns3:atemp>29.0</ns3:atemp>
            <ns3:hr>126</ns3:hr>
          </ns3:TrackPointExtension>
        </extensions>
      </trkpt>
      <trkpt lat="36.78023644722998142242431640625" lon="-118.42258061282336711883544921875">
        <ele>3349.39990234375</ele>
        <time>2021-06-25T20:40:03.000Z</time>
        <extensions>
          <ns3:TrackPointExtension>
            <ns3:atemp>29.0</ns3:atemp>
            <ns3:hr>123</ns3:hr>
          </ns3:TrackPointExtension>
        </extensions>
      </trkpt>
      <trkpt lat="36.78027751855552196502685546875" lon="-118.4225865639746189117431640625">
        <ele>3350</ele>
        <time>2021-06-25T20:40:08.000Z</time>
        <extensions>
          <ns3:TrackPointExtension>
            <ns3:atemp>28.0</ns3:atemp>
            <ns3:hr>125</ns3:hr>
          </ns3:TrackPointExtension>
        </extensions>
      </trkpt>
      <trkpt lat="36.780286319553852081298828125" lon="-118.422590084373950958251953125">
        <ele>3350.199951171875</ele>
        <time>2021-06-25T20:40:09.000Z</time>
        <extensions>
          <ns3:TrackPointExtension>
            <ns3:atemp>28.0</ns3:atemp>
            <ns3:hr>124</ns3:hr>
          </ns3:TrackPointExtension>
        </extensions>
      </trkpt>
      <trkpt lat="36.78034155629575252532958984375" lon="-118.42259871773421764373779296875">
        <ele>3351</ele>
        <time>2021-06-25T20:40:16.000Z</time>
        <extensions>
          <ns3:TrackPointExtension>
            <ns3:atemp>28.0</ns3:atemp>
            <ns3:hr>122</ns3:hr>
          </ns3:TrackPointExtension>
        </extensions>
      </trkpt>
      <trkpt lat="36.78035697899758815765380859375" lon="-118.422599472105503082275390625">
        <ele>3351.199951171875</ele>
        <time>2021-06-25T20:40:18.000Z</time>
        <extensions>
          <ns3:TrackPointExtension>
            <ns3:atemp>28.0</ns3:atemp>
            <ns3:hr>121</ns3:hr>
          </ns3:TrackPointExtension>
        </extensions>
      </trkpt>
      <trkpt lat="36.78041062317788600921630859375" lon="-118.4226036630570888519287109375">
        <ele>3352</ele>
        <time>2021-06-25T20:40:25.000Z</time>
        <extensions>
          <ns3:TrackPointExtension>
            <ns3:atemp>29.0</ns3:atemp>
            <ns3:hr>120</ns3:hr>
          </ns3:TrackPointExtension>
        </extensions>
      </trkpt>
      <trkpt lat="36.78043208085000514984130859375" lon="-118.4226039983332157135009765625">
        <ele>3352.199951171875</ele>
        <time>2021-06-25T20:40:28.000Z</time>
        <extensions>
          <ns3:TrackPointExtension>
            <ns3:atemp>29.0</ns3:atemp>
            <ns3:hr>121</ns3:hr>
          </ns3:TrackPointExtension>
        </extensions>
      </trkpt>
      <trkpt lat="36.78049243055284023284912109375" lon="-118.42260559089481830596923828125">
        <ele>3353</ele>
        <time>2021-06-25T20:40:36.000Z</time>
        <extensions>
          <ns3:TrackPointExtension>
            <ns3:atemp>29.0</ns3:atemp>
            <ns3:hr>119</ns3:hr>
          </ns3:TrackPointExtension>
        </extensions>
      </trkpt>
      <trkpt lat="36.7805312387645244598388671875" lon="-118.42260307632386684417724609375">
        <ele>3353.199951171875</ele>
        <time>2021-06-25T20:40:41.000Z</time>
        <extensions>
          <ns3:TrackPointExtension>
            <ns3:atemp>29.0</ns3:atemp>
            <ns3:hr>119</ns3:hr>
          </ns3:TrackPointExtension>
        </extensions>
      </trkpt>
      <trkpt lat="36.7805783450603485107421875" lon="-118.4225996397435665130615234375">
        <ele>3353.800048828125</ele>
        <time>2021-06-25T20:40:47.000Z</time>
        <extensions>
          <ns3:TrackPointExtension>
            <ns3:atemp>29.0</ns3:atemp>
            <ns3:hr>116</ns3:hr>
          </ns3:TrackPointExtension>
        </extensions>
      </trkpt>
      <trkpt lat="36.78059955127537250518798828125" lon="-118.42260726727545261383056640625">
        <ele>3353.800048828125</ele>
        <time>2021-06-25T20:40:50.000Z</time>
        <extensions>
          <ns3:TrackPointExtension>
            <ns3:atemp>29.0</ns3:atemp>
            <ns3:hr>117</ns3:hr>
          </ns3:TrackPointExtension>
        </extensions>
      </trkpt>
      <trkpt lat="36.78063291124999523162841796875" lon="-118.4226086921989917755126953125">
        <ele>3354.199951171875</ele>
        <time>2021-06-25T20:40:54.000Z</time>
        <extensions>
          <ns3:TrackPointExtension>
            <ns3:atemp>29.0</ns3:atemp>
            <ns3:hr>118</ns3:hr>
          </ns3:TrackPointExtension>
        </extensions>
      </trkpt>
      <trkpt lat="36.78068655543029308319091796875" lon="-118.422620594501495361328125">
        <ele>3354</ele>
        <time>2021-06-25T20:41:00.000Z</time>
        <extensions>
          <ns3:TrackPointExtension>
            <ns3:atemp>29.0</ns3:atemp>
            <ns3:hr>117</ns3:hr>
          </ns3:TrackPointExtension>
        </extensions>
      </trkpt>
      <trkpt lat="36.7807082645595073699951171875" lon="-118.4226194210350513458251953125">
        <ele>3354</ele>
        <time>2021-06-25T20:41:02.000Z</time>
        <extensions>
          <ns3:TrackPointExtension>
            <ns3:atemp>29.0</ns3:atemp>
            <ns3:hr>117</ns3:hr>
          </ns3:TrackPointExtension>
        </extensions>
      </trkpt>
      <trkpt lat="36.7807580530643463134765625" lon="-118.422639705240726470947265625">
        <ele>3353.800048828125</ele>
        <time>2021-06-25T20:41:07.000Z</time>
        <extensions>
          <ns3:TrackPointExtension>
            <ns3:atemp>29.0</ns3:atemp>
            <ns3:hr>115</ns3:hr>
          </ns3:TrackPointExtension>
        </extensions>
      </trkpt>
      <trkpt lat="36.78079853765666484832763671875" lon="-118.42265085317194461822509765625">
        <ele>3354.39990234375</ele>
        <time>2021-06-25T20:41:13.000Z</time>
        <extensions>
          <ns3:TrackPointExtension>
            <ns3:atemp>29.0</ns3:atemp>
            <ns3:hr>115</ns3:hr>
          </ns3:TrackPointExtension>
        </extensions>
      </trkpt>
      <trkpt lat="36.7808111943304538726806640625" lon="-118.4226500988006591796875">
        <ele>3355</ele>
        <time>2021-06-25T20:41:15.000Z</time>
        <extensions>
          <ns3:TrackPointExtension>
            <ns3:atemp>29.0</ns3:atemp>
            <ns3:hr>114</ns3:hr>
          </ns3:TrackPointExtension>
        </extensions>
      </trkpt>
      <trkpt lat="36.78081748075783252716064453125" lon="-118.42265076935291290283203125">
        <ele>3355</ele>
        <time>2021-06-25T20:41:16.000Z</time>
        <extensions>
          <ns3:TrackPointExtension>
            <ns3:atemp>29.0</ns3:atemp>
            <ns3:hr>115</ns3:hr>
          </ns3:TrackPointExtension>
        </extensions>
      </trkpt>
      <trkpt lat="36.7808232642710208892822265625" lon="-118.42265076935291290283203125">
        <ele>3355.60009765625</ele>
        <time>2021-06-25T20:41:17.000Z</time>
        <extensions>
          <ns3:TrackPointExtension>
            <ns3:atemp>29.0</ns3:atemp>
            <ns3:hr>115</ns3:hr>
          </ns3:TrackPointExtension>
        </extensions>
      </trkpt>
      <trkpt lat="36.78087732754647731781005859375" lon="-118.42264163307845592498779296875">
        <ele>3356.60009765625</ele>
        <time>2021-06-25T20:41:25.000Z</time>
        <extensions>
          <ns3:TrackPointExtension>
            <ns3:atemp>29.0</ns3:atemp>
            <ns3:hr>115</ns3:hr>
          </ns3:TrackPointExtension>
        </extensions>
      </trkpt>
      <trkpt lat="36.780882440507411956787109375" lon="-118.42263869941234588623046875">
        <ele>3356.60009765625</ele>
        <time>2021-06-25T20:41:26.000Z</time>
        <extensions>
          <ns3:TrackPointExtension>
            <ns3:atemp>29.0</ns3:atemp>
            <ns3:hr>116</ns3:hr>
          </ns3:TrackPointExtension>
        </extensions>
      </trkpt>
      <trkpt lat="36.78089618682861328125" lon="-118.4226422198116779327392578125">
        <ele>3357</ele>
        <time>2021-06-25T20:41:33.000Z</time>
        <extensions>
          <ns3:TrackPointExtension>
            <ns3:atemp>29.0</ns3:atemp>
            <ns3:hr>116</ns3:hr>
          </ns3:TrackPointExtension>
        </extensions>
      </trkpt>
      <trkpt lat="36.78090062923729419708251953125" lon="-118.4226371906697750091552734375">
        <ele>3356.39990234375</ele>
        <time>2021-06-25T20:41:39.000Z</time>
        <extensions>
          <ns3:TrackPointExtension>
            <ns3:atemp>29.0</ns3:atemp>
            <ns3:hr>118</ns3:hr>
          </ns3:TrackPointExtension>
        </extensions>
      </trkpt>
      <trkpt lat="36.78090062923729419708251953125" lon="-118.4226371906697750091552734375">
        <ele>3356.60009765625</ele>
        <time>2021-06-25T20:41:47.000Z</time>
        <extensions>
          <ns3:TrackPointExtension>
            <ns3:atemp>29.0</ns3:atemp>
            <ns3:hr>122</ns3:hr>
          </ns3:TrackPointExtension>
        </extensions>
      </trkpt>
      <trkpt lat="36.78090062923729419708251953125" lon="-118.4226371906697750091552734375">
        <ele>3356.60009765625</ele>
        <time>2021-06-25T20:41:48.000Z</time>
        <extensions>
          <ns3:TrackPointExtension>
            <ns3:atemp>29.0</ns3:atemp>
            <ns3:hr>121</ns3:hr>
          </ns3:TrackPointExtension>
        </extensions>
      </trkpt>
      <trkpt lat="36.780900545418262481689453125" lon="-118.4226371906697750091552734375">
        <ele>3356.60009765625</ele>
        <time>2021-06-25T20:41:51.000Z</time>
        <extensions>
          <ns3:TrackPointExtension>
            <ns3:atemp>29.0</ns3:atemp>
            <ns3:hr>118</ns3:hr>
          </ns3:TrackPointExtension>
        </extensions>
      </trkpt>
      <trkpt lat="36.780900545418262481689453125" lon="-118.4226371906697750091552734375">
        <ele>3356.60009765625</ele>
        <time>2021-06-25T20:41:53.000Z</time>
        <extensions>
          <ns3:TrackPointExtension>
            <ns3:atemp>29.0</ns3:atemp>
            <ns3:hr>114</ns3:hr>
          </ns3:TrackPointExtension>
        </extensions>
      </trkpt>
      <trkpt lat="36.780900545418262481689453125" lon="-118.42263727448880672454833984375">
        <ele>3357</ele>
        <time>2021-06-25T20:41:56.000Z</time>
        <extensions>
          <ns3:TrackPointExtension>
            <ns3:atemp>29.0</ns3:atemp>
            <ns3:hr>111</ns3:hr>
          </ns3:TrackPointExtension>
        </extensions>
      </trkpt>
      <trkpt lat="36.780926696956157684326171875" lon="-118.422638364136219024658203125">
        <ele>3357.60009765625</ele>
        <time>2021-06-25T20:42:09.000Z</time>
        <extensions>
          <ns3:TrackPointExtension>
            <ns3:atemp>29.0</ns3:atemp>
            <ns3:hr>114</ns3:hr>
          </ns3:TrackPointExtension>
        </extensions>
      </trkpt>
      <trkpt lat="36.78092912770807743072509765625" lon="-118.42263878323137760162353515625">
        <ele>3358.39990234375</ele>
        <time>2021-06-25T20:42:10.000Z</time>
        <extensions>
          <ns3:TrackPointExtension>
            <ns3:atemp>29.0</ns3:atemp>
            <ns3:hr>114</ns3:hr>
          </ns3:TrackPointExtension>
        </extensions>
      </trkpt>
      <trkpt lat="36.78095326758921146392822265625" lon="-118.42264381237328052520751953125">
        <ele>3359.39990234375</ele>
        <time>2021-06-25T20:42:19.000Z</time>
        <extensions>
          <ns3:TrackPointExtension>
            <ns3:atemp>29.0</ns3:atemp>
            <ns3:hr>116</ns3:hr>
          </ns3:TrackPointExtension>
        </extensions>
      </trkpt>
      <trkpt lat="36.78098310716450214385986328125" lon="-118.42264615930616855621337890625">
        <ele>3360</ele>
        <time>2021-06-25T20:42:23.000Z</time>
        <extensions>
          <ns3:TrackPointExtension>
            <ns3:atemp>29.0</ns3:atemp>
            <ns3:hr>119</ns3:hr>
          </ns3:TrackPointExtension>
        </extensions>
      </trkpt>
      <trkpt lat="36.78105921484529972076416015625" lon="-118.42261791229248046875">
        <ele>3360.199951171875</ele>
        <time>2021-06-25T20:42:27.000Z</time>
        <extensions>
          <ns3:TrackPointExtension>
            <ns3:atemp>29.0</ns3:atemp>
            <ns3:hr>122</ns3:hr>
          </ns3:TrackPointExtension>
        </extensions>
      </trkpt>
      <trkpt lat="36.78107522428035736083984375" lon="-118.42260994948446750640869140625">
        <ele>3360.39990234375</ele>
        <time>2021-06-25T20:42:28.000Z</time>
        <extensions>
          <ns3:TrackPointExtension>
            <ns3:atemp>29.0</ns3:atemp>
            <ns3:hr>125</ns3:hr>
          </ns3:TrackPointExtension>
        </extensions>
      </trkpt>
      <trkpt lat="36.7810911498963832855224609375" lon="-118.42260559089481830596923828125">
        <ele>3360.39990234375</ele>
        <time>2021-06-25T20:42:29.000Z</time>
        <extensions>
          <ns3:TrackPointExtension>
            <ns3:atemp>29.0</ns3:atemp>
            <ns3:hr>128</ns3:hr>
          </ns3:TrackPointExtension>
        </extensions>
      </trkpt>
      <trkpt lat="36.78112744353711605072021484375" lon="-118.4226016514003276824951171875">
        <ele>3360.60009765625</ele>
        <time>2021-06-25T20:42:31.000Z</time>
        <extensions>
          <ns3:TrackPointExtension>
            <ns3:atemp>29.0</ns3:atemp>
            <ns3:hr>123</ns3:hr>
          </ns3:TrackPointExtension>
        </extensions>
      </trkpt>
      <trkpt lat="36.781166084110736846923828125" lon="-118.42259000055491924285888671875">
        <ele>3361.60009765625</ele>
        <time>2021-06-25T20:42:36.000Z</time>
        <extensions>
          <ns3:TrackPointExtension>
            <ns3:atemp>29.0</ns3:atemp>
            <ns3:hr>121</ns3:hr>
          </ns3:TrackPointExtension>
        </extensions>
      </trkpt>
      <trkpt lat="36.78118209354579448699951171875" lon="-118.42258731834590435028076171875">
        <ele>3362</ele>
        <time>2021-06-25T20:42:38.000Z</time>
        <extensions>
          <ns3:TrackPointExtension>
            <ns3:atemp>29.0</ns3:atemp>
            <ns3:hr>120</ns3:hr>
          </ns3:TrackPointExtension>
        </extensions>
      </trkpt>
      <trkpt lat="36.7812423594295978546142578125" lon="-118.42258648015558719635009765625">
        <ele>3362.39990234375</ele>
        <time>2021-06-25T20:42:46.000Z</time>
        <extensions>
          <ns3:TrackPointExtension>
            <ns3:atemp>29.0</ns3:atemp>
            <ns3:hr>118</ns3:hr>
          </ns3:TrackPointExtension>
        </extensions>
      </trkpt>
      <trkpt lat="36.7813097499310970306396484375" lon="-118.42259980738162994384765625">
        <ele>3363</ele>
        <time>2021-06-25T20:42:55.000Z</time>
        <extensions>
          <ns3:TrackPointExtension>
            <ns3:atemp>30.0</ns3:atemp>
            <ns3:hr>117</ns3:hr>
          </ns3:TrackPointExtension>
        </extensions>
      </trkpt>
      <trkpt lat="36.7813147790729999542236328125" lon="-118.4226004779338836669921875">
        <ele>3363.199951171875</ele>
        <time>2021-06-25T20:42:56.000Z</time>
        <extensions>
          <ns3:TrackPointExtension>
            <ns3:atemp>29.0</ns3:atemp>
            <ns3:hr>115</ns3:hr>
          </ns3:TrackPointExtension>
        </extensions>
      </trkpt>
      <trkpt lat="36.78136213682591915130615234375" lon="-118.422604836523532867431640625">
        <ele>3362.800048828125</ele>
        <time>2021-06-25T20:43:05.000Z</time>
        <extensions>
          <ns3:TrackPointExtension>
            <ns3:atemp>29.0</ns3:atemp>
            <ns3:hr>115</ns3:hr>
          </ns3:TrackPointExtension>
        </extensions>
      </trkpt>
      <trkpt lat="36.7813597060739994049072265625" lon="-118.42261564917862415313720703125">
        <ele>3362.800048828125</ele>
        <time>2021-06-25T20:43:09.000Z</time>
        <extensions>
          <ns3:TrackPointExtension>
            <ns3:atemp>29.0</ns3:atemp>
            <ns3:hr>112</ns3:hr>
          </ns3:TrackPointExtension>
        </extensions>
      </trkpt>
      <trkpt lat="36.78135744296014308929443359375" lon="-118.4226137213408946990966796875">
        <ele>3362.800048828125</ele>
        <time>2021-06-25T20:43:13.000Z</time>
        <extensions>
          <ns3:TrackPointExtension>
            <ns3:atemp>29.0</ns3:atemp>
            <ns3:hr>109</ns3:hr>
          </ns3:TrackPointExtension>
        </extensions>
      </trkpt>
      <trkpt lat="36.78135744296014308929443359375" lon="-118.4226137213408946990966796875">
        <ele>3363.199951171875</ele>
        <time>2021-06-25T20:43:19.000Z</time>
        <extensions>
          <ns3:TrackPointExtension>
            <ns3:atemp>29.0</ns3:atemp>
            <ns3:hr>105</ns3:hr>
          </ns3:TrackPointExtension>
        </extensions>
      </trkpt>
      <trkpt lat="36.78135744296014308929443359375" lon="-118.4226137213408946990966796875">
        <ele>3363</ele>
        <time>2021-06-25T20:43:21.000Z</time>
        <extensions>
          <ns3:TrackPointExtension>
            <ns3:atemp>29.0</ns3:atemp>
            <ns3:hr>108</ns3:hr>
          </ns3:TrackPointExtension>
        </extensions>
      </trkpt>
      <trkpt lat="36.78134973160922527313232421875" lon="-118.4226113744080066680908203125">
        <ele>3363.39990234375</ele>
        <time>2021-06-25T20:43:39.000Z</time>
        <extensions>
          <ns3:TrackPointExtension>
            <ns3:atemp>29.0</ns3:atemp>
            <ns3:hr>111</ns3:hr>
          </ns3:TrackPointExtension>
        </extensions>
      </trkpt>
      <trkpt lat="36.7813469655811786651611328125" lon="-118.42261145822703838348388671875">
        <ele>3363.60009765625</ele>
        <time>2021-06-25T20:43:40.000Z</time>
        <extensions>
          <ns3:TrackPointExtension>
            <ns3:atemp>29.0</ns3:atemp>
            <ns3:hr>111</ns3:hr>
          </ns3:TrackPointExtension>
        </extensions>
      </trkpt>
      <trkpt lat="36.7813427746295928955078125" lon="-118.4226110391318798065185546875">
        <ele>3363.60009765625</ele>
        <time>2021-06-25T20:43:44.000Z</time>
        <extensions>
          <ns3:TrackPointExtension>
            <ns3:atemp>29.0</ns3:atemp>
            <ns3:hr>114</ns3:hr>
          </ns3:TrackPointExtension>
        </extensions>
      </trkpt>
      <trkpt lat="36.78133539855480194091796875" lon="-118.422611542046070098876953125">
        <ele>3363.60009765625</ele>
        <time>2021-06-25T20:43:52.000Z</time>
        <extensions>
          <ns3:TrackPointExtension>
            <ns3:atemp>29.0</ns3:atemp>
            <ns3:hr>111</ns3:hr>
          </ns3:TrackPointExtension>
        </extensions>
      </trkpt>
      <trkpt lat="36.78133347071707248687744140625" lon="-118.42261212877929210662841796875">
        <ele>3363.60009765625</ele>
        <time>2021-06-25T20:43:57.000Z</time>
        <extensions>
          <ns3:TrackPointExtension>
            <ns3:atemp>29.0</ns3:atemp>
            <ns3:hr>108</ns3:hr>
          </ns3:TrackPointExtension>
        </extensions>
      </trkpt>
      <trkpt lat="36.7813318781554698944091796875" lon="-118.4226120449602603912353515625">
        <ele>3363.60009765625</ele>
        <time>2021-06-25T20:44:15.000Z</time>
        <extensions>
          <ns3:TrackPointExtension>
            <ns3:atemp>29.0</ns3:atemp>
            <ns3:hr>111</ns3:hr>
          </ns3:TrackPointExtension>
        </extensions>
      </trkpt>
      <trkpt lat="36.78133548237383365631103515625" lon="-118.4226120449602603912353515625">
        <ele>3363.60009765625</ele>
        <time>2021-06-25T20:44:20.000Z</time>
        <extensions>
          <ns3:TrackPointExtension>
            <ns3:atemp>29.0</ns3:atemp>
            <ns3:hr>108</ns3:hr>
          </ns3:TrackPointExtension>
        </extensions>
      </trkpt>
      <trkpt lat="36.7813365720212459564208984375" lon="-118.4226085245609283447265625">
        <ele>3363.60009765625</ele>
        <time>2021-06-25T20:44:27.000Z</time>
        <extensions>
          <ns3:TrackPointExtension>
            <ns3:atemp>29.0</ns3:atemp>
            <ns3:hr>105</ns3:hr>
          </ns3:TrackPointExtension>
        </extensions>
      </trkpt>
      <trkpt lat="36.781337074935436248779296875" lon="-118.42260592617094516754150390625">
        <ele>3363.60009765625</ele>
        <time>2021-06-25T20:44:37.000Z</time>
        <extensions>
          <ns3:TrackPointExtension>
            <ns3:atemp>29.0</ns3:atemp>
            <ns3:hr>105</ns3:hr>
          </ns3:TrackPointExtension>
        </extensions>
      </trkpt>
      <trkpt lat="36.7813342250883579254150390625" lon="-118.4226110391318798065185546875">
        <ele>3363.60009765625</ele>
        <time>2021-06-25T20:44:53.000Z</time>
        <extensions>
          <ns3:TrackPointExtension>
            <ns3:atemp>29.0</ns3:atemp>
            <ns3:hr>102</ns3:hr>
          </ns3:TrackPointExtension>
        </extensions>
      </trkpt>
      <trkpt lat="36.78133464418351650238037109375" lon="-118.4226110391318798065185546875">
        <ele>3363.60009765625</ele>
        <time>2021-06-25T20:44:55.000Z</time>
        <extensions>
          <ns3:TrackPointExtension>
            <ns3:atemp>29.0</ns3:atemp>
            <ns3:hr>99</ns3:hr>
          </ns3:TrackPointExtension>
        </extensions>
      </trkpt>
      <trkpt lat="36.78133497945964336395263671875" lon="-118.4226110391318798065185546875">
        <ele>3363.60009765625</ele>
        <time>2021-06-25T20:44:57.000Z</time>
        <extensions>
          <ns3:TrackPointExtension>
            <ns3:atemp>29.0</ns3:atemp>
            <ns3:hr>96</ns3:hr>
          </ns3:TrackPointExtension>
        </extensions>
      </trkpt>
      <trkpt lat="36.78133514709770679473876953125" lon="-118.4226110391318798065185546875">
        <ele>3363.60009765625</ele>
        <time>2021-06-25T20:45:03.000Z</time>
        <extensions>
          <ns3:TrackPointExtension>
            <ns3:atemp>29.0</ns3:atemp>
            <ns3:hr>93</ns3:hr>
          </ns3:TrackPointExtension>
        </extensions>
      </trkpt>
      <trkpt lat="36.78140505217015743255615234375" lon="-118.4226298145949840545654296875">
        <ele>3363.60009765625</ele>
        <time>2021-06-25T20:45:08.000Z</time>
        <extensions>
          <ns3:TrackPointExtension>
            <ns3:atemp>30.0</ns3:atemp>
            <ns3:hr>92</ns3:hr>
          </ns3:TrackPointExtension>
        </extensions>
      </trkpt>
      <trkpt lat="36.78150228224694728851318359375" lon="-118.42265789397060871124267578125">
        <ele>3363.60009765625</ele>
        <time>2021-06-25T20:45:15.000Z</time>
        <extensions>
          <ns3:TrackPointExtension>
            <ns3:atemp>30.0</ns3:atemp>
            <ns3:hr>94</ns3:hr>
          </ns3:TrackPointExtension>
        </extensions>
      </trkpt>
      <trkpt lat="36.781568415462970733642578125" lon="-118.422704078257083892822265625">
        <ele>3364.39990234375</ele>
        <time>2021-06-25T20:45:22.000Z</time>
        <extensions>
          <ns3:TrackPointExtension>
            <ns3:atemp>30.0</ns3:atemp>
            <ns3:hr>93</ns3:hr>
          </ns3:TrackPointExtension>
        </extensions>
      </trkpt>
      <trkpt lat="36.781606972217559814453125" lon="-118.4227267093956470489501953125">
        <ele>3364.39990234375</ele>
        <time>2021-06-25T20:45:26.000Z</time>
        <extensions>
          <ns3:TrackPointExtension>
            <ns3:atemp>30.0</ns3:atemp>
            <ns3:hr>92</ns3:hr>
          </ns3:TrackPointExtension>
        </extensions>
      </trkpt>
      <trkpt lat="36.78164293058216571807861328125" lon="-118.4227453172206878662109375">
        <ele>3364.199951171875</ele>
        <time>2021-06-25T20:45:29.000Z</time>
        <extensions>
          <ns3:TrackPointExtension>
            <ns3:atemp>30.0</ns3:atemp>
            <ns3:hr>89</ns3:hr>
          </ns3:TrackPointExtension>
        </extensions>
      </trkpt>
      <trkpt lat="36.78165256977081298828125" lon="-118.42275009490549564361572265625">
        <ele>3364.39990234375</ele>
        <time>2021-06-25T20:45:30.000Z</time>
        <extensions>
          <ns3:TrackPointExtension>
            <ns3:atemp>30.0</ns3:atemp>
            <ns3:hr>93</ns3:hr>
          </ns3:TrackPointExtension>
        </extensions>
      </trkpt>
      <trkpt lat="36.78172431886196136474609375" lon="-118.42275311239063739776611328125">
        <ele>3364.60009765625</ele>
        <time>2021-06-25T20:45:36.000Z</time>
        <extensions>
          <ns3:TrackPointExtension>
            <ns3:atemp>30.0</ns3:atemp>
            <ns3:hr>91</ns3:hr>
          </ns3:TrackPointExtension>
        </extensions>
      </trkpt>
      <trkpt lat="36.781793050467967987060546875" lon="-118.4227441437542438507080078125">
        <ele>3364.60009765625</ele>
        <time>2021-06-25T20:45:42.000Z</time>
        <extensions>
          <ns3:TrackPointExtension>
            <ns3:atemp>30.0</ns3:atemp>
            <ns3:hr>94</ns3:hr>
          </ns3:TrackPointExtension>
        </extensions>
      </trkpt>
      <trkpt lat="36.7818254046142101287841796875" lon="-118.42273551039397716522216796875">
        <ele>3364.60009765625</ele>
        <time>2021-06-25T20:45:45.000Z</time>
        <extensions>
          <ns3:TrackPointExtension>
            <ns3:atemp>30.0</ns3:atemp>
            <ns3:hr>97</ns3:hr>
          </ns3:TrackPointExtension>
        </extensions>
      </trkpt>
      <trkpt lat="36.78189153783023357391357421875" lon="-118.42272411100566387176513671875">
        <ele>3364.800048828125</ele>
        <time>2021-06-25T20:45:51.000Z</time>
        <extensions>
          <ns3:TrackPointExtension>
            <ns3:atemp>30.0</ns3:atemp>
            <ns3:hr>96</ns3:hr>
          </ns3:TrackPointExtension>
        </extensions>
      </trkpt>
      <trkpt lat="36.78190830163657665252685546875" lon="-118.4227240271866321563720703125">
        <ele>3364.60009765625</ele>
        <time>2021-06-25T20:45:53.000Z</time>
        <extensions>
          <ns3:TrackPointExtension>
            <ns3:atemp>30.0</ns3:atemp>
            <ns3:hr>93</ns3:hr>
          </ns3:TrackPointExtension>
        </extensions>
      </trkpt>
      <trkpt lat="36.781926490366458892822265625" lon="-118.422730900347232818603515625">
        <ele>3364.39990234375</ele>
        <time>2021-06-25T20:45:55.000Z</time>
        <extensions>
          <ns3:TrackPointExtension>
            <ns3:atemp>30.0</ns3:atemp>
            <ns3:hr>96</ns3:hr>
          </ns3:TrackPointExtension>
        </extensions>
      </trkpt>
      <trkpt lat="36.7819360457360744476318359375" lon="-118.422732241451740264892578125">
        <ele>3364.199951171875</ele>
        <time>2021-06-25T20:45:56.000Z</time>
        <extensions>
          <ns3:TrackPointExtension>
            <ns3:atemp>30.0</ns3:atemp>
            <ns3:hr>97</ns3:hr>
          </ns3:TrackPointExtension>
        </extensions>
      </trkpt>
      <trkpt lat="36.7819757759571075439453125" lon="-118.4227119572460651397705078125">
        <ele>3363.60009765625</ele>
        <time>2021-06-25T20:46:01.000Z</time>
        <extensions>
          <ns3:TrackPointExtension>
            <ns3:atemp>30.0</ns3:atemp>
            <ns3:hr>94</ns3:hr>
          </ns3:TrackPointExtension>
        </extensions>
      </trkpt>
      <trkpt lat="36.78198507986962795257568359375" lon="-118.42270910739898681640625">
        <ele>3363.60009765625</ele>
        <time>2021-06-25T20:46:02.000Z</time>
        <extensions>
          <ns3:TrackPointExtension>
            <ns3:atemp>30.0</ns3:atemp>
            <ns3:hr>93</ns3:hr>
          </ns3:TrackPointExtension>
        </extensions>
      </trkpt>
      <trkpt lat="36.78203218616545200347900390625" lon="-118.422692008316516876220703125">
        <ele>3363.39990234375</ele>
        <time>2021-06-25T20:46:07.000Z</time>
        <extensions>
          <ns3:TrackPointExtension>
            <ns3:atemp>30.0</ns3:atemp>
            <ns3:hr>90</ns3:hr>
          </ns3:TrackPointExtension>
        </extensions>
      </trkpt>
      <trkpt lat="36.78206169046461582183837890625" lon="-118.42267348431050777435302734375">
        <ele>3363.39990234375</ele>
        <time>2021-06-25T20:46:10.000Z</time>
        <extensions>
          <ns3:TrackPointExtension>
            <ns3:atemp>30.0</ns3:atemp>
            <ns3:hr>87</ns3:hr>
          </ns3:TrackPointExtension>
        </extensions>
      </trkpt>
      <trkpt lat="36.7820805497467517852783203125" lon="-118.42265822924673557281494140625">
        <ele>3363.39990234375</ele>
        <time>2021-06-25T20:46:12.000Z</time>
        <extensions>
          <ns3:TrackPointExtension>
            <ns3:atemp>30.0</ns3:atemp>
            <ns3:hr>86</ns3:hr>
          </ns3:TrackPointExtension>
        </extensions>
      </trkpt>
      <trkpt lat="36.7821201123297214508056640625" lon="-118.4226318262517452239990234375">
        <ele>3363.199951171875</ele>
        <time>2021-06-25T20:46:17.000Z</time>
        <extensions>
          <ns3:TrackPointExtension>
            <ns3:atemp>30.0</ns3:atemp>
            <ns3:hr>89</ns3:hr>
          </ns3:TrackPointExtension>
        </extensions>
      </trkpt>
      <trkpt lat="36.78213964216411113739013671875" lon="-118.4226254560053348541259765625">
        <ele>3363.199951171875</ele>
        <time>2021-06-25T20:46:19.000Z</time>
        <extensions>
          <ns3:TrackPointExtension>
            <ns3:atemp>30.0</ns3:atemp>
            <ns3:hr>85</ns3:hr>
          </ns3:TrackPointExtension>
        </extensions>
      </trkpt>
      <trkpt lat="36.78215540014207363128662109375" lon="-118.42261246405541896820068359375">
        <ele>3363.199951171875</ele>
        <time>2021-06-25T20:46:21.000Z</time>
        <extensions>
          <ns3:TrackPointExtension>
            <ns3:atemp>30.0</ns3:atemp>
            <ns3:hr>89</ns3:hr>
          </ns3:TrackPointExtension>
        </extensions>
      </trkpt>
      <trkpt lat="36.7821844853460788726806640625" lon="-118.4225892461836338043212890625">
        <ele>3363.199951171875</ele>
        <time>2021-06-25T20:46:24.000Z</time>
        <extensions>
          <ns3:TrackPointExtension>
            <ns3:atemp>30.0</ns3:atemp>
            <ns3:hr>88</ns3:hr>
          </ns3:TrackPointExtension>
        </extensions>
      </trkpt>
      <trkpt lat="36.782200746238231658935546875" lon="-118.4225761704146862030029296875">
        <ele>3363.39990234375</ele>
        <time>2021-06-25T20:46:26.000Z</time>
        <extensions>
          <ns3:TrackPointExtension>
            <ns3:atemp>30.0</ns3:atemp>
            <ns3:hr>87</ns3:hr>
          </ns3:TrackPointExtension>
        </extensions>
      </trkpt>
      <trkpt lat="36.78221407346427440643310546875" lon="-118.42257642187178134918212890625">
        <ele>3363.39990234375</ele>
        <time>2021-06-25T20:46:28.000Z</time>
        <extensions>
          <ns3:TrackPointExtension>
            <ns3:atemp>30.0</ns3:atemp>
            <ns3:hr>86</ns3:hr>
          </ns3:TrackPointExtension>
        </extensions>
      </trkpt>
      <trkpt lat="36.78227928467094898223876953125" lon="-118.42256619594991207122802734375">
        <ele>3361.800048828125</ele>
        <time>2021-06-25T20:46:36.000Z</time>
        <extensions>
          <ns3:TrackPointExtension>
            <ns3:atemp>30.0</ns3:atemp>
            <ns3:hr>86</ns3:hr>
          </ns3:TrackPointExtension>
        </extensions>
      </trkpt>
      <trkpt lat="36.78231147117912769317626953125" lon="-118.4225617535412311553955078125">
        <ele>3361.39990234375</ele>
        <time>2021-06-25T20:46:39.000Z</time>
        <extensions>
          <ns3:TrackPointExtension>
            <ns3:atemp>30.0</ns3:atemp>
            <ns3:hr>87</ns3:hr>
          </ns3:TrackPointExtension>
        </extensions>
      </trkpt>
      <trkpt lat="36.7823527939617633819580078125" lon="-118.42254037968814373016357421875">
        <ele>3360.800048828125</ele>
        <time>2021-06-25T20:46:43.000Z</time>
        <extensions>
          <ns3:TrackPointExtension>
            <ns3:atemp>30.0</ns3:atemp>
            <ns3:hr>87</ns3:hr>
          </ns3:TrackPointExtension>
        </extensions>
      </trkpt>
      <trkpt lat="36.7823957093060016632080078125" lon="-118.4225228615105152130126953125">
        <ele>3360.39990234375</ele>
        <time>2021-06-25T20:46:48.000Z</time>
        <extensions>
          <ns3:TrackPointExtension>
            <ns3:atemp>30.0</ns3:atemp>
            <ns3:hr>85</ns3:hr>
          </ns3:TrackPointExtension>
        </extensions>
      </trkpt>
      <trkpt lat="36.78245396353304386138916015625" lon="-118.4225017391145229339599609375">
        <ele>3360</ele>
        <time>2021-06-25T20:46:54.000Z</time>
        <extensions>
          <ns3:TrackPointExtension>
            <ns3:atemp>30.0</ns3:atemp>
            <ns3:hr>89</ns3:hr>
          </ns3:TrackPointExtension>
        </extensions>
      </trkpt>
      <trkpt lat="36.78248933516442775726318359375" lon="-118.4224843047559261322021484375">
        <ele>3360.199951171875</ele>
        <time>2021-06-25T20:46:57.000Z</time>
        <extensions>
          <ns3:TrackPointExtension>
            <ns3:atemp>30.0</ns3:atemp>
            <ns3:hr>88</ns3:hr>
          </ns3:TrackPointExtension>
        </extensions>
      </trkpt>
      <trkpt lat="36.78254549391567707061767578125" lon="-118.4224695526063442230224609375">
        <ele>3359.800048828125</ele>
        <time>2021-06-25T20:47:03.000Z</time>
        <extensions>
          <ns3:TrackPointExtension>
            <ns3:atemp>30.0</ns3:atemp>
            <ns3:hr>90</ns3:hr>
          </ns3:TrackPointExtension>
        </extensions>
      </trkpt>
      <trkpt lat="36.7826007306575775146484375" lon="-118.4224501065909862518310546875">
        <ele>3358.800048828125</ele>
        <time>2021-06-25T20:47:08.000Z</time>
        <extensions>
          <ns3:TrackPointExtension>
            <ns3:atemp>30.0</ns3:atemp>
            <ns3:hr>91</ns3:hr>
          </ns3:TrackPointExtension>
        </extensions>
      </trkpt>
      <trkpt lat="36.78261036984622478485107421875" lon="-118.42244901694357395172119140625">
        <ele>3358.60009765625</ele>
        <time>2021-06-25T20:47:09.000Z</time>
        <extensions>
          <ns3:TrackPointExtension>
            <ns3:atemp>30.0</ns3:atemp>
            <ns3:hr>91</ns3:hr>
          </ns3:TrackPointExtension>
        </extensions>
      </trkpt>
      <trkpt lat="36.78266049362719058990478515625" lon="-118.4224584884941577911376953125">
        <ele>3357.800048828125</ele>
        <time>2021-06-25T20:47:14.000Z</time>
        <extensions>
          <ns3:TrackPointExtension>
            <ns3:atemp>30.0</ns3:atemp>
            <ns3:hr>88</ns3:hr>
          </ns3:TrackPointExtension>
        </extensions>
      </trkpt>
      <trkpt lat="36.782706677913665771484375" lon="-118.42245823703706264495849609375">
        <ele>3357.800048828125</ele>
        <time>2021-06-25T20:47:18.000Z</time>
        <extensions>
          <ns3:TrackPointExtension>
            <ns3:atemp>30.0</ns3:atemp>
            <ns3:hr>87</ns3:hr>
          </ns3:TrackPointExtension>
        </extensions>
      </trkpt>
      <trkpt lat="36.78273995406925678253173828125" lon="-118.4224524535238742828369140625">
        <ele>3357.60009765625</ele>
        <time>2021-06-25T20:47:21.000Z</time>
        <extensions>
          <ns3:TrackPointExtension>
            <ns3:atemp>30.0</ns3:atemp>
            <ns3:hr>85</ns3:hr>
          </ns3:TrackPointExtension>
        </extensions>
      </trkpt>
      <trkpt lat="36.78275504149496555328369140625" lon="-118.422455303370952606201171875">
        <ele>3357.39990234375</ele>
        <time>2021-06-25T20:47:23.000Z</time>
        <extensions>
          <ns3:TrackPointExtension>
            <ns3:atemp>30.0</ns3:atemp>
            <ns3:hr>83</ns3:hr>
          </ns3:TrackPointExtension>
        </extensions>
      </trkpt>
      <trkpt lat="36.78276862017810344696044921875" lon="-118.42246008105576038360595703125">
        <ele>3357.199951171875</ele>
        <time>2021-06-25T20:47:25.000Z</time>
        <extensions>
          <ns3:TrackPointExtension>
            <ns3:atemp>30.0</ns3:atemp>
            <ns3:hr>82</ns3:hr>
          </ns3:TrackPointExtension>
        </extensions>
      </trkpt>
      <trkpt lat="36.78277633152902126312255859375" lon="-118.4224608354270458221435546875">
        <ele>3357</ele>
        <time>2021-06-25T20:47:26.000Z</time>
        <extensions>
          <ns3:TrackPointExtension>
            <ns3:atemp>30.0</ns3:atemp>
            <ns3:hr>82</ns3:hr>
          </ns3:TrackPointExtension>
        </extensions>
      </trkpt>
      <trkpt lat="36.78279586136341094970703125" lon="-118.42246594838798046112060546875">
        <ele>3356.39990234375</ele>
        <time>2021-06-25T20:47:28.000Z</time>
        <extensions>
          <ns3:TrackPointExtension>
            <ns3:atemp>29.0</ns3:atemp>
            <ns3:hr>82</ns3:hr>
          </ns3:TrackPointExtension>
        </extensions>
      </trkpt>
      <trkpt lat="36.782846152782440185546875" lon="-118.422455303370952606201171875">
        <ele>3356</ele>
        <time>2021-06-25T20:47:33.000Z</time>
        <extensions>
          <ns3:TrackPointExtension>
            <ns3:atemp>29.0</ns3:atemp>
            <ns3:hr>82</ns3:hr>
          </ns3:TrackPointExtension>
        </extensions>
      </trkpt>
      <trkpt lat="36.7828821949660778045654296875" lon="-118.4224561415612697601318359375">
        <ele>3355.199951171875</ele>
        <time>2021-06-25T20:47:37.000Z</time>
        <extensions>
          <ns3:TrackPointExtension>
            <ns3:atemp>29.0</ns3:atemp>
            <ns3:hr>82</ns3:hr>
          </ns3:TrackPointExtension>
        </extensions>
      </trkpt>
      <trkpt lat="36.78293357603251934051513671875" lon="-118.4224772639572620391845703125">
        <ele>3354.39990234375</ele>
        <time>2021-06-25T20:47:43.000Z</time>
        <extensions>
          <ns3:TrackPointExtension>
            <ns3:atemp>29.0</ns3:atemp>
            <ns3:hr>82</ns3:hr>
          </ns3:TrackPointExtension>
        </extensions>
      </trkpt>
      <trkpt lat="36.78295008838176727294921875" lon="-118.42249386012554168701171875">
        <ele>3354.199951171875</ele>
        <time>2021-06-25T20:47:46.000Z</time>
        <extensions>
          <ns3:TrackPointExtension>
            <ns3:atemp>29.0</ns3:atemp>
            <ns3:hr>81</ns3:hr>
          </ns3:TrackPointExtension>
        </extensions>
      </trkpt>
      <trkpt lat="36.78297129459679126739501953125" lon="-118.4225124679505825042724609375">
        <ele>3353.60009765625</ele>
        <time>2021-06-25T20:47:49.000Z</time>
        <extensions>
          <ns3:TrackPointExtension>
            <ns3:atemp>29.0</ns3:atemp>
            <ns3:hr>80</ns3:hr>
          </ns3:TrackPointExtension>
        </extensions>
      </trkpt>
      <trkpt lat="36.78299434483051300048828125" lon="-118.42252981849014759063720703125">
        <ele>3352.39990234375</ele>
        <time>2021-06-25T20:47:52.000Z</time>
        <extensions>
          <ns3:TrackPointExtension>
            <ns3:atemp>29.0</ns3:atemp>
            <ns3:hr>80</ns3:hr>
          </ns3:TrackPointExtension>
        </extensions>
      </trkpt>
      <trkpt lat="36.78299610503017902374267578125" lon="-118.4225419722497463226318359375">
        <ele>3352.39990234375</ele>
        <time>2021-06-25T20:47:53.000Z</time>
        <extensions>
          <ns3:TrackPointExtension>
            <ns3:atemp>29.0</ns3:atemp>
            <ns3:hr>80</ns3:hr>
          </ns3:TrackPointExtension>
        </extensions>
      </trkpt>
      <trkpt lat="36.78301286883652210235595703125" lon="-118.422556221485137939453125">
        <ele>3352.39990234375</ele>
        <time>2021-06-25T20:47:55.000Z</time>
        <extensions>
          <ns3:TrackPointExtension>
            <ns3:atemp>29.0</ns3:atemp>
            <ns3:hr>81</ns3:hr>
          </ns3:TrackPointExtension>
        </extensions>
      </trkpt>
      <trkpt lat="36.783019490540027618408203125" lon="-118.4225597418844699859619140625">
        <ele>3352.39990234375</ele>
        <time>2021-06-25T20:47:56.000Z</time>
        <extensions>
          <ns3:TrackPointExtension>
            <ns3:atemp>29.0</ns3:atemp>
            <ns3:hr>82</ns3:hr>
          </ns3:TrackPointExtension>
        </extensions>
      </trkpt>
      <trkpt lat="36.7830538563430309295654296875" lon="-118.42257172800600528717041015625">
        <ele>3352.800048828125</ele>
        <time>2021-06-25T20:47:59.000Z</time>
        <extensions>
          <ns3:TrackPointExtension>
            <ns3:atemp>29.0</ns3:atemp>
            <ns3:hr>85</ns3:hr>
          </ns3:TrackPointExtension>
        </extensions>
      </trkpt>
      <trkpt lat="36.7830709554255008697509765625" lon="-118.42257139272987842559814453125">
        <ele>3352</ele>
        <time>2021-06-25T20:48:00.000Z</time>
        <extensions>
          <ns3:TrackPointExtension>
            <ns3:atemp>29.0</ns3:atemp>
            <ns3:hr>88</ns3:hr>
          </ns3:TrackPointExtension>
        </extensions>
      </trkpt>
      <trkpt lat="36.78309886716306209564208984375" lon="-118.4225714765489101409912109375">
        <ele>3352</ele>
        <time>2021-06-25T20:48:02.000Z</time>
        <extensions>
          <ns3:TrackPointExtension>
            <ns3:atemp>29.0</ns3:atemp>
            <ns3:hr>91</ns3:hr>
          </ns3:TrackPointExtension>
        </extensions>
      </trkpt>
      <trkpt lat="36.78311110474169254302978515625" lon="-118.4225811995565891265869140625">
        <ele>3351.800048828125</ele>
        <time>2021-06-25T20:48:04.000Z</time>
        <extensions>
          <ns3:TrackPointExtension>
            <ns3:atemp>29.0</ns3:atemp>
            <ns3:hr>95</ns3:hr>
          </ns3:TrackPointExtension>
        </extensions>
      </trkpt>
      <trkpt lat="36.78312149830162525177001953125" lon="-118.42258597724139690399169921875">
        <ele>3351.60009765625</ele>
        <time>2021-06-25T20:48:05.000Z</time>
        <extensions>
          <ns3:TrackPointExtension>
            <ns3:atemp>29.0</ns3:atemp>
            <ns3:hr>96</ns3:hr>
          </ns3:TrackPointExtension>
        </extensions>
      </trkpt>
      <trkpt lat="36.78314228542149066925048828125" lon="-118.42259318567812442779541015625">
        <ele>3351.60009765625</ele>
        <time>2021-06-25T20:48:07.000Z</time>
        <extensions>
          <ns3:TrackPointExtension>
            <ns3:atemp>29.0</ns3:atemp>
            <ns3:hr>99</ns3:hr>
          </ns3:TrackPointExtension>
        </extensions>
      </trkpt>
      <trkpt lat="36.7831604741513729095458984375" lon="-118.422604501247406005859375">
        <ele>3351.39990234375</ele>
        <time>2021-06-25T20:48:09.000Z</time>
        <extensions>
          <ns3:TrackPointExtension>
            <ns3:atemp>29.0</ns3:atemp>
            <ns3:hr>102</ns3:hr>
          </ns3:TrackPointExtension>
        </extensions>
      </trkpt>
      <trkpt lat="36.78318654187023639678955078125" lon="-118.42262168414890766143798828125">
        <ele>3351.199951171875</ele>
        <time>2021-06-25T20:48:12.000Z</time>
        <extensions>
          <ns3:TrackPointExtension>
            <ns3:atemp>29.0</ns3:atemp>
            <ns3:hr>105</ns3:hr>
          </ns3:TrackPointExtension>
        </extensions>
      </trkpt>
      <trkpt lat="36.7832069098949432373046875" lon="-118.42262805439531803131103515625">
        <ele>3351</ele>
        <time>2021-06-25T20:48:14.000Z</time>
        <extensions>
          <ns3:TrackPointExtension>
            <ns3:atemp>29.0</ns3:atemp>
            <ns3:hr>107</ns3:hr>
          </ns3:TrackPointExtension>
        </extensions>
      </trkpt>
      <trkpt lat="36.78324471227824687957763671875" lon="-118.4226594865322113037109375">
        <ele>3350.39990234375</ele>
        <time>2021-06-25T20:48:19.000Z</time>
        <extensions>
          <ns3:TrackPointExtension>
            <ns3:atemp>29.0</ns3:atemp>
            <ns3:hr>107</ns3:hr>
          </ns3:TrackPointExtension>
        </extensions>
      </trkpt>
      <trkpt lat="36.7832744680345058441162109375" lon="-118.42267868109047412872314453125">
        <ele>3350.199951171875</ele>
        <time>2021-06-25T20:48:23.000Z</time>
        <extensions>
          <ns3:TrackPointExtension>
            <ns3:atemp>29.0</ns3:atemp>
            <ns3:hr>105</ns3:hr>
          </ns3:TrackPointExtension>
        </extensions>
      </trkpt>
      <trkpt lat="36.7833462171256542205810546875" lon="-118.422733247280120849609375">
        <ele>3349.39990234375</ele>
        <time>2021-06-25T20:48:34.000Z</time>
        <extensions>
          <ns3:TrackPointExtension>
            <ns3:atemp>29.0</ns3:atemp>
            <ns3:hr>106</ns3:hr>
          </ns3:TrackPointExtension>
        </extensions>
      </trkpt>
      <trkpt lat="36.78334697149693965911865234375" lon="-118.42273115180432796478271484375">
        <ele>3349.39990234375</ele>
        <time>2021-06-25T20:48:35.000Z</time>
        <extensions>
          <ns3:TrackPointExtension>
            <ns3:atemp>29.0</ns3:atemp>
            <ns3:hr>106</ns3:hr>
          </ns3:TrackPointExtension>
        </extensions>
      </trkpt>
      <trkpt lat="36.78334596566855907440185546875" lon="-118.42273064889013767242431640625">
        <ele>3349.39990234375</ele>
        <time>2021-06-25T20:48:36.000Z</time>
        <extensions>
          <ns3:TrackPointExtension>
            <ns3:atemp>29.0</ns3:atemp>
            <ns3:hr>103</ns3:hr>
          </ns3:TrackPointExtension>
        </extensions>
      </trkpt>
      <trkpt lat="36.78334177471697330474853515625" lon="-118.4227287210524082183837890625">
        <ele>3349.199951171875</ele>
        <time>2021-06-25T20:48:44.000Z</time>
        <extensions>
          <ns3:TrackPointExtension>
            <ns3:atemp>29.0</ns3:atemp>
            <ns3:hr>102</ns3:hr>
          </ns3:TrackPointExtension>
        </extensions>
      </trkpt>
      <trkpt lat="36.78334814496338367462158203125" lon="-118.42271690256893634796142578125">
        <ele>3349</ele>
        <time>2021-06-25T20:48:52.000Z</time>
        <extensions>
          <ns3:TrackPointExtension>
            <ns3:atemp>29.0</ns3:atemp>
            <ns3:hr>99</ns3:hr>
          </ns3:TrackPointExtension>
        </extensions>
      </trkpt>
      <trkpt lat="36.7833438701927661895751953125" lon="-118.422707431018352508544921875">
        <ele>3348.800048828125</ele>
        <time>2021-06-25T20:49:01.000Z</time>
        <extensions>
          <ns3:TrackPointExtension>
            <ns3:atemp>29.0</ns3:atemp>
            <ns3:hr>102</ns3:hr>
          </ns3:TrackPointExtension>
        </extensions>
      </trkpt>
      <trkpt lat="36.78334060125052928924560546875" lon="-118.4227008931338787078857421875">
        <ele>3349.199951171875</ele>
        <time>2021-06-25T20:49:10.000Z</time>
        <extensions>
          <ns3:TrackPointExtension>
            <ns3:atemp>29.0</ns3:atemp>
            <ns3:hr>105</ns3:hr>
          </ns3:TrackPointExtension>
        </extensions>
      </trkpt>
      <trkpt lat="36.7833374999463558197021484375" lon="-118.42270868830382823944091796875">
        <ele>3349.39990234375</ele>
        <time>2021-06-25T20:49:19.000Z</time>
        <extensions>
          <ns3:TrackPointExtension>
            <ns3:atemp>30.0</ns3:atemp>
            <ns3:hr>106</ns3:hr>
          </ns3:TrackPointExtension>
        </extensions>
      </trkpt>
      <trkpt lat="36.7833374999463558197021484375" lon="-118.42272696085274219512939453125">
        <ele>3349.39990234375</ele>
        <time>2021-06-25T20:49:27.000Z</time>
        <extensions>
          <ns3:TrackPointExtension>
            <ns3:atemp>30.0</ns3:atemp>
            <ns3:hr>103</ns3:hr>
          </ns3:TrackPointExtension>
        </extensions>
      </trkpt>
      <trkpt lat="36.7833374999463558197021484375" lon="-118.42272696085274219512939453125">
        <ele>3349.39990234375</ele>
        <time>2021-06-25T20:49:30.000Z</time>
        <extensions>
          <ns3:TrackPointExtension>
            <ns3:atemp>30.0</ns3:atemp>
            <ns3:hr>101</ns3:hr>
          </ns3:TrackPointExtension>
        </extensions>
      </trkpt>
      <trkpt lat="36.7833760567009449005126953125" lon="-118.42274808324873447418212890625">
        <ele>3348.800048828125</ele>
        <time>2021-06-25T20:49:55.000Z</time>
        <extensions>
          <ns3:TrackPointExtension>
            <ns3:atemp>30.0</ns3:atemp>
            <ns3:hr>102</ns3:hr>
          </ns3:TrackPointExtension>
        </extensions>
      </trkpt>
      <trkpt lat="36.783378906548023223876953125" lon="-118.422734923660755157470703125">
        <ele>3348.800048828125</ele>
        <time>2021-06-25T20:50:09.000Z</time>
        <extensions>
          <ns3:TrackPointExtension>
            <ns3:atemp>30.0</ns3:atemp>
            <ns3:hr>99</ns3:hr>
          </ns3:TrackPointExtension>
        </extensions>
      </trkpt>
      <trkpt lat="36.7833810858428478240966796875" lon="-118.4227344207465648651123046875">
        <ele>3348.60009765625</ele>
        <time>2021-06-25T20:50:12.000Z</time>
        <extensions>
          <ns3:TrackPointExtension>
            <ns3:atemp>30.0</ns3:atemp>
            <ns3:hr>96</ns3:hr>
          </ns3:TrackPointExtension>
        </extensions>
      </trkpt>
      <trkpt lat="36.78338184021413326263427734375" lon="-118.42273433692753314971923828125">
        <ele>3348.39990234375</ele>
        <time>2021-06-25T20:50:16.000Z</time>
        <extensions>
          <ns3:TrackPointExtension>
            <ns3:atemp>30.0</ns3:atemp>
            <ns3:hr>92</ns3:hr>
          </ns3:TrackPointExtension>
        </extensions>
      </trkpt>
      <trkpt lat="36.7833812534809112548828125" lon="-118.42273433692753314971923828125">
        <ele>3348.39990234375</ele>
        <time>2021-06-25T20:50:18.000Z</time>
        <extensions>
          <ns3:TrackPointExtension>
            <ns3:atemp>30.0</ns3:atemp>
            <ns3:hr>89</ns3:hr>
          </ns3:TrackPointExtension>
        </extensions>
      </trkpt>
      <trkpt lat="36.78338066674768924713134765625" lon="-118.42273433692753314971923828125">
        <ele>3348.39990234375</ele>
        <time>2021-06-25T20:50:20.000Z</time>
        <extensions>
          <ns3:TrackPointExtension>
            <ns3:atemp>30.0</ns3:atemp>
            <ns3:hr>86</ns3:hr>
          </ns3:TrackPointExtension>
        </extensions>
      </trkpt>
      <trkpt lat="36.78338049910962581634521484375" lon="-118.42273433692753314971923828125">
        <ele>3348.39990234375</ele>
        <time>2021-06-25T20:50:22.000Z</time>
        <extensions>
          <ns3:TrackPointExtension>
            <ns3:atemp>30.0</ns3:atemp>
            <ns3:hr>84</ns3:hr>
          </ns3:TrackPointExtension>
        </extensions>
      </trkpt>
      <trkpt lat="36.783382929861545562744140625" lon="-118.42273953370749950408935546875">
        <ele>3348.39990234375</ele>
        <time>2021-06-25T20:50:28.000Z</time>
        <extensions>
          <ns3:TrackPointExtension>
            <ns3:atemp>30.0</ns3:atemp>
            <ns3:hr>81</ns3:hr>
          </ns3:TrackPointExtension>
        </extensions>
      </trkpt>
      <trkpt lat="36.7833837680518627166748046875" lon="-118.422739617526531219482421875">
        <ele>3348.199951171875</ele>
        <time>2021-06-25T20:50:30.000Z</time>
        <extensions>
          <ns3:TrackPointExtension>
            <ns3:atemp>30.0</ns3:atemp>
            <ns3:hr>84</ns3:hr>
          </ns3:TrackPointExtension>
        </extensions>
      </trkpt>
      <trkpt lat="36.78338469006121158599853515625" lon="-118.422739617526531219482421875">
        <ele>3348</ele>
        <time>2021-06-25T20:50:34.000Z</time>
        <extensions>
          <ns3:TrackPointExtension>
            <ns3:atemp>30.0</ns3:atemp>
            <ns3:hr>88</ns3:hr>
          </ns3:TrackPointExtension>
        </extensions>
      </trkpt>
      <trkpt lat="36.7833847738802433013916015625" lon="-118.422739617526531219482421875">
        <ele>3348.39990234375</ele>
        <time>2021-06-25T20:50:37.000Z</time>
        <extensions>
          <ns3:TrackPointExtension>
            <ns3:atemp>31.0</ns3:atemp>
            <ns3:hr>92</ns3:hr>
          </ns3:TrackPointExtension>
        </extensions>
      </trkpt>
      <trkpt lat="36.7833495698869228363037109375" lon="-118.42270583845674991607666015625">
        <ele>3348.39990234375</ele>
        <time>2021-06-25T20:51:00.000Z</time>
        <extensions>
          <ns3:TrackPointExtension>
            <ns3:atemp>31.0</ns3:atemp>
            <ns3:hr>88</ns3:hr>
          </ns3:TrackPointExtension>
        </extensions>
      </trkpt>
      <trkpt lat="36.78334772586822509765625" lon="-118.42270575463771820068359375">
        <ele>3348.39990234375</ele>
        <time>2021-06-25T20:51:03.000Z</time>
        <extensions>
          <ns3:TrackPointExtension>
            <ns3:atemp>31.0</ns3:atemp>
            <ns3:hr>85</ns3:hr>
          </ns3:TrackPointExtension>
        </extensions>
      </trkpt>
      <trkpt lat="36.78334646858274936676025390625" lon="-118.422703407704830169677734375">
        <ele>3348.39990234375</ele>
        <time>2021-06-25T20:51:11.000Z</time>
        <extensions>
          <ns3:TrackPointExtension>
            <ns3:atemp>31.0</ns3:atemp>
            <ns3:hr>88</ns3:hr>
          </ns3:TrackPointExtension>
        </extensions>
      </trkpt>
      <trkpt lat="36.7833703570067882537841796875" lon="-118.4227089397609233856201171875">
        <ele>3349</ele>
        <time>2021-06-25T20:51:30.000Z</time>
        <extensions>
          <ns3:TrackPointExtension>
            <ns3:atemp>31.0</ns3:atemp>
            <ns3:hr>85</ns3:hr>
          </ns3:TrackPointExtension>
        </extensions>
      </trkpt>
      <trkpt lat="36.7833985202014446258544921875" lon="-118.422714807093143463134765625">
        <ele>3349.39990234375</ele>
        <time>2021-06-25T20:51:37.000Z</time>
        <extensions>
          <ns3:TrackPointExtension>
            <ns3:atemp>31.0</ns3:atemp>
            <ns3:hr>85</ns3:hr>
          </ns3:TrackPointExtension>
        </extensions>
      </trkpt>
      <trkpt lat="36.7834115959703922271728515625" lon="-118.4227200038731098175048828125">
        <ele>3349.60009765625</ele>
        <time>2021-06-25T20:51:44.000Z</time>
        <extensions>
          <ns3:TrackPointExtension>
            <ns3:atemp>31.0</ns3:atemp>
            <ns3:hr>82</ns3:hr>
          </ns3:TrackPointExtension>
        </extensions>
      </trkpt>
      <trkpt lat="36.78343380801379680633544921875" lon="-118.42273299582302570343017578125">
        <ele>3349.800048828125</ele>
        <time>2021-06-25T20:51:49.000Z</time>
        <extensions>
          <ns3:TrackPointExtension>
            <ns3:atemp>31.0</ns3:atemp>
            <ns3:hr>85</ns3:hr>
          </ns3:TrackPointExtension>
        </extensions>
      </trkpt>
      <trkpt lat="36.7834685929119586944580078125" lon="-118.42274598777294158935546875">
        <ele>3350.199951171875</ele>
        <time>2021-06-25T20:51:52.000Z</time>
        <extensions>
          <ns3:TrackPointExtension>
            <ns3:atemp>31.0</ns3:atemp>
            <ns3:hr>88</ns3:hr>
          </ns3:TrackPointExtension>
        </extensions>
      </trkpt>
      <trkpt lat="36.7834903858602046966552734375" lon="-118.42274439521133899688720703125">
        <ele>3350.60009765625</ele>
        <time>2021-06-25T20:51:54.000Z</time>
        <extensions>
          <ns3:TrackPointExtension>
            <ns3:atemp>31.0</ns3:atemp>
            <ns3:hr>88</ns3:hr>
          </ns3:TrackPointExtension>
        </extensions>
      </trkpt>
      <trkpt lat="36.78350958041846752166748046875" lon="-118.42274825088679790496826171875">
        <ele>3350.800048828125</ele>
        <time>2021-06-25T20:51:56.000Z</time>
        <extensions>
          <ns3:TrackPointExtension>
            <ns3:atemp>31.0</ns3:atemp>
            <ns3:hr>88</ns3:hr>
          </ns3:TrackPointExtension>
        </extensions>
      </trkpt>
      <trkpt lat="36.78352014161646366119384765625" lon="-118.422738611698150634765625">
        <ele>3351.199951171875</ele>
        <time>2021-06-25T20:51:59.000Z</time>
        <extensions>
          <ns3:TrackPointExtension>
            <ns3:atemp>31.0</ns3:atemp>
            <ns3:hr>90</ns3:hr>
          </ns3:TrackPointExtension>
        </extensions>
      </trkpt>
      <trkpt lat="36.783521063625812530517578125" lon="-118.42273391783237457275390625">
        <ele>3351.199951171875</ele>
        <time>2021-06-25T20:52:00.000Z</time>
        <extensions>
          <ns3:TrackPointExtension>
            <ns3:atemp>31.0</ns3:atemp>
            <ns3:hr>91</ns3:hr>
          </ns3:TrackPointExtension>
        </extensions>
      </trkpt>
      <trkpt lat="36.783524416387081146240234375" lon="-118.422734923660755157470703125">
        <ele>3351.60009765625</ele>
        <time>2021-06-25T20:52:01.000Z</time>
        <extensions>
          <ns3:TrackPointExtension>
            <ns3:atemp>31.0</ns3:atemp>
            <ns3:hr>91</ns3:hr>
          </ns3:TrackPointExtension>
        </extensions>
      </trkpt>
      <trkpt lat="36.78352885879576206207275390625" lon="-118.422734923660755157470703125">
        <ele>3351.800048828125</ele>
        <time>2021-06-25T20:52:02.000Z</time>
        <extensions>
          <ns3:TrackPointExtension>
            <ns3:atemp>31.0</ns3:atemp>
            <ns3:hr>91</ns3:hr>
          </ns3:TrackPointExtension>
        </extensions>
      </trkpt>
      <trkpt lat="36.78353346884250640869140625" lon="-118.4227478317916393280029296875">
        <ele>3352.199951171875</ele>
        <time>2021-06-25T20:52:05.000Z</time>
        <extensions>
          <ns3:TrackPointExtension>
            <ns3:atemp>31.0</ns3:atemp>
            <ns3:hr>92</ns3:hr>
          </ns3:TrackPointExtension>
        </extensions>
      </trkpt>
      <trkpt lat="36.78354092873632907867431640625" lon="-118.42277574352920055389404296875">
        <ele>3352.39990234375</ele>
        <time>2021-06-25T20:52:08.000Z</time>
        <extensions>
          <ns3:TrackPointExtension>
            <ns3:atemp>31.0</ns3:atemp>
            <ns3:hr>96</ns3:hr>
          </ns3:TrackPointExtension>
        </extensions>
      </trkpt>
      <trkpt lat="36.78354687988758087158203125" lon="-118.42278060503304004669189453125">
        <ele>3352.800048828125</ele>
        <time>2021-06-25T20:52:09.000Z</time>
        <extensions>
          <ns3:TrackPointExtension>
            <ns3:atemp>31.0</ns3:atemp>
            <ns3:hr>95</ns3:hr>
          </ns3:TrackPointExtension>
        </extensions>
      </trkpt>
      <trkpt lat="36.78355651907622814178466796875" lon="-118.422776497900485992431640625">
        <ele>3353</ele>
        <time>2021-06-25T20:52:10.000Z</time>
        <extensions>
          <ns3:TrackPointExtension>
            <ns3:atemp>31.0</ns3:atemp>
            <ns3:hr>96</ns3:hr>
          </ns3:TrackPointExtension>
        </extensions>
      </trkpt>
      <trkpt lat="36.78356389515101909637451171875" lon="-118.42276819981634616851806640625">
        <ele>3353</ele>
        <time>2021-06-25T20:52:11.000Z</time>
        <extensions>
          <ns3:TrackPointExtension>
            <ns3:atemp>31.0</ns3:atemp>
            <ns3:hr>95</ns3:hr>
          </ns3:TrackPointExtension>
        </extensions>
      </trkpt>
      <trkpt lat="36.78356892429292201995849609375" lon="-118.42275998555123805999755859375">
        <ele>3353</ele>
        <time>2021-06-25T20:52:12.000Z</time>
        <extensions>
          <ns3:TrackPointExtension>
            <ns3:atemp>31.0</ns3:atemp>
            <ns3:hr>98</ns3:hr>
          </ns3:TrackPointExtension>
        </extensions>
      </trkpt>
      <trkpt lat="36.78357730619609355926513671875" lon="-118.4227417968213558197021484375">
        <ele>3353.60009765625</ele>
        <time>2021-06-25T20:52:14.000Z</time>
        <extensions>
          <ns3:TrackPointExtension>
            <ns3:atemp>31.0</ns3:atemp>
            <ns3:hr>100</ns3:hr>
          </ns3:TrackPointExtension>
        </extensions>
      </trkpt>
      <trkpt lat="36.7835866101086139678955078125" lon="-118.42272679321467876434326171875">
        <ele>3354.199951171875</ele>
        <time>2021-06-25T20:52:16.000Z</time>
        <extensions>
          <ns3:TrackPointExtension>
            <ns3:atemp>31.0</ns3:atemp>
            <ns3:hr>103</ns3:hr>
          </ns3:TrackPointExtension>
        </extensions>
      </trkpt>
      <trkpt lat="36.78359650075435638427734375" lon="-118.4227226860821247100830078125">
        <ele>3354.39990234375</ele>
        <time>2021-06-25T20:52:18.000Z</time>
        <extensions>
          <ns3:TrackPointExtension>
            <ns3:atemp>31.0</ns3:atemp>
            <ns3:hr>104</ns3:hr>
          </ns3:TrackPointExtension>
        </extensions>
      </trkpt>
      <trkpt lat="36.78360295481979846954345703125" lon="-118.42271841131150722503662109375">
        <ele>3354.60009765625</ele>
        <time>2021-06-25T20:52:19.000Z</time>
        <extensions>
          <ns3:TrackPointExtension>
            <ns3:atemp>31.0</ns3:atemp>
            <ns3:hr>104</ns3:hr>
          </ns3:TrackPointExtension>
        </extensions>
      </trkpt>
      <trkpt lat="36.783611588180065155029296875" lon="-118.42271120287477970123291015625">
        <ele>3355.199951171875</ele>
        <time>2021-06-25T20:52:21.000Z</time>
        <extensions>
          <ns3:TrackPointExtension>
            <ns3:atemp>31.0</ns3:atemp>
            <ns3:hr>105</ns3:hr>
          </ns3:TrackPointExtension>
        </extensions>
      </trkpt>
      <trkpt lat="36.78361703641712665557861328125" lon="-118.42270843684673309326171875">
        <ele>3355.199951171875</ele>
        <time>2021-06-25T20:52:22.000Z</time>
        <extensions>
          <ns3:TrackPointExtension>
            <ns3:atemp>31.0</ns3:atemp>
            <ns3:hr>107</ns3:hr>
          </ns3:TrackPointExtension>
        </extensions>
      </trkpt>
      <trkpt lat="36.78361854515969753265380859375" lon="-118.4227052517235279083251953125">
        <ele>3355.199951171875</ele>
        <time>2021-06-25T20:52:27.000Z</time>
        <extensions>
          <ns3:TrackPointExtension>
            <ns3:atemp>31.0</ns3:atemp>
            <ns3:hr>108</ns3:hr>
          </ns3:TrackPointExtension>
        </extensions>
      </trkpt>
      <trkpt lat="36.78360094316303730010986328125" lon="-118.42272813431918621063232421875">
        <ele>3355.39990234375</ele>
        <time>2021-06-25T20:52:35.000Z</time>
        <extensions>
          <ns3:TrackPointExtension>
            <ns3:atemp>31.0</ns3:atemp>
            <ns3:hr>109</ns3:hr>
          </ns3:TrackPointExtension>
        </extensions>
      </trkpt>
      <trkpt lat="36.78357881493866443634033203125" lon="-118.42279770411550998687744140625">
        <ele>3355.60009765625</ele>
        <time>2021-06-25T20:52:42.000Z</time>
        <extensions>
          <ns3:TrackPointExtension>
            <ns3:atemp>31.0</ns3:atemp>
            <ns3:hr>109</ns3:hr>
          </ns3:TrackPointExtension>
        </extensions>
      </trkpt>
      <trkpt lat="36.78357797674834728240966796875" lon="-118.4228058345615863800048828125">
        <ele>3356.199951171875</ele>
        <time>2021-06-25T20:52:48.000Z</time>
        <extensions>
          <ns3:TrackPointExtension>
            <ns3:atemp>31.0</ns3:atemp>
            <ns3:hr>106</ns3:hr>
          </ns3:TrackPointExtension>
        </extensions>
      </trkpt>
      <trkpt lat="36.78358468227088451385498046875" lon="-118.4228070080280303955078125">
        <ele>3356.199951171875</ele>
        <time>2021-06-25T20:52:49.000Z</time>
        <extensions>
          <ns3:TrackPointExtension>
            <ns3:atemp>31.0</ns3:atemp>
            <ns3:hr>107</ns3:hr>
          </ns3:TrackPointExtension>
        </extensions>
      </trkpt>
      <trkpt lat="36.78362759761512279510498046875" lon="-118.4227642603218555450439453125">
        <ele>3356.800048828125</ele>
        <time>2021-06-25T20:52:55.000Z</time>
        <extensions>
          <ns3:TrackPointExtension>
            <ns3:atemp>31.0</ns3:atemp>
            <ns3:hr>109</ns3:hr>
          </ns3:TrackPointExtension>
        </extensions>
      </trkpt>
      <trkpt lat="36.7836436070501804351806640625" lon="-118.42273483984172344207763671875">
        <ele>3357.39990234375</ele>
        <time>2021-06-25T20:52:58.000Z</time>
        <extensions>
          <ns3:TrackPointExtension>
            <ns3:atemp>31.0</ns3:atemp>
            <ns3:hr>109</ns3:hr>
          </ns3:TrackPointExtension>
        </extensions>
      </trkpt>
      <trkpt lat="36.78367788903415203094482421875" lon="-118.42269024811685085296630859375">
        <ele>3358</ele>
        <time>2021-06-25T20:53:03.000Z</time>
        <extensions>
          <ns3:TrackPointExtension>
            <ns3:atemp>31.0</ns3:atemp>
            <ns3:hr>109</ns3:hr>
          </ns3:TrackPointExtension>
        </extensions>
      </trkpt>
      <trkpt lat="36.78367990069091320037841796875" lon="-118.42271380126476287841796875">
        <ele>3358.39990234375</ele>
        <time>2021-06-25T20:53:06.000Z</time>
        <extensions>
          <ns3:TrackPointExtension>
            <ns3:atemp>31.0</ns3:atemp>
            <ns3:hr>108</ns3:hr>
          </ns3:TrackPointExtension>
        </extensions>
      </trkpt>
      <trkpt lat="36.783692054450511932373046875" lon="-118.42272729612886905670166015625">
        <ele>3358.800048828125</ele>
        <time>2021-06-25T20:53:08.000Z</time>
        <extensions>
          <ns3:TrackPointExtension>
            <ns3:atemp>31.0</ns3:atemp>
            <ns3:hr>108</ns3:hr>
          </ns3:TrackPointExtension>
        </extensions>
      </trkpt>
      <trkpt lat="36.78370974026620388031005859375" lon="-118.422743976116180419921875">
        <ele>3359.199951171875</ele>
        <time>2021-06-25T20:53:12.000Z</time>
        <extensions>
          <ns3:TrackPointExtension>
            <ns3:atemp>31.0</ns3:atemp>
            <ns3:hr>107</ns3:hr>
          </ns3:TrackPointExtension>
        </extensions>
      </trkpt>
      <trkpt lat="36.783712171018123626708984375" lon="-118.42275244183838367462158203125">
        <ele>3359.60009765625</ele>
        <time>2021-06-25T20:53:13.000Z</time>
        <extensions>
          <ns3:TrackPointExtension>
            <ns3:atemp>31.0</ns3:atemp>
            <ns3:hr>107</ns3:hr>
          </ns3:TrackPointExtension>
        </extensions>
      </trkpt>
      <trkpt lat="36.78372231312096118927001953125" lon="-118.42276434414088726043701171875">
        <ele>3360</ele>
        <time>2021-06-25T20:53:15.000Z</time>
        <extensions>
          <ns3:TrackPointExtension>
            <ns3:atemp>31.0</ns3:atemp>
            <ns3:hr>104</ns3:hr>
          </ns3:TrackPointExtension>
        </extensions>
      </trkpt>
      <trkpt lat="36.78372968919575214385986328125" lon="-118.42276417650282382965087890625">
        <ele>3360.199951171875</ele>
        <time>2021-06-25T20:53:16.000Z</time>
        <extensions>
          <ns3:TrackPointExtension>
            <ns3:atemp>31.0</ns3:atemp>
            <ns3:hr>104</ns3:hr>
          </ns3:TrackPointExtension>
        </extensions>
      </trkpt>
      <trkpt lat="36.7837475426495075225830078125" lon="-118.42277037911117076873779296875">
        <ele>3360.39990234375</ele>
        <time>2021-06-25T20:53:19.000Z</time>
        <extensions>
          <ns3:TrackPointExtension>
            <ns3:atemp>31.0</ns3:atemp>
            <ns3:hr>106</ns3:hr>
          </ns3:TrackPointExtension>
        </extensions>
      </trkpt>
      <trkpt lat="36.78377679549157619476318359375" lon="-118.42275763861835002899169921875">
        <ele>3360.60009765625</ele>
        <time>2021-06-25T20:53:23.000Z</time>
        <extensions>
          <ns3:TrackPointExtension>
            <ns3:atemp>31.0</ns3:atemp>
            <ns3:hr>107</ns3:hr>
          </ns3:TrackPointExtension>
        </extensions>
      </trkpt>
      <trkpt lat="36.7837864346802234649658203125" lon="-118.422744981944561004638671875">
        <ele>3360.800048828125</ele>
        <time>2021-06-25T20:53:25.000Z</time>
        <extensions>
          <ns3:TrackPointExtension>
            <ns3:atemp>31.0</ns3:atemp>
            <ns3:hr>108</ns3:hr>
          </ns3:TrackPointExtension>
        </extensions>
      </trkpt>
      <trkpt lat="36.7838048748672008514404296875" lon="-118.4227324090898036956787109375">
        <ele>3361.199951171875</ele>
        <time>2021-06-25T20:53:27.000Z</time>
        <extensions>
          <ns3:TrackPointExtension>
            <ns3:atemp>31.0</ns3:atemp>
            <ns3:hr>108</ns3:hr>
          </ns3:TrackPointExtension>
        </extensions>
      </trkpt>
      <trkpt lat="36.7838182859122753143310546875" lon="-118.42273450456559658050537109375">
        <ele>3361.800048828125</ele>
        <time>2021-06-25T20:53:30.000Z</time>
        <extensions>
          <ns3:TrackPointExtension>
            <ns3:atemp>31.0</ns3:atemp>
            <ns3:hr>108</ns3:hr>
          </ns3:TrackPointExtension>
        </extensions>
      </trkpt>
      <trkpt lat="36.78383245132863521575927734375" lon="-118.4227319061756134033203125">
        <ele>3362</ele>
        <time>2021-06-25T20:53:32.000Z</time>
        <extensions>
          <ns3:TrackPointExtension>
            <ns3:atemp>31.0</ns3:atemp>
            <ns3:hr>111</ns3:hr>
          </ns3:TrackPointExtension>
        </extensions>
      </trkpt>
      <trkpt lat="36.7838367260992527008056640625" lon="-118.422732241451740264892578125">
        <ele>3362</ele>
        <time>2021-06-25T20:53:33.000Z</time>
        <extensions>
          <ns3:TrackPointExtension>
            <ns3:atemp>31.0</ns3:atemp>
            <ns3:hr>111</ns3:hr>
          </ns3:TrackPointExtension>
        </extensions>
      </trkpt>
      <trkpt lat="36.78386597894132137298583984375" lon="-118.42273148708045482635498046875">
        <ele>3362.800048828125</ele>
        <time>2021-06-25T20:53:38.000Z</time>
        <extensions>
          <ns3:TrackPointExtension>
            <ns3:atemp>31.0</ns3:atemp>
            <ns3:hr>114</ns3:hr>
          </ns3:TrackPointExtension>
        </extensions>
      </trkpt>
      <trkpt lat="36.78387184627354145050048828125" lon="-118.4227303974330425262451171875">
        <ele>3362.800048828125</ele>
        <time>2021-06-25T20:53:39.000Z</time>
        <extensions>
          <ns3:TrackPointExtension>
            <ns3:atemp>31.0</ns3:atemp>
            <ns3:hr>115</ns3:hr>
          </ns3:TrackPointExtension>
        </extensions>
      </trkpt>
      <trkpt lat="36.7838809825479984283447265625" lon="-118.42272360809147357940673828125">
        <ele>3363.39990234375</ele>
        <time>2021-06-25T20:53:41.000Z</time>
        <extensions>
          <ns3:TrackPointExtension>
            <ns3:atemp>31.0</ns3:atemp>
            <ns3:hr>119</ns3:hr>
          </ns3:TrackPointExtension>
        </extensions>
      </trkpt>
      <trkpt lat="36.78389447741210460662841796875" lon="-118.42271287925541400909423828125">
        <ele>3363.60009765625</ele>
        <time>2021-06-25T20:53:44.000Z</time>
        <extensions>
          <ns3:TrackPointExtension>
            <ns3:atemp>31.0</ns3:atemp>
            <ns3:hr>122</ns3:hr>
          </ns3:TrackPointExtension>
        </extensions>
      </trkpt>
      <trkpt lat="36.7839138396084308624267578125" lon="-118.42269837856292724609375">
        <ele>3363.800048828125</ele>
        <time>2021-06-25T20:53:47.000Z</time>
        <extensions>
          <ns3:TrackPointExtension>
            <ns3:atemp>31.0</ns3:atemp>
            <ns3:hr>125</ns3:hr>
          </ns3:TrackPointExtension>
        </extensions>
      </trkpt>
      <trkpt lat="36.78392850793898105621337890625" lon="-118.4226858057081699371337890625">
        <ele>3363.800048828125</ele>
        <time>2021-06-25T20:53:50.000Z</time>
        <extensions>
          <ns3:TrackPointExtension>
            <ns3:atemp>31.0</ns3:atemp>
            <ns3:hr>125</ns3:hr>
          </ns3:TrackPointExtension>
        </extensions>
      </trkpt>
      <trkpt lat="36.78392934612929821014404296875" lon="-118.42267868109047412872314453125">
        <ele>3363.800048828125</ele>
        <time>2021-06-25T20:53:51.000Z</time>
        <extensions>
          <ns3:TrackPointExtension>
            <ns3:atemp>31.0</ns3:atemp>
            <ns3:hr>125</ns3:hr>
          </ns3:TrackPointExtension>
        </extensions>
      </trkpt>
      <trkpt lat="36.78395851515233516693115234375" lon="-118.42265747487545013427734375">
        <ele>3364.800048828125</ele>
        <time>2021-06-25T20:53:59.000Z</time>
        <extensions>
          <ns3:TrackPointExtension>
            <ns3:atemp>31.0</ns3:atemp>
            <ns3:hr>126</ns3:hr>
          </ns3:TrackPointExtension>
        </extensions>
      </trkpt>
      <trkpt lat="36.78396455012261867523193359375" lon="-118.4226568043231964111328125">
        <ele>3365</ele>
        <time>2021-06-25T20:54:00.000Z</time>
        <extensions>
          <ns3:TrackPointExtension>
            <ns3:atemp>31.0</ns3:atemp>
            <ns3:hr>125</ns3:hr>
          </ns3:TrackPointExtension>
        </extensions>
      </trkpt>
      <trkpt lat="36.783989779651165008544921875" lon="-118.42264113016426563262939453125">
        <ele>3365.60009765625</ele>
        <time>2021-06-25T20:54:05.000Z</time>
        <extensions>
          <ns3:TrackPointExtension>
            <ns3:atemp>31.0</ns3:atemp>
            <ns3:hr>122</ns3:hr>
          </ns3:TrackPointExtension>
        </extensions>
      </trkpt>
      <trkpt lat="36.7840204574167728424072265625" lon="-118.42261229641735553741455078125">
        <ele>3365.800048828125</ele>
        <time>2021-06-25T20:54:09.000Z</time>
        <extensions>
          <ns3:TrackPointExtension>
            <ns3:atemp>31.0</ns3:atemp>
            <ns3:hr>124</ns3:hr>
          </ns3:TrackPointExtension>
        </extensions>
      </trkpt>
      <trkpt lat="36.78405038081109523773193359375" lon="-118.4225295670330524444580078125">
        <ele>3365.60009765625</ele>
        <time>2021-06-25T20:54:16.000Z</time>
        <extensions>
          <ns3:TrackPointExtension>
            <ns3:atemp>31.0</ns3:atemp>
            <ns3:hr>121</ns3:hr>
          </ns3:TrackPointExtension>
        </extensions>
      </trkpt>
      <trkpt lat="36.78405239246785640716552734375" lon="-118.4225007332861423492431640625">
        <ele>3365.60009765625</ele>
        <time>2021-06-25T20:54:18.000Z</time>
        <extensions>
          <ns3:TrackPointExtension>
            <ns3:atemp>31.0</ns3:atemp>
            <ns3:hr>120</ns3:hr>
          </ns3:TrackPointExtension>
        </extensions>
      </trkpt>
      <trkpt lat="36.78407100029289722442626953125" lon="-118.4224675409495830535888671875">
        <ele>3366.199951171875</ele>
        <time>2021-06-25T20:54:22.000Z</time>
        <extensions>
          <ns3:TrackPointExtension>
            <ns3:atemp>31.0</ns3:atemp>
            <ns3:hr>119</ns3:hr>
          </ns3:TrackPointExtension>
        </extensions>
      </trkpt>
      <trkpt lat="36.78410083986818790435791015625" lon="-118.42244197614490985870361328125">
        <ele>3366.60009765625</ele>
        <time>2021-06-25T20:54:27.000Z</time>
        <extensions>
          <ns3:TrackPointExtension>
            <ns3:atemp>31.0</ns3:atemp>
            <ns3:hr>117</ns3:hr>
          </ns3:TrackPointExtension>
        </extensions>
      </trkpt>
      <trkpt lat="36.7840992473065853118896484375" lon="-118.4223736636340618133544921875">
        <ele>3366.60009765625</ele>
        <time>2021-06-25T20:54:33.000Z</time>
        <extensions>
          <ns3:TrackPointExtension>
            <ns3:atemp>31.0</ns3:atemp>
            <ns3:hr>119</ns3:hr>
          </ns3:TrackPointExtension>
        </extensions>
      </trkpt>
      <trkpt lat="36.784115843474864959716796875" lon="-118.4223528765141963958740234375">
        <ele>3366.199951171875</ele>
        <time>2021-06-25T20:54:35.000Z</time>
        <extensions>
          <ns3:TrackPointExtension>
            <ns3:atemp>31.0</ns3:atemp>
            <ns3:hr>119</ns3:hr>
          </ns3:TrackPointExtension>
        </extensions>
      </trkpt>
      <trkpt lat="36.7841720022261142730712890625" lon="-118.42228339053690433502197265625">
        <ele>3366.60009765625</ele>
        <time>2021-06-25T20:54:42.000Z</time>
        <extensions>
          <ns3:TrackPointExtension>
            <ns3:atemp>30.0</ns3:atemp>
            <ns3:hr>120</ns3:hr>
          </ns3:TrackPointExtension>
        </extensions>
      </trkpt>
      <trkpt lat="36.78418817929923534393310546875" lon="-118.42223142273724079132080078125">
        <ele>3367.199951171875</ele>
        <time>2021-06-25T20:54:49.000Z</time>
        <extensions>
          <ns3:TrackPointExtension>
            <ns3:atemp>30.0</ns3:atemp>
            <ns3:hr>118</ns3:hr>
          </ns3:TrackPointExtension>
        </extensions>
      </trkpt>
      <trkpt lat="36.78419186733663082122802734375" lon="-118.4222227893769741058349609375">
        <ele>3367.39990234375</ele>
        <time>2021-06-25T20:54:51.000Z</time>
        <extensions>
          <ns3:TrackPointExtension>
            <ns3:atemp>30.0</ns3:atemp>
            <ns3:hr>119</ns3:hr>
          </ns3:TrackPointExtension>
        </extensions>
      </trkpt>
      <trkpt lat="36.78419572301208972930908203125" lon="-118.42219772748649120330810546875">
        <ele>3368</ele>
        <time>2021-06-25T20:54:55.000Z</time>
        <extensions>
          <ns3:TrackPointExtension>
            <ns3:atemp>30.0</ns3:atemp>
            <ns3:hr>120</ns3:hr>
          </ns3:TrackPointExtension>
        </extensions>
      </trkpt>
      <trkpt lat="36.78419186733663082122802734375" lon="-118.4221828915178775787353515625">
        <ele>3368.199951171875</ele>
        <time>2021-06-25T20:54:57.000Z</time>
        <extensions>
          <ns3:TrackPointExtension>
            <ns3:atemp>30.0</ns3:atemp>
            <ns3:hr>119</ns3:hr>
          </ns3:TrackPointExtension>
        </extensions>
      </trkpt>
      <trkpt lat="36.78418851457536220550537109375" lon="-118.42217375524342060089111328125">
        <ele>3368.39990234375</ele>
        <time>2021-06-25T20:54:59.000Z</time>
        <extensions>
          <ns3:TrackPointExtension>
            <ns3:atemp>30.0</ns3:atemp>
            <ns3:hr>120</ns3:hr>
          </ns3:TrackPointExtension>
        </extensions>
      </trkpt>
      <trkpt lat="36.78420410491526126861572265625" lon="-118.42216704972088336944580078125">
        <ele>3368.800048828125</ele>
        <time>2021-06-25T20:55:03.000Z</time>
        <extensions>
          <ns3:TrackPointExtension>
            <ns3:atemp>30.0</ns3:atemp>
            <ns3:hr>117</ns3:hr>
          </ns3:TrackPointExtension>
        </extensions>
      </trkpt>
      <trkpt lat="36.78421081043779850006103515625" lon="-118.42216403223574161529541015625">
        <ele>3368.800048828125</ele>
        <time>2021-06-25T20:55:04.000Z</time>
        <extensions>
          <ns3:TrackPointExtension>
            <ns3:atemp>30.0</ns3:atemp>
            <ns3:hr>116</ns3:hr>
          </ns3:TrackPointExtension>
        </extensions>
      </trkpt>
      <trkpt lat="36.7842172645032405853271484375" lon="-118.4221091307699680328369140625">
        <ele>3369.199951171875</ele>
        <time>2021-06-25T20:55:08.000Z</time>
        <extensions>
          <ns3:TrackPointExtension>
            <ns3:atemp>30.0</ns3:atemp>
            <ns3:hr>113</ns3:hr>
          </ns3:TrackPointExtension>
        </extensions>
      </trkpt>
      <trkpt lat="36.78422145545482635498046875" lon="-118.42210217379033565521240234375">
        <ele>3369.39990234375</ele>
        <time>2021-06-25T20:55:09.000Z</time>
        <extensions>
          <ns3:TrackPointExtension>
            <ns3:atemp>30.0</ns3:atemp>
            <ns3:hr>113</ns3:hr>
          </ns3:TrackPointExtension>
        </extensions>
      </trkpt>
      <trkpt lat="36.78422170691192150115966796875" lon="-118.42209043912589550018310546875">
        <ele>3369.800048828125</ele>
        <time>2021-06-25T20:55:12.000Z</time>
        <extensions>
          <ns3:TrackPointExtension>
            <ns3:atemp>30.0</ns3:atemp>
            <ns3:hr>112</ns3:hr>
          </ns3:TrackPointExtension>
        </extensions>
      </trkpt>
      <trkpt lat="36.78424157202243804931640625" lon="-118.42207987792789936065673828125">
        <ele>3370.39990234375</ele>
        <time>2021-06-25T20:55:19.000Z</time>
        <extensions>
          <ns3:TrackPointExtension>
            <ns3:atemp>30.0</ns3:atemp>
            <ns3:hr>113</ns3:hr>
          </ns3:TrackPointExtension>
        </extensions>
      </trkpt>
      <trkpt lat="36.7842427454888820648193359375" lon="-118.42208054848015308380126953125">
        <ele>3370.800048828125</ele>
        <time>2021-06-25T20:55:20.000Z</time>
        <extensions>
          <ns3:TrackPointExtension>
            <ns3:atemp>30.0</ns3:atemp>
            <ns3:hr>112</ns3:hr>
          </ns3:TrackPointExtension>
        </extensions>
      </trkpt>
      <trkpt lat="36.784255318343639373779296875" lon="-118.4220823086798191070556640625">
        <ele>3371.39990234375</ele>
        <time>2021-06-25T20:55:23.000Z</time>
        <extensions>
          <ns3:TrackPointExtension>
            <ns3:atemp>30.0</ns3:atemp>
            <ns3:hr>113</ns3:hr>
          </ns3:TrackPointExtension>
        </extensions>
      </trkpt>
      <trkpt lat="36.784280128777027130126953125" lon="-118.42205842025578022003173828125">
        <ele>3371.800048828125</ele>
        <time>2021-06-25T20:55:28.000Z</time>
        <extensions>
          <ns3:TrackPointExtension>
            <ns3:atemp>30.0</ns3:atemp>
            <ns3:hr>115</ns3:hr>
          </ns3:TrackPointExtension>
        </extensions>
      </trkpt>
      <trkpt lat="36.78429245017468929290771484375" lon="-118.422010727226734161376953125">
        <ele>3372.199951171875</ele>
        <time>2021-06-25T20:55:33.000Z</time>
        <extensions>
          <ns3:TrackPointExtension>
            <ns3:atemp>30.0</ns3:atemp>
            <ns3:hr>118</ns3:hr>
          </ns3:TrackPointExtension>
        </extensions>
      </trkpt>
      <trkpt lat="36.7842937074601650238037109375" lon="-118.42197610996663570404052734375">
        <ele>3372.199951171875</ele>
        <time>2021-06-25T20:55:36.000Z</time>
        <extensions>
          <ns3:TrackPointExtension>
            <ns3:atemp>30.0</ns3:atemp>
            <ns3:hr>118</ns3:hr>
          </ns3:TrackPointExtension>
        </extensions>
      </trkpt>
      <trkpt lat="36.7842893488705158233642578125" lon="-118.42196152545511722564697265625">
        <ele>3372.39990234375</ele>
        <time>2021-06-25T20:55:38.000Z</time>
        <extensions>
          <ns3:TrackPointExtension>
            <ns3:atemp>30.0</ns3:atemp>
            <ns3:hr>118</ns3:hr>
          </ns3:TrackPointExtension>
        </extensions>
      </trkpt>
      <trkpt lat="36.7842947132885456085205078125" lon="-118.421938307583332061767578125">
        <ele>3373.199951171875</ele>
        <time>2021-06-25T20:55:41.000Z</time>
        <extensions>
          <ns3:TrackPointExtension>
            <ns3:atemp>30.0</ns3:atemp>
            <ns3:hr>117</ns3:hr>
          </ns3:TrackPointExtension>
        </extensions>
      </trkpt>
      <trkpt lat="36.78429127670824527740478515625" lon="-118.42190100811421871185302734375">
        <ele>3373.39990234375</ele>
        <time>2021-06-25T20:55:44.000Z</time>
        <extensions>
          <ns3:TrackPointExtension>
            <ns3:atemp>30.0</ns3:atemp>
            <ns3:hr>117</ns3:hr>
          </ns3:TrackPointExtension>
        </extensions>
      </trkpt>
      <trkpt lat="36.78429664112627506256103515625" lon="-118.42190016992390155792236328125">
        <ele>3373.39990234375</ele>
        <time>2021-06-25T20:55:46.000Z</time>
        <extensions>
          <ns3:TrackPointExtension>
            <ns3:atemp>30.0</ns3:atemp>
            <ns3:hr>119</ns3:hr>
          </ns3:TrackPointExtension>
        </extensions>
      </trkpt>
      <trkpt lat="36.78430770523846149444580078125" lon="-118.4218932129442691802978515625">
        <ele>3373.800048828125</ele>
        <time>2021-06-25T20:55:48.000Z</time>
        <extensions>
          <ns3:TrackPointExtension>
            <ns3:atemp>30.0</ns3:atemp>
            <ns3:hr>120</ns3:hr>
          </ns3:TrackPointExtension>
        </extensions>
      </trkpt>
      <trkpt lat="36.78431843407452106475830078125" lon="-118.4218764491379261016845703125">
        <ele>3373.800048828125</ele>
        <time>2021-06-25T20:55:50.000Z</time>
        <extensions>
          <ns3:TrackPointExtension>
            <ns3:atemp>30.0</ns3:atemp>
            <ns3:hr>122</ns3:hr>
          </ns3:TrackPointExtension>
        </extensions>
      </trkpt>
      <trkpt lat="36.784325726330280303955078125" lon="-118.4218647144734859466552734375">
        <ele>3374.199951171875</ele>
        <time>2021-06-25T20:55:52.000Z</time>
        <extensions>
          <ns3:TrackPointExtension>
            <ns3:atemp>30.0</ns3:atemp>
            <ns3:hr>123</ns3:hr>
          </ns3:TrackPointExtension>
        </extensions>
      </trkpt>
      <trkpt lat="36.784327737987041473388671875" lon="-118.4218603558838367462158203125">
        <ele>3374.60009765625</ele>
        <time>2021-06-25T20:55:54.000Z</time>
        <extensions>
          <ns3:TrackPointExtension>
            <ns3:atemp>30.0</ns3:atemp>
            <ns3:hr>125</ns3:hr>
          </ns3:TrackPointExtension>
        </extensions>
      </trkpt>
      <trkpt lat="36.7843386344611644744873046875" lon="-118.4218580089509487152099609375">
        <ele>3374.60009765625</ele>
        <time>2021-06-25T20:55:55.000Z</time>
        <extensions>
          <ns3:TrackPointExtension>
            <ns3:atemp>30.0</ns3:atemp>
            <ns3:hr>125</ns3:hr>
          </ns3:TrackPointExtension>
        </extensions>
      </trkpt>
      <trkpt lat="36.78434995003044605255126953125" lon="-118.421853817999362945556640625">
        <ele>3374.800048828125</ele>
        <time>2021-06-25T20:55:56.000Z</time>
        <extensions>
          <ns3:TrackPointExtension>
            <ns3:atemp>30.0</ns3:atemp>
            <ns3:hr>126</ns3:hr>
          </ns3:TrackPointExtension>
        </extensions>
      </trkpt>
      <trkpt lat="36.7843681387603282928466796875" lon="-118.421842753887176513671875">
        <ele>3375.199951171875</ele>
        <time>2021-06-25T20:56:00.000Z</time>
        <extensions>
          <ns3:TrackPointExtension>
            <ns3:atemp>30.0</ns3:atemp>
            <ns3:hr>127</ns3:hr>
          </ns3:TrackPointExtension>
        </extensions>
      </trkpt>
      <trkpt lat="36.78438448347151279449462890625" lon="-118.42182599008083343505859375">
        <ele>3375.60009765625</ele>
        <time>2021-06-25T20:56:03.000Z</time>
        <extensions>
          <ns3:TrackPointExtension>
            <ns3:atemp>30.0</ns3:atemp>
            <ns3:hr>127</ns3:hr>
          </ns3:TrackPointExtension>
        </extensions>
      </trkpt>
      <trkpt lat="36.7843936197459697723388671875" lon="-118.4218258224427700042724609375">
        <ele>3375.800048828125</ele>
        <time>2021-06-25T20:56:05.000Z</time>
        <extensions>
          <ns3:TrackPointExtension>
            <ns3:atemp>30.0</ns3:atemp>
            <ns3:hr>127</ns3:hr>
          </ns3:TrackPointExtension>
        </extensions>
      </trkpt>
      <trkpt lat="36.7844016663730144500732421875" lon="-118.42182942666113376617431640625">
        <ele>3376</ele>
        <time>2021-06-25T20:56:06.000Z</time>
        <extensions>
          <ns3:TrackPointExtension>
            <ns3:atemp>30.0</ns3:atemp>
            <ns3:hr>127</ns3:hr>
          </ns3:TrackPointExtension>
        </extensions>
      </trkpt>
      <trkpt lat="36.7844194360077381134033203125" lon="-118.42183110304176807403564453125">
        <ele>3376.39990234375</ele>
        <time>2021-06-25T20:56:09.000Z</time>
        <extensions>
          <ns3:TrackPointExtension>
            <ns3:atemp>30.0</ns3:atemp>
            <ns3:hr>126</ns3:hr>
          </ns3:TrackPointExtension>
        </extensions>
      </trkpt>
      <trkpt lat="36.78442823700606822967529296875" lon="-118.4218214638531208038330078125">
        <ele>3376.39990234375</ele>
        <time>2021-06-25T20:56:11.000Z</time>
        <extensions>
          <ns3:TrackPointExtension>
            <ns3:atemp>30.0</ns3:atemp>
            <ns3:hr>126</ns3:hr>
          </ns3:TrackPointExtension>
        </extensions>
      </trkpt>
      <trkpt lat="36.7844648659229278564453125" lon="-118.4217802248895168304443359375">
        <ele>3376.800048828125</ele>
        <time>2021-06-25T20:56:18.000Z</time>
        <extensions>
          <ns3:TrackPointExtension>
            <ns3:atemp>30.0</ns3:atemp>
            <ns3:hr>123</ns3:hr>
          </ns3:TrackPointExtension>
        </extensions>
      </trkpt>
      <trkpt lat="36.7844901792705059051513671875" lon="-118.42174460180103778839111328125">
        <ele>3377.60009765625</ele>
        <time>2021-06-25T20:56:23.000Z</time>
        <extensions>
          <ns3:TrackPointExtension>
            <ns3:atemp>30.0</ns3:atemp>
            <ns3:hr>124</ns3:hr>
          </ns3:TrackPointExtension>
        </extensions>
      </trkpt>
      <trkpt lat="36.78451205603778362274169921875" lon="-118.42169816605746746063232421875">
        <ele>3377.800048828125</ele>
        <time>2021-06-25T20:56:27.000Z</time>
        <extensions>
          <ns3:TrackPointExtension>
            <ns3:atemp>30.0</ns3:atemp>
            <ns3:hr>124</ns3:hr>
          </ns3:TrackPointExtension>
        </extensions>
      </trkpt>
      <trkpt lat="36.78452865220606327056884765625" lon="-118.42169866897165775299072265625">
        <ele>3378</ele>
        <time>2021-06-25T20:56:28.000Z</time>
        <extensions>
          <ns3:TrackPointExtension>
            <ns3:atemp>30.0</ns3:atemp>
            <ns3:hr>122</ns3:hr>
          </ns3:TrackPointExtension>
        </extensions>
      </trkpt>
      <trkpt lat="36.7845860682427883148193359375" lon="-118.42165608890354633331298828125">
        <ele>3378.800048828125</ele>
        <time>2021-06-25T20:56:35.000Z</time>
        <extensions>
          <ns3:TrackPointExtension>
            <ns3:atemp>30.0</ns3:atemp>
            <ns3:hr>120</ns3:hr>
          </ns3:TrackPointExtension>
        </extensions>
      </trkpt>
      <trkpt lat="36.78458933718502521514892578125" lon="-118.42164359986782073974609375">
        <ele>3379</ele>
        <time>2021-06-25T20:56:36.000Z</time>
        <extensions>
          <ns3:TrackPointExtension>
            <ns3:atemp>30.0</ns3:atemp>
            <ns3:hr>119</ns3:hr>
          </ns3:TrackPointExtension>
        </extensions>
      </trkpt>
      <trkpt lat="36.78462169133126735687255859375" lon="-118.42157763428986072540283203125">
        <ele>3379</ele>
        <time>2021-06-25T20:56:43.000Z</time>
        <extensions>
          <ns3:TrackPointExtension>
            <ns3:atemp>30.0</ns3:atemp>
            <ns3:hr>116</ns3:hr>
          </ns3:TrackPointExtension>
        </extensions>
      </trkpt>
      <trkpt lat="36.78462990559637546539306640625" lon="-118.4215713478624820709228515625">
        <ele>3379.39990234375</ele>
        <time>2021-06-25T20:56:44.000Z</time>
        <extensions>
          <ns3:TrackPointExtension>
            <ns3:atemp>30.0</ns3:atemp>
            <ns3:hr>116</ns3:hr>
          </ns3:TrackPointExtension>
        </extensions>
      </trkpt>
      <trkpt lat="36.78464750759303569793701171875" lon="-118.42151175253093242645263671875">
        <ele>3380</ele>
        <time>2021-06-25T20:56:50.000Z</time>
        <extensions>
          <ns3:TrackPointExtension>
            <ns3:atemp>30.0</ns3:atemp>
            <ns3:hr>114</ns3:hr>
          </ns3:TrackPointExtension>
        </extensions>
      </trkpt>
      <trkpt lat="36.7846403829753398895263671875" lon="-118.42149230651557445526123046875">
        <ele>3380</ele>
        <time>2021-06-25T20:56:52.000Z</time>
        <extensions>
          <ns3:TrackPointExtension>
            <ns3:atemp>30.0</ns3:atemp>
            <ns3:hr>117</ns3:hr>
          </ns3:TrackPointExtension>
        </extensions>
      </trkpt>
      <trkpt lat="36.78463795222342014312744140625" lon="-118.42147772200405597686767578125">
        <ele>3380</ele>
        <time>2021-06-25T20:56:53.000Z</time>
        <extensions>
          <ns3:TrackPointExtension>
            <ns3:atemp>30.0</ns3:atemp>
            <ns3:hr>114</ns3:hr>
          </ns3:TrackPointExtension>
        </extensions>
      </trkpt>
      <trkpt lat="36.78464700467884540557861328125" lon="-118.421446792781352996826171875">
        <ele>3380.199951171875</ele>
        <time>2021-06-25T20:56:56.000Z</time>
        <extensions>
          <ns3:TrackPointExtension>
            <ns3:atemp>30.0</ns3:atemp>
            <ns3:hr>118</ns3:hr>
          </ns3:TrackPointExtension>
        </extensions>
      </trkpt>
      <trkpt lat="36.7846477590501308441162109375" lon="-118.4214141033589839935302734375">
        <ele>3380.39990234375</ele>
        <time>2021-06-25T20:57:00.000Z</time>
        <extensions>
          <ns3:TrackPointExtension>
            <ns3:atemp>30.0</ns3:atemp>
            <ns3:hr>121</ns3:hr>
          </ns3:TrackPointExtension>
        </extensions>
      </trkpt>
      <trkpt lat="36.78464918397367000579833984375" lon="-118.421397842466831207275390625">
        <ele>3380.60009765625</ele>
        <time>2021-06-25T20:57:01.000Z</time>
        <extensions>
          <ns3:TrackPointExtension>
            <ns3:atemp>30.0</ns3:atemp>
            <ns3:hr>121</ns3:hr>
          </ns3:TrackPointExtension>
        </extensions>
      </trkpt>
      <trkpt lat="36.7846553027629852294921875" lon="-118.4213856048882007598876953125">
        <ele>3380.800048828125</ele>
        <time>2021-06-25T20:57:03.000Z</time>
        <extensions>
          <ns3:TrackPointExtension>
            <ns3:atemp>30.0</ns3:atemp>
            <ns3:hr>121</ns3:hr>
          </ns3:TrackPointExtension>
        </extensions>
      </trkpt>
      <trkpt lat="36.7846722342073917388916015625" lon="-118.42135769315063953399658203125">
        <ele>3381</ele>
        <time>2021-06-25T20:57:06.000Z</time>
        <extensions>
          <ns3:TrackPointExtension>
            <ns3:atemp>30.0</ns3:atemp>
            <ns3:hr>121</ns3:hr>
          </ns3:TrackPointExtension>
        </extensions>
      </trkpt>
      <trkpt lat="36.78469142876565456390380859375" lon="-118.42132349498569965362548828125">
        <ele>3381.39990234375</ele>
        <time>2021-06-25T20:57:09.000Z</time>
        <extensions>
          <ns3:TrackPointExtension>
            <ns3:atemp>30.0</ns3:atemp>
            <ns3:hr>119</ns3:hr>
          </ns3:TrackPointExtension>
        </extensions>
      </trkpt>
      <trkpt lat="36.784699223935604095458984375" lon="-118.421296589076519012451171875">
        <ele>3381.39990234375</ele>
        <time>2021-06-25T20:57:11.000Z</time>
        <extensions>
          <ns3:TrackPointExtension>
            <ns3:atemp>30.0</ns3:atemp>
            <ns3:hr>117</ns3:hr>
          </ns3:TrackPointExtension>
        </extensions>
      </trkpt>
      <trkpt lat="36.7847419716417789459228515625" lon="-118.42121771536767482757568359375">
        <ele>3381.800048828125</ele>
        <time>2021-06-25T20:57:19.000Z</time>
        <extensions>
          <ns3:TrackPointExtension>
            <ns3:atemp>30.0</ns3:atemp>
            <ns3:hr>115</ns3:hr>
          </ns3:TrackPointExtension>
        </extensions>
      </trkpt>
      <trkpt lat="36.784763596951961517333984375" lon="-118.42115619219839572906494140625">
        <ele>3381.800048828125</ele>
        <time>2021-06-25T20:57:24.000Z</time>
        <extensions>
          <ns3:TrackPointExtension>
            <ns3:atemp>30.0</ns3:atemp>
            <ns3:hr>114</ns3:hr>
          </ns3:TrackPointExtension>
        </extensions>
      </trkpt>
      <trkpt lat="36.78476586006581783294677734375" lon="-118.421118557453155517578125">
        <ele>3382.199951171875</ele>
        <time>2021-06-25T20:57:27.000Z</time>
        <extensions>
          <ns3:TrackPointExtension>
            <ns3:atemp>30.0</ns3:atemp>
            <ns3:hr>113</ns3:hr>
          </ns3:TrackPointExtension>
        </extensions>
      </trkpt>
      <trkpt lat="36.78476586006581783294677734375" lon="-118.42110891826450824737548828125">
        <ele>3383</ele>
        <time>2021-06-25T20:57:28.000Z</time>
        <extensions>
          <ns3:TrackPointExtension>
            <ns3:atemp>30.0</ns3:atemp>
            <ns3:hr>113</ns3:hr>
          </ns3:TrackPointExtension>
        </extensions>
      </trkpt>
      <trkpt lat="36.7847721464931964874267578125" lon="-118.421091400086879730224609375">
        <ele>3383.39990234375</ele>
        <time>2021-06-25T20:57:30.000Z</time>
        <extensions>
          <ns3:TrackPointExtension>
            <ns3:atemp>30.0</ns3:atemp>
            <ns3:hr>112</ns3:hr>
          </ns3:TrackPointExtension>
        </extensions>
      </trkpt>
      <trkpt lat="36.78476602770388126373291015625" lon="-118.421035073697566986083984375">
        <ele>3383.39990234375</ele>
        <time>2021-06-25T20:57:36.000Z</time>
        <extensions>
          <ns3:TrackPointExtension>
            <ns3:atemp>30.0</ns3:atemp>
            <ns3:hr>115</ns3:hr>
          </ns3:TrackPointExtension>
        </extensions>
      </trkpt>
      <trkpt lat="36.78476217202842235565185546875" lon="-118.42101738788187503814697265625">
        <ele>3383.800048828125</ele>
        <time>2021-06-25T20:57:38.000Z</time>
        <extensions>
          <ns3:TrackPointExtension>
            <ns3:atemp>30.0</ns3:atemp>
            <ns3:hr>118</ns3:hr>
          </ns3:TrackPointExtension>
        </extensions>
      </trkpt>
      <trkpt lat="36.7847674526274204254150390625" lon="-118.4210094250738620758056640625">
        <ele>3384.39990234375</ele>
        <time>2021-06-25T20:57:40.000Z</time>
        <extensions>
          <ns3:TrackPointExtension>
            <ns3:atemp>30.0</ns3:atemp>
            <ns3:hr>121</ns3:hr>
          </ns3:TrackPointExtension>
        </extensions>
      </trkpt>
      <trkpt lat="36.78477139212191104888916015625" lon="-118.4210018813610076904296875">
        <ele>3384.800048828125</ele>
        <time>2021-06-25T20:57:41.000Z</time>
        <extensions>
          <ns3:TrackPointExtension>
            <ns3:atemp>30.0</ns3:atemp>
            <ns3:hr>121</ns3:hr>
          </ns3:TrackPointExtension>
        </extensions>
      </trkpt>
      <trkpt lat="36.78476787172257900238037109375" lon="-118.42098134569823741912841796875">
        <ele>3384.800048828125</ele>
        <time>2021-06-25T20:57:43.000Z</time>
        <extensions>
          <ns3:TrackPointExtension>
            <ns3:atemp>30.0</ns3:atemp>
            <ns3:hr>122</ns3:hr>
          </ns3:TrackPointExtension>
        </extensions>
      </trkpt>
      <trkpt lat="36.784772984683513641357421875" lon="-118.4209581278264522552490234375">
        <ele>3385.60009765625</ele>
        <time>2021-06-25T20:57:46.000Z</time>
        <extensions>
          <ns3:TrackPointExtension>
            <ns3:atemp>30.0</ns3:atemp>
            <ns3:hr>122</ns3:hr>
          </ns3:TrackPointExtension>
        </extensions>
      </trkpt>
      <trkpt lat="36.784779019653797149658203125" lon="-118.42094044201076030731201171875">
        <ele>3385.60009765625</ele>
        <time>2021-06-25T20:57:48.000Z</time>
        <extensions>
          <ns3:TrackPointExtension>
            <ns3:atemp>30.0</ns3:atemp>
            <ns3:hr>122</ns3:hr>
          </ns3:TrackPointExtension>
        </extensions>
      </trkpt>
      <trkpt lat="36.78477591834962368011474609375" lon="-118.42091797851026058197021484375">
        <ele>3385.60009765625</ele>
        <time>2021-06-25T20:57:50.000Z</time>
        <extensions>
          <ns3:TrackPointExtension>
            <ns3:atemp>30.0</ns3:atemp>
            <ns3:hr>122</ns3:hr>
          </ns3:TrackPointExtension>
        </extensions>
      </trkpt>
      <trkpt lat="36.7847701348364353179931640625" lon="-118.4208934195339679718017578125">
        <ele>3385.60009765625</ele>
        <time>2021-06-25T20:57:52.000Z</time>
        <extensions>
          <ns3:TrackPointExtension>
            <ns3:atemp>30.0</ns3:atemp>
            <ns3:hr>122</ns3:hr>
          </ns3:TrackPointExtension>
        </extensions>
      </trkpt>
      <trkpt lat="36.78475094027817249298095703125" lon="-118.42083684168756008148193359375">
        <ele>3386</ele>
        <time>2021-06-25T20:57:58.000Z</time>
        <extensions>
          <ns3:TrackPointExtension>
            <ns3:atemp>30.0</ns3:atemp>
            <ns3:hr>120</ns3:hr>
          </ns3:TrackPointExtension>
        </extensions>
      </trkpt>
      <trkpt lat="36.78474850952625274658203125" lon="-118.42083089053630828857421875">
        <ele>3386.39990234375</ele>
        <time>2021-06-25T20:58:00.000Z</time>
        <extensions>
          <ns3:TrackPointExtension>
            <ns3:atemp>30.0</ns3:atemp>
            <ns3:hr>120</ns3:hr>
          </ns3:TrackPointExtension>
        </extensions>
      </trkpt>
      <trkpt lat="36.7847330868244171142578125" lon="-118.42078152112662792205810546875">
        <ele>3387</ele>
        <time>2021-06-25T20:58:05.000Z</time>
        <extensions>
          <ns3:TrackPointExtension>
            <ns3:atemp>30.0</ns3:atemp>
            <ns3:hr>118</ns3:hr>
          </ns3:TrackPointExtension>
        </extensions>
      </trkpt>
      <trkpt lat="36.78473300300538539886474609375" lon="-118.42075419612228870391845703125">
        <ele>3387</ele>
        <time>2021-06-25T20:58:08.000Z</time>
        <extensions>
          <ns3:TrackPointExtension>
            <ns3:atemp>30.0</ns3:atemp>
            <ns3:hr>115</ns3:hr>
          </ns3:TrackPointExtension>
        </extensions>
      </trkpt>
      <trkpt lat="36.78472830913960933685302734375" lon="-118.4207462333142757415771484375">
        <ele>3387.199951171875</ele>
        <time>2021-06-25T20:58:09.000Z</time>
        <extensions>
          <ns3:TrackPointExtension>
            <ns3:atemp>30.0</ns3:atemp>
            <ns3:hr>114</ns3:hr>
          </ns3:TrackPointExtension>
        </extensions>
      </trkpt>
      <trkpt lat="36.784709282219409942626953125" lon="-118.42071966268122196197509765625">
        <ele>3388</ele>
        <time>2021-06-25T20:58:12.000Z</time>
        <extensions>
          <ns3:TrackPointExtension>
            <ns3:atemp>30.0</ns3:atemp>
            <ns3:hr>112</ns3:hr>
          </ns3:TrackPointExtension>
        </extensions>
      </trkpt>
      <trkpt lat="36.784718334674835205078125" lon="-118.42068412341177463531494140625">
        <ele>3388.60009765625</ele>
        <time>2021-06-25T20:58:18.000Z</time>
        <extensions>
          <ns3:TrackPointExtension>
            <ns3:atemp>30.0</ns3:atemp>
            <ns3:hr>112</ns3:hr>
          </ns3:TrackPointExtension>
        </extensions>
      </trkpt>
      <trkpt lat="36.78471355699002742767333984375" lon="-118.42065998353064060211181640625">
        <ele>3389</ele>
        <time>2021-06-25T20:58:21.000Z</time>
        <extensions>
          <ns3:TrackPointExtension>
            <ns3:atemp>30.0</ns3:atemp>
            <ns3:hr>112</ns3:hr>
          </ns3:TrackPointExtension>
        </extensions>
      </trkpt>
      <trkpt lat="36.78472143597900867462158203125" lon="-118.42060826718807220458984375">
        <ele>3389</ele>
        <time>2021-06-25T20:58:27.000Z</time>
        <extensions>
          <ns3:TrackPointExtension>
            <ns3:atemp>30.0</ns3:atemp>
            <ns3:hr>109</ns3:hr>
          </ns3:TrackPointExtension>
        </extensions>
      </trkpt>
      <trkpt lat="36.78472302854061126708984375" lon="-118.4206037409603595733642578125">
        <ele>3389.199951171875</ele>
        <time>2021-06-25T20:58:28.000Z</time>
        <extensions>
          <ns3:TrackPointExtension>
            <ns3:atemp>30.0</ns3:atemp>
            <ns3:hr>109</ns3:hr>
          </ns3:TrackPointExtension>
        </extensions>
      </trkpt>
      <trkpt lat="36.7847185023128986358642578125" lon="-118.420554958283901214599609375">
        <ele>3390</ele>
        <time>2021-06-25T20:58:33.000Z</time>
        <extensions>
          <ns3:TrackPointExtension>
            <ns3:atemp>30.0</ns3:atemp>
            <ns3:hr>108</ns3:hr>
          </ns3:TrackPointExtension>
        </extensions>
      </trkpt>
      <trkpt lat="36.78469712845981121063232421875" lon="-118.42052838765084743499755859375">
        <ele>3390.39990234375</ele>
        <time>2021-06-25T20:58:37.000Z</time>
        <extensions>
          <ns3:TrackPointExtension>
            <ns3:atemp>30.0</ns3:atemp>
            <ns3:hr>106</ns3:hr>
          </ns3:TrackPointExtension>
        </extensions>
      </trkpt>
      <trkpt lat="36.78467608988285064697265625" lon="-118.4205175749957561492919921875">
        <ele>3390.199951171875</ele>
        <time>2021-06-25T20:58:40.000Z</time>
        <extensions>
          <ns3:TrackPointExtension>
            <ns3:atemp>30.0</ns3:atemp>
            <ns3:hr>109</ns3:hr>
          </ns3:TrackPointExtension>
        </extensions>
      </trkpt>
      <trkpt lat="36.78465329110622406005859375" lon="-118.4205239452421665191650390625">
        <ele>3390.60009765625</ele>
        <time>2021-06-25T20:59:02.000Z</time>
        <extensions>
          <ns3:TrackPointExtension>
            <ns3:atemp>30.0</ns3:atemp>
            <ns3:hr>112</ns3:hr>
          </ns3:TrackPointExtension>
        </extensions>
      </trkpt>
      <trkpt lat="36.78465329110622406005859375" lon="-118.4205239452421665191650390625">
        <ele>3390.60009765625</ele>
        <time>2021-06-25T20:59:08.000Z</time>
        <extensions>
          <ns3:TrackPointExtension>
            <ns3:atemp>30.0</ns3:atemp>
            <ns3:hr>112</ns3:hr>
          </ns3:TrackPointExtension>
        </extensions>
      </trkpt>
      <trkpt lat="36.784648597240447998046875" lon="-118.42052252031862735748291015625">
        <ele>3390.60009765625</ele>
        <time>2021-06-25T20:59:28.000Z</time>
        <extensions>
          <ns3:TrackPointExtension>
            <ns3:atemp>30.0</ns3:atemp>
            <ns3:hr>109</ns3:hr>
          </ns3:TrackPointExtension>
        </extensions>
      </trkpt>
      <trkpt lat="36.78464650176465511322021484375" lon="-118.4205222688615322113037109375">
        <ele>3391</ele>
        <time>2021-06-25T20:59:30.000Z</time>
        <extensions>
          <ns3:TrackPointExtension>
            <ns3:atemp>30.0</ns3:atemp>
            <ns3:hr>106</ns3:hr>
          </ns3:TrackPointExtension>
        </extensions>
      </trkpt>
      <trkpt lat="36.78464633412659168243408203125" lon="-118.42052218504250049591064453125">
        <ele>3392</ele>
        <time>2021-06-25T20:59:31.000Z</time>
        <extensions>
          <ns3:TrackPointExtension>
            <ns3:atemp>30.0</ns3:atemp>
            <ns3:hr>106</ns3:hr>
          </ns3:TrackPointExtension>
        </extensions>
      </trkpt>
      <trkpt lat="36.78464583121240139007568359375" lon="-118.42052218504250049591064453125">
        <ele>3392.39990234375</ele>
        <time>2021-06-25T20:59:34.000Z</time>
        <extensions>
          <ns3:TrackPointExtension>
            <ns3:atemp>30.0</ns3:atemp>
            <ns3:hr>108</ns3:hr>
          </ns3:TrackPointExtension>
        </extensions>
      </trkpt>
      <trkpt lat="36.78464549593627452850341796875" lon="-118.4205132164061069488525390625">
        <ele>3393</ele>
        <time>2021-06-25T20:59:38.000Z</time>
        <extensions>
          <ns3:TrackPointExtension>
            <ns3:atemp>29.0</ns3:atemp>
            <ns3:hr>112</ns3:hr>
          </ns3:TrackPointExtension>
        </extensions>
      </trkpt>
      <trkpt lat="36.78465195000171661376953125" lon="-118.42047256417572498321533203125">
        <ele>3393</ele>
        <time>2021-06-25T20:59:40.000Z</time>
        <extensions>
          <ns3:TrackPointExtension>
            <ns3:atemp>29.0</ns3:atemp>
            <ns3:hr>116</ns3:hr>
          </ns3:TrackPointExtension>
        </extensions>
      </trkpt>
      <trkpt lat="36.78465756587684154510498046875" lon="-118.42043518088757991790771484375">
        <ele>3393.199951171875</ele>
        <time>2021-06-25T20:59:42.000Z</time>
        <extensions>
          <ns3:TrackPointExtension>
            <ns3:atemp>29.0</ns3:atemp>
            <ns3:hr>118</ns3:hr>
          </ns3:TrackPointExtension>
        </extensions>
      </trkpt>
      <trkpt lat="36.784653961658477783203125" lon="-118.4203983843326568603515625">
        <ele>3393.800048828125</ele>
        <time>2021-06-25T20:59:44.000Z</time>
        <extensions>
          <ns3:TrackPointExtension>
            <ns3:atemp>29.0</ns3:atemp>
            <ns3:hr>121</ns3:hr>
          </ns3:TrackPointExtension>
        </extensions>
      </trkpt>
      <trkpt lat="36.784649603068828582763671875" lon="-118.4203769266605377197265625">
        <ele>3393.800048828125</ele>
        <time>2021-06-25T20:59:45.000Z</time>
        <extensions>
          <ns3:TrackPointExtension>
            <ns3:atemp>29.0</ns3:atemp>
            <ns3:hr>121</ns3:hr>
          </ns3:TrackPointExtension>
        </extensions>
      </trkpt>
      <trkpt lat="36.78460693918168544769287109375" lon="-118.4203254617750644683837890625">
        <ele>3394.39990234375</ele>
        <time>2021-06-25T20:59:50.000Z</time>
        <extensions>
          <ns3:TrackPointExtension>
            <ns3:atemp>29.0</ns3:atemp>
            <ns3:hr>118</ns3:hr>
          </ns3:TrackPointExtension>
        </extensions>
      </trkpt>
      <trkpt lat="36.784601993858814239501953125" lon="-118.42031397856771945953369140625">
        <ele>3394.60009765625</ele>
        <time>2021-06-25T20:59:52.000Z</time>
        <extensions>
          <ns3:TrackPointExtension>
            <ns3:atemp>29.0</ns3:atemp>
            <ns3:hr>114</ns3:hr>
          </ns3:TrackPointExtension>
        </extensions>
      </trkpt>
      <trkpt lat="36.7846024967730045318603515625" lon="-118.4203076921403408050537109375">
        <ele>3394.39990234375</ele>
        <time>2021-06-25T20:59:53.000Z</time>
        <extensions>
          <ns3:TrackPointExtension>
            <ns3:atemp>29.0</ns3:atemp>
            <ns3:hr>113</ns3:hr>
          </ns3:TrackPointExtension>
        </extensions>
      </trkpt>
      <trkpt lat="36.78459537215530872344970703125" lon="-118.4202590771019458770751953125">
        <ele>3394.800048828125</ele>
        <time>2021-06-25T20:59:58.000Z</time>
        <extensions>
          <ns3:TrackPointExtension>
            <ns3:atemp>29.0</ns3:atemp>
            <ns3:hr>113</ns3:hr>
          </ns3:TrackPointExtension>
        </extensions>
      </trkpt>
      <trkpt lat="36.7845733277499675750732421875" lon="-118.4201323427259922027587890625">
        <ele>3394.800048828125</ele>
        <time>2021-06-25T21:00:10.000Z</time>
        <extensions>
          <ns3:TrackPointExtension>
            <ns3:atemp>29.0</ns3:atemp>
            <ns3:hr>115</ns3:hr>
          </ns3:TrackPointExtension>
        </extensions>
      </trkpt>
      <trkpt lat="36.7845478467643260955810546875" lon="-118.420080877840518951416015625">
        <ele>3395</ele>
        <time>2021-06-25T21:00:15.000Z</time>
        <extensions>
          <ns3:TrackPointExtension>
            <ns3:atemp>29.0</ns3:atemp>
            <ns3:hr>118</ns3:hr>
          </ns3:TrackPointExtension>
        </extensions>
      </trkpt>
      <trkpt lat="36.7845143191516399383544921875" lon="-118.4200411476194858551025390625">
        <ele>3395</ele>
        <time>2021-06-25T21:00:20.000Z</time>
        <extensions>
          <ns3:TrackPointExtension>
            <ns3:atemp>29.0</ns3:atemp>
            <ns3:hr>118</ns3:hr>
          </ns3:TrackPointExtension>
        </extensions>
      </trkpt>
      <trkpt lat="36.78451473824679851531982421875" lon="-118.4200337715446949005126953125">
        <ele>3395</ele>
        <time>2021-06-25T21:00:21.000Z</time>
        <extensions>
          <ns3:TrackPointExtension>
            <ns3:atemp>29.0</ns3:atemp>
            <ns3:hr>117</ns3:hr>
          </ns3:TrackPointExtension>
        </extensions>
      </trkpt>
      <trkpt lat="36.78451859392225742340087890625" lon="-118.42000803910195827484130859375">
        <ele>3395.60009765625</ele>
        <time>2021-06-25T21:00:23.000Z</time>
        <extensions>
          <ns3:TrackPointExtension>
            <ns3:atemp>29.0</ns3:atemp>
            <ns3:hr>117</ns3:hr>
          </ns3:TrackPointExtension>
        </extensions>
      </trkpt>
      <trkpt lat="36.78451574407517910003662109375" lon="-118.4199921973049640655517578125">
        <ele>3395.800048828125</ele>
        <time>2021-06-25T21:00:24.000Z</time>
        <extensions>
          <ns3:TrackPointExtension>
            <ns3:atemp>29.0</ns3:atemp>
            <ns3:hr>115</ns3:hr>
          </ns3:TrackPointExtension>
        </extensions>
      </trkpt>
      <trkpt lat="36.784504093229770660400390625" lon="-118.41994316317141056060791015625">
        <ele>3396</ele>
        <time>2021-06-25T21:00:28.000Z</time>
        <extensions>
          <ns3:TrackPointExtension>
            <ns3:atemp>29.0</ns3:atemp>
            <ns3:hr>117</ns3:hr>
          </ns3:TrackPointExtension>
        </extensions>
      </trkpt>
      <trkpt lat="36.78449110127985477447509765625" lon="-118.41990360058844089508056640625">
        <ele>3396.60009765625</ele>
        <time>2021-06-25T21:00:32.000Z</time>
        <extensions>
          <ns3:TrackPointExtension>
            <ns3:atemp>29.0</ns3:atemp>
            <ns3:hr>116</ns3:hr>
          </ns3:TrackPointExtension>
        </extensions>
      </trkpt>
      <trkpt lat="36.7844871617853641510009765625" lon="-118.4198725037276744842529296875">
        <ele>3397</ele>
        <time>2021-06-25T21:00:36.000Z</time>
        <extensions>
          <ns3:TrackPointExtension>
            <ns3:atemp>29.0</ns3:atemp>
            <ns3:hr>117</ns3:hr>
          </ns3:TrackPointExtension>
        </extensions>
      </trkpt>
      <trkpt lat="36.7844824679195880889892578125" lon="-118.419827409088611602783203125">
        <ele>3397.800048828125</ele>
        <time>2021-06-25T21:00:41.000Z</time>
        <extensions>
          <ns3:TrackPointExtension>
            <ns3:atemp>29.0</ns3:atemp>
            <ns3:hr>116</ns3:hr>
          </ns3:TrackPointExtension>
        </extensions>
      </trkpt>
      <trkpt lat="36.78448875434696674346923828125" lon="-118.419778458774089813232421875">
        <ele>3398.800048828125</ele>
        <time>2021-06-25T21:00:46.000Z</time>
        <extensions>
          <ns3:TrackPointExtension>
            <ns3:atemp>29.0</ns3:atemp>
            <ns3:hr>115</ns3:hr>
          </ns3:TrackPointExtension>
        </extensions>
      </trkpt>
      <trkpt lat="36.78445472382009029388427734375" lon="-118.41974518261849880218505859375">
        <ele>3399.60009765625</ele>
        <time>2021-06-25T21:00:53.000Z</time>
        <extensions>
          <ns3:TrackPointExtension>
            <ns3:atemp>29.0</ns3:atemp>
            <ns3:hr>114</ns3:hr>
          </ns3:TrackPointExtension>
        </extensions>
      </trkpt>
      <trkpt lat="36.7844563163816928863525390625" lon="-118.4197350405156612396240234375">
        <ele>3400</ele>
        <time>2021-06-25T21:00:54.000Z</time>
        <extensions>
          <ns3:TrackPointExtension>
            <ns3:atemp>29.0</ns3:atemp>
            <ns3:hr>114</ns3:hr>
          </ns3:TrackPointExtension>
        </extensions>
      </trkpt>
      <trkpt lat="36.7844063602387905120849609375" lon="-118.4197129122912883758544921875">
        <ele>3400.800048828125</ele>
        <time>2021-06-25T21:00:59.000Z</time>
        <extensions>
          <ns3:TrackPointExtension>
            <ns3:atemp>29.0</ns3:atemp>
            <ns3:hr>111</ns3:hr>
          </ns3:TrackPointExtension>
        </extensions>
      </trkpt>
      <trkpt lat="36.78439755924046039581298828125" lon="-118.4197068773210048675537109375">
        <ele>3400.800048828125</ele>
        <time>2021-06-25T21:01:00.000Z</time>
        <extensions>
          <ns3:TrackPointExtension>
            <ns3:atemp>29.0</ns3:atemp>
            <ns3:hr>111</ns3:hr>
          </ns3:TrackPointExtension>
        </extensions>
      </trkpt>
      <trkpt lat="36.78439320065081119537353515625" lon="-118.4197036921977996826171875">
        <ele>3401</ele>
        <time>2021-06-25T21:01:01.000Z</time>
        <extensions>
          <ns3:TrackPointExtension>
            <ns3:atemp>29.0</ns3:atemp>
            <ns3:hr>112</ns3:hr>
          </ns3:TrackPointExtension>
        </extensions>
      </trkpt>
      <trkpt lat="36.78432849235832691192626953125" lon="-118.419687934219837188720703125">
        <ele>3402</ele>
        <time>2021-06-25T21:01:09.000Z</time>
        <extensions>
          <ns3:TrackPointExtension>
            <ns3:atemp>29.0</ns3:atemp>
            <ns3:hr>112</ns3:hr>
          </ns3:TrackPointExtension>
        </extensions>
      </trkpt>
      <trkpt lat="36.78431843407452106475830078125" lon="-118.419681899249553680419921875">
        <ele>3402.199951171875</ele>
        <time>2021-06-25T21:01:10.000Z</time>
        <extensions>
          <ns3:TrackPointExtension>
            <ns3:atemp>29.0</ns3:atemp>
            <ns3:hr>113</ns3:hr>
          </ns3:TrackPointExtension>
        </extensions>
      </trkpt>
      <trkpt lat="36.78429110907018184661865234375" lon="-118.41965968720614910125732421875">
        <ele>3402.60009765625</ele>
        <time>2021-06-25T21:01:14.000Z</time>
        <extensions>
          <ns3:TrackPointExtension>
            <ns3:atemp>29.0</ns3:atemp>
            <ns3:hr>116</ns3:hr>
          </ns3:TrackPointExtension>
        </extensions>
      </trkpt>
      <trkpt lat="36.78429261781275272369384765625" lon="-118.41964325867593288421630859375">
        <ele>3402.60009765625</ele>
        <time>2021-06-25T21:01:16.000Z</time>
        <extensions>
          <ns3:TrackPointExtension>
            <ns3:atemp>29.0</ns3:atemp>
            <ns3:hr>119</ns3:hr>
          </ns3:TrackPointExtension>
        </extensions>
      </trkpt>
      <trkpt lat="36.78428691811859607696533203125" lon="-118.41962766833603382110595703125">
        <ele>3402.60009765625</ele>
        <time>2021-06-25T21:01:18.000Z</time>
        <extensions>
          <ns3:TrackPointExtension>
            <ns3:atemp>29.0</ns3:atemp>
            <ns3:hr>120</ns3:hr>
          </ns3:TrackPointExtension>
        </extensions>
      </trkpt>
      <trkpt lat="36.78429010324180126190185546875" lon="-118.41955105774104595184326171875">
        <ele>3402.800048828125</ele>
        <time>2021-06-25T21:01:25.000Z</time>
        <extensions>
          <ns3:TrackPointExtension>
            <ns3:atemp>29.0</ns3:atemp>
            <ns3:hr>123</ns3:hr>
          </ns3:TrackPointExtension>
        </extensions>
      </trkpt>
      <trkpt lat="36.78429261781275272369384765625" lon="-118.419541083276271820068359375">
        <ele>3403.199951171875</ele>
        <time>2021-06-25T21:01:26.000Z</time>
        <extensions>
          <ns3:TrackPointExtension>
            <ns3:atemp>29.0</ns3:atemp>
            <ns3:hr>124</ns3:hr>
          </ns3:TrackPointExtension>
        </extensions>
      </trkpt>
      <trkpt lat="36.78430686704814434051513671875" lon="-118.41948442161083221435546875">
        <ele>3403.39990234375</ele>
        <time>2021-06-25T21:01:31.000Z</time>
        <extensions>
          <ns3:TrackPointExtension>
            <ns3:atemp>29.0</ns3:atemp>
            <ns3:hr>127</ns3:hr>
          </ns3:TrackPointExtension>
        </extensions>
      </trkpt>
      <trkpt lat="36.78432363085448741912841796875" lon="-118.41941476799547672271728515625">
        <ele>3403.39990234375</ele>
        <time>2021-06-25T21:01:37.000Z</time>
        <extensions>
          <ns3:TrackPointExtension>
            <ns3:atemp>29.0</ns3:atemp>
            <ns3:hr>126</ns3:hr>
          </ns3:TrackPointExtension>
        </extensions>
      </trkpt>
      <trkpt lat="36.7843379639089107513427734375" lon="-118.41931116767227649688720703125">
        <ele>3402.39990234375</ele>
        <time>2021-06-25T21:01:47.000Z</time>
        <extensions>
          <ns3:TrackPointExtension>
            <ns3:atemp>29.0</ns3:atemp>
            <ns3:hr>125</ns3:hr>
          </ns3:TrackPointExtension>
        </extensions>
      </trkpt>
      <trkpt lat="36.78434944711625576019287109375" lon="-118.4192804060876369476318359375">
        <ele>3402.199951171875</ele>
        <time>2021-06-25T21:01:50.000Z</time>
        <extensions>
          <ns3:TrackPointExtension>
            <ns3:atemp>29.0</ns3:atemp>
            <ns3:hr>124</ns3:hr>
          </ns3:TrackPointExtension>
        </extensions>
      </trkpt>
      <trkpt lat="36.78436763584613800048828125" lon="-118.41922986321151256561279296875">
        <ele>3402</ele>
        <time>2021-06-25T21:01:55.000Z</time>
        <extensions>
          <ns3:TrackPointExtension>
            <ns3:atemp>29.0</ns3:atemp>
            <ns3:hr>123</ns3:hr>
          </ns3:TrackPointExtension>
        </extensions>
      </trkpt>
      <trkpt lat="36.7843885906040668487548828125" lon="-118.4191171266138553619384765625">
        <ele>3402</ele>
        <time>2021-06-25T21:02:04.000Z</time>
        <extensions>
          <ns3:TrackPointExtension>
            <ns3:atemp>29.0</ns3:atemp>
            <ns3:hr>120</ns3:hr>
          </ns3:TrackPointExtension>
        </extensions>
      </trkpt>
      <trkpt lat="36.7843916080892086029052734375" lon="-118.41906423680484294891357421875">
        <ele>3402.60009765625</ele>
        <time>2021-06-25T21:02:08.000Z</time>
        <extensions>
          <ns3:TrackPointExtension>
            <ns3:atemp>29.0</ns3:atemp>
            <ns3:hr>117</ns3:hr>
          </ns3:TrackPointExtension>
        </extensions>
      </trkpt>
      <trkpt lat="36.784393787384033203125" lon="-118.419052921235561370849609375">
        <ele>3402.60009765625</ele>
        <time>2021-06-25T21:02:09.000Z</time>
        <extensions>
          <ns3:TrackPointExtension>
            <ns3:atemp>29.0</ns3:atemp>
            <ns3:hr>116</ns3:hr>
          </ns3:TrackPointExtension>
        </extensions>
      </trkpt>
      <trkpt lat="36.78439236246049404144287109375" lon="-118.41902735643088817596435546875">
        <ele>3402.800048828125</ele>
        <time>2021-06-25T21:02:11.000Z</time>
        <extensions>
          <ns3:TrackPointExtension>
            <ns3:atemp>29.0</ns3:atemp>
            <ns3:hr>113</ns3:hr>
          </ns3:TrackPointExtension>
        </extensions>
      </trkpt>
      <trkpt lat="36.7843983136117458343505859375" lon="-118.41895946301519870758056640625">
        <ele>3403.199951171875</ele>
        <time>2021-06-25T21:02:16.000Z</time>
        <extensions>
          <ns3:TrackPointExtension>
            <ns3:atemp>29.0</ns3:atemp>
            <ns3:hr>113</ns3:hr>
          </ns3:TrackPointExtension>
        </extensions>
      </trkpt>
      <trkpt lat="36.78439621813595294952392578125" lon="-118.41894521377980709075927734375">
        <ele>3403.199951171875</ele>
        <time>2021-06-25T21:02:17.000Z</time>
        <extensions>
          <ns3:TrackPointExtension>
            <ns3:atemp>29.0</ns3:atemp>
            <ns3:hr>113</ns3:hr>
          </ns3:TrackPointExtension>
        </extensions>
      </trkpt>
      <trkpt lat="36.78440342657268047332763671875" lon="-118.4188874624669551849365234375">
        <ele>3403.800048828125</ele>
        <time>2021-06-25T21:02:22.000Z</time>
        <extensions>
          <ns3:TrackPointExtension>
            <ns3:atemp>29.0</ns3:atemp>
            <ns3:hr>110</ns3:hr>
          </ns3:TrackPointExtension>
        </extensions>
      </trkpt>
      <trkpt lat="36.7844087071716785430908203125" lon="-118.41887027956545352935791015625">
        <ele>3404</ele>
        <time>2021-06-25T21:02:24.000Z</time>
        <extensions>
          <ns3:TrackPointExtension>
            <ns3:atemp>29.0</ns3:atemp>
            <ns3:hr>113</ns3:hr>
          </ns3:TrackPointExtension>
        </extensions>
      </trkpt>
      <trkpt lat="36.7844120599329471588134765625" lon="-118.4188596345484256744384765625">
        <ele>3404.199951171875</ele>
        <time>2021-06-25T21:02:25.000Z</time>
        <extensions>
          <ns3:TrackPointExtension>
            <ns3:atemp>29.0</ns3:atemp>
            <ns3:hr>113</ns3:hr>
          </ns3:TrackPointExtension>
        </extensions>
      </trkpt>
      <trkpt lat="36.78441700525581836700439453125" lon="-118.4188499115407466888427734375">
        <ele>3404.199951171875</ele>
        <time>2021-06-25T21:02:26.000Z</time>
        <extensions>
          <ns3:TrackPointExtension>
            <ns3:atemp>29.0</ns3:atemp>
            <ns3:hr>113</ns3:hr>
          </ns3:TrackPointExtension>
        </extensions>
      </trkpt>
      <trkpt lat="36.78442128002643585205078125" lon="-118.41883943416178226470947265625">
        <ele>3404.39990234375</ele>
        <time>2021-06-25T21:02:27.000Z</time>
        <extensions>
          <ns3:TrackPointExtension>
            <ns3:atemp>29.0</ns3:atemp>
            <ns3:hr>109</ns3:hr>
          </ns3:TrackPointExtension>
        </extensions>
      </trkpt>
      <trkpt lat="36.7844291590154170989990234375" lon="-118.4188080020248889923095703125">
        <ele>3404.39990234375</ele>
        <time>2021-06-25T21:02:29.000Z</time>
        <extensions>
          <ns3:TrackPointExtension>
            <ns3:atemp>29.0</ns3:atemp>
            <ns3:hr>113</ns3:hr>
          </ns3:TrackPointExtension>
        </extensions>
      </trkpt>
      <trkpt lat="36.7844539694488048553466796875" lon="-118.41874455101788043975830078125">
        <ele>3405</ele>
        <time>2021-06-25T21:02:35.000Z</time>
        <extensions>
          <ns3:TrackPointExtension>
            <ns3:atemp>29.0</ns3:atemp>
            <ns3:hr>110</ns3:hr>
          </ns3:TrackPointExtension>
        </extensions>
      </trkpt>
      <trkpt lat="36.78445841185748577117919921875" lon="-118.4187335707247257232666015625">
        <ele>3405</ele>
        <time>2021-06-25T21:02:36.000Z</time>
        <extensions>
          <ns3:TrackPointExtension>
            <ns3:atemp>29.0</ns3:atemp>
            <ns3:hr>110</ns3:hr>
          </ns3:TrackPointExtension>
        </extensions>
      </trkpt>
      <trkpt lat="36.7844747565686702728271484375" lon="-118.41864396817982196807861328125">
        <ele>3405.199951171875</ele>
        <time>2021-06-25T21:02:43.000Z</time>
        <extensions>
          <ns3:TrackPointExtension>
            <ns3:atemp>29.0</ns3:atemp>
            <ns3:hr>108</ns3:hr>
          </ns3:TrackPointExtension>
        </extensions>
      </trkpt>
      <trkpt lat="36.78447484038770198822021484375" lon="-118.41863038949668407440185546875">
        <ele>3405.39990234375</ele>
        <time>2021-06-25T21:02:44.000Z</time>
        <extensions>
          <ns3:TrackPointExtension>
            <ns3:atemp>29.0</ns3:atemp>
            <ns3:hr>108</ns3:hr>
          </ns3:TrackPointExtension>
        </extensions>
      </trkpt>
      <trkpt lat="36.784478612244129180908203125" lon="-118.41848932206630706787109375">
        <ele>3406.199951171875</ele>
        <time>2021-06-25T21:02:55.000Z</time>
        <extensions>
          <ns3:TrackPointExtension>
            <ns3:atemp>29.0</ns3:atemp>
            <ns3:hr>108</ns3:hr>
          </ns3:TrackPointExtension>
        </extensions>
      </trkpt>
      <trkpt lat="36.78448171354830265045166015625" lon="-118.4184593148529529571533203125">
        <ele>3406.199951171875</ele>
        <time>2021-06-25T21:02:58.000Z</time>
        <extensions>
          <ns3:TrackPointExtension>
            <ns3:atemp>29.0</ns3:atemp>
            <ns3:hr>108</ns3:hr>
          </ns3:TrackPointExtension>
        </extensions>
      </trkpt>
      <trkpt lat="36.7844911850988864898681640625" lon="-118.4183895774185657501220703125">
        <ele>3407</ele>
        <time>2021-06-25T21:03:04.000Z</time>
        <extensions>
          <ns3:TrackPointExtension>
            <ns3:atemp>29.0</ns3:atemp>
            <ns3:hr>111</ns3:hr>
          </ns3:TrackPointExtension>
        </extensions>
      </trkpt>
      <trkpt lat="36.784496046602725982666015625" lon="-118.4183818660676479339599609375">
        <ele>3407</ele>
        <time>2021-06-25T21:03:05.000Z</time>
        <extensions>
          <ns3:TrackPointExtension>
            <ns3:atemp>29.0</ns3:atemp>
            <ns3:hr>109</ns3:hr>
          </ns3:TrackPointExtension>
        </extensions>
      </trkpt>
      <trkpt lat="36.784491352736949920654296875" lon="-118.418364264070987701416015625">
        <ele>3407.39990234375</ele>
        <time>2021-06-25T21:03:07.000Z</time>
        <extensions>
          <ns3:TrackPointExtension>
            <ns3:atemp>29.0</ns3:atemp>
            <ns3:hr>107</ns3:hr>
          </ns3:TrackPointExtension>
        </extensions>
      </trkpt>
      <trkpt lat="36.78447626531124114990234375" lon="-118.418344147503376007080078125">
        <ele>3407.39990234375</ele>
        <time>2021-06-25T21:03:09.000Z</time>
        <extensions>
          <ns3:TrackPointExtension>
            <ns3:atemp>29.0</ns3:atemp>
            <ns3:hr>110</ns3:hr>
          </ns3:TrackPointExtension>
        </extensions>
      </trkpt>
      <trkpt lat="36.78447199054062366485595703125" lon="-118.41832729987800121307373046875">
        <ele>3407.60009765625</ele>
        <time>2021-06-25T21:03:11.000Z</time>
        <extensions>
          <ns3:TrackPointExtension>
            <ns3:atemp>29.0</ns3:atemp>
            <ns3:hr>107</ns3:hr>
          </ns3:TrackPointExtension>
        </extensions>
      </trkpt>
      <trkpt lat="36.78447266109287738800048828125" lon="-118.41828681528568267822265625">
        <ele>3408</ele>
        <time>2021-06-25T21:03:15.000Z</time>
        <extensions>
          <ns3:TrackPointExtension>
            <ns3:atemp>29.0</ns3:atemp>
            <ns3:hr>110</ns3:hr>
          </ns3:TrackPointExtension>
        </extensions>
      </trkpt>
      <trkpt lat="36.7844683863222599029541015625" lon="-118.41827047057449817657470703125">
        <ele>3408.39990234375</ele>
        <time>2021-06-25T21:03:17.000Z</time>
        <extensions>
          <ns3:TrackPointExtension>
            <ns3:atemp>29.0</ns3:atemp>
            <ns3:hr>112</ns3:hr>
          </ns3:TrackPointExtension>
        </extensions>
      </trkpt>
      <trkpt lat="36.7844677157700061798095703125" lon="-118.41826309449970722198486328125">
        <ele>3408.60009765625</ele>
        <time>2021-06-25T21:03:18.000Z</time>
        <extensions>
          <ns3:TrackPointExtension>
            <ns3:atemp>29.0</ns3:atemp>
            <ns3:hr>113</ns3:hr>
          </ns3:TrackPointExtension>
        </extensions>
      </trkpt>
      <trkpt lat="36.784464530646800994873046875" lon="-118.418246917426586151123046875">
        <ele>3409</ele>
        <time>2021-06-25T21:03:21.000Z</time>
        <extensions>
          <ns3:TrackPointExtension>
            <ns3:atemp>29.0</ns3:atemp>
            <ns3:hr>116</ns3:hr>
          </ns3:TrackPointExtension>
        </extensions>
      </trkpt>
      <trkpt lat="36.784460507333278656005859375" lon="-118.41822688467800617218017578125">
        <ele>3409.60009765625</ele>
        <time>2021-06-25T21:03:24.000Z</time>
        <extensions>
          <ns3:TrackPointExtension>
            <ns3:atemp>29.0</ns3:atemp>
            <ns3:hr>119</ns3:hr>
          </ns3:TrackPointExtension>
        </extensions>
      </trkpt>
      <trkpt lat="36.78446285426616668701171875" lon="-118.4182231128215789794921875">
        <ele>3409.60009765625</ele>
        <time>2021-06-25T21:03:25.000Z</time>
        <extensions>
          <ns3:TrackPointExtension>
            <ns3:atemp>29.0</ns3:atemp>
            <ns3:hr>119</ns3:hr>
          </ns3:TrackPointExtension>
        </extensions>
      </trkpt>
      <trkpt lat="36.7844667099416255950927734375" lon="-118.418217413127422332763671875">
        <ele>3409.800048828125</ele>
        <time>2021-06-25T21:03:26.000Z</time>
        <extensions>
          <ns3:TrackPointExtension>
            <ns3:atemp>29.0</ns3:atemp>
            <ns3:hr>120</ns3:hr>
          </ns3:TrackPointExtension>
        </extensions>
      </trkpt>
      <trkpt lat="36.784465871751308441162109375" lon="-118.41819670982658863067626953125">
        <ele>3410.199951171875</ele>
        <time>2021-06-25T21:03:29.000Z</time>
        <extensions>
          <ns3:TrackPointExtension>
            <ns3:atemp>29.0</ns3:atemp>
            <ns3:hr>120</ns3:hr>
          </ns3:TrackPointExtension>
        </extensions>
      </trkpt>
      <trkpt lat="36.78446679376065731048583984375" lon="-118.41818732209503650665283203125">
        <ele>3410.39990234375</ele>
        <time>2021-06-25T21:03:31.000Z</time>
        <extensions>
          <ns3:TrackPointExtension>
            <ns3:atemp>29.0</ns3:atemp>
            <ns3:hr>121</ns3:hr>
          </ns3:TrackPointExtension>
        </extensions>
      </trkpt>
      <trkpt lat="36.7844653688371181488037109375" lon="-118.4181813709437847137451171875">
        <ele>3410.39990234375</ele>
        <time>2021-06-25T21:03:32.000Z</time>
        <extensions>
          <ns3:TrackPointExtension>
            <ns3:atemp>29.0</ns3:atemp>
            <ns3:hr>121</ns3:hr>
          </ns3:TrackPointExtension>
        </extensions>
      </trkpt>
      <trkpt lat="36.78446528501808643341064453125" lon="-118.41817525215446949005126953125">
        <ele>3410.60009765625</ele>
        <time>2021-06-25T21:03:33.000Z</time>
        <extensions>
          <ns3:TrackPointExtension>
            <ns3:atemp>29.0</ns3:atemp>
            <ns3:hr>122</ns3:hr>
          </ns3:TrackPointExtension>
        </extensions>
      </trkpt>
      <trkpt lat="36.784455813467502593994140625" lon="-118.41815144754946231842041015625">
        <ele>3411</ele>
        <time>2021-06-25T21:03:36.000Z</time>
        <extensions>
          <ns3:TrackPointExtension>
            <ns3:atemp>29.0</ns3:atemp>
            <ns3:hr>125</ns3:hr>
          </ns3:TrackPointExtension>
        </extensions>
      </trkpt>
      <trkpt lat="36.7844398878514766693115234375" lon="-118.418135941028594970703125">
        <ele>3411.39990234375</ele>
        <time>2021-06-25T21:03:38.000Z</time>
        <extensions>
          <ns3:TrackPointExtension>
            <ns3:atemp>29.0</ns3:atemp>
            <ns3:hr>125</ns3:hr>
          </ns3:TrackPointExtension>
        </extensions>
      </trkpt>
      <trkpt lat="36.784417591989040374755859375" lon="-118.41811649501323699951171875">
        <ele>3411.39990234375</ele>
        <time>2021-06-25T21:03:40.000Z</time>
        <extensions>
          <ns3:TrackPointExtension>
            <ns3:atemp>29.0</ns3:atemp>
            <ns3:hr>124</ns3:hr>
          </ns3:TrackPointExtension>
        </extensions>
      </trkpt>
      <trkpt lat="36.78440962918102741241455078125" lon="-118.418102748692035675048828125">
        <ele>3411.60009765625</ele>
        <time>2021-06-25T21:03:41.000Z</time>
        <extensions>
          <ns3:TrackPointExtension>
            <ns3:atemp>29.0</ns3:atemp>
            <ns3:hr>123</ns3:hr>
          </ns3:TrackPointExtension>
        </extensions>
      </trkpt>
      <trkpt lat="36.7844070307910442352294921875" lon="-118.41808539815247058868408203125">
        <ele>3411.800048828125</ele>
        <time>2021-06-25T21:03:43.000Z</time>
        <extensions>
          <ns3:TrackPointExtension>
            <ns3:atemp>29.0</ns3:atemp>
            <ns3:hr>122</ns3:hr>
          </ns3:TrackPointExtension>
        </extensions>
      </trkpt>
      <trkpt lat="36.7844144068658351898193359375" lon="-118.4180579893290996551513671875">
        <ele>3412.199951171875</ele>
        <time>2021-06-25T21:03:47.000Z</time>
        <extensions>
          <ns3:TrackPointExtension>
            <ns3:atemp>29.0</ns3:atemp>
            <ns3:hr>122</ns3:hr>
          </ns3:TrackPointExtension>
        </extensions>
      </trkpt>
      <trkpt lat="36.784409545361995697021484375" lon="-118.4180066920816898345947265625">
        <ele>3413</ele>
        <time>2021-06-25T21:03:54.000Z</time>
        <extensions>
          <ns3:TrackPointExtension>
            <ns3:atemp>29.0</ns3:atemp>
            <ns3:hr>122</ns3:hr>
          </ns3:TrackPointExtension>
        </extensions>
      </trkpt>
      <trkpt lat="36.78440342657268047332763671875" lon="-118.41797567903995513916015625">
        <ele>3413.39990234375</ele>
        <time>2021-06-25T21:03:57.000Z</time>
        <extensions>
          <ns3:TrackPointExtension>
            <ns3:atemp>29.0</ns3:atemp>
            <ns3:hr>122</ns3:hr>
          </ns3:TrackPointExtension>
        </extensions>
      </trkpt>
      <trkpt lat="36.784391105175018310546875" lon="-118.4178702346980571746826171875">
        <ele>3414.199951171875</ele>
        <time>2021-06-25T21:04:07.000Z</time>
        <extensions>
          <ns3:TrackPointExtension>
            <ns3:atemp>29.0</ns3:atemp>
            <ns3:hr>121</ns3:hr>
          </ns3:TrackPointExtension>
        </extensions>
      </trkpt>
      <trkpt lat="36.7843899317085742950439453125" lon="-118.41786243952810764312744140625">
        <ele>3414.199951171875</ele>
        <time>2021-06-25T21:04:08.000Z</time>
        <extensions>
          <ns3:TrackPointExtension>
            <ns3:atemp>29.0</ns3:atemp>
            <ns3:hr>121</ns3:hr>
          </ns3:TrackPointExtension>
        </extensions>
      </trkpt>
      <trkpt lat="36.78438280709087848663330078125" lon="-118.41780007816851139068603515625">
        <ele>3415.39990234375</ele>
        <time>2021-06-25T21:04:16.000Z</time>
        <extensions>
          <ns3:TrackPointExtension>
            <ns3:atemp>29.0</ns3:atemp>
            <ns3:hr>119</ns3:hr>
          </ns3:TrackPointExtension>
        </extensions>
      </trkpt>
      <trkpt lat="36.78438909351825714111328125" lon="-118.41776822693645954132080078125">
        <ele>3416</ele>
        <time>2021-06-25T21:04:20.000Z</time>
        <extensions>
          <ns3:TrackPointExtension>
            <ns3:atemp>29.0</ns3:atemp>
            <ns3:hr>116</ns3:hr>
          </ns3:TrackPointExtension>
        </extensions>
      </trkpt>
      <trkpt lat="36.78438917733728885650634765625" lon="-118.4177590906620025634765625">
        <ele>3416.199951171875</ele>
        <time>2021-06-25T21:04:21.000Z</time>
        <extensions>
          <ns3:TrackPointExtension>
            <ns3:atemp>29.0</ns3:atemp>
            <ns3:hr>116</ns3:hr>
          </ns3:TrackPointExtension>
        </extensions>
      </trkpt>
      <trkpt lat="36.78439001552760601043701171875" lon="-118.41775079257786273956298828125">
        <ele>3416.39990234375</ele>
        <time>2021-06-25T21:04:22.000Z</time>
        <extensions>
          <ns3:TrackPointExtension>
            <ns3:atemp>29.0</ns3:atemp>
            <ns3:hr>116</ns3:hr>
          </ns3:TrackPointExtension>
        </extensions>
      </trkpt>
      <trkpt lat="36.7843969725072383880615234375" lon="-118.41769949533045291900634765625">
        <ele>3417</ele>
        <time>2021-06-25T21:04:29.000Z</time>
        <extensions>
          <ns3:TrackPointExtension>
            <ns3:atemp>29.0</ns3:atemp>
            <ns3:hr>118</ns3:hr>
          </ns3:TrackPointExtension>
        </extensions>
      </trkpt>
      <trkpt lat="36.7843993194401264190673828125" lon="-118.41768876649439334869384765625">
        <ele>3417.199951171875</ele>
        <time>2021-06-25T21:04:31.000Z</time>
        <extensions>
          <ns3:TrackPointExtension>
            <ns3:atemp>29.0</ns3:atemp>
            <ns3:hr>119</ns3:hr>
          </ns3:TrackPointExtension>
        </extensions>
      </trkpt>
      <trkpt lat="36.78439873270690441131591796875" lon="-118.41768340207636356353759765625">
        <ele>3417.60009765625</ele>
        <time>2021-06-25T21:04:32.000Z</time>
        <extensions>
          <ns3:TrackPointExtension>
            <ns3:atemp>29.0</ns3:atemp>
            <ns3:hr>119</ns3:hr>
          </ns3:TrackPointExtension>
        </extensions>
      </trkpt>
      <trkpt lat="36.78439705632627010345458984375" lon="-118.4176707454025745391845703125">
        <ele>3417.800048828125</ele>
        <time>2021-06-25T21:04:34.000Z</time>
        <extensions>
          <ns3:TrackPointExtension>
            <ns3:atemp>29.0</ns3:atemp>
            <ns3:hr>120</ns3:hr>
          </ns3:TrackPointExtension>
        </extensions>
      </trkpt>
      <trkpt lat="36.78439420647919178009033203125" lon="-118.41764853335916996002197265625">
        <ele>3418.39990234375</ele>
        <time>2021-06-25T21:04:37.000Z</time>
        <extensions>
          <ns3:TrackPointExtension>
            <ns3:atemp>29.0</ns3:atemp>
            <ns3:hr>123</ns3:hr>
          </ns3:TrackPointExtension>
        </extensions>
      </trkpt>
      <trkpt lat="36.78439504466950893402099609375" lon="-118.41763436794281005859375">
        <ele>3418.800048828125</ele>
        <time>2021-06-25T21:04:39.000Z</time>
        <extensions>
          <ns3:TrackPointExtension>
            <ns3:atemp>29.0</ns3:atemp>
            <ns3:hr>124</ns3:hr>
          </ns3:TrackPointExtension>
        </extensions>
      </trkpt>
      <trkpt lat="36.78437291644513607025146484375" lon="-118.41760846786201000213623046875">
        <ele>3419.60009765625</ele>
        <time>2021-06-25T21:04:44.000Z</time>
        <extensions>
          <ns3:TrackPointExtension>
            <ns3:atemp>29.0</ns3:atemp>
            <ns3:hr>126</ns3:hr>
          </ns3:TrackPointExtension>
        </extensions>
      </trkpt>
      <trkpt lat="36.784365959465503692626953125" lon="-118.41759773902595043182373046875">
        <ele>3420.199951171875</ele>
        <time>2021-06-25T21:04:46.000Z</time>
        <extensions>
          <ns3:TrackPointExtension>
            <ns3:atemp>29.0</ns3:atemp>
            <ns3:hr>126</ns3:hr>
          </ns3:TrackPointExtension>
        </extensions>
      </trkpt>
      <trkpt lat="36.7843248881399631500244140625" lon="-118.41756924055516719818115234375">
        <ele>3420.39990234375</ele>
        <time>2021-06-25T21:04:52.000Z</time>
        <extensions>
          <ns3:TrackPointExtension>
            <ns3:atemp>29.0</ns3:atemp>
            <ns3:hr>128</ns3:hr>
          </ns3:TrackPointExtension>
        </extensions>
      </trkpt>
      <trkpt lat="36.7843124829232692718505859375" lon="-118.41757334768772125244140625">
        <ele>3420.800048828125</ele>
        <time>2021-06-25T21:04:54.000Z</time>
        <extensions>
          <ns3:TrackPointExtension>
            <ns3:atemp>29.0</ns3:atemp>
            <ns3:hr>129</ns3:hr>
          </ns3:TrackPointExtension>
        </extensions>
      </trkpt>
      <trkpt lat="36.78428624756634235382080078125" lon="-118.41759321279823780059814453125">
        <ele>3421.39990234375</ele>
        <time>2021-06-25T21:04:58.000Z</time>
        <extensions>
          <ns3:TrackPointExtension>
            <ns3:atemp>29.0</ns3:atemp>
            <ns3:hr>131</ns3:hr>
          </ns3:TrackPointExtension>
        </extensions>
      </trkpt>
      <trkpt lat="36.784274093806743621826171875" lon="-118.4175959788262844085693359375">
        <ele>3421.60009765625</ele>
        <time>2021-06-25T21:05:00.000Z</time>
        <extensions>
          <ns3:TrackPointExtension>
            <ns3:atemp>29.0</ns3:atemp>
            <ns3:hr>131</ns3:hr>
          </ns3:TrackPointExtension>
        </extensions>
      </trkpt>
      <trkpt lat="36.7842638678848743438720703125" lon="-118.41760058887302875518798828125">
        <ele>3422.39990234375</ele>
        <time>2021-06-25T21:05:02.000Z</time>
        <extensions>
          <ns3:TrackPointExtension>
            <ns3:atemp>29.0</ns3:atemp>
            <ns3:hr>132</ns3:hr>
          </ns3:TrackPointExtension>
        </extensions>
      </trkpt>
      <trkpt lat="36.78424936719238758087158203125" lon="-118.4176013432443141937255859375">
        <ele>3422.39990234375</ele>
        <time>2021-06-25T21:05:05.000Z</time>
        <extensions>
          <ns3:TrackPointExtension>
            <ns3:atemp>29.0</ns3:atemp>
            <ns3:hr>133</ns3:hr>
          </ns3:TrackPointExtension>
        </extensions>
      </trkpt>
      <trkpt lat="36.7842370457947254180908203125" lon="-118.41758231632411479949951171875">
        <ele>3423</ele>
        <time>2021-06-25T21:05:10.000Z</time>
        <extensions>
          <ns3:TrackPointExtension>
            <ns3:atemp>29.0</ns3:atemp>
            <ns3:hr>133</ns3:hr>
          </ns3:TrackPointExtension>
        </extensions>
      </trkpt>
      <trkpt lat="36.78422288037836551666259765625" lon="-118.417562954127788543701171875">
        <ele>3423.39990234375</ele>
        <time>2021-06-25T21:05:13.000Z</time>
        <extensions>
          <ns3:TrackPointExtension>
            <ns3:atemp>29.0</ns3:atemp>
            <ns3:hr>132</ns3:hr>
          </ns3:TrackPointExtension>
        </extensions>
      </trkpt>
      <trkpt lat="36.78420058451592922210693359375" lon="-118.41754124499857425689697265625">
        <ele>3424</ele>
        <time>2021-06-25T21:05:18.000Z</time>
        <extensions>
          <ns3:TrackPointExtension>
            <ns3:atemp>29.0</ns3:atemp>
            <ns3:hr>129</ns3:hr>
          </ns3:TrackPointExtension>
        </extensions>
      </trkpt>
      <trkpt lat="36.78418499417603015899658203125" lon="-118.4175332821905612945556640625">
        <ele>3424.199951171875</ele>
        <time>2021-06-25T21:05:19.000Z</time>
        <extensions>
          <ns3:TrackPointExtension>
            <ns3:atemp>29.0</ns3:atemp>
            <ns3:hr>129</ns3:hr>
          </ns3:TrackPointExtension>
        </extensions>
      </trkpt>
      <trkpt lat="36.7841726727783679962158203125" lon="-118.41752464883029460906982421875">
        <ele>3424.199951171875</ele>
        <time>2021-06-25T21:05:20.000Z</time>
        <extensions>
          <ns3:TrackPointExtension>
            <ns3:atemp>29.0</ns3:atemp>
            <ns3:hr>129</ns3:hr>
          </ns3:TrackPointExtension>
        </extensions>
      </trkpt>
      <trkpt lat="36.78415842354297637939453125" lon="-118.41751635074615478515625">
        <ele>3424.199951171875</ele>
        <time>2021-06-25T21:05:22.000Z</time>
        <extensions>
          <ns3:TrackPointExtension>
            <ns3:atemp>29.0</ns3:atemp>
            <ns3:hr>129</ns3:hr>
          </ns3:TrackPointExtension>
        </extensions>
      </trkpt>
      <trkpt lat="36.7841378040611743927001953125" lon="-118.4175061248242855072021484375">
        <ele>3424.60009765625</ele>
        <time>2021-06-25T21:05:26.000Z</time>
        <extensions>
          <ns3:TrackPointExtension>
            <ns3:atemp>29.0</ns3:atemp>
            <ns3:hr>129</ns3:hr>
          </ns3:TrackPointExtension>
        </extensions>
      </trkpt>
      <trkpt lat="36.784122548997402191162109375" lon="-118.4174990840256214141845703125">
        <ele>3425</ele>
        <time>2021-06-25T21:05:29.000Z</time>
        <extensions>
          <ns3:TrackPointExtension>
            <ns3:atemp>29.0</ns3:atemp>
            <ns3:hr>127</ns3:hr>
          </ns3:TrackPointExtension>
        </extensions>
      </trkpt>
      <trkpt lat="36.78412330336868762969970703125" lon="-118.41749413870275020599365234375">
        <ele>3425.60009765625</ele>
        <time>2021-06-25T21:05:31.000Z</time>
        <extensions>
          <ns3:TrackPointExtension>
            <ns3:atemp>29.0</ns3:atemp>
            <ns3:hr>129</ns3:hr>
          </ns3:TrackPointExtension>
        </extensions>
      </trkpt>
      <trkpt lat="36.78412221372127532958984375" lon="-118.41747544705867767333984375">
        <ele>3426.199951171875</ele>
        <time>2021-06-25T21:05:34.000Z</time>
        <extensions>
          <ns3:TrackPointExtension>
            <ns3:atemp>29.0</ns3:atemp>
            <ns3:hr>127</ns3:hr>
          </ns3:TrackPointExtension>
        </extensions>
      </trkpt>
      <trkpt lat="36.78411684930324554443359375" lon="-118.4174628742039203643798828125">
        <ele>3426.800048828125</ele>
        <time>2021-06-25T21:05:36.000Z</time>
        <extensions>
          <ns3:TrackPointExtension>
            <ns3:atemp>29.0</ns3:atemp>
            <ns3:hr>125</ns3:hr>
          </ns3:TrackPointExtension>
        </extensions>
      </trkpt>
      <trkpt lat="36.78411282598972320556640625" lon="-118.417456336319446563720703125">
        <ele>3426.800048828125</ele>
        <time>2021-06-25T21:05:37.000Z</time>
        <extensions>
          <ns3:TrackPointExtension>
            <ns3:atemp>29.0</ns3:atemp>
            <ns3:hr>124</ns3:hr>
          </ns3:TrackPointExtension>
        </extensions>
      </trkpt>
      <trkpt lat="36.78410955704748630523681640625" lon="-118.41744703240692615509033203125">
        <ele>3426.800048828125</ele>
        <time>2021-06-25T21:05:38.000Z</time>
        <extensions>
          <ns3:TrackPointExtension>
            <ns3:atemp>29.0</ns3:atemp>
            <ns3:hr>124</ns3:hr>
          </ns3:TrackPointExtension>
        </extensions>
      </trkpt>
      <trkpt lat="36.7841046117246150970458984375" lon="-118.41744082979857921600341796875">
        <ele>3426.800048828125</ele>
        <time>2021-06-25T21:05:39.000Z</time>
        <extensions>
          <ns3:TrackPointExtension>
            <ns3:atemp>29.0</ns3:atemp>
            <ns3:hr>123</ns3:hr>
          </ns3:TrackPointExtension>
        </extensions>
      </trkpt>
      <trkpt lat="36.784062199294567108154296875" lon="-118.41741987504065036773681640625">
        <ele>3427.60009765625</ele>
        <time>2021-06-25T21:05:46.000Z</time>
        <extensions>
          <ns3:TrackPointExtension>
            <ns3:atemp>29.0</ns3:atemp>
            <ns3:hr>120</ns3:hr>
          </ns3:TrackPointExtension>
        </extensions>
      </trkpt>
      <trkpt lat="36.78405222482979297637939453125" lon="-118.41740814037621021270751953125">
        <ele>3427.800048828125</ele>
        <time>2021-06-25T21:05:48.000Z</time>
        <extensions>
          <ns3:TrackPointExtension>
            <ns3:atemp>29.0</ns3:atemp>
            <ns3:hr>120</ns3:hr>
          </ns3:TrackPointExtension>
        </extensions>
      </trkpt>
      <trkpt lat="36.78404979407787322998046875" lon="-118.41740168631076812744140625">
        <ele>3427.800048828125</ele>
        <time>2021-06-25T21:05:49.000Z</time>
        <extensions>
          <ns3:TrackPointExtension>
            <ns3:atemp>29.0</ns3:atemp>
            <ns3:hr>120</ns3:hr>
          </ns3:TrackPointExtension>
        </extensions>
      </trkpt>
      <trkpt lat="36.784041412174701690673828125" lon="-118.41738701798021793365478515625">
        <ele>3428.199951171875</ele>
        <time>2021-06-25T21:05:51.000Z</time>
        <extensions>
          <ns3:TrackPointExtension>
            <ns3:atemp>29.0</ns3:atemp>
            <ns3:hr>119</ns3:hr>
          </ns3:TrackPointExtension>
        </extensions>
      </trkpt>
      <trkpt lat="36.78403764031827449798583984375" lon="-118.41738048009574413299560546875">
        <ele>3428.199951171875</ele>
        <time>2021-06-25T21:05:52.000Z</time>
        <extensions>
          <ns3:TrackPointExtension>
            <ns3:atemp>29.0</ns3:atemp>
            <ns3:hr>119</ns3:hr>
          </ns3:TrackPointExtension>
        </extensions>
      </trkpt>
      <trkpt lat="36.7840228043496608734130859375" lon="-118.4173448570072650909423828125">
        <ele>3429</ele>
        <time>2021-06-25T21:05:58.000Z</time>
        <extensions>
          <ns3:TrackPointExtension>
            <ns3:atemp>29.0</ns3:atemp>
            <ns3:hr>120</ns3:hr>
          </ns3:TrackPointExtension>
        </extensions>
      </trkpt>
      <trkpt lat="36.7840191163122653961181640625" lon="-118.41733957640826702117919921875">
        <ele>3429</ele>
        <time>2021-06-25T21:05:59.000Z</time>
        <extensions>
          <ns3:TrackPointExtension>
            <ns3:atemp>29.0</ns3:atemp>
            <ns3:hr>120</ns3:hr>
          </ns3:TrackPointExtension>
        </extensions>
      </trkpt>
      <trkpt lat="36.7839996702969074249267578125" lon="-118.417327590286731719970703125">
        <ele>3429.199951171875</ele>
        <time>2021-06-25T21:06:03.000Z</time>
        <extensions>
          <ns3:TrackPointExtension>
            <ns3:atemp>29.0</ns3:atemp>
            <ns3:hr>123</ns3:hr>
          </ns3:TrackPointExtension>
        </extensions>
      </trkpt>
      <trkpt lat="36.7839943058788776397705078125" lon="-118.417317532002925872802734375">
        <ele>3429</ele>
        <time>2021-06-25T21:06:05.000Z</time>
        <extensions>
          <ns3:TrackPointExtension>
            <ns3:atemp>29.0</ns3:atemp>
            <ns3:hr>126</ns3:hr>
          </ns3:TrackPointExtension>
        </extensions>
      </trkpt>
      <trkpt lat="36.78398785181343555450439453125" lon="-118.417296744883060455322265625">
        <ele>3429</ele>
        <time>2021-06-25T21:06:07.000Z</time>
        <extensions>
          <ns3:TrackPointExtension>
            <ns3:atemp>29.0</ns3:atemp>
            <ns3:hr>129</ns3:hr>
          </ns3:TrackPointExtension>
        </extensions>
      </trkpt>
      <trkpt lat="36.78400545381009578704833984375" lon="-118.41730789281427860260009765625">
        <ele>3430.60009765625</ele>
        <time>2021-06-25T21:06:11.000Z</time>
        <extensions>
          <ns3:TrackPointExtension>
            <ns3:atemp>29.0</ns3:atemp>
            <ns3:hr>131</ns3:hr>
          </ns3:TrackPointExtension>
        </extensions>
      </trkpt>
      <trkpt lat="36.7840083874762058258056640625" lon="-118.41730990447103977203369140625">
        <ele>3430.800048828125</ele>
        <time>2021-06-25T21:06:12.000Z</time>
        <extensions>
          <ns3:TrackPointExtension>
            <ns3:atemp>29.0</ns3:atemp>
            <ns3:hr>131</ns3:hr>
          </ns3:TrackPointExtension>
        </extensions>
      </trkpt>
      <trkpt lat="36.78402557037770748138427734375" lon="-118.41732147149741649627685546875">
        <ele>3430.60009765625</ele>
        <time>2021-06-25T21:06:15.000Z</time>
        <extensions>
          <ns3:TrackPointExtension>
            <ns3:atemp>29.0</ns3:atemp>
            <ns3:hr>134</ns3:hr>
          </ns3:TrackPointExtension>
        </extensions>
      </trkpt>
      <trkpt lat="36.78406664170324802398681640625" lon="-118.41730956919491291046142578125">
        <ele>3430.60009765625</ele>
        <time>2021-06-25T21:06:20.000Z</time>
        <extensions>
          <ns3:TrackPointExtension>
            <ns3:atemp>29.0</ns3:atemp>
            <ns3:hr>135</ns3:hr>
          </ns3:TrackPointExtension>
        </extensions>
      </trkpt>
      <trkpt lat="36.78408172912895679473876953125" lon="-118.4172985889017581939697265625">
        <ele>3430.800048828125</ele>
        <time>2021-06-25T21:06:22.000Z</time>
        <extensions>
          <ns3:TrackPointExtension>
            <ns3:atemp>29.0</ns3:atemp>
            <ns3:hr>135</ns3:hr>
          </ns3:TrackPointExtension>
        </extensions>
      </trkpt>
      <trkpt lat="36.78409866057336330413818359375" lon="-118.417241089046001434326171875">
        <ele>3430.39990234375</ele>
        <time>2021-06-25T21:06:28.000Z</time>
        <extensions>
          <ns3:TrackPointExtension>
            <ns3:atemp>29.0</ns3:atemp>
            <ns3:hr>134</ns3:hr>
          </ns3:TrackPointExtension>
        </extensions>
      </trkpt>
      <trkpt lat="36.7840791307389736175537109375" lon="-118.4172295220196247100830078125">
        <ele>3430.199951171875</ele>
        <time>2021-06-25T21:06:34.000Z</time>
        <extensions>
          <ns3:TrackPointExtension>
            <ns3:atemp>29.0</ns3:atemp>
            <ns3:hr>132</ns3:hr>
          </ns3:TrackPointExtension>
        </extensions>
      </trkpt>
      <trkpt lat="36.78406295366585254669189453125" lon="-118.41723329387605190277099609375">
        <ele>3430</ele>
        <time>2021-06-25T21:06:40.000Z</time>
        <extensions>
          <ns3:TrackPointExtension>
            <ns3:atemp>29.0</ns3:atemp>
            <ns3:hr>129</ns3:hr>
          </ns3:TrackPointExtension>
        </extensions>
      </trkpt>
      <trkpt lat="36.78405775688588619232177734375" lon="-118.417240083217620849609375">
        <ele>3430.199951171875</ele>
        <time>2021-06-25T21:06:42.000Z</time>
        <extensions>
          <ns3:TrackPointExtension>
            <ns3:atemp>29.0</ns3:atemp>
            <ns3:hr>128</ns3:hr>
          </ns3:TrackPointExtension>
        </extensions>
      </trkpt>
      <trkpt lat="36.78405540995299816131591796875" lon="-118.4172570146620273590087890625">
        <ele>3430.39990234375</ele>
        <time>2021-06-25T21:06:49.000Z</time>
        <extensions>
          <ns3:TrackPointExtension>
            <ns3:atemp>29.0</ns3:atemp>
            <ns3:hr>124</ns3:hr>
          </ns3:TrackPointExtension>
        </extensions>
      </trkpt>
      <trkpt lat="36.78405038081109523773193359375" lon="-118.41724989004433155059814453125">
        <ele>3430.800048828125</ele>
        <time>2021-06-25T21:06:53.000Z</time>
        <extensions>
          <ns3:TrackPointExtension>
            <ns3:atemp>29.0</ns3:atemp>
            <ns3:hr>121</ns3:hr>
          </ns3:TrackPointExtension>
        </extensions>
      </trkpt>
      <trkpt lat="36.7840519733726978302001953125" lon="-118.41725282371044158935546875">
        <ele>3430.800048828125</ele>
        <time>2021-06-25T21:06:57.000Z</time>
        <extensions>
          <ns3:TrackPointExtension>
            <ns3:atemp>29.0</ns3:atemp>
            <ns3:hr>117</ns3:hr>
          </ns3:TrackPointExtension>
        </extensions>
      </trkpt>
      <trkpt lat="36.7840519733726978302001953125" lon="-118.41725282371044158935546875">
        <ele>3430.800048828125</ele>
        <time>2021-06-25T21:06:59.000Z</time>
        <extensions>
          <ns3:TrackPointExtension>
            <ns3:atemp>29.0</ns3:atemp>
            <ns3:hr>114</ns3:hr>
          </ns3:TrackPointExtension>
        </extensions>
      </trkpt>
      <trkpt lat="36.7840519733726978302001953125" lon="-118.41725282371044158935546875">
        <ele>3430.800048828125</ele>
        <time>2021-06-25T21:07:01.000Z</time>
        <extensions>
          <ns3:TrackPointExtension>
            <ns3:atemp>29.0</ns3:atemp>
            <ns3:hr>110</ns3:hr>
          </ns3:TrackPointExtension>
        </extensions>
      </trkpt>
      <trkpt lat="36.7840519733726978302001953125" lon="-118.41725282371044158935546875">
        <ele>3430.39990234375</ele>
        <time>2021-06-25T21:07:04.000Z</time>
        <extensions>
          <ns3:TrackPointExtension>
            <ns3:atemp>29.0</ns3:atemp>
            <ns3:hr>106</ns3:hr>
          </ns3:TrackPointExtension>
        </extensions>
      </trkpt>
      <trkpt lat="36.784053146839141845703125" lon="-118.41725282371044158935546875">
        <ele>3430.60009765625</ele>
        <time>2021-06-25T21:07:14.000Z</time>
        <extensions>
          <ns3:TrackPointExtension>
            <ns3:atemp>29.0</ns3:atemp>
            <ns3:hr>109</ns3:hr>
          </ns3:TrackPointExtension>
        </extensions>
      </trkpt>
      <trkpt lat="36.78406328894197940826416015625" lon="-118.41722960583865642547607421875">
        <ele>3430.199951171875</ele>
        <time>2021-06-25T21:07:51.000Z</time>
        <extensions>
          <ns3:TrackPointExtension>
            <ns3:atemp>29.0</ns3:atemp>
            <ns3:hr>106</ns3:hr>
          </ns3:TrackPointExtension>
        </extensions>
      </trkpt>
      <trkpt lat="36.7840633727610111236572265625" lon="-118.4172241576015949249267578125">
        <ele>3430.199951171875</ele>
        <time>2021-06-25T21:08:00.000Z</time>
        <extensions>
          <ns3:TrackPointExtension>
            <ns3:atemp>29.0</ns3:atemp>
            <ns3:hr>109</ns3:hr>
          </ns3:TrackPointExtension>
        </extensions>
      </trkpt>
      <trkpt lat="36.7840633727610111236572265625" lon="-118.41722357086837291717529296875">
        <ele>3430.199951171875</ele>
        <time>2021-06-25T21:08:05.000Z</time>
        <extensions>
          <ns3:TrackPointExtension>
            <ns3:atemp>29.0</ns3:atemp>
            <ns3:hr>112</ns3:hr>
          </ns3:TrackPointExtension>
        </extensions>
      </trkpt>
      <trkpt lat="36.7840633727610111236572265625" lon="-118.41722357086837291717529296875">
        <ele>3430.199951171875</ele>
        <time>2021-06-25T21:08:15.000Z</time>
        <extensions>
          <ns3:TrackPointExtension>
            <ns3:atemp>29.0</ns3:atemp>
            <ns3:hr>109</ns3:hr>
          </ns3:TrackPointExtension>
        </extensions>
      </trkpt>
      <trkpt lat="36.7840633727610111236572265625" lon="-118.41722357086837291717529296875">
        <ele>3430.199951171875</ele>
        <time>2021-06-25T21:08:17.000Z</time>
        <extensions>
          <ns3:TrackPointExtension>
            <ns3:atemp>30.0</ns3:atemp>
            <ns3:hr>107</ns3:hr>
          </ns3:TrackPointExtension>
        </extensions>
      </trkpt>
      <trkpt lat="36.78406345658004283905029296875" lon="-118.41722440905869007110595703125">
        <ele>3430.199951171875</ele>
        <time>2021-06-25T21:08:20.000Z</time>
        <extensions>
          <ns3:TrackPointExtension>
            <ns3:atemp>30.0</ns3:atemp>
            <ns3:hr>104</ns3:hr>
          </ns3:TrackPointExtension>
        </extensions>
      </trkpt>
      <trkpt lat="36.784063875675201416015625" lon="-118.41725357808172702789306640625">
        <ele>3430.199951171875</ele>
        <time>2021-06-25T21:08:38.000Z</time>
        <extensions>
          <ns3:TrackPointExtension>
            <ns3:atemp>30.0</ns3:atemp>
            <ns3:hr>101</ns3:hr>
          </ns3:TrackPointExtension>
        </extensions>
      </trkpt>
      <trkpt lat="36.7840633727610111236572265625" lon="-118.4172536619007587432861328125">
        <ele>3430.199951171875</ele>
        <time>2021-06-25T21:08:41.000Z</time>
        <extensions>
          <ns3:TrackPointExtension>
            <ns3:atemp>30.0</ns3:atemp>
            <ns3:hr>101</ns3:hr>
          </ns3:TrackPointExtension>
        </extensions>
      </trkpt>
      <trkpt lat="36.78406320512294769287109375" lon="-118.4172536619007587432861328125">
        <ele>3427.800048828125</ele>
        <time>2021-06-25T21:08:42.000Z</time>
        <extensions>
          <ns3:TrackPointExtension>
            <ns3:atemp>30.0</ns3:atemp>
            <ns3:hr>102</ns3:hr>
          </ns3:TrackPointExtension>
        </extensions>
      </trkpt>
      <trkpt lat="36.784056164324283599853515625" lon="-118.41723949648439884185791015625">
        <ele>3428.60009765625</ele>
        <time>2021-06-25T21:09:06.000Z</time>
        <extensions>
          <ns3:TrackPointExtension>
            <ns3:atemp>30.0</ns3:atemp>
            <ns3:hr>106</ns3:hr>
          </ns3:TrackPointExtension>
        </extensions>
      </trkpt>
      <trkpt lat="36.7840549908578395843505859375" lon="-118.417239077389240264892578125">
        <ele>3428.800048828125</ele>
        <time>2021-06-25T21:09:08.000Z</time>
        <extensions>
          <ns3:TrackPointExtension>
            <ns3:atemp>30.0</ns3:atemp>
            <ns3:hr>107</ns3:hr>
          </ns3:TrackPointExtension>
        </extensions>
      </trkpt>
      <trkpt lat="36.78405155427753925323486328125" lon="-118.41723782010376453399658203125">
        <ele>3428.60009765625</ele>
        <time>2021-06-25T21:09:14.000Z</time>
        <extensions>
          <ns3:TrackPointExtension>
            <ns3:atemp>30.0</ns3:atemp>
            <ns3:hr>104</ns3:hr>
          </ns3:TrackPointExtension>
        </extensions>
      </trkpt>
      <trkpt lat="36.78404442965984344482421875" lon="-118.41723547317087650299072265625">
        <ele>3428.39990234375</ele>
        <time>2021-06-25T21:09:18.000Z</time>
        <extensions>
          <ns3:TrackPointExtension>
            <ns3:atemp>31.0</ns3:atemp>
            <ns3:hr>101</ns3:hr>
          </ns3:TrackPointExtension>
        </extensions>
      </trkpt>
      <trkpt lat="36.784043423831462860107421875" lon="-118.41723429970443248748779296875">
        <ele>3428.39990234375</ele>
        <time>2021-06-25T21:09:19.000Z</time>
        <extensions>
          <ns3:TrackPointExtension>
            <ns3:atemp>31.0</ns3:atemp>
            <ns3:hr>101</ns3:hr>
          </ns3:TrackPointExtension>
        </extensions>
      </trkpt>
      <trkpt lat="36.78403931669890880584716796875" lon="-118.4172244928777217864990234375">
        <ele>3428.199951171875</ele>
        <time>2021-06-25T21:09:36.000Z</time>
        <extensions>
          <ns3:TrackPointExtension>
            <ns3:atemp>31.0</ns3:atemp>
            <ns3:hr>98</ns3:hr>
          </ns3:TrackPointExtension>
        </extensions>
      </trkpt>
      <trkpt lat="36.78408457897603511810302734375" lon="-118.41720295138657093048095703125">
        <ele>3427.800048828125</ele>
        <time>2021-06-25T21:09:41.000Z</time>
        <extensions>
          <ns3:TrackPointExtension>
            <ns3:atemp>31.0</ns3:atemp>
            <ns3:hr>101</ns3:hr>
          </ns3:TrackPointExtension>
        </extensions>
      </trkpt>
      <trkpt lat="36.78410536609590053558349609375" lon="-118.41719524003565311431884765625">
        <ele>3427.39990234375</ele>
        <time>2021-06-25T21:09:42.000Z</time>
        <extensions>
          <ns3:TrackPointExtension>
            <ns3:atemp>31.0</ns3:atemp>
            <ns3:hr>102</ns3:hr>
          </ns3:TrackPointExtension>
        </extensions>
      </trkpt>
      <trkpt lat="36.784139983355998992919921875" lon="-118.41718266718089580535888671875">
        <ele>3428</ele>
        <time>2021-06-25T21:09:44.000Z</time>
        <extensions>
          <ns3:TrackPointExtension>
            <ns3:atemp>31.0</ns3:atemp>
            <ns3:hr>103</ns3:hr>
          </ns3:TrackPointExtension>
        </extensions>
      </trkpt>
      <trkpt lat="36.7842125706374645233154296875" lon="-118.4171314537525177001953125">
        <ele>3428.199951171875</ele>
        <time>2021-06-25T21:09:51.000Z</time>
        <extensions>
          <ns3:TrackPointExtension>
            <ns3:atemp>31.0</ns3:atemp>
            <ns3:hr>103</ns3:hr>
          </ns3:TrackPointExtension>
        </extensions>
      </trkpt>
      <trkpt lat="36.78421718068420886993408203125" lon="-118.41712919063866138458251953125">
        <ele>3428.199951171875</ele>
        <time>2021-06-25T21:09:52.000Z</time>
        <extensions>
          <ns3:TrackPointExtension>
            <ns3:atemp>31.0</ns3:atemp>
            <ns3:hr>102</ns3:hr>
          </ns3:TrackPointExtension>
        </extensions>
      </trkpt>
      <trkpt lat="36.7842370457947254180908203125" lon="-118.41712315566837787628173828125">
        <ele>3428.800048828125</ele>
        <time>2021-06-25T21:09:54.000Z</time>
        <extensions>
          <ns3:TrackPointExtension>
            <ns3:atemp>31.0</ns3:atemp>
            <ns3:hr>99</ns3:hr>
          </ns3:TrackPointExtension>
        </extensions>
      </trkpt>
      <trkpt lat="36.78424852900207042694091796875" lon="-118.41712667606770992279052734375">
        <ele>3428.800048828125</ele>
        <time>2021-06-25T21:09:55.000Z</time>
        <extensions>
          <ns3:TrackPointExtension>
            <ns3:atemp>31.0</ns3:atemp>
            <ns3:hr>100</ns3:hr>
          </ns3:TrackPointExtension>
        </extensions>
      </trkpt>
      <trkpt lat="36.78426294587552547454833984375" lon="-118.41711334884166717529296875">
        <ele>3429.39990234375</ele>
        <time>2021-06-25T21:09:58.000Z</time>
        <extensions>
          <ns3:TrackPointExtension>
            <ns3:atemp>31.0</ns3:atemp>
            <ns3:hr>101</ns3:hr>
          </ns3:TrackPointExtension>
        </extensions>
      </trkpt>
      <trkpt lat="36.78426780737936496734619140625" lon="-118.4171081520617008209228515625">
        <ele>3429.39990234375</ele>
        <time>2021-06-25T21:09:59.000Z</time>
        <extensions>
          <ns3:TrackPointExtension>
            <ns3:atemp>31.0</ns3:atemp>
            <ns3:hr>104</ns3:hr>
          </ns3:TrackPointExtension>
        </extensions>
      </trkpt>
      <trkpt lat="36.7842742614448070526123046875" lon="-118.41710203327238559722900390625">
        <ele>3429.60009765625</ele>
        <time>2021-06-25T21:10:00.000Z</time>
        <extensions>
          <ns3:TrackPointExtension>
            <ns3:atemp>31.0</ns3:atemp>
            <ns3:hr>104</ns3:hr>
          </ns3:TrackPointExtension>
        </extensions>
      </trkpt>
      <trkpt lat="36.78428406827151775360107421875" lon="-118.41709733940660953521728515625">
        <ele>3429.800048828125</ele>
        <time>2021-06-25T21:10:01.000Z</time>
        <extensions>
          <ns3:TrackPointExtension>
            <ns3:atemp>31.0</ns3:atemp>
            <ns3:hr>105</ns3:hr>
          </ns3:TrackPointExtension>
        </extensions>
      </trkpt>
      <trkpt lat="36.7842930369079113006591796875" lon="-118.41707973740994930267333984375">
        <ele>3430</ele>
        <time>2021-06-25T21:10:03.000Z</time>
        <extensions>
          <ns3:TrackPointExtension>
            <ns3:atemp>31.0</ns3:atemp>
            <ns3:hr>107</ns3:hr>
          </ns3:TrackPointExtension>
        </extensions>
      </trkpt>
      <trkpt lat="36.7843134887516498565673828125" lon="-118.41706238687038421630859375">
        <ele>3430</ele>
        <time>2021-06-25T21:10:07.000Z</time>
        <extensions>
          <ns3:TrackPointExtension>
            <ns3:atemp>31.0</ns3:atemp>
            <ns3:hr>109</ns3:hr>
          </ns3:TrackPointExtension>
        </extensions>
      </trkpt>
      <trkpt lat="36.78432446904480457305908203125" lon="-118.41703983955085277557373046875">
        <ele>3430.199951171875</ele>
        <time>2021-06-25T21:10:11.000Z</time>
        <extensions>
          <ns3:TrackPointExtension>
            <ns3:atemp>31.0</ns3:atemp>
            <ns3:hr>112</ns3:hr>
          </ns3:TrackPointExtension>
        </extensions>
      </trkpt>
      <trkpt lat="36.78435531444847583770751953125" lon="-118.4170270152390003204345703125">
        <ele>3430.39990234375</ele>
        <time>2021-06-25T21:10:15.000Z</time>
        <extensions>
          <ns3:TrackPointExtension>
            <ns3:atemp>31.0</ns3:atemp>
            <ns3:hr>111</ns3:hr>
          </ns3:TrackPointExtension>
        </extensions>
      </trkpt>
      <trkpt lat="36.7843849025666713714599609375" lon="-118.41700279153883457183837890625">
        <ele>3430</ele>
        <time>2021-06-25T21:10:20.000Z</time>
        <extensions>
          <ns3:TrackPointExtension>
            <ns3:atemp>31.0</ns3:atemp>
            <ns3:hr>112</ns3:hr>
          </ns3:TrackPointExtension>
        </extensions>
      </trkpt>
      <trkpt lat="36.78442622534930706024169921875" lon="-118.4170364029705524444580078125">
        <ele>3429.60009765625</ele>
        <time>2021-06-25T21:10:27.000Z</time>
        <extensions>
          <ns3:TrackPointExtension>
            <ns3:atemp>31.0</ns3:atemp>
            <ns3:hr>115</ns3:hr>
          </ns3:TrackPointExtension>
        </extensions>
      </trkpt>
      <trkpt lat="36.7844113893806934356689453125" lon="-118.417025506496429443359375">
        <ele>3429.60009765625</ele>
        <time>2021-06-25T21:10:33.000Z</time>
        <extensions>
          <ns3:TrackPointExtension>
            <ns3:atemp>31.0</ns3:atemp>
            <ns3:hr>115</ns3:hr>
          </ns3:TrackPointExtension>
        </extensions>
      </trkpt>
      <trkpt lat="36.7844036780297756195068359375" lon="-118.4170199744403362274169921875">
        <ele>3430.199951171875</ele>
        <time>2021-06-25T21:10:48.000Z</time>
        <extensions>
          <ns3:TrackPointExtension>
            <ns3:atemp>31.0</ns3:atemp>
            <ns3:hr>112</ns3:hr>
          </ns3:TrackPointExtension>
        </extensions>
      </trkpt>
      <trkpt lat="36.7844023369252681732177734375" lon="-118.4170199744403362274169921875">
        <ele>3430.199951171875</ele>
        <time>2021-06-25T21:10:52.000Z</time>
        <extensions>
          <ns3:TrackPointExtension>
            <ns3:atemp>31.0</ns3:atemp>
            <ns3:hr>109</ns3:hr>
          </ns3:TrackPointExtension>
        </extensions>
      </trkpt>
      <trkpt lat="36.78440208546817302703857421875" lon="-118.4170199744403362274169921875">
        <ele>3430.39990234375</ele>
        <time>2021-06-25T21:10:54.000Z</time>
        <extensions>
          <ns3:TrackPointExtension>
            <ns3:atemp>30.0</ns3:atemp>
            <ns3:hr>106</ns3:hr>
          </ns3:TrackPointExtension>
        </extensions>
      </trkpt>
      <trkpt lat="36.7843909375369548797607421875" lon="-118.41701117344200611114501953125">
        <ele>3430.60009765625</ele>
        <time>2021-06-25T21:10:59.000Z</time>
        <extensions>
          <ns3:TrackPointExtension>
            <ns3:atemp>30.0</ns3:atemp>
            <ns3:hr>106</ns3:hr>
          </ns3:TrackPointExtension>
        </extensions>
      </trkpt>
      <trkpt lat="36.78442873992025852203369140625" lon="-118.4168825112283229827880859375">
        <ele>3429.39990234375</ele>
        <time>2021-06-25T21:11:08.000Z</time>
        <extensions>
          <ns3:TrackPointExtension>
            <ns3:atemp>30.0</ns3:atemp>
            <ns3:hr>108</ns3:hr>
          </ns3:TrackPointExtension>
        </extensions>
      </trkpt>
      <trkpt lat="36.7844509519636631011962890625" lon="-118.41684353537857532501220703125">
        <ele>3428.60009765625</ele>
        <time>2021-06-25T21:11:13.000Z</time>
        <extensions>
          <ns3:TrackPointExtension>
            <ns3:atemp>30.0</ns3:atemp>
            <ns3:hr>105</ns3:hr>
          </ns3:TrackPointExtension>
        </extensions>
      </trkpt>
      <trkpt lat="36.78445740602910518646240234375" lon="-118.41683297418057918548583984375">
        <ele>3428.39990234375</ele>
        <time>2021-06-25T21:11:14.000Z</time>
        <extensions>
          <ns3:TrackPointExtension>
            <ns3:atemp>30.0</ns3:atemp>
            <ns3:hr>105</ns3:hr>
          </ns3:TrackPointExtension>
        </extensions>
      </trkpt>
      <trkpt lat="36.78447333164513111114501953125" lon="-118.41678502969443798065185546875">
        <ele>3427.60009765625</ele>
        <time>2021-06-25T21:11:18.000Z</time>
        <extensions>
          <ns3:TrackPointExtension>
            <ns3:atemp>30.0</ns3:atemp>
            <ns3:hr>104</ns3:hr>
          </ns3:TrackPointExtension>
        </extensions>
      </trkpt>
      <trkpt lat="36.78449797444045543670654296875" lon="-118.41669886372983455657958984375">
        <ele>3426.199951171875</ele>
        <time>2021-06-25T21:11:25.000Z</time>
        <extensions>
          <ns3:TrackPointExtension>
            <ns3:atemp>30.0</ns3:atemp>
            <ns3:hr>105</ns3:hr>
          </ns3:TrackPointExtension>
        </extensions>
      </trkpt>
      <trkpt lat="36.78450107574462890625" lon="-118.416674472391605377197265625">
        <ele>3426.39990234375</ele>
        <time>2021-06-25T21:11:27.000Z</time>
        <extensions>
          <ns3:TrackPointExtension>
            <ns3:atemp>30.0</ns3:atemp>
            <ns3:hr>107</ns3:hr>
          </ns3:TrackPointExtension>
        </extensions>
      </trkpt>
      <trkpt lat="36.78451557643711566925048828125" lon="-118.41657430864870548248291015625">
        <ele>3425.39990234375</ele>
        <time>2021-06-25T21:11:35.000Z</time>
        <extensions>
          <ns3:TrackPointExtension>
            <ns3:atemp>30.0</ns3:atemp>
            <ns3:hr>104</ns3:hr>
          </ns3:TrackPointExtension>
        </extensions>
      </trkpt>
      <trkpt lat="36.7845193482935428619384765625" lon="-118.41655679047107696533203125">
        <ele>3425.199951171875</ele>
        <time>2021-06-25T21:11:36.000Z</time>
        <extensions>
          <ns3:TrackPointExtension>
            <ns3:atemp>30.0</ns3:atemp>
            <ns3:hr>104</ns3:hr>
          </ns3:TrackPointExtension>
        </extensions>
      </trkpt>
      <trkpt lat="36.78451515734195709228515625" lon="-118.41651949100196361541748046875">
        <ele>3425</ele>
        <time>2021-06-25T21:11:39.000Z</time>
        <extensions>
          <ns3:TrackPointExtension>
            <ns3:atemp>30.0</ns3:atemp>
            <ns3:hr>101</ns3:hr>
          </ns3:TrackPointExtension>
        </extensions>
      </trkpt>
      <trkpt lat="36.78450233303010463714599609375" lon="-118.41649711132049560546875">
        <ele>3425.39990234375</ele>
        <time>2021-06-25T21:11:41.000Z</time>
        <extensions>
          <ns3:TrackPointExtension>
            <ns3:atemp>31.0</ns3:atemp>
            <ns3:hr>100</ns3:hr>
          </ns3:TrackPointExtension>
        </extensions>
      </trkpt>
      <trkpt lat="36.78449646569788455963134765625" lon="-118.416489064693450927734375">
        <ele>3425.39990234375</ele>
        <time>2021-06-25T21:11:42.000Z</time>
        <extensions>
          <ns3:TrackPointExtension>
            <ns3:atemp>30.0</ns3:atemp>
            <ns3:hr>100</ns3:hr>
          </ns3:TrackPointExtension>
        </extensions>
      </trkpt>
      <trkpt lat="36.784476935863494873046875" lon="-118.416473977267742156982421875">
        <ele>3426.199951171875</ele>
        <time>2021-06-25T21:11:45.000Z</time>
        <extensions>
          <ns3:TrackPointExtension>
            <ns3:atemp>31.0</ns3:atemp>
            <ns3:hr>101</ns3:hr>
          </ns3:TrackPointExtension>
        </extensions>
      </trkpt>
      <trkpt lat="36.7844432406127452850341796875" lon="-118.4164459817111492156982421875">
        <ele>3426.60009765625</ele>
        <time>2021-06-25T21:11:49.000Z</time>
        <extensions>
          <ns3:TrackPointExtension>
            <ns3:atemp>31.0</ns3:atemp>
            <ns3:hr>103</ns3:hr>
          </ns3:TrackPointExtension>
        </extensions>
      </trkpt>
      <trkpt lat="36.78443058393895626068115234375" lon="-118.4163718856871128082275390625">
        <ele>3426.800048828125</ele>
        <time>2021-06-25T21:11:57.000Z</time>
        <extensions>
          <ns3:TrackPointExtension>
            <ns3:atemp>31.0</ns3:atemp>
            <ns3:hr>102</ns3:hr>
          </ns3:TrackPointExtension>
        </extensions>
      </trkpt>
      <trkpt lat="36.7844204418361186981201171875" lon="-118.4163360111415386199951171875">
        <ele>3426.60009765625</ele>
        <time>2021-06-25T21:12:00.000Z</time>
        <extensions>
          <ns3:TrackPointExtension>
            <ns3:atemp>31.0</ns3:atemp>
            <ns3:hr>103</ns3:hr>
          </ns3:TrackPointExtension>
        </extensions>
      </trkpt>
      <trkpt lat="36.784417591989040374755859375" lon="-118.4163128770887851715087890625">
        <ele>3426.199951171875</ele>
        <time>2021-06-25T21:12:02.000Z</time>
        <extensions>
          <ns3:TrackPointExtension>
            <ns3:atemp>31.0</ns3:atemp>
            <ns3:hr>103</ns3:hr>
          </ns3:TrackPointExtension>
        </extensions>
      </trkpt>
      <trkpt lat="36.784414239227771759033203125" lon="-118.4162937663495540618896484375">
        <ele>3426.199951171875</ele>
        <time>2021-06-25T21:12:04.000Z</time>
        <extensions>
          <ns3:TrackPointExtension>
            <ns3:atemp>31.0</ns3:atemp>
            <ns3:hr>102</ns3:hr>
          </ns3:TrackPointExtension>
        </extensions>
      </trkpt>
      <trkpt lat="36.7844274826347827911376953125" lon="-118.4162293933331966400146484375">
        <ele>3426</ele>
        <time>2021-06-25T21:12:10.000Z</time>
        <extensions>
          <ns3:TrackPointExtension>
            <ns3:atemp>31.0</ns3:atemp>
            <ns3:hr>102</ns3:hr>
          </ns3:TrackPointExtension>
        </extensions>
      </trkpt>
      <trkpt lat="36.78444148041307926177978515625" lon="-118.41620684601366519927978515625">
        <ele>3426</ele>
        <time>2021-06-25T21:12:12.000Z</time>
        <extensions>
          <ns3:TrackPointExtension>
            <ns3:atemp>31.0</ns3:atemp>
            <ns3:hr>101</ns3:hr>
          </ns3:TrackPointExtension>
        </extensions>
      </trkpt>
      <trkpt lat="36.78445790894329547882080078125" lon="-118.4161787666380405426025390625">
        <ele>3425.800048828125</ele>
        <time>2021-06-25T21:12:15.000Z</time>
        <extensions>
          <ns3:TrackPointExtension>
            <ns3:atemp>31.0</ns3:atemp>
            <ns3:hr>102</ns3:hr>
          </ns3:TrackPointExtension>
        </extensions>
      </trkpt>
      <trkpt lat="36.7844811268150806427001953125" lon="-118.41614515520632266998291015625">
        <ele>3426</ele>
        <time>2021-06-25T21:12:18.000Z</time>
        <extensions>
          <ns3:TrackPointExtension>
            <ns3:atemp>31.0</ns3:atemp>
            <ns3:hr>105</ns3:hr>
          </ns3:TrackPointExtension>
        </extensions>
      </trkpt>
      <trkpt lat="36.7844864912331104278564453125" lon="-118.41611950658261775970458984375">
        <ele>3426</ele>
        <time>2021-06-25T21:12:20.000Z</time>
        <extensions>
          <ns3:TrackPointExtension>
            <ns3:atemp>31.0</ns3:atemp>
            <ns3:hr>104</ns3:hr>
          </ns3:TrackPointExtension>
        </extensions>
      </trkpt>
      <trkpt lat="36.78450979292392730712890625" lon="-118.416039459407329559326171875">
        <ele>3426.60009765625</ele>
        <time>2021-06-25T21:12:28.000Z</time>
        <extensions>
          <ns3:TrackPointExtension>
            <ns3:atemp>31.0</ns3:atemp>
            <ns3:hr>106</ns3:hr>
          </ns3:TrackPointExtension>
        </extensions>
      </trkpt>
      <trkpt lat="36.784522198140621185302734375" lon="-118.41599210165441036224365234375">
        <ele>3427.60009765625</ele>
        <time>2021-06-25T21:12:34.000Z</time>
        <extensions>
          <ns3:TrackPointExtension>
            <ns3:atemp>31.0</ns3:atemp>
            <ns3:hr>106</ns3:hr>
          </ns3:TrackPointExtension>
        </extensions>
      </trkpt>
      <trkpt lat="36.7845250479876995086669921875" lon="-118.41597609221935272216796875">
        <ele>3428</ele>
        <time>2021-06-25T21:12:36.000Z</time>
        <extensions>
          <ns3:TrackPointExtension>
            <ns3:atemp>31.0</ns3:atemp>
            <ns3:hr>109</ns3:hr>
          </ns3:TrackPointExtension>
        </extensions>
      </trkpt>
      <trkpt lat="36.784530244767665863037109375" lon="-118.41596812941133975982666015625">
        <ele>3428.199951171875</ele>
        <time>2021-06-25T21:12:38.000Z</time>
        <extensions>
          <ns3:TrackPointExtension>
            <ns3:atemp>31.0</ns3:atemp>
            <ns3:hr>110</ns3:hr>
          </ns3:TrackPointExtension>
        </extensions>
      </trkpt>
      <trkpt lat="36.78453753702342510223388671875" lon="-118.41595857404172420501708984375">
        <ele>3428.800048828125</ele>
        <time>2021-06-25T21:12:40.000Z</time>
        <extensions>
          <ns3:TrackPointExtension>
            <ns3:atemp>31.0</ns3:atemp>
            <ns3:hr>113</ns3:hr>
          </ns3:TrackPointExtension>
        </extensions>
      </trkpt>
      <trkpt lat="36.78454290144145488739013671875" lon="-118.4159356914460659027099609375">
        <ele>3429.199951171875</ele>
        <time>2021-06-25T21:12:43.000Z</time>
        <extensions>
          <ns3:TrackPointExtension>
            <ns3:atemp>31.0</ns3:atemp>
            <ns3:hr>116</ns3:hr>
          </ns3:TrackPointExtension>
        </extensions>
      </trkpt>
      <trkpt lat="36.78455027751624584197998046875" lon="-118.41590761207044124603271484375">
        <ele>3429.60009765625</ele>
        <time>2021-06-25T21:12:46.000Z</time>
        <extensions>
          <ns3:TrackPointExtension>
            <ns3:atemp>31.0</ns3:atemp>
            <ns3:hr>117</ns3:hr>
          </ns3:TrackPointExtension>
        </extensions>
      </trkpt>
      <trkpt lat="36.7845572344958782196044921875" lon="-118.4158305823802947998046875">
        <ele>3429.60009765625</ele>
        <time>2021-06-25T21:12:52.000Z</time>
        <extensions>
          <ns3:TrackPointExtension>
            <ns3:atemp>31.0</ns3:atemp>
            <ns3:hr>118</ns3:hr>
          </ns3:TrackPointExtension>
        </extensions>
      </trkpt>
      <trkpt lat="36.78456955589354038238525390625" lon="-118.41573041863739490509033203125">
        <ele>3429.60009765625</ele>
        <time>2021-06-25T21:13:00.000Z</time>
        <extensions>
          <ns3:TrackPointExtension>
            <ns3:atemp>31.0</ns3:atemp>
            <ns3:hr>121</ns3:hr>
          </ns3:TrackPointExtension>
        </extensions>
      </trkpt>
      <trkpt lat="36.78458732552826404571533203125" lon="-118.41569219715893268585205078125">
        <ele>3429.60009765625</ele>
        <time>2021-06-25T21:13:05.000Z</time>
        <extensions>
          <ns3:TrackPointExtension>
            <ns3:atemp>31.0</ns3:atemp>
            <ns3:hr>121</ns3:hr>
          </ns3:TrackPointExtension>
        </extensions>
      </trkpt>
      <trkpt lat="36.78459285758435726165771484375" lon="-118.41569052077829837799072265625">
        <ele>3430</ele>
        <time>2021-06-25T21:13:06.000Z</time>
        <extensions>
          <ns3:TrackPointExtension>
            <ns3:atemp>31.0</ns3:atemp>
            <ns3:hr>120</ns3:hr>
          </ns3:TrackPointExtension>
        </extensions>
      </trkpt>
      <trkpt lat="36.7846041731536388397216796875" lon="-118.41567610390484333038330078125">
        <ele>3430.199951171875</ele>
        <time>2021-06-25T21:13:09.000Z</time>
        <extensions>
          <ns3:TrackPointExtension>
            <ns3:atemp>31.0</ns3:atemp>
            <ns3:hr>120</ns3:hr>
          </ns3:TrackPointExtension>
        </extensions>
      </trkpt>
      <trkpt lat="36.78462219424545764923095703125" lon="-118.41564710251986980438232421875">
        <ele>3431</ele>
        <time>2021-06-25T21:13:13.000Z</time>
        <extensions>
          <ns3:TrackPointExtension>
            <ns3:atemp>31.0</ns3:atemp>
            <ns3:hr>119</ns3:hr>
          </ns3:TrackPointExtension>
        </extensions>
      </trkpt>
      <trkpt lat="36.78463946096599102020263671875" lon="-118.4156240522861480712890625">
        <ele>3431.60009765625</ele>
        <time>2021-06-25T21:13:18.000Z</time>
        <extensions>
          <ns3:TrackPointExtension>
            <ns3:atemp>31.0</ns3:atemp>
            <ns3:hr>115</ns3:hr>
          </ns3:TrackPointExtension>
        </extensions>
      </trkpt>
      <trkpt lat="36.784636862576007843017578125" lon="-118.4156186878681182861328125">
        <ele>3431.800048828125</ele>
        <time>2021-06-25T21:13:19.000Z</time>
        <extensions>
          <ns3:TrackPointExtension>
            <ns3:atemp>31.0</ns3:atemp>
            <ns3:hr>116</ns3:hr>
          </ns3:TrackPointExtension>
        </extensions>
      </trkpt>
      <trkpt lat="36.7846380360424518585205078125" lon="-118.4156138263642787933349609375">
        <ele>3431.800048828125</ele>
        <time>2021-06-25T21:13:20.000Z</time>
        <extensions>
          <ns3:TrackPointExtension>
            <ns3:atemp>31.0</ns3:atemp>
            <ns3:hr>121</ns3:hr>
          </ns3:TrackPointExtension>
        </extensions>
      </trkpt>
      <trkpt lat="36.78464046679437160491943359375" lon="-118.41560586355626583099365234375">
        <ele>3432.39990234375</ele>
        <time>2021-06-25T21:13:21.000Z</time>
        <extensions>
          <ns3:TrackPointExtension>
            <ns3:atemp>31.0</ns3:atemp>
            <ns3:hr>121</ns3:hr>
          </ns3:TrackPointExtension>
        </extensions>
      </trkpt>
      <trkpt lat="36.78465236909687519073486328125" lon="-118.41557241976261138916015625">
        <ele>3433.60009765625</ele>
        <time>2021-06-25T21:13:27.000Z</time>
        <extensions>
          <ns3:TrackPointExtension>
            <ns3:atemp>31.0</ns3:atemp>
            <ns3:hr>123</ns3:hr>
          </ns3:TrackPointExtension>
        </extensions>
      </trkpt>
      <trkpt lat="36.7846742458641529083251953125" lon="-118.41551315970718860626220703125">
        <ele>3434.39990234375</ele>
        <time>2021-06-25T21:13:34.000Z</time>
        <extensions>
          <ns3:TrackPointExtension>
            <ns3:atemp>31.0</ns3:atemp>
            <ns3:hr>126</ns3:hr>
          </ns3:TrackPointExtension>
        </extensions>
      </trkpt>
      <trkpt lat="36.7846782691776752471923828125" lon="-118.41550293378531932830810546875">
        <ele>3434.800048828125</ele>
        <time>2021-06-25T21:13:35.000Z</time>
        <extensions>
          <ns3:TrackPointExtension>
            <ns3:atemp>31.0</ns3:atemp>
            <ns3:hr>126</ns3:hr>
          </ns3:TrackPointExtension>
        </extensions>
      </trkpt>
      <trkpt lat="36.78468153811991214752197265625" lon="-118.41549656353890895843505859375">
        <ele>3434.800048828125</ele>
        <time>2021-06-25T21:13:36.000Z</time>
        <extensions>
          <ns3:TrackPointExtension>
            <ns3:atemp>31.0</ns3:atemp>
            <ns3:hr>124</ns3:hr>
          </ns3:TrackPointExtension>
        </extensions>
      </trkpt>
      <trkpt lat="36.78468774072825908660888671875" lon="-118.4154760278761386871337890625">
        <ele>3435</ele>
        <time>2021-06-25T21:13:39.000Z</time>
        <extensions>
          <ns3:TrackPointExtension>
            <ns3:atemp>31.0</ns3:atemp>
            <ns3:hr>127</ns3:hr>
          </ns3:TrackPointExtension>
        </extensions>
      </trkpt>
      <trkpt lat="36.7846953682601451873779296875" lon="-118.4154391475021839141845703125">
        <ele>3435.800048828125</ele>
        <time>2021-06-25T21:13:43.000Z</time>
        <extensions>
          <ns3:TrackPointExtension>
            <ns3:atemp>31.0</ns3:atemp>
            <ns3:hr>128</ns3:hr>
          </ns3:TrackPointExtension>
        </extensions>
      </trkpt>
      <trkpt lat="36.78469897247850894927978515625" lon="-118.41541609726846218109130859375">
        <ele>3436.39990234375</ele>
        <time>2021-06-25T21:13:46.000Z</time>
        <extensions>
          <ns3:TrackPointExtension>
            <ns3:atemp>31.0</ns3:atemp>
            <ns3:hr>129</ns3:hr>
          </ns3:TrackPointExtension>
        </extensions>
      </trkpt>
      <trkpt lat="36.7847148142755031585693359375" lon="-118.4153746068477630615234375">
        <ele>3437.199951171875</ele>
        <time>2021-06-25T21:13:52.000Z</time>
        <extensions>
          <ns3:TrackPointExtension>
            <ns3:atemp>31.0</ns3:atemp>
            <ns3:hr>126</ns3:hr>
          </ns3:TrackPointExtension>
        </extensions>
      </trkpt>
      <trkpt lat="36.78472093306481838226318359375" lon="-118.41535507701337337493896484375">
        <ele>3437.199951171875</ele>
        <time>2021-06-25T21:13:55.000Z</time>
        <extensions>
          <ns3:TrackPointExtension>
            <ns3:atemp>31.0</ns3:atemp>
            <ns3:hr>125</ns3:hr>
          </ns3:TrackPointExtension>
        </extensions>
      </trkpt>
      <trkpt lat="36.7847369424998760223388671875" lon="-118.4153224714100360870361328125">
        <ele>3438</ele>
        <time>2021-06-25T21:14:00.000Z</time>
        <extensions>
          <ns3:TrackPointExtension>
            <ns3:atemp>31.0</ns3:atemp>
            <ns3:hr>128</ns3:hr>
          </ns3:TrackPointExtension>
        </extensions>
      </trkpt>
      <trkpt lat="36.784737445414066314697265625" lon="-118.41531367041170597076416015625">
        <ele>3438.39990234375</ele>
        <time>2021-06-25T21:14:01.000Z</time>
        <extensions>
          <ns3:TrackPointExtension>
            <ns3:atemp>31.0</ns3:atemp>
            <ns3:hr>129</ns3:hr>
          </ns3:TrackPointExtension>
        </extensions>
      </trkpt>
      <trkpt lat="36.78472177125513553619384765625" lon="-118.415274359285831451416015625">
        <ele>3439</ele>
        <time>2021-06-25T21:14:06.000Z</time>
        <extensions>
          <ns3:TrackPointExtension>
            <ns3:atemp>31.0</ns3:atemp>
            <ns3:hr>129</ns3:hr>
          </ns3:TrackPointExtension>
        </extensions>
      </trkpt>
      <trkpt lat="36.78472646512091159820556640625" lon="-118.41526187025010585784912109375">
        <ele>3439.39990234375</ele>
        <time>2021-06-25T21:14:08.000Z</time>
        <extensions>
          <ns3:TrackPointExtension>
            <ns3:atemp>31.0</ns3:atemp>
            <ns3:hr>127</ns3:hr>
          </ns3:TrackPointExtension>
        </extensions>
      </trkpt>
      <trkpt lat="36.7847329191863536834716796875" lon="-118.415236808359622955322265625">
        <ele>3439.60009765625</ele>
        <time>2021-06-25T21:14:11.000Z</time>
        <extensions>
          <ns3:TrackPointExtension>
            <ns3:atemp>31.0</ns3:atemp>
            <ns3:hr>124</ns3:hr>
          </ns3:TrackPointExtension>
        </extensions>
      </trkpt>
      <trkpt lat="36.78473551757633686065673828125" lon="-118.41519800014793872833251953125">
        <ele>3440.60009765625</ele>
        <time>2021-06-25T21:14:16.000Z</time>
        <extensions>
          <ns3:TrackPointExtension>
            <ns3:atemp>31.0</ns3:atemp>
            <ns3:hr>123</ns3:hr>
          </ns3:TrackPointExtension>
        </extensions>
      </trkpt>
      <trkpt lat="36.78473451174795627593994140625" lon="-118.4151920489966869354248046875">
        <ele>3440.800048828125</ele>
        <time>2021-06-25T21:14:17.000Z</time>
        <extensions>
          <ns3:TrackPointExtension>
            <ns3:atemp>31.0</ns3:atemp>
            <ns3:hr>123</ns3:hr>
          </ns3:TrackPointExtension>
        </extensions>
      </trkpt>
      <trkpt lat="36.78474624641239643096923828125" lon="-118.4151508100330829620361328125">
        <ele>3441.60009765625</ele>
        <time>2021-06-25T21:14:24.000Z</time>
        <extensions>
          <ns3:TrackPointExtension>
            <ns3:atemp>31.0</ns3:atemp>
            <ns3:hr>125</ns3:hr>
          </ns3:TrackPointExtension>
        </extensions>
      </trkpt>
      <trkpt lat="36.78475345484912395477294921875" lon="-118.41513798572123050689697265625">
        <ele>3442</ele>
        <time>2021-06-25T21:14:26.000Z</time>
        <extensions>
          <ns3:TrackPointExtension>
            <ns3:atemp>31.0</ns3:atemp>
            <ns3:hr>121</ns3:hr>
          </ns3:TrackPointExtension>
        </extensions>
      </trkpt>
      <trkpt lat="36.7847687937319278717041015625" lon="-118.415107391774654388427734375">
        <ele>3442.800048828125</ele>
        <time>2021-06-25T21:14:30.000Z</time>
        <extensions>
          <ns3:TrackPointExtension>
            <ns3:atemp>31.0</ns3:atemp>
            <ns3:hr>125</ns3:hr>
          </ns3:TrackPointExtension>
        </extensions>
      </trkpt>
      <trkpt lat="36.7847714759409427642822265625" lon="-118.4150864370167255401611328125">
        <ele>3443.199951171875</ele>
        <time>2021-06-25T21:14:33.000Z</time>
        <extensions>
          <ns3:TrackPointExtension>
            <ns3:atemp>31.0</ns3:atemp>
            <ns3:hr>126</ns3:hr>
          </ns3:TrackPointExtension>
        </extensions>
      </trkpt>
      <trkpt lat="36.78476988337934017181396484375" lon="-118.41505416668951511383056640625">
        <ele>3443.800048828125</ele>
        <time>2021-06-25T21:14:37.000Z</time>
        <extensions>
          <ns3:TrackPointExtension>
            <ns3:atemp>31.0</ns3:atemp>
            <ns3:hr>124</ns3:hr>
          </ns3:TrackPointExtension>
        </extensions>
      </trkpt>
      <trkpt lat="36.78478379733860492706298828125" lon="-118.41505584307014942169189453125">
        <ele>3444.800048828125</ele>
        <time>2021-06-25T21:14:41.000Z</time>
        <extensions>
          <ns3:TrackPointExtension>
            <ns3:atemp>31.0</ns3:atemp>
            <ns3:hr>127</ns3:hr>
          </ns3:TrackPointExtension>
        </extensions>
      </trkpt>
      <trkpt lat="36.78478471934795379638671875" lon="-118.4150626324117183685302734375">
        <ele>3444.800048828125</ele>
        <time>2021-06-25T21:14:42.000Z</time>
        <extensions>
          <ns3:TrackPointExtension>
            <ns3:atemp>31.0</ns3:atemp>
            <ns3:hr>127</ns3:hr>
          </ns3:TrackPointExtension>
        </extensions>
      </trkpt>
      <trkpt lat="36.78477474488317966461181640625" lon="-118.4151122532784938812255859375">
        <ele>3445.800048828125</ele>
        <time>2021-06-25T21:14:50.000Z</time>
        <extensions>
          <ns3:TrackPointExtension>
            <ns3:atemp>31.0</ns3:atemp>
            <ns3:hr>129</ns3:hr>
          </ns3:TrackPointExtension>
        </extensions>
      </trkpt>
      <trkpt lat="36.78479234687983989715576171875" lon="-118.4151900373399257659912109375">
        <ele>3446.199951171875</ele>
        <time>2021-06-25T21:14:56.000Z</time>
        <extensions>
          <ns3:TrackPointExtension>
            <ns3:atemp>31.0</ns3:atemp>
            <ns3:hr>130</ns3:hr>
          </ns3:TrackPointExtension>
        </extensions>
      </trkpt>
      <trkpt lat="36.7847956158220767974853515625" lon="-118.41520965099334716796875">
        <ele>3446.199951171875</ele>
        <time>2021-06-25T21:14:58.000Z</time>
        <extensions>
          <ns3:TrackPointExtension>
            <ns3:atemp>31.0</ns3:atemp>
            <ns3:hr>130</ns3:hr>
          </ns3:TrackPointExtension>
        </extensions>
      </trkpt>
      <trkpt lat="36.7847919277846813201904296875" lon="-118.41523605398833751678466796875">
        <ele>3446.39990234375</ele>
        <time>2021-06-25T21:15:01.000Z</time>
        <extensions>
          <ns3:TrackPointExtension>
            <ns3:atemp>31.0</ns3:atemp>
            <ns3:hr>127</ns3:hr>
          </ns3:TrackPointExtension>
        </extensions>
      </trkpt>
      <trkpt lat="36.7848122119903564453125" lon="-118.4153234772384166717529296875">
        <ele>3446.800048828125</ele>
        <time>2021-06-25T21:15:09.000Z</time>
        <extensions>
          <ns3:TrackPointExtension>
            <ns3:atemp>31.0</ns3:atemp>
            <ns3:hr>128</ns3:hr>
          </ns3:TrackPointExtension>
        </extensions>
      </trkpt>
      <trkpt lat="36.78482604213058948516845703125" lon="-118.4153000079095363616943359375">
        <ele>3447</ele>
        <time>2021-06-25T21:15:13.000Z</time>
        <extensions>
          <ns3:TrackPointExtension>
            <ns3:atemp>31.0</ns3:atemp>
            <ns3:hr>131</ns3:hr>
          </ns3:TrackPointExtension>
        </extensions>
      </trkpt>
      <trkpt lat="36.784831322729587554931640625" lon="-118.41528274118900299072265625">
        <ele>3447.39990234375</ele>
        <time>2021-06-25T21:15:15.000Z</time>
        <extensions>
          <ns3:TrackPointExtension>
            <ns3:atemp>31.0</ns3:atemp>
            <ns3:hr>132</ns3:hr>
          </ns3:TrackPointExtension>
        </extensions>
      </trkpt>
      <trkpt lat="36.78483610041439533233642578125" lon="-118.41527737677097320556640625">
        <ele>3447.800048828125</ele>
        <time>2021-06-25T21:15:16.000Z</time>
        <extensions>
          <ns3:TrackPointExtension>
            <ns3:atemp>31.0</ns3:atemp>
            <ns3:hr>132</ns3:hr>
          </ns3:TrackPointExtension>
        </extensions>
      </trkpt>
      <trkpt lat="36.7848645150661468505859375" lon="-118.41524695046246051788330078125">
        <ele>3448.800048828125</ele>
        <time>2021-06-25T21:15:21.000Z</time>
        <extensions>
          <ns3:TrackPointExtension>
            <ns3:atemp>31.0</ns3:atemp>
            <ns3:hr>133</ns3:hr>
          </ns3:TrackPointExtension>
        </extensions>
      </trkpt>
      <trkpt lat="36.78487499244511127471923828125" lon="-118.4152319468557834625244140625">
        <ele>3449.199951171875</ele>
        <time>2021-06-25T21:15:24.000Z</time>
        <extensions>
          <ns3:TrackPointExtension>
            <ns3:atemp>31.0</ns3:atemp>
            <ns3:hr>134</ns3:hr>
          </ns3:TrackPointExtension>
        </extensions>
      </trkpt>
      <trkpt lat="36.7848821170628070831298828125" lon="-118.4152041189372539520263671875">
        <ele>3450.199951171875</ele>
        <time>2021-06-25T21:15:28.000Z</time>
        <extensions>
          <ns3:TrackPointExtension>
            <ns3:atemp>31.0</ns3:atemp>
            <ns3:hr>133</ns3:hr>
          </ns3:TrackPointExtension>
        </extensions>
      </trkpt>
      <trkpt lat="36.78487348370254039764404296875" lon="-118.41516648419201374053955078125">
        <ele>3450.800048828125</ele>
        <time>2021-06-25T21:15:33.000Z</time>
        <extensions>
          <ns3:TrackPointExtension>
            <ns3:atemp>31.0</ns3:atemp>
            <ns3:hr>134</ns3:hr>
          </ns3:TrackPointExtension>
        </extensions>
      </trkpt>
      <trkpt lat="36.78487666882574558258056640625" lon="-118.415159694850444793701171875">
        <ele>3451.39990234375</ele>
        <time>2021-06-25T21:15:34.000Z</time>
        <extensions>
          <ns3:TrackPointExtension>
            <ns3:atemp>31.0</ns3:atemp>
            <ns3:hr>133</ns3:hr>
          </ns3:TrackPointExtension>
        </extensions>
      </trkpt>
      <trkpt lat="36.78491589613258838653564453125" lon="-118.41510496102273464202880859375">
        <ele>3452.60009765625</ele>
        <time>2021-06-25T21:15:44.000Z</time>
        <extensions>
          <ns3:TrackPointExtension>
            <ns3:atemp>30.0</ns3:atemp>
            <ns3:hr>133</ns3:hr>
          </ns3:TrackPointExtension>
        </extensions>
      </trkpt>
      <trkpt lat="36.784932911396026611328125" lon="-118.4150643087923526763916015625">
        <ele>3453.800048828125</ele>
        <time>2021-06-25T21:15:49.000Z</time>
        <extensions>
          <ns3:TrackPointExtension>
            <ns3:atemp>30.0</ns3:atemp>
            <ns3:hr>134</ns3:hr>
          </ns3:TrackPointExtension>
        </extensions>
      </trkpt>
      <trkpt lat="36.78493869490921497344970703125" lon="-118.4150532446801662445068359375">
        <ele>3453.800048828125</ele>
        <time>2021-06-25T21:15:51.000Z</time>
        <extensions>
          <ns3:TrackPointExtension>
            <ns3:atemp>30.0</ns3:atemp>
            <ns3:hr>134</ns3:hr>
          </ns3:TrackPointExtension>
        </extensions>
      </trkpt>
      <trkpt lat="36.78496082313358783721923828125" lon="-118.414994738996028900146484375">
        <ele>3455.199951171875</ele>
        <time>2021-06-25T21:15:59.000Z</time>
        <extensions>
          <ns3:TrackPointExtension>
            <ns3:atemp>30.0</ns3:atemp>
            <ns3:hr>135</ns3:hr>
          </ns3:TrackPointExtension>
        </extensions>
      </trkpt>
      <trkpt lat="36.78497247397899627685546875" lon="-118.414959870278835296630859375">
        <ele>3455.60009765625</ele>
        <time>2021-06-25T21:16:03.000Z</time>
        <extensions>
          <ns3:TrackPointExtension>
            <ns3:atemp>30.0</ns3:atemp>
            <ns3:hr>138</ns3:hr>
          </ns3:TrackPointExtension>
        </extensions>
      </trkpt>
      <trkpt lat="36.784984208643436431884765625" lon="-118.4149038791656494140625">
        <ele>3456.39990234375</ele>
        <time>2021-06-25T21:16:08.000Z</time>
        <extensions>
          <ns3:TrackPointExtension>
            <ns3:atemp>30.0</ns3:atemp>
            <ns3:hr>138</ns3:hr>
          </ns3:TrackPointExtension>
        </extensions>
      </trkpt>
      <trkpt lat="36.78499116562306880950927734375" lon="-118.414888791739940643310546875">
        <ele>3456.800048828125</ele>
        <time>2021-06-25T21:16:10.000Z</time>
        <extensions>
          <ns3:TrackPointExtension>
            <ns3:atemp>30.0</ns3:atemp>
            <ns3:hr>139</ns3:hr>
          </ns3:TrackPointExtension>
        </extensions>
      </trkpt>
      <trkpt lat="36.78499384783208370208740234375" lon="-118.4148738719522953033447265625">
        <ele>3457.60009765625</ele>
        <time>2021-06-25T21:16:12.000Z</time>
        <extensions>
          <ns3:TrackPointExtension>
            <ns3:atemp>30.0</ns3:atemp>
            <ns3:hr>138</ns3:hr>
          </ns3:TrackPointExtension>
        </extensions>
      </trkpt>
      <trkpt lat="36.7849917523562908172607421875" lon="-118.41481494717299938201904296875">
        <ele>3458.39990234375</ele>
        <time>2021-06-25T21:16:18.000Z</time>
        <extensions>
          <ns3:TrackPointExtension>
            <ns3:atemp>30.0</ns3:atemp>
            <ns3:hr>138</ns3:hr>
          </ns3:TrackPointExtension>
        </extensions>
      </trkpt>
      <trkpt lat="36.78499267436563968658447265625" lon="-118.41479700990021228790283203125">
        <ele>3458.800048828125</ele>
        <time>2021-06-25T21:16:20.000Z</time>
        <extensions>
          <ns3:TrackPointExtension>
            <ns3:atemp>30.0</ns3:atemp>
            <ns3:hr>138</ns3:hr>
          </ns3:TrackPointExtension>
        </extensions>
      </trkpt>
      <trkpt lat="36.78502880036830902099609375" lon="-118.4147058986127376556396484375">
        <ele>3459.60009765625</ele>
        <time>2021-06-25T21:16:30.000Z</time>
        <extensions>
          <ns3:TrackPointExtension>
            <ns3:atemp>30.0</ns3:atemp>
            <ns3:hr>137</ns3:hr>
          </ns3:TrackPointExtension>
        </extensions>
      </trkpt>
      <trkpt lat="36.78504489362239837646484375" lon="-118.4146906435489654541015625">
        <ele>3460</ele>
        <time>2021-06-25T21:16:32.000Z</time>
        <extensions>
          <ns3:TrackPointExtension>
            <ns3:atemp>30.0</ns3:atemp>
            <ns3:hr>137</ns3:hr>
          </ns3:TrackPointExtension>
        </extensions>
      </trkpt>
      <trkpt lat="36.785079427063465118408203125" lon="-118.41462199576199054718017578125">
        <ele>3461</ele>
        <time>2021-06-25T21:16:40.000Z</time>
        <extensions>
          <ns3:TrackPointExtension>
            <ns3:atemp>30.0</ns3:atemp>
            <ns3:hr>135</ns3:hr>
          </ns3:TrackPointExtension>
        </extensions>
      </trkpt>
      <trkpt lat="36.7850829474627971649169921875" lon="-118.41461445204913616180419921875">
        <ele>3461.199951171875</ele>
        <time>2021-06-25T21:16:41.000Z</time>
        <extensions>
          <ns3:TrackPointExtension>
            <ns3:atemp>30.0</ns3:atemp>
            <ns3:hr>135</ns3:hr>
          </ns3:TrackPointExtension>
        </extensions>
      </trkpt>
      <trkpt lat="36.7850933410227298736572265625" lon="-118.41458461247384548187255859375">
        <ele>3462.199951171875</ele>
        <time>2021-06-25T21:16:47.000Z</time>
        <extensions>
          <ns3:TrackPointExtension>
            <ns3:atemp>30.0</ns3:atemp>
            <ns3:hr>135</ns3:hr>
          </ns3:TrackPointExtension>
        </extensions>
      </trkpt>
      <trkpt lat="36.785080097615718841552734375" lon="-118.41455452144145965576171875">
        <ele>3463</ele>
        <time>2021-06-25T21:16:55.000Z</time>
        <extensions>
          <ns3:TrackPointExtension>
            <ns3:atemp>30.0</ns3:atemp>
            <ns3:hr>134</ns3:hr>
          </ns3:TrackPointExtension>
        </extensions>
      </trkpt>
      <trkpt lat="36.7850846238434314727783203125" lon="-118.41456097550690174102783203125">
        <ele>3463.39990234375</ele>
        <time>2021-06-25T21:17:02.000Z</time>
        <extensions>
          <ns3:TrackPointExtension>
            <ns3:atemp>30.0</ns3:atemp>
            <ns3:hr>135</ns3:hr>
          </ns3:TrackPointExtension>
        </extensions>
      </trkpt>
      <trkpt lat="36.7850846238434314727783203125" lon="-118.41456097550690174102783203125">
        <ele>3463.60009765625</ele>
        <time>2021-06-25T21:17:08.000Z</time>
        <extensions>
          <ns3:TrackPointExtension>
            <ns3:atemp>30.0</ns3:atemp>
            <ns3:hr>132</ns3:hr>
          </ns3:TrackPointExtension>
        </extensions>
      </trkpt>
      <trkpt lat="36.7850846238434314727783203125" lon="-118.41456097550690174102783203125">
        <ele>3463.60009765625</ele>
        <time>2021-06-25T21:17:11.000Z</time>
        <extensions>
          <ns3:TrackPointExtension>
            <ns3:atemp>30.0</ns3:atemp>
            <ns3:hr>129</ns3:hr>
          </ns3:TrackPointExtension>
        </extensions>
      </trkpt>
      <trkpt lat="36.7850846238434314727783203125" lon="-118.41456097550690174102783203125">
        <ele>3463.60009765625</ele>
        <time>2021-06-25T21:17:12.000Z</time>
        <extensions>
          <ns3:TrackPointExtension>
            <ns3:atemp>30.0</ns3:atemp>
            <ns3:hr>128</ns3:hr>
          </ns3:TrackPointExtension>
        </extensions>
      </trkpt>
      <trkpt lat="36.785085462033748626708984375" lon="-118.41455762274563312530517578125">
        <ele>3463.60009765625</ele>
        <time>2021-06-25T21:17:24.000Z</time>
        <extensions>
          <ns3:TrackPointExtension>
            <ns3:atemp>30.0</ns3:atemp>
            <ns3:hr>131</ns3:hr>
          </ns3:TrackPointExtension>
        </extensions>
      </trkpt>
      <trkpt lat="36.7850859649479389190673828125" lon="-118.41455762274563312530517578125">
        <ele>3463.60009765625</ele>
        <time>2021-06-25T21:17:27.000Z</time>
        <extensions>
          <ns3:TrackPointExtension>
            <ns3:atemp>30.0</ns3:atemp>
            <ns3:hr>128</ns3:hr>
          </ns3:TrackPointExtension>
        </extensions>
      </trkpt>
      <trkpt lat="36.7850859649479389190673828125" lon="-118.414556868374347686767578125">
        <ele>3463.60009765625</ele>
        <time>2021-06-25T21:17:31.000Z</time>
        <extensions>
          <ns3:TrackPointExtension>
            <ns3:atemp>30.0</ns3:atemp>
            <ns3:hr>124</ns3:hr>
          </ns3:TrackPointExtension>
        </extensions>
      </trkpt>
      <trkpt lat="36.78508512675762176513671875" lon="-118.41455510817468166351318359375">
        <ele>3463.39990234375</ele>
        <time>2021-06-25T21:17:34.000Z</time>
        <extensions>
          <ns3:TrackPointExtension>
            <ns3:atemp>30.0</ns3:atemp>
            <ns3:hr>120</ns3:hr>
          </ns3:TrackPointExtension>
        </extensions>
      </trkpt>
      <trkpt lat="36.78508420474827289581298828125" lon="-118.414548151195049285888671875">
        <ele>3463.39990234375</ele>
        <time>2021-06-25T21:17:39.000Z</time>
        <extensions>
          <ns3:TrackPointExtension>
            <ns3:atemp>30.0</ns3:atemp>
            <ns3:hr>117</ns3:hr>
          </ns3:TrackPointExtension>
        </extensions>
      </trkpt>
      <trkpt lat="36.78508252836763858795166015625" lon="-118.41454781591892242431640625">
        <ele>3463.39990234375</ele>
        <time>2021-06-25T21:17:45.000Z</time>
        <extensions>
          <ns3:TrackPointExtension>
            <ns3:atemp>30.0</ns3:atemp>
            <ns3:hr>114</ns3:hr>
          </ns3:TrackPointExtension>
        </extensions>
      </trkpt>
      <trkpt lat="36.7850809358060359954833984375" lon="-118.41454781591892242431640625">
        <ele>3463.39990234375</ele>
        <time>2021-06-25T21:17:47.000Z</time>
        <extensions>
          <ns3:TrackPointExtension>
            <ns3:atemp>30.0</ns3:atemp>
            <ns3:hr>109</ns3:hr>
          </ns3:TrackPointExtension>
        </extensions>
      </trkpt>
      <trkpt lat="36.7850792594254016876220703125" lon="-118.41454781591892242431640625">
        <ele>3463.39990234375</ele>
        <time>2021-06-25T21:17:49.000Z</time>
        <extensions>
          <ns3:TrackPointExtension>
            <ns3:atemp>30.0</ns3:atemp>
            <ns3:hr>106</ns3:hr>
          </ns3:TrackPointExtension>
        </extensions>
      </trkpt>
      <trkpt lat="36.78507816977798938751220703125" lon="-118.41454781591892242431640625">
        <ele>3463.60009765625</ele>
        <time>2021-06-25T21:17:51.000Z</time>
        <extensions>
          <ns3:TrackPointExtension>
            <ns3:atemp>30.0</ns3:atemp>
            <ns3:hr>103</ns3:hr>
          </ns3:TrackPointExtension>
        </extensions>
      </trkpt>
      <trkpt lat="36.7850735597312450408935546875" lon="-118.41454806737601757049560546875">
        <ele>3463.60009765625</ele>
        <time>2021-06-25T21:17:59.000Z</time>
        <extensions>
          <ns3:TrackPointExtension>
            <ns3:atemp>30.0</ns3:atemp>
            <ns3:hr>100</ns3:hr>
          </ns3:TrackPointExtension>
        </extensions>
      </trkpt>
      <trkpt lat="36.78507079370319843292236328125" lon="-118.41454806737601757049560546875">
        <ele>3463.60009765625</ele>
        <time>2021-06-25T21:18:06.000Z</time>
        <extensions>
          <ns3:TrackPointExtension>
            <ns3:atemp>30.0</ns3:atemp>
            <ns3:hr>97</ns3:hr>
          </ns3:TrackPointExtension>
        </extensions>
      </trkpt>
      <trkpt lat="36.78506693802773952484130859375" lon="-118.4145458042621612548828125">
        <ele>3463.60009765625</ele>
        <time>2021-06-25T21:18:13.000Z</time>
        <extensions>
          <ns3:TrackPointExtension>
            <ns3:atemp>30.0</ns3:atemp>
            <ns3:hr>100</ns3:hr>
          </ns3:TrackPointExtension>
        </extensions>
      </trkpt>
      <trkpt lat="36.78506643511354923248291015625" lon="-118.41454471461474895477294921875">
        <ele>3464</ele>
        <time>2021-06-25T21:18:23.000Z</time>
        <extensions>
          <ns3:TrackPointExtension>
            <ns3:atemp>30.0</ns3:atemp>
            <ns3:hr>97</ns3:hr>
          </ns3:TrackPointExtension>
        </extensions>
      </trkpt>
      <trkpt lat="36.78506677038967609405517578125" lon="-118.41454722918570041656494140625">
        <ele>3463.800048828125</ele>
        <time>2021-06-25T21:18:30.000Z</time>
        <extensions>
          <ns3:TrackPointExtension>
            <ns3:atemp>30.0</ns3:atemp>
            <ns3:hr>100</ns3:hr>
          </ns3:TrackPointExtension>
        </extensions>
      </trkpt>
      <trkpt lat="36.78507481701672077178955078125" lon="-118.41455024667084217071533203125">
        <ele>3464</ele>
        <time>2021-06-25T21:18:34.000Z</time>
        <extensions>
          <ns3:TrackPointExtension>
            <ns3:atemp>30.0</ns3:atemp>
            <ns3:hr>97</ns3:hr>
          </ns3:TrackPointExtension>
        </extensions>
      </trkpt>
      <trkpt lat="36.7850764095783233642578125" lon="-118.41455058194696903228759765625">
        <ele>3464.39990234375</ele>
        <time>2021-06-25T21:18:36.000Z</time>
        <extensions>
          <ns3:TrackPointExtension>
            <ns3:atemp>30.0</ns3:atemp>
            <ns3:hr>99</ns3:hr>
          </ns3:TrackPointExtension>
        </extensions>
      </trkpt>
      <trkpt lat="36.7850795947015285491943359375" lon="-118.4145506657660007476806640625">
        <ele>3464.800048828125</ele>
        <time>2021-06-25T21:18:41.000Z</time>
        <extensions>
          <ns3:TrackPointExtension>
            <ns3:atemp>30.0</ns3:atemp>
            <ns3:hr>96</ns3:hr>
          </ns3:TrackPointExtension>
        </extensions>
      </trkpt>
      <trkpt lat="36.78508068434894084930419921875" lon="-118.4145506657660007476806640625">
        <ele>3464.800048828125</ele>
        <time>2021-06-25T21:18:43.000Z</time>
        <extensions>
          <ns3:TrackPointExtension>
            <ns3:atemp>30.0</ns3:atemp>
            <ns3:hr>92</ns3:hr>
          </ns3:TrackPointExtension>
        </extensions>
      </trkpt>
      <trkpt lat="36.7850809358060359954833984375" lon="-118.41455058194696903228759765625">
        <ele>3465.199951171875</ele>
        <time>2021-06-25T21:18:46.000Z</time>
        <extensions>
          <ns3:TrackPointExtension>
            <ns3:atemp>30.0</ns3:atemp>
            <ns3:hr>89</ns3:hr>
          </ns3:TrackPointExtension>
        </extensions>
      </trkpt>
      <trkpt lat="36.785084120929241180419921875" lon="-118.414544798433780670166015625">
        <ele>3464.60009765625</ele>
        <time>2021-06-25T21:18:58.000Z</time>
        <extensions>
          <ns3:TrackPointExtension>
            <ns3:atemp>30.0</ns3:atemp>
            <ns3:hr>93</ns3:hr>
          </ns3:TrackPointExtension>
        </extensions>
      </trkpt>
      <trkpt lat="36.78508001379668712615966796875" lon="-118.41454437933862209320068359375">
        <ele>3464.199951171875</ele>
        <time>2021-06-25T21:19:04.000Z</time>
        <extensions>
          <ns3:TrackPointExtension>
            <ns3:atemp>30.0</ns3:atemp>
            <ns3:hr>90</ns3:hr>
          </ns3:TrackPointExtension>
        </extensions>
      </trkpt>
      <trkpt lat="36.785074062645435333251953125" lon="-118.4145453013479709625244140625">
        <ele>3464.199951171875</ele>
        <time>2021-06-25T21:19:21.000Z</time>
        <extensions>
          <ns3:TrackPointExtension>
            <ns3:atemp>30.0</ns3:atemp>
            <ns3:hr>93</ns3:hr>
          </ns3:TrackPointExtension>
        </extensions>
      </trkpt>
      <trkpt lat="36.78507305681705474853515625" lon="-118.414546139538288116455078125">
        <ele>3464.199951171875</ele>
        <time>2021-06-25T21:19:24.000Z</time>
        <extensions>
          <ns3:TrackPointExtension>
            <ns3:atemp>30.0</ns3:atemp>
            <ns3:hr>96</ns3:hr>
          </ns3:TrackPointExtension>
        </extensions>
      </trkpt>
      <trkpt lat="36.78506995551288127899169921875" lon="-118.41454982757568359375">
        <ele>3464.199951171875</ele>
        <time>2021-06-25T21:19:48.000Z</time>
        <extensions>
          <ns3:TrackPointExtension>
            <ns3:atemp>30.0</ns3:atemp>
            <ns3:hr>96</ns3:hr>
          </ns3:TrackPointExtension>
        </extensions>
      </trkpt>
      <trkpt lat="36.7850866355001926422119140625" lon="-118.41455460526049137115478515625">
        <ele>3464.199951171875</ele>
        <time>2021-06-25T21:20:08.000Z</time>
        <extensions>
          <ns3:TrackPointExtension>
            <ns3:atemp>30.0</ns3:atemp>
            <ns3:hr>93</ns3:hr>
          </ns3:TrackPointExtension>
        </extensions>
      </trkpt>
      <trkpt lat="36.78510180674493312835693359375" lon="-118.41450733132660388946533203125">
        <ele>3464.199951171875</ele>
        <time>2021-06-25T21:20:16.000Z</time>
        <extensions>
          <ns3:TrackPointExtension>
            <ns3:atemp>30.0</ns3:atemp>
            <ns3:hr>96</ns3:hr>
          </ns3:TrackPointExtension>
        </extensions>
      </trkpt>
      <trkpt lat="36.78511588834226131439208984375" lon="-118.41447405517101287841796875">
        <ele>3464.199951171875</ele>
        <time>2021-06-25T21:20:18.000Z</time>
        <extensions>
          <ns3:TrackPointExtension>
            <ns3:atemp>30.0</ns3:atemp>
            <ns3:hr>100</ns3:hr>
          </ns3:TrackPointExtension>
        </extensions>
      </trkpt>
      <trkpt lat="36.78512175567448139190673828125" lon="-118.41445720754563808441162109375">
        <ele>3464.199951171875</ele>
        <time>2021-06-25T21:20:19.000Z</time>
        <extensions>
          <ns3:TrackPointExtension>
            <ns3:atemp>30.0</ns3:atemp>
            <ns3:hr>103</ns3:hr>
          </ns3:TrackPointExtension>
        </extensions>
      </trkpt>
      <trkpt lat="36.7851292155683040618896484375" lon="-118.414439857006072998046875">
        <ele>3464.199951171875</ele>
        <time>2021-06-25T21:20:20.000Z</time>
        <extensions>
          <ns3:TrackPointExtension>
            <ns3:atemp>30.0</ns3:atemp>
            <ns3:hr>105</ns3:hr>
          </ns3:TrackPointExtension>
        </extensions>
      </trkpt>
      <trkpt lat="36.785141788423061370849609375" lon="-118.41440943069756031036376953125">
        <ele>3464.199951171875</ele>
        <time>2021-06-25T21:20:22.000Z</time>
        <extensions>
          <ns3:TrackPointExtension>
            <ns3:atemp>30.0</ns3:atemp>
            <ns3:hr>110</ns3:hr>
          </ns3:TrackPointExtension>
        </extensions>
      </trkpt>
      <trkpt lat="36.78514975123107433319091796875" lon="-118.414383865892887115478515625">
        <ele>3465</ele>
        <time>2021-06-25T21:20:24.000Z</time>
        <extensions>
          <ns3:TrackPointExtension>
            <ns3:atemp>30.0</ns3:atemp>
            <ns3:hr>107</ns3:hr>
          </ns3:TrackPointExtension>
        </extensions>
      </trkpt>
      <trkpt lat="36.78514975123107433319091796875" lon="-118.41437573544681072235107421875">
        <ele>3465</ele>
        <time>2021-06-25T21:20:25.000Z</time>
        <extensions>
          <ns3:TrackPointExtension>
            <ns3:atemp>30.0</ns3:atemp>
            <ns3:hr>107</ns3:hr>
          </ns3:TrackPointExtension>
        </extensions>
      </trkpt>
      <trkpt lat="36.785153187811374664306640625" lon="-118.414360396564006805419921875">
        <ele>3465.199951171875</ele>
        <time>2021-06-25T21:20:27.000Z</time>
        <extensions>
          <ns3:TrackPointExtension>
            <ns3:atemp>30.0</ns3:atemp>
            <ns3:hr>107</ns3:hr>
          </ns3:TrackPointExtension>
        </extensions>
      </trkpt>
      <trkpt lat="36.7851555347442626953125" lon="-118.41434656642377376556396484375">
        <ele>3465.39990234375</ele>
        <time>2021-06-25T21:20:29.000Z</time>
        <extensions>
          <ns3:TrackPointExtension>
            <ns3:atemp>30.0</ns3:atemp>
            <ns3:hr>108</ns3:hr>
          </ns3:TrackPointExtension>
        </extensions>
      </trkpt>
      <trkpt lat="36.7851573787629604339599609375" lon="-118.41433768160641193389892578125">
        <ele>3465.800048828125</ele>
        <time>2021-06-25T21:20:30.000Z</time>
        <extensions>
          <ns3:TrackPointExtension>
            <ns3:atemp>30.0</ns3:atemp>
            <ns3:hr>107</ns3:hr>
          </ns3:TrackPointExtension>
        </extensions>
      </trkpt>
      <trkpt lat="36.7851593904197216033935546875" lon="-118.414327539503574371337890625">
        <ele>3465.800048828125</ele>
        <time>2021-06-25T21:20:31.000Z</time>
        <extensions>
          <ns3:TrackPointExtension>
            <ns3:atemp>30.0</ns3:atemp>
            <ns3:hr>107</ns3:hr>
          </ns3:TrackPointExtension>
        </extensions>
      </trkpt>
      <trkpt lat="36.7851741425693035125732421875" lon="-118.4142941795289516448974609375">
        <ele>3466.60009765625</ele>
        <time>2021-06-25T21:20:35.000Z</time>
        <extensions>
          <ns3:TrackPointExtension>
            <ns3:atemp>30.0</ns3:atemp>
            <ns3:hr>105</ns3:hr>
          </ns3:TrackPointExtension>
        </extensions>
      </trkpt>
      <trkpt lat="36.7851795069873332977294921875" lon="-118.41427012346684932708740234375">
        <ele>3467.199951171875</ele>
        <time>2021-06-25T21:20:39.000Z</time>
        <extensions>
          <ns3:TrackPointExtension>
            <ns3:atemp>30.0</ns3:atemp>
            <ns3:hr>106</ns3:hr>
          </ns3:TrackPointExtension>
        </extensions>
      </trkpt>
      <trkpt lat="36.785179339349269866943359375" lon="-118.41425000689923763275146484375">
        <ele>3467.800048828125</ele>
        <time>2021-06-25T21:20:42.000Z</time>
        <extensions>
          <ns3:TrackPointExtension>
            <ns3:atemp>30.0</ns3:atemp>
            <ns3:hr>108</ns3:hr>
          </ns3:TrackPointExtension>
        </extensions>
      </trkpt>
      <trkpt lat="36.7851738072931766510009765625" lon="-118.41422100551426410675048828125">
        <ele>3468.39990234375</ele>
        <time>2021-06-25T21:20:46.000Z</time>
        <extensions>
          <ns3:TrackPointExtension>
            <ns3:atemp>30.0</ns3:atemp>
            <ns3:hr>110</ns3:hr>
          </ns3:TrackPointExtension>
        </extensions>
      </trkpt>
      <trkpt lat="36.78516886197030544281005859375" lon="-118.41418814845383167266845703125">
        <ele>3468.800048828125</ele>
        <time>2021-06-25T21:20:50.000Z</time>
        <extensions>
          <ns3:TrackPointExtension>
            <ns3:atemp>30.0</ns3:atemp>
            <ns3:hr>111</ns3:hr>
          </ns3:TrackPointExtension>
        </extensions>
      </trkpt>
      <trkpt lat="36.78517539985477924346923828125" lon="-118.4141429699957370758056640625">
        <ele>3469.60009765625</ele>
        <time>2021-06-25T21:20:55.000Z</time>
        <extensions>
          <ns3:TrackPointExtension>
            <ns3:atemp>30.0</ns3:atemp>
            <ns3:hr>111</ns3:hr>
          </ns3:TrackPointExtension>
        </extensions>
      </trkpt>
      <trkpt lat="36.785179339349269866943359375" lon="-118.4141352586448192596435546875">
        <ele>3469.800048828125</ele>
        <time>2021-06-25T21:20:56.000Z</time>
        <extensions>
          <ns3:TrackPointExtension>
            <ns3:atemp>30.0</ns3:atemp>
            <ns3:hr>110</ns3:hr>
          </ns3:TrackPointExtension>
        </extensions>
      </trkpt>
      <trkpt lat="36.78520473651587963104248046875" lon="-118.4140853025019168853759765625">
        <ele>3471.199951171875</ele>
        <time>2021-06-25T21:21:04.000Z</time>
        <extensions>
          <ns3:TrackPointExtension>
            <ns3:atemp>30.0</ns3:atemp>
            <ns3:hr>109</ns3:hr>
          </ns3:TrackPointExtension>
        </extensions>
      </trkpt>
      <trkpt lat="36.78520909510552883148193359375" lon="-118.4140796028077602386474609375">
        <ele>3471.199951171875</ele>
        <time>2021-06-25T21:21:05.000Z</time>
        <extensions>
          <ns3:TrackPointExtension>
            <ns3:atemp>30.0</ns3:atemp>
            <ns3:hr>109</ns3:hr>
          </ns3:TrackPointExtension>
        </extensions>
      </trkpt>
      <trkpt lat="36.7852227576076984405517578125" lon="-118.41402746737003326416015625">
        <ele>3472.199951171875</ele>
        <time>2021-06-25T21:21:12.000Z</time>
        <extensions>
          <ns3:TrackPointExtension>
            <ns3:atemp>30.0</ns3:atemp>
            <ns3:hr>112</ns3:hr>
          </ns3:TrackPointExtension>
        </extensions>
      </trkpt>
      <trkpt lat="36.78522669710218906402587890625" lon="-118.4140313230454921722412109375">
        <ele>3472.199951171875</ele>
        <time>2021-06-25T21:21:13.000Z</time>
        <extensions>
          <ns3:TrackPointExtension>
            <ns3:atemp>30.0</ns3:atemp>
            <ns3:hr>112</ns3:hr>
          </ns3:TrackPointExtension>
        </extensions>
      </trkpt>
      <trkpt lat="36.78524061106145381927490234375" lon="-118.4140933491289615631103515625">
        <ele>3473</ele>
        <time>2021-06-25T21:21:20.000Z</time>
        <extensions>
          <ns3:TrackPointExtension>
            <ns3:atemp>30.0</ns3:atemp>
            <ns3:hr>114</ns3:hr>
          </ns3:TrackPointExtension>
        </extensions>
      </trkpt>
      <trkpt lat="36.78524094633758068084716796875" lon="-118.414110280573368072509765625">
        <ele>3473.199951171875</ele>
        <time>2021-06-25T21:21:22.000Z</time>
        <extensions>
          <ns3:TrackPointExtension>
            <ns3:atemp>30.0</ns3:atemp>
            <ns3:hr>117</ns3:hr>
          </ns3:TrackPointExtension>
        </extensions>
      </trkpt>
      <trkpt lat="36.78524849005043506622314453125" lon="-118.41415093280375003814697265625">
        <ele>3473.60009765625</ele>
        <time>2021-06-25T21:21:26.000Z</time>
        <extensions>
          <ns3:TrackPointExtension>
            <ns3:atemp>30.0</ns3:atemp>
            <ns3:hr>120</ns3:hr>
          </ns3:TrackPointExtension>
        </extensions>
      </trkpt>
      <trkpt lat="36.78525536321103572845458984375" lon="-118.41417943127453327178955078125">
        <ele>3473.800048828125</ele>
        <time>2021-06-25T21:21:29.000Z</time>
        <extensions>
          <ns3:TrackPointExtension>
            <ns3:atemp>30.0</ns3:atemp>
            <ns3:hr>123</ns3:hr>
          </ns3:TrackPointExtension>
        </extensions>
      </trkpt>
      <trkpt lat="36.78526089526712894439697265625" lon="-118.41419988311827182769775390625">
        <ele>3474.199951171875</ele>
        <time>2021-06-25T21:21:31.000Z</time>
        <extensions>
          <ns3:TrackPointExtension>
            <ns3:atemp>30.0</ns3:atemp>
            <ns3:hr>126</ns3:hr>
          </ns3:TrackPointExtension>
        </extensions>
      </trkpt>
      <trkpt lat="36.7852740548551082611083984375" lon="-118.41420826502144336700439453125">
        <ele>3474.39990234375</ele>
        <time>2021-06-25T21:21:34.000Z</time>
        <extensions>
          <ns3:TrackPointExtension>
            <ns3:atemp>30.0</ns3:atemp>
            <ns3:hr>128</ns3:hr>
          </ns3:TrackPointExtension>
        </extensions>
      </trkpt>
      <trkpt lat="36.785278581082820892333984375" lon="-118.414197452366352081298828125">
        <ele>3474.800048828125</ele>
        <time>2021-06-25T21:21:36.000Z</time>
        <extensions>
          <ns3:TrackPointExtension>
            <ns3:atemp>30.0</ns3:atemp>
            <ns3:hr>131</ns3:hr>
          </ns3:TrackPointExtension>
        </extensions>
      </trkpt>
      <trkpt lat="36.78528017364442348480224609375" lon="-118.41418513096868991851806640625">
        <ele>3474.800048828125</ele>
        <time>2021-06-25T21:21:37.000Z</time>
        <extensions>
          <ns3:TrackPointExtension>
            <ns3:atemp>30.0</ns3:atemp>
            <ns3:hr>132</ns3:hr>
          </ns3:TrackPointExtension>
        </extensions>
      </trkpt>
      <trkpt lat="36.785278581082820892333984375" lon="-118.41413835994899272918701171875">
        <ele>3475.60009765625</ele>
        <time>2021-06-25T21:21:42.000Z</time>
        <extensions>
          <ns3:TrackPointExtension>
            <ns3:atemp>30.0</ns3:atemp>
            <ns3:hr>132</ns3:hr>
          </ns3:TrackPointExtension>
        </extensions>
      </trkpt>
      <trkpt lat="36.78527615033090114593505859375" lon="-118.414115644991397857666015625">
        <ele>3476.199951171875</ele>
        <time>2021-06-25T21:21:44.000Z</time>
        <extensions>
          <ns3:TrackPointExtension>
            <ns3:atemp>30.0</ns3:atemp>
            <ns3:hr>132</ns3:hr>
          </ns3:TrackPointExtension>
        </extensions>
      </trkpt>
      <trkpt lat="36.78528000600636005401611328125" lon="-118.4140361845493316650390625">
        <ele>3476.60009765625</ele>
        <time>2021-06-25T21:21:51.000Z</time>
        <extensions>
          <ns3:TrackPointExtension>
            <ns3:atemp>30.0</ns3:atemp>
            <ns3:hr>132</ns3:hr>
          </ns3:TrackPointExtension>
        </extensions>
      </trkpt>
      <trkpt lat="36.78527958691120147705078125" lon="-118.41402671299874782562255859375">
        <ele>3476.800048828125</ele>
        <time>2021-06-25T21:21:52.000Z</time>
        <extensions>
          <ns3:TrackPointExtension>
            <ns3:atemp>30.0</ns3:atemp>
            <ns3:hr>132</ns3:hr>
          </ns3:TrackPointExtension>
        </extensions>
      </trkpt>
      <trkpt lat="36.78530112840235233306884765625" lon="-118.414013385772705078125">
        <ele>3477.60009765625</ele>
        <time>2021-06-25T21:21:59.000Z</time>
        <extensions>
          <ns3:TrackPointExtension>
            <ns3:atemp>30.0</ns3:atemp>
            <ns3:hr>132</ns3:hr>
          </ns3:TrackPointExtension>
        </extensions>
      </trkpt>
      <trkpt lat="36.78530699573457241058349609375" lon="-118.41401900164783000946044921875">
        <ele>3478</ele>
        <time>2021-06-25T21:22:00.000Z</time>
        <extensions>
          <ns3:TrackPointExtension>
            <ns3:atemp>30.0</ns3:atemp>
            <ns3:hr>131</ns3:hr>
          </ns3:TrackPointExtension>
        </extensions>
      </trkpt>
      <trkpt lat="36.78533197380602359771728515625" lon="-118.41408739797770977020263671875">
        <ele>3479</ele>
        <time>2021-06-25T21:22:09.000Z</time>
        <extensions>
          <ns3:TrackPointExtension>
            <ns3:atemp>30.0</ns3:atemp>
            <ns3:hr>131</ns3:hr>
          </ns3:TrackPointExtension>
        </extensions>
      </trkpt>
      <trkpt lat="36.78533415310084819793701171875" lon="-118.414091505110263824462890625">
        <ele>3479.199951171875</ele>
        <time>2021-06-25T21:22:10.000Z</time>
        <extensions>
          <ns3:TrackPointExtension>
            <ns3:atemp>30.0</ns3:atemp>
            <ns3:hr>131</ns3:hr>
          </ns3:TrackPointExtension>
        </extensions>
      </trkpt>
      <trkpt lat="36.78536516614258289337158203125" lon="-118.414108939468860626220703125">
        <ele>3480</ele>
        <time>2021-06-25T21:22:16.000Z</time>
        <extensions>
          <ns3:TrackPointExtension>
            <ns3:atemp>30.0</ns3:atemp>
            <ns3:hr>132</ns3:hr>
          </ns3:TrackPointExtension>
        </extensions>
      </trkpt>
      <trkpt lat="36.78537237457931041717529296875" lon="-118.41410064138472080230712890625">
        <ele>3480.199951171875</ele>
        <time>2021-06-25T21:22:17.000Z</time>
        <extensions>
          <ns3:TrackPointExtension>
            <ns3:atemp>30.0</ns3:atemp>
            <ns3:hr>133</ns3:hr>
          </ns3:TrackPointExtension>
        </extensions>
      </trkpt>
      <trkpt lat="36.78538913838565349578857421875" lon="-118.41404733248054981231689453125">
        <ele>3481.199951171875</ele>
        <time>2021-06-25T21:22:23.000Z</time>
        <extensions>
          <ns3:TrackPointExtension>
            <ns3:atemp>30.0</ns3:atemp>
            <ns3:hr>135</ns3:hr>
          </ns3:TrackPointExtension>
        </extensions>
      </trkpt>
      <trkpt lat="36.78539819084107875823974609375" lon="-118.4140254557132720947265625">
        <ele>3481.39990234375</ele>
        <time>2021-06-25T21:22:25.000Z</time>
        <extensions>
          <ns3:TrackPointExtension>
            <ns3:atemp>30.0</ns3:atemp>
            <ns3:hr>134</ns3:hr>
          </ns3:TrackPointExtension>
        </extensions>
      </trkpt>
      <trkpt lat="36.7854081653058528900146484375" lon="-118.413988910615444183349609375">
        <ele>3482.199951171875</ele>
        <time>2021-06-25T21:22:29.000Z</time>
        <extensions>
          <ns3:TrackPointExtension>
            <ns3:atemp>30.0</ns3:atemp>
            <ns3:hr>131</ns3:hr>
          </ns3:TrackPointExtension>
        </extensions>
      </trkpt>
      <trkpt lat="36.7854286171495914459228515625" lon="-118.41393786482512950897216796875">
        <ele>3482.800048828125</ele>
        <time>2021-06-25T21:22:35.000Z</time>
        <extensions>
          <ns3:TrackPointExtension>
            <ns3:atemp>30.0</ns3:atemp>
            <ns3:hr>130</ns3:hr>
          </ns3:TrackPointExtension>
        </extensions>
      </trkpt>
      <trkpt lat="36.78545217029750347137451171875" lon="-118.41391213238239288330078125">
        <ele>3483.60009765625</ele>
        <time>2021-06-25T21:22:41.000Z</time>
        <extensions>
          <ns3:TrackPointExtension>
            <ns3:atemp>30.0</ns3:atemp>
            <ns3:hr>128</ns3:hr>
          </ns3:TrackPointExtension>
        </extensions>
      </trkpt>
      <trkpt lat="36.785456277430057525634765625" lon="-118.41390467248857021331787109375">
        <ele>3484</ele>
        <time>2021-06-25T21:22:42.000Z</time>
        <extensions>
          <ns3:TrackPointExtension>
            <ns3:atemp>30.0</ns3:atemp>
            <ns3:hr>128</ns3:hr>
          </ns3:TrackPointExtension>
        </extensions>
      </trkpt>
      <trkpt lat="36.7854711972177028656005859375" lon="-118.41388271190226078033447265625">
        <ele>3484.800048828125</ele>
        <time>2021-06-25T21:22:46.000Z</time>
        <extensions>
          <ns3:TrackPointExtension>
            <ns3:atemp>30.0</ns3:atemp>
            <ns3:hr>127</ns3:hr>
          </ns3:TrackPointExtension>
        </extensions>
      </trkpt>
      <trkpt lat="36.785493157804012298583984375" lon="-118.41386251151561737060546875">
        <ele>3485.199951171875</ele>
        <time>2021-06-25T21:22:51.000Z</time>
        <extensions>
          <ns3:TrackPointExtension>
            <ns3:atemp>30.0</ns3:atemp>
            <ns3:hr>127</ns3:hr>
          </ns3:TrackPointExtension>
        </extensions>
      </trkpt>
      <trkpt lat="36.7854983545839786529541015625" lon="-118.41385941021144390106201171875">
        <ele>3486</ele>
        <time>2021-06-25T21:22:52.000Z</time>
        <extensions>
          <ns3:TrackPointExtension>
            <ns3:atemp>30.0</ns3:atemp>
            <ns3:hr>127</ns3:hr>
          </ns3:TrackPointExtension>
        </extensions>
      </trkpt>
      <trkpt lat="36.785538755357265472412109375" lon="-118.4138730727136135101318359375">
        <ele>3486.800048828125</ele>
        <time>2021-06-25T21:23:00.000Z</time>
        <extensions>
          <ns3:TrackPointExtension>
            <ns3:atemp>30.0</ns3:atemp>
            <ns3:hr>128</ns3:hr>
          </ns3:TrackPointExtension>
        </extensions>
      </trkpt>
      <trkpt lat="36.78554101847112178802490234375" lon="-118.4138791076838970184326171875">
        <ele>3487.199951171875</ele>
        <time>2021-06-25T21:23:01.000Z</time>
        <extensions>
          <ns3:TrackPointExtension>
            <ns3:atemp>30.0</ns3:atemp>
            <ns3:hr>128</ns3:hr>
          </ns3:TrackPointExtension>
        </extensions>
      </trkpt>
      <trkpt lat="36.78553640842437744140625" lon="-118.41391338966786861419677734375">
        <ele>3487.800048828125</ele>
        <time>2021-06-25T21:23:07.000Z</time>
        <extensions>
          <ns3:TrackPointExtension>
            <ns3:atemp>30.0</ns3:atemp>
            <ns3:hr>125</ns3:hr>
          </ns3:TrackPointExtension>
        </extensions>
      </trkpt>
      <trkpt lat="36.7855318821966648101806640625" lon="-118.41391883790493011474609375">
        <ele>3488.39990234375</ele>
        <time>2021-06-25T21:23:08.000Z</time>
        <extensions>
          <ns3:TrackPointExtension>
            <ns3:atemp>30.0</ns3:atemp>
            <ns3:hr>124</ns3:hr>
          </ns3:TrackPointExtension>
        </extensions>
      </trkpt>
      <trkpt lat="36.78552878089249134063720703125" lon="-118.41392713598906993865966796875">
        <ele>3488.60009765625</ele>
        <time>2021-06-25T21:23:09.000Z</time>
        <extensions>
          <ns3:TrackPointExtension>
            <ns3:atemp>30.0</ns3:atemp>
            <ns3:hr>124</ns3:hr>
          </ns3:TrackPointExtension>
        </extensions>
      </trkpt>
      <trkpt lat="36.78554353304207324981689453125" lon="-118.41397918760776519775390625">
        <ele>3489.39990234375</ele>
        <time>2021-06-25T21:23:16.000Z</time>
        <extensions>
          <ns3:TrackPointExtension>
            <ns3:atemp>30.0</ns3:atemp>
            <ns3:hr>123</ns3:hr>
          </ns3:TrackPointExtension>
        </extensions>
      </trkpt>
      <trkpt lat="36.78554755635559558868408203125" lon="-118.41398614458739757537841796875">
        <ele>3489.60009765625</ele>
        <time>2021-06-25T21:23:17.000Z</time>
        <extensions>
          <ns3:TrackPointExtension>
            <ns3:atemp>30.0</ns3:atemp>
            <ns3:hr>123</ns3:hr>
          </ns3:TrackPointExtension>
        </extensions>
      </trkpt>
      <trkpt lat="36.7855519987642765045166015625" lon="-118.41399536468088626861572265625">
        <ele>3490.60009765625</ele>
        <time>2021-06-25T21:23:21.000Z</time>
        <extensions>
          <ns3:TrackPointExtension>
            <ns3:atemp>30.0</ns3:atemp>
            <ns3:hr>121</ns3:hr>
          </ns3:TrackPointExtension>
        </extensions>
      </trkpt>
      <trkpt lat="36.7855592072010040283203125" lon="-118.41399419121444225311279296875">
        <ele>3491</ele>
        <time>2021-06-25T21:23:23.000Z</time>
        <extensions>
          <ns3:TrackPointExtension>
            <ns3:atemp>30.0</ns3:atemp>
            <ns3:hr>119</ns3:hr>
          </ns3:TrackPointExtension>
        </extensions>
      </trkpt>
      <trkpt lat="36.785589717328548431396484375" lon="-118.413954712450504302978515625">
        <ele>3491.800048828125</ele>
        <time>2021-06-25T21:23:32.000Z</time>
        <extensions>
          <ns3:TrackPointExtension>
            <ns3:atemp>30.0</ns3:atemp>
            <ns3:hr>117</ns3:hr>
          </ns3:TrackPointExtension>
        </extensions>
      </trkpt>
      <trkpt lat="36.78560413420200347900390625" lon="-118.41392864473164081573486328125">
        <ele>3493</ele>
        <time>2021-06-25T21:23:37.000Z</time>
        <extensions>
          <ns3:TrackPointExtension>
            <ns3:atemp>30.0</ns3:atemp>
            <ns3:hr>119</ns3:hr>
          </ns3:TrackPointExtension>
        </extensions>
      </trkpt>
      <trkpt lat="36.78561846725642681121826171875" lon="-118.41390232555568218231201171875">
        <ele>3494</ele>
        <time>2021-06-25T21:23:42.000Z</time>
        <extensions>
          <ns3:TrackPointExtension>
            <ns3:atemp>30.0</ns3:atemp>
            <ns3:hr>120</ns3:hr>
          </ns3:TrackPointExtension>
        </extensions>
      </trkpt>
      <trkpt lat="36.78562265820801258087158203125" lon="-118.41389830224215984344482421875">
        <ele>3494.199951171875</ele>
        <time>2021-06-25T21:23:43.000Z</time>
        <extensions>
          <ns3:TrackPointExtension>
            <ns3:atemp>30.0</ns3:atemp>
            <ns3:hr>120</ns3:hr>
          </ns3:TrackPointExtension>
        </extensions>
      </trkpt>
      <trkpt lat="36.7856291122734546661376953125" lon="-118.41389494948089122772216796875">
        <ele>3494.199951171875</ele>
        <time>2021-06-25T21:23:45.000Z</time>
        <extensions>
          <ns3:TrackPointExtension>
            <ns3:atemp>30.0</ns3:atemp>
            <ns3:hr>123</ns3:hr>
          </ns3:TrackPointExtension>
        </extensions>
      </trkpt>
      <trkpt lat="36.78563824854791164398193359375" lon="-118.41388790868222713470458984375">
        <ele>3494.60009765625</ele>
        <time>2021-06-25T21:23:47.000Z</time>
        <extensions>
          <ns3:TrackPointExtension>
            <ns3:atemp>30.0</ns3:atemp>
            <ns3:hr>126</ns3:hr>
          </ns3:TrackPointExtension>
        </extensions>
      </trkpt>
      <trkpt lat="36.7856485582888126373291015625" lon="-118.41388002969324588775634765625">
        <ele>3495.199951171875</ele>
        <time>2021-06-25T21:23:49.000Z</time>
        <extensions>
          <ns3:TrackPointExtension>
            <ns3:atemp>30.0</ns3:atemp>
            <ns3:hr>127</ns3:hr>
          </ns3:TrackPointExtension>
        </extensions>
      </trkpt>
      <trkpt lat="36.78566272370517253875732421875" lon="-118.4138737432658672332763671875">
        <ele>3495.60009765625</ele>
        <time>2021-06-25T21:23:52.000Z</time>
        <extensions>
          <ns3:TrackPointExtension>
            <ns3:atemp>30.0</ns3:atemp>
            <ns3:hr>128</ns3:hr>
          </ns3:TrackPointExtension>
        </extensions>
      </trkpt>
      <trkpt lat="36.78569189272820949554443359375" lon="-118.4138402156531810760498046875">
        <ele>3496.60009765625</ele>
        <time>2021-06-25T21:23:58.000Z</time>
        <extensions>
          <ns3:TrackPointExtension>
            <ns3:atemp>30.0</ns3:atemp>
            <ns3:hr>127</ns3:hr>
          </ns3:TrackPointExtension>
        </extensions>
      </trkpt>
      <trkpt lat="36.78570128045976161956787109375" lon="-118.41382621787488460540771484375">
        <ele>3496.60009765625</ele>
        <time>2021-06-25T21:24:00.000Z</time>
        <extensions>
          <ns3:TrackPointExtension>
            <ns3:atemp>30.0</ns3:atemp>
            <ns3:hr>127</ns3:hr>
          </ns3:TrackPointExtension>
        </extensions>
      </trkpt>
      <trkpt lat="36.7857273481786251068115234375" lon="-118.4138060174882411956787109375">
        <ele>3497.199951171875</ele>
        <time>2021-06-25T21:24:05.000Z</time>
        <extensions>
          <ns3:TrackPointExtension>
            <ns3:atemp>30.0</ns3:atemp>
            <ns3:hr>124</ns3:hr>
          </ns3:TrackPointExtension>
        </extensions>
      </trkpt>
      <trkpt lat="36.78575291298329830169677734375" lon="-118.4137812070548534393310546875">
        <ele>3497.60009765625</ele>
        <time>2021-06-25T21:24:10.000Z</time>
        <extensions>
          <ns3:TrackPointExtension>
            <ns3:atemp>30.0</ns3:atemp>
            <ns3:hr>123</ns3:hr>
          </ns3:TrackPointExtension>
        </extensions>
      </trkpt>
      <trkpt lat="36.7857565172016620635986328125" lon="-118.413779027760028839111328125">
        <ele>3498</ele>
        <time>2021-06-25T21:24:11.000Z</time>
        <extensions>
          <ns3:TrackPointExtension>
            <ns3:atemp>30.0</ns3:atemp>
            <ns3:hr>123</ns3:hr>
          </ns3:TrackPointExtension>
        </extensions>
      </trkpt>
      <trkpt lat="36.78578644059598445892333984375" lon="-118.4137614257633686065673828125">
        <ele>3499.800048828125</ele>
        <time>2021-06-25T21:24:19.000Z</time>
        <extensions>
          <ns3:TrackPointExtension>
            <ns3:atemp>30.0</ns3:atemp>
            <ns3:hr>122</ns3:hr>
          </ns3:TrackPointExtension>
        </extensions>
      </trkpt>
      <trkpt lat="36.78580873645842075347900390625" lon="-118.41375882737338542938232421875">
        <ele>3500.199951171875</ele>
        <time>2021-06-25T21:24:22.000Z</time>
        <extensions>
          <ns3:TrackPointExtension>
            <ns3:atemp>30.0</ns3:atemp>
            <ns3:hr>119</ns3:hr>
          </ns3:TrackPointExtension>
        </extensions>
      </trkpt>
      <trkpt lat="36.78581996820867061614990234375" lon="-118.4137483499944210052490234375">
        <ele>3500.800048828125</ele>
        <time>2021-06-25T21:24:25.000Z</time>
        <extensions>
          <ns3:TrackPointExtension>
            <ns3:atemp>30.0</ns3:atemp>
            <ns3:hr>117</ns3:hr>
          </ns3:TrackPointExtension>
        </extensions>
      </trkpt>
      <trkpt lat="36.78583304397761821746826171875" lon="-118.41374256648123264312744140625">
        <ele>3501.199951171875</ele>
        <time>2021-06-25T21:24:28.000Z</time>
        <extensions>
          <ns3:TrackPointExtension>
            <ns3:atemp>30.0</ns3:atemp>
            <ns3:hr>115</ns3:hr>
          </ns3:TrackPointExtension>
        </extensions>
      </trkpt>
      <trkpt lat="36.785854585468769073486328125" lon="-118.41373938135802745819091796875">
        <ele>3502</ele>
        <time>2021-06-25T21:24:32.000Z</time>
        <extensions>
          <ns3:TrackPointExtension>
            <ns3:atemp>30.0</ns3:atemp>
            <ns3:hr>114</ns3:hr>
          </ns3:TrackPointExtension>
        </extensions>
      </trkpt>
      <trkpt lat="36.7858695052564144134521484375" lon="-118.41371909715235233306884765625">
        <ele>3502.60009765625</ele>
        <time>2021-06-25T21:24:36.000Z</time>
        <extensions>
          <ns3:TrackPointExtension>
            <ns3:atemp>30.0</ns3:atemp>
            <ns3:hr>113</ns3:hr>
          </ns3:TrackPointExtension>
        </extensions>
      </trkpt>
      <trkpt lat="36.7858758755028247833251953125" lon="-118.41371289454400539398193359375">
        <ele>3502.800048828125</ele>
        <time>2021-06-25T21:24:37.000Z</time>
        <extensions>
          <ns3:TrackPointExtension>
            <ns3:atemp>30.0</ns3:atemp>
            <ns3:hr>112</ns3:hr>
          </ns3:TrackPointExtension>
        </extensions>
      </trkpt>
      <trkpt lat="36.7858882807195186614990234375" lon="-118.41370048932731151580810546875">
        <ele>3503</ele>
        <time>2021-06-25T21:24:39.000Z</time>
        <extensions>
          <ns3:TrackPointExtension>
            <ns3:atemp>30.0</ns3:atemp>
            <ns3:hr>112</ns3:hr>
          </ns3:TrackPointExtension>
        </extensions>
      </trkpt>
      <trkpt lat="36.785909570753574371337890625" lon="-118.4136809594929218292236328125">
        <ele>3503.60009765625</ele>
        <time>2021-06-25T21:24:44.000Z</time>
        <extensions>
          <ns3:TrackPointExtension>
            <ns3:atemp>29.0</ns3:atemp>
            <ns3:hr>115</ns3:hr>
          </ns3:TrackPointExtension>
        </extensions>
      </trkpt>
      <trkpt lat="36.78591669537127017974853515625" lon="-118.41366360895335674285888671875">
        <ele>3503.60009765625</ele>
        <time>2021-06-25T21:24:46.000Z</time>
        <extensions>
          <ns3:TrackPointExtension>
            <ns3:atemp>29.0</ns3:atemp>
            <ns3:hr>115</ns3:hr>
          </ns3:TrackPointExtension>
        </extensions>
      </trkpt>
      <trkpt lat="36.78594033233821392059326171875" lon="-118.413648940622806549072265625">
        <ele>3504.199951171875</ele>
        <time>2021-06-25T21:24:50.000Z</time>
        <extensions>
          <ns3:TrackPointExtension>
            <ns3:atemp>29.0</ns3:atemp>
            <ns3:hr>114</ns3:hr>
          </ns3:TrackPointExtension>
        </extensions>
      </trkpt>
      <trkpt lat="36.785956509411334991455078125" lon="-118.41365137137472629547119140625">
        <ele>3504.800048828125</ele>
        <time>2021-06-25T21:24:54.000Z</time>
        <extensions>
          <ns3:TrackPointExtension>
            <ns3:atemp>29.0</ns3:atemp>
            <ns3:hr>114</ns3:hr>
          </ns3:TrackPointExtension>
        </extensions>
      </trkpt>
      <trkpt lat="36.785972602665424346923828125" lon="-118.41364667750895023345947265625">
        <ele>3505.199951171875</ele>
        <time>2021-06-25T21:24:57.000Z</time>
        <extensions>
          <ns3:TrackPointExtension>
            <ns3:atemp>29.0</ns3:atemp>
            <ns3:hr>114</ns3:hr>
          </ns3:TrackPointExtension>
        </extensions>
      </trkpt>
      <trkpt lat="36.78599380888044834136962890625" lon="-118.4136444143950939178466796875">
        <ele>3506.39990234375</ele>
        <time>2021-06-25T21:25:01.000Z</time>
        <extensions>
          <ns3:TrackPointExtension>
            <ns3:atemp>29.0</ns3:atemp>
            <ns3:hr>114</ns3:hr>
          </ns3:TrackPointExtension>
        </extensions>
      </trkpt>
      <trkpt lat="36.78601627238094806671142578125" lon="-118.4136403910815715789794921875">
        <ele>3506.60009765625</ele>
        <time>2021-06-25T21:25:04.000Z</time>
        <extensions>
          <ns3:TrackPointExtension>
            <ns3:atemp>29.0</ns3:atemp>
            <ns3:hr>116</ns3:hr>
          </ns3:TrackPointExtension>
        </extensions>
      </trkpt>
      <trkpt lat="36.7860582657158374786376953125" lon="-118.4135830588638782501220703125">
        <ele>3507.39990234375</ele>
        <time>2021-06-25T21:25:12.000Z</time>
        <extensions>
          <ns3:TrackPointExtension>
            <ns3:atemp>29.0</ns3:atemp>
            <ns3:hr>118</ns3:hr>
          </ns3:TrackPointExtension>
        </extensions>
      </trkpt>
      <trkpt lat="36.7860740236937999725341796875" lon="-118.41356621123850345611572265625">
        <ele>3507.39990234375</ele>
        <time>2021-06-25T21:25:14.000Z</time>
        <extensions>
          <ns3:TrackPointExtension>
            <ns3:atemp>29.0</ns3:atemp>
            <ns3:hr>119</ns3:hr>
          </ns3:TrackPointExtension>
        </extensions>
      </trkpt>
      <trkpt lat="36.78608818911015987396240234375" lon="-118.4134888462722301483154296875">
        <ele>3508</ele>
        <time>2021-06-25T21:25:20.000Z</time>
        <extensions>
          <ns3:TrackPointExtension>
            <ns3:atemp>29.0</ns3:atemp>
            <ns3:hr>119</ns3:hr>
          </ns3:TrackPointExtension>
        </extensions>
      </trkpt>
      <trkpt lat="36.78609900176525115966796875" lon="-118.4134110622107982635498046875">
        <ele>3508.39990234375</ele>
        <time>2021-06-25T21:25:26.000Z</time>
        <extensions>
          <ns3:TrackPointExtension>
            <ns3:atemp>29.0</ns3:atemp>
            <ns3:hr>118</ns3:hr>
          </ns3:TrackPointExtension>
        </extensions>
      </trkpt>
      <trkpt lat="36.78611065261065959930419921875" lon="-118.41336806304752826690673828125">
        <ele>3509</ele>
        <time>2021-06-25T21:25:31.000Z</time>
        <extensions>
          <ns3:TrackPointExtension>
            <ns3:atemp>29.0</ns3:atemp>
            <ns3:hr>118</ns3:hr>
          </ns3:TrackPointExtension>
        </extensions>
      </trkpt>
      <trkpt lat="36.786116771399974822998046875" lon="-118.41333503834903240203857421875">
        <ele>3509.800048828125</ele>
        <time>2021-06-25T21:25:35.000Z</time>
        <extensions>
          <ns3:TrackPointExtension>
            <ns3:atemp>29.0</ns3:atemp>
            <ns3:hr>118</ns3:hr>
          </ns3:TrackPointExtension>
        </extensions>
      </trkpt>
      <trkpt lat="36.7861206270754337310791015625" lon="-118.413294889032840728759765625">
        <ele>3510.60009765625</ele>
        <time>2021-06-25T21:25:40.000Z</time>
        <extensions>
          <ns3:TrackPointExtension>
            <ns3:atemp>29.0</ns3:atemp>
            <ns3:hr>118</ns3:hr>
          </ns3:TrackPointExtension>
        </extensions>
      </trkpt>
      <trkpt lat="36.78612221963703632354736328125" lon="-118.41328793205320835113525390625">
        <ele>3510.800048828125</ele>
        <time>2021-06-25T21:25:41.000Z</time>
        <extensions>
          <ns3:TrackPointExtension>
            <ns3:atemp>29.0</ns3:atemp>
            <ns3:hr>118</ns3:hr>
          </ns3:TrackPointExtension>
        </extensions>
      </trkpt>
      <trkpt lat="36.78613730706274509429931640625" lon="-118.41324032284319400787353515625">
        <ele>3511.60009765625</ele>
        <time>2021-06-25T21:25:48.000Z</time>
        <extensions>
          <ns3:TrackPointExtension>
            <ns3:atemp>29.0</ns3:atemp>
            <ns3:hr>117</ns3:hr>
          </ns3:TrackPointExtension>
        </extensions>
      </trkpt>
      <trkpt lat="36.78614987991750240325927734375" lon="-118.41323613189160823822021484375">
        <ele>3512</ele>
        <time>2021-06-25T21:25:51.000Z</time>
        <extensions>
          <ns3:TrackPointExtension>
            <ns3:atemp>29.0</ns3:atemp>
            <ns3:hr>117</ns3:hr>
          </ns3:TrackPointExtension>
        </extensions>
      </trkpt>
      <trkpt lat="36.78617401979863643646240234375" lon="-118.41324736364185810089111328125">
        <ele>3513.199951171875</ele>
        <time>2021-06-25T21:25:56.000Z</time>
        <extensions>
          <ns3:TrackPointExtension>
            <ns3:atemp>29.0</ns3:atemp>
            <ns3:hr>118</ns3:hr>
          </ns3:TrackPointExtension>
        </extensions>
      </trkpt>
      <trkpt lat="36.7861806415021419525146484375" lon="-118.413250632584095001220703125">
        <ele>3513.39990234375</ele>
        <time>2021-06-25T21:25:57.000Z</time>
        <extensions>
          <ns3:TrackPointExtension>
            <ns3:atemp>29.0</ns3:atemp>
            <ns3:hr>118</ns3:hr>
          </ns3:TrackPointExtension>
        </extensions>
      </trkpt>
      <trkpt lat="36.7861910350620746612548828125" lon="-118.4132202900946140289306640625">
        <ele>3513.800048828125</ele>
        <time>2021-06-25T21:26:02.000Z</time>
        <extensions>
          <ns3:TrackPointExtension>
            <ns3:atemp>29.0</ns3:atemp>
            <ns3:hr>119</ns3:hr>
          </ns3:TrackPointExtension>
        </extensions>
      </trkpt>
      <trkpt lat="36.7861628718674182891845703125" lon="-118.4131941385567188262939453125">
        <ele>3514.199951171875</ele>
        <time>2021-06-25T21:26:06.000Z</time>
        <extensions>
          <ns3:TrackPointExtension>
            <ns3:atemp>29.0</ns3:atemp>
            <ns3:hr>119</ns3:hr>
          </ns3:TrackPointExtension>
        </extensions>
      </trkpt>
      <trkpt lat="36.786166727542877197265625" lon="-118.4131716750562191009521484375">
        <ele>3514.39990234375</ele>
        <time>2021-06-25T21:26:09.000Z</time>
        <extensions>
          <ns3:TrackPointExtension>
            <ns3:atemp>29.0</ns3:atemp>
            <ns3:hr>118</ns3:hr>
          </ns3:TrackPointExtension>
        </extensions>
      </trkpt>
      <trkpt lat="36.7861776240170001983642578125" lon="-118.4131327830255031585693359375">
        <ele>3514.800048828125</ele>
        <time>2021-06-25T21:26:13.000Z</time>
        <extensions>
          <ns3:TrackPointExtension>
            <ns3:atemp>29.0</ns3:atemp>
            <ns3:hr>115</ns3:hr>
          </ns3:TrackPointExtension>
        </extensions>
      </trkpt>
      <trkpt lat="36.78619396872818470001220703125" lon="-118.41311258263885974884033203125">
        <ele>3515</ele>
        <time>2021-06-25T21:26:19.000Z</time>
        <extensions>
          <ns3:TrackPointExtension>
            <ns3:atemp>29.0</ns3:atemp>
            <ns3:hr>113</ns3:hr>
          </ns3:TrackPointExtension>
        </extensions>
      </trkpt>
      <trkpt lat="36.78619732148945331573486328125" lon="-118.41312062926590442657470703125">
        <ele>3515</ele>
        <time>2021-06-25T21:26:21.000Z</time>
        <extensions>
          <ns3:TrackPointExtension>
            <ns3:atemp>29.0</ns3:atemp>
            <ns3:hr>113</ns3:hr>
          </ns3:TrackPointExtension>
        </extensions>
      </trkpt>
      <trkpt lat="36.78616471588611602783203125" lon="-118.41312699951231479644775390625">
        <ele>3515.800048828125</ele>
        <time>2021-06-25T21:43:35.000Z</time>
        <extensions>
          <ns3:TrackPointExtension>
            <ns3:atemp>32.0</ns3:atemp>
            <ns3:hr>87</ns3:hr>
          </ns3:TrackPointExtension>
        </extensions>
      </trkpt>
      <trkpt lat="36.7861648835241794586181640625" lon="-118.4131237305700778961181640625">
        <ele>3515.800048828125</ele>
        <time>2021-06-25T21:43:36.000Z</time>
        <extensions>
          <ns3:TrackPointExtension>
            <ns3:atemp>32.0</ns3:atemp>
            <ns3:hr>88</ns3:hr>
          </ns3:TrackPointExtension>
        </extensions>
      </trkpt>
      <trkpt lat="36.786166727542877197265625" lon="-118.41311476193368434906005859375">
        <ele>3514.800048828125</ele>
        <time>2021-06-25T21:43:50.000Z</time>
        <extensions>
          <ns3:TrackPointExtension>
            <ns3:atemp>32.0</ns3:atemp>
            <ns3:hr>88</ns3:hr>
          </ns3:TrackPointExtension>
        </extensions>
      </trkpt>
      <trkpt lat="36.7861734330654144287109375" lon="-118.413178212940692901611328125">
        <ele>3513.800048828125</ele>
        <time>2021-06-25T21:44:02.000Z</time>
        <extensions>
          <ns3:TrackPointExtension>
            <ns3:atemp>32.0</ns3:atemp>
            <ns3:hr>88</ns3:hr>
          </ns3:TrackPointExtension>
        </extensions>
      </trkpt>
      <trkpt lat="36.786181144416332244873046875" lon="-118.4132236428558826446533203125">
        <ele>3513.800048828125</ele>
        <time>2021-06-25T21:44:04.000Z</time>
        <extensions>
          <ns3:TrackPointExtension>
            <ns3:atemp>32.0</ns3:atemp>
            <ns3:hr>87</ns3:hr>
          </ns3:TrackPointExtension>
        </extensions>
      </trkpt>
      <trkpt lat="36.786238141357898712158203125" lon="-118.41331458650529384613037109375">
        <ele>3514.60009765625</ele>
        <time>2021-06-25T21:44:11.000Z</time>
        <extensions>
          <ns3:TrackPointExtension>
            <ns3:atemp>32.0</ns3:atemp>
            <ns3:hr>90</ns3:hr>
          </ns3:TrackPointExtension>
        </extensions>
      </trkpt>
      <trkpt lat="36.78624493069946765899658203125" lon="-118.41331894509494304656982421875">
        <ele>3515.199951171875</ele>
        <time>2021-06-25T21:44:12.000Z</time>
        <extensions>
          <ns3:TrackPointExtension>
            <ns3:atemp>32.0</ns3:atemp>
            <ns3:hr>91</ns3:hr>
          </ns3:TrackPointExtension>
        </extensions>
      </trkpt>
      <trkpt lat="36.7862647958099842071533203125" lon="-118.41334325261414051055908203125">
        <ele>3516.199951171875</ele>
        <time>2021-06-25T21:44:15.000Z</time>
        <extensions>
          <ns3:TrackPointExtension>
            <ns3:atemp>32.0</ns3:atemp>
            <ns3:hr>94</ns3:hr>
          </ns3:TrackPointExtension>
        </extensions>
      </trkpt>
      <trkpt lat="36.7862704955041408538818359375" lon="-118.41334811411798000335693359375">
        <ele>3516.39990234375</ele>
        <time>2021-06-25T21:44:16.000Z</time>
        <extensions>
          <ns3:TrackPointExtension>
            <ns3:atemp>32.0</ns3:atemp>
            <ns3:hr>96</ns3:hr>
          </ns3:TrackPointExtension>
        </extensions>
      </trkpt>
      <trkpt lat="36.78628147579729557037353515625" lon="-118.4133624471724033355712890625">
        <ele>3516.39990234375</ele>
        <time>2021-06-25T21:44:18.000Z</time>
        <extensions>
          <ns3:TrackPointExtension>
            <ns3:atemp>32.0</ns3:atemp>
            <ns3:hr>99</ns3:hr>
          </ns3:TrackPointExtension>
        </extensions>
      </trkpt>
      <trkpt lat="36.7862889356911182403564453125" lon="-118.41339672915637493133544921875">
        <ele>3516.800048828125</ele>
        <time>2021-06-25T21:44:21.000Z</time>
        <extensions>
          <ns3:TrackPointExtension>
            <ns3:atemp>32.0</ns3:atemp>
            <ns3:hr>102</ns3:hr>
          </ns3:TrackPointExtension>
        </extensions>
      </trkpt>
      <trkpt lat="36.78629270754754543304443359375" lon="-118.4134067036211490631103515625">
        <ele>3516.800048828125</ele>
        <time>2021-06-25T21:44:22.000Z</time>
        <extensions>
          <ns3:TrackPointExtension>
            <ns3:atemp>32.0</ns3:atemp>
            <ns3:hr>104</ns3:hr>
          </ns3:TrackPointExtension>
        </extensions>
      </trkpt>
      <trkpt lat="36.7863097228109836578369140625" lon="-118.4134335257112979888916015625">
        <ele>3517.199951171875</ele>
        <time>2021-06-25T21:44:25.000Z</time>
        <extensions>
          <ns3:TrackPointExtension>
            <ns3:atemp>32.0</ns3:atemp>
            <ns3:hr>107</ns3:hr>
          </ns3:TrackPointExtension>
        </extensions>
      </trkpt>
      <trkpt lat="36.786329336464405059814453125" lon="-118.413456492125988006591796875">
        <ele>3517</ele>
        <time>2021-06-25T21:44:28.000Z</time>
        <extensions>
          <ns3:TrackPointExtension>
            <ns3:atemp>32.0</ns3:atemp>
            <ns3:hr>107</ns3:hr>
          </ns3:TrackPointExtension>
        </extensions>
      </trkpt>
      <trkpt lat="36.78636764176189899444580078125" lon="-118.4134807996451854705810546875">
        <ele>3517.39990234375</ele>
        <time>2021-06-25T21:44:32.000Z</time>
        <extensions>
          <ns3:TrackPointExtension>
            <ns3:atemp>32.0</ns3:atemp>
            <ns3:hr>108</ns3:hr>
          </ns3:TrackPointExtension>
        </extensions>
      </trkpt>
      <trkpt lat="36.786378286778926849365234375" lon="-118.41349094174802303314208984375">
        <ele>3517.39990234375</ele>
        <time>2021-06-25T21:44:33.000Z</time>
        <extensions>
          <ns3:TrackPointExtension>
            <ns3:atemp>32.0</ns3:atemp>
            <ns3:hr>108</ns3:hr>
          </ns3:TrackPointExtension>
        </extensions>
      </trkpt>
      <trkpt lat="36.7864094674587249755859375" lon="-118.41351508162915706634521484375">
        <ele>3517.60009765625</ele>
        <time>2021-06-25T21:44:38.000Z</time>
        <extensions>
          <ns3:TrackPointExtension>
            <ns3:atemp>32.0</ns3:atemp>
            <ns3:hr>111</ns3:hr>
          </ns3:TrackPointExtension>
        </extensions>
      </trkpt>
      <trkpt lat="36.78640879690647125244140625" lon="-118.41353184543550014495849609375">
        <ele>3518</ele>
        <time>2021-06-25T21:44:41.000Z</time>
        <extensions>
          <ns3:TrackPointExtension>
            <ns3:atemp>32.0</ns3:atemp>
            <ns3:hr>114</ns3:hr>
          </ns3:TrackPointExtension>
        </extensions>
      </trkpt>
      <trkpt lat="36.78640753962099552154541015625" lon="-118.4135455079376697540283203125">
        <ele>3518.199951171875</ele>
        <time>2021-06-25T21:44:43.000Z</time>
        <extensions>
          <ns3:TrackPointExtension>
            <ns3:atemp>32.0</ns3:atemp>
            <ns3:hr>114</ns3:hr>
          </ns3:TrackPointExtension>
        </extensions>
      </trkpt>
      <trkpt lat="36.786411143839359283447265625" lon="-118.41355246491730213165283203125">
        <ele>3518.199951171875</ele>
        <time>2021-06-25T21:44:44.000Z</time>
        <extensions>
          <ns3:TrackPointExtension>
            <ns3:atemp>32.0</ns3:atemp>
            <ns3:hr>111</ns3:hr>
          </ns3:TrackPointExtension>
        </extensions>
      </trkpt>
      <trkpt lat="36.7864156700670719146728515625" lon="-118.41355883516371250152587890625">
        <ele>3518.60009765625</ele>
        <time>2021-06-25T21:44:45.000Z</time>
        <extensions>
          <ns3:TrackPointExtension>
            <ns3:atemp>32.0</ns3:atemp>
            <ns3:hr>114</ns3:hr>
          </ns3:TrackPointExtension>
        </extensions>
      </trkpt>
      <trkpt lat="36.78644123487174510955810546875" lon="-118.41359755955636501312255859375">
        <ele>3519.800048828125</ele>
        <time>2021-06-25T21:44:50.000Z</time>
        <extensions>
          <ns3:TrackPointExtension>
            <ns3:atemp>32.0</ns3:atemp>
            <ns3:hr>113</ns3:hr>
          </ns3:TrackPointExtension>
        </extensions>
      </trkpt>
      <trkpt lat="36.786450035870075225830078125" lon="-118.4136175923049449920654296875">
        <ele>3520</ele>
        <time>2021-06-25T21:44:53.000Z</time>
        <extensions>
          <ns3:TrackPointExtension>
            <ns3:atemp>32.0</ns3:atemp>
            <ns3:hr>113</ns3:hr>
          </ns3:TrackPointExtension>
        </extensions>
      </trkpt>
      <trkpt lat="36.78644835948944091796875" lon="-118.41363963671028614044189453125">
        <ele>3520.39990234375</ele>
        <time>2021-06-25T21:44:57.000Z</time>
        <extensions>
          <ns3:TrackPointExtension>
            <ns3:atemp>32.0</ns3:atemp>
            <ns3:hr>116</ns3:hr>
          </ns3:TrackPointExtension>
        </extensions>
      </trkpt>
      <trkpt lat="36.7864451743662357330322265625" lon="-118.41366930864751338958740234375">
        <ele>3521</ele>
        <time>2021-06-25T21:45:01.000Z</time>
        <extensions>
          <ns3:TrackPointExtension>
            <ns3:atemp>32.0</ns3:atemp>
            <ns3:hr>118</ns3:hr>
          </ns3:TrackPointExtension>
        </extensions>
      </trkpt>
      <trkpt lat="36.786444671452045440673828125" lon="-118.41369613073766231536865234375">
        <ele>3521.39990234375</ele>
        <time>2021-06-25T21:45:04.000Z</time>
        <extensions>
          <ns3:TrackPointExtension>
            <ns3:atemp>32.0</ns3:atemp>
            <ns3:hr>115</ns3:hr>
          </ns3:TrackPointExtension>
        </extensions>
      </trkpt>
      <trkpt lat="36.786444000899791717529296875" lon="-118.4137037582695484161376953125">
        <ele>3521.39990234375</ele>
        <time>2021-06-25T21:45:05.000Z</time>
        <extensions>
          <ns3:TrackPointExtension>
            <ns3:atemp>32.0</ns3:atemp>
            <ns3:hr>118</ns3:hr>
          </ns3:TrackPointExtension>
        </extensions>
      </trkpt>
      <trkpt lat="36.78644710220396518707275390625" lon="-118.4137148223817348480224609375">
        <ele>3521.39990234375</ele>
        <time>2021-06-25T21:45:06.000Z</time>
        <extensions>
          <ns3:TrackPointExtension>
            <ns3:atemp>32.0</ns3:atemp>
            <ns3:hr>121</ns3:hr>
          </ns3:TrackPointExtension>
        </extensions>
      </trkpt>
      <trkpt lat="36.78644928149878978729248046875" lon="-118.4137218631803989410400390625">
        <ele>3522</ele>
        <time>2021-06-25T21:45:07.000Z</time>
        <extensions>
          <ns3:TrackPointExtension>
            <ns3:atemp>32.0</ns3:atemp>
            <ns3:hr>122</ns3:hr>
          </ns3:TrackPointExtension>
        </extensions>
      </trkpt>
      <trkpt lat="36.786448694765567779541015625" lon="-118.4137641079723834991455078125">
        <ele>3522.60009765625</ele>
        <time>2021-06-25T21:45:12.000Z</time>
        <extensions>
          <ns3:TrackPointExtension>
            <ns3:atemp>32.0</ns3:atemp>
            <ns3:hr>125</ns3:hr>
          </ns3:TrackPointExtension>
        </extensions>
      </trkpt>
      <trkpt lat="36.78646336309611797332763671875" lon="-118.413780033588409423828125">
        <ele>3522.800048828125</ele>
        <time>2021-06-25T21:45:14.000Z</time>
        <extensions>
          <ns3:TrackPointExtension>
            <ns3:atemp>32.0</ns3:atemp>
            <ns3:hr>126</ns3:hr>
          </ns3:TrackPointExtension>
        </extensions>
      </trkpt>
      <trkpt lat="36.7864750139415264129638671875" lon="-118.4138026647269725799560546875">
        <ele>3523.199951171875</ele>
        <time>2021-06-25T21:45:17.000Z</time>
        <extensions>
          <ns3:TrackPointExtension>
            <ns3:atemp>32.0</ns3:atemp>
            <ns3:hr>128</ns3:hr>
          </ns3:TrackPointExtension>
        </extensions>
      </trkpt>
      <trkpt lat="36.78648146800696849822998046875" lon="-118.413836024701595306396484375">
        <ele>3523.800048828125</ele>
        <time>2021-06-25T21:45:22.000Z</time>
        <extensions>
          <ns3:TrackPointExtension>
            <ns3:atemp>32.0</ns3:atemp>
            <ns3:hr>128</ns3:hr>
          </ns3:TrackPointExtension>
        </extensions>
      </trkpt>
      <trkpt lat="36.78648951463401317596435546875" lon="-118.41386879794299602508544921875">
        <ele>3524.60009765625</ele>
        <time>2021-06-25T21:45:27.000Z</time>
        <extensions>
          <ns3:TrackPointExtension>
            <ns3:atemp>32.0</ns3:atemp>
            <ns3:hr>130</ns3:hr>
          </ns3:TrackPointExtension>
        </extensions>
      </trkpt>
      <trkpt lat="36.78647987544536590576171875" lon="-118.41389469802379608154296875">
        <ele>3525</ele>
        <time>2021-06-25T21:45:32.000Z</time>
        <extensions>
          <ns3:TrackPointExtension>
            <ns3:atemp>32.0</ns3:atemp>
            <ns3:hr>131</ns3:hr>
          </ns3:TrackPointExtension>
        </extensions>
      </trkpt>
      <trkpt lat="36.7864793725311756134033203125" lon="-118.41391137801110744476318359375">
        <ele>3525.39990234375</ele>
        <time>2021-06-25T21:45:35.000Z</time>
        <extensions>
          <ns3:TrackPointExtension>
            <ns3:atemp>32.0</ns3:atemp>
            <ns3:hr>128</ns3:hr>
          </ns3:TrackPointExtension>
        </extensions>
      </trkpt>
      <trkpt lat="36.7864790372550487518310546875" lon="-118.4139166586101055145263671875">
        <ele>3525.800048828125</ele>
        <time>2021-06-25T21:45:36.000Z</time>
        <extensions>
          <ns3:TrackPointExtension>
            <ns3:atemp>32.0</ns3:atemp>
            <ns3:hr>127</ns3:hr>
          </ns3:TrackPointExtension>
        </extensions>
      </trkpt>
      <trkpt lat="36.7865060269832611083984375" lon="-118.41393761336803436279296875">
        <ele>3526.39990234375</ele>
        <time>2021-06-25T21:45:41.000Z</time>
        <extensions>
          <ns3:TrackPointExtension>
            <ns3:atemp>32.0</ns3:atemp>
            <ns3:hr>128</ns3:hr>
          </ns3:TrackPointExtension>
        </extensions>
      </trkpt>
      <trkpt lat="36.78652471862733364105224609375" lon="-118.4139503538608551025390625">
        <ele>3527.39990234375</ele>
        <time>2021-06-25T21:45:44.000Z</time>
        <extensions>
          <ns3:TrackPointExtension>
            <ns3:atemp>32.0</ns3:atemp>
            <ns3:hr>128</ns3:hr>
          </ns3:TrackPointExtension>
        </extensions>
      </trkpt>
      <trkpt lat="36.78656310774385929107666015625" lon="-118.41394700109958648681640625">
        <ele>3528.39990234375</ele>
        <time>2021-06-25T21:45:50.000Z</time>
        <extensions>
          <ns3:TrackPointExtension>
            <ns3:atemp>32.0</ns3:atemp>
            <ns3:hr>127</ns3:hr>
          </ns3:TrackPointExtension>
        </extensions>
      </trkpt>
      <trkpt lat="36.78657433949410915374755859375" lon="-118.41394859366118907928466796875">
        <ele>3528.800048828125</ele>
        <time>2021-06-25T21:45:53.000Z</time>
        <extensions>
          <ns3:TrackPointExtension>
            <ns3:atemp>32.0</ns3:atemp>
            <ns3:hr>128</ns3:hr>
          </ns3:TrackPointExtension>
        </extensions>
      </trkpt>
      <trkpt lat="36.78657333366572856903076171875" lon="-118.4139428101480007171630859375">
        <ele>3529.60009765625</ele>
        <time>2021-06-25T21:45:54.000Z</time>
        <extensions>
          <ns3:TrackPointExtension>
            <ns3:atemp>32.0</ns3:atemp>
            <ns3:hr>128</ns3:hr>
          </ns3:TrackPointExtension>
        </extensions>
      </trkpt>
      <trkpt lat="36.78658858872950077056884765625" lon="-118.41392814181745052337646484375">
        <ele>3530.39990234375</ele>
        <time>2021-06-25T21:45:58.000Z</time>
        <extensions>
          <ns3:TrackPointExtension>
            <ns3:atemp>32.0</ns3:atemp>
            <ns3:hr>127</ns3:hr>
          </ns3:TrackPointExtension>
        </extensions>
      </trkpt>
      <trkpt lat="36.78660199977457523345947265625" lon="-118.41393417678773403167724609375">
        <ele>3530.60009765625</ele>
        <time>2021-06-25T21:46:00.000Z</time>
        <extensions>
          <ns3:TrackPointExtension>
            <ns3:atemp>32.0</ns3:atemp>
            <ns3:hr>126</ns3:hr>
          </ns3:TrackPointExtension>
        </extensions>
      </trkpt>
      <trkpt lat="36.78663569502532482147216796875" lon="-118.413937278091907501220703125">
        <ele>3531.60009765625</ele>
        <time>2021-06-25T21:46:05.000Z</time>
        <extensions>
          <ns3:TrackPointExtension>
            <ns3:atemp>32.0</ns3:atemp>
            <ns3:hr>126</ns3:hr>
          </ns3:TrackPointExtension>
        </extensions>
      </trkpt>
      <trkpt lat="36.78666385821998119354248046875" lon="-118.4139562211930751800537109375">
        <ele>3532</ele>
        <time>2021-06-25T21:46:10.000Z</time>
        <extensions>
          <ns3:TrackPointExtension>
            <ns3:atemp>32.0</ns3:atemp>
            <ns3:hr>127</ns3:hr>
          </ns3:TrackPointExtension>
        </extensions>
      </trkpt>
      <trkpt lat="36.78669638000428676605224609375" lon="-118.41398195363581180572509765625">
        <ele>3532.39990234375</ele>
        <time>2021-06-25T21:46:15.000Z</time>
        <extensions>
          <ns3:TrackPointExtension>
            <ns3:atemp>32.0</ns3:atemp>
            <ns3:hr>130</ns3:hr>
          </ns3:TrackPointExtension>
        </extensions>
      </trkpt>
      <trkpt lat="36.7867030017077922821044921875" lon="-118.41398455202579498291015625">
        <ele>3532.800048828125</ele>
        <time>2021-06-25T21:46:16.000Z</time>
        <extensions>
          <ns3:TrackPointExtension>
            <ns3:atemp>32.0</ns3:atemp>
            <ns3:hr>131</ns3:hr>
          </ns3:TrackPointExtension>
        </extensions>
      </trkpt>
      <trkpt lat="36.7867340147495269775390625" lon="-118.41399586759507656097412109375">
        <ele>3533.199951171875</ele>
        <time>2021-06-25T21:46:20.000Z</time>
        <extensions>
          <ns3:TrackPointExtension>
            <ns3:atemp>32.0</ns3:atemp>
            <ns3:hr>133</ns3:hr>
          </ns3:TrackPointExtension>
        </extensions>
      </trkpt>
      <trkpt lat="36.78674600087106227874755859375" lon="-118.41400559060275554656982421875">
        <ele>3533.199951171875</ele>
        <time>2021-06-25T21:46:22.000Z</time>
        <extensions>
          <ns3:TrackPointExtension>
            <ns3:atemp>32.0</ns3:atemp>
            <ns3:hr>133</ns3:hr>
          </ns3:TrackPointExtension>
        </extensions>
      </trkpt>
      <trkpt lat="36.7867760919034481048583984375" lon="-118.41402570717036724090576171875">
        <ele>3533.60009765625</ele>
        <time>2021-06-25T21:46:26.000Z</time>
        <extensions>
          <ns3:TrackPointExtension>
            <ns3:atemp>31.0</ns3:atemp>
            <ns3:hr>130</ns3:hr>
          </ns3:TrackPointExtension>
        </extensions>
      </trkpt>
      <trkpt lat="36.78678992204368114471435546875" lon="-118.4140335023403167724609375">
        <ele>3533.800048828125</ele>
        <time>2021-06-25T21:46:28.000Z</time>
        <extensions>
          <ns3:TrackPointExtension>
            <ns3:atemp>31.0</ns3:atemp>
            <ns3:hr>132</ns3:hr>
          </ns3:TrackPointExtension>
        </extensions>
      </trkpt>
      <trkpt lat="36.78680215962231159210205078125" lon="-118.41404465027153491973876953125">
        <ele>3533.800048828125</ele>
        <time>2021-06-25T21:46:30.000Z</time>
        <extensions>
          <ns3:TrackPointExtension>
            <ns3:atemp>31.0</ns3:atemp>
            <ns3:hr>131</ns3:hr>
          </ns3:TrackPointExtension>
        </extensions>
      </trkpt>
      <trkpt lat="36.786831580102443695068359375" lon="-118.41408588923513889312744140625">
        <ele>3534.199951171875</ele>
        <time>2021-06-25T21:46:36.000Z</time>
        <extensions>
          <ns3:TrackPointExtension>
            <ns3:atemp>31.0</ns3:atemp>
            <ns3:hr>128</ns3:hr>
          </ns3:TrackPointExtension>
        </extensions>
      </trkpt>
      <trkpt lat="36.78685362450778484344482421875" lon="-118.414116986095905303955078125">
        <ele>3535</ele>
        <time>2021-06-25T21:46:41.000Z</time>
        <extensions>
          <ns3:TrackPointExtension>
            <ns3:atemp>31.0</ns3:atemp>
            <ns3:hr>124</ns3:hr>
          </ns3:TrackPointExtension>
        </extensions>
      </trkpt>
      <trkpt lat="36.7868649400770664215087890625" lon="-118.41413676738739013671875">
        <ele>3535.39990234375</ele>
        <time>2021-06-25T21:46:44.000Z</time>
        <extensions>
          <ns3:TrackPointExtension>
            <ns3:atemp>31.0</ns3:atemp>
            <ns3:hr>128</ns3:hr>
          </ns3:TrackPointExtension>
        </extensions>
      </trkpt>
      <trkpt lat="36.7868998087942600250244140625" lon="-118.4141734801232814788818359375">
        <ele>3536</ele>
        <time>2021-06-25T21:46:50.000Z</time>
        <extensions>
          <ns3:TrackPointExtension>
            <ns3:atemp>31.0</ns3:atemp>
            <ns3:hr>126</ns3:hr>
          </ns3:TrackPointExtension>
        </extensions>
      </trkpt>
      <trkpt lat="36.786907352507114410400390625" lon="-118.41417708434164524078369140625">
        <ele>3536.199951171875</ele>
        <time>2021-06-25T21:46:51.000Z</time>
        <extensions>
          <ns3:TrackPointExtension>
            <ns3:atemp>31.0</ns3:atemp>
            <ns3:hr>126</ns3:hr>
          </ns3:TrackPointExtension>
        </extensions>
      </trkpt>
      <trkpt lat="36.7869376949965953826904296875" lon="-118.41419368050992488861083984375">
        <ele>3536.60009765625</ele>
        <time>2021-06-25T21:46:56.000Z</time>
        <extensions>
          <ns3:TrackPointExtension>
            <ns3:atemp>31.0</ns3:atemp>
            <ns3:hr>123</ns3:hr>
          </ns3:TrackPointExtension>
        </extensions>
      </trkpt>
      <trkpt lat="36.78698253817856311798095703125" lon="-118.41421924531459808349609375">
        <ele>3537</ele>
        <time>2021-06-25T21:47:02.000Z</time>
        <extensions>
          <ns3:TrackPointExtension>
            <ns3:atemp>31.0</ns3:atemp>
            <ns3:hr>121</ns3:hr>
          </ns3:TrackPointExtension>
        </extensions>
      </trkpt>
      <trkpt lat="36.78699016571044921875" lon="-118.41422268189489841461181640625">
        <ele>3537.199951171875</ele>
        <time>2021-06-25T21:47:03.000Z</time>
        <extensions>
          <ns3:TrackPointExtension>
            <ns3:atemp>31.0</ns3:atemp>
            <ns3:hr>121</ns3:hr>
          </ns3:TrackPointExtension>
        </extensions>
      </trkpt>
      <trkpt lat="36.78703903220593929290771484375" lon="-118.41423927806317806243896484375">
        <ele>3538.199951171875</ele>
        <time>2021-06-25T21:47:10.000Z</time>
        <extensions>
          <ns3:TrackPointExtension>
            <ns3:atemp>31.0</ns3:atemp>
            <ns3:hr>122</ns3:hr>
          </ns3:TrackPointExtension>
        </extensions>
      </trkpt>
      <trkpt lat="36.78706216625869274139404296875" lon="-118.4142475761473178863525390625">
        <ele>3538.199951171875</ele>
        <time>2021-06-25T21:47:13.000Z</time>
        <extensions>
          <ns3:TrackPointExtension>
            <ns3:atemp>31.0</ns3:atemp>
            <ns3:hr>123</ns3:hr>
          </ns3:TrackPointExtension>
        </extensions>
      </trkpt>
      <trkpt lat="36.78711748681962490081787109375" lon="-118.414261154830455780029296875">
        <ele>3538.60009765625</ele>
        <time>2021-06-25T21:47:21.000Z</time>
        <extensions>
          <ns3:TrackPointExtension>
            <ns3:atemp>31.0</ns3:atemp>
            <ns3:hr>125</ns3:hr>
          </ns3:TrackPointExtension>
        </extensions>
      </trkpt>
      <trkpt lat="36.78716258145868778228759765625" lon="-118.4142539463937282562255859375">
        <ele>3539.39990234375</ele>
        <time>2021-06-25T21:47:28.000Z</time>
        <extensions>
          <ns3:TrackPointExtension>
            <ns3:atemp>31.0</ns3:atemp>
            <ns3:hr>125</ns3:hr>
          </ns3:TrackPointExtension>
        </extensions>
      </trkpt>
      <trkpt lat="36.7871792614459991455078125" lon="-118.41424061916768550872802734375">
        <ele>3539.39990234375</ele>
        <time>2021-06-25T21:47:30.000Z</time>
        <extensions>
          <ns3:TrackPointExtension>
            <ns3:atemp>31.0</ns3:atemp>
            <ns3:hr>123</ns3:hr>
          </ns3:TrackPointExtension>
        </extensions>
      </trkpt>
      <trkpt lat="36.7871935106813907623291015625" lon="-118.41422854922711849212646484375">
        <ele>3539.39990234375</ele>
        <time>2021-06-25T21:47:32.000Z</time>
        <extensions>
          <ns3:TrackPointExtension>
            <ns3:atemp>31.0</ns3:atemp>
            <ns3:hr>123</ns3:hr>
          </ns3:TrackPointExtension>
        </extensions>
      </trkpt>
      <trkpt lat="36.78721270523965358734130859375" lon="-118.4141922555863857269287109375">
        <ele>3538.60009765625</ele>
        <time>2021-06-25T21:47:39.000Z</time>
        <extensions>
          <ns3:TrackPointExtension>
            <ns3:atemp>31.0</ns3:atemp>
            <ns3:hr>123</ns3:hr>
          </ns3:TrackPointExtension>
        </extensions>
      </trkpt>
      <trkpt lat="36.78720901720225811004638671875" lon="-118.414182364940643310546875">
        <ele>3538.800048828125</ele>
        <time>2021-06-25T21:47:47.000Z</time>
        <extensions>
          <ns3:TrackPointExtension>
            <ns3:atemp>31.0</ns3:atemp>
            <ns3:hr>122</ns3:hr>
          </ns3:TrackPointExtension>
        </extensions>
      </trkpt>
      <trkpt lat="36.78720901720225811004638671875" lon="-118.414182364940643310546875">
        <ele>3539</ele>
        <time>2021-06-25T21:47:57.000Z</time>
        <extensions>
          <ns3:TrackPointExtension>
            <ns3:atemp>31.0</ns3:atemp>
            <ns3:hr>119</ns3:hr>
          </ns3:TrackPointExtension>
        </extensions>
      </trkpt>
      <trkpt lat="36.78720901720225811004638671875" lon="-118.41418479569256305694580078125">
        <ele>3539.199951171875</ele>
        <time>2021-06-25T21:48:03.000Z</time>
        <extensions>
          <ns3:TrackPointExtension>
            <ns3:atemp>31.0</ns3:atemp>
            <ns3:hr>116</ns3:hr>
          </ns3:TrackPointExtension>
        </extensions>
      </trkpt>
      <trkpt lat="36.7872451432049274444580078125" lon="-118.4141577221453189849853515625">
        <ele>3539.199951171875</ele>
        <time>2021-06-25T21:48:08.000Z</time>
        <extensions>
          <ns3:TrackPointExtension>
            <ns3:atemp>31.0</ns3:atemp>
            <ns3:hr>115</ns3:hr>
          </ns3:TrackPointExtension>
        </extensions>
      </trkpt>
      <trkpt lat="36.78725796751677989959716796875" lon="-118.41415495611727237701416015625">
        <ele>3539</ele>
        <time>2021-06-25T21:48:09.000Z</time>
        <extensions>
          <ns3:TrackPointExtension>
            <ns3:atemp>31.0</ns3:atemp>
            <ns3:hr>115</ns3:hr>
          </ns3:TrackPointExtension>
        </extensions>
      </trkpt>
      <trkpt lat="36.78728495724499225616455078125" lon="-118.4141560457646846771240234375">
        <ele>3538.60009765625</ele>
        <time>2021-06-25T21:48:11.000Z</time>
        <extensions>
          <ns3:TrackPointExtension>
            <ns3:atemp>30.0</ns3:atemp>
            <ns3:hr>112</ns3:hr>
          </ns3:TrackPointExtension>
        </extensions>
      </trkpt>
      <trkpt lat="36.7873460613191127777099609375" lon="-118.414153866469860076904296875">
        <ele>3538.800048828125</ele>
        <time>2021-06-25T21:48:16.000Z</time>
        <extensions>
          <ns3:TrackPointExtension>
            <ns3:atemp>30.0</ns3:atemp>
            <ns3:hr>111</ns3:hr>
          </ns3:TrackPointExtension>
        </extensions>
      </trkpt>
      <trkpt lat="36.78736609406769275665283203125" lon="-118.41415763832628726959228515625">
        <ele>3539.199951171875</ele>
        <time>2021-06-25T21:48:18.000Z</time>
        <extensions>
          <ns3:TrackPointExtension>
            <ns3:atemp>30.0</ns3:atemp>
            <ns3:hr>110</ns3:hr>
          </ns3:TrackPointExtension>
        </extensions>
      </trkpt>
      <trkpt lat="36.78743247874081134796142578125" lon="-118.41416099108755588531494140625">
        <ele>3540.800048828125</ele>
        <time>2021-06-25T21:48:26.000Z</time>
        <extensions>
          <ns3:TrackPointExtension>
            <ns3:atemp>30.0</ns3:atemp>
            <ns3:hr>109</ns3:hr>
          </ns3:TrackPointExtension>
        </extensions>
      </trkpt>
      <trkpt lat="36.78746148012578487396240234375" lon="-118.4141557104885578155517578125">
        <ele>3541.60009765625</ele>
        <time>2021-06-25T21:48:30.000Z</time>
        <extensions>
          <ns3:TrackPointExtension>
            <ns3:atemp>30.0</ns3:atemp>
            <ns3:hr>112</ns3:hr>
          </ns3:TrackPointExtension>
        </extensions>
      </trkpt>
      <trkpt lat="36.78747304715216159820556640625" lon="-118.41415294446051120758056640625">
        <ele>3541.800048828125</ele>
        <time>2021-06-25T21:48:32.000Z</time>
        <extensions>
          <ns3:TrackPointExtension>
            <ns3:atemp>30.0</ns3:atemp>
            <ns3:hr>111</ns3:hr>
          </ns3:TrackPointExtension>
        </extensions>
      </trkpt>
      <trkpt lat="36.78753172047436237335205078125" lon="-118.4141319058835506439208984375">
        <ele>3542.39990234375</ele>
        <time>2021-06-25T21:48:39.000Z</time>
        <extensions>
          <ns3:TrackPointExtension>
            <ns3:atemp>30.0</ns3:atemp>
            <ns3:hr>114</ns3:hr>
          </ns3:TrackPointExtension>
        </extensions>
      </trkpt>
      <trkpt lat="36.7875386774539947509765625" lon="-118.41412662528455257415771484375">
        <ele>3542.39990234375</ele>
        <time>2021-06-25T21:48:40.000Z</time>
        <extensions>
          <ns3:TrackPointExtension>
            <ns3:atemp>30.0</ns3:atemp>
            <ns3:hr>114</ns3:hr>
          </ns3:TrackPointExtension>
        </extensions>
      </trkpt>
      <trkpt lat="36.7875623144209384918212890625" lon="-118.414108268916606903076171875">
        <ele>3542.199951171875</ele>
        <time>2021-06-25T21:48:43.000Z</time>
        <extensions>
          <ns3:TrackPointExtension>
            <ns3:atemp>30.0</ns3:atemp>
            <ns3:hr>115</ns3:hr>
          </ns3:TrackPointExtension>
        </extensions>
      </trkpt>
      <trkpt lat="36.78758989088237285614013671875" lon="-118.41409896500408649444580078125">
        <ele>3541.60009765625</ele>
        <time>2021-06-25T21:48:47.000Z</time>
        <extensions>
          <ns3:TrackPointExtension>
            <ns3:atemp>30.0</ns3:atemp>
            <ns3:hr>112</ns3:hr>
          </ns3:TrackPointExtension>
        </extensions>
      </trkpt>
      <trkpt lat="36.7876186408102512359619140625" lon="-118.41410349123179912567138671875">
        <ele>3541.39990234375</ele>
        <time>2021-06-25T21:48:50.000Z</time>
        <extensions>
          <ns3:TrackPointExtension>
            <ns3:atemp>30.0</ns3:atemp>
            <ns3:hr>112</ns3:hr>
          </ns3:TrackPointExtension>
        </extensions>
      </trkpt>
      <trkpt lat="36.7877095006406307220458984375" lon="-118.4141166508197784423828125">
        <ele>3541.800048828125</ele>
        <time>2021-06-25T21:49:00.000Z</time>
        <extensions>
          <ns3:TrackPointExtension>
            <ns3:atemp>30.0</ns3:atemp>
            <ns3:hr>110</ns3:hr>
          </ns3:TrackPointExtension>
        </extensions>
      </trkpt>
      <trkpt lat="36.7877264320850372314453125" lon="-118.4141094423830509185791015625">
        <ele>3542.39990234375</ele>
        <time>2021-06-25T21:49:03.000Z</time>
        <extensions>
          <ns3:TrackPointExtension>
            <ns3:atemp>30.0</ns3:atemp>
            <ns3:hr>107</ns3:hr>
          </ns3:TrackPointExtension>
        </extensions>
      </trkpt>
      <trkpt lat="36.787733472883701324462890625" lon="-118.41411153785884380340576171875">
        <ele>3542.60009765625</ele>
        <time>2021-06-25T21:49:04.000Z</time>
        <extensions>
          <ns3:TrackPointExtension>
            <ns3:atemp>30.0</ns3:atemp>
            <ns3:hr>110</ns3:hr>
          </ns3:TrackPointExtension>
        </extensions>
      </trkpt>
      <trkpt lat="36.78774663247168064117431640625" lon="-118.4141104482114315032958984375">
        <ele>3542.800048828125</ele>
        <time>2021-06-25T21:49:06.000Z</time>
        <extensions>
          <ns3:TrackPointExtension>
            <ns3:atemp>30.0</ns3:atemp>
            <ns3:hr>110</ns3:hr>
          </ns3:TrackPointExtension>
        </extensions>
      </trkpt>
      <trkpt lat="36.7877586185932159423828125" lon="-118.41410717926919460296630859375">
        <ele>3543.199951171875</ele>
        <time>2021-06-25T21:49:08.000Z</time>
        <extensions>
          <ns3:TrackPointExtension>
            <ns3:atemp>30.0</ns3:atemp>
            <ns3:hr>109</ns3:hr>
          </ns3:TrackPointExtension>
        </extensions>
      </trkpt>
      <trkpt lat="36.7877735383808612823486328125" lon="-118.4140648506581783294677734375">
        <ele>3544</ele>
        <time>2021-06-25T21:49:13.000Z</time>
        <extensions>
          <ns3:TrackPointExtension>
            <ns3:atemp>30.0</ns3:atemp>
            <ns3:hr>110</ns3:hr>
          </ns3:TrackPointExtension>
        </extensions>
      </trkpt>
      <trkpt lat="36.78777865134179592132568359375" lon="-118.4140551276504993438720703125">
        <ele>3544</ele>
        <time>2021-06-25T21:49:14.000Z</time>
        <extensions>
          <ns3:TrackPointExtension>
            <ns3:atemp>30.0</ns3:atemp>
            <ns3:hr>109</ns3:hr>
          </ns3:TrackPointExtension>
        </extensions>
      </trkpt>
      <trkpt lat="36.78781435824930667877197265625" lon="-118.4140145592391490936279296875">
        <ele>3545</ele>
        <time>2021-06-25T21:49:21.000Z</time>
        <extensions>
          <ns3:TrackPointExtension>
            <ns3:atemp>30.0</ns3:atemp>
            <ns3:hr>111</ns3:hr>
          </ns3:TrackPointExtension>
        </extensions>
      </trkpt>
      <trkpt lat="36.7878281883895397186279296875" lon="-118.41398916207253932952880859375">
        <ele>3545.199951171875</ele>
        <time>2021-06-25T21:49:25.000Z</time>
        <extensions>
          <ns3:TrackPointExtension>
            <ns3:atemp>30.0</ns3:atemp>
            <ns3:hr>111</ns3:hr>
          </ns3:TrackPointExtension>
        </extensions>
      </trkpt>
      <trkpt lat="36.78785383701324462890625" lon="-118.413978181779384613037109375">
        <ele>3546.199951171875</ele>
        <time>2021-06-25T21:49:30.000Z</time>
        <extensions>
          <ns3:TrackPointExtension>
            <ns3:atemp>30.0</ns3:atemp>
            <ns3:hr>113</ns3:hr>
          </ns3:TrackPointExtension>
        </extensions>
      </trkpt>
      <trkpt lat="36.78786565549671649932861328125" lon="-118.41396066360175609588623046875">
        <ele>3546.800048828125</ele>
        <time>2021-06-25T21:49:33.000Z</time>
        <extensions>
          <ns3:TrackPointExtension>
            <ns3:atemp>30.0</ns3:atemp>
            <ns3:hr>114</ns3:hr>
          </ns3:TrackPointExtension>
        </extensions>
      </trkpt>
      <trkpt lat="36.787872947752475738525390625" lon="-118.41395144350826740264892578125">
        <ele>3547.39990234375</ele>
        <time>2021-06-25T21:49:35.000Z</time>
        <extensions>
          <ns3:TrackPointExtension>
            <ns3:atemp>30.0</ns3:atemp>
            <ns3:hr>115</ns3:hr>
          </ns3:TrackPointExtension>
        </extensions>
      </trkpt>
      <trkpt lat="36.78789742290973663330078125" lon="-118.41392344795167446136474609375">
        <ele>3548</ele>
        <time>2021-06-25T21:49:42.000Z</time>
        <extensions>
          <ns3:TrackPointExtension>
            <ns3:atemp>30.0</ns3:atemp>
            <ns3:hr>116</ns3:hr>
          </ns3:TrackPointExtension>
        </extensions>
      </trkpt>
      <trkpt lat="36.7879088222980499267578125" lon="-118.413927219808101654052734375">
        <ele>3548.60009765625</ele>
        <time>2021-06-25T21:49:45.000Z</time>
        <extensions>
          <ns3:TrackPointExtension>
            <ns3:atemp>30.0</ns3:atemp>
            <ns3:hr>115</ns3:hr>
          </ns3:TrackPointExtension>
        </extensions>
      </trkpt>
      <trkpt lat="36.78794897161424160003662109375" lon="-118.413917832076549530029296875">
        <ele>3549.39990234375</ele>
        <time>2021-06-25T21:49:51.000Z</time>
        <extensions>
          <ns3:TrackPointExtension>
            <ns3:atemp>30.0</ns3:atemp>
            <ns3:hr>119</ns3:hr>
          </ns3:TrackPointExtension>
        </extensions>
      </trkpt>
      <trkpt lat="36.7879576049745082855224609375" lon="-118.4139146469533443450927734375">
        <ele>3549.800048828125</ele>
        <time>2021-06-25T21:49:53.000Z</time>
        <extensions>
          <ns3:TrackPointExtension>
            <ns3:atemp>30.0</ns3:atemp>
            <ns3:hr>119</ns3:hr>
          </ns3:TrackPointExtension>
        </extensions>
      </trkpt>
      <trkpt lat="36.7879669927060604095458984375" lon="-118.41390618123114109039306640625">
        <ele>3550</ele>
        <time>2021-06-25T21:49:55.000Z</time>
        <extensions>
          <ns3:TrackPointExtension>
            <ns3:atemp>30.0</ns3:atemp>
            <ns3:hr>122</ns3:hr>
          </ns3:TrackPointExtension>
        </extensions>
      </trkpt>
      <trkpt lat="36.7880038730800151824951171875" lon="-118.4138871543109416961669921875">
        <ele>3551</ele>
        <time>2021-06-25T21:50:02.000Z</time>
        <extensions>
          <ns3:TrackPointExtension>
            <ns3:atemp>30.0</ns3:atemp>
            <ns3:hr>123</ns3:hr>
          </ns3:TrackPointExtension>
        </extensions>
      </trkpt>
      <trkpt lat="36.78800814785063266754150390625" lon="-118.4138864837586879730224609375">
        <ele>3551.199951171875</ele>
        <time>2021-06-25T21:50:03.000Z</time>
        <extensions>
          <ns3:TrackPointExtension>
            <ns3:atemp>30.0</ns3:atemp>
            <ns3:hr>119</ns3:hr>
          </ns3:TrackPointExtension>
        </extensions>
      </trkpt>
      <trkpt lat="36.7880129255354404449462890625" lon="-118.413885645568370819091796875">
        <ele>3551.39990234375</ele>
        <time>2021-06-25T21:50:04.000Z</time>
        <extensions>
          <ns3:TrackPointExtension>
            <ns3:atemp>30.0</ns3:atemp>
            <ns3:hr>119</ns3:hr>
          </ns3:TrackPointExtension>
        </extensions>
      </trkpt>
      <trkpt lat="36.788035221397876739501953125" lon="-118.4138821251690387725830078125">
        <ele>3552</ele>
        <time>2021-06-25T21:50:08.000Z</time>
        <extensions>
          <ns3:TrackPointExtension>
            <ns3:atemp>30.0</ns3:atemp>
            <ns3:hr>120</ns3:hr>
          </ns3:TrackPointExtension>
        </extensions>
      </trkpt>
      <trkpt lat="36.78805391304194927215576171875" lon="-118.41387734748423099517822265625">
        <ele>3552.39990234375</ele>
        <time>2021-06-25T21:50:11.000Z</time>
        <extensions>
          <ns3:TrackPointExtension>
            <ns3:atemp>30.0</ns3:atemp>
            <ns3:hr>123</ns3:hr>
          </ns3:TrackPointExtension>
        </extensions>
      </trkpt>
      <trkpt lat="36.78807017393410205841064453125" lon="-118.41387927532196044921875">
        <ele>3552.800048828125</ele>
        <time>2021-06-25T21:50:14.000Z</time>
        <extensions>
          <ns3:TrackPointExtension>
            <ns3:atemp>30.0</ns3:atemp>
            <ns3:hr>122</ns3:hr>
          </ns3:TrackPointExtension>
        </extensions>
      </trkpt>
      <trkpt lat="36.78809314034879207611083984375" lon="-118.41387751512229442596435546875">
        <ele>3553.199951171875</ele>
        <time>2021-06-25T21:50:18.000Z</time>
        <extensions>
          <ns3:TrackPointExtension>
            <ns3:atemp>30.0</ns3:atemp>
            <ns3:hr>118</ns3:hr>
          </ns3:TrackPointExtension>
        </extensions>
      </trkpt>
      <trkpt lat="36.7881125025451183319091796875" lon="-118.4138787724077701568603515625">
        <ele>3554.199951171875</ele>
        <time>2021-06-25T21:50:22.000Z</time>
        <extensions>
          <ns3:TrackPointExtension>
            <ns3:atemp>30.0</ns3:atemp>
            <ns3:hr>118</ns3:hr>
          </ns3:TrackPointExtension>
        </extensions>
      </trkpt>
      <trkpt lat="36.7881188727915287017822265625" lon="-118.41387634165585041046142578125">
        <ele>3554.60009765625</ele>
        <time>2021-06-25T21:50:23.000Z</time>
        <extensions>
          <ns3:TrackPointExtension>
            <ns3:atemp>30.0</ns3:atemp>
            <ns3:hr>121</ns3:hr>
          </ns3:TrackPointExtension>
        </extensions>
      </trkpt>
      <trkpt lat="36.7881339602172374725341796875" lon="-118.41386829502880573272705078125">
        <ele>3554.800048828125</ele>
        <time>2021-06-25T21:50:26.000Z</time>
        <extensions>
          <ns3:TrackPointExtension>
            <ns3:atemp>30.0</ns3:atemp>
            <ns3:hr>122</ns3:hr>
          </ns3:TrackPointExtension>
        </extensions>
      </trkpt>
      <trkpt lat="36.788154579699039459228515625" lon="-118.41385991312563419342041015625">
        <ele>3555.39990234375</ele>
        <time>2021-06-25T21:50:30.000Z</time>
        <extensions>
          <ns3:TrackPointExtension>
            <ns3:atemp>30.0</ns3:atemp>
            <ns3:hr>123</ns3:hr>
          </ns3:TrackPointExtension>
        </extensions>
      </trkpt>
      <trkpt lat="36.788191460072994232177734375" lon="-118.41385706327855587005615234375">
        <ele>3555.800048828125</ele>
        <time>2021-06-25T21:50:35.000Z</time>
        <extensions>
          <ns3:TrackPointExtension>
            <ns3:atemp>30.0</ns3:atemp>
            <ns3:hr>123</ns3:hr>
          </ns3:TrackPointExtension>
        </extensions>
      </trkpt>
      <trkpt lat="36.78827502764761447906494140625" lon="-118.4138194285333156585693359375">
        <ele>3556</ele>
        <time>2021-06-25T21:50:43.000Z</time>
        <extensions>
          <ns3:TrackPointExtension>
            <ns3:atemp>30.0</ns3:atemp>
            <ns3:hr>123</ns3:hr>
          </ns3:TrackPointExtension>
        </extensions>
      </trkpt>
      <trkpt lat="36.78828625939786434173583984375" lon="-118.41381297446787357330322265625">
        <ele>3556.39990234375</ele>
        <time>2021-06-25T21:50:44.000Z</time>
        <extensions>
          <ns3:TrackPointExtension>
            <ns3:atemp>30.0</ns3:atemp>
            <ns3:hr>123</ns3:hr>
          </ns3:TrackPointExtension>
        </extensions>
      </trkpt>
      <trkpt lat="36.78835381753742694854736328125" lon="-118.413757570087909698486328125">
        <ele>3556.60009765625</ele>
        <time>2021-06-25T21:50:52.000Z</time>
        <extensions>
          <ns3:TrackPointExtension>
            <ns3:atemp>30.0</ns3:atemp>
            <ns3:hr>122</ns3:hr>
          </ns3:TrackPointExtension>
        </extensions>
      </trkpt>
      <trkpt lat="36.78836152888834476470947265625" lon="-118.41374977491796016693115234375">
        <ele>3556.800048828125</ele>
        <time>2021-06-25T21:50:53.000Z</time>
        <extensions>
          <ns3:TrackPointExtension>
            <ns3:atemp>30.0</ns3:atemp>
            <ns3:hr>125</ns3:hr>
          </ns3:TrackPointExtension>
        </extensions>
      </trkpt>
      <trkpt lat="36.7883767001330852508544921875" lon="-118.41371976770460605621337890625">
        <ele>3557.39990234375</ele>
        <time>2021-06-25T21:50:57.000Z</time>
        <extensions>
          <ns3:TrackPointExtension>
            <ns3:atemp>30.0</ns3:atemp>
            <ns3:hr>124</ns3:hr>
          </ns3:TrackPointExtension>
        </extensions>
      </trkpt>
      <trkpt lat="36.7883978225290775299072265625" lon="-118.41370183043181896209716796875">
        <ele>3557.60009765625</ele>
        <time>2021-06-25T21:51:00.000Z</time>
        <extensions>
          <ns3:TrackPointExtension>
            <ns3:atemp>30.0</ns3:atemp>
            <ns3:hr>125</ns3:hr>
          </ns3:TrackPointExtension>
        </extensions>
      </trkpt>
      <trkpt lat="36.78842246532440185546875" lon="-118.41366159729659557342529296875">
        <ele>3558.60009765625</ele>
        <time>2021-06-25T21:51:05.000Z</time>
        <extensions>
          <ns3:TrackPointExtension>
            <ns3:atemp>30.0</ns3:atemp>
            <ns3:hr>127</ns3:hr>
          </ns3:TrackPointExtension>
        </extensions>
      </trkpt>
      <trkpt lat="36.78843160159885883331298828125" lon="-118.413641564548015594482421875">
        <ele>3559.60009765625</ele>
        <time>2021-06-25T21:51:08.000Z</time>
        <extensions>
          <ns3:TrackPointExtension>
            <ns3:atemp>30.0</ns3:atemp>
            <ns3:hr>127</ns3:hr>
          </ns3:TrackPointExtension>
        </extensions>
      </trkpt>
      <trkpt lat="36.788440234959125518798828125" lon="-118.413632176816463470458984375">
        <ele>3559.800048828125</ele>
        <time>2021-06-25T21:51:10.000Z</time>
        <extensions>
          <ns3:TrackPointExtension>
            <ns3:atemp>30.0</ns3:atemp>
            <ns3:hr>127</ns3:hr>
          </ns3:TrackPointExtension>
        </extensions>
      </trkpt>
      <trkpt lat="36.78845423273742198944091796875" lon="-118.4136108867824077606201171875">
        <ele>3560.800048828125</ele>
        <time>2021-06-25T21:51:14.000Z</time>
        <extensions>
          <ns3:TrackPointExtension>
            <ns3:atemp>30.0</ns3:atemp>
            <ns3:hr>125</ns3:hr>
          </ns3:TrackPointExtension>
        </extensions>
      </trkpt>
      <trkpt lat="36.78846043534576892852783203125" lon="-118.41359294950962066650390625">
        <ele>3561.199951171875</ele>
        <time>2021-06-25T21:51:16.000Z</time>
        <extensions>
          <ns3:TrackPointExtension>
            <ns3:atemp>30.0</ns3:atemp>
            <ns3:hr>125</ns3:hr>
          </ns3:TrackPointExtension>
        </extensions>
      </trkpt>
      <trkpt lat="36.7884910292923450469970703125" lon="-118.41356151737272739410400390625">
        <ele>3561.800048828125</ele>
        <time>2021-06-25T21:51:21.000Z</time>
        <extensions>
          <ns3:TrackPointExtension>
            <ns3:atemp>30.0</ns3:atemp>
            <ns3:hr>127</ns3:hr>
          </ns3:TrackPointExtension>
        </extensions>
      </trkpt>
      <trkpt lat="36.78852765820920467376708984375" lon="-118.41354726813733577728271484375">
        <ele>3562.199951171875</ele>
        <time>2021-06-25T21:51:27.000Z</time>
        <extensions>
          <ns3:TrackPointExtension>
            <ns3:atemp>30.0</ns3:atemp>
            <ns3:hr>128</ns3:hr>
          </ns3:TrackPointExtension>
        </extensions>
      </trkpt>
      <trkpt lat="36.7885322682559490203857421875" lon="-118.41354693286120891571044921875">
        <ele>3562.800048828125</ele>
        <time>2021-06-25T21:51:28.000Z</time>
        <extensions>
          <ns3:TrackPointExtension>
            <ns3:atemp>30.0</ns3:atemp>
            <ns3:hr>128</ns3:hr>
          </ns3:TrackPointExtension>
        </extensions>
      </trkpt>
      <trkpt lat="36.7885671369731426239013671875" lon="-118.41354198753833770751953125">
        <ele>3563.60009765625</ele>
        <time>2021-06-25T21:51:35.000Z</time>
        <extensions>
          <ns3:TrackPointExtension>
            <ns3:atemp>30.0</ns3:atemp>
            <ns3:hr>129</ns3:hr>
          </ns3:TrackPointExtension>
        </extensions>
      </trkpt>
      <trkpt lat="36.78857996128499507904052734375" lon="-118.413543663918972015380859375">
        <ele>3564</ele>
        <time>2021-06-25T21:51:37.000Z</time>
        <extensions>
          <ns3:TrackPointExtension>
            <ns3:atemp>30.0</ns3:atemp>
            <ns3:hr>130</ns3:hr>
          </ns3:TrackPointExtension>
        </extensions>
      </trkpt>
      <trkpt lat="36.78859521634876728057861328125" lon="-118.41353754512965679168701171875">
        <ele>3564</ele>
        <time>2021-06-25T21:51:43.000Z</time>
        <extensions>
          <ns3:TrackPointExtension>
            <ns3:atemp>30.0</ns3:atemp>
            <ns3:hr>132</ns3:hr>
          </ns3:TrackPointExtension>
        </extensions>
      </trkpt>
      <trkpt lat="36.788606531918048858642578125" lon="-118.41353201307356357574462890625">
        <ele>3564</ele>
        <time>2021-06-25T21:51:49.000Z</time>
        <extensions>
          <ns3:TrackPointExtension>
            <ns3:atemp>30.0</ns3:atemp>
            <ns3:hr>131</ns3:hr>
          </ns3:TrackPointExtension>
        </extensions>
      </trkpt>
      <trkpt lat="36.78860326297581195831298828125" lon="-118.413550369441509246826171875">
        <ele>3564.199951171875</ele>
        <time>2021-06-25T21:51:56.000Z</time>
        <extensions>
          <ns3:TrackPointExtension>
            <ns3:atemp>30.0</ns3:atemp>
            <ns3:hr>129</ns3:hr>
          </ns3:TrackPointExtension>
        </extensions>
      </trkpt>
      <trkpt lat="36.78859882056713104248046875" lon="-118.413550369441509246826171875">
        <ele>3563.800048828125</ele>
        <time>2021-06-25T21:52:02.000Z</time>
        <extensions>
          <ns3:TrackPointExtension>
            <ns3:atemp>30.0</ns3:atemp>
            <ns3:hr>126</ns3:hr>
          </ns3:TrackPointExtension>
        </extensions>
      </trkpt>
      <trkpt lat="36.7885953001677989959716796875" lon="-118.413550369441509246826171875">
        <ele>3564</ele>
        <time>2021-06-25T21:52:05.000Z</time>
        <extensions>
          <ns3:TrackPointExtension>
            <ns3:atemp>30.0</ns3:atemp>
            <ns3:hr>123</ns3:hr>
          </ns3:TrackPointExtension>
        </extensions>
      </trkpt>
      <trkpt lat="36.78859412670135498046875" lon="-118.41355045326054096221923828125">
        <ele>3564</ele>
        <time>2021-06-25T21:52:07.000Z</time>
        <extensions>
          <ns3:TrackPointExtension>
            <ns3:atemp>30.0</ns3:atemp>
            <ns3:hr>120</ns3:hr>
          </ns3:TrackPointExtension>
        </extensions>
      </trkpt>
      <trkpt lat="36.7885815538465976715087890625" lon="-118.41355095617473125457763671875">
        <ele>3564</ele>
        <time>2021-06-25T21:52:11.000Z</time>
        <extensions>
          <ns3:TrackPointExtension>
            <ns3:atemp>30.0</ns3:atemp>
            <ns3:hr>117</ns3:hr>
          </ns3:TrackPointExtension>
        </extensions>
      </trkpt>
      <trkpt lat="36.78857526741921901702880859375" lon="-118.41355095617473125457763671875">
        <ele>3564.39990234375</ele>
        <time>2021-06-25T21:52:22.000Z</time>
        <extensions>
          <ns3:TrackPointExtension>
            <ns3:atemp>30.0</ns3:atemp>
            <ns3:hr>114</ns3:hr>
          </ns3:TrackPointExtension>
        </extensions>
      </trkpt>
      <trkpt lat="36.78857392631471157073974609375" lon="-118.41354995034635066986083984375">
        <ele>3564.39990234375</ele>
        <time>2021-06-25T21:52:28.000Z</time>
        <extensions>
          <ns3:TrackPointExtension>
            <ns3:atemp>30.0</ns3:atemp>
            <ns3:hr>111</ns3:hr>
          </ns3:TrackPointExtension>
        </extensions>
      </trkpt>
      <trkpt lat="36.7885738424956798553466796875" lon="-118.413537628948688507080078125">
        <ele>3564.800048828125</ele>
        <time>2021-06-25T21:52:31.000Z</time>
        <extensions>
          <ns3:TrackPointExtension>
            <ns3:atemp>30.0</ns3:atemp>
            <ns3:hr>107</ns3:hr>
          </ns3:TrackPointExtension>
        </extensions>
      </trkpt>
      <trkpt lat="36.7885740101337432861328125" lon="-118.41353352181613445281982421875">
        <ele>3565</ele>
        <time>2021-06-25T21:52:32.000Z</time>
        <extensions>
          <ns3:TrackPointExtension>
            <ns3:atemp>30.0</ns3:atemp>
            <ns3:hr>105</ns3:hr>
          </ns3:TrackPointExtension>
        </extensions>
      </trkpt>
      <trkpt lat="36.7885755188763141632080078125" lon="-118.4135170094668865203857421875">
        <ele>3565.800048828125</ele>
        <time>2021-06-25T21:52:37.000Z</time>
        <extensions>
          <ns3:TrackPointExtension>
            <ns3:atemp>30.0</ns3:atemp>
            <ns3:hr>102</ns3:hr>
          </ns3:TrackPointExtension>
        </extensions>
      </trkpt>
      <trkpt lat="36.7885812185704708099365234375" lon="-118.41351122595369815826416015625">
        <ele>3566.39990234375</ele>
        <time>2021-06-25T21:52:38.000Z</time>
        <extensions>
          <ns3:TrackPointExtension>
            <ns3:atemp>30.0</ns3:atemp>
            <ns3:hr>101</ns3:hr>
          </ns3:TrackPointExtension>
        </extensions>
      </trkpt>
      <trkpt lat="36.788625977933406829833984375" lon="-118.413457162678241729736328125">
        <ele>3567</ele>
        <time>2021-06-25T21:52:42.000Z</time>
        <extensions>
          <ns3:TrackPointExtension>
            <ns3:atemp>30.0</ns3:atemp>
            <ns3:hr>100</ns3:hr>
          </ns3:TrackPointExtension>
        </extensions>
      </trkpt>
      <trkpt lat="36.78865791298449039459228515625" lon="-118.41341567225754261016845703125">
        <ele>3567.60009765625</ele>
        <time>2021-06-25T21:52:45.000Z</time>
        <extensions>
          <ns3:TrackPointExtension>
            <ns3:atemp>30.0</ns3:atemp>
            <ns3:hr>101</ns3:hr>
          </ns3:TrackPointExtension>
        </extensions>
      </trkpt>
      <trkpt lat="36.788686998188495635986328125" lon="-118.41333872638642787933349609375">
        <ele>3569</ele>
        <time>2021-06-25T21:52:52.000Z</time>
        <extensions>
          <ns3:TrackPointExtension>
            <ns3:atemp>30.0</ns3:atemp>
            <ns3:hr>104</ns3:hr>
          </ns3:TrackPointExtension>
        </extensions>
      </trkpt>
      <trkpt lat="36.78869378753006458282470703125" lon="-118.4133057855069637298583984375">
        <ele>3569.800048828125</ele>
        <time>2021-06-25T21:52:55.000Z</time>
        <extensions>
          <ns3:TrackPointExtension>
            <ns3:atemp>30.0</ns3:atemp>
            <ns3:hr>107</ns3:hr>
          </ns3:TrackPointExtension>
        </extensions>
      </trkpt>
      <trkpt lat="36.788701079785823822021484375" lon="-118.4132849983870983123779296875">
        <ele>3570</ele>
        <time>2021-06-25T21:52:57.000Z</time>
        <extensions>
          <ns3:TrackPointExtension>
            <ns3:atemp>30.0</ns3:atemp>
            <ns3:hr>110</ns3:hr>
          </ns3:TrackPointExtension>
        </extensions>
      </trkpt>
      <trkpt lat="36.78870384581387042999267578125" lon="-118.41327913105487823486328125">
        <ele>3570.199951171875</ele>
        <time>2021-06-25T21:52:58.000Z</time>
        <extensions>
          <ns3:TrackPointExtension>
            <ns3:atemp>30.0</ns3:atemp>
            <ns3:hr>112</ns3:hr>
          </ns3:TrackPointExtension>
        </extensions>
      </trkpt>
      <trkpt lat="36.78870736621320247650146484375" lon="-118.41326773166656494140625">
        <ele>3570.39990234375</ele>
        <time>2021-06-25T21:53:00.000Z</time>
        <extensions>
          <ns3:TrackPointExtension>
            <ns3:atemp>30.0</ns3:atemp>
            <ns3:hr>115</ns3:hr>
          </ns3:TrackPointExtension>
        </extensions>
      </trkpt>
      <trkpt lat="36.78871474228799343109130859375" lon="-118.4132675640285015106201171875">
        <ele>3570.800048828125</ele>
        <time>2021-06-25T21:53:02.000Z</time>
        <extensions>
          <ns3:TrackPointExtension>
            <ns3:atemp>30.0</ns3:atemp>
            <ns3:hr>117</ns3:hr>
          </ns3:TrackPointExtension>
        </extensions>
      </trkpt>
      <trkpt lat="36.78872714750468730926513671875" lon="-118.41325524263083934783935546875">
        <ele>3571.39990234375</ele>
        <time>2021-06-25T21:53:04.000Z</time>
        <extensions>
          <ns3:TrackPointExtension>
            <ns3:atemp>30.0</ns3:atemp>
            <ns3:hr>119</ns3:hr>
          </ns3:TrackPointExtension>
        </extensions>
      </trkpt>
      <trkpt lat="36.78872815333306789398193359375" lon="-118.413240574300289154052734375">
        <ele>3571.60009765625</ele>
        <time>2021-06-25T21:53:07.000Z</time>
        <extensions>
          <ns3:TrackPointExtension>
            <ns3:atemp>30.0</ns3:atemp>
            <ns3:hr>122</ns3:hr>
          </ns3:TrackPointExtension>
        </extensions>
      </trkpt>
      <trkpt lat="36.7887374572455883026123046875" lon="-118.41320193372666835784912109375">
        <ele>3572.39990234375</ele>
        <time>2021-06-25T21:53:10.000Z</time>
        <extensions>
          <ns3:TrackPointExtension>
            <ns3:atemp>30.0</ns3:atemp>
            <ns3:hr>122</ns3:hr>
          </ns3:TrackPointExtension>
        </extensions>
      </trkpt>
      <trkpt lat="36.78874324075877666473388671875" lon="-118.41318081133067607879638671875">
        <ele>3572.60009765625</ele>
        <time>2021-06-25T21:53:12.000Z</time>
        <extensions>
          <ns3:TrackPointExtension>
            <ns3:atemp>30.0</ns3:atemp>
            <ns3:hr>122</ns3:hr>
          </ns3:TrackPointExtension>
        </extensions>
      </trkpt>
      <trkpt lat="36.78875179030001163482666015625" lon="-118.41313269920647144317626953125">
        <ele>3573.199951171875</ele>
        <time>2021-06-25T21:53:17.000Z</time>
        <extensions>
          <ns3:TrackPointExtension>
            <ns3:atemp>30.0</ns3:atemp>
            <ns3:hr>125</ns3:hr>
          </ns3:TrackPointExtension>
        </extensions>
      </trkpt>
      <trkpt lat="36.788752377033233642578125" lon="-118.41310956515371799468994140625">
        <ele>3573.39990234375</ele>
        <time>2021-06-25T21:53:19.000Z</time>
        <extensions>
          <ns3:TrackPointExtension>
            <ns3:atemp>30.0</ns3:atemp>
            <ns3:hr>124</ns3:hr>
          </ns3:TrackPointExtension>
        </extensions>
      </trkpt>
      <trkpt lat="36.7887592501938343048095703125" lon="-118.41307352297008037567138671875">
        <ele>3573.800048828125</ele>
        <time>2021-06-25T21:53:23.000Z</time>
        <extensions>
          <ns3:TrackPointExtension>
            <ns3:atemp>30.0</ns3:atemp>
            <ns3:hr>127</ns3:hr>
          </ns3:TrackPointExtension>
        </extensions>
      </trkpt>
      <trkpt lat="36.7887465097010135650634765625" lon="-118.41307352297008037567138671875">
        <ele>3573.800048828125</ele>
        <time>2021-06-25T21:53:29.000Z</time>
        <extensions>
          <ns3:TrackPointExtension>
            <ns3:atemp>30.0</ns3:atemp>
            <ns3:hr>124</ns3:hr>
          </ns3:TrackPointExtension>
        </extensions>
      </trkpt>
      <trkpt lat="36.78873586468398571014404296875" lon="-118.41307033784687519073486328125">
        <ele>3574</ele>
        <time>2021-06-25T21:53:31.000Z</time>
        <extensions>
          <ns3:TrackPointExtension>
            <ns3:atemp>30.0</ns3:atemp>
            <ns3:hr>122</ns3:hr>
          </ns3:TrackPointExtension>
        </extensions>
      </trkpt>
      <trkpt lat="36.78873427212238311767578125" lon="-118.41306321322917938232421875">
        <ele>3574.199951171875</ele>
        <time>2021-06-25T21:53:38.000Z</time>
        <extensions>
          <ns3:TrackPointExtension>
            <ns3:atemp>30.0</ns3:atemp>
            <ns3:hr>125</ns3:hr>
          </ns3:TrackPointExtension>
        </extensions>
      </trkpt>
      <trkpt lat="36.78873427212238311767578125" lon="-118.41306321322917938232421875">
        <ele>3574.60009765625</ele>
        <time>2021-06-25T21:53:41.000Z</time>
        <extensions>
          <ns3:TrackPointExtension>
            <ns3:atemp>30.0</ns3:atemp>
            <ns3:hr>127</ns3:hr>
          </ns3:TrackPointExtension>
        </extensions>
      </trkpt>
      <trkpt lat="36.78873586468398571014404296875" lon="-118.4130710922181606292724609375">
        <ele>3575.60009765625</ele>
        <time>2021-06-25T21:53:50.000Z</time>
        <extensions>
          <ns3:TrackPointExtension>
            <ns3:atemp>30.0</ns3:atemp>
            <ns3:hr>125</ns3:hr>
          </ns3:TrackPointExtension>
        </extensions>
      </trkpt>
      <trkpt lat="36.7887448333203792572021484375" lon="-118.41310344636440277099609375">
        <ele>3576.60009765625</ele>
        <time>2021-06-25T21:53:56.000Z</time>
        <extensions>
          <ns3:TrackPointExtension>
            <ns3:atemp>29.0</ns3:atemp>
            <ns3:hr>122</ns3:hr>
          </ns3:TrackPointExtension>
        </extensions>
      </trkpt>
      <trkpt lat="36.78874676115810871124267578125" lon="-118.41312146745622158050537109375">
        <ele>3577</ele>
        <time>2021-06-25T21:53:57.000Z</time>
        <extensions>
          <ns3:TrackPointExtension>
            <ns3:atemp>29.0</ns3:atemp>
            <ns3:hr>121</ns3:hr>
          </ns3:TrackPointExtension>
        </extensions>
      </trkpt>
      <trkpt lat="36.78875170648097991943359375" lon="-118.41317226178944110870361328125">
        <ele>3577.800048828125</ele>
        <time>2021-06-25T21:54:00.000Z</time>
        <extensions>
          <ns3:TrackPointExtension>
            <ns3:atemp>29.0</ns3:atemp>
            <ns3:hr>118</ns3:hr>
          </ns3:TrackPointExtension>
        </extensions>
      </trkpt>
      <trkpt lat="36.78875572979450225830078125" lon="-118.413190953433513641357421875">
        <ele>3578.60009765625</ele>
        <time>2021-06-25T21:54:01.000Z</time>
        <extensions>
          <ns3:TrackPointExtension>
            <ns3:atemp>29.0</ns3:atemp>
            <ns3:hr>118</ns3:hr>
          </ns3:TrackPointExtension>
        </extensions>
      </trkpt>
      <trkpt lat="36.78876671008765697479248046875" lon="-118.41323227621614933013916015625">
        <ele>3578.60009765625</ele>
        <time>2021-06-25T21:54:03.000Z</time>
        <extensions>
          <ns3:TrackPointExtension>
            <ns3:atemp>29.0</ns3:atemp>
            <ns3:hr>117</ns3:hr>
          </ns3:TrackPointExtension>
        </extensions>
      </trkpt>
      <trkpt lat="36.78878062404692173004150390625" lon="-118.41329078190028667449951171875">
        <ele>3579.39990234375</ele>
        <time>2021-06-25T21:54:09.000Z</time>
        <extensions>
          <ns3:TrackPointExtension>
            <ns3:atemp>29.0</ns3:atemp>
            <ns3:hr>117</ns3:hr>
          </ns3:TrackPointExtension>
        </extensions>
      </trkpt>
      <trkpt lat="36.78878523409366607666015625" lon="-118.413302935659885406494140625">
        <ele>3580.39990234375</ele>
        <time>2021-06-25T21:54:10.000Z</time>
        <extensions>
          <ns3:TrackPointExtension>
            <ns3:atemp>29.0</ns3:atemp>
            <ns3:hr>117</ns3:hr>
          </ns3:TrackPointExtension>
        </extensions>
      </trkpt>
      <trkpt lat="36.7888132296502590179443359375" lon="-118.4133414924144744873046875">
        <ele>3580.39990234375</ele>
        <time>2021-06-25T21:54:15.000Z</time>
        <extensions>
          <ns3:TrackPointExtension>
            <ns3:atemp>29.0</ns3:atemp>
            <ns3:hr>116</ns3:hr>
          </ns3:TrackPointExtension>
        </extensions>
      </trkpt>
      <trkpt lat="36.7888343520462512969970703125" lon="-118.4133396483957767486572265625">
        <ele>3581.199951171875</ele>
        <time>2021-06-25T21:54:19.000Z</time>
        <extensions>
          <ns3:TrackPointExtension>
            <ns3:atemp>29.0</ns3:atemp>
            <ns3:hr>114</ns3:hr>
          </ns3:TrackPointExtension>
        </extensions>
      </trkpt>
      <trkpt lat="36.7888355255126953125" lon="-118.4133334457874298095703125">
        <ele>3581.39990234375</ele>
        <time>2021-06-25T21:54:20.000Z</time>
        <extensions>
          <ns3:TrackPointExtension>
            <ns3:atemp>29.0</ns3:atemp>
            <ns3:hr>114</ns3:hr>
          </ns3:TrackPointExtension>
        </extensions>
      </trkpt>
      <trkpt lat="36.78884097374975681304931640625" lon="-118.41332481242716312408447265625">
        <ele>3581.60009765625</ele>
        <time>2021-06-25T21:54:21.000Z</time>
        <extensions>
          <ns3:TrackPointExtension>
            <ns3:atemp>29.0</ns3:atemp>
            <ns3:hr>115</ns3:hr>
          </ns3:TrackPointExtension>
        </extensions>
      </trkpt>
      <trkpt lat="36.78885203786194324493408203125" lon="-118.41330989263951778411865234375">
        <ele>3581.60009765625</ele>
        <time>2021-06-25T21:54:23.000Z</time>
        <extensions>
          <ns3:TrackPointExtension>
            <ns3:atemp>29.0</ns3:atemp>
            <ns3:hr>112</ns3:hr>
          </ns3:TrackPointExtension>
        </extensions>
      </trkpt>
      <trkpt lat="36.7888564802706241607666015625" lon="-118.4132990799844264984130859375">
        <ele>3581.800048828125</ele>
        <time>2021-06-25T21:54:25.000Z</time>
        <extensions>
          <ns3:TrackPointExtension>
            <ns3:atemp>29.0</ns3:atemp>
            <ns3:hr>109</ns3:hr>
          </ns3:TrackPointExtension>
        </extensions>
      </trkpt>
      <trkpt lat="36.7888608388602733612060546875" lon="-118.4132816456258296966552734375">
        <ele>3582</ele>
        <time>2021-06-25T21:54:27.000Z</time>
        <extensions>
          <ns3:TrackPointExtension>
            <ns3:atemp>29.0</ns3:atemp>
            <ns3:hr>107</ns3:hr>
          </ns3:TrackPointExtension>
        </extensions>
      </trkpt>
      <trkpt lat="36.788863353431224822998046875" lon="-118.41326077468693256378173828125">
        <ele>3582.39990234375</ele>
        <time>2021-06-25T21:54:30.000Z</time>
        <extensions>
          <ns3:TrackPointExtension>
            <ns3:atemp>29.0</ns3:atemp>
            <ns3:hr>110</ns3:hr>
          </ns3:TrackPointExtension>
        </extensions>
      </trkpt>
      <trkpt lat="36.7888826318085193634033203125" lon="-118.4132491238415241241455078125">
        <ele>3582.60009765625</ele>
        <time>2021-06-25T21:54:32.000Z</time>
        <extensions>
          <ns3:TrackPointExtension>
            <ns3:atemp>29.0</ns3:atemp>
            <ns3:hr>107</ns3:hr>
          </ns3:TrackPointExtension>
        </extensions>
      </trkpt>
      <trkpt lat="36.78889445029199123382568359375" lon="-118.41323311440646648406982421875">
        <ele>3582.800048828125</ele>
        <time>2021-06-25T21:54:34.000Z</time>
        <extensions>
          <ns3:TrackPointExtension>
            <ns3:atemp>29.0</ns3:atemp>
            <ns3:hr>107</ns3:hr>
          </ns3:TrackPointExtension>
        </extensions>
      </trkpt>
      <trkpt lat="36.7888987250626087188720703125" lon="-118.41320109553635120391845703125">
        <ele>3583.60009765625</ele>
        <time>2021-06-25T21:54:39.000Z</time>
        <extensions>
          <ns3:TrackPointExtension>
            <ns3:atemp>29.0</ns3:atemp>
            <ns3:hr>108</ns3:hr>
          </ns3:TrackPointExtension>
        </extensions>
      </trkpt>
      <trkpt lat="36.78890836425125598907470703125" lon="-118.41316605918109416961669921875">
        <ele>3584.199951171875</ele>
        <time>2021-06-25T21:54:43.000Z</time>
        <extensions>
          <ns3:TrackPointExtension>
            <ns3:atemp>29.0</ns3:atemp>
            <ns3:hr>110</ns3:hr>
          </ns3:TrackPointExtension>
        </extensions>
      </trkpt>
      <trkpt lat="36.7889104597270488739013671875" lon="-118.4131575934588909149169921875">
        <ele>3584.800048828125</ele>
        <time>2021-06-25T21:54:44.000Z</time>
        <extensions>
          <ns3:TrackPointExtension>
            <ns3:atemp>29.0</ns3:atemp>
            <ns3:hr>110</ns3:hr>
          </ns3:TrackPointExtension>
        </extensions>
      </trkpt>
      <trkpt lat="36.78891674615442752838134765625" lon="-118.41313169337809085845947265625">
        <ele>3585.199951171875</ele>
        <time>2021-06-25T21:54:47.000Z</time>
        <extensions>
          <ns3:TrackPointExtension>
            <ns3:atemp>29.0</ns3:atemp>
            <ns3:hr>113</ns3:hr>
          </ns3:TrackPointExtension>
        </extensions>
      </trkpt>
      <trkpt lat="36.78891875781118869781494140625" lon="-118.41312482021749019622802734375">
        <ele>3585.199951171875</ele>
        <time>2021-06-25T21:54:48.000Z</time>
        <extensions>
          <ns3:TrackPointExtension>
            <ns3:atemp>29.0</ns3:atemp>
            <ns3:hr>110</ns3:hr>
          </ns3:TrackPointExtension>
        </extensions>
      </trkpt>
      <trkpt lat="36.788929738104343414306640625" lon="-118.41307737864553928375244140625">
        <ele>3586</ele>
        <time>2021-06-25T21:54:53.000Z</time>
        <extensions>
          <ns3:TrackPointExtension>
            <ns3:atemp>29.0</ns3:atemp>
            <ns3:hr>114</ns3:hr>
          </ns3:TrackPointExtension>
        </extensions>
      </trkpt>
      <trkpt lat="36.78892915137112140655517578125" lon="-118.4130576811730861663818359375">
        <ele>3586</ele>
        <time>2021-06-25T21:54:55.000Z</time>
        <extensions>
          <ns3:TrackPointExtension>
            <ns3:atemp>29.0</ns3:atemp>
            <ns3:hr>117</ns3:hr>
          </ns3:TrackPointExtension>
        </extensions>
      </trkpt>
      <trkpt lat="36.788927726447582244873046875" lon="-118.41304653324186801910400390625">
        <ele>3586</ele>
        <time>2021-06-25T21:54:56.000Z</time>
        <extensions>
          <ns3:TrackPointExtension>
            <ns3:atemp>29.0</ns3:atemp>
            <ns3:hr>118</ns3:hr>
          </ns3:TrackPointExtension>
        </extensions>
      </trkpt>
      <trkpt lat="36.78892361931502819061279296875" lon="-118.41300688683986663818359375">
        <ele>3586.39990234375</ele>
        <time>2021-06-25T21:55:00.000Z</time>
        <extensions>
          <ns3:TrackPointExtension>
            <ns3:atemp>29.0</ns3:atemp>
            <ns3:hr>121</ns3:hr>
          </ns3:TrackPointExtension>
        </extensions>
      </trkpt>
      <trkpt lat="36.788927726447582244873046875" lon="-118.41297738254070281982421875">
        <ele>3587</ele>
        <time>2021-06-25T21:55:05.000Z</time>
        <extensions>
          <ns3:TrackPointExtension>
            <ns3:atemp>29.0</ns3:atemp>
            <ns3:hr>122</ns3:hr>
          </ns3:TrackPointExtension>
        </extensions>
      </trkpt>
      <trkpt lat="36.78892982192337512969970703125" lon="-118.41297981329262256622314453125">
        <ele>3587</ele>
        <time>2021-06-25T21:55:06.000Z</time>
        <extensions>
          <ns3:TrackPointExtension>
            <ns3:atemp>29.0</ns3:atemp>
            <ns3:hr>123</ns3:hr>
          </ns3:TrackPointExtension>
        </extensions>
      </trkpt>
      <trkpt lat="36.7889456637203693389892578125" lon="-118.4129981696605682373046875">
        <ele>3588</ele>
        <time>2021-06-25T21:55:12.000Z</time>
        <extensions>
          <ns3:TrackPointExtension>
            <ns3:atemp>29.0</ns3:atemp>
            <ns3:hr>125</ns3:hr>
          </ns3:TrackPointExtension>
        </extensions>
      </trkpt>
      <trkpt lat="36.788950525224208831787109375" lon="-118.4130137600004673004150390625">
        <ele>3588.199951171875</ele>
        <time>2021-06-25T21:55:15.000Z</time>
        <extensions>
          <ns3:TrackPointExtension>
            <ns3:atemp>29.0</ns3:atemp>
            <ns3:hr>127</ns3:hr>
          </ns3:TrackPointExtension>
        </extensions>
      </trkpt>
      <trkpt lat="36.7889718152582645416259765625" lon="-118.4130499698221683502197265625">
        <ele>3588.800048828125</ele>
        <time>2021-06-25T21:55:22.000Z</time>
        <extensions>
          <ns3:TrackPointExtension>
            <ns3:atemp>29.0</ns3:atemp>
            <ns3:hr>130</ns3:hr>
          </ns3:TrackPointExtension>
        </extensions>
      </trkpt>
      <trkpt lat="36.7889691330492496490478515625" lon="-118.413050808012485504150390625">
        <ele>3588.800048828125</ele>
        <time>2021-06-25T21:55:23.000Z</time>
        <extensions>
          <ns3:TrackPointExtension>
            <ns3:atemp>29.0</ns3:atemp>
            <ns3:hr>130</ns3:hr>
          </ns3:TrackPointExtension>
        </extensions>
      </trkpt>
      <trkpt lat="36.78896653465926647186279296875" lon="-118.41305005364120006561279296875">
        <ele>3589.39990234375</ele>
        <time>2021-06-25T21:55:24.000Z</time>
        <extensions>
          <ns3:TrackPointExtension>
            <ns3:atemp>29.0</ns3:atemp>
            <ns3:hr>130</ns3:hr>
          </ns3:TrackPointExtension>
        </extensions>
      </trkpt>
      <trkpt lat="36.78896636702120304107666015625" lon="-118.4130435995757579803466796875">
        <ele>3589.199951171875</ele>
        <time>2021-06-25T21:55:31.000Z</time>
        <extensions>
          <ns3:TrackPointExtension>
            <ns3:atemp>29.0</ns3:atemp>
            <ns3:hr>128</ns3:hr>
          </ns3:TrackPointExtension>
        </extensions>
      </trkpt>
      <trkpt lat="36.7889657802879810333251953125" lon="-118.41304385103285312652587890625">
        <ele>3589.39990234375</ele>
        <time>2021-06-25T21:55:41.000Z</time>
        <extensions>
          <ns3:TrackPointExtension>
            <ns3:atemp>29.0</ns3:atemp>
            <ns3:hr>125</ns3:hr>
          </ns3:TrackPointExtension>
        </extensions>
      </trkpt>
      <trkpt lat="36.78896318189799785614013671875" lon="-118.4130462817847728729248046875">
        <ele>3589.39990234375</ele>
        <time>2021-06-25T21:55:44.000Z</time>
        <extensions>
          <ns3:TrackPointExtension>
            <ns3:atemp>29.0</ns3:atemp>
            <ns3:hr>122</ns3:hr>
          </ns3:TrackPointExtension>
        </extensions>
      </trkpt>
      <trkpt lat="36.7889208532869815826416015625" lon="-118.4130625426769256591796875">
        <ele>3590.39990234375</ele>
        <time>2021-06-25T21:55:52.000Z</time>
        <extensions>
          <ns3:TrackPointExtension>
            <ns3:atemp>29.0</ns3:atemp>
            <ns3:hr>120</ns3:hr>
          </ns3:TrackPointExtension>
        </extensions>
      </trkpt>
      <trkpt lat="36.78895010612905025482177734375" lon="-118.4130948968231678009033203125">
        <ele>3591.39990234375</ele>
        <time>2021-06-25T21:56:00.000Z</time>
        <extensions>
          <ns3:TrackPointExtension>
            <ns3:atemp>29.0</ns3:atemp>
            <ns3:hr>119</ns3:hr>
          </ns3:TrackPointExtension>
        </extensions>
      </trkpt>
      <trkpt lat="36.78897692821919918060302734375" lon="-118.413081653416156768798828125">
        <ele>3591.800048828125</ele>
        <time>2021-06-25T21:56:06.000Z</time>
        <extensions>
          <ns3:TrackPointExtension>
            <ns3:atemp>29.0</ns3:atemp>
            <ns3:hr>115</ns3:hr>
          </ns3:TrackPointExtension>
        </extensions>
      </trkpt>
      <trkpt lat="36.78898782469332218170166015625" lon="-118.4130425937473773956298828125">
        <ele>3592.199951171875</ele>
        <time>2021-06-25T21:56:10.000Z</time>
        <extensions>
          <ns3:TrackPointExtension>
            <ns3:atemp>29.0</ns3:atemp>
            <ns3:hr>114</ns3:hr>
          </ns3:TrackPointExtension>
        </extensions>
      </trkpt>
      <trkpt lat="36.78899201564490795135498046875" lon="-118.41305256821215152740478515625">
        <ele>3592.60009765625</ele>
        <time>2021-06-25T21:56:13.000Z</time>
        <extensions>
          <ns3:TrackPointExtension>
            <ns3:atemp>29.0</ns3:atemp>
            <ns3:hr>111</ns3:hr>
          </ns3:TrackPointExtension>
        </extensions>
      </trkpt>
      <trkpt lat="36.78899134509265422821044921875" lon="-118.41308743692934513092041015625">
        <ele>3593.199951171875</ele>
        <time>2021-06-25T21:56:16.000Z</time>
        <extensions>
          <ns3:TrackPointExtension>
            <ns3:atemp>29.0</ns3:atemp>
            <ns3:hr>113</ns3:hr>
          </ns3:TrackPointExtension>
        </extensions>
      </trkpt>
      <trkpt lat="36.7890031635761260986328125" lon="-118.41311107389628887176513671875">
        <ele>3593.199951171875</ele>
        <time>2021-06-25T21:56:19.000Z</time>
        <extensions>
          <ns3:TrackPointExtension>
            <ns3:atemp>29.0</ns3:atemp>
            <ns3:hr>116</ns3:hr>
          </ns3:TrackPointExtension>
        </extensions>
      </trkpt>
      <trkpt lat="36.78899419493973255157470703125" lon="-118.4131176955997943878173828125">
        <ele>3594</ele>
        <time>2021-06-25T21:56:21.000Z</time>
        <extensions>
          <ns3:TrackPointExtension>
            <ns3:atemp>29.0</ns3:atemp>
            <ns3:hr>119</ns3:hr>
          </ns3:TrackPointExtension>
        </extensions>
      </trkpt>
      <trkpt lat="36.78900743834674358367919921875" lon="-118.413145355880260467529296875">
        <ele>3594.199951171875</ele>
        <time>2021-06-25T21:56:25.000Z</time>
        <extensions>
          <ns3:TrackPointExtension>
            <ns3:atemp>29.0</ns3:atemp>
            <ns3:hr>124</ns3:hr>
          </ns3:TrackPointExtension>
        </extensions>
      </trkpt>
      <trkpt lat="36.78901246748864650726318359375" lon="-118.413159437477588653564453125">
        <ele>3594.39990234375</ele>
        <time>2021-06-25T21:56:27.000Z</time>
        <extensions>
          <ns3:TrackPointExtension>
            <ns3:atemp>29.0</ns3:atemp>
            <ns3:hr>125</ns3:hr>
          </ns3:TrackPointExtension>
        </extensions>
      </trkpt>
      <trkpt lat="36.78901917301118373870849609375" lon="-118.413178883492946624755859375">
        <ele>3595</ele>
        <time>2021-06-25T21:56:30.000Z</time>
        <extensions>
          <ns3:TrackPointExtension>
            <ns3:atemp>29.0</ns3:atemp>
            <ns3:hr>122</ns3:hr>
          </ns3:TrackPointExtension>
        </extensions>
      </trkpt>
      <trkpt lat="36.78902126848697662353515625" lon="-118.41318215243518352508544921875">
        <ele>3595</ele>
        <time>2021-06-25T21:56:31.000Z</time>
        <extensions>
          <ns3:TrackPointExtension>
            <ns3:atemp>29.0</ns3:atemp>
            <ns3:hr>124</ns3:hr>
          </ns3:TrackPointExtension>
        </extensions>
      </trkpt>
      <trkpt lat="36.7890257947146892547607421875" lon="-118.41323948465287685394287109375">
        <ele>3596</ele>
        <time>2021-06-25T21:56:40.000Z</time>
        <extensions>
          <ns3:TrackPointExtension>
            <ns3:atemp>29.0</ns3:atemp>
            <ns3:hr>124</ns3:hr>
          </ns3:TrackPointExtension>
        </extensions>
      </trkpt>
      <trkpt lat="36.7890273034572601318359375" lon="-118.41325004585087299346923828125">
        <ele>3596</ele>
        <time>2021-06-25T21:56:41.000Z</time>
        <extensions>
          <ns3:TrackPointExtension>
            <ns3:atemp>29.0</ns3:atemp>
            <ns3:hr>122</ns3:hr>
          </ns3:TrackPointExtension>
        </extensions>
      </trkpt>
      <trkpt lat="36.7890341766178607940673828125" lon="-118.41332472860813140869140625">
        <ele>3597</ele>
        <time>2021-06-25T21:56:50.000Z</time>
        <extensions>
          <ns3:TrackPointExtension>
            <ns3:atemp>29.0</ns3:atemp>
            <ns3:hr>120</ns3:hr>
          </ns3:TrackPointExtension>
        </extensions>
      </trkpt>
      <trkpt lat="36.7890365235507488250732421875" lon="-118.41333185322582721710205078125">
        <ele>3597.199951171875</ele>
        <time>2021-06-25T21:56:51.000Z</time>
        <extensions>
          <ns3:TrackPointExtension>
            <ns3:atemp>29.0</ns3:atemp>
            <ns3:hr>123</ns3:hr>
          </ns3:TrackPointExtension>
        </extensions>
      </trkpt>
      <trkpt lat="36.78906560875475406646728515625" lon="-118.4133155085146427154541015625">
        <ele>3598.199951171875</ele>
        <time>2021-06-25T21:56:56.000Z</time>
        <extensions>
          <ns3:TrackPointExtension>
            <ns3:atemp>29.0</ns3:atemp>
            <ns3:hr>123</ns3:hr>
          </ns3:TrackPointExtension>
        </extensions>
      </trkpt>
      <trkpt lat="36.7890884913504123687744140625" lon="-118.413272760808467864990234375">
        <ele>3599</ele>
        <time>2021-06-25T21:57:04.000Z</time>
        <extensions>
          <ns3:TrackPointExtension>
            <ns3:atemp>29.0</ns3:atemp>
            <ns3:hr>121</ns3:hr>
          </ns3:TrackPointExtension>
        </extensions>
      </trkpt>
      <trkpt lat="36.789096705615520477294921875" lon="-118.4132690727710723876953125">
        <ele>3599.199951171875</ele>
        <time>2021-06-25T21:57:05.000Z</time>
        <extensions>
          <ns3:TrackPointExtension>
            <ns3:atemp>29.0</ns3:atemp>
            <ns3:hr>120</ns3:hr>
          </ns3:TrackPointExtension>
        </extensions>
      </trkpt>
      <trkpt lat="36.7891072668135166168212890625" lon="-118.4132397361099720001220703125">
        <ele>3599.800048828125</ele>
        <time>2021-06-25T21:57:08.000Z</time>
        <extensions>
          <ns3:TrackPointExtension>
            <ns3:atemp>29.0</ns3:atemp>
            <ns3:hr>117</ns3:hr>
          </ns3:TrackPointExtension>
        </extensions>
      </trkpt>
      <trkpt lat="36.78912327624857425689697265625" lon="-118.41321266256272792816162109375">
        <ele>3600.199951171875</ele>
        <time>2021-06-25T21:57:12.000Z</time>
        <extensions>
          <ns3:TrackPointExtension>
            <ns3:atemp>29.0</ns3:atemp>
            <ns3:hr>119</ns3:hr>
          </ns3:TrackPointExtension>
        </extensions>
      </trkpt>
      <trkpt lat="36.7891253717243671417236328125" lon="-118.41320679523050785064697265625">
        <ele>3600.39990234375</ele>
        <time>2021-06-25T21:57:13.000Z</time>
        <extensions>
          <ns3:TrackPointExtension>
            <ns3:atemp>29.0</ns3:atemp>
            <ns3:hr>119</ns3:hr>
          </ns3:TrackPointExtension>
        </extensions>
      </trkpt>
      <trkpt lat="36.78915001451969146728515625" lon="-118.41317360289394855499267578125">
        <ele>3601</ele>
        <time>2021-06-25T21:57:17.000Z</time>
        <extensions>
          <ns3:TrackPointExtension>
            <ns3:atemp>29.0</ns3:atemp>
            <ns3:hr>122</ns3:hr>
          </ns3:TrackPointExtension>
        </extensions>
      </trkpt>
      <trkpt lat="36.78915764205157756805419921875" lon="-118.41314946301281452178955078125">
        <ele>3601.60009765625</ele>
        <time>2021-06-25T21:57:20.000Z</time>
        <extensions>
          <ns3:TrackPointExtension>
            <ns3:atemp>29.0</ns3:atemp>
            <ns3:hr>124</ns3:hr>
          </ns3:TrackPointExtension>
        </extensions>
      </trkpt>
      <trkpt lat="36.78916401229798793792724609375" lon="-118.41312968172132968902587890625">
        <ele>3601.800048828125</ele>
        <time>2021-06-25T21:57:22.000Z</time>
        <extensions>
          <ns3:TrackPointExtension>
            <ns3:atemp>29.0</ns3:atemp>
            <ns3:hr>126</ns3:hr>
          </ns3:TrackPointExtension>
        </extensions>
      </trkpt>
      <trkpt lat="36.78918010555207729339599609375" lon="-118.413093723356723785400390625">
        <ele>3601.800048828125</ele>
        <time>2021-06-25T21:57:28.000Z</time>
        <extensions>
          <ns3:TrackPointExtension>
            <ns3:atemp>29.0</ns3:atemp>
            <ns3:hr>129</ns3:hr>
          </ns3:TrackPointExtension>
        </extensions>
      </trkpt>
      <trkpt lat="36.78917348384857177734375" lon="-118.4131113253533840179443359375">
        <ele>3602</ele>
        <time>2021-06-25T21:57:31.000Z</time>
        <extensions>
          <ns3:TrackPointExtension>
            <ns3:atemp>29.0</ns3:atemp>
            <ns3:hr>130</ns3:hr>
          </ns3:TrackPointExtension>
        </extensions>
      </trkpt>
      <trkpt lat="36.78917189128696918487548828125" lon="-118.4131188690662384033203125">
        <ele>3601.800048828125</ele>
        <time>2021-06-25T21:57:32.000Z</time>
        <extensions>
          <ns3:TrackPointExtension>
            <ns3:atemp>29.0</ns3:atemp>
            <ns3:hr>127</ns3:hr>
          </ns3:TrackPointExtension>
        </extensions>
      </trkpt>
      <trkpt lat="36.78917675279080867767333984375" lon="-118.41311895288527011871337890625">
        <ele>3602</ele>
        <time>2021-06-25T21:57:38.000Z</time>
        <extensions>
          <ns3:TrackPointExtension>
            <ns3:atemp>29.0</ns3:atemp>
            <ns3:hr>125</ns3:hr>
          </ns3:TrackPointExtension>
        </extensions>
      </trkpt>
      <trkpt lat="36.78917675279080867767333984375" lon="-118.41311895288527011871337890625">
        <ele>3602</ele>
        <time>2021-06-25T21:57:42.000Z</time>
        <extensions>
          <ns3:TrackPointExtension>
            <ns3:atemp>29.0</ns3:atemp>
            <ns3:hr>120</ns3:hr>
          </ns3:TrackPointExtension>
        </extensions>
      </trkpt>
      <trkpt lat="36.78917675279080867767333984375" lon="-118.41311895288527011871337890625">
        <ele>3602.199951171875</ele>
        <time>2021-06-25T21:57:43.000Z</time>
        <extensions>
          <ns3:TrackPointExtension>
            <ns3:atemp>29.0</ns3:atemp>
            <ns3:hr>123</ns3:hr>
          </ns3:TrackPointExtension>
        </extensions>
      </trkpt>
      <trkpt lat="36.7891759984195232391357421875" lon="-118.41311895288527011871337890625">
        <ele>3602.800048828125</ele>
        <time>2021-06-25T21:57:48.000Z</time>
        <extensions>
          <ns3:TrackPointExtension>
            <ns3:atemp>29.0</ns3:atemp>
            <ns3:hr>123</ns3:hr>
          </ns3:TrackPointExtension>
        </extensions>
      </trkpt>
      <trkpt lat="36.78916635923087596893310546875" lon="-118.4131555818021297454833984375">
        <ele>3603.39990234375</ele>
        <time>2021-06-25T21:57:56.000Z</time>
        <extensions>
          <ns3:TrackPointExtension>
            <ns3:atemp>29.0</ns3:atemp>
            <ns3:hr>120</ns3:hr>
          </ns3:TrackPointExtension>
        </extensions>
      </trkpt>
      <trkpt lat="36.7891578935086727142333984375" lon="-118.413205705583095550537109375">
        <ele>3603.60009765625</ele>
        <time>2021-06-25T21:57:59.000Z</time>
        <extensions>
          <ns3:TrackPointExtension>
            <ns3:atemp>29.0</ns3:atemp>
            <ns3:hr>119</ns3:hr>
          </ns3:TrackPointExtension>
        </extensions>
      </trkpt>
      <trkpt lat="36.78914624266326427459716796875" lon="-118.41327368281781673431396484375">
        <ele>3603.800048828125</ele>
        <time>2021-06-25T21:58:04.000Z</time>
        <extensions>
          <ns3:TrackPointExtension>
            <ns3:atemp>29.0</ns3:atemp>
            <ns3:hr>118</ns3:hr>
          </ns3:TrackPointExtension>
        </extensions>
      </trkpt>
      <trkpt lat="36.789141632616519927978515625" lon="-118.41332229785621166229248046875">
        <ele>3604.199951171875</ele>
        <time>2021-06-25T21:58:08.000Z</time>
        <extensions>
          <ns3:TrackPointExtension>
            <ns3:atemp>29.0</ns3:atemp>
            <ns3:hr>115</ns3:hr>
          </ns3:TrackPointExtension>
        </extensions>
      </trkpt>
      <trkpt lat="36.78913970477879047393798828125" lon="-118.41334241442382335662841796875">
        <ele>3604.39990234375</ele>
        <time>2021-06-25T21:58:10.000Z</time>
        <extensions>
          <ns3:TrackPointExtension>
            <ns3:atemp>29.0</ns3:atemp>
            <ns3:hr>112</ns3:hr>
          </ns3:TrackPointExtension>
        </extensions>
      </trkpt>
      <trkpt lat="36.7891384474933147430419921875" lon="-118.41334811411798000335693359375">
        <ele>3604.60009765625</ele>
        <time>2021-06-25T21:58:11.000Z</time>
        <extensions>
          <ns3:TrackPointExtension>
            <ns3:atemp>29.0</ns3:atemp>
            <ns3:hr>112</ns3:hr>
          </ns3:TrackPointExtension>
        </extensions>
      </trkpt>
      <trkpt lat="36.78913903422653675079345703125" lon="-118.41336353681981563568115234375">
        <ele>3604.800048828125</ele>
        <time>2021-06-25T21:58:13.000Z</time>
        <extensions>
          <ns3:TrackPointExtension>
            <ns3:atemp>29.0</ns3:atemp>
            <ns3:hr>111</ns3:hr>
          </ns3:TrackPointExtension>
        </extensions>
      </trkpt>
      <trkpt lat="36.78915269672870635986328125" lon="-118.41338030062615871429443359375">
        <ele>3605.199951171875</ele>
        <time>2021-06-25T21:58:15.000Z</time>
        <extensions>
          <ns3:TrackPointExtension>
            <ns3:atemp>29.0</ns3:atemp>
            <ns3:hr>111</ns3:hr>
          </ns3:TrackPointExtension>
        </extensions>
      </trkpt>
      <trkpt lat="36.78915563039481639862060546875" lon="-118.41338247992098331451416015625">
        <ele>3605.39990234375</ele>
        <time>2021-06-25T21:58:16.000Z</time>
        <extensions>
          <ns3:TrackPointExtension>
            <ns3:atemp>29.0</ns3:atemp>
            <ns3:hr>111</ns3:hr>
          </ns3:TrackPointExtension>
        </extensions>
      </trkpt>
      <trkpt lat="36.78915881551802158355712890625" lon="-118.4133875928819179534912109375">
        <ele>3605.60009765625</ele>
        <time>2021-06-25T21:58:19.000Z</time>
        <extensions>
          <ns3:TrackPointExtension>
            <ns3:atemp>29.0</ns3:atemp>
            <ns3:hr>112</ns3:hr>
          </ns3:TrackPointExtension>
        </extensions>
      </trkpt>
      <trkpt lat="36.789156384766101837158203125" lon="-118.41338985599577426910400390625">
        <ele>3605.800048828125</ele>
        <time>2021-06-25T21:58:22.000Z</time>
        <extensions>
          <ns3:TrackPointExtension>
            <ns3:atemp>29.0</ns3:atemp>
            <ns3:hr>115</ns3:hr>
          </ns3:TrackPointExtension>
        </extensions>
      </trkpt>
      <trkpt lat="36.78915596567094326019287109375" lon="-118.4133839048445224761962890625">
        <ele>3605.800048828125</ele>
        <time>2021-06-25T21:58:27.000Z</time>
        <extensions>
          <ns3:TrackPointExtension>
            <ns3:atemp>29.0</ns3:atemp>
            <ns3:hr>118</ns3:hr>
          </ns3:TrackPointExtension>
        </extensions>
      </trkpt>
      <trkpt lat="36.78915596567094326019287109375" lon="-118.4133839048445224761962890625">
        <ele>3605.199951171875</ele>
        <time>2021-06-25T21:58:37.000Z</time>
        <extensions>
          <ns3:TrackPointExtension>
            <ns3:atemp>29.0</ns3:atemp>
            <ns3:hr>115</ns3:hr>
          </ns3:TrackPointExtension>
        </extensions>
      </trkpt>
      <trkpt lat="36.789155714213848114013671875" lon="-118.4133751876652240753173828125">
        <ele>3605.199951171875</ele>
        <time>2021-06-25T21:58:42.000Z</time>
        <extensions>
          <ns3:TrackPointExtension>
            <ns3:atemp>29.0</ns3:atemp>
            <ns3:hr>112</ns3:hr>
          </ns3:TrackPointExtension>
        </extensions>
      </trkpt>
      <trkpt lat="36.7891474999487400054931640625" lon="-118.413347192108631134033203125">
        <ele>3605.39990234375</ele>
        <time>2021-06-25T21:58:46.000Z</time>
        <extensions>
          <ns3:TrackPointExtension>
            <ns3:atemp>29.0</ns3:atemp>
            <ns3:hr>109</ns3:hr>
          </ns3:TrackPointExtension>
        </extensions>
      </trkpt>
      <trkpt lat="36.78914573974907398223876953125" lon="-118.4133227169513702392578125">
        <ele>3606.39990234375</ele>
        <time>2021-06-25T21:58:57.000Z</time>
        <extensions>
          <ns3:TrackPointExtension>
            <ns3:atemp>29.0</ns3:atemp>
            <ns3:hr>110</ns3:hr>
          </ns3:TrackPointExtension>
        </extensions>
      </trkpt>
      <trkpt lat="36.7891974560916423797607421875" lon="-118.41325356625020503997802734375">
        <ele>3607.39990234375</ele>
        <time>2021-06-25T21:59:05.000Z</time>
        <extensions>
          <ns3:TrackPointExtension>
            <ns3:atemp>29.0</ns3:atemp>
            <ns3:hr>111</ns3:hr>
          </ns3:TrackPointExtension>
        </extensions>
      </trkpt>
      <trkpt lat="36.789208687841892242431640625" lon="-118.41322280466556549072265625">
        <ele>3607.39990234375</ele>
        <time>2021-06-25T21:59:07.000Z</time>
        <extensions>
          <ns3:TrackPointExtension>
            <ns3:atemp>29.0</ns3:atemp>
            <ns3:hr>111</ns3:hr>
          </ns3:TrackPointExtension>
        </extensions>
      </trkpt>
      <trkpt lat="36.78922520019114017486572265625" lon="-118.41319858096539974212646484375">
        <ele>3607.39990234375</ele>
        <time>2021-06-25T21:59:09.000Z</time>
        <extensions>
          <ns3:TrackPointExtension>
            <ns3:atemp>29.0</ns3:atemp>
            <ns3:hr>111</ns3:hr>
          </ns3:TrackPointExtension>
        </extensions>
      </trkpt>
      <trkpt lat="36.7892391979694366455078125" lon="-118.41317829675972461700439453125">
        <ele>3608</ele>
        <time>2021-06-25T21:59:12.000Z</time>
        <extensions>
          <ns3:TrackPointExtension>
            <ns3:atemp>29.0</ns3:atemp>
            <ns3:hr>109</ns3:hr>
          </ns3:TrackPointExtension>
        </extensions>
      </trkpt>
      <trkpt lat="36.7892487533390522003173828125" lon="-118.41316823847591876983642578125">
        <ele>3608</ele>
        <time>2021-06-25T21:59:14.000Z</time>
        <extensions>
          <ns3:TrackPointExtension>
            <ns3:atemp>29.0</ns3:atemp>
            <ns3:hr>109</ns3:hr>
          </ns3:TrackPointExtension>
        </extensions>
      </trkpt>
      <trkpt lat="36.789251267910003662109375" lon="-118.413157425820827484130859375">
        <ele>3608.199951171875</ele>
        <time>2021-06-25T21:59:15.000Z</time>
        <extensions>
          <ns3:TrackPointExtension>
            <ns3:atemp>29.0</ns3:atemp>
            <ns3:hr>111</ns3:hr>
          </ns3:TrackPointExtension>
        </extensions>
      </trkpt>
      <trkpt lat="36.78926358930766582489013671875" lon="-118.4131398238241672515869140625">
        <ele>3608.39990234375</ele>
        <time>2021-06-25T21:59:17.000Z</time>
        <extensions>
          <ns3:TrackPointExtension>
            <ns3:atemp>29.0</ns3:atemp>
            <ns3:hr>111</ns3:hr>
          </ns3:TrackPointExtension>
        </extensions>
      </trkpt>
      <trkpt lat="36.789279095828533172607421875" lon="-118.41311342082917690277099609375">
        <ele>3609</ele>
        <time>2021-06-25T21:59:21.000Z</time>
        <extensions>
          <ns3:TrackPointExtension>
            <ns3:atemp>29.0</ns3:atemp>
            <ns3:hr>110</ns3:hr>
          </ns3:TrackPointExtension>
        </extensions>
      </trkpt>
      <trkpt lat="36.78927876055240631103515625" lon="-118.4131143428385257720947265625">
        <ele>3609</ele>
        <time>2021-06-25T21:59:23.000Z</time>
        <extensions>
          <ns3:TrackPointExtension>
            <ns3:atemp>29.0</ns3:atemp>
            <ns3:hr>112</ns3:hr>
          </ns3:TrackPointExtension>
        </extensions>
      </trkpt>
      <trkpt lat="36.78927532397210597991943359375" lon="-118.41312398202717304229736328125">
        <ele>3609.60009765625</ele>
        <time>2021-06-25T21:59:25.000Z</time>
        <extensions>
          <ns3:TrackPointExtension>
            <ns3:atemp>29.0</ns3:atemp>
            <ns3:hr>112</ns3:hr>
          </ns3:TrackPointExtension>
        </extensions>
      </trkpt>
      <trkpt lat="36.7892504297196865081787109375" lon="-118.4131716750562191009521484375">
        <ele>3610.199951171875</ele>
        <time>2021-06-25T21:59:30.000Z</time>
        <extensions>
          <ns3:TrackPointExtension>
            <ns3:atemp>29.0</ns3:atemp>
            <ns3:hr>109</ns3:hr>
          </ns3:TrackPointExtension>
        </extensions>
      </trkpt>
      <trkpt lat="36.78925621323287487030029296875" lon="-118.41322481632232666015625">
        <ele>3610.60009765625</ele>
        <time>2021-06-25T21:59:34.000Z</time>
        <extensions>
          <ns3:TrackPointExtension>
            <ns3:atemp>29.0</ns3:atemp>
            <ns3:hr>111</ns3:hr>
          </ns3:TrackPointExtension>
        </extensions>
      </trkpt>
      <trkpt lat="36.78925327956676483154296875" lon="-118.41327502392232418060302734375">
        <ele>3611.39990234375</ele>
        <time>2021-06-25T21:59:40.000Z</time>
        <extensions>
          <ns3:TrackPointExtension>
            <ns3:atemp>29.0</ns3:atemp>
            <ns3:hr>113</ns3:hr>
          </ns3:TrackPointExtension>
        </extensions>
      </trkpt>
      <trkpt lat="36.78925906307995319366455078125" lon="-118.41331676580011844635009765625">
        <ele>3611.800048828125</ele>
        <time>2021-06-25T21:59:44.000Z</time>
        <extensions>
          <ns3:TrackPointExtension>
            <ns3:atemp>29.0</ns3:atemp>
            <ns3:hr>115</ns3:hr>
          </ns3:TrackPointExtension>
        </extensions>
      </trkpt>
      <trkpt lat="36.78925604559481143951416015625" lon="-118.41335867531597614288330078125">
        <ele>3613</ele>
        <time>2021-06-25T21:59:48.000Z</time>
        <extensions>
          <ns3:TrackPointExtension>
            <ns3:atemp>29.0</ns3:atemp>
            <ns3:hr>115</ns3:hr>
          </ns3:TrackPointExtension>
        </extensions>
      </trkpt>
      <trkpt lat="36.78925017826259136199951171875" lon="-118.41337979771196842193603515625">
        <ele>3613.199951171875</ele>
        <time>2021-06-25T21:59:50.000Z</time>
        <extensions>
          <ns3:TrackPointExtension>
            <ns3:atemp>29.0</ns3:atemp>
            <ns3:hr>115</ns3:hr>
          </ns3:TrackPointExtension>
        </extensions>
      </trkpt>
      <trkpt lat="36.7892051674425601959228515625" lon="-118.413440398871898651123046875">
        <ele>3614.39990234375</ele>
        <time>2021-06-25T21:59:59.000Z</time>
        <extensions>
          <ns3:TrackPointExtension>
            <ns3:atemp>29.0</ns3:atemp>
            <ns3:hr>117</ns3:hr>
          </ns3:TrackPointExtension>
        </extensions>
      </trkpt>
      <trkpt lat="36.78919955156743526458740234375" lon="-118.413447104394435882568359375">
        <ele>3614.39990234375</ele>
        <time>2021-06-25T22:00:00.000Z</time>
        <extensions>
          <ns3:TrackPointExtension>
            <ns3:atemp>29.0</ns3:atemp>
            <ns3:hr>118</ns3:hr>
          </ns3:TrackPointExtension>
        </extensions>
      </trkpt>
      <trkpt lat="36.78918781690299510955810546875" lon="-118.41347987763583660125732421875">
        <ele>3614.60009765625</ele>
        <time>2021-06-25T22:00:04.000Z</time>
        <extensions>
          <ns3:TrackPointExtension>
            <ns3:atemp>29.0</ns3:atemp>
            <ns3:hr>121</ns3:hr>
          </ns3:TrackPointExtension>
        </extensions>
      </trkpt>
      <trkpt lat="36.7892071790993213653564453125" lon="-118.4134905226528644561767578125">
        <ele>3615.199951171875</ele>
        <time>2021-06-25T22:00:07.000Z</time>
        <extensions>
          <ns3:TrackPointExtension>
            <ns3:atemp>29.0</ns3:atemp>
            <ns3:hr>121</ns3:hr>
          </ns3:TrackPointExtension>
        </extensions>
      </trkpt>
      <trkpt lat="36.78921380080282688140869140625" lon="-118.41348976828157901763916015625">
        <ele>3615.39990234375</ele>
        <time>2021-06-25T22:00:08.000Z</time>
        <extensions>
          <ns3:TrackPointExtension>
            <ns3:atemp>29.0</ns3:atemp>
            <ns3:hr>120</ns3:hr>
          </ns3:TrackPointExtension>
        </extensions>
      </trkpt>
      <trkpt lat="36.789246909320354461669921875" lon="-118.41347551904618740081787109375">
        <ele>3616.199951171875</ele>
        <time>2021-06-25T22:00:13.000Z</time>
        <extensions>
          <ns3:TrackPointExtension>
            <ns3:atemp>29.0</ns3:atemp>
            <ns3:hr>117</ns3:hr>
          </ns3:TrackPointExtension>
        </extensions>
      </trkpt>
      <trkpt lat="36.78925939835608005523681640625" lon="-118.41345607303082942962646484375">
        <ele>3616.60009765625</ele>
        <time>2021-06-25T22:00:16.000Z</time>
        <extensions>
          <ns3:TrackPointExtension>
            <ns3:atemp>29.0</ns3:atemp>
            <ns3:hr>116</ns3:hr>
          </ns3:TrackPointExtension>
        </extensions>
      </trkpt>
      <trkpt lat="36.78926811553537845611572265625" lon="-118.41344886459410190582275390625">
        <ele>3616.800048828125</ele>
        <time>2021-06-25T22:00:17.000Z</time>
        <extensions>
          <ns3:TrackPointExtension>
            <ns3:atemp>29.0</ns3:atemp>
            <ns3:hr>117</ns3:hr>
          </ns3:TrackPointExtension>
        </extensions>
      </trkpt>
      <trkpt lat="36.78933642804622650146484375" lon="-118.41338784433901309967041015625">
        <ele>3617.800048828125</ele>
        <time>2021-06-25T22:00:26.000Z</time>
        <extensions>
          <ns3:TrackPointExtension>
            <ns3:atemp>29.0</ns3:atemp>
            <ns3:hr>118</ns3:hr>
          </ns3:TrackPointExtension>
        </extensions>
      </trkpt>
      <trkpt lat="36.78934053517878055572509765625" lon="-118.41338130645453929901123046875">
        <ele>3618</ele>
        <time>2021-06-25T22:00:27.000Z</time>
        <extensions>
          <ns3:TrackPointExtension>
            <ns3:atemp>29.0</ns3:atemp>
            <ns3:hr>118</ns3:hr>
          </ns3:TrackPointExtension>
        </extensions>
      </trkpt>
      <trkpt lat="36.78935042582452297210693359375" lon="-118.41337493620812892913818359375">
        <ele>3618.60009765625</ele>
        <time>2021-06-25T22:00:30.000Z</time>
        <extensions>
          <ns3:TrackPointExtension>
            <ns3:atemp>29.0</ns3:atemp>
            <ns3:hr>120</ns3:hr>
          </ns3:TrackPointExtension>
        </extensions>
      </trkpt>
      <trkpt lat="36.7893547005951404571533203125" lon="-118.41338667087256908416748046875">
        <ele>3618.800048828125</ele>
        <time>2021-06-25T22:00:32.000Z</time>
        <extensions>
          <ns3:TrackPointExtension>
            <ns3:atemp>29.0</ns3:atemp>
            <ns3:hr>122</ns3:hr>
          </ns3:TrackPointExtension>
        </extensions>
      </trkpt>
      <trkpt lat="36.7893526889383792877197265625" lon="-118.41339454986155033111572265625">
        <ele>3618.800048828125</ele>
        <time>2021-06-25T22:00:33.000Z</time>
        <extensions>
          <ns3:TrackPointExtension>
            <ns3:atemp>29.0</ns3:atemp>
            <ns3:hr>123</ns3:hr>
          </ns3:TrackPointExtension>
        </extensions>
      </trkpt>
      <trkpt lat="36.78934087045490741729736328125" lon="-118.41344282962381839752197265625">
        <ele>3619.800048828125</ele>
        <time>2021-06-25T22:00:40.000Z</time>
        <extensions>
          <ns3:TrackPointExtension>
            <ns3:atemp>29.0</ns3:atemp>
            <ns3:hr>123</ns3:hr>
          </ns3:TrackPointExtension>
        </extensions>
      </trkpt>
      <trkpt lat="36.7893245257437229156494140625" lon="-118.41346747241914272308349609375">
        <ele>3621</ele>
        <time>2021-06-25T22:00:45.000Z</time>
        <extensions>
          <ns3:TrackPointExtension>
            <ns3:atemp>29.0</ns3:atemp>
            <ns3:hr>122</ns3:hr>
          </ns3:TrackPointExtension>
        </extensions>
      </trkpt>
      <trkpt lat="36.78932033479213714599609375" lon="-118.41347468085587024688720703125">
        <ele>3621.39990234375</ele>
        <time>2021-06-25T22:00:46.000Z</time>
        <extensions>
          <ns3:TrackPointExtension>
            <ns3:atemp>29.0</ns3:atemp>
            <ns3:hr>121</ns3:hr>
          </ns3:TrackPointExtension>
        </extensions>
      </trkpt>
      <trkpt lat="36.78930968977510929107666015625" lon="-118.4135015867650508880615234375">
        <ele>3622.199951171875</ele>
        <time>2021-06-25T22:00:50.000Z</time>
        <extensions>
          <ns3:TrackPointExtension>
            <ns3:atemp>29.0</ns3:atemp>
            <ns3:hr>121</ns3:hr>
          </ns3:TrackPointExtension>
        </extensions>
      </trkpt>
      <trkpt lat="36.7892876453697681427001953125" lon="-118.41353419236838817596435546875">
        <ele>3622.800048828125</ele>
        <time>2021-06-25T22:00:55.000Z</time>
        <extensions>
          <ns3:TrackPointExtension>
            <ns3:atemp>29.0</ns3:atemp>
            <ns3:hr>120</ns3:hr>
          </ns3:TrackPointExtension>
        </extensions>
      </trkpt>
      <trkpt lat="36.78928806446492671966552734375" lon="-118.41354995034635066986083984375">
        <ele>3623.199951171875</ele>
        <time>2021-06-25T22:00:57.000Z</time>
        <extensions>
          <ns3:TrackPointExtension>
            <ns3:atemp>29.0</ns3:atemp>
            <ns3:hr>120</ns3:hr>
          </ns3:TrackPointExtension>
        </extensions>
      </trkpt>
      <trkpt lat="36.7893037386238574981689453125" lon="-118.41355782933533191680908203125">
        <ele>3623.800048828125</ele>
        <time>2021-06-25T22:01:01.000Z</time>
        <extensions>
          <ns3:TrackPointExtension>
            <ns3:atemp>29.0</ns3:atemp>
            <ns3:hr>120</ns3:hr>
          </ns3:TrackPointExtension>
        </extensions>
      </trkpt>
      <trkpt lat="36.7893171496689319610595703125" lon="-118.41355313546955585479736328125">
        <ele>3624.199951171875</ele>
        <time>2021-06-25T22:01:03.000Z</time>
        <extensions>
          <ns3:TrackPointExtension>
            <ns3:atemp>29.0</ns3:atemp>
            <ns3:hr>120</ns3:hr>
          </ns3:TrackPointExtension>
        </extensions>
      </trkpt>
      <trkpt lat="36.78933114744722843170166015625" lon="-118.41353771276772022247314453125">
        <ele>3624.800048828125</ele>
        <time>2021-06-25T22:01:07.000Z</time>
        <extensions>
          <ns3:TrackPointExtension>
            <ns3:atemp>28.0</ns3:atemp>
            <ns3:hr>120</ns3:hr>
          </ns3:TrackPointExtension>
        </extensions>
      </trkpt>
      <trkpt lat="36.78933450020849704742431640625" lon="-118.4135337732732295989990234375">
        <ele>3625</ele>
        <time>2021-06-25T22:01:08.000Z</time>
        <extensions>
          <ns3:TrackPointExtension>
            <ns3:atemp>28.0</ns3:atemp>
            <ns3:hr>123</ns3:hr>
          </ns3:TrackPointExtension>
        </extensions>
      </trkpt>
      <trkpt lat="36.7893464863300323486328125" lon="-118.41351541690528392791748046875">
        <ele>3625.39990234375</ele>
        <time>2021-06-25T22:01:12.000Z</time>
        <extensions>
          <ns3:TrackPointExtension>
            <ns3:atemp>28.0</ns3:atemp>
            <ns3:hr>123</ns3:hr>
          </ns3:TrackPointExtension>
        </extensions>
      </trkpt>
      <trkpt lat="36.789351515471935272216796875" lon="-118.413506112992763519287109375">
        <ele>3625.60009765625</ele>
        <time>2021-06-25T22:01:14.000Z</time>
        <extensions>
          <ns3:TrackPointExtension>
            <ns3:atemp>28.0</ns3:atemp>
            <ns3:hr>121</ns3:hr>
          </ns3:TrackPointExtension>
        </extensions>
      </trkpt>
      <trkpt lat="36.78937791846692562103271484375" lon="-118.4134925343096256256103515625">
        <ele>3626.60009765625</ele>
        <time>2021-06-25T22:01:19.000Z</time>
        <extensions>
          <ns3:TrackPointExtension>
            <ns3:atemp>28.0</ns3:atemp>
            <ns3:hr>122</ns3:hr>
          </ns3:TrackPointExtension>
        </extensions>
      </trkpt>
      <trkpt lat="36.78939267061650753021240234375" lon="-118.41348021291196346282958984375">
        <ele>3626.60009765625</ele>
        <time>2021-06-25T22:01:21.000Z</time>
        <extensions>
          <ns3:TrackPointExtension>
            <ns3:atemp>28.0</ns3:atemp>
            <ns3:hr>123</ns3:hr>
          </ns3:TrackPointExtension>
        </extensions>
      </trkpt>
      <trkpt lat="36.789412200450897216796875" lon="-118.41344987042248249053955078125">
        <ele>3626.60009765625</ele>
        <time>2021-06-25T22:01:24.000Z</time>
        <extensions>
          <ns3:TrackPointExtension>
            <ns3:atemp>28.0</ns3:atemp>
            <ns3:hr>126</ns3:hr>
          </ns3:TrackPointExtension>
        </extensions>
      </trkpt>
      <trkpt lat="36.789427287876605987548828125" lon="-118.41341030783951282501220703125">
        <ele>3626.800048828125</ele>
        <time>2021-06-25T22:01:28.000Z</time>
        <extensions>
          <ns3:TrackPointExtension>
            <ns3:atemp>28.0</ns3:atemp>
            <ns3:hr>130</ns3:hr>
          </ns3:TrackPointExtension>
        </extensions>
      </trkpt>
      <trkpt lat="36.789427287876605987548828125" lon="-118.4133963100612163543701171875">
        <ele>3627</ele>
        <time>2021-06-25T22:01:29.000Z</time>
        <extensions>
          <ns3:TrackPointExtension>
            <ns3:atemp>28.0</ns3:atemp>
            <ns3:hr>128</ns3:hr>
          </ns3:TrackPointExtension>
        </extensions>
      </trkpt>
      <trkpt lat="36.7894532717764377593994140625" lon="-118.41336219571530818939208984375">
        <ele>3627.800048828125</ele>
        <time>2021-06-25T22:01:34.000Z</time>
        <extensions>
          <ns3:TrackPointExtension>
            <ns3:atemp>28.0</ns3:atemp>
            <ns3:hr>130</ns3:hr>
          </ns3:TrackPointExtension>
        </extensions>
      </trkpt>
      <trkpt lat="36.78945771418511867523193359375" lon="-118.41335825622081756591796875">
        <ele>3627.800048828125</ele>
        <time>2021-06-25T22:01:35.000Z</time>
        <extensions>
          <ns3:TrackPointExtension>
            <ns3:atemp>28.0</ns3:atemp>
            <ns3:hr>130</ns3:hr>
          </ns3:TrackPointExtension>
        </extensions>
      </trkpt>
      <trkpt lat="36.7894710414111614227294921875" lon="-118.41333705000579357147216796875">
        <ele>3628.800048828125</ele>
        <time>2021-06-25T22:01:39.000Z</time>
        <extensions>
          <ns3:TrackPointExtension>
            <ns3:atemp>29.0</ns3:atemp>
            <ns3:hr>133</ns3:hr>
          </ns3:TrackPointExtension>
        </extensions>
      </trkpt>
      <trkpt lat="36.78947967477142810821533203125" lon="-118.41333185322582721710205078125">
        <ele>3628.800048828125</ele>
        <time>2021-06-25T22:01:40.000Z</time>
        <extensions>
          <ns3:TrackPointExtension>
            <ns3:atemp>28.0</ns3:atemp>
            <ns3:hr>133</ns3:hr>
          </ns3:TrackPointExtension>
        </extensions>
      </trkpt>
      <trkpt lat="36.7894886434078216552734375" lon="-118.41331039555370807647705078125">
        <ele>3630</ele>
        <time>2021-06-25T22:01:43.000Z</time>
        <extensions>
          <ns3:TrackPointExtension>
            <ns3:atemp>29.0</ns3:atemp>
            <ns3:hr>134</ns3:hr>
          </ns3:TrackPointExtension>
        </extensions>
      </trkpt>
      <trkpt lat="36.7895132862031459808349609375" lon="-118.41330318711698055267333984375">
        <ele>3631.39990234375</ele>
        <time>2021-06-25T22:01:46.000Z</time>
        <extensions>
          <ns3:TrackPointExtension>
            <ns3:atemp>28.0</ns3:atemp>
            <ns3:hr>132</ns3:hr>
          </ns3:TrackPointExtension>
        </extensions>
      </trkpt>
      <trkpt lat="36.7895330674946308135986328125" lon="-118.41330201365053653717041015625">
        <ele>3632</ele>
        <time>2021-06-25T22:01:49.000Z</time>
        <extensions>
          <ns3:TrackPointExtension>
            <ns3:atemp>28.0</ns3:atemp>
            <ns3:hr>131</ns3:hr>
          </ns3:TrackPointExtension>
        </extensions>
      </trkpt>
      <trkpt lat="36.789543293416500091552734375" lon="-118.41327183879911899566650390625">
        <ele>3632.60009765625</ele>
        <time>2021-06-25T22:01:55.000Z</time>
        <extensions>
          <ns3:TrackPointExtension>
            <ns3:atemp>28.0</ns3:atemp>
            <ns3:hr>131</ns3:hr>
          </ns3:TrackPointExtension>
        </extensions>
      </trkpt>
      <trkpt lat="36.78954471834003925323486328125" lon="-118.413267396390438079833984375">
        <ele>3632.60009765625</ele>
        <time>2021-06-25T22:01:56.000Z</time>
        <extensions>
          <ns3:TrackPointExtension>
            <ns3:atemp>28.0</ns3:atemp>
            <ns3:hr>131</ns3:hr>
          </ns3:TrackPointExtension>
        </extensions>
      </trkpt>
      <trkpt lat="36.78955477662384510040283203125" lon="-118.41324183158576488494873046875">
        <ele>3633.800048828125</ele>
        <time>2021-06-25T22:02:00.000Z</time>
        <extensions>
          <ns3:TrackPointExtension>
            <ns3:atemp>28.0</ns3:atemp>
            <ns3:hr>131</ns3:hr>
          </ns3:TrackPointExtension>
        </extensions>
      </trkpt>
      <trkpt lat="36.7895538546144962310791015625" lon="-118.413198329508304595947265625">
        <ele>3634.199951171875</ele>
        <time>2021-06-25T22:02:05.000Z</time>
        <extensions>
          <ns3:TrackPointExtension>
            <ns3:atemp>28.0</ns3:atemp>
            <ns3:hr>131</ns3:hr>
          </ns3:TrackPointExtension>
        </extensions>
      </trkpt>
      <trkpt lat="36.7895374260842800140380859375" lon="-118.41318332590162754058837890625">
        <ele>3634.800048828125</ele>
        <time>2021-06-25T22:02:08.000Z</time>
        <extensions>
          <ns3:TrackPointExtension>
            <ns3:atemp>28.0</ns3:atemp>
            <ns3:hr>132</ns3:hr>
          </ns3:TrackPointExtension>
        </extensions>
      </trkpt>
      <trkpt lat="36.78952828980982303619384765625" lon="-118.41316773556172847747802734375">
        <ele>3635.60009765625</ele>
        <time>2021-06-25T22:02:12.000Z</time>
        <extensions>
          <ns3:TrackPointExtension>
            <ns3:atemp>28.0</ns3:atemp>
            <ns3:hr>135</ns3:hr>
          </ns3:TrackPointExtension>
        </extensions>
      </trkpt>
      <trkpt lat="36.78953281603753566741943359375" lon="-118.4131676517426967620849609375">
        <ele>3636</ele>
        <time>2021-06-25T22:02:14.000Z</time>
        <extensions>
          <ns3:TrackPointExtension>
            <ns3:atemp>28.0</ns3:atemp>
            <ns3:hr>136</ns3:hr>
          </ns3:TrackPointExtension>
        </extensions>
      </trkpt>
      <trkpt lat="36.7895414493978023529052734375" lon="-118.41313202865421772003173828125">
        <ele>3636.199951171875</ele>
        <time>2021-06-25T22:02:18.000Z</time>
        <extensions>
          <ns3:TrackPointExtension>
            <ns3:atemp>28.0</ns3:atemp>
            <ns3:hr>136</ns3:hr>
          </ns3:TrackPointExtension>
        </extensions>
      </trkpt>
      <trkpt lat="36.78952828980982303619384765625" lon="-118.41308534145355224609375">
        <ele>3637</ele>
        <time>2021-06-25T22:02:24.000Z</time>
        <extensions>
          <ns3:TrackPointExtension>
            <ns3:atemp>28.0</ns3:atemp>
            <ns3:hr>136</ns3:hr>
          </ns3:TrackPointExtension>
        </extensions>
      </trkpt>
      <trkpt lat="36.78952393122017383575439453125" lon="-118.4130697511136531829833984375">
        <ele>3638.199951171875</ele>
        <time>2021-06-25T22:02:26.000Z</time>
        <extensions>
          <ns3:TrackPointExtension>
            <ns3:atemp>28.0</ns3:atemp>
            <ns3:hr>135</ns3:hr>
          </ns3:TrackPointExtension>
        </extensions>
      </trkpt>
      <trkpt lat="36.7895280383527278900146484375" lon="-118.41299758292734622955322265625">
        <ele>3638.60009765625</ele>
        <time>2021-06-25T22:02:33.000Z</time>
        <extensions>
          <ns3:TrackPointExtension>
            <ns3:atemp>28.0</ns3:atemp>
            <ns3:hr>137</ns3:hr>
          </ns3:TrackPointExtension>
        </extensions>
      </trkpt>
      <trkpt lat="36.78952820599079132080078125" lon="-118.41294142417609691619873046875">
        <ele>3639.199951171875</ele>
        <time>2021-06-25T22:02:38.000Z</time>
        <extensions>
          <ns3:TrackPointExtension>
            <ns3:atemp>28.0</ns3:atemp>
            <ns3:hr>137</ns3:hr>
          </ns3:TrackPointExtension>
        </extensions>
      </trkpt>
      <trkpt lat="36.7895287089049816131591796875" lon="-118.4129104949533939361572265625">
        <ele>3639.800048828125</ele>
        <time>2021-06-25T22:02:41.000Z</time>
        <extensions>
          <ns3:TrackPointExtension>
            <ns3:atemp>28.0</ns3:atemp>
            <ns3:hr>136</ns3:hr>
          </ns3:TrackPointExtension>
        </extensions>
      </trkpt>
      <trkpt lat="36.78953482769429683685302734375" lon="-118.41290806420147418975830078125">
        <ele>3640</ele>
        <time>2021-06-25T22:02:46.000Z</time>
        <extensions>
          <ns3:TrackPointExtension>
            <ns3:atemp>28.0</ns3:atemp>
            <ns3:hr>133</ns3:hr>
          </ns3:TrackPointExtension>
        </extensions>
      </trkpt>
      <trkpt lat="36.78953214548528194427490234375" lon="-118.412909321486949920654296875">
        <ele>3640</ele>
        <time>2021-06-25T22:02:48.000Z</time>
        <extensions>
          <ns3:TrackPointExtension>
            <ns3:atemp>28.0</ns3:atemp>
            <ns3:hr>133</ns3:hr>
          </ns3:TrackPointExtension>
        </extensions>
      </trkpt>
      <trkpt lat="36.789537258446216583251953125" lon="-118.41295684687793254852294921875">
        <ele>3640.60009765625</ele>
        <time>2021-06-25T22:02:55.000Z</time>
        <extensions>
          <ns3:TrackPointExtension>
            <ns3:atemp>28.0</ns3:atemp>
            <ns3:hr>131</ns3:hr>
          </ns3:TrackPointExtension>
        </extensions>
      </trkpt>
      <trkpt lat="36.78953734226524829864501953125" lon="-118.41296304948627948760986328125">
        <ele>3640.60009765625</ele>
        <time>2021-06-25T22:02:56.000Z</time>
        <extensions>
          <ns3:TrackPointExtension>
            <ns3:atemp>28.0</ns3:atemp>
            <ns3:hr>131</ns3:hr>
          </ns3:TrackPointExtension>
        </extensions>
      </trkpt>
      <trkpt lat="36.78955460898578166961669921875" lon="-118.41303580440580844879150390625">
        <ele>3641.800048828125</ele>
        <time>2021-06-25T22:03:04.000Z</time>
        <extensions>
          <ns3:TrackPointExtension>
            <ns3:atemp>28.0</ns3:atemp>
            <ns3:hr>131</ns3:hr>
          </ns3:TrackPointExtension>
        </extensions>
      </trkpt>
      <trkpt lat="36.78955796174705028533935546875" lon="-118.41305793263018131256103515625">
        <ele>3642.39990234375</ele>
        <time>2021-06-25T22:03:07.000Z</time>
        <extensions>
          <ns3:TrackPointExtension>
            <ns3:atemp>28.0</ns3:atemp>
            <ns3:hr>131</ns3:hr>
          </ns3:TrackPointExtension>
        </extensions>
      </trkpt>
      <trkpt lat="36.78957321681082248687744140625" lon="-118.4130764566361904144287109375">
        <ele>3642.60009765625</ele>
        <time>2021-06-25T22:03:10.000Z</time>
        <extensions>
          <ns3:TrackPointExtension>
            <ns3:atemp>28.0</ns3:atemp>
            <ns3:hr>127</ns3:hr>
          </ns3:TrackPointExtension>
        </extensions>
      </trkpt>
      <trkpt lat="36.78958612494170665740966796875" lon="-118.41307201422750949859619140625">
        <ele>3643.199951171875</ele>
        <time>2021-06-25T22:03:12.000Z</time>
        <extensions>
          <ns3:TrackPointExtension>
            <ns3:atemp>28.0</ns3:atemp>
            <ns3:hr>126</ns3:hr>
          </ns3:TrackPointExtension>
        </extensions>
      </trkpt>
      <trkpt lat="36.789591573178768157958984375" lon="-118.41305022127926349639892578125">
        <ele>3643.60009765625</ele>
        <time>2021-06-25T22:03:14.000Z</time>
        <extensions>
          <ns3:TrackPointExtension>
            <ns3:atemp>28.0</ns3:atemp>
            <ns3:hr>125</ns3:hr>
          </ns3:TrackPointExtension>
        </extensions>
      </trkpt>
      <trkpt lat="36.7896152101457118988037109375" lon="-118.41297746635973453521728515625">
        <ele>3643.800048828125</ele>
        <time>2021-06-25T22:03:21.000Z</time>
        <extensions>
          <ns3:TrackPointExtension>
            <ns3:atemp>28.0</ns3:atemp>
            <ns3:hr>123</ns3:hr>
          </ns3:TrackPointExtension>
        </extensions>
      </trkpt>
      <trkpt lat="36.7896245978772640228271484375" lon="-118.41296087019145488739013671875">
        <ele>3644.199951171875</ele>
        <time>2021-06-25T22:03:23.000Z</time>
        <extensions>
          <ns3:TrackPointExtension>
            <ns3:atemp>28.0</ns3:atemp>
            <ns3:hr>123</ns3:hr>
          </ns3:TrackPointExtension>
        </extensions>
      </trkpt>
      <trkpt lat="36.78962702862918376922607421875" lon="-118.41295148245990276336669921875">
        <ele>3644.199951171875</ele>
        <time>2021-06-25T22:03:24.000Z</time>
        <extensions>
          <ns3:TrackPointExtension>
            <ns3:atemp>28.0</ns3:atemp>
            <ns3:hr>123</ns3:hr>
          </ns3:TrackPointExtension>
        </extensions>
      </trkpt>
      <trkpt lat="36.78963138721883296966552734375" lon="-118.412934802472591400146484375">
        <ele>3644.60009765625</ele>
        <time>2021-06-25T22:03:26.000Z</time>
        <extensions>
          <ns3:TrackPointExtension>
            <ns3:atemp>28.0</ns3:atemp>
            <ns3:hr>120</ns3:hr>
          </ns3:TrackPointExtension>
        </extensions>
      </trkpt>
      <trkpt lat="36.789641194045543670654296875" lon="-118.41290756128728389739990234375">
        <ele>3644.800048828125</ele>
        <time>2021-06-25T22:03:29.000Z</time>
        <extensions>
          <ns3:TrackPointExtension>
            <ns3:atemp>28.0</ns3:atemp>
            <ns3:hr>117</ns3:hr>
          </ns3:TrackPointExtension>
        </extensions>
      </trkpt>
      <trkpt lat="36.78964354097843170166015625" lon="-118.41287721879780292510986328125">
        <ele>3645</ele>
        <time>2021-06-25T22:03:32.000Z</time>
        <extensions>
          <ns3:TrackPointExtension>
            <ns3:atemp>28.0</ns3:atemp>
            <ns3:hr>116</ns3:hr>
          </ns3:TrackPointExtension>
        </extensions>
      </trkpt>
      <trkpt lat="36.78964999504387378692626953125" lon="-118.412841595709323883056640625">
        <ele>3645</ele>
        <time>2021-06-25T22:03:40.000Z</time>
        <extensions>
          <ns3:TrackPointExtension>
            <ns3:atemp>28.0</ns3:atemp>
            <ns3:hr>115</ns3:hr>
          </ns3:TrackPointExtension>
        </extensions>
      </trkpt>
      <trkpt lat="36.7896611429750919342041015625" lon="-118.4128236584365367889404296875">
        <ele>3645.800048828125</ele>
        <time>2021-06-25T22:03:43.000Z</time>
        <extensions>
          <ns3:TrackPointExtension>
            <ns3:atemp>28.0</ns3:atemp>
            <ns3:hr>117</ns3:hr>
          </ns3:TrackPointExtension>
        </extensions>
      </trkpt>
      <trkpt lat="36.78966592065989971160888671875" lon="-118.41279306448996067047119140625">
        <ele>3646</ele>
        <time>2021-06-25T22:03:46.000Z</time>
        <extensions>
          <ns3:TrackPointExtension>
            <ns3:atemp>28.0</ns3:atemp>
            <ns3:hr>122</ns3:hr>
          </ns3:TrackPointExtension>
        </extensions>
      </trkpt>
      <trkpt lat="36.7896681837737560272216796875" lon="-118.4127820841968059539794921875">
        <ele>3646</ele>
        <time>2021-06-25T22:03:47.000Z</time>
        <extensions>
          <ns3:TrackPointExtension>
            <ns3:atemp>28.0</ns3:atemp>
            <ns3:hr>125</ns3:hr>
          </ns3:TrackPointExtension>
        </extensions>
      </trkpt>
      <trkpt lat="36.7896695248782634735107421875" lon="-118.41276406310498714447021484375">
        <ele>3646.199951171875</ele>
        <time>2021-06-25T22:03:49.000Z</time>
        <extensions>
          <ns3:TrackPointExtension>
            <ns3:atemp>28.0</ns3:atemp>
            <ns3:hr>128</ns3:hr>
          </ns3:TrackPointExtension>
        </extensions>
      </trkpt>
      <trkpt lat="36.78967145271599292755126953125" lon="-118.41274998150765895843505859375">
        <ele>3646.199951171875</ele>
        <time>2021-06-25T22:03:50.000Z</time>
        <extensions>
          <ns3:TrackPointExtension>
            <ns3:atemp>28.0</ns3:atemp>
            <ns3:hr>130</ns3:hr>
          </ns3:TrackPointExtension>
        </extensions>
      </trkpt>
      <trkpt lat="36.78967413492500782012939453125" lon="-118.41272835619747638702392578125">
        <ele>3646.800048828125</ele>
        <time>2021-06-25T22:03:52.000Z</time>
        <extensions>
          <ns3:TrackPointExtension>
            <ns3:atemp>28.0</ns3:atemp>
            <ns3:hr>131</ns3:hr>
          </ns3:TrackPointExtension>
        </extensions>
      </trkpt>
      <trkpt lat="36.78966860286891460418701171875" lon="-118.41266616247594356536865234375">
        <ele>3647.39990234375</ele>
        <time>2021-06-25T22:03:58.000Z</time>
        <extensions>
          <ns3:TrackPointExtension>
            <ns3:atemp>28.0</ns3:atemp>
            <ns3:hr>133</ns3:hr>
          </ns3:TrackPointExtension>
        </extensions>
      </trkpt>
      <trkpt lat="36.7896728776395320892333984375" lon="-118.41264210641384124755859375">
        <ele>3647.800048828125</ele>
        <time>2021-06-25T22:04:01.000Z</time>
        <extensions>
          <ns3:TrackPointExtension>
            <ns3:atemp>28.0</ns3:atemp>
            <ns3:hr>131</ns3:hr>
          </ns3:TrackPointExtension>
        </extensions>
      </trkpt>
      <trkpt lat="36.7896681837737560272216796875" lon="-118.412588797509670257568359375">
        <ele>3649</ele>
        <time>2021-06-25T22:04:07.000Z</time>
        <extensions>
          <ns3:TrackPointExtension>
            <ns3:atemp>28.0</ns3:atemp>
            <ns3:hr>130</ns3:hr>
          </ns3:TrackPointExtension>
        </extensions>
      </trkpt>
      <trkpt lat="36.7896708659827709197998046875" lon="-118.41255904175341129302978515625">
        <ele>3649.199951171875</ele>
        <time>2021-06-25T22:04:10.000Z</time>
        <extensions>
          <ns3:TrackPointExtension>
            <ns3:atemp>28.0</ns3:atemp>
            <ns3:hr>127</ns3:hr>
          </ns3:TrackPointExtension>
        </extensions>
      </trkpt>
      <trkpt lat="36.78964261896908283233642578125" lon="-118.412447310984134674072265625">
        <ele>3649.800048828125</ele>
        <time>2021-06-25T22:04:21.000Z</time>
        <extensions>
          <ns3:TrackPointExtension>
            <ns3:atemp>28.0</ns3:atemp>
            <ns3:hr>126</ns3:hr>
          </ns3:TrackPointExtension>
        </extensions>
      </trkpt>
      <trkpt lat="36.78964144550263881683349609375" lon="-118.41239609755575656890869140625">
        <ele>3650</ele>
        <time>2021-06-25T22:04:27.000Z</time>
        <extensions>
          <ns3:TrackPointExtension>
            <ns3:atemp>28.0</ns3:atemp>
            <ns3:hr>124</ns3:hr>
          </ns3:TrackPointExtension>
        </extensions>
      </trkpt>
      <trkpt lat="36.7896383441984653472900390625" lon="-118.41237120330333709716796875">
        <ele>3650.39990234375</ele>
        <time>2021-06-25T22:04:29.000Z</time>
        <extensions>
          <ns3:TrackPointExtension>
            <ns3:atemp>28.0</ns3:atemp>
            <ns3:hr>124</ns3:hr>
          </ns3:TrackPointExtension>
        </extensions>
      </trkpt>
      <trkpt lat="36.7896319739520549774169921875" lon="-118.41231429018080234527587890625">
        <ele>3651</ele>
        <time>2021-06-25T22:04:35.000Z</time>
        <extensions>
          <ns3:TrackPointExtension>
            <ns3:atemp>28.0</ns3:atemp>
            <ns3:hr>123</ns3:hr>
          </ns3:TrackPointExtension>
        </extensions>
      </trkpt>
      <trkpt lat="36.7896227538585662841796875" lon="-118.412268273532390594482421875">
        <ele>3651.39990234375</ele>
        <time>2021-06-25T22:04:40.000Z</time>
        <extensions>
          <ns3:TrackPointExtension>
            <ns3:atemp>28.0</ns3:atemp>
            <ns3:hr>121</ns3:hr>
          </ns3:TrackPointExtension>
        </extensions>
      </trkpt>
      <trkpt lat="36.78963306359946727752685546875" lon="-118.412240445613861083984375">
        <ele>3652.199951171875</ele>
        <time>2021-06-25T22:04:44.000Z</time>
        <extensions>
          <ns3:TrackPointExtension>
            <ns3:atemp>28.0</ns3:atemp>
            <ns3:hr>124</ns3:hr>
          </ns3:TrackPointExtension>
        </extensions>
      </trkpt>
      <trkpt lat="36.7896423675119876861572265625" lon="-118.4122168086469173431396484375">
        <ele>3652.39990234375</ele>
        <time>2021-06-25T22:04:48.000Z</time>
        <extensions>
          <ns3:TrackPointExtension>
            <ns3:atemp>28.0</ns3:atemp>
            <ns3:hr>126</ns3:hr>
          </ns3:TrackPointExtension>
        </extensions>
      </trkpt>
      <trkpt lat="36.78964748047292232513427734375" lon="-118.41219954192638397216796875">
        <ele>3652.60009765625</ele>
        <time>2021-06-25T22:04:50.000Z</time>
        <extensions>
          <ns3:TrackPointExtension>
            <ns3:atemp>28.0</ns3:atemp>
            <ns3:hr>123</ns3:hr>
          </ns3:TrackPointExtension>
        </extensions>
      </trkpt>
      <trkpt lat="36.78964597173035144805908203125" lon="-118.41219107620418071746826171875">
        <ele>3652.800048828125</ele>
        <time>2021-06-25T22:04:51.000Z</time>
        <extensions>
          <ns3:TrackPointExtension>
            <ns3:atemp>28.0</ns3:atemp>
            <ns3:hr>126</ns3:hr>
          </ns3:TrackPointExtension>
        </extensions>
      </trkpt>
      <trkpt lat="36.7896437086164951324462890625" lon="-118.41218386776745319366455078125">
        <ele>3653.39990234375</ele>
        <time>2021-06-25T22:04:53.000Z</time>
        <extensions>
          <ns3:TrackPointExtension>
            <ns3:atemp>28.0</ns3:atemp>
            <ns3:hr>126</ns3:hr>
          </ns3:TrackPointExtension>
        </extensions>
      </trkpt>
      <trkpt lat="36.789640523493289947509765625" lon="-118.4121400304138660430908203125">
        <ele>3653.60009765625</ele>
        <time>2021-06-25T22:04:57.000Z</time>
        <extensions>
          <ns3:TrackPointExtension>
            <ns3:atemp>28.0</ns3:atemp>
            <ns3:hr>127</ns3:hr>
          </ns3:TrackPointExtension>
        </extensions>
      </trkpt>
      <trkpt lat="36.78964295424520969390869140625" lon="-118.41211060993373394012451171875">
        <ele>3653.60009765625</ele>
        <time>2021-06-25T22:05:00.000Z</time>
        <extensions>
          <ns3:TrackPointExtension>
            <ns3:atemp>28.0</ns3:atemp>
            <ns3:hr>128</ns3:hr>
          </ns3:TrackPointExtension>
        </extensions>
      </trkpt>
      <trkpt lat="36.789642870426177978515625" lon="-118.4120245277881622314453125">
        <ele>3649.60009765625</ele>
        <time>2021-06-25T22:19:01.000Z</time>
        <extensions>
          <ns3:TrackPointExtension>
            <ns3:atemp>25.0</ns3:atemp>
            <ns3:hr>102</ns3:hr>
          </ns3:TrackPointExtension>
        </extensions>
      </trkpt>
      <trkpt lat="36.789642870426177978515625" lon="-118.4120245277881622314453125">
        <ele>3649.39990234375</ele>
        <time>2021-06-25T22:19:02.000Z</time>
        <extensions>
          <ns3:TrackPointExtension>
            <ns3:atemp>25.0</ns3:atemp>
            <ns3:hr>103</ns3:hr>
          </ns3:TrackPointExtension>
        </extensions>
      </trkpt>
      <trkpt lat="36.78964278660714626312255859375" lon="-118.4120245277881622314453125">
        <ele>3649</ele>
        <time>2021-06-25T22:19:05.000Z</time>
        <extensions>
          <ns3:TrackPointExtension>
            <ns3:atemp>25.0</ns3:atemp>
            <ns3:hr>101</ns3:hr>
          </ns3:TrackPointExtension>
        </extensions>
      </trkpt>
      <trkpt lat="36.7896329797804355621337890625" lon="-118.4119988791644573211669921875">
        <ele>3648</ele>
        <time>2021-06-25T22:19:11.000Z</time>
        <extensions>
          <ns3:TrackPointExtension>
            <ns3:atemp>25.0</ns3:atemp>
            <ns3:hr>103</ns3:hr>
          </ns3:TrackPointExtension>
        </extensions>
      </trkpt>
      <trkpt lat="36.789603643119335174560546875" lon="-118.41194112785160541534423828125">
        <ele>3647.800048828125</ele>
        <time>2021-06-25T22:19:14.000Z</time>
        <extensions>
          <ns3:TrackPointExtension>
            <ns3:atemp>25.0</ns3:atemp>
            <ns3:hr>102</ns3:hr>
          </ns3:TrackPointExtension>
        </extensions>
      </trkpt>
      <trkpt lat="36.7895605601370334625244140625" lon="-118.4118795208632946014404296875">
        <ele>3647.60009765625</ele>
        <time>2021-06-25T22:19:20.000Z</time>
        <extensions>
          <ns3:TrackPointExtension>
            <ns3:atemp>25.0</ns3:atemp>
            <ns3:hr>103</ns3:hr>
          </ns3:TrackPointExtension>
        </extensions>
      </trkpt>
      <trkpt lat="36.78955595009028911590576171875" lon="-118.4118754975497722625732421875">
        <ele>3647.60009765625</ele>
        <time>2021-06-25T22:19:21.000Z</time>
        <extensions>
          <ns3:TrackPointExtension>
            <ns3:atemp>25.0</ns3:atemp>
            <ns3:hr>103</ns3:hr>
          </ns3:TrackPointExtension>
        </extensions>
      </trkpt>
      <trkpt lat="36.78954103030264377593994140625" lon="-118.41184842400252819061279296875">
        <ele>3647.60009765625</ele>
        <time>2021-06-25T22:19:27.000Z</time>
        <extensions>
          <ns3:TrackPointExtension>
            <ns3:atemp>25.0</ns3:atemp>
            <ns3:hr>103</ns3:hr>
          </ns3:TrackPointExtension>
        </extensions>
      </trkpt>
      <trkpt lat="36.789538599550724029541015625" lon="-118.41185043565928936004638671875">
        <ele>3647.60009765625</ele>
        <time>2021-06-25T22:19:33.000Z</time>
        <extensions>
          <ns3:TrackPointExtension>
            <ns3:atemp>25.0</ns3:atemp>
            <ns3:hr>100</ns3:hr>
          </ns3:TrackPointExtension>
        </extensions>
      </trkpt>
      <trkpt lat="36.789538599550724029541015625" lon="-118.41185043565928936004638671875">
        <ele>3647.60009765625</ele>
        <time>2021-06-25T22:19:37.000Z</time>
        <extensions>
          <ns3:TrackPointExtension>
            <ns3:atemp>25.0</ns3:atemp>
            <ns3:hr>97</ns3:hr>
          </ns3:TrackPointExtension>
        </extensions>
      </trkpt>
      <trkpt lat="36.7895404435694217681884765625" lon="-118.41185010038316249847412109375">
        <ele>3647.800048828125</ele>
        <time>2021-06-25T22:19:45.000Z</time>
        <extensions>
          <ns3:TrackPointExtension>
            <ns3:atemp>25.0</ns3:atemp>
            <ns3:hr>94</ns3:hr>
          </ns3:TrackPointExtension>
        </extensions>
      </trkpt>
      <trkpt lat="36.78954304195940494537353515625" lon="-118.411848507821559906005859375">
        <ele>3647</ele>
        <time>2021-06-25T22:19:49.000Z</time>
        <extensions>
          <ns3:TrackPointExtension>
            <ns3:atemp>25.0</ns3:atemp>
            <ns3:hr>91</ns3:hr>
          </ns3:TrackPointExtension>
        </extensions>
      </trkpt>
      <trkpt lat="36.78956919349730014801025390625" lon="-118.41177902184426784515380859375">
        <ele>3646.39990234375</ele>
        <time>2021-06-25T22:20:15.000Z</time>
        <extensions>
          <ns3:TrackPointExtension>
            <ns3:atemp>24.0</ns3:atemp>
            <ns3:hr>94</ns3:hr>
          </ns3:TrackPointExtension>
        </extensions>
      </trkpt>
      <trkpt lat="36.78956919349730014801025390625" lon="-118.41177868656814098358154296875">
        <ele>3645.60009765625</ele>
        <time>2021-06-25T22:20:18.000Z</time>
        <extensions>
          <ns3:TrackPointExtension>
            <ns3:atemp>24.0</ns3:atemp>
            <ns3:hr>92</ns3:hr>
          </ns3:TrackPointExtension>
        </extensions>
      </trkpt>
      <trkpt lat="36.7895655892789363861083984375" lon="-118.41177432797849178314208984375">
        <ele>3645.199951171875</ele>
        <time>2021-06-25T22:20:19.000Z</time>
        <extensions>
          <ns3:TrackPointExtension>
            <ns3:atemp>24.0</ns3:atemp>
            <ns3:hr>93</ns3:hr>
          </ns3:TrackPointExtension>
        </extensions>
      </trkpt>
      <trkpt lat="36.7895317263901233673095703125" lon="-118.41172370128333568572998046875">
        <ele>3646.199951171875</ele>
        <time>2021-06-25T22:20:23.000Z</time>
        <extensions>
          <ns3:TrackPointExtension>
            <ns3:atemp>24.0</ns3:atemp>
            <ns3:hr>92</ns3:hr>
          </ns3:TrackPointExtension>
        </extensions>
      </trkpt>
      <trkpt lat="36.78952418267726898193359375" lon="-118.41170861385762691497802734375">
        <ele>3646.39990234375</ele>
        <time>2021-06-25T22:20:24.000Z</time>
        <extensions>
          <ns3:TrackPointExtension>
            <ns3:atemp>24.0</ns3:atemp>
            <ns3:hr>92</ns3:hr>
          </ns3:TrackPointExtension>
        </extensions>
      </trkpt>
      <trkpt lat="36.78947699256241321563720703125" lon="-118.411614485085010528564453125">
        <ele>3645.60009765625</ele>
        <time>2021-06-25T22:20:31.000Z</time>
        <extensions>
          <ns3:TrackPointExtension>
            <ns3:atemp>24.0</ns3:atemp>
            <ns3:hr>92</ns3:hr>
          </ns3:TrackPointExtension>
        </extensions>
      </trkpt>
      <trkpt lat="36.7894522659480571746826171875" lon="-118.41153963468968868255615234375">
        <ele>3646.199951171875</ele>
        <time>2021-06-25T22:20:39.000Z</time>
        <extensions>
          <ns3:TrackPointExtension>
            <ns3:atemp>24.0</ns3:atemp>
            <ns3:hr>91</ns3:hr>
          </ns3:TrackPointExtension>
        </extensions>
      </trkpt>
      <trkpt lat="36.7894261144101619720458984375" lon="-118.41147459112107753753662109375">
        <ele>3645</ele>
        <time>2021-06-25T22:20:44.000Z</time>
        <extensions>
          <ns3:TrackPointExtension>
            <ns3:atemp>24.0</ns3:atemp>
            <ns3:hr>90</ns3:hr>
          </ns3:TrackPointExtension>
        </extensions>
      </trkpt>
      <trkpt lat="36.789404489099979400634765625" lon="-118.4114129841327667236328125">
        <ele>3645.800048828125</ele>
        <time>2021-06-25T22:20:50.000Z</time>
        <extensions>
          <ns3:TrackPointExtension>
            <ns3:atemp>24.0</ns3:atemp>
            <ns3:hr>87</ns3:hr>
          </ns3:TrackPointExtension>
        </extensions>
      </trkpt>
      <trkpt lat="36.78940155543386936187744140625" lon="-118.41140569187700748443603515625">
        <ele>3646</ele>
        <time>2021-06-25T22:20:51.000Z</time>
        <extensions>
          <ns3:TrackPointExtension>
            <ns3:atemp>24.0</ns3:atemp>
            <ns3:hr>88</ns3:hr>
          </ns3:TrackPointExtension>
        </extensions>
      </trkpt>
      <trkpt lat="36.7893972806632518768310546875" lon="-118.4113933704793453216552734375">
        <ele>3646.39990234375</ele>
        <time>2021-06-25T22:20:53.000Z</time>
        <extensions>
          <ns3:TrackPointExtension>
            <ns3:atemp>24.0</ns3:atemp>
            <ns3:hr>87</ns3:hr>
          </ns3:TrackPointExtension>
        </extensions>
      </trkpt>
      <trkpt lat="36.78939702920615673065185546875" lon="-118.41139085590839385986328125">
        <ele>3646.39990234375</ele>
        <time>2021-06-25T22:20:54.000Z</time>
        <extensions>
          <ns3:TrackPointExtension>
            <ns3:atemp>24.0</ns3:atemp>
            <ns3:hr>87</ns3:hr>
          </ns3:TrackPointExtension>
        </extensions>
      </trkpt>
      <trkpt lat="36.78939719684422016143798828125" lon="-118.411391191184520721435546875">
        <ele>3647</ele>
        <time>2021-06-25T22:20:56.000Z</time>
        <extensions>
          <ns3:TrackPointExtension>
            <ns3:atemp>24.0</ns3:atemp>
            <ns3:hr>90</ns3:hr>
          </ns3:TrackPointExtension>
        </extensions>
      </trkpt>
      <trkpt lat="36.78939535282552242279052734375" lon="-118.41139093972742557525634765625">
        <ele>3647</ele>
        <time>2021-06-25T22:20:57.000Z</time>
        <extensions>
          <ns3:TrackPointExtension>
            <ns3:atemp>24.0</ns3:atemp>
            <ns3:hr>90</ns3:hr>
          </ns3:TrackPointExtension>
        </extensions>
      </trkpt>
      <trkpt lat="36.78939082659780979156494140625" lon="-118.4113739244639873504638671875">
        <ele>3646.39990234375</ele>
        <time>2021-06-25T22:21:06.000Z</time>
        <extensions>
          <ns3:TrackPointExtension>
            <ns3:atemp>23.0</ns3:atemp>
            <ns3:hr>94</ns3:hr>
          </ns3:TrackPointExtension>
        </extensions>
      </trkpt>
      <trkpt lat="36.789393089711666107177734375" lon="-118.41136872768402099609375">
        <ele>3646.39990234375</ele>
        <time>2021-06-25T22:21:07.000Z</time>
        <extensions>
          <ns3:TrackPointExtension>
            <ns3:atemp>24.0</ns3:atemp>
            <ns3:hr>91</ns3:hr>
          </ns3:TrackPointExtension>
        </extensions>
      </trkpt>
      <trkpt lat="36.7893969453871250152587890625" lon="-118.41133243404328823089599609375">
        <ele>3646</ele>
        <time>2021-06-25T22:21:13.000Z</time>
        <extensions>
          <ns3:TrackPointExtension>
            <ns3:atemp>23.0</ns3:atemp>
            <ns3:hr>94</ns3:hr>
          </ns3:TrackPointExtension>
        </extensions>
      </trkpt>
      <trkpt lat="36.78939350880682468414306640625" lon="-118.41131852008402347564697265625">
        <ele>3645.39990234375</ele>
        <time>2021-06-25T22:21:16.000Z</time>
        <extensions>
          <ns3:TrackPointExtension>
            <ns3:atemp>23.0</ns3:atemp>
            <ns3:hr>95</ns3:hr>
          </ns3:TrackPointExtension>
        </extensions>
      </trkpt>
      <trkpt lat="36.78939769975841045379638671875" lon="-118.4113108925521373748779296875">
        <ele>3644.60009765625</ele>
        <time>2021-06-25T22:21:18.000Z</time>
        <extensions>
          <ns3:TrackPointExtension>
            <ns3:atemp>23.0</ns3:atemp>
            <ns3:hr>96</ns3:hr>
          </ns3:TrackPointExtension>
        </extensions>
      </trkpt>
      <trkpt lat="36.78939686156809329986572265625" lon="-118.4112854115664958953857421875">
        <ele>3644.60009765625</ele>
        <time>2021-06-25T22:21:25.000Z</time>
        <extensions>
          <ns3:TrackPointExtension>
            <ns3:atemp>23.0</ns3:atemp>
            <ns3:hr>93</ns3:hr>
          </ns3:TrackPointExtension>
        </extensions>
      </trkpt>
      <trkpt lat="36.78940214216709136962890625" lon="-118.41127627529203891754150390625">
        <ele>3644.60009765625</ele>
        <time>2021-06-25T22:21:26.000Z</time>
        <extensions>
          <ns3:TrackPointExtension>
            <ns3:atemp>23.0</ns3:atemp>
            <ns3:hr>94</ns3:hr>
          </ns3:TrackPointExtension>
        </extensions>
      </trkpt>
      <trkpt lat="36.7894127033650875091552734375" lon="-118.4112735092639923095703125">
        <ele>3644.60009765625</ele>
        <time>2021-06-25T22:21:32.000Z</time>
        <extensions>
          <ns3:TrackPointExtension>
            <ns3:atemp>23.0</ns3:atemp>
            <ns3:hr>91</ns3:hr>
          </ns3:TrackPointExtension>
        </extensions>
      </trkpt>
      <trkpt lat="36.7894100211560726165771484375" lon="-118.41128222644329071044921875">
        <ele>3644.60009765625</ele>
        <time>2021-06-25T22:21:41.000Z</time>
        <extensions>
          <ns3:TrackPointExtension>
            <ns3:atemp>23.0</ns3:atemp>
            <ns3:hr>89</ns3:hr>
          </ns3:TrackPointExtension>
        </extensions>
      </trkpt>
      <trkpt lat="36.78941714577376842498779296875" lon="-118.41121156699955463409423828125">
        <ele>3644.60009765625</ele>
        <time>2021-06-25T22:21:55.000Z</time>
        <extensions>
          <ns3:TrackPointExtension>
            <ns3:atemp>23.0</ns3:atemp>
            <ns3:hr>90</ns3:hr>
          </ns3:TrackPointExtension>
        </extensions>
      </trkpt>
      <trkpt lat="36.78942435421049594879150390625" lon="-118.4111751057207584381103515625">
        <ele>3644.60009765625</ele>
        <time>2021-06-25T22:21:57.000Z</time>
        <extensions>
          <ns3:TrackPointExtension>
            <ns3:atemp>23.0</ns3:atemp>
            <ns3:hr>89</ns3:hr>
          </ns3:TrackPointExtension>
        </extensions>
      </trkpt>
      <trkpt lat="36.78942720405757427215576171875" lon="-118.41111467219889163970947265625">
        <ele>3643.60009765625</ele>
        <time>2021-06-25T22:22:01.000Z</time>
        <extensions>
          <ns3:TrackPointExtension>
            <ns3:atemp>23.0</ns3:atemp>
            <ns3:hr>86</ns3:hr>
          </ns3:TrackPointExtension>
        </extensions>
      </trkpt>
      <trkpt lat="36.78943625651299953460693359375" lon="-118.41109489090740680694580078125">
        <ele>3641.199951171875</ele>
        <time>2021-06-25T22:22:03.000Z</time>
        <extensions>
          <ns3:TrackPointExtension>
            <ns3:atemp>23.0</ns3:atemp>
            <ns3:hr>86</ns3:hr>
          </ns3:TrackPointExtension>
        </extensions>
      </trkpt>
      <trkpt lat="36.789470203220844268798828125" lon="-118.41101442463696002960205078125">
        <ele>3640.60009765625</ele>
        <time>2021-06-25T22:22:11.000Z</time>
        <extensions>
          <ns3:TrackPointExtension>
            <ns3:atemp>23.0</ns3:atemp>
            <ns3:hr>87</ns3:hr>
          </ns3:TrackPointExtension>
        </extensions>
      </trkpt>
      <trkpt lat="36.78947833366692066192626953125" lon="-118.4110037796199321746826171875">
        <ele>3640.60009765625</ele>
        <time>2021-06-25T22:22:12.000Z</time>
        <extensions>
          <ns3:TrackPointExtension>
            <ns3:atemp>23.0</ns3:atemp>
            <ns3:hr>87</ns3:hr>
          </ns3:TrackPointExtension>
        </extensions>
      </trkpt>
      <trkpt lat="36.7894851230084896087646484375" lon="-118.41098626144230365753173828125">
        <ele>3640</ele>
        <time>2021-06-25T22:22:14.000Z</time>
        <extensions>
          <ns3:TrackPointExtension>
            <ns3:atemp>23.0</ns3:atemp>
            <ns3:hr>86</ns3:hr>
          </ns3:TrackPointExtension>
        </extensions>
      </trkpt>
      <trkpt lat="36.78949157707393169403076171875" lon="-118.4109793044626712799072265625">
        <ele>3640</ele>
        <time>2021-06-25T22:22:15.000Z</time>
        <extensions>
          <ns3:TrackPointExtension>
            <ns3:atemp>23.0</ns3:atemp>
            <ns3:hr>86</ns3:hr>
          </ns3:TrackPointExtension>
        </extensions>
      </trkpt>
      <trkpt lat="36.78950607776641845703125" lon="-118.41097469441592693328857421875">
        <ele>3639.199951171875</ele>
        <time>2021-06-25T22:22:17.000Z</time>
        <extensions>
          <ns3:TrackPointExtension>
            <ns3:atemp>23.0</ns3:atemp>
            <ns3:hr>86</ns3:hr>
          </ns3:TrackPointExtension>
        </extensions>
      </trkpt>
      <trkpt lat="36.78951538167893886566162109375" lon="-118.410974442958831787109375">
        <ele>3638.199951171875</ele>
        <time>2021-06-25T22:22:18.000Z</time>
        <extensions>
          <ns3:TrackPointExtension>
            <ns3:atemp>23.0</ns3:atemp>
            <ns3:hr>85</ns3:hr>
          </ns3:TrackPointExtension>
        </extensions>
      </trkpt>
      <trkpt lat="36.789547987282276153564453125" lon="-118.41094753704965114593505859375">
        <ele>3637</ele>
        <time>2021-06-25T22:22:22.000Z</time>
        <extensions>
          <ns3:TrackPointExtension>
            <ns3:atemp>23.0</ns3:atemp>
            <ns3:hr>86</ns3:hr>
          </ns3:TrackPointExtension>
        </extensions>
      </trkpt>
      <trkpt lat="36.789556704461574554443359375" lon="-118.41094133444130420684814453125">
        <ele>3636.800048828125</ele>
        <time>2021-06-25T22:22:24.000Z</time>
        <extensions>
          <ns3:TrackPointExtension>
            <ns3:atemp>23.0</ns3:atemp>
            <ns3:hr>83</ns3:hr>
          </ns3:TrackPointExtension>
        </extensions>
      </trkpt>
      <trkpt lat="36.78955293260514736175537109375" lon="-118.41093781404197216033935546875">
        <ele>3636.60009765625</ele>
        <time>2021-06-25T22:22:25.000Z</time>
        <extensions>
          <ns3:TrackPointExtension>
            <ns3:atemp>23.0</ns3:atemp>
            <ns3:hr>83</ns3:hr>
          </ns3:TrackPointExtension>
        </extensions>
      </trkpt>
      <trkpt lat="36.7895610630512237548828125" lon="-118.4109420888125896453857421875">
        <ele>3636.39990234375</ele>
        <time>2021-06-25T22:22:30.000Z</time>
        <extensions>
          <ns3:TrackPointExtension>
            <ns3:atemp>23.0</ns3:atemp>
            <ns3:hr>80</ns3:hr>
          </ns3:TrackPointExtension>
        </extensions>
      </trkpt>
      <trkpt lat="36.78956802003085613250732421875" lon="-118.4109407477080821990966796875">
        <ele>3637.199951171875</ele>
        <time>2021-06-25T22:22:41.000Z</time>
        <extensions>
          <ns3:TrackPointExtension>
            <ns3:atemp>23.0</ns3:atemp>
            <ns3:hr>80</ns3:hr>
          </ns3:TrackPointExtension>
        </extensions>
      </trkpt>
      <trkpt lat="36.78956483490765094757080078125" lon="-118.41094016097486019134521484375">
        <ele>3635.800048828125</ele>
        <time>2021-06-25T22:22:47.000Z</time>
        <extensions>
          <ns3:TrackPointExtension>
            <ns3:atemp>23.0</ns3:atemp>
            <ns3:hr>82</ns3:hr>
          </ns3:TrackPointExtension>
        </extensions>
      </trkpt>
      <trkpt lat="36.7895910702645778656005859375" lon="-118.410870842635631561279296875">
        <ele>3635.39990234375</ele>
        <time>2021-06-25T22:22:52.000Z</time>
        <extensions>
          <ns3:TrackPointExtension>
            <ns3:atemp>23.0</ns3:atemp>
            <ns3:hr>83</ns3:hr>
          </ns3:TrackPointExtension>
        </extensions>
      </trkpt>
      <trkpt lat="36.7896078340709209442138671875" lon="-118.41081124730408191680908203125">
        <ele>3634.39990234375</ele>
        <time>2021-06-25T22:22:55.000Z</time>
        <extensions>
          <ns3:TrackPointExtension>
            <ns3:atemp>23.0</ns3:atemp>
            <ns3:hr>82</ns3:hr>
          </ns3:TrackPointExtension>
        </extensions>
      </trkpt>
      <trkpt lat="36.789657957851886749267578125" lon="-118.41068434529006481170654296875">
        <ele>3633.800048828125</ele>
        <time>2021-06-25T22:23:04.000Z</time>
        <extensions>
          <ns3:TrackPointExtension>
            <ns3:atemp>23.0</ns3:atemp>
            <ns3:hr>81</ns3:hr>
          </ns3:TrackPointExtension>
        </extensions>
      </trkpt>
      <trkpt lat="36.7896683514118194580078125" lon="-118.41062081046402454376220703125">
        <ele>3633.800048828125</ele>
        <time>2021-06-25T22:23:09.000Z</time>
        <extensions>
          <ns3:TrackPointExtension>
            <ns3:atemp>23.0</ns3:atemp>
            <ns3:hr>78</ns3:hr>
          </ns3:TrackPointExtension>
        </extensions>
      </trkpt>
      <trkpt lat="36.78968402557075023651123046875" lon="-118.410568423569202423095703125">
        <ele>3633.60009765625</ele>
        <time>2021-06-25T22:23:13.000Z</time>
        <extensions>
          <ns3:TrackPointExtension>
            <ns3:atemp>23.0</ns3:atemp>
            <ns3:hr>79</ns3:hr>
          </ns3:TrackPointExtension>
        </extensions>
      </trkpt>
      <trkpt lat="36.78969475440680980682373046875" lon="-118.4105333872139453887939453125">
        <ele>3633.199951171875</ele>
        <time>2021-06-25T22:23:16.000Z</time>
        <extensions>
          <ns3:TrackPointExtension>
            <ns3:atemp>23.0</ns3:atemp>
            <ns3:hr>80</ns3:hr>
          </ns3:TrackPointExtension>
        </extensions>
      </trkpt>
      <trkpt lat="36.78971168585121631622314453125" lon="-118.410448729991912841796875">
        <ele>3632.800048828125</ele>
        <time>2021-06-25T22:23:23.000Z</time>
        <extensions>
          <ns3:TrackPointExtension>
            <ns3:atemp>23.0</ns3:atemp>
            <ns3:hr>83</ns3:hr>
          </ns3:TrackPointExtension>
        </extensions>
      </trkpt>
      <trkpt lat="36.78971487097442150115966796875" lon="-118.41043724678456783294677734375">
        <ele>3632.800048828125</ele>
        <time>2021-06-25T22:23:24.000Z</time>
        <extensions>
          <ns3:TrackPointExtension>
            <ns3:atemp>23.0</ns3:atemp>
            <ns3:hr>84</ns3:hr>
          </ns3:TrackPointExtension>
        </extensions>
      </trkpt>
      <trkpt lat="36.78971906192600727081298828125" lon="-118.4104277752339839935302734375">
        <ele>3632.800048828125</ele>
        <time>2021-06-25T22:23:25.000Z</time>
        <extensions>
          <ns3:TrackPointExtension>
            <ns3:atemp>23.0</ns3:atemp>
            <ns3:hr>87</ns3:hr>
          </ns3:TrackPointExtension>
        </extensions>
      </trkpt>
      <trkpt lat="36.78972509689629077911376953125" lon="-118.41041914187371730804443359375">
        <ele>3632.60009765625</ele>
        <time>2021-06-25T22:23:26.000Z</time>
        <extensions>
          <ns3:TrackPointExtension>
            <ns3:atemp>23.0</ns3:atemp>
            <ns3:hr>91</ns3:hr>
          </ns3:TrackPointExtension>
        </extensions>
      </trkpt>
      <trkpt lat="36.78975191898643970489501953125" lon="-118.41037832200527191162109375">
        <ele>3632.39990234375</ele>
        <time>2021-06-25T22:23:30.000Z</time>
        <extensions>
          <ns3:TrackPointExtension>
            <ns3:atemp>23.0</ns3:atemp>
            <ns3:hr>88</ns3:hr>
          </ns3:TrackPointExtension>
        </extensions>
      </trkpt>
      <trkpt lat="36.78977857343852519989013671875" lon="-118.41032425872981548309326171875">
        <ele>3632.39990234375</ele>
        <time>2021-06-25T22:23:35.000Z</time>
        <extensions>
          <ns3:TrackPointExtension>
            <ns3:atemp>23.0</ns3:atemp>
            <ns3:hr>85</ns3:hr>
          </ns3:TrackPointExtension>
        </extensions>
      </trkpt>
      <trkpt lat="36.789782680571079254150390625" lon="-118.41031118296086788177490234375">
        <ele>3632.39990234375</ele>
        <time>2021-06-25T22:23:36.000Z</time>
        <extensions>
          <ns3:TrackPointExtension>
            <ns3:atemp>23.0</ns3:atemp>
            <ns3:hr>88</ns3:hr>
          </ns3:TrackPointExtension>
        </extensions>
      </trkpt>
      <trkpt lat="36.78978410549461841583251953125" lon="-118.4102980233728885650634765625">
        <ele>3632.39990234375</ele>
        <time>2021-06-25T22:23:37.000Z</time>
        <extensions>
          <ns3:TrackPointExtension>
            <ns3:atemp>23.0</ns3:atemp>
            <ns3:hr>86</ns3:hr>
          </ns3:TrackPointExtension>
        </extensions>
      </trkpt>
      <trkpt lat="36.78978561423718929290771484375" lon="-118.4102879650890827178955078125">
        <ele>3632.199951171875</ele>
        <time>2021-06-25T22:23:38.000Z</time>
        <extensions>
          <ns3:TrackPointExtension>
            <ns3:atemp>23.0</ns3:atemp>
            <ns3:hr>88</ns3:hr>
          </ns3:TrackPointExtension>
        </extensions>
      </trkpt>
      <trkpt lat="36.78980137221515178680419921875" lon="-118.410251922905445098876953125">
        <ele>3631.39990234375</ele>
        <time>2021-06-25T22:23:42.000Z</time>
        <extensions>
          <ns3:TrackPointExtension>
            <ns3:atemp>23.0</ns3:atemp>
            <ns3:hr>85</ns3:hr>
          </ns3:TrackPointExtension>
        </extensions>
      </trkpt>
      <trkpt lat="36.7898066528141498565673828125" lon="-118.4102396853268146514892578125">
        <ele>3631</ele>
        <time>2021-06-25T22:23:43.000Z</time>
        <extensions>
          <ns3:TrackPointExtension>
            <ns3:atemp>23.0</ns3:atemp>
            <ns3:hr>85</ns3:hr>
          </ns3:TrackPointExtension>
        </extensions>
      </trkpt>
      <trkpt lat="36.7898185551166534423828125" lon="-118.4102162159979343414306640625">
        <ele>3630.60009765625</ele>
        <time>2021-06-25T22:23:45.000Z</time>
        <extensions>
          <ns3:TrackPointExtension>
            <ns3:atemp>23.0</ns3:atemp>
            <ns3:hr>88</ns3:hr>
          </ns3:TrackPointExtension>
        </extensions>
      </trkpt>
      <trkpt lat="36.7898257635533809661865234375" lon="-118.41019366867840290069580078125">
        <ele>3630.60009765625</ele>
        <time>2021-06-25T22:23:47.000Z</time>
        <extensions>
          <ns3:TrackPointExtension>
            <ns3:atemp>23.0</ns3:atemp>
            <ns3:hr>88</ns3:hr>
          </ns3:TrackPointExtension>
        </extensions>
      </trkpt>
      <trkpt lat="36.78984428755939006805419921875" lon="-118.41012778691947460174560546875">
        <ele>3630.800048828125</ele>
        <time>2021-06-25T22:23:53.000Z</time>
        <extensions>
          <ns3:TrackPointExtension>
            <ns3:atemp>23.0</ns3:atemp>
            <ns3:hr>91</ns3:hr>
          </ns3:TrackPointExtension>
        </extensions>
      </trkpt>
      <trkpt lat="36.7898592911660671234130859375" lon="-118.41007581911981105804443359375">
        <ele>3630</ele>
        <time>2021-06-25T22:23:58.000Z</time>
        <extensions>
          <ns3:TrackPointExtension>
            <ns3:atemp>23.0</ns3:atemp>
            <ns3:hr>89</ns3:hr>
          </ns3:TrackPointExtension>
        </extensions>
      </trkpt>
      <trkpt lat="36.789861135184764862060546875" lon="-118.410065174102783203125">
        <ele>3629.800048828125</ele>
        <time>2021-06-25T22:23:59.000Z</time>
        <extensions>
          <ns3:TrackPointExtension>
            <ns3:atemp>23.0</ns3:atemp>
            <ns3:hr>88</ns3:hr>
          </ns3:TrackPointExtension>
        </extensions>
      </trkpt>
      <trkpt lat="36.7898656614124774932861328125" lon="-118.4100544452667236328125">
        <ele>3629.60009765625</ele>
        <time>2021-06-25T22:24:00.000Z</time>
        <extensions>
          <ns3:TrackPointExtension>
            <ns3:atemp>23.0</ns3:atemp>
            <ns3:hr>90</ns3:hr>
          </ns3:TrackPointExtension>
        </extensions>
      </trkpt>
      <trkpt lat="36.7898991890251636505126953125" lon="-118.4099764935672283172607421875">
        <ele>3629.199951171875</ele>
        <time>2021-06-25T22:24:07.000Z</time>
        <extensions>
          <ns3:TrackPointExtension>
            <ns3:atemp>23.0</ns3:atemp>
            <ns3:hr>90</ns3:hr>
          </ns3:TrackPointExtension>
        </extensions>
      </trkpt>
      <trkpt lat="36.7899124324321746826171875" lon="-118.40994891710579395294189453125">
        <ele>3629</ele>
        <time>2021-06-25T22:24:10.000Z</time>
        <extensions>
          <ns3:TrackPointExtension>
            <ns3:atemp>23.0</ns3:atemp>
            <ns3:hr>90</ns3:hr>
          </ns3:TrackPointExtension>
        </extensions>
      </trkpt>
      <trkpt lat="36.789920814335346221923828125" lon="-118.40993114747107028961181640625">
        <ele>3628.60009765625</ele>
        <time>2021-06-25T22:24:12.000Z</time>
        <extensions>
          <ns3:TrackPointExtension>
            <ns3:atemp>23.0</ns3:atemp>
            <ns3:hr>90</ns3:hr>
          </ns3:TrackPointExtension>
        </extensions>
      </trkpt>
      <trkpt lat="36.7899407632648944854736328125" lon="-118.40991220436990261077880859375">
        <ele>3628.199951171875</ele>
        <time>2021-06-25T22:24:15.000Z</time>
        <extensions>
          <ns3:TrackPointExtension>
            <ns3:atemp>23.0</ns3:atemp>
            <ns3:hr>87</ns3:hr>
          </ns3:TrackPointExtension>
        </extensions>
      </trkpt>
      <trkpt lat="36.78994419984519481658935546875" lon="-118.4099067561328411102294921875">
        <ele>3627.60009765625</ele>
        <time>2021-06-25T22:24:16.000Z</time>
        <extensions>
          <ns3:TrackPointExtension>
            <ns3:atemp>23.0</ns3:atemp>
            <ns3:hr>89</ns3:hr>
          </ns3:TrackPointExtension>
        </extensions>
      </trkpt>
      <trkpt lat="36.78994855843484401702880859375" lon="-118.40990499593317508697509765625">
        <ele>3627.199951171875</ele>
        <time>2021-06-25T22:24:18.000Z</time>
        <extensions>
          <ns3:TrackPointExtension>
            <ns3:atemp>23.0</ns3:atemp>
            <ns3:hr>91</ns3:hr>
          </ns3:TrackPointExtension>
        </extensions>
      </trkpt>
      <trkpt lat="36.789948642253875732421875" lon="-118.40990415774285793304443359375">
        <ele>3627.199951171875</ele>
        <time>2021-06-25T22:24:19.000Z</time>
        <extensions>
          <ns3:TrackPointExtension>
            <ns3:atemp>23.0</ns3:atemp>
            <ns3:hr>89</ns3:hr>
          </ns3:TrackPointExtension>
        </extensions>
      </trkpt>
      <trkpt lat="36.78995241411030292510986328125" lon="-118.40988454408943653106689453125">
        <ele>3627</ele>
        <time>2021-06-25T22:24:31.000Z</time>
        <extensions>
          <ns3:TrackPointExtension>
            <ns3:atemp>23.0</ns3:atemp>
            <ns3:hr>86</ns3:hr>
          </ns3:TrackPointExtension>
        </extensions>
      </trkpt>
      <trkpt lat="36.78998510353267192840576171875" lon="-118.4097714722156524658203125">
        <ele>3626.39990234375</ele>
        <time>2021-06-25T22:24:38.000Z</time>
        <extensions>
          <ns3:TrackPointExtension>
            <ns3:atemp>23.0</ns3:atemp>
            <ns3:hr>88</ns3:hr>
          </ns3:TrackPointExtension>
        </extensions>
      </trkpt>
      <trkpt lat="36.7899880371987819671630859375" lon="-118.4097193367779254913330078125">
        <ele>3625.800048828125</ele>
        <time>2021-06-25T22:24:42.000Z</time>
        <extensions>
          <ns3:TrackPointExtension>
            <ns3:atemp>23.0</ns3:atemp>
            <ns3:hr>91</ns3:hr>
          </ns3:TrackPointExtension>
        </extensions>
      </trkpt>
      <trkpt lat="36.7900296114385128021240234375" lon="-118.4096375294029712677001953125">
        <ele>3625.60009765625</ele>
        <time>2021-06-25T22:24:50.000Z</time>
        <extensions>
          <ns3:TrackPointExtension>
            <ns3:atemp>23.0</ns3:atemp>
            <ns3:hr>93</ns3:hr>
          </ns3:TrackPointExtension>
        </extensions>
      </trkpt>
      <trkpt lat="36.79004159756004810333251953125" lon="-118.40958463959395885467529296875">
        <ele>3624.60009765625</ele>
        <time>2021-06-25T22:24:55.000Z</time>
        <extensions>
          <ns3:TrackPointExtension>
            <ns3:atemp>23.0</ns3:atemp>
            <ns3:hr>92</ns3:hr>
          </ns3:TrackPointExtension>
        </extensions>
      </trkpt>
      <trkpt lat="36.7900473810732364654541015625" lon="-118.4095694683492183685302734375">
        <ele>3624.60009765625</ele>
        <time>2021-06-25T22:24:57.000Z</time>
        <extensions>
          <ns3:TrackPointExtension>
            <ns3:atemp>23.0</ns3:atemp>
            <ns3:hr>89</ns3:hr>
          </ns3:TrackPointExtension>
        </extensions>
      </trkpt>
      <trkpt lat="36.7900554277002811431884765625" lon="-118.40955010615289211273193359375">
        <ele>3624.199951171875</ele>
        <time>2021-06-25T22:24:59.000Z</time>
        <extensions>
          <ns3:TrackPointExtension>
            <ns3:atemp>23.0</ns3:atemp>
            <ns3:hr>91</ns3:hr>
          </ns3:TrackPointExtension>
        </extensions>
      </trkpt>
      <trkpt lat="36.79007093422114849090576171875" lon="-118.4095054306089878082275390625">
        <ele>3624.199951171875</ele>
        <time>2021-06-25T22:25:04.000Z</time>
        <extensions>
          <ns3:TrackPointExtension>
            <ns3:atemp>23.0</ns3:atemp>
            <ns3:hr>93</ns3:hr>
          </ns3:TrackPointExtension>
        </extensions>
      </trkpt>
      <trkpt lat="36.79007579572498798370361328125" lon="-118.4094967134296894073486328125">
        <ele>3623.800048828125</ele>
        <time>2021-06-25T22:25:07.000Z</time>
        <extensions>
          <ns3:TrackPointExtension>
            <ns3:atemp>23.0</ns3:atemp>
            <ns3:hr>92</ns3:hr>
          </ns3:TrackPointExtension>
        </extensions>
      </trkpt>
      <trkpt lat="36.790076382458209991455078125" lon="-118.409509621560573577880859375">
        <ele>3623.39990234375</ele>
        <time>2021-06-25T22:25:18.000Z</time>
        <extensions>
          <ns3:TrackPointExtension>
            <ns3:atemp>23.0</ns3:atemp>
            <ns3:hr>91</ns3:hr>
          </ns3:TrackPointExtension>
        </extensions>
      </trkpt>
      <trkpt lat="36.790076382458209991455078125" lon="-118.409509621560573577880859375">
        <ele>3623</ele>
        <time>2021-06-25T22:25:22.000Z</time>
        <extensions>
          <ns3:TrackPointExtension>
            <ns3:atemp>23.0</ns3:atemp>
            <ns3:hr>93</ns3:hr>
          </ns3:TrackPointExtension>
        </extensions>
      </trkpt>
      <trkpt lat="36.79008250124752521514892578125" lon="-118.4095185063779354095458984375">
        <ele>3622.39990234375</ele>
        <time>2021-06-25T22:25:37.000Z</time>
        <extensions>
          <ns3:TrackPointExtension>
            <ns3:atemp>23.0</ns3:atemp>
            <ns3:hr>92</ns3:hr>
          </ns3:TrackPointExtension>
        </extensions>
      </trkpt>
      <trkpt lat="36.7900882847607135772705078125" lon="-118.40951942838728427886962890625">
        <ele>3622.39990234375</ele>
        <time>2021-06-25T22:25:40.000Z</time>
        <extensions>
          <ns3:TrackPointExtension>
            <ns3:atemp>23.0</ns3:atemp>
            <ns3:hr>89</ns3:hr>
          </ns3:TrackPointExtension>
        </extensions>
      </trkpt>
      <trkpt lat="36.790091134607791900634765625" lon="-118.40951942838728427886962890625">
        <ele>3622.199951171875</ele>
        <time>2021-06-25T22:25:43.000Z</time>
        <extensions>
          <ns3:TrackPointExtension>
            <ns3:atemp>23.0</ns3:atemp>
            <ns3:hr>86</ns3:hr>
          </ns3:TrackPointExtension>
        </extensions>
      </trkpt>
      <trkpt lat="36.7900926433503627777099609375" lon="-118.4095201827585697174072265625">
        <ele>3621.39990234375</ele>
        <time>2021-06-25T22:25:47.000Z</time>
        <extensions>
          <ns3:TrackPointExtension>
            <ns3:atemp>23.0</ns3:atemp>
            <ns3:hr>89</ns3:hr>
          </ns3:TrackPointExtension>
        </extensions>
      </trkpt>
      <trkpt lat="36.79009390063583850860595703125" lon="-118.409520685672760009765625">
        <ele>3620</ele>
        <time>2021-06-25T22:25:50.000Z</time>
        <extensions>
          <ns3:TrackPointExtension>
            <ns3:atemp>23.0</ns3:atemp>
            <ns3:hr>89</ns3:hr>
          </ns3:TrackPointExtension>
        </extensions>
      </trkpt>
      <trkpt lat="36.7901006899774074554443359375" lon="-118.409521691501140594482421875">
        <ele>3618.800048828125</ele>
        <time>2021-06-25T22:25:57.000Z</time>
        <extensions>
          <ns3:TrackPointExtension>
            <ns3:atemp>23.0</ns3:atemp>
            <ns3:hr>88</ns3:hr>
          </ns3:TrackPointExtension>
        </extensions>
      </trkpt>
      <trkpt lat="36.790105886757373809814453125" lon="-118.409558236598968505859375">
        <ele>3617.800048828125</ele>
        <time>2021-06-25T22:26:00.000Z</time>
        <extensions>
          <ns3:TrackPointExtension>
            <ns3:atemp>23.0</ns3:atemp>
            <ns3:hr>88</ns3:hr>
          </ns3:TrackPointExtension>
        </extensions>
      </trkpt>
      <trkpt lat="36.7901104129850864410400390625" lon="-118.4096311591565608978271484375">
        <ele>3617.199951171875</ele>
        <time>2021-06-25T22:26:03.000Z</time>
        <extensions>
          <ns3:TrackPointExtension>
            <ns3:atemp>23.0</ns3:atemp>
            <ns3:hr>88</ns3:hr>
          </ns3:TrackPointExtension>
        </extensions>
      </trkpt>
      <trkpt lat="36.7901154421269893646240234375" lon="-118.4096519462764263153076171875">
        <ele>3616.39990234375</ele>
        <time>2021-06-25T22:26:04.000Z</time>
        <extensions>
          <ns3:TrackPointExtension>
            <ns3:atemp>23.0</ns3:atemp>
            <ns3:hr>86</ns3:hr>
          </ns3:TrackPointExtension>
        </extensions>
      </trkpt>
      <trkpt lat="36.79015223868191242218017578125" lon="-118.40967365540564060211181640625">
        <ele>3616.199951171875</ele>
        <time>2021-06-25T22:26:09.000Z</time>
        <extensions>
          <ns3:TrackPointExtension>
            <ns3:atemp>23.0</ns3:atemp>
            <ns3:hr>85</ns3:hr>
          </ns3:TrackPointExtension>
        </extensions>
      </trkpt>
      <trkpt lat="36.79016849957406520843505859375" lon="-118.409653119742870330810546875">
        <ele>3615.39990234375</ele>
        <time>2021-06-25T22:26:12.000Z</time>
        <extensions>
          <ns3:TrackPointExtension>
            <ns3:atemp>23.0</ns3:atemp>
            <ns3:hr>86</ns3:hr>
          </ns3:TrackPointExtension>
        </extensions>
      </trkpt>
      <trkpt lat="36.7901747860014438629150390625" lon="-118.409628309309482574462890625">
        <ele>3614.39990234375</ele>
        <time>2021-06-25T22:26:15.000Z</time>
        <extensions>
          <ns3:TrackPointExtension>
            <ns3:atemp>23.0</ns3:atemp>
            <ns3:hr>86</ns3:hr>
          </ns3:TrackPointExtension>
        </extensions>
      </trkpt>
      <trkpt lat="36.79017973132431507110595703125" lon="-118.40960609726607799530029296875">
        <ele>3613.60009765625</ele>
        <time>2021-06-25T22:26:17.000Z</time>
        <extensions>
          <ns3:TrackPointExtension>
            <ns3:atemp>23.0</ns3:atemp>
            <ns3:hr>83</ns3:hr>
          </ns3:TrackPointExtension>
        </extensions>
      </trkpt>
      <trkpt lat="36.79018610157072544097900390625" lon="-118.40959235094487667083740234375">
        <ele>3613.199951171875</ele>
        <time>2021-06-25T22:26:19.000Z</time>
        <extensions>
          <ns3:TrackPointExtension>
            <ns3:atemp>24.0</ns3:atemp>
            <ns3:hr>83</ns3:hr>
          </ns3:TrackPointExtension>
        </extensions>
      </trkpt>
      <trkpt lat="36.7902096547186374664306640625" lon="-118.4095439873635768890380859375">
        <ele>3612.800048828125</ele>
        <time>2021-06-25T22:26:24.000Z</time>
        <extensions>
          <ns3:TrackPointExtension>
            <ns3:atemp>24.0</ns3:atemp>
            <ns3:hr>85</ns3:hr>
          </ns3:TrackPointExtension>
        </extensions>
      </trkpt>
      <trkpt lat="36.7902126722037792205810546875" lon="-118.40953476727008819580078125">
        <ele>3612</ele>
        <time>2021-06-25T22:26:25.000Z</time>
        <extensions>
          <ns3:TrackPointExtension>
            <ns3:atemp>24.0</ns3:atemp>
            <ns3:hr>84</ns3:hr>
          </ns3:TrackPointExtension>
        </extensions>
      </trkpt>
      <trkpt lat="36.79024393670260906219482421875" lon="-118.40946896933019161224365234375">
        <ele>3610.60009765625</ele>
        <time>2021-06-25T22:26:31.000Z</time>
        <extensions>
          <ns3:TrackPointExtension>
            <ns3:atemp>24.0</ns3:atemp>
            <ns3:hr>85</ns3:hr>
          </ns3:TrackPointExtension>
        </extensions>
      </trkpt>
      <trkpt lat="36.79025013931095600128173828125" lon="-118.4094504453241825103759765625">
        <ele>3609.199951171875</ele>
        <time>2021-06-25T22:26:34.000Z</time>
        <extensions>
          <ns3:TrackPointExtension>
            <ns3:atemp>24.0</ns3:atemp>
            <ns3:hr>83</ns3:hr>
          </ns3:TrackPointExtension>
        </extensions>
      </trkpt>
      <trkpt lat="36.79024837911128997802734375" lon="-118.40944700874388217926025390625">
        <ele>3609.199951171875</ele>
        <time>2021-06-25T22:26:35.000Z</time>
        <extensions>
          <ns3:TrackPointExtension>
            <ns3:atemp>24.0</ns3:atemp>
            <ns3:hr>84</ns3:hr>
          </ns3:TrackPointExtension>
        </extensions>
      </trkpt>
      <trkpt lat="36.79027511738240718841552734375" lon="-118.40943275950849056243896484375">
        <ele>3609.39990234375</ele>
        <time>2021-06-25T22:26:43.000Z</time>
        <extensions>
          <ns3:TrackPointExtension>
            <ns3:atemp>24.0</ns3:atemp>
            <ns3:hr>80</ns3:hr>
          </ns3:TrackPointExtension>
        </extensions>
      </trkpt>
      <trkpt lat="36.79030328057706356048583984375" lon="-118.40942320413887500762939453125">
        <ele>3608.800048828125</ele>
        <time>2021-06-25T22:26:47.000Z</time>
        <extensions>
          <ns3:TrackPointExtension>
            <ns3:atemp>24.0</ns3:atemp>
            <ns3:hr>80</ns3:hr>
          </ns3:TrackPointExtension>
        </extensions>
      </trkpt>
      <trkpt lat="36.79030328057706356048583984375" lon="-118.40942320413887500762939453125">
        <ele>3611.199951171875</ele>
        <time>2021-06-25T22:26:52.000Z</time>
        <extensions>
          <ns3:TrackPointExtension>
            <ns3:atemp>23.0</ns3:atemp>
            <ns3:hr>80</ns3:hr>
          </ns3:TrackPointExtension>
        </extensions>
      </trkpt>
      <trkpt lat="36.7903028614819049835205078125" lon="-118.40942320413887500762939453125">
        <ele>3611.199951171875</ele>
        <time>2021-06-25T22:26:55.000Z</time>
        <extensions>
          <ns3:TrackPointExtension>
            <ns3:atemp>23.0</ns3:atemp>
            <ns3:hr>83</ns3:hr>
          </ns3:TrackPointExtension>
        </extensions>
      </trkpt>
      <trkpt lat="36.7903040349483489990234375" lon="-118.409445583820343017578125">
        <ele>3610.199951171875</ele>
        <time>2021-06-25T22:26:58.000Z</time>
        <extensions>
          <ns3:TrackPointExtension>
            <ns3:atemp>23.0</ns3:atemp>
            <ns3:hr>87</ns3:hr>
          </ns3:TrackPointExtension>
        </extensions>
      </trkpt>
      <trkpt lat="36.79030529223382472991943359375" lon="-118.40948355384171009063720703125">
        <ele>3609.800048828125</ele>
        <time>2021-06-25T22:27:00.000Z</time>
        <extensions>
          <ns3:TrackPointExtension>
            <ns3:atemp>23.0</ns3:atemp>
            <ns3:hr>91</ns3:hr>
          </ns3:TrackPointExtension>
        </extensions>
      </trkpt>
      <trkpt lat="36.7903045378625392913818359375" lon="-118.40950484387576580047607421875">
        <ele>3609.39990234375</ele>
        <time>2021-06-25T22:27:01.000Z</time>
        <extensions>
          <ns3:TrackPointExtension>
            <ns3:atemp>23.0</ns3:atemp>
            <ns3:hr>90</ns3:hr>
          </ns3:TrackPointExtension>
        </extensions>
      </trkpt>
      <trkpt lat="36.79030177183449268341064453125" lon="-118.40954373590648174285888671875">
        <ele>3609</ele>
        <time>2021-06-25T22:27:03.000Z</time>
        <extensions>
          <ns3:TrackPointExtension>
            <ns3:atemp>23.0</ns3:atemp>
            <ns3:hr>93</ns3:hr>
          </ns3:TrackPointExtension>
        </extensions>
      </trkpt>
      <trkpt lat="36.79030202329158782958984375" lon="-118.40960894711315631866455078125">
        <ele>3608.60009765625</ele>
        <time>2021-06-25T22:27:07.000Z</time>
        <extensions>
          <ns3:TrackPointExtension>
            <ns3:atemp>23.0</ns3:atemp>
            <ns3:hr>93</ns3:hr>
          </ns3:TrackPointExtension>
        </extensions>
      </trkpt>
      <trkpt lat="36.79030545987188816070556640625" lon="-118.40962998569011688232421875">
        <ele>3608.199951171875</ele>
        <time>2021-06-25T22:27:09.000Z</time>
        <extensions>
          <ns3:TrackPointExtension>
            <ns3:atemp>23.0</ns3:atemp>
            <ns3:hr>94</ns3:hr>
          </ns3:TrackPointExtension>
        </extensions>
      </trkpt>
      <trkpt lat="36.7903045378625392913818359375" lon="-118.409641720354557037353515625">
        <ele>3608</ele>
        <time>2021-06-25T22:27:10.000Z</time>
        <extensions>
          <ns3:TrackPointExtension>
            <ns3:atemp>23.0</ns3:atemp>
            <ns3:hr>93</ns3:hr>
          </ns3:TrackPointExtension>
        </extensions>
      </trkpt>
      <trkpt lat="36.7902981676161289215087890625" lon="-118.40965638868510723114013671875">
        <ele>3607.800048828125</ele>
        <time>2021-06-25T22:27:11.000Z</time>
        <extensions>
          <ns3:TrackPointExtension>
            <ns3:atemp>23.0</ns3:atemp>
            <ns3:hr>93</ns3:hr>
          </ns3:TrackPointExtension>
        </extensions>
      </trkpt>
      <trkpt lat="36.79029657505452632904052734375" lon="-118.4097297303378582000732421875">
        <ele>3606.39990234375</ele>
        <time>2021-06-25T22:27:17.000Z</time>
        <extensions>
          <ns3:TrackPointExtension>
            <ns3:atemp>23.0</ns3:atemp>
            <ns3:hr>94</ns3:hr>
          </ns3:TrackPointExtension>
        </extensions>
      </trkpt>
      <trkpt lat="36.7902941443026065826416015625" lon="-118.40974791906774044036865234375">
        <ele>3606</ele>
        <time>2021-06-25T22:27:19.000Z</time>
        <extensions>
          <ns3:TrackPointExtension>
            <ns3:atemp>23.0</ns3:atemp>
            <ns3:hr>93</ns3:hr>
          </ns3:TrackPointExtension>
        </extensions>
      </trkpt>
      <trkpt lat="36.790290288627147674560546875" lon="-118.4097786806523799896240234375">
        <ele>3605.39990234375</ele>
        <time>2021-06-25T22:27:22.000Z</time>
        <extensions>
          <ns3:TrackPointExtension>
            <ns3:atemp>23.0</ns3:atemp>
            <ns3:hr>92</ns3:hr>
          </ns3:TrackPointExtension>
        </extensions>
      </trkpt>
      <trkpt lat="36.7902924679219722747802734375" lon="-118.40981908142566680908203125">
        <ele>3604.800048828125</ele>
        <time>2021-06-25T22:27:26.000Z</time>
        <extensions>
          <ns3:TrackPointExtension>
            <ns3:atemp>24.0</ns3:atemp>
            <ns3:hr>91</ns3:hr>
          </ns3:TrackPointExtension>
        </extensions>
      </trkpt>
      <trkpt lat="36.79029288701713085174560546875" lon="-118.409831821918487548828125">
        <ele>3604.199951171875</ele>
        <time>2021-06-25T22:27:27.000Z</time>
        <extensions>
          <ns3:TrackPointExtension>
            <ns3:atemp>24.0</ns3:atemp>
            <ns3:hr>90</ns3:hr>
          </ns3:TrackPointExtension>
        </extensions>
      </trkpt>
      <trkpt lat="36.79027344100177288055419921875" lon="-118.40991270728409290313720703125">
        <ele>3603.39990234375</ele>
        <time>2021-06-25T22:27:34.000Z</time>
        <extensions>
          <ns3:TrackPointExtension>
            <ns3:atemp>24.0</ns3:atemp>
            <ns3:hr>89</ns3:hr>
          </ns3:TrackPointExtension>
        </extensions>
      </trkpt>
      <trkpt lat="36.79027327336370944976806640625" lon="-118.40992444194853305816650390625">
        <ele>3603.199951171875</ele>
        <time>2021-06-25T22:27:35.000Z</time>
        <extensions>
          <ns3:TrackPointExtension>
            <ns3:atemp>24.0</ns3:atemp>
            <ns3:hr>88</ns3:hr>
          </ns3:TrackPointExtension>
        </extensions>
      </trkpt>
      <trkpt lat="36.79027251899242401123046875" lon="-118.40999669395387172698974609375">
        <ele>3602.60009765625</ele>
        <time>2021-06-25T22:27:41.000Z</time>
        <extensions>
          <ns3:TrackPointExtension>
            <ns3:atemp>24.0</ns3:atemp>
            <ns3:hr>87</ns3:hr>
          </ns3:TrackPointExtension>
        </extensions>
      </trkpt>
      <trkpt lat="36.7902753688395023345947265625" lon="-118.410008847713470458984375">
        <ele>3602</ele>
        <time>2021-06-25T22:27:42.000Z</time>
        <extensions>
          <ns3:TrackPointExtension>
            <ns3:atemp>24.0</ns3:atemp>
            <ns3:hr>87</ns3:hr>
          </ns3:TrackPointExtension>
        </extensions>
      </trkpt>
      <trkpt lat="36.79028567858040332794189453125" lon="-118.41004162095487117767333984375">
        <ele>3601.39990234375</ele>
        <time>2021-06-25T22:27:45.000Z</time>
        <extensions>
          <ns3:TrackPointExtension>
            <ns3:atemp>24.0</ns3:atemp>
            <ns3:hr>86</ns3:hr>
          </ns3:TrackPointExtension>
        </extensions>
      </trkpt>
      <trkpt lat="36.79028986953198909759521484375" lon="-118.41007229872047901153564453125">
        <ele>3601</ele>
        <time>2021-06-25T22:27:48.000Z</time>
        <extensions>
          <ns3:TrackPointExtension>
            <ns3:atemp>24.0</ns3:atemp>
            <ns3:hr>85</ns3:hr>
          </ns3:TrackPointExtension>
        </extensions>
      </trkpt>
      <trkpt lat="36.79028467275202274322509765625" lon="-118.41012577526271343231201171875">
        <ele>3600.199951171875</ele>
        <time>2021-06-25T22:27:53.000Z</time>
        <extensions>
          <ns3:TrackPointExtension>
            <ns3:atemp>24.0</ns3:atemp>
            <ns3:hr>84</ns3:hr>
          </ns3:TrackPointExtension>
        </extensions>
      </trkpt>
      <trkpt lat="36.79027813486754894256591796875" lon="-118.41015980578958988189697265625">
        <ele>3599.800048828125</ele>
        <time>2021-06-25T22:27:56.000Z</time>
        <extensions>
          <ns3:TrackPointExtension>
            <ns3:atemp>24.0</ns3:atemp>
            <ns3:hr>86</ns3:hr>
          </ns3:TrackPointExtension>
        </extensions>
      </trkpt>
      <trkpt lat="36.790273524820804595947265625" lon="-118.41017237864434719085693359375">
        <ele>3599.800048828125</ele>
        <time>2021-06-25T22:27:57.000Z</time>
        <extensions>
          <ns3:TrackPointExtension>
            <ns3:atemp>24.0</ns3:atemp>
            <ns3:hr>86</ns3:hr>
          </ns3:TrackPointExtension>
        </extensions>
      </trkpt>
      <trkpt lat="36.79026841185986995697021484375" lon="-118.410208337008953094482421875">
        <ele>3599.60009765625</ele>
        <time>2021-06-25T22:28:00.000Z</time>
        <extensions>
          <ns3:TrackPointExtension>
            <ns3:atemp>24.0</ns3:atemp>
            <ns3:hr>83</ns3:hr>
          </ns3:TrackPointExtension>
        </extensions>
      </trkpt>
      <trkpt lat="36.7902666516602039337158203125" lon="-118.4102212451398372650146484375">
        <ele>3599.60009765625</ele>
        <time>2021-06-25T22:28:01.000Z</time>
        <extensions>
          <ns3:TrackPointExtension>
            <ns3:atemp>24.0</ns3:atemp>
            <ns3:hr>82</ns3:hr>
          </ns3:TrackPointExtension>
        </extensions>
      </trkpt>
      <trkpt lat="36.79026941768825054168701171875" lon="-118.41024530120193958282470703125">
        <ele>3599.39990234375</ele>
        <time>2021-06-25T22:28:03.000Z</time>
        <extensions>
          <ns3:TrackPointExtension>
            <ns3:atemp>24.0</ns3:atemp>
            <ns3:hr>80</ns3:hr>
          </ns3:TrackPointExtension>
        </extensions>
      </trkpt>
      <trkpt lat="36.7902745306491851806640625" lon="-118.4102681837975978851318359375">
        <ele>3599</ele>
        <time>2021-06-25T22:28:05.000Z</time>
        <extensions>
          <ns3:TrackPointExtension>
            <ns3:atemp>24.0</ns3:atemp>
            <ns3:hr>77</ns3:hr>
          </ns3:TrackPointExtension>
        </extensions>
      </trkpt>
      <trkpt lat="36.7902753688395023345947265625" lon="-118.4102891385555267333984375">
        <ele>3598.800048828125</ele>
        <time>2021-06-25T22:28:07.000Z</time>
        <extensions>
          <ns3:TrackPointExtension>
            <ns3:atemp>24.0</ns3:atemp>
            <ns3:hr>74</ns3:hr>
          </ns3:TrackPointExtension>
        </extensions>
      </trkpt>
      <trkpt lat="36.790282912552356719970703125" lon="-118.410300202667713165283203125">
        <ele>3598.199951171875</ele>
        <time>2021-06-25T22:28:09.000Z</time>
        <extensions>
          <ns3:TrackPointExtension>
            <ns3:atemp>24.0</ns3:atemp>
            <ns3:hr>74</ns3:hr>
          </ns3:TrackPointExtension>
        </extensions>
      </trkpt>
      <trkpt lat="36.7902891151607036590576171875" lon="-118.410286791622638702392578125">
        <ele>3597.60009765625</ele>
        <time>2021-06-25T22:28:11.000Z</time>
        <extensions>
          <ns3:TrackPointExtension>
            <ns3:atemp>24.0</ns3:atemp>
            <ns3:hr>73</ns3:hr>
          </ns3:TrackPointExtension>
        </extensions>
      </trkpt>
      <trkpt lat="36.79029623977839946746826171875" lon="-118.4102735482156276702880859375">
        <ele>3596.60009765625</ele>
        <time>2021-06-25T22:28:15.000Z</time>
        <extensions>
          <ns3:TrackPointExtension>
            <ns3:atemp>24.0</ns3:atemp>
            <ns3:hr>74</ns3:hr>
          </ns3:TrackPointExtension>
        </extensions>
      </trkpt>
      <trkpt lat="36.7902988381683826446533203125" lon="-118.4102705307304859161376953125">
        <ele>3596.60009765625</ele>
        <time>2021-06-25T22:28:16.000Z</time>
        <extensions>
          <ns3:TrackPointExtension>
            <ns3:atemp>24.0</ns3:atemp>
            <ns3:hr>74</ns3:hr>
          </ns3:TrackPointExtension>
        </extensions>
      </trkpt>
      <trkpt lat="36.79033932276070117950439453125" lon="-118.41021412052214145660400390625">
        <ele>3596.199951171875</ele>
        <time>2021-06-25T22:28:23.000Z</time>
        <extensions>
          <ns3:TrackPointExtension>
            <ns3:atemp>24.0</ns3:atemp>
            <ns3:hr>74</ns3:hr>
          </ns3:TrackPointExtension>
        </extensions>
      </trkpt>
      <trkpt lat="36.79035172797739505767822265625" lon="-118.4101831912994384765625">
        <ele>3595.199951171875</ele>
        <time>2021-06-25T22:28:26.000Z</time>
        <extensions>
          <ns3:TrackPointExtension>
            <ns3:atemp>24.0</ns3:atemp>
            <ns3:hr>74</ns3:hr>
          </ns3:TrackPointExtension>
        </extensions>
      </trkpt>
      <trkpt lat="36.790369413793087005615234375" lon="-118.41013516299426555633544921875">
        <ele>3595.199951171875</ele>
        <time>2021-06-25T22:28:31.000Z</time>
        <extensions>
          <ns3:TrackPointExtension>
            <ns3:atemp>24.0</ns3:atemp>
            <ns3:hr>77</ns3:hr>
          </ns3:TrackPointExtension>
        </extensions>
      </trkpt>
      <trkpt lat="36.79037536494433879852294921875" lon="-118.410127200186252593994140625">
        <ele>3595.199951171875</ele>
        <time>2021-06-25T22:28:32.000Z</time>
        <extensions>
          <ns3:TrackPointExtension>
            <ns3:atemp>24.0</ns3:atemp>
            <ns3:hr>76</ns3:hr>
          </ns3:TrackPointExtension>
        </extensions>
      </trkpt>
      <trkpt lat="36.7903943918645381927490234375" lon="-118.41005737893283367156982421875">
        <ele>3595</ele>
        <time>2021-06-25T22:28:39.000Z</time>
        <extensions>
          <ns3:TrackPointExtension>
            <ns3:atemp>24.0</ns3:atemp>
            <ns3:hr>75</ns3:hr>
          </ns3:TrackPointExtension>
        </extensions>
      </trkpt>
      <trkpt lat="36.79040017537772655487060546875" lon="-118.41004799120128154754638671875">
        <ele>3595</ele>
        <time>2021-06-25T22:28:40.000Z</time>
        <extensions>
          <ns3:TrackPointExtension>
            <ns3:atemp>24.0</ns3:atemp>
            <ns3:hr>78</ns3:hr>
          </ns3:TrackPointExtension>
        </extensions>
      </trkpt>
      <trkpt lat="36.79040453396737575531005859375" lon="-118.41003843583166599273681640625">
        <ele>3595</ele>
        <time>2021-06-25T22:28:41.000Z</time>
        <extensions>
          <ns3:TrackPointExtension>
            <ns3:atemp>24.0</ns3:atemp>
            <ns3:hr>75</ns3:hr>
          </ns3:TrackPointExtension>
        </extensions>
      </trkpt>
      <trkpt lat="36.79041895084083080291748046875" lon="-118.41000013053417205810546875">
        <ele>3594.199951171875</ele>
        <time>2021-06-25T22:28:45.000Z</time>
        <extensions>
          <ns3:TrackPointExtension>
            <ns3:atemp>24.0</ns3:atemp>
            <ns3:hr>76</ns3:hr>
          </ns3:TrackPointExtension>
        </extensions>
      </trkpt>
      <trkpt lat="36.79043604992330074310302734375" lon="-118.4099503420293331146240234375">
        <ele>3592.800048828125</ele>
        <time>2021-06-25T22:28:50.000Z</time>
        <extensions>
          <ns3:TrackPointExtension>
            <ns3:atemp>24.0</ns3:atemp>
            <ns3:hr>76</ns3:hr>
          </ns3:TrackPointExtension>
        </extensions>
      </trkpt>
      <trkpt lat="36.7904409952461719512939453125" lon="-118.40993064455687999725341796875">
        <ele>3594</ele>
        <time>2021-06-25T22:28:52.000Z</time>
        <extensions>
          <ns3:TrackPointExtension>
            <ns3:atemp>24.0</ns3:atemp>
            <ns3:hr>76</ns3:hr>
          </ns3:TrackPointExtension>
        </extensions>
      </trkpt>
      <trkpt lat="36.79045449011027812957763671875" lon="-118.409905917942523956298828125">
        <ele>3593</ele>
        <time>2021-06-25T22:28:55.000Z</time>
        <extensions>
          <ns3:TrackPointExtension>
            <ns3:atemp>24.0</ns3:atemp>
            <ns3:hr>77</ns3:hr>
          </ns3:TrackPointExtension>
        </extensions>
      </trkpt>
      <trkpt lat="36.7904647998511791229248046875" lon="-118.40987482108175754547119140625">
        <ele>3592</ele>
        <time>2021-06-25T22:28:58.000Z</time>
        <extensions>
          <ns3:TrackPointExtension>
            <ns3:atemp>24.0</ns3:atemp>
            <ns3:hr>77</ns3:hr>
          </ns3:TrackPointExtension>
        </extensions>
      </trkpt>
      <trkpt lat="36.79046605713665485382080078125" lon="-118.40986643917858600616455078125">
        <ele>3592</ele>
        <time>2021-06-25T22:28:59.000Z</time>
        <extensions>
          <ns3:TrackPointExtension>
            <ns3:atemp>24.0</ns3:atemp>
            <ns3:hr>77</ns3:hr>
          </ns3:TrackPointExtension>
        </extensions>
      </trkpt>
      <trkpt lat="36.79049053229391574859619140625" lon="-118.4098182432353496551513671875">
        <ele>3592</ele>
        <time>2021-06-25T22:29:04.000Z</time>
        <extensions>
          <ns3:TrackPointExtension>
            <ns3:atemp>24.0</ns3:atemp>
            <ns3:hr>80</ns3:hr>
          </ns3:TrackPointExtension>
        </extensions>
      </trkpt>
      <trkpt lat="36.79050989449024200439453125" lon="-118.409767448902130126953125">
        <ele>3591.199951171875</ele>
        <time>2021-06-25T22:29:09.000Z</time>
        <extensions>
          <ns3:TrackPointExtension>
            <ns3:atemp>24.0</ns3:atemp>
            <ns3:hr>80</ns3:hr>
          </ns3:TrackPointExtension>
        </extensions>
      </trkpt>
      <trkpt lat="36.79051802493631839752197265625" lon="-118.40974154882133007049560546875">
        <ele>3590.800048828125</ele>
        <time>2021-06-25T22:29:12.000Z</time>
        <extensions>
          <ns3:TrackPointExtension>
            <ns3:atemp>24.0</ns3:atemp>
            <ns3:hr>79</ns3:hr>
          </ns3:TrackPointExtension>
        </extensions>
      </trkpt>
      <trkpt lat="36.79053269326686859130859375" lon="-118.409708775579929351806640625">
        <ele>3590</ele>
        <time>2021-06-25T22:29:16.000Z</time>
        <extensions>
          <ns3:TrackPointExtension>
            <ns3:atemp>24.0</ns3:atemp>
            <ns3:hr>79</ns3:hr>
          </ns3:TrackPointExtension>
        </extensions>
      </trkpt>
      <trkpt lat="36.79053998552262783050537109375" lon="-118.40970282442867755889892578125">
        <ele>3589.60009765625</ele>
        <time>2021-06-25T22:29:19.000Z</time>
        <extensions>
          <ns3:TrackPointExtension>
            <ns3:atemp>24.0</ns3:atemp>
            <ns3:hr>79</ns3:hr>
          </ns3:TrackPointExtension>
        </extensions>
      </trkpt>
      <trkpt lat="36.7905445955693721771240234375" lon="-118.40970366261899471282958984375">
        <ele>3589.39990234375</ele>
        <time>2021-06-25T22:29:23.000Z</time>
        <extensions>
          <ns3:TrackPointExtension>
            <ns3:atemp>24.0</ns3:atemp>
            <ns3:hr>77</ns3:hr>
          </ns3:TrackPointExtension>
        </extensions>
      </trkpt>
      <trkpt lat="36.7905449308454990386962890625" lon="-118.40970332734286785125732421875">
        <ele>3589.199951171875</ele>
        <time>2021-06-25T22:29:24.000Z</time>
        <extensions>
          <ns3:TrackPointExtension>
            <ns3:atemp>24.0</ns3:atemp>
            <ns3:hr>76</ns3:hr>
          </ns3:TrackPointExtension>
        </extensions>
      </trkpt>
      <trkpt lat="36.7905427515506744384765625" lon="-118.409704081714153289794921875">
        <ele>3589</ele>
        <time>2021-06-25T22:29:30.000Z</time>
        <extensions>
          <ns3:TrackPointExtension>
            <ns3:atemp>24.0</ns3:atemp>
            <ns3:hr>73</ns3:hr>
          </ns3:TrackPointExtension>
        </extensions>
      </trkpt>
      <trkpt lat="36.7905427515506744384765625" lon="-118.409704081714153289794921875">
        <ele>3588.60009765625</ele>
        <time>2021-06-25T22:29:32.000Z</time>
        <extensions>
          <ns3:TrackPointExtension>
            <ns3:atemp>24.0</ns3:atemp>
            <ns3:hr>74</ns3:hr>
          </ns3:TrackPointExtension>
        </extensions>
      </trkpt>
      <trkpt lat="36.79054752923548221588134765625" lon="-118.40968270786106586456298828125">
        <ele>3587.60009765625</ele>
        <time>2021-06-25T22:29:38.000Z</time>
        <extensions>
          <ns3:TrackPointExtension>
            <ns3:atemp>24.0</ns3:atemp>
            <ns3:hr>76</ns3:hr>
          </ns3:TrackPointExtension>
        </extensions>
      </trkpt>
      <trkpt lat="36.79055892862379550933837890625" lon="-118.40962059795856475830078125">
        <ele>3586.800048828125</ele>
        <time>2021-06-25T22:29:42.000Z</time>
        <extensions>
          <ns3:TrackPointExtension>
            <ns3:atemp>24.0</ns3:atemp>
            <ns3:hr>78</ns3:hr>
          </ns3:TrackPointExtension>
        </extensions>
      </trkpt>
      <trkpt lat="36.79056244902312755584716796875" lon="-118.409607522189617156982421875">
        <ele>3586.39990234375</ele>
        <time>2021-06-25T22:29:43.000Z</time>
        <extensions>
          <ns3:TrackPointExtension>
            <ns3:atemp>24.0</ns3:atemp>
            <ns3:hr>78</ns3:hr>
          </ns3:TrackPointExtension>
        </extensions>
      </trkpt>
      <trkpt lat="36.790563873946666717529296875" lon="-118.4095595777034759521484375">
        <ele>3585.199951171875</ele>
        <time>2021-06-25T22:29:48.000Z</time>
        <extensions>
          <ns3:TrackPointExtension>
            <ns3:atemp>24.0</ns3:atemp>
            <ns3:hr>78</ns3:hr>
          </ns3:TrackPointExtension>
        </extensions>
      </trkpt>
      <trkpt lat="36.7905749380588531494140625" lon="-118.4095500223338603973388671875">
        <ele>3585</ele>
        <time>2021-06-25T22:29:50.000Z</time>
        <extensions>
          <ns3:TrackPointExtension>
            <ns3:atemp>24.0</ns3:atemp>
            <ns3:hr>79</ns3:hr>
          </ns3:TrackPointExtension>
        </extensions>
      </trkpt>
      <trkpt lat="36.7906005866825580596923828125" lon="-118.4095220267772674560546875">
        <ele>3584.199951171875</ele>
        <time>2021-06-25T22:29:55.000Z</time>
        <extensions>
          <ns3:TrackPointExtension>
            <ns3:atemp>24.0</ns3:atemp>
            <ns3:hr>77</ns3:hr>
          </ns3:TrackPointExtension>
        </extensions>
      </trkpt>
      <trkpt lat="36.79061475209891796112060546875" lon="-118.409488834440708160400390625">
        <ele>3583.60009765625</ele>
        <time>2021-06-25T22:29:59.000Z</time>
        <extensions>
          <ns3:TrackPointExtension>
            <ns3:atemp>24.0</ns3:atemp>
            <ns3:hr>75</ns3:hr>
          </ns3:TrackPointExtension>
        </extensions>
      </trkpt>
      <trkpt lat="36.79061709903180599212646484375" lon="-118.4094581566751003265380859375">
        <ele>3583</ele>
        <time>2021-06-25T22:30:02.000Z</time>
        <extensions>
          <ns3:TrackPointExtension>
            <ns3:atemp>24.0</ns3:atemp>
            <ns3:hr>74</ns3:hr>
          </ns3:TrackPointExtension>
        </extensions>
      </trkpt>
      <trkpt lat="36.7906156741082668304443359375" lon="-118.40939688496291637420654296875">
        <ele>3582</ele>
        <time>2021-06-25T22:30:07.000Z</time>
        <extensions>
          <ns3:TrackPointExtension>
            <ns3:atemp>24.0</ns3:atemp>
            <ns3:hr>77</ns3:hr>
          </ns3:TrackPointExtension>
        </extensions>
      </trkpt>
      <trkpt lat="36.7906156741082668304443359375" lon="-118.40937190689146518707275390625">
        <ele>3581.60009765625</ele>
        <time>2021-06-25T22:30:09.000Z</time>
        <extensions>
          <ns3:TrackPointExtension>
            <ns3:atemp>24.0</ns3:atemp>
            <ns3:hr>76</ns3:hr>
          </ns3:TrackPointExtension>
        </extensions>
      </trkpt>
      <trkpt lat="36.79058692418038845062255859375" lon="-118.4092672169208526611328125">
        <ele>3582</ele>
        <time>2021-06-25T22:30:19.000Z</time>
        <extensions>
          <ns3:TrackPointExtension>
            <ns3:atemp>24.0</ns3:atemp>
            <ns3:hr>78</ns3:hr>
          </ns3:TrackPointExtension>
        </extensions>
      </trkpt>
      <trkpt lat="36.79058625362813472747802734375" lon="-118.40922740288078784942626953125">
        <ele>3581</ele>
        <time>2021-06-25T22:30:23.000Z</time>
        <extensions>
          <ns3:TrackPointExtension>
            <ns3:atemp>24.0</ns3:atemp>
            <ns3:hr>81</ns3:hr>
          </ns3:TrackPointExtension>
        </extensions>
      </trkpt>
      <trkpt lat="36.7905883491039276123046875" lon="-118.40921784751117229461669921875">
        <ele>3581</ele>
        <time>2021-06-25T22:30:24.000Z</time>
        <extensions>
          <ns3:TrackPointExtension>
            <ns3:atemp>24.0</ns3:atemp>
            <ns3:hr>78</ns3:hr>
          </ns3:TrackPointExtension>
        </extensions>
      </trkpt>
      <trkpt lat="36.79059362970292568206787109375" lon="-118.40920695103704929351806640625">
        <ele>3580.800048828125</ele>
        <time>2021-06-25T22:30:26.000Z</time>
        <extensions>
          <ns3:TrackPointExtension>
            <ns3:atemp>24.0</ns3:atemp>
            <ns3:hr>79</ns3:hr>
          </ns3:TrackPointExtension>
        </extensions>
      </trkpt>
      <trkpt lat="36.79059564135968685150146484375" lon="-118.40920225717127323150634765625">
        <ele>3580</ele>
        <time>2021-06-25T22:30:27.000Z</time>
        <extensions>
          <ns3:TrackPointExtension>
            <ns3:atemp>24.0</ns3:atemp>
            <ns3:hr>79</ns3:hr>
          </ns3:TrackPointExtension>
        </extensions>
      </trkpt>
      <trkpt lat="36.79057418368756771087646484375" lon="-118.40920125134289264678955078125">
        <ele>3580.39990234375</ele>
        <time>2021-06-25T22:30:38.000Z</time>
        <extensions>
          <ns3:TrackPointExtension>
            <ns3:atemp>24.0</ns3:atemp>
            <ns3:hr>79</ns3:hr>
          </ns3:TrackPointExtension>
        </extensions>
      </trkpt>
      <trkpt lat="36.7905803024768829345703125" lon="-118.40920125134289264678955078125">
        <ele>3580.39990234375</ele>
        <time>2021-06-25T22:30:47.000Z</time>
        <extensions>
          <ns3:TrackPointExtension>
            <ns3:atemp>24.0</ns3:atemp>
            <ns3:hr>76</ns3:hr>
          </ns3:TrackPointExtension>
        </extensions>
      </trkpt>
      <trkpt lat="36.790587343275547027587890625" lon="-118.4092043526470661163330078125">
        <ele>3581.39990234375</ele>
        <time>2021-06-25T22:30:57.000Z</time>
        <extensions>
          <ns3:TrackPointExtension>
            <ns3:atemp>24.0</ns3:atemp>
            <ns3:hr>79</ns3:hr>
          </ns3:TrackPointExtension>
        </extensions>
      </trkpt>
      <trkpt lat="36.79058793000876903533935546875" lon="-118.4092043526470661163330078125">
        <ele>3581.39990234375</ele>
        <time>2021-06-25T22:30:59.000Z</time>
        <extensions>
          <ns3:TrackPointExtension>
            <ns3:atemp>24.0</ns3:atemp>
            <ns3:hr>82</ns3:hr>
          </ns3:TrackPointExtension>
        </extensions>
      </trkpt>
      <trkpt lat="36.790589354932308197021484375" lon="-118.40920753777027130126953125">
        <ele>3581.199951171875</ele>
        <time>2021-06-25T22:31:06.000Z</time>
        <extensions>
          <ns3:TrackPointExtension>
            <ns3:atemp>24.0</ns3:atemp>
            <ns3:hr>85</ns3:hr>
          </ns3:TrackPointExtension>
        </extensions>
      </trkpt>
      <trkpt lat="36.79059681482613086700439453125" lon="-118.4092107228934764862060546875">
        <ele>3581.800048828125</ele>
        <time>2021-06-25T22:31:09.000Z</time>
        <extensions>
          <ns3:TrackPointExtension>
            <ns3:atemp>24.0</ns3:atemp>
            <ns3:hr>88</ns3:hr>
          </ns3:TrackPointExtension>
        </extensions>
      </trkpt>
      <trkpt lat="36.79059798829257488250732421875" lon="-118.40921298600733280181884765625">
        <ele>3581.60009765625</ele>
        <time>2021-06-25T22:31:11.000Z</time>
        <extensions>
          <ns3:TrackPointExtension>
            <ns3:atemp>24.0</ns3:atemp>
            <ns3:hr>92</ns3:hr>
          </ns3:TrackPointExtension>
        </extensions>
      </trkpt>
      <trkpt lat="36.79059882648289203643798828125" lon="-118.4092150814831256866455078125">
        <ele>3581.60009765625</ele>
        <time>2021-06-25T22:31:14.000Z</time>
        <extensions>
          <ns3:TrackPointExtension>
            <ns3:atemp>24.0</ns3:atemp>
            <ns3:hr>95</ns3:hr>
          </ns3:TrackPointExtension>
        </extensions>
      </trkpt>
      <trkpt lat="36.79060720838606357574462890625" lon="-118.4092298336327075958251953125">
        <ele>3580.60009765625</ele>
        <time>2021-06-25T22:31:23.000Z</time>
        <extensions>
          <ns3:TrackPointExtension>
            <ns3:atemp>24.0</ns3:atemp>
            <ns3:hr>90</ns3:hr>
          </ns3:TrackPointExtension>
        </extensions>
      </trkpt>
      <trkpt lat="36.79060913622379302978515625" lon="-118.40923033654689788818359375">
        <ele>3580.60009765625</ele>
        <time>2021-06-25T22:31:25.000Z</time>
        <extensions>
          <ns3:TrackPointExtension>
            <ns3:atemp>24.0</ns3:atemp>
            <ns3:hr>86</ns3:hr>
          </ns3:TrackPointExtension>
        </extensions>
      </trkpt>
      <trkpt lat="36.79060922004282474517822265625" lon="-118.409236706793308258056640625">
        <ele>3579.800048828125</ele>
        <time>2021-06-25T22:31:28.000Z</time>
        <extensions>
          <ns3:TrackPointExtension>
            <ns3:atemp>24.0</ns3:atemp>
            <ns3:hr>84</ns3:hr>
          </ns3:TrackPointExtension>
        </extensions>
      </trkpt>
      <trkpt lat="36.79060922004282474517822265625" lon="-118.4092425741255283355712890625">
        <ele>3579.60009765625</ele>
        <time>2021-06-25T22:31:30.000Z</time>
        <extensions>
          <ns3:TrackPointExtension>
            <ns3:atemp>24.0</ns3:atemp>
            <ns3:hr>80</ns3:hr>
          </ns3:TrackPointExtension>
        </extensions>
      </trkpt>
      <trkpt lat="36.79061592556536197662353515625" lon="-118.40926386415958404541015625">
        <ele>3578.60009765625</ele>
        <time>2021-06-25T22:31:35.000Z</time>
        <extensions>
          <ns3:TrackPointExtension>
            <ns3:atemp>24.0</ns3:atemp>
            <ns3:hr>79</ns3:hr>
          </ns3:TrackPointExtension>
        </extensions>
      </trkpt>
      <trkpt lat="36.79063185118138790130615234375" lon="-118.40929999016225337982177734375">
        <ele>3578.199951171875</ele>
        <time>2021-06-25T22:31:41.000Z</time>
        <extensions>
          <ns3:TrackPointExtension>
            <ns3:atemp>24.0</ns3:atemp>
            <ns3:hr>83</ns3:hr>
          </ns3:TrackPointExtension>
        </extensions>
      </trkpt>
      <trkpt lat="36.79063587449491024017333984375" lon="-118.4093056060373783111572265625">
        <ele>3578.199951171875</ele>
        <time>2021-06-25T22:31:42.000Z</time>
        <extensions>
          <ns3:TrackPointExtension>
            <ns3:atemp>24.0</ns3:atemp>
            <ns3:hr>86</ns3:hr>
          </ns3:TrackPointExtension>
        </extensions>
      </trkpt>
      <trkpt lat="36.79064425639808177947998046875" lon="-118.40931884944438934326171875">
        <ele>3578</ele>
        <time>2021-06-25T22:31:44.000Z</time>
        <extensions>
          <ns3:TrackPointExtension>
            <ns3:atemp>24.0</ns3:atemp>
            <ns3:hr>90</ns3:hr>
          </ns3:TrackPointExtension>
        </extensions>
      </trkpt>
      <trkpt lat="36.7906512133777141571044921875" lon="-118.4093327634036540985107421875">
        <ele>3577.800048828125</ele>
        <time>2021-06-25T22:31:46.000Z</time>
        <extensions>
          <ns3:TrackPointExtension>
            <ns3:atemp>24.0</ns3:atemp>
            <ns3:hr>93</ns3:hr>
          </ns3:TrackPointExtension>
        </extensions>
      </trkpt>
      <trkpt lat="36.7906549014151096343994140625" lon="-118.40934156440198421478271484375">
        <ele>3577.60009765625</ele>
        <time>2021-06-25T22:31:47.000Z</time>
        <extensions>
          <ns3:TrackPointExtension>
            <ns3:atemp>24.0</ns3:atemp>
            <ns3:hr>95</ns3:hr>
          </ns3:TrackPointExtension>
        </extensions>
      </trkpt>
      <trkpt lat="36.790659762918949127197265625" lon="-118.40935849584639072418212890625">
        <ele>3577.60009765625</ele>
        <time>2021-06-25T22:31:49.000Z</time>
        <extensions>
          <ns3:TrackPointExtension>
            <ns3:atemp>24.0</ns3:atemp>
            <ns3:hr>98</ns3:hr>
          </ns3:TrackPointExtension>
        </extensions>
      </trkpt>
      <trkpt lat="36.79066370241343975067138671875" lon="-118.40937408618628978729248046875">
        <ele>3577.199951171875</ele>
        <time>2021-06-25T22:31:51.000Z</time>
        <extensions>
          <ns3:TrackPointExtension>
            <ns3:atemp>24.0</ns3:atemp>
            <ns3:hr>102</ns3:hr>
          </ns3:TrackPointExtension>
        </extensions>
      </trkpt>
      <trkpt lat="36.79067979566752910614013671875" lon="-118.40942370705306529998779296875">
        <ele>3576.800048828125</ele>
        <time>2021-06-25T22:31:54.000Z</time>
        <extensions>
          <ns3:TrackPointExtension>
            <ns3:atemp>24.0</ns3:atemp>
            <ns3:hr>105</ns3:hr>
          </ns3:TrackPointExtension>
        </extensions>
      </trkpt>
      <trkpt lat="36.79069094359874725341796875" lon="-118.4094657003879547119140625">
        <ele>3576.60009765625</ele>
        <time>2021-06-25T22:31:56.000Z</time>
        <extensions>
          <ns3:TrackPointExtension>
            <ns3:atemp>24.0</ns3:atemp>
            <ns3:hr>107</ns3:hr>
          </ns3:TrackPointExtension>
        </extensions>
      </trkpt>
      <trkpt lat="36.79073276929557323455810546875" lon="-118.40956251136958599090576171875">
        <ele>3575</ele>
        <time>2021-06-25T22:32:01.000Z</time>
        <extensions>
          <ns3:TrackPointExtension>
            <ns3:atemp>24.0</ns3:atemp>
            <ns3:hr>110</ns3:hr>
          </ns3:TrackPointExtension>
        </extensions>
      </trkpt>
      <trkpt lat="36.7907444201409816741943359375" lon="-118.4095971286296844482421875">
        <ele>3573.800048828125</ele>
        <time>2021-06-25T22:32:05.000Z</time>
        <extensions>
          <ns3:TrackPointExtension>
            <ns3:atemp>25.0</ns3:atemp>
            <ns3:hr>108</ns3:hr>
          </ns3:TrackPointExtension>
        </extensions>
      </trkpt>
      <trkpt lat="36.79076814092695713043212890625" lon="-118.40964465402066707611083984375">
        <ele>3572.60009765625</ele>
        <time>2021-06-25T22:32:11.000Z</time>
        <extensions>
          <ns3:TrackPointExtension>
            <ns3:atemp>25.0</ns3:atemp>
            <ns3:hr>106</ns3:hr>
          </ns3:TrackPointExtension>
        </extensions>
      </trkpt>
      <trkpt lat="36.790764033794403076171875" lon="-118.40965278446674346923828125">
        <ele>3572.60009765625</ele>
        <time>2021-06-25T22:32:12.000Z</time>
        <extensions>
          <ns3:TrackPointExtension>
            <ns3:atemp>25.0</ns3:atemp>
            <ns3:hr>106</ns3:hr>
          </ns3:TrackPointExtension>
        </extensions>
      </trkpt>
      <trkpt lat="36.79076763801276683807373046875" lon="-118.409703411161899566650390625">
        <ele>3571.39990234375</ele>
        <time>2021-06-25T22:32:18.000Z</time>
        <extensions>
          <ns3:TrackPointExtension>
            <ns3:atemp>25.0</ns3:atemp>
            <ns3:hr>105</ns3:hr>
          </ns3:TrackPointExtension>
        </extensions>
      </trkpt>
      <trkpt lat="36.7907742597162723541259765625" lon="-118.4097304008901119232177734375">
        <ele>3570.39990234375</ele>
        <time>2021-06-25T22:32:21.000Z</time>
        <extensions>
          <ns3:TrackPointExtension>
            <ns3:atemp>25.0</ns3:atemp>
            <ns3:hr>105</ns3:hr>
          </ns3:TrackPointExtension>
        </extensions>
      </trkpt>
      <trkpt lat="36.79078456945717334747314453125" lon="-118.40974758379161357879638671875">
        <ele>3570</ele>
        <time>2021-06-25T22:32:23.000Z</time>
        <extensions>
          <ns3:TrackPointExtension>
            <ns3:atemp>25.0</ns3:atemp>
            <ns3:hr>105</ns3:hr>
          </ns3:TrackPointExtension>
        </extensions>
      </trkpt>
      <trkpt lat="36.79078825749456882476806640625" lon="-118.40977482497692108154296875">
        <ele>3569.199951171875</ele>
        <time>2021-06-25T22:32:26.000Z</time>
        <extensions>
          <ns3:TrackPointExtension>
            <ns3:atemp>25.0</ns3:atemp>
            <ns3:hr>106</ns3:hr>
          </ns3:TrackPointExtension>
        </extensions>
      </trkpt>
      <trkpt lat="36.7907994054257869720458984375" lon="-118.409803323447704315185546875">
        <ele>3568.800048828125</ele>
        <time>2021-06-25T22:32:29.000Z</time>
        <extensions>
          <ns3:TrackPointExtension>
            <ns3:atemp>25.0</ns3:atemp>
            <ns3:hr>107</ns3:hr>
          </ns3:TrackPointExtension>
        </extensions>
      </trkpt>
      <trkpt lat="36.79080502130091190338134765625" lon="-118.40982235036790370941162109375">
        <ele>3568.199951171875</ele>
        <time>2021-06-25T22:32:31.000Z</time>
        <extensions>
          <ns3:TrackPointExtension>
            <ns3:atemp>25.0</ns3:atemp>
            <ns3:hr>107</ns3:hr>
          </ns3:TrackPointExtension>
        </extensions>
      </trkpt>
      <trkpt lat="36.79080686531960964202880859375" lon="-118.40983249247074127197265625">
        <ele>3568</ele>
        <time>2021-06-25T22:32:32.000Z</time>
        <extensions>
          <ns3:TrackPointExtension>
            <ns3:atemp>25.0</ns3:atemp>
            <ns3:hr>107</ns3:hr>
          </ns3:TrackPointExtension>
        </extensions>
      </trkpt>
      <trkpt lat="36.7908061109483242034912109375" lon="-118.40984188020229339599609375">
        <ele>3567.800048828125</ele>
        <time>2021-06-25T22:32:33.000Z</time>
        <extensions>
          <ns3:TrackPointExtension>
            <ns3:atemp>25.0</ns3:atemp>
            <ns3:hr>107</ns3:hr>
          </ns3:TrackPointExtension>
        </extensions>
      </trkpt>
      <trkpt lat="36.79080066271126270294189453125" lon="-118.4098584763705730438232421875">
        <ele>3567.800048828125</ele>
        <time>2021-06-25T22:32:35.000Z</time>
        <extensions>
          <ns3:TrackPointExtension>
            <ns3:atemp>25.0</ns3:atemp>
            <ns3:hr>107</ns3:hr>
          </ns3:TrackPointExtension>
        </extensions>
      </trkpt>
      <trkpt lat="36.79079496301710605621337890625" lon="-118.409896194934844970703125">
        <ele>3567.199951171875</ele>
        <time>2021-06-25T22:32:39.000Z</time>
        <extensions>
          <ns3:TrackPointExtension>
            <ns3:atemp>25.0</ns3:atemp>
            <ns3:hr>105</ns3:hr>
          </ns3:TrackPointExtension>
        </extensions>
      </trkpt>
      <trkpt lat="36.79079647175967693328857421875" lon="-118.409936763346195220947265625">
        <ele>3566.60009765625</ele>
        <time>2021-06-25T22:32:43.000Z</time>
        <extensions>
          <ns3:TrackPointExtension>
            <ns3:atemp>25.0</ns3:atemp>
            <ns3:hr>104</ns3:hr>
          </ns3:TrackPointExtension>
        </extensions>
      </trkpt>
      <trkpt lat="36.79079697467386722564697265625" lon="-118.40994774363934993743896484375">
        <ele>3566.199951171875</ele>
        <time>2021-06-25T22:32:44.000Z</time>
        <extensions>
          <ns3:TrackPointExtension>
            <ns3:atemp>25.0</ns3:atemp>
            <ns3:hr>104</ns3:hr>
          </ns3:TrackPointExtension>
        </extensions>
      </trkpt>
      <trkpt lat="36.7908154986798763275146484375" lon="-118.4099530242383480072021484375">
        <ele>3566</ele>
        <time>2021-06-25T22:32:47.000Z</time>
        <extensions>
          <ns3:TrackPointExtension>
            <ns3:atemp>25.0</ns3:atemp>
            <ns3:hr>103</ns3:hr>
          </ns3:TrackPointExtension>
        </extensions>
      </trkpt>
      <trkpt lat="36.79083368740975856781005859375" lon="-118.40994137339293956756591796875">
        <ele>3565.800048828125</ele>
        <time>2021-06-25T22:32:50.000Z</time>
        <extensions>
          <ns3:TrackPointExtension>
            <ns3:atemp>25.0</ns3:atemp>
            <ns3:hr>104</ns3:hr>
          </ns3:TrackPointExtension>
        </extensions>
      </trkpt>
      <trkpt lat="36.79084357805550098419189453125" lon="-118.40992762707173824310302734375">
        <ele>3565.199951171875</ele>
        <time>2021-06-25T22:32:52.000Z</time>
        <extensions>
          <ns3:TrackPointExtension>
            <ns3:atemp>25.0</ns3:atemp>
            <ns3:hr>102</ns3:hr>
          </ns3:TrackPointExtension>
        </extensions>
      </trkpt>
      <trkpt lat="36.79085162468254566192626953125" lon="-118.40991161763668060302734375">
        <ele>3564.800048828125</ele>
        <time>2021-06-25T22:32:54.000Z</time>
        <extensions>
          <ns3:TrackPointExtension>
            <ns3:atemp>25.0</ns3:atemp>
            <ns3:hr>104</ns3:hr>
          </ns3:TrackPointExtension>
        </extensions>
      </trkpt>
      <trkpt lat="36.79085548035800457000732421875" lon="-118.40990365482866764068603515625">
        <ele>3564.39990234375</ele>
        <time>2021-06-25T22:32:55.000Z</time>
        <extensions>
          <ns3:TrackPointExtension>
            <ns3:atemp>25.0</ns3:atemp>
            <ns3:hr>104</ns3:hr>
          </ns3:TrackPointExtension>
        </extensions>
      </trkpt>
      <trkpt lat="36.7908647842705249786376953125" lon="-118.4098894894123077392578125">
        <ele>3563.800048828125</ele>
        <time>2021-06-25T22:32:57.000Z</time>
        <extensions>
          <ns3:TrackPointExtension>
            <ns3:atemp>25.0</ns3:atemp>
            <ns3:hr>103</ns3:hr>
          </ns3:TrackPointExtension>
        </extensions>
      </trkpt>
      <trkpt lat="36.7908807098865509033203125" lon="-118.409867025911808013916015625">
        <ele>3563.39990234375</ele>
        <time>2021-06-25T22:33:00.000Z</time>
        <extensions>
          <ns3:TrackPointExtension>
            <ns3:atemp>25.0</ns3:atemp>
            <ns3:hr>102</ns3:hr>
          </ns3:TrackPointExtension>
        </extensions>
      </trkpt>
      <trkpt lat="36.79088548757135868072509765625" lon="-118.409852944314479827880859375">
        <ele>3562.800048828125</ele>
        <time>2021-06-25T22:33:02.000Z</time>
        <extensions>
          <ns3:TrackPointExtension>
            <ns3:atemp>25.0</ns3:atemp>
            <ns3:hr>100</ns3:hr>
          </ns3:TrackPointExtension>
        </extensions>
      </trkpt>
      <trkpt lat="36.79088951088488101959228515625" lon="-118.40984665788710117340087890625">
        <ele>3562.800048828125</ele>
        <time>2021-06-25T22:33:03.000Z</time>
        <extensions>
          <ns3:TrackPointExtension>
            <ns3:atemp>25.0</ns3:atemp>
            <ns3:hr>101</ns3:hr>
          </ns3:TrackPointExtension>
        </extensions>
      </trkpt>
      <trkpt lat="36.790892779827117919921875" lon="-118.4098373539745807647705078125">
        <ele>3562.800048828125</ele>
        <time>2021-06-25T22:33:04.000Z</time>
        <extensions>
          <ns3:TrackPointExtension>
            <ns3:atemp>25.0</ns3:atemp>
            <ns3:hr>101</ns3:hr>
          </ns3:TrackPointExtension>
        </extensions>
      </trkpt>
      <trkpt lat="36.79090091027319431304931640625" lon="-118.4097957797348499298095703125">
        <ele>3562.39990234375</ele>
        <time>2021-06-25T22:33:08.000Z</time>
        <extensions>
          <ns3:TrackPointExtension>
            <ns3:atemp>25.0</ns3:atemp>
            <ns3:hr>101</ns3:hr>
          </ns3:TrackPointExtension>
        </extensions>
      </trkpt>
      <trkpt lat="36.79090275429189205169677734375" lon="-118.40978295542299747467041015625">
        <ele>3562.39990234375</ele>
        <time>2021-06-25T22:33:09.000Z</time>
        <extensions>
          <ns3:TrackPointExtension>
            <ns3:atemp>25.0</ns3:atemp>
            <ns3:hr>105</ns3:hr>
          </ns3:TrackPointExtension>
        </extensions>
      </trkpt>
      <trkpt lat="36.7909056879580020904541015625" lon="-118.40977507643401622772216796875">
        <ele>3562.199951171875</ele>
        <time>2021-06-25T22:33:10.000Z</time>
        <extensions>
          <ns3:TrackPointExtension>
            <ns3:atemp>25.0</ns3:atemp>
            <ns3:hr>101</ns3:hr>
          </ns3:TrackPointExtension>
        </extensions>
      </trkpt>
      <trkpt lat="36.79090761579573154449462890625" lon="-118.4097666107118129730224609375">
        <ele>3562.199951171875</ele>
        <time>2021-06-25T22:33:11.000Z</time>
        <extensions>
          <ns3:TrackPointExtension>
            <ns3:atemp>25.0</ns3:atemp>
            <ns3:hr>101</ns3:hr>
          </ns3:TrackPointExtension>
        </extensions>
      </trkpt>
      <trkpt lat="36.79090845398604869842529296875" lon="-118.4097451530396938323974609375">
        <ele>3562.199951171875</ele>
        <time>2021-06-25T22:33:13.000Z</time>
        <extensions>
          <ns3:TrackPointExtension>
            <ns3:atemp>25.0</ns3:atemp>
            <ns3:hr>101</ns3:hr>
          </ns3:TrackPointExtension>
        </extensions>
      </trkpt>
      <trkpt lat="36.79090677760541439056396484375" lon="-118.409725539386272430419921875">
        <ele>3561.800048828125</ele>
        <time>2021-06-25T22:33:15.000Z</time>
        <extensions>
          <ns3:TrackPointExtension>
            <ns3:atemp>25.0</ns3:atemp>
            <ns3:hr>101</ns3:hr>
          </ns3:TrackPointExtension>
        </extensions>
      </trkpt>
      <trkpt lat="36.7909061908721923828125" lon="-118.409693352878093719482421875">
        <ele>3561.199951171875</ele>
        <time>2021-06-25T22:33:19.000Z</time>
        <extensions>
          <ns3:TrackPointExtension>
            <ns3:atemp>25.0</ns3:atemp>
            <ns3:hr>101</ns3:hr>
          </ns3:TrackPointExtension>
        </extensions>
      </trkpt>
      <trkpt lat="36.79090895690023899078369140625" lon="-118.409687317907810211181640625">
        <ele>3561.199951171875</ele>
        <time>2021-06-25T22:33:20.000Z</time>
        <extensions>
          <ns3:TrackPointExtension>
            <ns3:atemp>25.0</ns3:atemp>
            <ns3:hr>98</ns3:hr>
          </ns3:TrackPointExtension>
        </extensions>
      </trkpt>
      <trkpt lat="36.79091583006083965301513671875" lon="-118.4096797741949558258056640625">
        <ele>3561</ele>
        <time>2021-06-25T22:33:22.000Z</time>
        <extensions>
          <ns3:TrackPointExtension>
            <ns3:atemp>25.0</ns3:atemp>
            <ns3:hr>96</ns3:hr>
          </ns3:TrackPointExtension>
        </extensions>
      </trkpt>
      <trkpt lat="36.79092002101242542266845703125" lon="-118.409680612385272979736328125">
        <ele>3560.800048828125</ele>
        <time>2021-06-25T22:33:23.000Z</time>
        <extensions>
          <ns3:TrackPointExtension>
            <ns3:atemp>25.0</ns3:atemp>
            <ns3:hr>96</ns3:hr>
          </ns3:TrackPointExtension>
        </extensions>
      </trkpt>
      <trkpt lat="36.7909264750778675079345703125" lon="-118.409691341221332550048828125">
        <ele>3560.199951171875</ele>
        <time>2021-06-25T22:33:25.000Z</time>
        <extensions>
          <ns3:TrackPointExtension>
            <ns3:atemp>25.0</ns3:atemp>
            <ns3:hr>95</ns3:hr>
          </ns3:TrackPointExtension>
        </extensions>
      </trkpt>
      <trkpt lat="36.7909402213990688323974609375" lon="-118.4097153134644031524658203125">
        <ele>3559.60009765625</ele>
        <time>2021-06-25T22:33:29.000Z</time>
        <extensions>
          <ns3:TrackPointExtension>
            <ns3:atemp>25.0</ns3:atemp>
            <ns3:hr>94</ns3:hr>
          </ns3:TrackPointExtension>
        </extensions>
      </trkpt>
      <trkpt lat="36.79094801656901836395263671875" lon="-118.4097461588680744171142578125">
        <ele>3559.199951171875</ele>
        <time>2021-06-25T22:33:33.000Z</time>
        <extensions>
          <ns3:TrackPointExtension>
            <ns3:atemp>25.0</ns3:atemp>
            <ns3:hr>93</ns3:hr>
          </ns3:TrackPointExtension>
        </extensions>
      </trkpt>
      <trkpt lat="36.790950112044811248779296875" lon="-118.409756384789943695068359375">
        <ele>3558.60009765625</ele>
        <time>2021-06-25T22:33:34.000Z</time>
        <extensions>
          <ns3:TrackPointExtension>
            <ns3:atemp>25.0</ns3:atemp>
            <ns3:hr>93</ns3:hr>
          </ns3:TrackPointExtension>
        </extensions>
      </trkpt>
      <trkpt lat="36.79095673374831676483154296875" lon="-118.4098048321902751922607421875">
        <ele>3557.60009765625</ele>
        <time>2021-06-25T22:33:39.000Z</time>
        <extensions>
          <ns3:TrackPointExtension>
            <ns3:atemp>25.0</ns3:atemp>
            <ns3:hr>90</ns3:hr>
          </ns3:TrackPointExtension>
        </extensions>
      </trkpt>
      <trkpt lat="36.7909613437950611114501953125" lon="-118.4098125435411930084228515625">
        <ele>3557.60009765625</ele>
        <time>2021-06-25T22:33:40.000Z</time>
        <extensions>
          <ns3:TrackPointExtension>
            <ns3:atemp>25.0</ns3:atemp>
            <ns3:hr>90</ns3:hr>
          </ns3:TrackPointExtension>
        </extensions>
      </trkpt>
      <trkpt lat="36.79097651503980159759521484375" lon="-118.409810364246368408203125">
        <ele>3557.199951171875</ele>
        <time>2021-06-25T22:33:42.000Z</time>
        <extensions>
          <ns3:TrackPointExtension>
            <ns3:atemp>25.0</ns3:atemp>
            <ns3:hr>90</ns3:hr>
          </ns3:TrackPointExtension>
        </extensions>
      </trkpt>
      <trkpt lat="36.7909828014671802520751953125" lon="-118.40980508364737033843994140625">
        <ele>3556.800048828125</ele>
        <time>2021-06-25T22:33:43.000Z</time>
        <extensions>
          <ns3:TrackPointExtension>
            <ns3:atemp>25.0</ns3:atemp>
            <ns3:hr>90</ns3:hr>
          </ns3:TrackPointExtension>
        </extensions>
      </trkpt>
      <trkpt lat="36.791001074016094207763671875" lon="-118.409780524671077728271484375">
        <ele>3556.39990234375</ele>
        <time>2021-06-25T22:33:46.000Z</time>
        <extensions>
          <ns3:TrackPointExtension>
            <ns3:atemp>25.0</ns3:atemp>
            <ns3:hr>89</ns3:hr>
          </ns3:TrackPointExtension>
        </extensions>
      </trkpt>
      <trkpt lat="36.79100551642477512359619140625" lon="-118.40976099483668804168701171875">
        <ele>3556.39990234375</ele>
        <time>2021-06-25T22:33:48.000Z</time>
        <extensions>
          <ns3:TrackPointExtension>
            <ns3:atemp>25.0</ns3:atemp>
            <ns3:hr>89</ns3:hr>
          </ns3:TrackPointExtension>
        </extensions>
      </trkpt>
      <trkpt lat="36.79100518114864826202392578125" lon="-118.40973249636590480804443359375">
        <ele>3555.800048828125</ele>
        <time>2021-06-25T22:33:51.000Z</time>
        <extensions>
          <ns3:TrackPointExtension>
            <ns3:atemp>25.0</ns3:atemp>
            <ns3:hr>89</ns3:hr>
          </ns3:TrackPointExtension>
        </extensions>
      </trkpt>
      <trkpt lat="36.79101088084280490875244140625" lon="-118.409718833863735198974609375">
        <ele>3555.199951171875</ele>
        <time>2021-06-25T22:33:53.000Z</time>
        <extensions>
          <ns3:TrackPointExtension>
            <ns3:atemp>25.0</ns3:atemp>
            <ns3:hr>88</ns3:hr>
          </ns3:TrackPointExtension>
        </extensions>
      </trkpt>
      <trkpt lat="36.79102353751659393310546875" lon="-118.4096834622323513031005859375">
        <ele>3554.60009765625</ele>
        <time>2021-06-25T22:33:59.000Z</time>
        <extensions>
          <ns3:TrackPointExtension>
            <ns3:atemp>25.0</ns3:atemp>
            <ns3:hr>88</ns3:hr>
          </ns3:TrackPointExtension>
        </extensions>
      </trkpt>
      <trkpt lat="36.79102848283946514129638671875" lon="-118.4096653573215007781982421875">
        <ele>3554</ele>
        <time>2021-06-25T22:34:02.000Z</time>
        <extensions>
          <ns3:TrackPointExtension>
            <ns3:atemp>25.0</ns3:atemp>
            <ns3:hr>88</ns3:hr>
          </ns3:TrackPointExtension>
        </extensions>
      </trkpt>
      <trkpt lat="36.79103560745716094970703125" lon="-118.4096467494964599609375">
        <ele>3553</ele>
        <time>2021-06-25T22:34:05.000Z</time>
        <extensions>
          <ns3:TrackPointExtension>
            <ns3:atemp>25.0</ns3:atemp>
            <ns3:hr>87</ns3:hr>
          </ns3:TrackPointExtension>
        </extensions>
      </trkpt>
      <trkpt lat="36.79104910232126712799072265625" lon="-118.40961816720664501190185546875">
        <ele>3552.39990234375</ele>
        <time>2021-06-25T22:34:09.000Z</time>
        <extensions>
          <ns3:TrackPointExtension>
            <ns3:atemp>25.0</ns3:atemp>
            <ns3:hr>88</ns3:hr>
          </ns3:TrackPointExtension>
        </extensions>
      </trkpt>
      <trkpt lat="36.7910605855286121368408203125" lon="-118.409617245197296142578125">
        <ele>3551.800048828125</ele>
        <time>2021-06-25T22:34:11.000Z</time>
        <extensions>
          <ns3:TrackPointExtension>
            <ns3:atemp>25.0</ns3:atemp>
            <ns3:hr>86</ns3:hr>
          </ns3:TrackPointExtension>
        </extensions>
      </trkpt>
      <trkpt lat="36.791085563600063323974609375" lon="-118.40963627211749553680419921875">
        <ele>3550.60009765625</ele>
        <time>2021-06-25T22:34:16.000Z</time>
        <extensions>
          <ns3:TrackPointExtension>
            <ns3:atemp>25.0</ns3:atemp>
            <ns3:hr>86</ns3:hr>
          </ns3:TrackPointExtension>
        </extensions>
      </trkpt>
      <trkpt lat="36.79109386168420314788818359375" lon="-118.4096351824700832366943359375">
        <ele>3550.39990234375</ele>
        <time>2021-06-25T22:34:17.000Z</time>
        <extensions>
          <ns3:TrackPointExtension>
            <ns3:atemp>25.0</ns3:atemp>
            <ns3:hr>87</ns3:hr>
          </ns3:TrackPointExtension>
        </extensions>
      </trkpt>
      <trkpt lat="36.79110400378704071044921875" lon="-118.4095837175846099853515625">
        <ele>3549</ele>
        <time>2021-06-25T22:34:24.000Z</time>
        <extensions>
          <ns3:TrackPointExtension>
            <ns3:atemp>25.0</ns3:atemp>
            <ns3:hr>85</ns3:hr>
          </ns3:TrackPointExtension>
        </extensions>
      </trkpt>
      <trkpt lat="36.79109201766550540924072265625" lon="-118.409564606845378875732421875">
        <ele>3548.800048828125</ele>
        <time>2021-06-25T22:34:27.000Z</time>
        <extensions>
          <ns3:TrackPointExtension>
            <ns3:atemp>25.0</ns3:atemp>
            <ns3:hr>88</ns3:hr>
          </ns3:TrackPointExtension>
        </extensions>
      </trkpt>
      <trkpt lat="36.79107642732560634613037109375" lon="-118.4095345996320247650146484375">
        <ele>3548.39990234375</ele>
        <time>2021-06-25T22:34:32.000Z</time>
        <extensions>
          <ns3:TrackPointExtension>
            <ns3:atemp>25.0</ns3:atemp>
            <ns3:hr>91</ns3:hr>
          </ns3:TrackPointExtension>
        </extensions>
      </trkpt>
      <trkpt lat="36.7910709790885448455810546875" lon="-118.40952445752918720245361328125">
        <ele>3548</ele>
        <time>2021-06-25T22:34:34.000Z</time>
        <extensions>
          <ns3:TrackPointExtension>
            <ns3:atemp>25.0</ns3:atemp>
            <ns3:hr>93</ns3:hr>
          </ns3:TrackPointExtension>
        </extensions>
      </trkpt>
      <trkpt lat="36.7910706438124179840087890625" lon="-118.4095188416540622711181640625">
        <ele>3548</ele>
        <time>2021-06-25T22:34:35.000Z</time>
        <extensions>
          <ns3:TrackPointExtension>
            <ns3:atemp>25.0</ns3:atemp>
            <ns3:hr>94</ns3:hr>
          </ns3:TrackPointExtension>
        </extensions>
      </trkpt>
      <trkpt lat="36.79107843898236751556396484375" lon="-118.40950450859963893890380859375">
        <ele>3547.60009765625</ele>
        <time>2021-06-25T22:34:39.000Z</time>
        <extensions>
          <ns3:TrackPointExtension>
            <ns3:atemp>25.0</ns3:atemp>
            <ns3:hr>97</ns3:hr>
          </ns3:TrackPointExtension>
        </extensions>
      </trkpt>
      <trkpt lat="36.79109235294163227081298828125" lon="-118.40951959602534770965576171875">
        <ele>3547</ele>
        <time>2021-06-25T22:34:42.000Z</time>
        <extensions>
          <ns3:TrackPointExtension>
            <ns3:atemp>25.0</ns3:atemp>
            <ns3:hr>98</ns3:hr>
          </ns3:TrackPointExtension>
        </extensions>
      </trkpt>
      <trkpt lat="36.7910961247980594635009765625" lon="-118.40952479280531406402587890625">
        <ele>3546.800048828125</ele>
        <time>2021-06-25T22:34:43.000Z</time>
        <extensions>
          <ns3:TrackPointExtension>
            <ns3:atemp>25.0</ns3:atemp>
            <ns3:hr>97</ns3:hr>
          </ns3:TrackPointExtension>
        </extensions>
      </trkpt>
      <trkpt lat="36.79111632518470287322998046875" lon="-118.40955278836190700531005859375">
        <ele>3545.60009765625</ele>
        <time>2021-06-25T22:34:48.000Z</time>
        <extensions>
          <ns3:TrackPointExtension>
            <ns3:atemp>25.0</ns3:atemp>
            <ns3:hr>96</ns3:hr>
          </ns3:TrackPointExtension>
        </extensions>
      </trkpt>
      <trkpt lat="36.79112655110657215118408203125" lon="-118.409555219113826751708984375">
        <ele>3545.199951171875</ele>
        <time>2021-06-25T22:34:49.000Z</time>
        <extensions>
          <ns3:TrackPointExtension>
            <ns3:atemp>25.0</ns3:atemp>
            <ns3:hr>95</ns3:hr>
          </ns3:TrackPointExtension>
        </extensions>
      </trkpt>
      <trkpt lat="36.79113895632326602935791015625" lon="-118.409559242427349090576171875">
        <ele>3544.60009765625</ele>
        <time>2021-06-25T22:34:52.000Z</time>
        <extensions>
          <ns3:TrackPointExtension>
            <ns3:atemp>25.0</ns3:atemp>
            <ns3:hr>92</ns3:hr>
          </ns3:TrackPointExtension>
        </extensions>
      </trkpt>
      <trkpt lat="36.79114666767418384552001953125" lon="-118.40952672064304351806640625">
        <ele>3544.199951171875</ele>
        <time>2021-06-25T22:34:57.000Z</time>
        <extensions>
          <ns3:TrackPointExtension>
            <ns3:atemp>25.0</ns3:atemp>
            <ns3:hr>90</ns3:hr>
          </ns3:TrackPointExtension>
        </extensions>
      </trkpt>
      <trkpt lat="36.79114582948386669158935546875" lon="-118.40951062738895416259765625">
        <ele>3543.60009765625</ele>
        <time>2021-06-25T22:34:59.000Z</time>
        <extensions>
          <ns3:TrackPointExtension>
            <ns3:atemp>25.0</ns3:atemp>
            <ns3:hr>89</ns3:hr>
          </ns3:TrackPointExtension>
        </extensions>
      </trkpt>
      <trkpt lat="36.79114901460707187652587890625" lon="-118.40949528850615024566650390625">
        <ele>3543.39990234375</ele>
        <time>2021-06-25T22:35:01.000Z</time>
        <extensions>
          <ns3:TrackPointExtension>
            <ns3:atemp>25.0</ns3:atemp>
            <ns3:hr>86</ns3:hr>
          </ns3:TrackPointExtension>
        </extensions>
      </trkpt>
      <trkpt lat="36.791170053184032440185546875" lon="-118.40945027768611907958984375">
        <ele>3542.39990234375</ele>
        <time>2021-06-25T22:35:07.000Z</time>
        <extensions>
          <ns3:TrackPointExtension>
            <ns3:atemp>25.0</ns3:atemp>
            <ns3:hr>86</ns3:hr>
          </ns3:TrackPointExtension>
        </extensions>
      </trkpt>
      <trkpt lat="36.79117533378303050994873046875" lon="-118.40943443588912487030029296875">
        <ele>3542.199951171875</ele>
        <time>2021-06-25T22:35:09.000Z</time>
        <extensions>
          <ns3:TrackPointExtension>
            <ns3:atemp>25.0</ns3:atemp>
            <ns3:hr>86</ns3:hr>
          </ns3:TrackPointExtension>
        </extensions>
      </trkpt>
      <trkpt lat="36.79117650724947452545166015625" lon="-118.40942471288144588470458984375">
        <ele>3542.199951171875</ele>
        <time>2021-06-25T22:35:10.000Z</time>
        <extensions>
          <ns3:TrackPointExtension>
            <ns3:atemp>25.0</ns3:atemp>
            <ns3:hr>89</ns3:hr>
          </ns3:TrackPointExtension>
        </extensions>
      </trkpt>
      <trkpt lat="36.79117483086884021759033203125" lon="-118.4094051830470561981201171875">
        <ele>3541.199951171875</ele>
        <time>2021-06-25T22:35:13.000Z</time>
        <extensions>
          <ns3:TrackPointExtension>
            <ns3:atemp>25.0</ns3:atemp>
            <ns3:hr>88</ns3:hr>
          </ns3:TrackPointExtension>
        </extensions>
      </trkpt>
      <trkpt lat="36.7911859788000583648681640625" lon="-118.40937609784305095672607421875">
        <ele>3540.199951171875</ele>
        <time>2021-06-25T22:35:17.000Z</time>
        <extensions>
          <ns3:TrackPointExtension>
            <ns3:atemp>25.0</ns3:atemp>
            <ns3:hr>86</ns3:hr>
          </ns3:TrackPointExtension>
        </extensions>
      </trkpt>
      <trkpt lat="36.79119176231324672698974609375" lon="-118.40936981141567230224609375">
        <ele>3540</ele>
        <time>2021-06-25T22:35:18.000Z</time>
        <extensions>
          <ns3:TrackPointExtension>
            <ns3:atemp>25.0</ns3:atemp>
            <ns3:hr>85</ns3:hr>
          </ns3:TrackPointExtension>
        </extensions>
      </trkpt>
      <trkpt lat="36.7912000603973865509033203125" lon="-118.409354723989963531494140625">
        <ele>3539.800048828125</ele>
        <time>2021-06-25T22:35:20.000Z</time>
        <extensions>
          <ns3:TrackPointExtension>
            <ns3:atemp>24.0</ns3:atemp>
            <ns3:hr>88</ns3:hr>
          </ns3:TrackPointExtension>
        </extensions>
      </trkpt>
      <trkpt lat="36.791204251348972320556640625" lon="-118.40926646254956722259521484375">
        <ele>3539</ele>
        <time>2021-06-25T22:35:29.000Z</time>
        <extensions>
          <ns3:TrackPointExtension>
            <ns3:atemp>24.0</ns3:atemp>
            <ns3:hr>88</ns3:hr>
          </ns3:TrackPointExtension>
        </extensions>
      </trkpt>
      <trkpt lat="36.79120416752994060516357421875" lon="-118.409257829189300537109375">
        <ele>3539</ele>
        <time>2021-06-25T22:35:30.000Z</time>
        <extensions>
          <ns3:TrackPointExtension>
            <ns3:atemp>24.0</ns3:atemp>
            <ns3:hr>87</ns3:hr>
          </ns3:TrackPointExtension>
        </extensions>
      </trkpt>
      <trkpt lat="36.79119897074997425079345703125" lon="-118.40921424329280853271484375">
        <ele>3537.60009765625</ele>
        <time>2021-06-25T22:35:36.000Z</time>
        <extensions>
          <ns3:TrackPointExtension>
            <ns3:atemp>24.0</ns3:atemp>
            <ns3:hr>87</ns3:hr>
          </ns3:TrackPointExtension>
        </extensions>
      </trkpt>
      <trkpt lat="36.79119897074997425079345703125" lon="-118.40920326299965381622314453125">
        <ele>3537</ele>
        <time>2021-06-25T22:35:38.000Z</time>
        <extensions>
          <ns3:TrackPointExtension>
            <ns3:atemp>24.0</ns3:atemp>
            <ns3:hr>86</ns3:hr>
          </ns3:TrackPointExtension>
        </extensions>
      </trkpt>
      <trkpt lat="36.79119653999805450439453125" lon="-118.4091785363852977752685546875">
        <ele>3536.39990234375</ele>
        <time>2021-06-25T22:35:41.000Z</time>
        <extensions>
          <ns3:TrackPointExtension>
            <ns3:atemp>24.0</ns3:atemp>
            <ns3:hr>85</ns3:hr>
          </ns3:TrackPointExtension>
        </extensions>
      </trkpt>
      <trkpt lat="36.79118472151458263397216796875" lon="-118.409160934388637542724609375">
        <ele>3535.800048828125</ele>
        <time>2021-06-25T22:35:44.000Z</time>
        <extensions>
          <ns3:TrackPointExtension>
            <ns3:atemp>24.0</ns3:atemp>
            <ns3:hr>82</ns3:hr>
          </ns3:TrackPointExtension>
        </extensions>
      </trkpt>
      <trkpt lat="36.7911846376955509185791015625" lon="-118.4091624431312084197998046875">
        <ele>3535.800048828125</ele>
        <time>2021-06-25T22:35:45.000Z</time>
        <extensions>
          <ns3:TrackPointExtension>
            <ns3:atemp>24.0</ns3:atemp>
            <ns3:hr>85</ns3:hr>
          </ns3:TrackPointExtension>
        </extensions>
      </trkpt>
      <trkpt lat="36.79118438623845577239990234375" lon="-118.409162946045398712158203125">
        <ele>3535.60009765625</ele>
        <time>2021-06-25T22:35:46.000Z</time>
        <extensions>
          <ns3:TrackPointExtension>
            <ns3:atemp>24.0</ns3:atemp>
            <ns3:hr>84</ns3:hr>
          </ns3:TrackPointExtension>
        </extensions>
      </trkpt>
      <trkpt lat="36.79118036292493343353271484375" lon="-118.40916118584573268890380859375">
        <ele>3535.800048828125</ele>
        <time>2021-06-25T22:35:51.000Z</time>
        <extensions>
          <ns3:TrackPointExtension>
            <ns3:atemp>24.0</ns3:atemp>
            <ns3:hr>85</ns3:hr>
          </ns3:TrackPointExtension>
        </extensions>
      </trkpt>
      <trkpt lat="36.79117348976433277130126953125" lon="-118.40915615670382976531982421875">
        <ele>3535.39990234375</ele>
        <time>2021-06-25T22:35:55.000Z</time>
        <extensions>
          <ns3:TrackPointExtension>
            <ns3:atemp>24.0</ns3:atemp>
            <ns3:hr>82</ns3:hr>
          </ns3:TrackPointExtension>
        </extensions>
      </trkpt>
      <trkpt lat="36.79117348976433277130126953125" lon="-118.40915615670382976531982421875">
        <ele>3535.39990234375</ele>
        <time>2021-06-25T22:35:57.000Z</time>
        <extensions>
          <ns3:TrackPointExtension>
            <ns3:atemp>24.0</ns3:atemp>
            <ns3:hr>83</ns3:hr>
          </ns3:TrackPointExtension>
        </extensions>
      </trkpt>
      <trkpt lat="36.79117348976433277130126953125" lon="-118.40915615670382976531982421875">
        <ele>3535.199951171875</ele>
        <time>2021-06-25T22:35:59.000Z</time>
        <extensions>
          <ns3:TrackPointExtension>
            <ns3:atemp>24.0</ns3:atemp>
            <ns3:hr>88</ns3:hr>
          </ns3:TrackPointExtension>
        </extensions>
      </trkpt>
      <trkpt lat="36.79117348976433277130126953125" lon="-118.40915615670382976531982421875">
        <ele>3535.39990234375</ele>
        <time>2021-06-25T22:36:00.000Z</time>
        <extensions>
          <ns3:TrackPointExtension>
            <ns3:atemp>24.0</ns3:atemp>
            <ns3:hr>85</ns3:hr>
          </ns3:TrackPointExtension>
        </extensions>
      </trkpt>
      <trkpt lat="36.79117348976433277130126953125" lon="-118.40915917418897151947021484375">
        <ele>3535.60009765625</ele>
        <time>2021-06-25T22:36:05.000Z</time>
        <extensions>
          <ns3:TrackPointExtension>
            <ns3:atemp>25.0</ns3:atemp>
            <ns3:hr>89</ns3:hr>
          </ns3:TrackPointExtension>
        </extensions>
      </trkpt>
      <trkpt lat="36.79117416031658649444580078125" lon="-118.40916101820766925811767578125">
        <ele>3535.60009765625</ele>
        <time>2021-06-25T22:36:06.000Z</time>
        <extensions>
          <ns3:TrackPointExtension>
            <ns3:atemp>25.0</ns3:atemp>
            <ns3:hr>88</ns3:hr>
          </ns3:TrackPointExtension>
        </extensions>
      </trkpt>
      <trkpt lat="36.79117751307785511016845703125" lon="-118.4091631136834621429443359375">
        <ele>3535.60009765625</ele>
        <time>2021-06-25T22:36:11.000Z</time>
        <extensions>
          <ns3:TrackPointExtension>
            <ns3:atemp>25.0</ns3:atemp>
            <ns3:hr>91</ns3:hr>
          </ns3:TrackPointExtension>
        </extensions>
      </trkpt>
      <trkpt lat="36.7911859788000583648681640625" lon="-118.40916864573955535888671875">
        <ele>3534.800048828125</ele>
        <time>2021-06-25T22:37:03.000Z</time>
        <extensions>
          <ns3:TrackPointExtension>
            <ns3:atemp>25.0</ns3:atemp>
            <ns3:hr>88</ns3:hr>
          </ns3:TrackPointExtension>
        </extensions>
      </trkpt>
      <trkpt lat="36.79119779728353023529052734375" lon="-118.4091560728847980499267578125">
        <ele>3534.800048828125</ele>
        <time>2021-06-25T22:37:15.000Z</time>
        <extensions>
          <ns3:TrackPointExtension>
            <ns3:atemp>25.0</ns3:atemp>
            <ns3:hr>85</ns3:hr>
          </ns3:TrackPointExtension>
        </extensions>
      </trkpt>
      <trkpt lat="36.7912493459880352020263671875" lon="-118.40919756330549716949462890625">
        <ele>3534.800048828125</ele>
        <time>2021-06-25T22:37:42.000Z</time>
        <extensions>
          <ns3:TrackPointExtension>
            <ns3:atemp>25.0</ns3:atemp>
            <ns3:hr>82</ns3:hr>
          </ns3:TrackPointExtension>
        </extensions>
      </trkpt>
      <trkpt lat="36.79129888303577899932861328125" lon="-118.40921600349247455596923828125">
        <ele>3529</ele>
        <time>2021-06-25T22:37:56.000Z</time>
        <extensions>
          <ns3:TrackPointExtension>
            <ns3:atemp>25.0</ns3:atemp>
            <ns3:hr>81</ns3:hr>
          </ns3:TrackPointExtension>
        </extensions>
      </trkpt>
      <trkpt lat="36.79133408702909946441650390625" lon="-118.40915531851351261138916015625">
        <ele>3529.39990234375</ele>
        <time>2021-06-25T22:38:14.000Z</time>
        <extensions>
          <ns3:TrackPointExtension>
            <ns3:atemp>25.0</ns3:atemp>
            <ns3:hr>84</ns3:hr>
          </ns3:TrackPointExtension>
        </extensions>
      </trkpt>
      <trkpt lat="36.79133827798068523406982421875" lon="-118.4091523848474025726318359375">
        <ele>3529.60009765625</ele>
        <time>2021-06-25T22:38:17.000Z</time>
        <extensions>
          <ns3:TrackPointExtension>
            <ns3:atemp>25.0</ns3:atemp>
            <ns3:hr>87</ns3:hr>
          </ns3:TrackPointExtension>
        </extensions>
      </trkpt>
      <trkpt lat="36.79134028963744640350341796875" lon="-118.40915112756192684173583984375">
        <ele>3529.60009765625</ele>
        <time>2021-06-25T22:38:20.000Z</time>
        <extensions>
          <ns3:TrackPointExtension>
            <ns3:atemp>25.0</ns3:atemp>
            <ns3:hr>90</ns3:hr>
          </ns3:TrackPointExtension>
        </extensions>
      </trkpt>
      <trkpt lat="36.79134716279804706573486328125" lon="-118.40916956774890422821044921875">
        <ele>3529</ele>
        <time>2021-06-25T22:38:44.000Z</time>
        <extensions>
          <ns3:TrackPointExtension>
            <ns3:atemp>25.0</ns3:atemp>
            <ns3:hr>87</ns3:hr>
          </ns3:TrackPointExtension>
        </extensions>
      </trkpt>
      <trkpt lat="36.79135085083544254302978515625" lon="-118.409175686538219451904296875">
        <ele>3528.60009765625</ele>
        <time>2021-06-25T22:38:49.000Z</time>
        <extensions>
          <ns3:TrackPointExtension>
            <ns3:atemp>25.0</ns3:atemp>
            <ns3:hr>84</ns3:hr>
          </ns3:TrackPointExtension>
        </extensions>
      </trkpt>
      <trkpt lat="36.79135219193994998931884765625" lon="-118.40917727909982204437255859375">
        <ele>3528</ele>
        <time>2021-06-25T22:38:51.000Z</time>
        <extensions>
          <ns3:TrackPointExtension>
            <ns3:atemp>25.0</ns3:atemp>
            <ns3:hr>80</ns3:hr>
          </ns3:TrackPointExtension>
        </extensions>
      </trkpt>
      <trkpt lat="36.7913536168634891510009765625" lon="-118.4091785363852977752685546875">
        <ele>3527.800048828125</ele>
        <time>2021-06-25T22:38:53.000Z</time>
        <extensions>
          <ns3:TrackPointExtension>
            <ns3:atemp>25.0</ns3:atemp>
            <ns3:hr>81</ns3:hr>
          </ns3:TrackPointExtension>
        </extensions>
      </trkpt>
      <trkpt lat="36.7913566343486309051513671875" lon="-118.40918012894690036773681640625">
        <ele>3527.39990234375</ele>
        <time>2021-06-25T22:38:56.000Z</time>
        <extensions>
          <ns3:TrackPointExtension>
            <ns3:atemp>25.0</ns3:atemp>
            <ns3:hr>84</ns3:hr>
          </ns3:TrackPointExtension>
        </extensions>
      </trkpt>
      <trkpt lat="36.7913608253002166748046875" lon="-118.40918247587978839874267578125">
        <ele>3526.800048828125</ele>
        <time>2021-06-25T22:39:01.000Z</time>
        <extensions>
          <ns3:TrackPointExtension>
            <ns3:atemp>25.0</ns3:atemp>
            <ns3:hr>85</ns3:hr>
          </ns3:TrackPointExtension>
        </extensions>
      </trkpt>
      <trkpt lat="36.7913633398711681365966796875" lon="-118.40918415226042270660400390625">
        <ele>3526.199951171875</ele>
        <time>2021-06-25T22:39:05.000Z</time>
        <extensions>
          <ns3:TrackPointExtension>
            <ns3:atemp>25.0</ns3:atemp>
            <ns3:hr>88</ns3:hr>
          </ns3:TrackPointExtension>
        </extensions>
      </trkpt>
      <trkpt lat="36.79136442951858043670654296875" lon="-118.40918482281267642974853515625">
        <ele>3525.60009765625</ele>
        <time>2021-06-25T22:39:07.000Z</time>
        <extensions>
          <ns3:TrackPointExtension>
            <ns3:atemp>25.0</ns3:atemp>
            <ns3:hr>87</ns3:hr>
          </ns3:TrackPointExtension>
        </extensions>
      </trkpt>
      <trkpt lat="36.79136560298502445220947265625" lon="-118.40918549336493015289306640625">
        <ele>3525.199951171875</ele>
        <time>2021-06-25T22:39:09.000Z</time>
        <extensions>
          <ns3:TrackPointExtension>
            <ns3:atemp>25.0</ns3:atemp>
            <ns3:hr>90</ns3:hr>
          </ns3:TrackPointExtension>
        </extensions>
      </trkpt>
      <trkpt lat="36.791371889412403106689453125" lon="-118.40919320471584796905517578125">
        <ele>3524.60009765625</ele>
        <time>2021-06-25T22:39:13.000Z</time>
        <extensions>
          <ns3:TrackPointExtension>
            <ns3:atemp>25.0</ns3:atemp>
            <ns3:hr>92</ns3:hr>
          </ns3:TrackPointExtension>
        </extensions>
      </trkpt>
      <trkpt lat="36.79139410145580768585205078125" lon="-118.40925087220966815948486328125">
        <ele>3523.60009765625</ele>
        <time>2021-06-25T22:39:17.000Z</time>
        <extensions>
          <ns3:TrackPointExtension>
            <ns3:atemp>25.0</ns3:atemp>
            <ns3:hr>95</ns3:hr>
          </ns3:TrackPointExtension>
        </extensions>
      </trkpt>
      <trkpt lat="36.79139929823577404022216796875" lon="-118.40926562435925006866455078125">
        <ele>3523.39990234375</ele>
        <time>2021-06-25T22:39:18.000Z</time>
        <extensions>
          <ns3:TrackPointExtension>
            <ns3:atemp>25.0</ns3:atemp>
            <ns3:hr>96</ns3:hr>
          </ns3:TrackPointExtension>
        </extensions>
      </trkpt>
      <trkpt lat="36.7914250306785106658935546875" lon="-118.40932765044271945953369140625">
        <ele>3522.800048828125</ele>
        <time>2021-06-25T22:39:22.000Z</time>
        <extensions>
          <ns3:TrackPointExtension>
            <ns3:atemp>25.0</ns3:atemp>
            <ns3:hr>97</ns3:hr>
          </ns3:TrackPointExtension>
        </extensions>
      </trkpt>
      <trkpt lat="36.7914374358952045440673828125" lon="-118.409341312944889068603515625">
        <ele>3522.60009765625</ele>
        <time>2021-06-25T22:39:24.000Z</time>
        <extensions>
          <ns3:TrackPointExtension>
            <ns3:atemp>25.0</ns3:atemp>
            <ns3:hr>98</ns3:hr>
          </ns3:TrackPointExtension>
        </extensions>
      </trkpt>
      <trkpt lat="36.79144221358001232147216796875" lon="-118.409345336258411407470703125">
        <ele>3522</ele>
        <time>2021-06-25T22:39:26.000Z</time>
        <extensions>
          <ns3:TrackPointExtension>
            <ns3:atemp>25.0</ns3:atemp>
            <ns3:hr>98</ns3:hr>
          </ns3:TrackPointExtension>
        </extensions>
      </trkpt>
      <trkpt lat="36.7914531938731670379638671875" lon="-118.40935095213353633880615234375">
        <ele>3521.39990234375</ele>
        <time>2021-06-25T22:39:28.000Z</time>
        <extensions>
          <ns3:TrackPointExtension>
            <ns3:atemp>25.0</ns3:atemp>
            <ns3:hr>96</ns3:hr>
          </ns3:TrackPointExtension>
        </extensions>
      </trkpt>
      <trkpt lat="36.7914548702538013458251953125" lon="-118.40935614891350269317626953125">
        <ele>3521</ele>
        <time>2021-06-25T22:39:30.000Z</time>
        <extensions>
          <ns3:TrackPointExtension>
            <ns3:atemp>26.0</ns3:atemp>
            <ns3:hr>96</ns3:hr>
          </ns3:TrackPointExtension>
        </extensions>
      </trkpt>
      <trkpt lat="36.7914555408060550689697265625" lon="-118.4093637764453887939453125">
        <ele>3520.800048828125</ele>
        <time>2021-06-25T22:39:31.000Z</time>
        <extensions>
          <ns3:TrackPointExtension>
            <ns3:atemp>26.0</ns3:atemp>
            <ns3:hr>96</ns3:hr>
          </ns3:TrackPointExtension>
        </extensions>
      </trkpt>
      <trkpt lat="36.79145009256899356842041015625" lon="-118.4093870781362056732177734375">
        <ele>3520</ele>
        <time>2021-06-25T22:39:34.000Z</time>
        <extensions>
          <ns3:TrackPointExtension>
            <ns3:atemp>26.0</ns3:atemp>
            <ns3:hr>95</ns3:hr>
          </ns3:TrackPointExtension>
        </extensions>
      </trkpt>
      <trkpt lat="36.791447661817073822021484375" lon="-118.4093951247632503509521484375">
        <ele>3520</ele>
        <time>2021-06-25T22:39:35.000Z</time>
        <extensions>
          <ns3:TrackPointExtension>
            <ns3:atemp>26.0</ns3:atemp>
            <ns3:hr>94</ns3:hr>
          </ns3:TrackPointExtension>
        </extensions>
      </trkpt>
      <trkpt lat="36.79143969900906085968017578125" lon="-118.4094212763011455535888671875">
        <ele>3519.800048828125</ele>
        <time>2021-06-25T22:39:38.000Z</time>
        <extensions>
          <ns3:TrackPointExtension>
            <ns3:atemp>26.0</ns3:atemp>
            <ns3:hr>93</ns3:hr>
          </ns3:TrackPointExtension>
        </extensions>
      </trkpt>
      <trkpt lat="36.79143668152391910552978515625" lon="-118.40943753719329833984375">
        <ele>3519</ele>
        <time>2021-06-25T22:39:40.000Z</time>
        <extensions>
          <ns3:TrackPointExtension>
            <ns3:atemp>26.0</ns3:atemp>
            <ns3:hr>93</ns3:hr>
          </ns3:TrackPointExtension>
        </extensions>
      </trkpt>
      <trkpt lat="36.79143466986715793609619140625" lon="-118.409451283514499664306640625">
        <ele>3519</ele>
        <time>2021-06-25T22:39:41.000Z</time>
        <extensions>
          <ns3:TrackPointExtension>
            <ns3:atemp>26.0</ns3:atemp>
            <ns3:hr>90</ns3:hr>
          </ns3:TrackPointExtension>
        </extensions>
      </trkpt>
      <trkpt lat="36.7914387769997119903564453125" lon="-118.40945924632251262664794921875">
        <ele>3518.800048828125</ele>
        <time>2021-06-25T22:39:42.000Z</time>
        <extensions>
          <ns3:TrackPointExtension>
            <ns3:atemp>26.0</ns3:atemp>
            <ns3:hr>93</ns3:hr>
          </ns3:TrackPointExtension>
        </extensions>
      </trkpt>
      <trkpt lat="36.79146476089954376220703125" lon="-118.40945706702768802642822265625">
        <ele>3518.60009765625</ele>
        <time>2021-06-25T22:39:45.000Z</time>
        <extensions>
          <ns3:TrackPointExtension>
            <ns3:atemp>26.0</ns3:atemp>
            <ns3:hr>93</ns3:hr>
          </ns3:TrackPointExtension>
        </extensions>
      </trkpt>
      <trkpt lat="36.7914790101349353790283203125" lon="-118.40944499708712100982666015625">
        <ele>3518.199951171875</ele>
        <time>2021-06-25T22:39:47.000Z</time>
        <extensions>
          <ns3:TrackPointExtension>
            <ns3:atemp>26.0</ns3:atemp>
            <ns3:hr>94</ns3:hr>
          </ns3:TrackPointExtension>
        </extensions>
      </trkpt>
      <trkpt lat="36.7915004678070545196533203125" lon="-118.409418426454067230224609375">
        <ele>3517.39990234375</ele>
        <time>2021-06-25T22:39:50.000Z</time>
        <extensions>
          <ns3:TrackPointExtension>
            <ns3:atemp>26.0</ns3:atemp>
            <ns3:hr>92</ns3:hr>
          </ns3:TrackPointExtension>
        </extensions>
      </trkpt>
      <trkpt lat="36.79151413030922412872314453125" lon="-118.40939135290682315826416015625">
        <ele>3517.199951171875</ele>
        <time>2021-06-25T22:39:53.000Z</time>
        <extensions>
          <ns3:TrackPointExtension>
            <ns3:atemp>26.0</ns3:atemp>
            <ns3:hr>89</ns3:hr>
          </ns3:TrackPointExtension>
        </extensions>
      </trkpt>
      <trkpt lat="36.79151974618434906005859375" lon="-118.40935883112251758575439453125">
        <ele>3516.60009765625</ele>
        <time>2021-06-25T22:39:57.000Z</time>
        <extensions>
          <ns3:TrackPointExtension>
            <ns3:atemp>26.0</ns3:atemp>
            <ns3:hr>86</ns3:hr>
          </ns3:TrackPointExtension>
        </extensions>
      </trkpt>
      <trkpt lat="36.791522093117237091064453125" lon="-118.40935799293220043182373046875">
        <ele>3516.39990234375</ele>
        <time>2021-06-25T22:39:58.000Z</time>
        <extensions>
          <ns3:TrackPointExtension>
            <ns3:atemp>26.0</ns3:atemp>
            <ns3:hr>86</ns3:hr>
          </ns3:TrackPointExtension>
        </extensions>
      </trkpt>
      <trkpt lat="36.7915242724120616912841796875" lon="-118.409360758960247039794921875">
        <ele>3516.199951171875</ele>
        <time>2021-06-25T22:39:59.000Z</time>
        <extensions>
          <ns3:TrackPointExtension>
            <ns3:atemp>26.0</ns3:atemp>
            <ns3:hr>85</ns3:hr>
          </ns3:TrackPointExtension>
        </extensions>
      </trkpt>
      <trkpt lat="36.79152636788785457611083984375" lon="-118.40939001180231571197509765625">
        <ele>3516</ele>
        <time>2021-06-25T22:40:02.000Z</time>
        <extensions>
          <ns3:TrackPointExtension>
            <ns3:atemp>26.0</ns3:atemp>
            <ns3:hr>85</ns3:hr>
          </ns3:TrackPointExtension>
        </extensions>
      </trkpt>
      <trkpt lat="36.79152552969753742218017578125" lon="-118.4094085358083248138427734375">
        <ele>3515.39990234375</ele>
        <time>2021-06-25T22:40:04.000Z</time>
        <extensions>
          <ns3:TrackPointExtension>
            <ns3:atemp>26.0</ns3:atemp>
            <ns3:hr>85</ns3:hr>
          </ns3:TrackPointExtension>
        </extensions>
      </trkpt>
      <trkpt lat="36.791522093117237091064453125" lon="-118.4094152413308620452880859375">
        <ele>3515.199951171875</ele>
        <time>2021-06-25T22:40:05.000Z</time>
        <extensions>
          <ns3:TrackPointExtension>
            <ns3:atemp>26.0</ns3:atemp>
            <ns3:hr>84</ns3:hr>
          </ns3:TrackPointExtension>
        </extensions>
      </trkpt>
      <trkpt lat="36.79152066819369792938232421875" lon="-118.40943208895623683929443359375">
        <ele>3514.60009765625</ele>
        <time>2021-06-25T22:40:07.000Z</time>
        <extensions>
          <ns3:TrackPointExtension>
            <ns3:atemp>26.0</ns3:atemp>
            <ns3:hr>85</ns3:hr>
          </ns3:TrackPointExtension>
        </extensions>
      </trkpt>
      <trkpt lat="36.7915195785462856292724609375" lon="-118.4094504453241825103759765625">
        <ele>3514.39990234375</ele>
        <time>2021-06-25T22:40:09.000Z</time>
        <extensions>
          <ns3:TrackPointExtension>
            <ns3:atemp>26.0</ns3:atemp>
            <ns3:hr>87</ns3:hr>
          </ns3:TrackPointExtension>
        </extensions>
      </trkpt>
      <trkpt lat="36.791518740355968475341796875" lon="-118.40946041978895664215087890625">
        <ele>3514.39990234375</ele>
        <time>2021-06-25T22:40:10.000Z</time>
        <extensions>
          <ns3:TrackPointExtension>
            <ns3:atemp>26.0</ns3:atemp>
            <ns3:hr>87</ns3:hr>
          </ns3:TrackPointExtension>
        </extensions>
      </trkpt>
      <trkpt lat="36.79151463322341442108154296875" lon="-118.4094779379665851593017578125">
        <ele>3513.800048828125</ele>
        <time>2021-06-25T22:40:12.000Z</time>
        <extensions>
          <ns3:TrackPointExtension>
            <ns3:atemp>26.0</ns3:atemp>
            <ns3:hr>83</ns3:hr>
          </ns3:TrackPointExtension>
        </extensions>
      </trkpt>
      <trkpt lat="36.79151765070855617523193359375" lon="-118.4094856493175029754638671875">
        <ele>3513.800048828125</ele>
        <time>2021-06-25T22:40:13.000Z</time>
        <extensions>
          <ns3:TrackPointExtension>
            <ns3:atemp>26.0</ns3:atemp>
            <ns3:hr>84</ns3:hr>
          </ns3:TrackPointExtension>
        </extensions>
      </trkpt>
      <trkpt lat="36.79152100346982479095458984375" lon="-118.40949545614421367645263671875">
        <ele>3513.60009765625</ele>
        <time>2021-06-25T22:40:14.000Z</time>
        <extensions>
          <ns3:TrackPointExtension>
            <ns3:atemp>26.0</ns3:atemp>
            <ns3:hr>84</ns3:hr>
          </ns3:TrackPointExtension>
        </extensions>
      </trkpt>
      <trkpt lat="36.79151932708919048309326171875" lon="-118.40950266458094120025634765625">
        <ele>3513.199951171875</ele>
        <time>2021-06-25T22:40:15.000Z</time>
        <extensions>
          <ns3:TrackPointExtension>
            <ns3:atemp>26.0</ns3:atemp>
            <ns3:hr>83</ns3:hr>
          </ns3:TrackPointExtension>
        </extensions>
      </trkpt>
      <trkpt lat="36.79152469150722026824951171875" lon="-118.40951942838728427886962890625">
        <ele>3512.800048828125</ele>
        <time>2021-06-25T22:40:17.000Z</time>
        <extensions>
          <ns3:TrackPointExtension>
            <ns3:atemp>27.0</ns3:atemp>
            <ns3:hr>81</ns3:hr>
          </ns3:TrackPointExtension>
        </extensions>
      </trkpt>
      <trkpt lat="36.791534833610057830810546875" lon="-118.40952931903302669525146484375">
        <ele>3512.39990234375</ele>
        <time>2021-06-25T22:40:19.000Z</time>
        <extensions>
          <ns3:TrackPointExtension>
            <ns3:atemp>27.0</ns3:atemp>
            <ns3:hr>79</ns3:hr>
          </ns3:TrackPointExtension>
        </extensions>
      </trkpt>
      <trkpt lat="36.79153994657099246978759765625" lon="-118.4095433168113231658935546875">
        <ele>3512.199951171875</ele>
        <time>2021-06-25T22:40:21.000Z</time>
        <extensions>
          <ns3:TrackPointExtension>
            <ns3:atemp>27.0</ns3:atemp>
            <ns3:hr>78</ns3:hr>
          </ns3:TrackPointExtension>
        </extensions>
      </trkpt>
      <trkpt lat="36.79154346697032451629638671875" lon="-118.4095537103712558746337890625">
        <ele>3512.199951171875</ele>
        <time>2021-06-25T22:40:22.000Z</time>
        <extensions>
          <ns3:TrackPointExtension>
            <ns3:atemp>27.0</ns3:atemp>
            <ns3:hr>78</ns3:hr>
          </ns3:TrackPointExtension>
        </extensions>
      </trkpt>
      <trkpt lat="36.7915457300841808319091796875" lon="-118.40957106091082096099853515625">
        <ele>3511.800048828125</ele>
        <time>2021-06-25T22:40:24.000Z</time>
        <extensions>
          <ns3:TrackPointExtension>
            <ns3:atemp>27.0</ns3:atemp>
            <ns3:hr>77</ns3:hr>
          </ns3:TrackPointExtension>
        </extensions>
      </trkpt>
      <trkpt lat="36.7915467359125614166259765625" lon="-118.40959670953452587127685546875">
        <ele>3511</ele>
        <time>2021-06-25T22:40:27.000Z</time>
        <extensions>
          <ns3:TrackPointExtension>
            <ns3:atemp>27.0</ns3:atemp>
            <ns3:hr>77</ns3:hr>
          </ns3:TrackPointExtension>
        </extensions>
      </trkpt>
      <trkpt lat="36.79154388606548309326171875" lon="-118.4096412174403667449951171875">
        <ele>3509.800048828125</ele>
        <time>2021-06-25T22:40:32.000Z</time>
        <extensions>
          <ns3:TrackPointExtension>
            <ns3:atemp>27.0</ns3:atemp>
            <ns3:hr>75</ns3:hr>
          </ns3:TrackPointExtension>
        </extensions>
      </trkpt>
      <trkpt lat="36.79153843782842159271240234375" lon="-118.40966410003602504730224609375">
        <ele>3509.39990234375</ele>
        <time>2021-06-25T22:40:35.000Z</time>
        <extensions>
          <ns3:TrackPointExtension>
            <ns3:atemp>27.0</ns3:atemp>
            <ns3:hr>78</ns3:hr>
          </ns3:TrackPointExtension>
        </extensions>
      </trkpt>
      <trkpt lat="36.79154413752257823944091796875" lon="-118.40967918746173381805419921875">
        <ele>3509.199951171875</ele>
        <time>2021-06-25T22:40:37.000Z</time>
        <extensions>
          <ns3:TrackPointExtension>
            <ns3:atemp>27.0</ns3:atemp>
            <ns3:hr>77</ns3:hr>
          </ns3:TrackPointExtension>
        </extensions>
      </trkpt>
      <trkpt lat="36.7915494181215763092041015625" lon="-118.40968723408877849578857421875">
        <ele>3508.800048828125</ele>
        <time>2021-06-25T22:40:38.000Z</time>
        <extensions>
          <ns3:TrackPointExtension>
            <ns3:atemp>27.0</ns3:atemp>
            <ns3:hr>77</ns3:hr>
          </ns3:TrackPointExtension>
        </extensions>
      </trkpt>
      <trkpt lat="36.79158386774361133575439453125" lon="-118.40967013500630855560302734375">
        <ele>3508.199951171875</ele>
        <time>2021-06-25T22:40:43.000Z</time>
        <extensions>
          <ns3:TrackPointExtension>
            <ns3:atemp>27.0</ns3:atemp>
            <ns3:hr>76</ns3:hr>
          </ns3:TrackPointExtension>
        </extensions>
      </trkpt>
      <trkpt lat="36.791589148342609405517578125" lon="-118.40966309420764446258544921875">
        <ele>3507.800048828125</ele>
        <time>2021-06-25T22:40:44.000Z</time>
        <extensions>
          <ns3:TrackPointExtension>
            <ns3:atemp>27.0</ns3:atemp>
            <ns3:hr>75</ns3:hr>
          </ns3:TrackPointExtension>
        </extensions>
      </trkpt>
      <trkpt lat="36.79161488078534603118896484375" lon="-118.409637697041034698486328125">
        <ele>3507</ele>
        <time>2021-06-25T22:40:49.000Z</time>
        <extensions>
          <ns3:TrackPointExtension>
            <ns3:atemp>27.0</ns3:atemp>
            <ns3:hr>76</ns3:hr>
          </ns3:TrackPointExtension>
        </extensions>
      </trkpt>
      <trkpt lat="36.7916349135339260101318359375" lon="-118.4096251241862773895263671875">
        <ele>3506.39990234375</ele>
        <time>2021-06-25T22:40:52.000Z</time>
        <extensions>
          <ns3:TrackPointExtension>
            <ns3:atemp>27.0</ns3:atemp>
            <ns3:hr>80</ns3:hr>
          </ns3:TrackPointExtension>
        </extensions>
      </trkpt>
      <trkpt lat="36.79164069704711437225341796875" lon="-118.40961783193051815032958984375">
        <ele>3506.199951171875</ele>
        <time>2021-06-25T22:40:53.000Z</time>
        <extensions>
          <ns3:TrackPointExtension>
            <ns3:atemp>27.0</ns3:atemp>
            <ns3:hr>80</ns3:hr>
          </ns3:TrackPointExtension>
        </extensions>
      </trkpt>
      <trkpt lat="36.7916637472808361053466796875" lon="-118.409572653472423553466796875">
        <ele>3505.199951171875</ele>
        <time>2021-06-25T22:40:58.000Z</time>
        <extensions>
          <ns3:TrackPointExtension>
            <ns3:atemp>27.0</ns3:atemp>
            <ns3:hr>77</ns3:hr>
          </ns3:TrackPointExtension>
        </extensions>
      </trkpt>
      <trkpt lat="36.79167858324944972991943359375" lon="-118.40952512808144092559814453125">
        <ele>3504.800048828125</ele>
        <time>2021-06-25T22:41:02.000Z</time>
        <extensions>
          <ns3:TrackPointExtension>
            <ns3:atemp>27.0</ns3:atemp>
            <ns3:hr>81</ns3:hr>
          </ns3:TrackPointExtension>
        </extensions>
      </trkpt>
      <trkpt lat="36.79168227128684520721435546875" lon="-118.4095007367432117462158203125">
        <ele>3504</ele>
        <time>2021-06-25T22:41:04.000Z</time>
        <extensions>
          <ns3:TrackPointExtension>
            <ns3:atemp>27.0</ns3:atemp>
            <ns3:hr>79</ns3:hr>
          </ns3:TrackPointExtension>
        </extensions>
      </trkpt>
      <trkpt lat="36.791732646524906158447265625" lon="-118.40941540896892547607421875">
        <ele>3503.60009765625</ele>
        <time>2021-06-25T22:41:15.000Z</time>
        <extensions>
          <ns3:TrackPointExtension>
            <ns3:atemp>27.0</ns3:atemp>
            <ns3:hr>80</ns3:hr>
          </ns3:TrackPointExtension>
        </extensions>
      </trkpt>
      <trkpt lat="36.79174848832190036773681640625" lon="-118.409393616020679473876953125">
        <ele>3503</ele>
        <time>2021-06-25T22:41:18.000Z</time>
        <extensions>
          <ns3:TrackPointExtension>
            <ns3:atemp>27.0</ns3:atemp>
            <ns3:hr>80</ns3:hr>
          </ns3:TrackPointExtension>
        </extensions>
      </trkpt>
      <trkpt lat="36.79177296347916126251220703125" lon="-118.40935849584639072418212890625">
        <ele>3502.39990234375</ele>
        <time>2021-06-25T22:41:24.000Z</time>
        <extensions>
          <ns3:TrackPointExtension>
            <ns3:atemp>27.0</ns3:atemp>
            <ns3:hr>81</ns3:hr>
          </ns3:TrackPointExtension>
        </extensions>
      </trkpt>
      <trkpt lat="36.7917764000594615936279296875" lon="-118.40934525243937969207763671875">
        <ele>3502.199951171875</ele>
        <time>2021-06-25T22:41:26.000Z</time>
        <extensions>
          <ns3:TrackPointExtension>
            <ns3:atemp>27.0</ns3:atemp>
            <ns3:hr>84</ns3:hr>
          </ns3:TrackPointExtension>
        </extensions>
      </trkpt>
      <trkpt lat="36.79178151302039623260498046875" lon="-118.409337960183620452880859375">
        <ele>3502</ele>
        <time>2021-06-25T22:41:27.000Z</time>
        <extensions>
          <ns3:TrackPointExtension>
            <ns3:atemp>27.0</ns3:atemp>
            <ns3:hr>85</ns3:hr>
          </ns3:TrackPointExtension>
        </extensions>
      </trkpt>
      <trkpt lat="36.7917980253696441650390625" lon="-118.40930141508579254150390625">
        <ele>3500.800048828125</ele>
        <time>2021-06-25T22:41:32.000Z</time>
        <extensions>
          <ns3:TrackPointExtension>
            <ns3:atemp>27.0</ns3:atemp>
            <ns3:hr>84</ns3:hr>
          </ns3:TrackPointExtension>
        </extensions>
      </trkpt>
      <trkpt lat="36.7918152920901775360107421875" lon="-118.40928398072719573974609375">
        <ele>3500.39990234375</ele>
        <time>2021-06-25T22:41:36.000Z</time>
        <extensions>
          <ns3:TrackPointExtension>
            <ns3:atemp>27.0</ns3:atemp>
            <ns3:hr>81</ns3:hr>
          </ns3:TrackPointExtension>
        </extensions>
      </trkpt>
      <trkpt lat="36.7918276973068714141845703125" lon="-118.4092704020440578460693359375">
        <ele>3500</ele>
        <time>2021-06-25T22:41:38.000Z</time>
        <extensions>
          <ns3:TrackPointExtension>
            <ns3:atemp>27.0</ns3:atemp>
            <ns3:hr>78</ns3:hr>
          </ns3:TrackPointExtension>
        </extensions>
      </trkpt>
      <trkpt lat="36.79183750413358211517333984375" lon="-118.409258164465427398681640625">
        <ele>3499.800048828125</ele>
        <time>2021-06-25T22:41:40.000Z</time>
        <extensions>
          <ns3:TrackPointExtension>
            <ns3:atemp>27.0</ns3:atemp>
            <ns3:hr>76</ns3:hr>
          </ns3:TrackPointExtension>
        </extensions>
      </trkpt>
      <trkpt lat="36.791846640408039093017578125" lon="-118.40924852527678012847900390625">
        <ele>3499.60009765625</ele>
        <time>2021-06-25T22:41:42.000Z</time>
        <extensions>
          <ns3:TrackPointExtension>
            <ns3:atemp>27.0</ns3:atemp>
            <ns3:hr>76</ns3:hr>
          </ns3:TrackPointExtension>
        </extensions>
      </trkpt>
      <trkpt lat="36.791876144707202911376953125" lon="-118.40919949114322662353515625">
        <ele>3498.800048828125</ele>
        <time>2021-06-25T22:41:48.000Z</time>
        <extensions>
          <ns3:TrackPointExtension>
            <ns3:atemp>27.0</ns3:atemp>
            <ns3:hr>73</ns3:hr>
          </ns3:TrackPointExtension>
        </extensions>
      </trkpt>
      <trkpt lat="36.7918853648006916046142578125" lon="-118.40918784029781818389892578125">
        <ele>3498.39990234375</ele>
        <time>2021-06-25T22:41:50.000Z</time>
        <extensions>
          <ns3:TrackPointExtension>
            <ns3:atemp>27.0</ns3:atemp>
            <ns3:hr>76</ns3:hr>
          </ns3:TrackPointExtension>
        </extensions>
      </trkpt>
      <trkpt lat="36.7918913997709751129150390625" lon="-118.40918247587978839874267578125">
        <ele>3498.199951171875</ele>
        <time>2021-06-25T22:41:51.000Z</time>
        <extensions>
          <ns3:TrackPointExtension>
            <ns3:atemp>27.0</ns3:atemp>
            <ns3:hr>76</ns3:hr>
          </ns3:TrackPointExtension>
        </extensions>
      </trkpt>
      <trkpt lat="36.7919091694056987762451171875" lon="-118.40915800072252750396728515625">
        <ele>3497.800048828125</ele>
        <time>2021-06-25T22:41:54.000Z</time>
        <extensions>
          <ns3:TrackPointExtension>
            <ns3:atemp>27.0</ns3:atemp>
            <ns3:hr>78</ns3:hr>
          </ns3:TrackPointExtension>
        </extensions>
      </trkpt>
      <trkpt lat="36.79195535369217395782470703125" lon="-118.40908675454556941986083984375">
        <ele>3497.199951171875</ele>
        <time>2021-06-25T22:42:03.000Z</time>
        <extensions>
          <ns3:TrackPointExtension>
            <ns3:atemp>27.0</ns3:atemp>
            <ns3:hr>76</ns3:hr>
          </ns3:TrackPointExtension>
        </extensions>
      </trkpt>
      <trkpt lat="36.79196809418499469757080078125" lon="-118.40905339457094669342041015625">
        <ele>3496.60009765625</ele>
        <time>2021-06-25T22:42:07.000Z</time>
        <extensions>
          <ns3:TrackPointExtension>
            <ns3:atemp>27.0</ns3:atemp>
            <ns3:hr>80</ns3:hr>
          </ns3:TrackPointExtension>
        </extensions>
      </trkpt>
      <trkpt lat="36.791984774172306060791015625" lon="-118.409035541117191314697265625">
        <ele>3495.800048828125</ele>
        <time>2021-06-25T22:42:11.000Z</time>
        <extensions>
          <ns3:TrackPointExtension>
            <ns3:atemp>27.0</ns3:atemp>
            <ns3:hr>79</ns3:hr>
          </ns3:TrackPointExtension>
        </extensions>
      </trkpt>
      <trkpt lat="36.7919872887432575225830078125" lon="-118.40904065407812595367431640625">
        <ele>3495.60009765625</ele>
        <time>2021-06-25T22:42:12.000Z</time>
        <extensions>
          <ns3:TrackPointExtension>
            <ns3:atemp>27.0</ns3:atemp>
            <ns3:hr>80</ns3:hr>
          </ns3:TrackPointExtension>
        </extensions>
      </trkpt>
      <trkpt lat="36.791989468038082122802734375" lon="-118.40905674733221530914306640625">
        <ele>3495.199951171875</ele>
        <time>2021-06-25T22:42:14.000Z</time>
        <extensions>
          <ns3:TrackPointExtension>
            <ns3:atemp>27.0</ns3:atemp>
            <ns3:hr>76</ns3:hr>
          </ns3:TrackPointExtension>
        </extensions>
      </trkpt>
      <trkpt lat="36.79199181497097015380859375" lon="-118.4090767800807952880859375">
        <ele>3494.60009765625</ele>
        <time>2021-06-25T22:42:16.000Z</time>
        <extensions>
          <ns3:TrackPointExtension>
            <ns3:atemp>27.0</ns3:atemp>
            <ns3:hr>79</ns3:hr>
          </ns3:TrackPointExtension>
        </extensions>
      </trkpt>
      <trkpt lat="36.7919896356761455535888671875" lon="-118.40910251252353191375732421875">
        <ele>3494.39990234375</ele>
        <time>2021-06-25T22:42:19.000Z</time>
        <extensions>
          <ns3:TrackPointExtension>
            <ns3:atemp>27.0</ns3:atemp>
            <ns3:hr>79</ns3:hr>
          </ns3:TrackPointExtension>
        </extensions>
      </trkpt>
      <trkpt lat="36.79195652715861797332763671875" lon="-118.409181721508502960205078125">
        <ele>3493.39990234375</ele>
        <time>2021-06-25T22:42:27.000Z</time>
        <extensions>
          <ns3:TrackPointExtension>
            <ns3:atemp>27.0</ns3:atemp>
            <ns3:hr>78</ns3:hr>
          </ns3:TrackPointExtension>
        </extensions>
      </trkpt>
      <trkpt lat="36.791955269873142242431640625" lon="-118.40919471345841884613037109375">
        <ele>3493.39990234375</ele>
        <time>2021-06-25T22:42:28.000Z</time>
        <extensions>
          <ns3:TrackPointExtension>
            <ns3:atemp>27.0</ns3:atemp>
            <ns3:hr>78</ns3:hr>
          </ns3:TrackPointExtension>
        </extensions>
      </trkpt>
      <trkpt lat="36.79196155630052089691162109375" lon="-118.40927182696759700775146484375">
        <ele>3492.39990234375</ele>
        <time>2021-06-25T22:42:35.000Z</time>
        <extensions>
          <ns3:TrackPointExtension>
            <ns3:atemp>27.0</ns3:atemp>
            <ns3:hr>80</ns3:hr>
          </ns3:TrackPointExtension>
        </extensions>
      </trkpt>
      <trkpt lat="36.79195954464375972747802734375" lon="-118.40930334292352199554443359375">
        <ele>3491.60009765625</ele>
        <time>2021-06-25T22:42:38.000Z</time>
        <extensions>
          <ns3:TrackPointExtension>
            <ns3:atemp>27.0</ns3:atemp>
            <ns3:hr>77</ns3:hr>
          </ns3:TrackPointExtension>
        </extensions>
      </trkpt>
      <trkpt lat="36.79195971228182315826416015625" lon="-118.40931541286408901214599609375">
        <ele>3491.39990234375</ele>
        <time>2021-06-25T22:42:39.000Z</time>
        <extensions>
          <ns3:TrackPointExtension>
            <ns3:atemp>27.0</ns3:atemp>
            <ns3:hr>78</ns3:hr>
          </ns3:TrackPointExtension>
        </extensions>
      </trkpt>
      <trkpt lat="36.79195937700569629669189453125" lon="-118.4093270637094974517822265625">
        <ele>3491.39990234375</ele>
        <time>2021-06-25T22:42:40.000Z</time>
        <extensions>
          <ns3:TrackPointExtension>
            <ns3:atemp>27.0</ns3:atemp>
            <ns3:hr>78</ns3:hr>
          </ns3:TrackPointExtension>
        </extensions>
      </trkpt>
      <trkpt lat="36.79194563068449497222900390625" lon="-118.409362770617008209228515625">
        <ele>3490.800048828125</ele>
        <time>2021-06-25T22:42:44.000Z</time>
        <extensions>
          <ns3:TrackPointExtension>
            <ns3:atemp>27.0</ns3:atemp>
            <ns3:hr>81</ns3:hr>
          </ns3:TrackPointExtension>
        </extensions>
      </trkpt>
      <trkpt lat="36.791944205760955810546875" lon="-118.40938456356525421142578125">
        <ele>3490.199951171875</ele>
        <time>2021-06-25T22:42:46.000Z</time>
        <extensions>
          <ns3:TrackPointExtension>
            <ns3:atemp>27.0</ns3:atemp>
            <ns3:hr>83</ns3:hr>
          </ns3:TrackPointExtension>
        </extensions>
      </trkpt>
      <trkpt lat="36.79194889962673187255859375" lon="-118.40940811671316623687744140625">
        <ele>3489.800048828125</ele>
        <time>2021-06-25T22:42:48.000Z</time>
        <extensions>
          <ns3:TrackPointExtension>
            <ns3:atemp>27.0</ns3:atemp>
            <ns3:hr>87</ns3:hr>
          </ns3:TrackPointExtension>
        </extensions>
      </trkpt>
      <trkpt lat="36.79195703007280826568603515625" lon="-118.40944533236324787139892578125">
        <ele>3489.39990234375</ele>
        <time>2021-06-25T22:42:52.000Z</time>
        <extensions>
          <ns3:TrackPointExtension>
            <ns3:atemp>27.0</ns3:atemp>
            <ns3:hr>90</ns3:hr>
          </ns3:TrackPointExtension>
        </extensions>
      </trkpt>
      <trkpt lat="36.79195719771087169647216796875" lon="-118.40945874340832233428955078125">
        <ele>3489.199951171875</ele>
        <time>2021-06-25T22:42:54.000Z</time>
        <extensions>
          <ns3:TrackPointExtension>
            <ns3:atemp>27.0</ns3:atemp>
            <ns3:hr>92</ns3:hr>
          </ns3:TrackPointExtension>
        </extensions>
      </trkpt>
      <trkpt lat="36.79195451550185680389404296875" lon="-118.4094685502350330352783203125">
        <ele>3488.800048828125</ele>
        <time>2021-06-25T22:42:55.000Z</time>
        <extensions>
          <ns3:TrackPointExtension>
            <ns3:atemp>27.0</ns3:atemp>
            <ns3:hr>93</ns3:hr>
          </ns3:TrackPointExtension>
        </extensions>
      </trkpt>
      <trkpt lat="36.79194311611354351043701171875" lon="-118.409509621560573577880859375">
        <ele>3488.39990234375</ele>
        <time>2021-06-25T22:42:59.000Z</time>
        <extensions>
          <ns3:TrackPointExtension>
            <ns3:atemp>27.0</ns3:atemp>
            <ns3:hr>89</ns3:hr>
          </ns3:TrackPointExtension>
        </extensions>
      </trkpt>
      <trkpt lat="36.79193657822906970977783203125" lon="-118.40953116305172443389892578125">
        <ele>3488.199951171875</ele>
        <time>2021-06-25T22:43:01.000Z</time>
        <extensions>
          <ns3:TrackPointExtension>
            <ns3:atemp>27.0</ns3:atemp>
            <ns3:hr>85</ns3:hr>
          </ns3:TrackPointExtension>
        </extensions>
      </trkpt>
      <trkpt lat="36.79193456657230854034423828125" lon="-118.409544490277767181396484375">
        <ele>3488.199951171875</ele>
        <time>2021-06-25T22:43:02.000Z</time>
        <extensions>
          <ns3:TrackPointExtension>
            <ns3:atemp>27.0</ns3:atemp>
            <ns3:hr>84</ns3:hr>
          </ns3:TrackPointExtension>
        </extensions>
      </trkpt>
      <trkpt lat="36.79194009862840175628662109375" lon="-118.4095783531665802001953125">
        <ele>3488.199951171875</ele>
        <time>2021-06-25T22:43:05.000Z</time>
        <extensions>
          <ns3:TrackPointExtension>
            <ns3:atemp>27.0</ns3:atemp>
            <ns3:hr>84</ns3:hr>
          </ns3:TrackPointExtension>
        </extensions>
      </trkpt>
      <trkpt lat="36.7919535934925079345703125" lon="-118.409628979861736297607421875">
        <ele>3487.800048828125</ele>
        <time>2021-06-25T22:43:11.000Z</time>
        <extensions>
          <ns3:TrackPointExtension>
            <ns3:atemp>28.0</ns3:atemp>
            <ns3:hr>88</ns3:hr>
          </ns3:TrackPointExtension>
        </extensions>
      </trkpt>
      <trkpt lat="36.791957281529903411865234375" lon="-118.4096361882984638214111328125">
        <ele>3487.800048828125</ele>
        <time>2021-06-25T22:43:12.000Z</time>
        <extensions>
          <ns3:TrackPointExtension>
            <ns3:atemp>28.0</ns3:atemp>
            <ns3:hr>88</ns3:hr>
          </ns3:TrackPointExtension>
        </extensions>
      </trkpt>
      <trkpt lat="36.791959963738918304443359375" lon="-118.40964616276323795318603515625">
        <ele>3487.800048828125</ele>
        <time>2021-06-25T22:43:13.000Z</time>
        <extensions>
          <ns3:TrackPointExtension>
            <ns3:atemp>28.0</ns3:atemp>
            <ns3:hr>88</ns3:hr>
          </ns3:TrackPointExtension>
        </extensions>
      </trkpt>
      <trkpt lat="36.79196633398532867431640625" lon="-118.40969041921198368072509765625">
        <ele>3487</ele>
        <time>2021-06-25T22:43:17.000Z</time>
        <extensions>
          <ns3:TrackPointExtension>
            <ns3:atemp>28.0</ns3:atemp>
            <ns3:hr>89</ns3:hr>
          </ns3:TrackPointExtension>
        </extensions>
      </trkpt>
      <trkpt lat="36.79196574725210666656494140625" lon="-118.40971020050346851348876953125">
        <ele>3486.39990234375</ele>
        <time>2021-06-25T22:43:19.000Z</time>
        <extensions>
          <ns3:TrackPointExtension>
            <ns3:atemp>28.0</ns3:atemp>
            <ns3:hr>84</ns3:hr>
          </ns3:TrackPointExtension>
        </extensions>
      </trkpt>
      <trkpt lat="36.79196541197597980499267578125" lon="-118.40972076170146465301513671875">
        <ele>3486.39990234375</ele>
        <time>2021-06-25T22:43:20.000Z</time>
        <extensions>
          <ns3:TrackPointExtension>
            <ns3:atemp>28.0</ns3:atemp>
            <ns3:hr>84</ns3:hr>
          </ns3:TrackPointExtension>
        </extensions>
      </trkpt>
      <trkpt lat="36.79196792654693126678466796875" lon="-118.40973920188844203948974609375">
        <ele>3486.199951171875</ele>
        <time>2021-06-25T22:43:22.000Z</time>
        <extensions>
          <ns3:TrackPointExtension>
            <ns3:atemp>28.0</ns3:atemp>
            <ns3:hr>84</ns3:hr>
          </ns3:TrackPointExtension>
        </extensions>
      </trkpt>
      <trkpt lat="36.79197563789784908294677734375" lon="-118.409777842462062835693359375">
        <ele>3486</ele>
        <time>2021-06-25T22:43:26.000Z</time>
        <extensions>
          <ns3:TrackPointExtension>
            <ns3:atemp>28.0</ns3:atemp>
            <ns3:hr>84</ns3:hr>
          </ns3:TrackPointExtension>
        </extensions>
      </trkpt>
      <trkpt lat="36.79197379387915134429931640625" lon="-118.40981681831181049346923828125">
        <ele>3485.800048828125</ele>
        <time>2021-06-25T22:43:30.000Z</time>
        <extensions>
          <ns3:TrackPointExtension>
            <ns3:atemp>28.0</ns3:atemp>
            <ns3:hr>88</ns3:hr>
          </ns3:TrackPointExtension>
        </extensions>
      </trkpt>
      <trkpt lat="36.791976727545261383056640625" lon="-118.409827463328838348388671875">
        <ele>3485.800048828125</ele>
        <time>2021-06-25T22:43:31.000Z</time>
        <extensions>
          <ns3:TrackPointExtension>
            <ns3:atemp>28.0</ns3:atemp>
            <ns3:hr>86</ns3:hr>
          </ns3:TrackPointExtension>
        </extensions>
      </trkpt>
      <trkpt lat="36.7919896356761455535888671875" lon="-118.409846909344196319580078125">
        <ele>3486</ele>
        <time>2021-06-25T22:43:34.000Z</time>
        <extensions>
          <ns3:TrackPointExtension>
            <ns3:atemp>28.0</ns3:atemp>
            <ns3:hr>89</ns3:hr>
          </ns3:TrackPointExtension>
        </extensions>
      </trkpt>
      <trkpt lat="36.79199139587581157684326171875" lon="-118.40984833426773548126220703125">
        <ele>3486</ele>
        <time>2021-06-25T22:43:35.000Z</time>
        <extensions>
          <ns3:TrackPointExtension>
            <ns3:atemp>28.0</ns3:atemp>
            <ns3:hr>94</ns3:hr>
          </ns3:TrackPointExtension>
        </extensions>
      </trkpt>
      <trkpt lat="36.7919933237135410308837890625" lon="-118.4098487533628940582275390625">
        <ele>3485.39990234375</ele>
        <time>2021-06-25T22:43:36.000Z</time>
        <extensions>
          <ns3:TrackPointExtension>
            <ns3:atemp>28.0</ns3:atemp>
            <ns3:hr>90</ns3:hr>
          </ns3:TrackPointExtension>
        </extensions>
      </trkpt>
      <trkpt lat="36.7919956706464290618896484375" lon="-118.409848250448703765869140625">
        <ele>3484.60009765625</ele>
        <time>2021-06-25T22:43:37.000Z</time>
        <extensions>
          <ns3:TrackPointExtension>
            <ns3:atemp>28.0</ns3:atemp>
            <ns3:hr>90</ns3:hr>
          </ns3:TrackPointExtension>
        </extensions>
      </trkpt>
      <trkpt lat="36.791995503008365631103515625" lon="-118.40984598733484745025634765625">
        <ele>3484</ele>
        <time>2021-06-25T22:43:38.000Z</time>
        <extensions>
          <ns3:TrackPointExtension>
            <ns3:atemp>28.0</ns3:atemp>
            <ns3:hr>91</ns3:hr>
          </ns3:TrackPointExtension>
        </extensions>
      </trkpt>
      <trkpt lat="36.79199541918933391571044921875" lon="-118.40983844362199306488037109375">
        <ele>3484</ele>
        <time>2021-06-25T22:43:45.000Z</time>
        <extensions>
          <ns3:TrackPointExtension>
            <ns3:atemp>28.0</ns3:atemp>
            <ns3:hr>89</ns3:hr>
          </ns3:TrackPointExtension>
        </extensions>
      </trkpt>
      <trkpt lat="36.79199541918933391571044921875" lon="-118.40983844362199306488037109375">
        <ele>3484</ele>
        <time>2021-06-25T22:43:50.000Z</time>
        <extensions>
          <ns3:TrackPointExtension>
            <ns3:atemp>28.0</ns3:atemp>
            <ns3:hr>89</ns3:hr>
          </ns3:TrackPointExtension>
        </extensions>
      </trkpt>
      <trkpt lat="36.79199541918933391571044921875" lon="-118.40983995236456394195556640625">
        <ele>3484</ele>
        <time>2021-06-25T22:43:54.000Z</time>
        <extensions>
          <ns3:TrackPointExtension>
            <ns3:atemp>28.0</ns3:atemp>
            <ns3:hr>92</ns3:hr>
          </ns3:TrackPointExtension>
        </extensions>
      </trkpt>
      <trkpt lat="36.791992150247097015380859375" lon="-118.40984548442065715789794921875">
        <ele>3484</ele>
        <time>2021-06-25T22:44:19.000Z</time>
        <extensions>
          <ns3:TrackPointExtension>
            <ns3:atemp>28.0</ns3:atemp>
            <ns3:hr>88</ns3:hr>
          </ns3:TrackPointExtension>
        </extensions>
      </trkpt>
      <trkpt lat="36.791992150247097015380859375" lon="-118.409845568239688873291015625">
        <ele>3484.199951171875</ele>
        <time>2021-06-25T22:44:21.000Z</time>
        <extensions>
          <ns3:TrackPointExtension>
            <ns3:atemp>28.0</ns3:atemp>
            <ns3:hr>85</ns3:hr>
          </ns3:TrackPointExtension>
        </extensions>
      </trkpt>
      <trkpt lat="36.791992150247097015380859375" lon="-118.40984632261097431182861328125">
        <ele>3484.199951171875</ele>
        <time>2021-06-25T22:44:23.000Z</time>
        <extensions>
          <ns3:TrackPointExtension>
            <ns3:atemp>28.0</ns3:atemp>
            <ns3:hr>81</ns3:hr>
          </ns3:TrackPointExtension>
        </extensions>
      </trkpt>
      <trkpt lat="36.791992150247097015380859375" lon="-118.409847915172576904296875">
        <ele>3484.39990234375</ele>
        <time>2021-06-25T22:44:26.000Z</time>
        <extensions>
          <ns3:TrackPointExtension>
            <ns3:atemp>28.0</ns3:atemp>
            <ns3:hr>78</ns3:hr>
          </ns3:TrackPointExtension>
        </extensions>
      </trkpt>
      <trkpt lat="36.7919936589896678924560546875" lon="-118.40985126793384552001953125">
        <ele>3484</ele>
        <time>2021-06-25T22:44:43.000Z</time>
        <extensions>
          <ns3:TrackPointExtension>
            <ns3:atemp>28.0</ns3:atemp>
            <ns3:hr>81</ns3:hr>
          </ns3:TrackPointExtension>
        </extensions>
      </trkpt>
      <trkpt lat="36.7919933237135410308837890625" lon="-118.40985185466706752777099609375">
        <ele>3484</ele>
        <time>2021-06-25T22:44:52.000Z</time>
        <extensions>
          <ns3:TrackPointExtension>
            <ns3:atemp>28.0</ns3:atemp>
            <ns3:hr>78</ns3:hr>
          </ns3:TrackPointExtension>
        </extensions>
      </trkpt>
      <trkpt lat="36.79199323989450931549072265625" lon="-118.40985286049544811248779296875">
        <ele>3484</ele>
        <time>2021-06-25T22:45:02.000Z</time>
        <extensions>
          <ns3:TrackPointExtension>
            <ns3:atemp>28.0</ns3:atemp>
            <ns3:hr>81</ns3:hr>
          </ns3:TrackPointExtension>
        </extensions>
      </trkpt>
      <trkpt lat="36.791992485523223876953125" lon="-118.409854285418987274169921875">
        <ele>3484</ele>
        <time>2021-06-25T22:45:17.000Z</time>
        <extensions>
          <ns3:TrackPointExtension>
            <ns3:atemp>28.0</ns3:atemp>
            <ns3:hr>78</ns3:hr>
          </ns3:TrackPointExtension>
        </extensions>
      </trkpt>
      <trkpt lat="36.7919889651238918304443359375" lon="-118.409856967628002166748046875">
        <ele>3484</ele>
        <time>2021-06-25T22:45:37.000Z</time>
        <extensions>
          <ns3:TrackPointExtension>
            <ns3:atemp>28.0</ns3:atemp>
            <ns3:hr>75</ns3:hr>
          </ns3:TrackPointExtension>
        </extensions>
      </trkpt>
      <trkpt lat="36.79198645055294036865234375" lon="-118.409860990941524505615234375">
        <ele>3484</ele>
        <time>2021-06-25T22:46:16.000Z</time>
        <extensions>
          <ns3:TrackPointExtension>
            <ns3:atemp>28.0</ns3:atemp>
            <ns3:hr>78</ns3:hr>
          </ns3:TrackPointExtension>
        </extensions>
      </trkpt>
      <trkpt lat="36.79198686964809894561767578125" lon="-118.40986199676990509033203125">
        <ele>3484</ele>
        <time>2021-06-25T22:46:21.000Z</time>
        <extensions>
          <ns3:TrackPointExtension>
            <ns3:atemp>28.0</ns3:atemp>
            <ns3:hr>77</ns3:hr>
          </ns3:TrackPointExtension>
        </extensions>
      </trkpt>
      <trkpt lat="36.791999526321887969970703125" lon="-118.40985126793384552001953125">
        <ele>3484</ele>
        <time>2021-06-25T22:47:06.000Z</time>
        <extensions>
          <ns3:TrackPointExtension>
            <ns3:atemp>29.0</ns3:atemp>
            <ns3:hr>80</ns3:hr>
          </ns3:TrackPointExtension>
        </extensions>
      </trkpt>
      <trkpt lat="36.79199961014091968536376953125" lon="-118.40985126793384552001953125">
        <ele>3484</ele>
        <time>2021-06-25T22:47:10.000Z</time>
        <extensions>
          <ns3:TrackPointExtension>
            <ns3:atemp>29.0</ns3:atemp>
            <ns3:hr>83</ns3:hr>
          </ns3:TrackPointExtension>
        </extensions>
      </trkpt>
      <trkpt lat="36.79199961014091968536376953125" lon="-118.4098511002957820892333984375">
        <ele>3484</ele>
        <time>2021-06-25T22:47:14.000Z</time>
        <extensions>
          <ns3:TrackPointExtension>
            <ns3:atemp>29.0</ns3:atemp>
            <ns3:hr>86</ns3:hr>
          </ns3:TrackPointExtension>
        </extensions>
      </trkpt>
      <trkpt lat="36.79199977777898311614990234375" lon="-118.40985101647675037384033203125">
        <ele>3484</ele>
        <time>2021-06-25T22:47:27.000Z</time>
        <extensions>
          <ns3:TrackPointExtension>
            <ns3:atemp>29.0</ns3:atemp>
            <ns3:hr>86</ns3:hr>
          </ns3:TrackPointExtension>
        </extensions>
      </trkpt>
      <trkpt lat="36.79199986159801483154296875" lon="-118.40985101647675037384033203125">
        <ele>3484</ele>
        <time>2021-06-25T22:47:32.000Z</time>
        <extensions>
          <ns3:TrackPointExtension>
            <ns3:atemp>29.0</ns3:atemp>
            <ns3:hr>89</ns3:hr>
          </ns3:TrackPointExtension>
        </extensions>
      </trkpt>
      <trkpt lat="36.7920000292360782623291015625" lon="-118.40985101647675037384033203125">
        <ele>3484</ele>
        <time>2021-06-25T22:47:40.000Z</time>
        <extensions>
          <ns3:TrackPointExtension>
            <ns3:atemp>29.0</ns3:atemp>
            <ns3:hr>92</ns3:hr>
          </ns3:TrackPointExtension>
        </extensions>
      </trkpt>
      <trkpt lat="36.79200011305510997772216796875" lon="-118.40985101647675037384033203125">
        <ele>3484</ele>
        <time>2021-06-25T22:47:44.000Z</time>
        <extensions>
          <ns3:TrackPointExtension>
            <ns3:atemp>29.0</ns3:atemp>
            <ns3:hr>89</ns3:hr>
          </ns3:TrackPointExtension>
        </extensions>
      </trkpt>
      <trkpt lat="36.792000196874141693115234375" lon="-118.40985101647675037384033203125">
        <ele>3484</ele>
        <time>2021-06-25T22:47:47.000Z</time>
        <extensions>
          <ns3:TrackPointExtension>
            <ns3:atemp>29.0</ns3:atemp>
            <ns3:hr>86</ns3:hr>
          </ns3:TrackPointExtension>
        </extensions>
      </trkpt>
      <trkpt lat="36.792000196874141693115234375" lon="-118.40985101647675037384033203125">
        <ele>3484</ele>
        <time>2021-06-25T22:47:50.000Z</time>
        <extensions>
          <ns3:TrackPointExtension>
            <ns3:atemp>29.0</ns3:atemp>
            <ns3:hr>83</ns3:hr>
          </ns3:TrackPointExtension>
        </extensions>
      </trkpt>
      <trkpt lat="36.792000196874141693115234375" lon="-118.40985101647675037384033203125">
        <ele>3484</ele>
        <time>2021-06-25T22:47:53.000Z</time>
        <extensions>
          <ns3:TrackPointExtension>
            <ns3:atemp>29.0</ns3:atemp>
            <ns3:hr>80</ns3:hr>
          </ns3:TrackPointExtension>
        </extensions>
      </trkpt>
      <trkpt lat="36.79200044833123683929443359375" lon="-118.4098511002957820892333984375">
        <ele>3484</ele>
        <time>2021-06-25T22:48:02.000Z</time>
        <extensions>
          <ns3:TrackPointExtension>
            <ns3:atemp>29.0</ns3:atemp>
            <ns3:hr>77</ns3:hr>
          </ns3:TrackPointExtension>
        </extensions>
      </trkpt>
      <trkpt lat="36.79200061596930027008056640625" lon="-118.4098511002957820892333984375">
        <ele>3484</ele>
        <time>2021-06-25T22:48:10.000Z</time>
        <extensions>
          <ns3:TrackPointExtension>
            <ns3:atemp>29.0</ns3:atemp>
            <ns3:hr>74</ns3:hr>
          </ns3:TrackPointExtension>
        </extensions>
      </trkpt>
      <trkpt lat="36.7920006997883319854736328125" lon="-118.4098511002957820892333984375">
        <ele>3484</ele>
        <time>2021-06-25T22:48:15.000Z</time>
        <extensions>
          <ns3:TrackPointExtension>
            <ns3:atemp>29.0</ns3:atemp>
            <ns3:hr>71</ns3:hr>
          </ns3:TrackPointExtension>
        </extensions>
      </trkpt>
      <trkpt lat="36.792000867426395416259765625" lon="-118.40985126793384552001953125">
        <ele>3484</ele>
        <time>2021-06-25T22:48:24.000Z</time>
        <extensions>
          <ns3:TrackPointExtension>
            <ns3:atemp>29.0</ns3:atemp>
            <ns3:hr>74</ns3:hr>
          </ns3:TrackPointExtension>
        </extensions>
      </trkpt>
      <trkpt lat="36.792000867426395416259765625" lon="-118.4098511002957820892333984375">
        <ele>3484</ele>
        <time>2021-06-25T22:48:27.000Z</time>
        <extensions>
          <ns3:TrackPointExtension>
            <ns3:atemp>29.0</ns3:atemp>
            <ns3:hr>77</ns3:hr>
          </ns3:TrackPointExtension>
        </extensions>
      </trkpt>
      <trkpt lat="36.79200095124542713165283203125" lon="-118.4098511002957820892333984375">
        <ele>3484</ele>
        <time>2021-06-25T22:48:32.000Z</time>
        <extensions>
          <ns3:TrackPointExtension>
            <ns3:atemp>29.0</ns3:atemp>
            <ns3:hr>80</ns3:hr>
          </ns3:TrackPointExtension>
        </extensions>
      </trkpt>
      <trkpt lat="36.7920010350644588470458984375" lon="-118.4098511002957820892333984375">
        <ele>3484</ele>
        <time>2021-06-25T22:48:48.000Z</time>
        <extensions>
          <ns3:TrackPointExtension>
            <ns3:atemp>29.0</ns3:atemp>
            <ns3:hr>83</ns3:hr>
          </ns3:TrackPointExtension>
        </extensions>
      </trkpt>
      <trkpt lat="36.7920010350644588470458984375" lon="-118.4098511002957820892333984375">
        <ele>3484</ele>
        <time>2021-06-25T22:48:51.000Z</time>
        <extensions>
          <ns3:TrackPointExtension>
            <ns3:atemp>29.0</ns3:atemp>
            <ns3:hr>87</ns3:hr>
          </ns3:TrackPointExtension>
        </extensions>
      </trkpt>
      <trkpt lat="36.79200111888349056243896484375" lon="-118.409850932657718658447265625">
        <ele>3484</ele>
        <time>2021-06-25T22:48:55.000Z</time>
        <extensions>
          <ns3:TrackPointExtension>
            <ns3:atemp>29.0</ns3:atemp>
            <ns3:hr>90</ns3:hr>
          </ns3:TrackPointExtension>
        </extensions>
      </trkpt>
      <trkpt lat="36.7920355685055255889892578125" lon="-118.40974800288677215576171875">
        <ele>3484</ele>
        <time>2021-06-25T22:49:04.000Z</time>
        <extensions>
          <ns3:TrackPointExtension>
            <ns3:atemp>29.0</ns3:atemp>
            <ns3:hr>88</ns3:hr>
          </ns3:TrackPointExtension>
        </extensions>
      </trkpt>
      <trkpt lat="36.79206381551921367645263671875" lon="-118.40970240533351898193359375">
        <ele>3484</ele>
        <time>2021-06-25T22:49:08.000Z</time>
        <extensions>
          <ns3:TrackPointExtension>
            <ns3:atemp>28.0</ns3:atemp>
            <ns3:hr>86</ns3:hr>
          </ns3:TrackPointExtension>
        </extensions>
      </trkpt>
      <trkpt lat="36.79206733591854572296142578125" lon="-118.4096951968967914581298828125">
        <ele>3484</ele>
        <time>2021-06-25T22:49:09.000Z</time>
        <extensions>
          <ns3:TrackPointExtension>
            <ns3:atemp>28.0</ns3:atemp>
            <ns3:hr>85</ns3:hr>
          </ns3:TrackPointExtension>
        </extensions>
      </trkpt>
      <trkpt lat="36.79206247441470623016357421875" lon="-118.40971305035054683685302734375">
        <ele>3484</ele>
        <time>2021-06-25T22:49:11.000Z</time>
        <extensions>
          <ns3:TrackPointExtension>
            <ns3:atemp>28.0</ns3:atemp>
            <ns3:hr>84</ns3:hr>
          </ns3:TrackPointExtension>
        </extensions>
      </trkpt>
      <trkpt lat="36.79206029511988162994384765625" lon="-118.40979184024035930633544921875">
        <ele>3483.800048828125</ele>
        <time>2021-06-25T22:49:19.000Z</time>
        <extensions>
          <ns3:TrackPointExtension>
            <ns3:atemp>28.0</ns3:atemp>
            <ns3:hr>83</ns3:hr>
          </ns3:TrackPointExtension>
        </extensions>
      </trkpt>
      <trkpt lat="36.7920670844614505767822265625" lon="-118.40981899760663509368896484375">
        <ele>3483.60009765625</ele>
        <time>2021-06-25T22:49:22.000Z</time>
        <extensions>
          <ns3:TrackPointExtension>
            <ns3:atemp>28.0</ns3:atemp>
            <ns3:hr>85</ns3:hr>
          </ns3:TrackPointExtension>
        </extensions>
      </trkpt>
      <trkpt lat="36.79209331981837749481201171875" lon="-118.40982176363468170166015625">
        <ele>3483.199951171875</ele>
        <time>2021-06-25T22:49:26.000Z</time>
        <extensions>
          <ns3:TrackPointExtension>
            <ns3:atemp>28.0</ns3:atemp>
            <ns3:hr>85</ns3:hr>
          </ns3:TrackPointExtension>
        </extensions>
      </trkpt>
      <trkpt lat="36.79212081246078014373779296875" lon="-118.409744985401630401611328125">
        <ele>3482.60009765625</ele>
        <time>2021-06-25T22:49:35.000Z</time>
        <extensions>
          <ns3:TrackPointExtension>
            <ns3:atemp>28.0</ns3:atemp>
            <ns3:hr>85</ns3:hr>
          </ns3:TrackPointExtension>
        </extensions>
      </trkpt>
      <trkpt lat="36.7921247519552707672119140625" lon="-118.40973601676523685455322265625">
        <ele>3482.39990234375</ele>
        <time>2021-06-25T22:49:36.000Z</time>
        <extensions>
          <ns3:TrackPointExtension>
            <ns3:atemp>28.0</ns3:atemp>
            <ns3:hr>85</ns3:hr>
          </ns3:TrackPointExtension>
        </extensions>
      </trkpt>
      <trkpt lat="36.79211092181503772735595703125" lon="-118.40966242365539073944091796875">
        <ele>3482.199951171875</ele>
        <time>2021-06-25T22:49:43.000Z</time>
        <extensions>
          <ns3:TrackPointExtension>
            <ns3:atemp>28.0</ns3:atemp>
            <ns3:hr>85</ns3:hr>
          </ns3:TrackPointExtension>
        </extensions>
      </trkpt>
      <trkpt lat="36.792126260697841644287109375" lon="-118.4096293151378631591796875">
        <ele>3481.39990234375</ele>
        <time>2021-06-25T22:49:50.000Z</time>
        <extensions>
          <ns3:TrackPointExtension>
            <ns3:atemp>28.0</ns3:atemp>
            <ns3:hr>86</ns3:hr>
          </ns3:TrackPointExtension>
        </extensions>
      </trkpt>
      <trkpt lat="36.79213891737163066864013671875" lon="-118.40963459573686122894287109375">
        <ele>3481.39990234375</ele>
        <time>2021-06-25T22:49:52.000Z</time>
        <extensions>
          <ns3:TrackPointExtension>
            <ns3:atemp>28.0</ns3:atemp>
            <ns3:hr>85</ns3:hr>
          </ns3:TrackPointExtension>
        </extensions>
      </trkpt>
      <trkpt lat="36.79216506890952587127685546875" lon="-118.4096596576273441314697265625">
        <ele>3481.199951171875</ele>
        <time>2021-06-25T22:49:58.000Z</time>
        <extensions>
          <ns3:TrackPointExtension>
            <ns3:atemp>28.0</ns3:atemp>
            <ns3:hr>86</ns3:hr>
          </ns3:TrackPointExtension>
        </extensions>
      </trkpt>
      <trkpt lat="36.79216506890952587127685546875" lon="-118.4096596576273441314697265625">
        <ele>3481</ele>
        <time>2021-06-25T22:50:00.000Z</time>
        <extensions>
          <ns3:TrackPointExtension>
            <ns3:atemp>28.0</ns3:atemp>
            <ns3:hr>83</ns3:hr>
          </ns3:TrackPointExtension>
        </extensions>
      </trkpt>
      <trkpt lat="36.79216506890952587127685546875" lon="-118.4096596576273441314697265625">
        <ele>3480.60009765625</ele>
        <time>2021-06-25T22:50:02.000Z</time>
        <extensions>
          <ns3:TrackPointExtension>
            <ns3:atemp>28.0</ns3:atemp>
            <ns3:hr>80</ns3:hr>
          </ns3:TrackPointExtension>
        </extensions>
      </trkpt>
      <trkpt lat="36.7921807430684566497802734375" lon="-118.409665860235691070556640625">
        <ele>3480.39990234375</ele>
        <time>2021-06-25T22:50:04.000Z</time>
        <extensions>
          <ns3:TrackPointExtension>
            <ns3:atemp>28.0</ns3:atemp>
            <ns3:hr>76</ns3:hr>
          </ns3:TrackPointExtension>
        </extensions>
      </trkpt>
      <trkpt lat="36.79218895733356475830078125" lon="-118.409670889377593994140625">
        <ele>3480.199951171875</ele>
        <time>2021-06-25T22:50:05.000Z</time>
        <extensions>
          <ns3:TrackPointExtension>
            <ns3:atemp>28.0</ns3:atemp>
            <ns3:hr>74</ns3:hr>
          </ns3:TrackPointExtension>
        </extensions>
      </trkpt>
      <trkpt lat="36.79221016354858875274658203125" lon="-118.40968522243201732635498046875">
        <ele>3479.800048828125</ele>
        <time>2021-06-25T22:50:07.000Z</time>
        <extensions>
          <ns3:TrackPointExtension>
            <ns3:atemp>28.0</ns3:atemp>
            <ns3:hr>74</ns3:hr>
          </ns3:TrackPointExtension>
        </extensions>
      </trkpt>
      <trkpt lat="36.79223195649683475494384765625" lon="-118.40971372090280055999755859375">
        <ele>3479</ele>
        <time>2021-06-25T22:50:11.000Z</time>
        <extensions>
          <ns3:TrackPointExtension>
            <ns3:atemp>28.0</ns3:atemp>
            <ns3:hr>74</ns3:hr>
          </ns3:TrackPointExtension>
        </extensions>
      </trkpt>
      <trkpt lat="36.79224452935159206390380859375" lon="-118.40973953716456890106201171875">
        <ele>3478.800048828125</ele>
        <time>2021-06-25T22:50:14.000Z</time>
        <extensions>
          <ns3:TrackPointExtension>
            <ns3:atemp>28.0</ns3:atemp>
            <ns3:hr>73</ns3:hr>
          </ns3:TrackPointExtension>
        </extensions>
      </trkpt>
      <trkpt lat="36.7922555096447467803955078125" lon="-118.40974372811615467071533203125">
        <ele>3478.800048828125</ele>
        <time>2021-06-25T22:50:15.000Z</time>
        <extensions>
          <ns3:TrackPointExtension>
            <ns3:atemp>28.0</ns3:atemp>
            <ns3:hr>72</ns3:hr>
          </ns3:TrackPointExtension>
        </extensions>
      </trkpt>
      <trkpt lat="36.79226766340434551239013671875" lon="-118.40974288992583751678466796875">
        <ele>3478.199951171875</ele>
        <time>2021-06-25T22:50:17.000Z</time>
        <extensions>
          <ns3:TrackPointExtension>
            <ns3:atemp>28.0</ns3:atemp>
            <ns3:hr>71</ns3:hr>
          </ns3:TrackPointExtension>
        </extensions>
      </trkpt>
      <trkpt lat="36.79227554239332675933837890625" lon="-118.40974171645939350128173828125">
        <ele>3478</ele>
        <time>2021-06-25T22:50:18.000Z</time>
        <extensions>
          <ns3:TrackPointExtension>
            <ns3:atemp>28.0</ns3:atemp>
            <ns3:hr>70</ns3:hr>
          </ns3:TrackPointExtension>
        </extensions>
      </trkpt>
      <trkpt lat="36.7922866903245449066162109375" lon="-118.4097285568714141845703125">
        <ele>3477.800048828125</ele>
        <time>2021-06-25T22:50:20.000Z</time>
        <extensions>
          <ns3:TrackPointExtension>
            <ns3:atemp>28.0</ns3:atemp>
            <ns3:hr>69</ns3:hr>
          </ns3:TrackPointExtension>
        </extensions>
      </trkpt>
      <trkpt lat="36.792290546000003814697265625" lon="-118.40971237979829311370849609375">
        <ele>3477.60009765625</ele>
        <time>2021-06-25T22:50:22.000Z</time>
        <extensions>
          <ns3:TrackPointExtension>
            <ns3:atemp>28.0</ns3:atemp>
            <ns3:hr>69</ns3:hr>
          </ns3:TrackPointExtension>
        </extensions>
      </trkpt>
      <trkpt lat="36.792309321463108062744140625" lon="-118.40970483608543872833251953125">
        <ele>3476.39990234375</ele>
        <time>2021-06-25T22:50:26.000Z</time>
        <extensions>
          <ns3:TrackPointExtension>
            <ns3:atemp>28.0</ns3:atemp>
            <ns3:hr>67</ns3:hr>
          </ns3:TrackPointExtension>
        </extensions>
      </trkpt>
      <trkpt lat="36.79233522154390811920166015625" lon="-118.4096829593181610107421875">
        <ele>3476.199951171875</ele>
        <time>2021-06-25T22:50:30.000Z</time>
        <extensions>
          <ns3:TrackPointExtension>
            <ns3:atemp>28.0</ns3:atemp>
            <ns3:hr>66</ns3:hr>
          </ns3:TrackPointExtension>
        </extensions>
      </trkpt>
      <trkpt lat="36.7923493869602680206298828125" lon="-118.4096837975084781646728515625">
        <ele>3475.39990234375</ele>
        <time>2021-06-25T22:50:34.000Z</time>
        <extensions>
          <ns3:TrackPointExtension>
            <ns3:atemp>28.0</ns3:atemp>
            <ns3:hr>66</ns3:hr>
          </ns3:TrackPointExtension>
        </extensions>
      </trkpt>
      <trkpt lat="36.79235517047345638275146484375" lon="-118.40969813056290149688720703125">
        <ele>3475.199951171875</ele>
        <time>2021-06-25T22:50:36.000Z</time>
        <extensions>
          <ns3:TrackPointExtension>
            <ns3:atemp>28.0</ns3:atemp>
            <ns3:hr>65</ns3:hr>
          </ns3:TrackPointExtension>
        </extensions>
      </trkpt>
      <trkpt lat="36.79238316603004932403564453125" lon="-118.4097277186810970306396484375">
        <ele>3474.39990234375</ele>
        <time>2021-06-25T22:50:41.000Z</time>
        <extensions>
          <ns3:TrackPointExtension>
            <ns3:atemp>28.0</ns3:atemp>
            <ns3:hr>66</ns3:hr>
          </ns3:TrackPointExtension>
        </extensions>
      </trkpt>
      <trkpt lat="36.79238936863839626312255859375" lon="-118.40972788631916046142578125">
        <ele>3474.199951171875</ele>
        <time>2021-06-25T22:50:42.000Z</time>
        <extensions>
          <ns3:TrackPointExtension>
            <ns3:atemp>28.0</ns3:atemp>
            <ns3:hr>67</ns3:hr>
          </ns3:TrackPointExtension>
        </extensions>
      </trkpt>
      <trkpt lat="36.79243714548647403717041015625" lon="-118.40974154882133007049560546875">
        <ele>3473.39990234375</ele>
        <time>2021-06-25T22:50:49.000Z</time>
        <extensions>
          <ns3:TrackPointExtension>
            <ns3:atemp>28.0</ns3:atemp>
            <ns3:hr>68</ns3:hr>
          </ns3:TrackPointExtension>
        </extensions>
      </trkpt>
      <trkpt lat="36.792448461055755615234375" lon="-118.40973987244069576263427734375">
        <ele>3473.199951171875</ele>
        <time>2021-06-25T22:50:50.000Z</time>
        <extensions>
          <ns3:TrackPointExtension>
            <ns3:atemp>28.0</ns3:atemp>
            <ns3:hr>68</ns3:hr>
          </ns3:TrackPointExtension>
        </extensions>
      </trkpt>
      <trkpt lat="36.792483665049076080322265625" lon="-118.409724868834018707275390625">
        <ele>3473.199951171875</ele>
        <time>2021-06-25T22:50:55.000Z</time>
        <extensions>
          <ns3:TrackPointExtension>
            <ns3:atemp>28.0</ns3:atemp>
            <ns3:hr>71</ns3:hr>
          </ns3:TrackPointExtension>
        </extensions>
      </trkpt>
      <trkpt lat="36.79249715991318225860595703125" lon="-118.4097097814083099365234375">
        <ele>3472.199951171875</ele>
        <time>2021-06-25T22:50:57.000Z</time>
        <extensions>
          <ns3:TrackPointExtension>
            <ns3:atemp>28.0</ns3:atemp>
            <ns3:hr>69</ns3:hr>
          </ns3:TrackPointExtension>
        </extensions>
      </trkpt>
      <trkpt lat="36.79250151850283145904541015625" lon="-118.40970198623836040496826171875">
        <ele>3472.199951171875</ele>
        <time>2021-06-25T22:50:58.000Z</time>
        <extensions>
          <ns3:TrackPointExtension>
            <ns3:atemp>28.0</ns3:atemp>
            <ns3:hr>68</ns3:hr>
          </ns3:TrackPointExtension>
        </extensions>
      </trkpt>
      <trkpt lat="36.79256438277661800384521484375" lon="-118.40967767871916294097900390625">
        <ele>3471.60009765625</ele>
        <time>2021-06-25T22:51:06.000Z</time>
        <extensions>
          <ns3:TrackPointExtension>
            <ns3:atemp>28.0</ns3:atemp>
            <ns3:hr>71</ns3:hr>
          </ns3:TrackPointExtension>
        </extensions>
      </trkpt>
      <trkpt lat="36.79259170778095722198486328125" lon="-118.409679271280765533447265625">
        <ele>3471.39990234375</ele>
        <time>2021-06-25T22:51:09.000Z</time>
        <extensions>
          <ns3:TrackPointExtension>
            <ns3:atemp>28.0</ns3:atemp>
            <ns3:hr>71</ns3:hr>
          </ns3:TrackPointExtension>
        </extensions>
      </trkpt>
      <trkpt lat="36.79266932420432567596435546875" lon="-118.4096432290971279144287109375">
        <ele>3471.60009765625</ele>
        <time>2021-06-25T22:51:18.000Z</time>
        <extensions>
          <ns3:TrackPointExtension>
            <ns3:atemp>28.0</ns3:atemp>
            <ns3:hr>70</ns3:hr>
          </ns3:TrackPointExtension>
        </extensions>
      </trkpt>
      <trkpt lat="36.79268357343971729278564453125" lon="-118.40964264236390590667724609375">
        <ele>3471</ele>
        <time>2021-06-25T22:51:20.000Z</time>
        <extensions>
          <ns3:TrackPointExtension>
            <ns3:atemp>28.0</ns3:atemp>
            <ns3:hr>68</ns3:hr>
          </ns3:TrackPointExtension>
        </extensions>
      </trkpt>
      <trkpt lat="36.79269229061901569366455078125" lon="-118.409645073115825653076171875">
        <ele>3471</ele>
        <time>2021-06-25T22:51:21.000Z</time>
        <extensions>
          <ns3:TrackPointExtension>
            <ns3:atemp>28.0</ns3:atemp>
            <ns3:hr>68</ns3:hr>
          </ns3:TrackPointExtension>
        </extensions>
      </trkpt>
      <trkpt lat="36.792752556502819061279296875" lon="-118.40965756215155124664306640625">
        <ele>3471.39990234375</ele>
        <time>2021-06-25T22:51:27.000Z</time>
        <extensions>
          <ns3:TrackPointExtension>
            <ns3:atemp>28.0</ns3:atemp>
            <ns3:hr>67</ns3:hr>
          </ns3:TrackPointExtension>
        </extensions>
      </trkpt>
      <trkpt lat="36.79279488511383533477783203125" lon="-118.40967021882534027099609375">
        <ele>3471.39990234375</ele>
        <time>2021-06-25T22:51:31.000Z</time>
        <extensions>
          <ns3:TrackPointExtension>
            <ns3:atemp>29.0</ns3:atemp>
            <ns3:hr>64</ns3:hr>
          </ns3:TrackPointExtension>
        </extensions>
      </trkpt>
      <trkpt lat="36.79282841272652149200439453125" lon="-118.40969461016356945037841796875">
        <ele>3471.199951171875</ele>
        <time>2021-06-25T22:51:35.000Z</time>
        <extensions>
          <ns3:TrackPointExtension>
            <ns3:atemp>29.0</ns3:atemp>
            <ns3:hr>67</ns3:hr>
          </ns3:TrackPointExtension>
        </extensions>
      </trkpt>
      <trkpt lat="36.79285892285406589508056640625" lon="-118.40971581637859344482421875">
        <ele>3471</ele>
        <time>2021-06-25T22:51:38.000Z</time>
        <extensions>
          <ns3:TrackPointExtension>
            <ns3:atemp>29.0</ns3:atemp>
            <ns3:hr>70</ns3:hr>
          </ns3:TrackPointExtension>
        </extensions>
      </trkpt>
      <trkpt lat="36.7928968928754329681396484375" lon="-118.40972243808209896087646484375">
        <ele>3471.199951171875</ele>
        <time>2021-06-25T22:51:42.000Z</time>
        <extensions>
          <ns3:TrackPointExtension>
            <ns3:atemp>29.0</ns3:atemp>
            <ns3:hr>73</ns3:hr>
          </ns3:TrackPointExtension>
        </extensions>
      </trkpt>
      <trkpt lat="36.79294089786708354949951171875" lon="-118.40973719023168087005615234375">
        <ele>3471.199951171875</ele>
        <time>2021-06-25T22:51:47.000Z</time>
        <extensions>
          <ns3:TrackPointExtension>
            <ns3:atemp>29.0</ns3:atemp>
            <ns3:hr>74</ns3:hr>
          </ns3:TrackPointExtension>
        </extensions>
      </trkpt>
      <trkpt lat="36.7929854057729244232177734375" lon="-118.40974867343902587890625">
        <ele>3472.199951171875</ele>
        <time>2021-06-25T22:51:52.000Z</time>
        <extensions>
          <ns3:TrackPointExtension>
            <ns3:atemp>29.0</ns3:atemp>
            <ns3:hr>74</ns3:hr>
          </ns3:TrackPointExtension>
        </extensions>
      </trkpt>
      <trkpt lat="36.793012060225009918212890625" lon="-118.40974657796323299407958984375">
        <ele>3472.199951171875</ele>
        <time>2021-06-25T22:51:55.000Z</time>
        <extensions>
          <ns3:TrackPointExtension>
            <ns3:atemp>29.0</ns3:atemp>
            <ns3:hr>76</ns3:hr>
          </ns3:TrackPointExtension>
        </extensions>
      </trkpt>
      <trkpt lat="36.7930222861468791961669921875" lon="-118.40972864069044589996337890625">
        <ele>3472.39990234375</ele>
        <time>2021-06-25T22:51:58.000Z</time>
        <extensions>
          <ns3:TrackPointExtension>
            <ns3:atemp>29.0</ns3:atemp>
            <ns3:hr>79</ns3:hr>
          </ns3:TrackPointExtension>
        </extensions>
      </trkpt>
      <trkpt lat="36.79304282180964946746826171875" lon="-118.4097236953675746917724609375">
        <ele>3473</ele>
        <time>2021-06-25T22:52:01.000Z</time>
        <extensions>
          <ns3:TrackPointExtension>
            <ns3:atemp>29.0</ns3:atemp>
            <ns3:hr>82</ns3:hr>
          </ns3:TrackPointExtension>
        </extensions>
      </trkpt>
      <trkpt lat="36.79304801858961582183837890625" lon="-118.409723527729511260986328125">
        <ele>3473</ele>
        <time>2021-06-25T22:52:02.000Z</time>
        <extensions>
          <ns3:TrackPointExtension>
            <ns3:atemp>29.0</ns3:atemp>
            <ns3:hr>83</ns3:hr>
          </ns3:TrackPointExtension>
        </extensions>
      </trkpt>
      <trkpt lat="36.7930541373789310455322265625" lon="-118.4097230248153209686279296875">
        <ele>3473</ele>
        <time>2021-06-25T22:52:03.000Z</time>
        <extensions>
          <ns3:TrackPointExtension>
            <ns3:atemp>29.0</ns3:atemp>
            <ns3:hr>83</ns3:hr>
          </ns3:TrackPointExtension>
        </extensions>
      </trkpt>
      <trkpt lat="36.7930595017969608306884765625" lon="-118.4097236953675746917724609375">
        <ele>3473.60009765625</ele>
        <time>2021-06-25T22:52:04.000Z</time>
        <extensions>
          <ns3:TrackPointExtension>
            <ns3:atemp>29.0</ns3:atemp>
            <ns3:hr>83</ns3:hr>
          </ns3:TrackPointExtension>
        </extensions>
      </trkpt>
      <trkpt lat="36.793067045509815216064453125" lon="-118.4097240306437015533447265625">
        <ele>3473.60009765625</ele>
        <time>2021-06-25T22:52:05.000Z</time>
        <extensions>
          <ns3:TrackPointExtension>
            <ns3:atemp>29.0</ns3:atemp>
            <ns3:hr>84</ns3:hr>
          </ns3:TrackPointExtension>
        </extensions>
      </trkpt>
      <trkpt lat="36.793076097965240478515625" lon="-118.409711457788944244384765625">
        <ele>3473.60009765625</ele>
        <time>2021-06-25T22:52:07.000Z</time>
        <extensions>
          <ns3:TrackPointExtension>
            <ns3:atemp>29.0</ns3:atemp>
            <ns3:hr>87</ns3:hr>
          </ns3:TrackPointExtension>
        </extensions>
      </trkpt>
      <trkpt lat="36.793076433241367340087890625" lon="-118.40968790464103221893310546875">
        <ele>3473.800048828125</ele>
        <time>2021-06-25T22:52:10.000Z</time>
        <extensions>
          <ns3:TrackPointExtension>
            <ns3:atemp>29.0</ns3:atemp>
            <ns3:hr>85</ns3:hr>
          </ns3:TrackPointExtension>
        </extensions>
      </trkpt>
      <trkpt lat="36.79308556951582431793212890625" lon="-118.40966996736824512481689453125">
        <ele>3474.199951171875</ele>
        <time>2021-06-25T22:52:20.000Z</time>
        <extensions>
          <ns3:TrackPointExtension>
            <ns3:atemp>29.0</ns3:atemp>
            <ns3:hr>88</ns3:hr>
          </ns3:TrackPointExtension>
        </extensions>
      </trkpt>
      <trkpt lat="36.7930869944393634796142578125" lon="-118.40967298485338687896728515625">
        <ele>3474</ele>
        <time>2021-06-25T22:52:26.000Z</time>
        <extensions>
          <ns3:TrackPointExtension>
            <ns3:atemp>29.0</ns3:atemp>
            <ns3:hr>91</ns3:hr>
          </ns3:TrackPointExtension>
        </extensions>
      </trkpt>
      <trkpt lat="36.79309160448610782623291015625" lon="-118.40967315249145030975341796875">
        <ele>3473.800048828125</ele>
        <time>2021-06-25T22:52:27.000Z</time>
        <extensions>
          <ns3:TrackPointExtension>
            <ns3:atemp>29.0</ns3:atemp>
            <ns3:hr>92</ns3:hr>
          </ns3:TrackPointExtension>
        </extensions>
      </trkpt>
      <trkpt lat="36.79309411905705928802490234375" lon="-118.40967155992984771728515625">
        <ele>3473.800048828125</ele>
        <time>2021-06-25T22:52:29.000Z</time>
        <extensions>
          <ns3:TrackPointExtension>
            <ns3:atemp>29.0</ns3:atemp>
            <ns3:hr>95</ns3:hr>
          </ns3:TrackPointExtension>
        </extensions>
      </trkpt>
      <trkpt lat="36.79309411905705928802490234375" lon="-118.40967155992984771728515625">
        <ele>3473.800048828125</ele>
        <time>2021-06-25T22:52:31.000Z</time>
        <extensions>
          <ns3:TrackPointExtension>
            <ns3:atemp>29.0</ns3:atemp>
            <ns3:hr>98</ns3:hr>
          </ns3:TrackPointExtension>
        </extensions>
      </trkpt>
      <trkpt lat="36.79309411905705928802490234375" lon="-118.40967155992984771728515625">
        <ele>3474</ele>
        <time>2021-06-25T22:52:34.000Z</time>
        <extensions>
          <ns3:TrackPointExtension>
            <ns3:atemp>29.0</ns3:atemp>
            <ns3:hr>101</ns3:hr>
          </ns3:TrackPointExtension>
        </extensions>
      </trkpt>
      <trkpt lat="36.7930903472006320953369140625" lon="-118.40967281721532344818115234375">
        <ele>3474.60009765625</ele>
        <time>2021-06-25T22:52:46.000Z</time>
        <extensions>
          <ns3:TrackPointExtension>
            <ns3:atemp>29.0</ns3:atemp>
            <ns3:hr>98</ns3:hr>
          </ns3:TrackPointExtension>
        </extensions>
      </trkpt>
      <trkpt lat="36.79309152066707611083984375" lon="-118.40967449359595775604248046875">
        <ele>3474.800048828125</ele>
        <time>2021-06-25T22:52:50.000Z</time>
        <extensions>
          <ns3:TrackPointExtension>
            <ns3:atemp>29.0</ns3:atemp>
            <ns3:hr>97</ns3:hr>
          </ns3:TrackPointExtension>
        </extensions>
      </trkpt>
      <trkpt lat="36.79313703440129756927490234375" lon="-118.40967918746173381805419921875">
        <ele>3475.800048828125</ele>
        <time>2021-06-25T22:53:01.000Z</time>
        <extensions>
          <ns3:TrackPointExtension>
            <ns3:atemp>29.0</ns3:atemp>
            <ns3:hr>98</ns3:hr>
          </ns3:TrackPointExtension>
        </extensions>
      </trkpt>
      <trkpt lat="36.7931654490530490875244140625" lon="-118.40967130847275257110595703125">
        <ele>3476.800048828125</ele>
        <time>2021-06-25T22:53:08.000Z</time>
        <extensions>
          <ns3:TrackPointExtension>
            <ns3:atemp>29.0</ns3:atemp>
            <ns3:hr>98</ns3:hr>
          </ns3:TrackPointExtension>
        </extensions>
      </trkpt>
      <trkpt lat="36.79320073686540126800537109375" lon="-118.4096556343138217926025390625">
        <ele>3477.199951171875</ele>
        <time>2021-06-25T22:53:11.000Z</time>
        <extensions>
          <ns3:TrackPointExtension>
            <ns3:atemp>29.0</ns3:atemp>
            <ns3:hr>101</ns3:hr>
          </ns3:TrackPointExtension>
        </extensions>
      </trkpt>
      <trkpt lat="36.79325253702700138092041015625" lon="-118.409631662070751190185546875">
        <ele>3477.39990234375</ele>
        <time>2021-06-25T22:53:14.000Z</time>
        <extensions>
          <ns3:TrackPointExtension>
            <ns3:atemp>29.0</ns3:atemp>
            <ns3:hr>100</ns3:hr>
          </ns3:TrackPointExtension>
        </extensions>
      </trkpt>
      <trkpt lat="36.7933837138116359710693359375" lon="-118.409536778926849365234375">
        <ele>3476.60009765625</ele>
        <time>2021-06-25T22:53:24.000Z</time>
        <extensions>
          <ns3:TrackPointExtension>
            <ns3:atemp>29.0</ns3:atemp>
            <ns3:hr>103</ns3:hr>
          </ns3:TrackPointExtension>
        </extensions>
      </trkpt>
      <trkpt lat="36.7933914251625537872314453125" lon="-118.40952881611883640289306640625">
        <ele>3476.60009765625</ele>
        <time>2021-06-25T22:53:25.000Z</time>
        <extensions>
          <ns3:TrackPointExtension>
            <ns3:atemp>29.0</ns3:atemp>
            <ns3:hr>103</ns3:hr>
          </ns3:TrackPointExtension>
        </extensions>
      </trkpt>
      <trkpt lat="36.79346074350178241729736328125" lon="-118.40947173535823822021484375">
        <ele>3475.800048828125</ele>
        <time>2021-06-25T22:53:33.000Z</time>
        <extensions>
          <ns3:TrackPointExtension>
            <ns3:atemp>29.0</ns3:atemp>
            <ns3:hr>103</ns3:hr>
          </ns3:TrackPointExtension>
        </extensions>
      </trkpt>
      <trkpt lat="36.79347851313650608062744140625" lon="-118.409446589648723602294921875">
        <ele>3475.800048828125</ele>
        <time>2021-06-25T22:53:36.000Z</time>
        <extensions>
          <ns3:TrackPointExtension>
            <ns3:atemp>29.0</ns3:atemp>
            <ns3:hr>101</ns3:hr>
          </ns3:TrackPointExtension>
        </extensions>
      </trkpt>
      <trkpt lat="36.79350592195987701416015625" lon="-118.40939856134355068206787109375">
        <ele>3476.39990234375</ele>
        <time>2021-06-25T22:53:41.000Z</time>
        <extensions>
          <ns3:TrackPointExtension>
            <ns3:atemp>29.0</ns3:atemp>
            <ns3:hr>102</ns3:hr>
          </ns3:TrackPointExtension>
        </extensions>
      </trkpt>
      <trkpt lat="36.7935017310082912445068359375" lon="-118.40937475673854351043701171875">
        <ele>3475.800048828125</ele>
        <time>2021-06-25T22:53:43.000Z</time>
        <extensions>
          <ns3:TrackPointExtension>
            <ns3:atemp>29.0</ns3:atemp>
            <ns3:hr>103</ns3:hr>
          </ns3:TrackPointExtension>
        </extensions>
      </trkpt>
      <trkpt lat="36.79349762387573719024658203125" lon="-118.40936369262635707855224609375">
        <ele>3475.800048828125</ele>
        <time>2021-06-25T22:53:44.000Z</time>
        <extensions>
          <ns3:TrackPointExtension>
            <ns3:atemp>29.0</ns3:atemp>
            <ns3:hr>102</ns3:hr>
          </ns3:TrackPointExtension>
        </extensions>
      </trkpt>
      <trkpt lat="36.7934997193515300750732421875" lon="-118.40935816057026386260986328125">
        <ele>3475.800048828125</ele>
        <time>2021-06-25T22:53:45.000Z</time>
        <extensions>
          <ns3:TrackPointExtension>
            <ns3:atemp>29.0</ns3:atemp>
            <ns3:hr>102</ns3:hr>
          </ns3:TrackPointExtension>
        </extensions>
      </trkpt>
      <trkpt lat="36.79352276958525180816650390625" lon="-118.40935581363737583160400390625">
        <ele>3475.60009765625</ele>
        <time>2021-06-25T22:53:48.000Z</time>
        <extensions>
          <ns3:TrackPointExtension>
            <ns3:atemp>29.0</ns3:atemp>
            <ns3:hr>101</ns3:hr>
          </ns3:TrackPointExtension>
        </extensions>
      </trkpt>
      <trkpt lat="36.7935791797935962677001953125" lon="-118.4093579091131687164306640625">
        <ele>3474.800048828125</ele>
        <time>2021-06-25T22:53:55.000Z</time>
        <extensions>
          <ns3:TrackPointExtension>
            <ns3:atemp>29.0</ns3:atemp>
            <ns3:hr>99</ns3:hr>
          </ns3:TrackPointExtension>
        </extensions>
      </trkpt>
      <trkpt lat="36.7935922555625438690185546875" lon="-118.40935950167477130889892578125">
        <ele>3474.800048828125</ele>
        <time>2021-06-25T22:53:56.000Z</time>
        <extensions>
          <ns3:TrackPointExtension>
            <ns3:atemp>29.0</ns3:atemp>
            <ns3:hr>98</ns3:hr>
          </ns3:TrackPointExtension>
        </extensions>
      </trkpt>
      <trkpt lat="36.7936291359364986419677734375" lon="-118.409343324601650238037109375">
        <ele>3474.60009765625</ele>
        <time>2021-06-25T22:54:00.000Z</time>
        <extensions>
          <ns3:TrackPointExtension>
            <ns3:atemp>29.0</ns3:atemp>
            <ns3:hr>97</ns3:hr>
          </ns3:TrackPointExtension>
        </extensions>
      </trkpt>
      <trkpt lat="36.793647073209285736083984375" lon="-118.40933854691684246063232421875">
        <ele>3473.60009765625</ele>
        <time>2021-06-25T22:54:02.000Z</time>
        <extensions>
          <ns3:TrackPointExtension>
            <ns3:atemp>29.0</ns3:atemp>
            <ns3:hr>97</ns3:hr>
          </ns3:TrackPointExtension>
        </extensions>
      </trkpt>
      <trkpt lat="36.793655119836330413818359375" lon="-118.40933435596525669097900390625">
        <ele>3473.39990234375</ele>
        <time>2021-06-25T22:54:03.000Z</time>
        <extensions>
          <ns3:TrackPointExtension>
            <ns3:atemp>29.0</ns3:atemp>
            <ns3:hr>96</ns3:hr>
          </ns3:TrackPointExtension>
        </extensions>
      </trkpt>
      <trkpt lat="36.7936809360980987548828125" lon="-118.40931725688278675079345703125">
        <ele>3472.39990234375</ele>
        <time>2021-06-25T22:54:06.000Z</time>
        <extensions>
          <ns3:TrackPointExtension>
            <ns3:atemp>29.0</ns3:atemp>
            <ns3:hr>96</ns3:hr>
          </ns3:TrackPointExtension>
        </extensions>
      </trkpt>
      <trkpt lat="36.793716810643672943115234375" lon="-118.40928071178495883941650390625">
        <ele>3472.39990234375</ele>
        <time>2021-06-25T22:54:12.000Z</time>
        <extensions>
          <ns3:TrackPointExtension>
            <ns3:atemp>29.0</ns3:atemp>
            <ns3:hr>94</ns3:hr>
          </ns3:TrackPointExtension>
        </extensions>
      </trkpt>
      <trkpt lat="36.793755032122135162353515625" lon="-118.4092415682971477508544921875">
        <ele>3471.39990234375</ele>
        <time>2021-06-25T22:54:18.000Z</time>
        <extensions>
          <ns3:TrackPointExtension>
            <ns3:atemp>29.0</ns3:atemp>
            <ns3:hr>95</ns3:hr>
          </ns3:TrackPointExtension>
        </extensions>
      </trkpt>
      <trkpt lat="36.79377607069909572601318359375" lon="-118.40923209674656391143798828125">
        <ele>3471</ele>
        <time>2021-06-25T22:54:21.000Z</time>
        <extensions>
          <ns3:TrackPointExtension>
            <ns3:atemp>29.0</ns3:atemp>
            <ns3:hr>94</ns3:hr>
          </ns3:TrackPointExtension>
        </extensions>
      </trkpt>
      <trkpt lat="36.7938244342803955078125" lon="-118.40921767987310886383056640625">
        <ele>3470.39990234375</ele>
        <time>2021-06-25T22:54:27.000Z</time>
        <extensions>
          <ns3:TrackPointExtension>
            <ns3:atemp>29.0</ns3:atemp>
            <ns3:hr>96</ns3:hr>
          </ns3:TrackPointExtension>
        </extensions>
      </trkpt>
      <trkpt lat="36.7938418686389923095703125" lon="-118.4092243015766143798828125">
        <ele>3470.199951171875</ele>
        <time>2021-06-25T22:54:29.000Z</time>
        <extensions>
          <ns3:TrackPointExtension>
            <ns3:atemp>29.0</ns3:atemp>
            <ns3:hr>97</ns3:hr>
          </ns3:TrackPointExtension>
        </extensions>
      </trkpt>
      <trkpt lat="36.79389677010476589202880859375" lon="-118.40922455303370952606201171875">
        <ele>3469.39990234375</ele>
        <time>2021-06-25T22:54:36.000Z</time>
        <extensions>
          <ns3:TrackPointExtension>
            <ns3:atemp>29.0</ns3:atemp>
            <ns3:hr>96</ns3:hr>
          </ns3:TrackPointExtension>
        </extensions>
      </trkpt>
      <trkpt lat="36.79392945952713489532470703125" lon="-118.40922203846275806427001953125">
        <ele>3468.199951171875</ele>
        <time>2021-06-25T22:54:41.000Z</time>
        <extensions>
          <ns3:TrackPointExtension>
            <ns3:atemp>29.0</ns3:atemp>
            <ns3:hr>94</ns3:hr>
          </ns3:TrackPointExtension>
        </extensions>
      </trkpt>
      <trkpt lat="36.7939362488687038421630859375" lon="-118.4092174284160137176513671875">
        <ele>3467.800048828125</ele>
        <time>2021-06-25T22:54:42.000Z</time>
        <extensions>
          <ns3:TrackPointExtension>
            <ns3:atemp>29.0</ns3:atemp>
            <ns3:hr>92</ns3:hr>
          </ns3:TrackPointExtension>
        </extensions>
      </trkpt>
      <trkpt lat="36.79396499879658222198486328125" lon="-118.40921013616025447845458984375">
        <ele>3467</ele>
        <time>2021-06-25T22:54:46.000Z</time>
        <extensions>
          <ns3:TrackPointExtension>
            <ns3:atemp>29.0</ns3:atemp>
            <ns3:hr>89</ns3:hr>
          </ns3:TrackPointExtension>
        </extensions>
      </trkpt>
      <trkpt lat="36.79399081505835056304931640625" lon="-118.40919471345841884613037109375">
        <ele>3467</ele>
        <time>2021-06-25T22:54:49.000Z</time>
        <extensions>
          <ns3:TrackPointExtension>
            <ns3:atemp>29.0</ns3:atemp>
            <ns3:hr>86</ns3:hr>
          </ns3:TrackPointExtension>
        </extensions>
      </trkpt>
      <trkpt lat="36.79399944841861724853515625" lon="-118.40918582864105701446533203125">
        <ele>3467</ele>
        <time>2021-06-25T22:54:50.000Z</time>
        <extensions>
          <ns3:TrackPointExtension>
            <ns3:atemp>29.0</ns3:atemp>
            <ns3:hr>85</ns3:hr>
          </ns3:TrackPointExtension>
        </extensions>
      </trkpt>
      <trkpt lat="36.7940234206616878509521484375" lon="-118.4091617725789546966552734375">
        <ele>3466.199951171875</ele>
        <time>2021-06-25T22:54:54.000Z</time>
        <extensions>
          <ns3:TrackPointExtension>
            <ns3:atemp>29.0</ns3:atemp>
            <ns3:hr>82</ns3:hr>
          </ns3:TrackPointExtension>
        </extensions>
      </trkpt>
      <trkpt lat="36.794040016829967498779296875" lon="-118.40915364213287830352783203125">
        <ele>3465.60009765625</ele>
        <time>2021-06-25T22:54:57.000Z</time>
        <extensions>
          <ns3:TrackPointExtension>
            <ns3:atemp>29.0</ns3:atemp>
            <ns3:hr>82</ns3:hr>
          </ns3:TrackPointExtension>
        </extensions>
      </trkpt>
      <trkpt lat="36.7940529249608516693115234375" lon="-118.409151546657085418701171875">
        <ele>3465.60009765625</ele>
        <time>2021-06-25T22:54:59.000Z</time>
        <extensions>
          <ns3:TrackPointExtension>
            <ns3:atemp>29.0</ns3:atemp>
            <ns3:hr>82</ns3:hr>
          </ns3:TrackPointExtension>
        </extensions>
      </trkpt>
      <trkpt lat="36.79408066906034946441650390625" lon="-118.4091466851532459259033203125">
        <ele>3464.60009765625</ele>
        <time>2021-06-25T22:55:04.000Z</time>
        <extensions>
          <ns3:TrackPointExtension>
            <ns3:atemp>29.0</ns3:atemp>
            <ns3:hr>81</ns3:hr>
          </ns3:TrackPointExtension>
        </extensions>
      </trkpt>
      <trkpt lat="36.7940867878496646881103515625" lon="-118.4091466851532459259033203125">
        <ele>3464.199951171875</ele>
        <time>2021-06-25T22:55:05.000Z</time>
        <extensions>
          <ns3:TrackPointExtension>
            <ns3:atemp>29.0</ns3:atemp>
            <ns3:hr>81</ns3:hr>
          </ns3:TrackPointExtension>
        </extensions>
      </trkpt>
      <trkpt lat="36.7941162921488285064697265625" lon="-118.40915431268513202667236328125">
        <ele>3463.800048828125</ele>
        <time>2021-06-25T22:55:09.000Z</time>
        <extensions>
          <ns3:TrackPointExtension>
            <ns3:atemp>29.0</ns3:atemp>
            <ns3:hr>82</ns3:hr>
          </ns3:TrackPointExtension>
        </extensions>
      </trkpt>
      <trkpt lat="36.7941342294216156005859375" lon="-118.4091540612280368804931640625">
        <ele>3463.60009765625</ele>
        <time>2021-06-25T22:55:11.000Z</time>
        <extensions>
          <ns3:TrackPointExtension>
            <ns3:atemp>29.0</ns3:atemp>
            <ns3:hr>80</ns3:hr>
          </ns3:TrackPointExtension>
        </extensions>
      </trkpt>
      <trkpt lat="36.79414319805800914764404296875" lon="-118.40915565378963947296142578125">
        <ele>3463.60009765625</ele>
        <time>2021-06-25T22:55:12.000Z</time>
        <extensions>
          <ns3:TrackPointExtension>
            <ns3:atemp>29.0</ns3:atemp>
            <ns3:hr>80</ns3:hr>
          </ns3:TrackPointExtension>
        </extensions>
      </trkpt>
      <trkpt lat="36.79415258578956127166748046875" lon="-118.40915867127478122711181640625">
        <ele>3462.800048828125</ele>
        <time>2021-06-25T22:55:13.000Z</time>
        <extensions>
          <ns3:TrackPointExtension>
            <ns3:atemp>29.0</ns3:atemp>
            <ns3:hr>79</ns3:hr>
          </ns3:TrackPointExtension>
        </extensions>
      </trkpt>
      <trkpt lat="36.79415912367403507232666015625" lon="-118.40916403569281101226806640625">
        <ele>3462.60009765625</ele>
        <time>2021-06-25T22:55:14.000Z</time>
        <extensions>
          <ns3:TrackPointExtension>
            <ns3:atemp>29.0</ns3:atemp>
            <ns3:hr>80</ns3:hr>
          </ns3:TrackPointExtension>
        </extensions>
      </trkpt>
      <trkpt lat="36.79421930573880672454833984375" lon="-118.40920795686542987823486328125">
        <ele>3461.800048828125</ele>
        <time>2021-06-25T22:55:21.000Z</time>
        <extensions>
          <ns3:TrackPointExtension>
            <ns3:atemp>29.0</ns3:atemp>
            <ns3:hr>77</ns3:hr>
          </ns3:TrackPointExtension>
        </extensions>
      </trkpt>
      <trkpt lat="36.7942473851144313812255859375" lon="-118.40920695103704929351806640625">
        <ele>3461.60009765625</ele>
        <time>2021-06-25T22:55:24.000Z</time>
        <extensions>
          <ns3:TrackPointExtension>
            <ns3:atemp>29.0</ns3:atemp>
            <ns3:hr>80</ns3:hr>
          </ns3:TrackPointExtension>
        </extensions>
      </trkpt>
      <trkpt lat="36.7942745424807071685791015625" lon="-118.4092003293335437774658203125">
        <ele>3461.39990234375</ele>
        <time>2021-06-25T22:55:27.000Z</time>
        <extensions>
          <ns3:TrackPointExtension>
            <ns3:atemp>29.0</ns3:atemp>
            <ns3:hr>80</ns3:hr>
          </ns3:TrackPointExtension>
        </extensions>
      </trkpt>
      <trkpt lat="36.79428719915449619293212890625" lon="-118.4091855771839618682861328125">
        <ele>3460.60009765625</ele>
        <time>2021-06-25T22:55:29.000Z</time>
        <extensions>
          <ns3:TrackPointExtension>
            <ns3:atemp>29.0</ns3:atemp>
            <ns3:hr>80</ns3:hr>
          </ns3:TrackPointExtension>
        </extensions>
      </trkpt>
      <trkpt lat="36.79430681280791759490966796875" lon="-118.40916152112185955047607421875">
        <ele>3460</ele>
        <time>2021-06-25T22:55:33.000Z</time>
        <extensions>
          <ns3:TrackPointExtension>
            <ns3:atemp>29.0</ns3:atemp>
            <ns3:hr>82</ns3:hr>
          </ns3:TrackPointExtension>
        </extensions>
      </trkpt>
      <trkpt lat="36.79432877339422702789306640625" lon="-118.40917342342436313629150390625">
        <ele>3459.39990234375</ele>
        <time>2021-06-25T22:55:36.000Z</time>
        <extensions>
          <ns3:TrackPointExtension>
            <ns3:atemp>29.0</ns3:atemp>
            <ns3:hr>83</ns3:hr>
          </ns3:TrackPointExtension>
        </extensions>
      </trkpt>
      <trkpt lat="36.7943546734750270843505859375" lon="-118.40917945839464664459228515625">
        <ele>3458.800048828125</ele>
        <time>2021-06-25T22:55:39.000Z</time>
        <extensions>
          <ns3:TrackPointExtension>
            <ns3:atemp>29.0</ns3:atemp>
            <ns3:hr>82</ns3:hr>
          </ns3:TrackPointExtension>
        </extensions>
      </trkpt>
      <trkpt lat="36.794370599091053009033203125" lon="-118.4091383032500743865966796875">
        <ele>3458.39990234375</ele>
        <time>2021-06-25T22:55:43.000Z</time>
        <extensions>
          <ns3:TrackPointExtension>
            <ns3:atemp>29.0</ns3:atemp>
            <ns3:hr>81</ns3:hr>
          </ns3:TrackPointExtension>
        </extensions>
      </trkpt>
      <trkpt lat="36.794376634061336517333984375" lon="-118.40912975370883941650390625">
        <ele>3457.800048828125</ele>
        <time>2021-06-25T22:55:44.000Z</time>
        <extensions>
          <ns3:TrackPointExtension>
            <ns3:atemp>29.0</ns3:atemp>
            <ns3:hr>82</ns3:hr>
          </ns3:TrackPointExtension>
        </extensions>
      </trkpt>
      <trkpt lat="36.7944394983351230621337890625" lon="-118.40910921804606914520263671875">
        <ele>3457.800048828125</ele>
        <time>2021-06-25T22:55:51.000Z</time>
        <extensions>
          <ns3:TrackPointExtension>
            <ns3:atemp>29.0</ns3:atemp>
            <ns3:hr>82</ns3:hr>
          </ns3:TrackPointExtension>
        </extensions>
      </trkpt>
      <trkpt lat="36.794461123645305633544921875" lon="-118.4090953879058361053466796875">
        <ele>3457.800048828125</ele>
        <time>2021-06-25T22:55:55.000Z</time>
        <extensions>
          <ns3:TrackPointExtension>
            <ns3:atemp>29.0</ns3:atemp>
            <ns3:hr>81</ns3:hr>
          </ns3:TrackPointExtension>
        </extensions>
      </trkpt>
      <trkpt lat="36.79446724243462085723876953125" lon="-118.40909354388713836669921875">
        <ele>3457.800048828125</ele>
        <time>2021-06-25T22:55:57.000Z</time>
        <extensions>
          <ns3:TrackPointExtension>
            <ns3:atemp>29.0</ns3:atemp>
            <ns3:hr>80</ns3:hr>
          </ns3:TrackPointExtension>
        </extensions>
      </trkpt>
      <trkpt lat="36.79446958936750888824462890625" lon="-118.40909262187778949737548828125">
        <ele>3457.39990234375</ele>
        <time>2021-06-25T22:55:58.000Z</time>
        <extensions>
          <ns3:TrackPointExtension>
            <ns3:atemp>29.0</ns3:atemp>
            <ns3:hr>80</ns3:hr>
          </ns3:TrackPointExtension>
        </extensions>
      </trkpt>
      <trkpt lat="36.794492639601230621337890625" lon="-118.40909396298229694366455078125">
        <ele>3458.39990234375</ele>
        <time>2021-06-25T22:56:08.000Z</time>
        <extensions>
          <ns3:TrackPointExtension>
            <ns3:atemp>29.0</ns3:atemp>
            <ns3:hr>79</ns3:hr>
          </ns3:TrackPointExtension>
        </extensions>
      </trkpt>
      <trkpt lat="36.79450714029371738433837890625" lon="-118.40906714089214801788330078125">
        <ele>3458.800048828125</ele>
        <time>2021-06-25T22:56:13.000Z</time>
        <extensions>
          <ns3:TrackPointExtension>
            <ns3:atemp>29.0</ns3:atemp>
            <ns3:hr>81</ns3:hr>
          </ns3:TrackPointExtension>
        </extensions>
      </trkpt>
      <trkpt lat="36.79451233707368373870849609375" lon="-118.40905959717929363250732421875">
        <ele>3458.800048828125</ele>
        <time>2021-06-25T22:56:14.000Z</time>
        <extensions>
          <ns3:TrackPointExtension>
            <ns3:atemp>29.0</ns3:atemp>
            <ns3:hr>82</ns3:hr>
          </ns3:TrackPointExtension>
        </extensions>
      </trkpt>
      <trkpt lat="36.7945219762623310089111328125" lon="-118.4090447612106800079345703125">
        <ele>3459.60009765625</ele>
        <time>2021-06-25T22:56:16.000Z</time>
        <extensions>
          <ns3:TrackPointExtension>
            <ns3:atemp>30.0</ns3:atemp>
            <ns3:hr>85</ns3:hr>
          </ns3:TrackPointExtension>
        </extensions>
      </trkpt>
      <trkpt lat="36.7945330403745174407958984375" lon="-118.40903093107044696807861328125">
        <ele>3459.800048828125</ele>
        <time>2021-06-25T22:56:18.000Z</time>
        <extensions>
          <ns3:TrackPointExtension>
            <ns3:atemp>30.0</ns3:atemp>
            <ns3:hr>88</ns3:hr>
          </ns3:TrackPointExtension>
        </extensions>
      </trkpt>
      <trkpt lat="36.79457704536616802215576171875" lon="-118.4089844115078449249267578125">
        <ele>3459.199951171875</ele>
        <time>2021-06-25T22:56:24.000Z</time>
        <extensions>
          <ns3:TrackPointExtension>
            <ns3:atemp>30.0</ns3:atemp>
            <ns3:hr>88</ns3:hr>
          </ns3:TrackPointExtension>
        </extensions>
      </trkpt>
      <trkpt lat="36.79462431930005550384521484375" lon="-118.40893889777362346649169921875">
        <ele>3459.199951171875</ele>
        <time>2021-06-25T22:56:30.000Z</time>
        <extensions>
          <ns3:TrackPointExtension>
            <ns3:atemp>29.0</ns3:atemp>
            <ns3:hr>91</ns3:hr>
          </ns3:TrackPointExtension>
        </extensions>
      </trkpt>
      <trkpt lat="36.79464946500957012176513671875" lon="-118.40892096050083637237548828125">
        <ele>3459.39990234375</ele>
        <time>2021-06-25T22:56:33.000Z</time>
        <extensions>
          <ns3:TrackPointExtension>
            <ns3:atemp>29.0</ns3:atemp>
            <ns3:hr>91</ns3:hr>
          </ns3:TrackPointExtension>
        </extensions>
      </trkpt>
      <trkpt lat="36.79469707421958446502685546875" lon="-118.40888542123138904571533203125">
        <ele>3457.800048828125</ele>
        <time>2021-06-25T22:56:39.000Z</time>
        <extensions>
          <ns3:TrackPointExtension>
            <ns3:atemp>29.0</ns3:atemp>
            <ns3:hr>91</ns3:hr>
          </ns3:TrackPointExtension>
        </extensions>
      </trkpt>
      <trkpt lat="36.7947033606469631195068359375" lon="-118.40887494385242462158203125">
        <ele>3457.60009765625</ele>
        <time>2021-06-25T22:56:40.000Z</time>
        <extensions>
          <ns3:TrackPointExtension>
            <ns3:atemp>29.0</ns3:atemp>
            <ns3:hr>91</ns3:hr>
          </ns3:TrackPointExtension>
        </extensions>
      </trkpt>
      <trkpt lat="36.79470889270305633544921875" lon="-118.4088647179305553436279296875">
        <ele>3456.800048828125</ele>
        <time>2021-06-25T22:56:41.000Z</time>
        <extensions>
          <ns3:TrackPointExtension>
            <ns3:atemp>29.0</ns3:atemp>
            <ns3:hr>91</ns3:hr>
          </ns3:TrackPointExtension>
        </extensions>
      </trkpt>
      <trkpt lat="36.7947134189307689666748046875" lon="-118.40885457582771778106689453125">
        <ele>3456.60009765625</ele>
        <time>2021-06-25T22:56:42.000Z</time>
        <extensions>
          <ns3:TrackPointExtension>
            <ns3:atemp>29.0</ns3:atemp>
            <ns3:hr>90</ns3:hr>
          </ns3:TrackPointExtension>
        </extensions>
      </trkpt>
      <trkpt lat="36.79473630152642726898193359375" lon="-118.4088214673101902008056640625">
        <ele>3456.60009765625</ele>
        <time>2021-06-25T22:56:46.000Z</time>
        <extensions>
          <ns3:TrackPointExtension>
            <ns3:atemp>29.0</ns3:atemp>
            <ns3:hr>87</ns3:hr>
          </ns3:TrackPointExtension>
        </extensions>
      </trkpt>
      <trkpt lat="36.7947704158723354339599609375" lon="-118.4088033623993396759033203125">
        <ele>3456.60009765625</ele>
        <time>2021-06-25T22:56:50.000Z</time>
        <extensions>
          <ns3:TrackPointExtension>
            <ns3:atemp>29.0</ns3:atemp>
            <ns3:hr>87</ns3:hr>
          </ns3:TrackPointExtension>
        </extensions>
      </trkpt>
      <trkpt lat="36.79479338228702545166015625" lon="-118.40877972543239593505859375">
        <ele>3455.60009765625</ele>
        <time>2021-06-25T22:56:53.000Z</time>
        <extensions>
          <ns3:TrackPointExtension>
            <ns3:atemp>29.0</ns3:atemp>
            <ns3:hr>86</ns3:hr>
          </ns3:TrackPointExtension>
        </extensions>
      </trkpt>
      <trkpt lat="36.79479715414345264434814453125" lon="-118.40877276845276355743408203125">
        <ele>3455.60009765625</ele>
        <time>2021-06-25T22:56:54.000Z</time>
        <extensions>
          <ns3:TrackPointExtension>
            <ns3:atemp>29.0</ns3:atemp>
            <ns3:hr>83</ns3:hr>
          </ns3:TrackPointExtension>
        </extensions>
      </trkpt>
      <trkpt lat="36.79482649080455303192138671875" lon="-118.40874544344842433929443359375">
        <ele>3454.60009765625</ele>
        <time>2021-06-25T22:56:59.000Z</time>
        <extensions>
          <ns3:TrackPointExtension>
            <ns3:atemp>29.0</ns3:atemp>
            <ns3:hr>85</ns3:hr>
          </ns3:TrackPointExtension>
        </extensions>
      </trkpt>
      <trkpt lat="36.794852055609226226806640625" lon="-118.408725075423717498779296875">
        <ele>3454.39990234375</ele>
        <time>2021-06-25T22:57:02.000Z</time>
        <extensions>
          <ns3:TrackPointExtension>
            <ns3:atemp>29.0</ns3:atemp>
            <ns3:hr>89</ns3:hr>
          </ns3:TrackPointExtension>
        </extensions>
      </trkpt>
      <trkpt lat="36.794857084751129150390625" lon="-118.40871342457830905914306640625">
        <ele>3454.39990234375</ele>
        <time>2021-06-25T22:57:03.000Z</time>
        <extensions>
          <ns3:TrackPointExtension>
            <ns3:atemp>29.0</ns3:atemp>
            <ns3:hr>86</ns3:hr>
          </ns3:TrackPointExtension>
        </extensions>
      </trkpt>
      <trkpt lat="36.7948713339865207672119140625" lon="-118.4086843393743038177490234375">
        <ele>3454.39990234375</ele>
        <time>2021-06-25T22:57:06.000Z</time>
        <extensions>
          <ns3:TrackPointExtension>
            <ns3:atemp>29.0</ns3:atemp>
            <ns3:hr>88</ns3:hr>
          </ns3:TrackPointExtension>
        </extensions>
      </trkpt>
      <trkpt lat="36.79487896151840686798095703125" lon="-118.4086591936647891998291015625">
        <ele>3454.199951171875</ele>
        <time>2021-06-25T22:57:08.000Z</time>
        <extensions>
          <ns3:TrackPointExtension>
            <ns3:atemp>29.0</ns3:atemp>
            <ns3:hr>89</ns3:hr>
          </ns3:TrackPointExtension>
        </extensions>
      </trkpt>
      <trkpt lat="36.7949048615992069244384765625" lon="-118.4086273424327373504638671875">
        <ele>3454</ele>
        <time>2021-06-25T22:57:12.000Z</time>
        <extensions>
          <ns3:TrackPointExtension>
            <ns3:atemp>29.0</ns3:atemp>
            <ns3:hr>92</ns3:hr>
          </ns3:TrackPointExtension>
        </extensions>
      </trkpt>
      <trkpt lat="36.79492791183292865753173828125" lon="-118.4085975028574466705322265625">
        <ele>3453.800048828125</ele>
        <time>2021-06-25T22:57:16.000Z</time>
        <extensions>
          <ns3:TrackPointExtension>
            <ns3:atemp>28.0</ns3:atemp>
            <ns3:hr>92</ns3:hr>
          </ns3:TrackPointExtension>
        </extensions>
      </trkpt>
      <trkpt lat="36.794959008693695068359375" lon="-118.40849432162940502166748046875">
        <ele>3453.60009765625</ele>
        <time>2021-06-25T22:57:25.000Z</time>
        <extensions>
          <ns3:TrackPointExtension>
            <ns3:atemp>28.0</ns3:atemp>
            <ns3:hr>90</ns3:hr>
          </ns3:TrackPointExtension>
        </extensions>
      </trkpt>
      <trkpt lat="36.79496143944561481475830078125" lon="-118.40848493389785289764404296875">
        <ele>3453.60009765625</ele>
        <time>2021-06-25T22:57:26.000Z</time>
        <extensions>
          <ns3:TrackPointExtension>
            <ns3:atemp>28.0</ns3:atemp>
            <ns3:hr>90</ns3:hr>
          </ns3:TrackPointExtension>
        </extensions>
      </trkpt>
      <trkpt lat="36.79497116245329380035400390625" lon="-118.40844520367681980133056640625">
        <ele>3453.800048828125</ele>
        <time>2021-06-25T22:57:31.000Z</time>
        <extensions>
          <ns3:TrackPointExtension>
            <ns3:atemp>28.0</ns3:atemp>
            <ns3:hr>87</ns3:hr>
          </ns3:TrackPointExtension>
        </extensions>
      </trkpt>
      <trkpt lat="36.79497585631906986236572265625" lon="-118.4084357321262359619140625">
        <ele>3454</ele>
        <time>2021-06-25T22:57:32.000Z</time>
        <extensions>
          <ns3:TrackPointExtension>
            <ns3:atemp>28.0</ns3:atemp>
            <ns3:hr>88</ns3:hr>
          </ns3:TrackPointExtension>
        </extensions>
      </trkpt>
      <trkpt lat="36.79498541168868541717529296875" lon="-118.408426344394683837890625">
        <ele>3454.199951171875</ele>
        <time>2021-06-25T22:57:36.000Z</time>
        <extensions>
          <ns3:TrackPointExtension>
            <ns3:atemp>28.0</ns3:atemp>
            <ns3:hr>88</ns3:hr>
          </ns3:TrackPointExtension>
        </extensions>
      </trkpt>
      <trkpt lat="36.79498792625963687896728515625" lon="-118.40842835605144500732421875">
        <ele>3454.199951171875</ele>
        <time>2021-06-25T22:57:38.000Z</time>
        <extensions>
          <ns3:TrackPointExtension>
            <ns3:atemp>28.0</ns3:atemp>
            <ns3:hr>88</ns3:hr>
          </ns3:TrackPointExtension>
        </extensions>
      </trkpt>
      <trkpt lat="36.79500435478985309600830078125" lon="-118.40837630443274974822998046875">
        <ele>3454</ele>
        <time>2021-06-25T22:57:44.000Z</time>
        <extensions>
          <ns3:TrackPointExtension>
            <ns3:atemp>28.0</ns3:atemp>
            <ns3:hr>92</ns3:hr>
          </ns3:TrackPointExtension>
        </extensions>
      </trkpt>
      <trkpt lat="36.795004941523075103759765625" lon="-118.40836775489151477813720703125">
        <ele>3454</ele>
        <time>2021-06-25T22:57:45.000Z</time>
        <extensions>
          <ns3:TrackPointExtension>
            <ns3:atemp>28.0</ns3:atemp>
            <ns3:hr>91</ns3:hr>
          </ns3:TrackPointExtension>
        </extensions>
      </trkpt>
      <trkpt lat="36.79499982856214046478271484375" lon="-118.40836809016764163970947265625">
        <ele>3454</ele>
        <time>2021-06-25T22:57:50.000Z</time>
        <extensions>
          <ns3:TrackPointExtension>
            <ns3:atemp>28.0</ns3:atemp>
            <ns3:hr>88</ns3:hr>
          </ns3:TrackPointExtension>
        </extensions>
      </trkpt>
      <trkpt lat="36.794998906552791595458984375" lon="-118.40837202966213226318359375">
        <ele>3454</ele>
        <time>2021-06-25T22:57:53.000Z</time>
        <extensions>
          <ns3:TrackPointExtension>
            <ns3:atemp>28.0</ns3:atemp>
            <ns3:hr>88</ns3:hr>
          </ns3:TrackPointExtension>
        </extensions>
      </trkpt>
      <trkpt lat="36.794998236000537872314453125" lon="-118.408373035490512847900390625">
        <ele>3453.800048828125</ele>
        <time>2021-06-25T22:58:01.000Z</time>
        <extensions>
          <ns3:TrackPointExtension>
            <ns3:atemp>28.0</ns3:atemp>
            <ns3:hr>92</ns3:hr>
          </ns3:TrackPointExtension>
        </extensions>
      </trkpt>
      <trkpt lat="36.79501332342624664306640625" lon="-118.40837546624243259429931640625">
        <ele>3453.60009765625</ele>
        <time>2021-06-25T22:58:04.000Z</time>
        <extensions>
          <ns3:TrackPointExtension>
            <ns3:atemp>28.0</ns3:atemp>
            <ns3:hr>95</ns3:hr>
          </ns3:TrackPointExtension>
        </extensions>
      </trkpt>
      <trkpt lat="36.79505364038050174713134765625" lon="-118.4083829261362552642822265625">
        <ele>3453.39990234375</ele>
        <time>2021-06-25T22:58:07.000Z</time>
        <extensions>
          <ns3:TrackPointExtension>
            <ns3:atemp>29.0</ns3:atemp>
            <ns3:hr>101</ns3:hr>
          </ns3:TrackPointExtension>
        </extensions>
      </trkpt>
      <trkpt lat="36.79507811553776264190673828125" lon="-118.40837714262306690216064453125">
        <ele>3452.60009765625</ele>
        <time>2021-06-25T22:58:09.000Z</time>
        <extensions>
          <ns3:TrackPointExtension>
            <ns3:atemp>29.0</ns3:atemp>
            <ns3:hr>104</ns3:hr>
          </ns3:TrackPointExtension>
        </extensions>
      </trkpt>
      <trkpt lat="36.79508968256413936614990234375" lon="-118.40837177820503711700439453125">
        <ele>3452.39990234375</ele>
        <time>2021-06-25T22:58:10.000Z</time>
        <extensions>
          <ns3:TrackPointExtension>
            <ns3:atemp>29.0</ns3:atemp>
            <ns3:hr>109</ns3:hr>
          </ns3:TrackPointExtension>
        </extensions>
      </trkpt>
      <trkpt lat="36.79510326124727725982666015625" lon="-118.40836725197732448577880859375">
        <ele>3452.199951171875</ele>
        <time>2021-06-25T22:58:11.000Z</time>
        <extensions>
          <ns3:TrackPointExtension>
            <ns3:atemp>29.0</ns3:atemp>
            <ns3:hr>113</ns3:hr>
          </ns3:TrackPointExtension>
        </extensions>
      </trkpt>
      <trkpt lat="36.7951248027384281158447265625" lon="-118.4083606302738189697265625">
        <ele>3451.800048828125</ele>
        <time>2021-06-25T22:58:13.000Z</time>
        <extensions>
          <ns3:TrackPointExtension>
            <ns3:atemp>29.0</ns3:atemp>
            <ns3:hr>116</ns3:hr>
          </ns3:TrackPointExtension>
        </extensions>
      </trkpt>
      <trkpt lat="36.79513695649802684783935546875" lon="-118.40835652314126491546630859375">
        <ele>3451.60009765625</ele>
        <time>2021-06-25T22:58:14.000Z</time>
        <extensions>
          <ns3:TrackPointExtension>
            <ns3:atemp>29.0</ns3:atemp>
            <ns3:hr>109</ns3:hr>
          </ns3:TrackPointExtension>
        </extensions>
      </trkpt>
      <trkpt lat="36.79514500312507152557373046875" lon="-118.40835048817098140716552734375">
        <ele>3451.39990234375</ele>
        <time>2021-06-25T22:58:15.000Z</time>
        <extensions>
          <ns3:TrackPointExtension>
            <ns3:atemp>29.0</ns3:atemp>
            <ns3:hr>109</ns3:hr>
          </ns3:TrackPointExtension>
        </extensions>
      </trkpt>
      <trkpt lat="36.79515304975211620330810546875" lon="-118.408342860639095306396484375">
        <ele>3451.39990234375</ele>
        <time>2021-06-25T22:58:16.000Z</time>
        <extensions>
          <ns3:TrackPointExtension>
            <ns3:atemp>29.0</ns3:atemp>
            <ns3:hr>109</ns3:hr>
          </ns3:TrackPointExtension>
        </extensions>
      </trkpt>
      <trkpt lat="36.795165538787841796875" lon="-118.4083289466798305511474609375">
        <ele>3451</ele>
        <time>2021-06-25T22:58:18.000Z</time>
        <extensions>
          <ns3:TrackPointExtension>
            <ns3:atemp>29.0</ns3:atemp>
            <ns3:hr>109</ns3:hr>
          </ns3:TrackPointExtension>
        </extensions>
      </trkpt>
      <trkpt lat="36.79519931785762310028076171875" lon="-118.40830673463642597198486328125">
        <ele>3450</ele>
        <time>2021-06-25T22:58:23.000Z</time>
        <extensions>
          <ns3:TrackPointExtension>
            <ns3:atemp>29.0</ns3:atemp>
            <ns3:hr>107</ns3:hr>
          </ns3:TrackPointExtension>
        </extensions>
      </trkpt>
      <trkpt lat="36.7952173389494419097900390625" lon="-118.4083101712167263031005859375">
        <ele>3448.800048828125</ele>
        <time>2021-06-25T22:58:26.000Z</time>
        <extensions>
          <ns3:TrackPointExtension>
            <ns3:atemp>29.0</ns3:atemp>
            <ns3:hr>106</ns3:hr>
          </ns3:TrackPointExtension>
        </extensions>
      </trkpt>
      <trkpt lat="36.79524944163858890533447265625" lon="-118.408297263085842132568359375">
        <ele>3448.199951171875</ele>
        <time>2021-06-25T22:58:31.000Z</time>
        <extensions>
          <ns3:TrackPointExtension>
            <ns3:atemp>29.0</ns3:atemp>
            <ns3:hr>105</ns3:hr>
          </ns3:TrackPointExtension>
        </extensions>
      </trkpt>
      <trkpt lat="36.79526117630302906036376953125" lon="-118.40830019675195217132568359375">
        <ele>3447.60009765625</ele>
        <time>2021-06-25T22:58:33.000Z</time>
        <extensions>
          <ns3:TrackPointExtension>
            <ns3:atemp>29.0</ns3:atemp>
            <ns3:hr>104</ns3:hr>
          </ns3:TrackPointExtension>
        </extensions>
      </trkpt>
      <trkpt lat="36.79529587738215923309326171875" lon="-118.40829047374427318572998046875">
        <ele>3446.39990234375</ele>
        <time>2021-06-25T22:58:38.000Z</time>
        <extensions>
          <ns3:TrackPointExtension>
            <ns3:atemp>29.0</ns3:atemp>
            <ns3:hr>104</ns3:hr>
          </ns3:TrackPointExtension>
        </extensions>
      </trkpt>
      <trkpt lat="36.7953098751604557037353515625" lon="-118.40828628279268741607666015625">
        <ele>3446.39990234375</ele>
        <time>2021-06-25T22:58:40.000Z</time>
        <extensions>
          <ns3:TrackPointExtension>
            <ns3:atemp>29.0</ns3:atemp>
            <ns3:hr>104</ns3:hr>
          </ns3:TrackPointExtension>
        </extensions>
      </trkpt>
      <trkpt lat="36.7953252978622913360595703125" lon="-118.40827136300504207611083984375">
        <ele>3445.39990234375</ele>
        <time>2021-06-25T22:58:42.000Z</time>
        <extensions>
          <ns3:TrackPointExtension>
            <ns3:atemp>29.0</ns3:atemp>
            <ns3:hr>104</ns3:hr>
          </ns3:TrackPointExtension>
        </extensions>
      </trkpt>
      <trkpt lat="36.795356310904026031494140625" lon="-118.408250994980335235595703125">
        <ele>3445</ele>
        <time>2021-06-25T22:58:46.000Z</time>
        <extensions>
          <ns3:TrackPointExtension>
            <ns3:atemp>29.0</ns3:atemp>
            <ns3:hr>101</ns3:hr>
          </ns3:TrackPointExtension>
        </extensions>
      </trkpt>
      <trkpt lat="36.79539076052606105804443359375" lon="-118.40823498554527759552001953125">
        <ele>3444.60009765625</ele>
        <time>2021-06-25T22:58:50.000Z</time>
        <extensions>
          <ns3:TrackPointExtension>
            <ns3:atemp>29.0</ns3:atemp>
            <ns3:hr>101</ns3:hr>
          </ns3:TrackPointExtension>
        </extensions>
      </trkpt>
      <trkpt lat="36.79539830423891544342041015625" lon="-118.408224172890186309814453125">
        <ele>3444</ele>
        <time>2021-06-25T22:58:51.000Z</time>
        <extensions>
          <ns3:TrackPointExtension>
            <ns3:atemp>29.0</ns3:atemp>
            <ns3:hr>100</ns3:hr>
          </ns3:TrackPointExtension>
        </extensions>
      </trkpt>
      <trkpt lat="36.79544381797313690185546875" lon="-118.4081592969596385955810546875">
        <ele>3443</ele>
        <time>2021-06-25T22:58:58.000Z</time>
        <extensions>
          <ns3:TrackPointExtension>
            <ns3:atemp>29.0</ns3:atemp>
            <ns3:hr>98</ns3:hr>
          </ns3:TrackPointExtension>
        </extensions>
      </trkpt>
      <trkpt lat="36.79544926621019840240478515625" lon="-118.408146388828754425048828125">
        <ele>3442.800048828125</ele>
        <time>2021-06-25T22:58:59.000Z</time>
        <extensions>
          <ns3:TrackPointExtension>
            <ns3:atemp>29.0</ns3:atemp>
            <ns3:hr>97</ns3:hr>
          </ns3:TrackPointExtension>
        </extensions>
      </trkpt>
      <trkpt lat="36.7954838834702968597412109375" lon="-118.40807405300438404083251953125">
        <ele>3442.39990234375</ele>
        <time>2021-06-25T22:59:06.000Z</time>
        <extensions>
          <ns3:TrackPointExtension>
            <ns3:atemp>29.0</ns3:atemp>
            <ns3:hr>97</ns3:hr>
          </ns3:TrackPointExtension>
        </extensions>
      </trkpt>
      <trkpt lat="36.7955133877694606781005859375" lon="-118.40803700499236583709716796875">
        <ele>3441.800048828125</ele>
        <time>2021-06-25T22:59:10.000Z</time>
        <extensions>
          <ns3:TrackPointExtension>
            <ns3:atemp>29.0</ns3:atemp>
            <ns3:hr>97</ns3:hr>
          </ns3:TrackPointExtension>
        </extensions>
      </trkpt>
      <trkpt lat="36.79552939720451831817626953125" lon="-118.40798973105847835540771484375">
        <ele>3441.39990234375</ele>
        <time>2021-06-25T22:59:14.000Z</time>
        <extensions>
          <ns3:TrackPointExtension>
            <ns3:atemp>29.0</ns3:atemp>
            <ns3:hr>98</ns3:hr>
          </ns3:TrackPointExtension>
        </extensions>
      </trkpt>
      <trkpt lat="36.79553140886127948760986328125" lon="-118.40796659700572490692138671875">
        <ele>3440.800048828125</ele>
        <time>2021-06-25T22:59:17.000Z</time>
        <extensions>
          <ns3:TrackPointExtension>
            <ns3:atemp>29.0</ns3:atemp>
            <ns3:hr>93</ns3:hr>
          </ns3:TrackPointExtension>
        </extensions>
      </trkpt>
      <trkpt lat="36.79553090594708919525146484375" lon="-118.4079645015299320220947265625">
        <ele>3441</ele>
        <time>2021-06-25T22:59:18.000Z</time>
        <extensions>
          <ns3:TrackPointExtension>
            <ns3:atemp>29.0</ns3:atemp>
            <ns3:hr>93</ns3:hr>
          </ns3:TrackPointExtension>
        </extensions>
      </trkpt>
      <trkpt lat="36.795540712773799896240234375" lon="-118.407963998615741729736328125">
        <ele>3440.60009765625</ele>
        <time>2021-06-25T22:59:20.000Z</time>
        <extensions>
          <ns3:TrackPointExtension>
            <ns3:atemp>29.0</ns3:atemp>
            <ns3:hr>94</ns3:hr>
          </ns3:TrackPointExtension>
        </extensions>
      </trkpt>
      <trkpt lat="36.79554448463022708892822265625" lon="-118.4079648368060588836669921875">
        <ele>3440.39990234375</ele>
        <time>2021-06-25T22:59:21.000Z</time>
        <extensions>
          <ns3:TrackPointExtension>
            <ns3:atemp>29.0</ns3:atemp>
            <ns3:hr>95</ns3:hr>
          </ns3:TrackPointExtension>
        </extensions>
      </trkpt>
      <trkpt lat="36.79555772803723812103271484375" lon="-118.40796475298702716827392578125">
        <ele>3440.199951171875</ele>
        <time>2021-06-25T22:59:24.000Z</time>
        <extensions>
          <ns3:TrackPointExtension>
            <ns3:atemp>29.0</ns3:atemp>
            <ns3:hr>95</ns3:hr>
          </ns3:TrackPointExtension>
        </extensions>
      </trkpt>
      <trkpt lat="36.7955613322556018829345703125" lon="-118.407967351377010345458984375">
        <ele>3440</ele>
        <time>2021-06-25T22:59:25.000Z</time>
        <extensions>
          <ns3:TrackPointExtension>
            <ns3:atemp>29.0</ns3:atemp>
            <ns3:hr>94</ns3:hr>
          </ns3:TrackPointExtension>
        </extensions>
      </trkpt>
      <trkpt lat="36.7955754138529300689697265625" lon="-118.40797112323343753814697265625">
        <ele>3439.60009765625</ele>
        <time>2021-06-25T22:59:27.000Z</time>
        <extensions>
          <ns3:TrackPointExtension>
            <ns3:atemp>29.0</ns3:atemp>
            <ns3:hr>95</ns3:hr>
          </ns3:TrackPointExtension>
        </extensions>
      </trkpt>
      <trkpt lat="36.795577593147754669189453125" lon="-118.40793482959270477294921875">
        <ele>3439.39990234375</ele>
        <time>2021-06-25T22:59:31.000Z</time>
        <extensions>
          <ns3:TrackPointExtension>
            <ns3:atemp>29.0</ns3:atemp>
            <ns3:hr>94</ns3:hr>
          </ns3:TrackPointExtension>
        </extensions>
      </trkpt>
      <trkpt lat="36.79557667113840579986572265625" lon="-118.4079153835773468017578125">
        <ele>3438.199951171875</ele>
        <time>2021-06-25T22:59:33.000Z</time>
        <extensions>
          <ns3:TrackPointExtension>
            <ns3:atemp>28.0</ns3:atemp>
            <ns3:hr>95</ns3:hr>
          </ns3:TrackPointExtension>
        </extensions>
      </trkpt>
      <trkpt lat="36.79558002389967441558837890625" lon="-118.4079048223793506622314453125">
        <ele>3438</ele>
        <time>2021-06-25T22:59:34.000Z</time>
        <extensions>
          <ns3:TrackPointExtension>
            <ns3:atemp>28.0</ns3:atemp>
            <ns3:hr>92</ns3:hr>
          </ns3:TrackPointExtension>
        </extensions>
      </trkpt>
      <trkpt lat="36.7955945245921611785888671875" lon="-118.40787204913794994354248046875">
        <ele>3437.199951171875</ele>
        <time>2021-06-25T22:59:39.000Z</time>
        <extensions>
          <ns3:TrackPointExtension>
            <ns3:atemp>28.0</ns3:atemp>
            <ns3:hr>90</ns3:hr>
          </ns3:TrackPointExtension>
        </extensions>
      </trkpt>
      <trkpt lat="36.795601733028888702392578125" lon="-118.40787137858569622039794921875">
        <ele>3437</ele>
        <time>2021-06-25T22:59:40.000Z</time>
        <extensions>
          <ns3:TrackPointExtension>
            <ns3:atemp>28.0</ns3:atemp>
            <ns3:hr>90</ns3:hr>
          </ns3:TrackPointExtension>
        </extensions>
      </trkpt>
      <trkpt lat="36.79560877382755279541015625" lon="-118.40786819346249103546142578125">
        <ele>3437</ele>
        <time>2021-06-25T22:59:41.000Z</time>
        <extensions>
          <ns3:TrackPointExtension>
            <ns3:atemp>28.0</ns3:atemp>
            <ns3:hr>93</ns3:hr>
          </ns3:TrackPointExtension>
        </extensions>
      </trkpt>
      <trkpt lat="36.795618832111358642578125" lon="-118.40786115266382694244384765625">
        <ele>3436.60009765625</ele>
        <time>2021-06-25T22:59:43.000Z</time>
        <extensions>
          <ns3:TrackPointExtension>
            <ns3:atemp>28.0</ns3:atemp>
            <ns3:hr>97</ns3:hr>
          </ns3:TrackPointExtension>
        </extensions>
      </trkpt>
      <trkpt lat="36.79563249461352825164794921875" lon="-118.40786433778703212738037109375">
        <ele>3436</ele>
        <time>2021-06-25T22:59:45.000Z</time>
        <extensions>
          <ns3:TrackPointExtension>
            <ns3:atemp>28.0</ns3:atemp>
            <ns3:hr>98</ns3:hr>
          </ns3:TrackPointExtension>
        </extensions>
      </trkpt>
      <trkpt lat="36.795640625059604644775390625" lon="-118.4078609012067317962646484375">
        <ele>3435.800048828125</ele>
        <time>2021-06-25T22:59:46.000Z</time>
        <extensions>
          <ns3:TrackPointExtension>
            <ns3:atemp>28.0</ns3:atemp>
            <ns3:hr>97</ns3:hr>
          </ns3:TrackPointExtension>
        </extensions>
      </trkpt>
      <trkpt lat="36.79566820152103900909423828125" lon="-118.4078541956841945648193359375">
        <ele>3434.800048828125</ele>
        <time>2021-06-25T22:59:50.000Z</time>
        <extensions>
          <ns3:TrackPointExtension>
            <ns3:atemp>28.0</ns3:atemp>
            <ns3:hr>97</ns3:hr>
          </ns3:TrackPointExtension>
        </extensions>
      </trkpt>
      <trkpt lat="36.79569887928664684295654296875" lon="-118.40784405358135700225830078125">
        <ele>3433.39990234375</ele>
        <time>2021-06-25T22:59:54.000Z</time>
        <extensions>
          <ns3:TrackPointExtension>
            <ns3:atemp>28.0</ns3:atemp>
            <ns3:hr>97</ns3:hr>
          </ns3:TrackPointExtension>
        </extensions>
      </trkpt>
      <trkpt lat="36.79570533335208892822265625" lon="-118.4078132919967174530029296875">
        <ele>3433</ele>
        <time>2021-06-25T22:59:57.000Z</time>
        <extensions>
          <ns3:TrackPointExtension>
            <ns3:atemp>29.0</ns3:atemp>
            <ns3:hr>96</ns3:hr>
          </ns3:TrackPointExtension>
        </extensions>
      </trkpt>
      <trkpt lat="36.79571044631302356719970703125" lon="-118.40778353624045848846435546875">
        <ele>3432.800048828125</ele>
        <time>2021-06-25T23:00:00.000Z</time>
        <extensions>
          <ns3:TrackPointExtension>
            <ns3:atemp>28.0</ns3:atemp>
            <ns3:hr>93</ns3:hr>
          </ns3:TrackPointExtension>
        </extensions>
      </trkpt>
      <trkpt lat="36.79571069777011871337890625" lon="-118.40777431614696979522705078125">
        <ele>3432</ele>
        <time>2021-06-25T23:00:01.000Z</time>
        <extensions>
          <ns3:TrackPointExtension>
            <ns3:atemp>29.0</ns3:atemp>
            <ns3:hr>94</ns3:hr>
          </ns3:TrackPointExtension>
        </extensions>
      </trkpt>
      <trkpt lat="36.79571363143622875213623046875" lon="-118.407766856253147125244140625">
        <ele>3431.800048828125</ele>
        <time>2021-06-25T23:00:02.000Z</time>
        <extensions>
          <ns3:TrackPointExtension>
            <ns3:atemp>28.0</ns3:atemp>
            <ns3:hr>93</ns3:hr>
          </ns3:TrackPointExtension>
        </extensions>
      </trkpt>
      <trkpt lat="36.79572544991970062255859375" lon="-118.40776543132960796356201171875">
        <ele>3431.60009765625</ele>
        <time>2021-06-25T23:00:04.000Z</time>
        <extensions>
          <ns3:TrackPointExtension>
            <ns3:atemp>29.0</ns3:atemp>
            <ns3:hr>92</ns3:hr>
          </ns3:TrackPointExtension>
        </extensions>
      </trkpt>
      <trkpt lat="36.79574263282120227813720703125" lon="-118.40775872580707073211669921875">
        <ele>3431.199951171875</ele>
        <time>2021-06-25T23:00:07.000Z</time>
        <extensions>
          <ns3:TrackPointExtension>
            <ns3:atemp>29.0</ns3:atemp>
            <ns3:hr>89</ns3:hr>
          </ns3:TrackPointExtension>
        </extensions>
      </trkpt>
      <trkpt lat="36.79574782960116863250732421875" lon="-118.4077569656074047088623046875">
        <ele>3431.199951171875</ele>
        <time>2021-06-25T23:00:08.000Z</time>
        <extensions>
          <ns3:TrackPointExtension>
            <ns3:atemp>29.0</ns3:atemp>
            <ns3:hr>89</ns3:hr>
          </ns3:TrackPointExtension>
        </extensions>
      </trkpt>
      <trkpt lat="36.79575587622821331024169921875" lon="-118.40774883516132831573486328125">
        <ele>3430.800048828125</ele>
        <time>2021-06-25T23:00:10.000Z</time>
        <extensions>
          <ns3:TrackPointExtension>
            <ns3:atemp>29.0</ns3:atemp>
            <ns3:hr>87</ns3:hr>
          </ns3:TrackPointExtension>
        </extensions>
      </trkpt>
      <trkpt lat="36.7957574687898159027099609375" lon="-118.40770843438804149627685546875">
        <ele>3429.60009765625</ele>
        <time>2021-06-25T23:00:14.000Z</time>
        <extensions>
          <ns3:TrackPointExtension>
            <ns3:atemp>29.0</ns3:atemp>
            <ns3:hr>87</ns3:hr>
          </ns3:TrackPointExtension>
        </extensions>
      </trkpt>
      <trkpt lat="36.79575537331402301788330078125" lon="-118.4076956100761890411376953125">
        <ele>3429.199951171875</ele>
        <time>2021-06-25T23:00:16.000Z</time>
        <extensions>
          <ns3:TrackPointExtension>
            <ns3:atemp>29.0</ns3:atemp>
            <ns3:hr>87</ns3:hr>
          </ns3:TrackPointExtension>
        </extensions>
      </trkpt>
      <trkpt lat="36.79577582515776157379150390625" lon="-118.4077153913676738739013671875">
        <ele>3428.800048828125</ele>
        <time>2021-06-25T23:00:21.000Z</time>
        <extensions>
          <ns3:TrackPointExtension>
            <ns3:atemp>29.0</ns3:atemp>
            <ns3:hr>87</ns3:hr>
          </ns3:TrackPointExtension>
        </extensions>
      </trkpt>
      <trkpt lat="36.7957933433353900909423828125" lon="-118.4077415429055690765380859375">
        <ele>3428.60009765625</ele>
        <time>2021-06-25T23:00:24.000Z</time>
        <extensions>
          <ns3:TrackPointExtension>
            <ns3:atemp>29.0</ns3:atemp>
            <ns3:hr>87</ns3:hr>
          </ns3:TrackPointExtension>
        </extensions>
      </trkpt>
      <trkpt lat="36.79581471718847751617431640625" lon="-118.4077522717416286468505859375">
        <ele>3428.199951171875</ele>
        <time>2021-06-25T23:00:29.000Z</time>
        <extensions>
          <ns3:TrackPointExtension>
            <ns3:atemp>29.0</ns3:atemp>
            <ns3:hr>87</ns3:hr>
          </ns3:TrackPointExtension>
        </extensions>
      </trkpt>
      <trkpt lat="36.79581672884523868560791015625" lon="-118.4077505953609943389892578125">
        <ele>3428</ele>
        <time>2021-06-25T23:00:37.000Z</time>
        <extensions>
          <ns3:TrackPointExtension>
            <ns3:atemp>29.0</ns3:atemp>
            <ns3:hr>84</ns3:hr>
          </ns3:TrackPointExtension>
        </extensions>
      </trkpt>
      <trkpt lat="36.79581672884523868560791015625" lon="-118.4077505953609943389892578125">
        <ele>3427.800048828125</ele>
        <time>2021-06-25T23:00:40.000Z</time>
        <extensions>
          <ns3:TrackPointExtension>
            <ns3:atemp>29.0</ns3:atemp>
            <ns3:hr>87</ns3:hr>
          </ns3:TrackPointExtension>
        </extensions>
      </trkpt>
      <trkpt lat="36.79581672884523868560791015625" lon="-118.4077505953609943389892578125">
        <ele>3427.39990234375</ele>
        <time>2021-06-25T23:00:43.000Z</time>
        <extensions>
          <ns3:TrackPointExtension>
            <ns3:atemp>29.0</ns3:atemp>
            <ns3:hr>88</ns3:hr>
          </ns3:TrackPointExtension>
        </extensions>
      </trkpt>
      <trkpt lat="36.79583550430834293365478515625" lon="-118.40768362395465373992919921875">
        <ele>3427</ele>
        <time>2021-06-25T23:00:48.000Z</time>
        <extensions>
          <ns3:TrackPointExtension>
            <ns3:atemp>29.0</ns3:atemp>
            <ns3:hr>89</ns3:hr>
          </ns3:TrackPointExtension>
        </extensions>
      </trkpt>
      <trkpt lat="36.79583818651735782623291015625" lon="-118.4076644293963909149169921875">
        <ele>3426.199951171875</ele>
        <time>2021-06-25T23:00:49.000Z</time>
        <extensions>
          <ns3:TrackPointExtension>
            <ns3:atemp>29.0</ns3:atemp>
            <ns3:hr>87</ns3:hr>
          </ns3:TrackPointExtension>
        </extensions>
      </trkpt>
      <trkpt lat="36.7958345822989940643310546875" lon="-118.40760047547519207000732421875">
        <ele>3425.199951171875</ele>
        <time>2021-06-25T23:00:53.000Z</time>
        <extensions>
          <ns3:TrackPointExtension>
            <ns3:atemp>29.0</ns3:atemp>
            <ns3:hr>91</ns3:hr>
          </ns3:TrackPointExtension>
        </extensions>
      </trkpt>
      <trkpt lat="36.7958332411944866180419921875" lon="-118.4075920097529888153076171875">
        <ele>3424.800048828125</ele>
        <time>2021-06-25T23:00:54.000Z</time>
        <extensions>
          <ns3:TrackPointExtension>
            <ns3:atemp>29.0</ns3:atemp>
            <ns3:hr>90</ns3:hr>
          </ns3:TrackPointExtension>
        </extensions>
      </trkpt>
      <trkpt lat="36.79583181627094745635986328125" lon="-118.4075822867453098297119140625">
        <ele>3424.800048828125</ele>
        <time>2021-06-25T23:00:55.000Z</time>
        <extensions>
          <ns3:TrackPointExtension>
            <ns3:atemp>29.0</ns3:atemp>
            <ns3:hr>86</ns3:hr>
          </ns3:TrackPointExtension>
        </extensions>
      </trkpt>
      <trkpt lat="36.7958583869040012359619140625" lon="-118.40758706443011760711669921875">
        <ele>3424.60009765625</ele>
        <time>2021-06-25T23:00:59.000Z</time>
        <extensions>
          <ns3:TrackPointExtension>
            <ns3:atemp>29.0</ns3:atemp>
            <ns3:hr>89</ns3:hr>
          </ns3:TrackPointExtension>
        </extensions>
      </trkpt>
      <trkpt lat="36.7958724685013294219970703125" lon="-118.40759896673262119293212890625">
        <ele>3424.60009765625</ele>
        <time>2021-06-25T23:01:01.000Z</time>
        <extensions>
          <ns3:TrackPointExtension>
            <ns3:atemp>29.0</ns3:atemp>
            <ns3:hr>86</ns3:hr>
          </ns3:TrackPointExtension>
        </extensions>
      </trkpt>
      <trkpt lat="36.79589518345892429351806640625" lon="-118.407585136592388153076171875">
        <ele>3423.800048828125</ele>
        <time>2021-06-25T23:01:05.000Z</time>
        <extensions>
          <ns3:TrackPointExtension>
            <ns3:atemp>28.0</ns3:atemp>
            <ns3:hr>86</ns3:hr>
          </ns3:TrackPointExtension>
        </extensions>
      </trkpt>
      <trkpt lat="36.7958935908973217010498046875" lon="-118.40757164172828197479248046875">
        <ele>3423.39990234375</ele>
        <time>2021-06-25T23:01:06.000Z</time>
        <extensions>
          <ns3:TrackPointExtension>
            <ns3:atemp>28.0</ns3:atemp>
            <ns3:hr>85</ns3:hr>
          </ns3:TrackPointExtension>
        </extensions>
      </trkpt>
      <trkpt lat="36.7958801798522472381591796875" lon="-118.40749687515199184417724609375">
        <ele>3423</ele>
        <time>2021-06-25T23:01:12.000Z</time>
        <extensions>
          <ns3:TrackPointExtension>
            <ns3:atemp>28.0</ns3:atemp>
            <ns3:hr>86</ns3:hr>
          </ns3:TrackPointExtension>
        </extensions>
      </trkpt>
      <trkpt lat="36.79587431252002716064453125" lon="-118.407472483813762664794921875">
        <ele>3422.199951171875</ele>
        <time>2021-06-25T23:01:14.000Z</time>
        <extensions>
          <ns3:TrackPointExtension>
            <ns3:atemp>28.0</ns3:atemp>
            <ns3:hr>88</ns3:hr>
          </ns3:TrackPointExtension>
        </extensions>
      </trkpt>
      <trkpt lat="36.79583131335675716400146484375" lon="-118.40738288126885890960693359375">
        <ele>3421.60009765625</ele>
        <time>2021-06-25T23:01:21.000Z</time>
        <extensions>
          <ns3:TrackPointExtension>
            <ns3:atemp>28.0</ns3:atemp>
            <ns3:hr>87</ns3:hr>
          </ns3:TrackPointExtension>
        </extensions>
      </trkpt>
      <trkpt lat="36.79580851458013057708740234375" lon="-118.40731096453964710235595703125">
        <ele>3421.800048828125</ele>
        <time>2021-06-25T23:01:28.000Z</time>
        <extensions>
          <ns3:TrackPointExtension>
            <ns3:atemp>28.0</ns3:atemp>
            <ns3:hr>85</ns3:hr>
          </ns3:TrackPointExtension>
        </extensions>
      </trkpt>
      <trkpt lat="36.7958137951791286468505859375" lon="-118.407314233481884002685546875">
        <ele>3421.800048828125</ele>
        <time>2021-06-25T23:01:29.000Z</time>
        <extensions>
          <ns3:TrackPointExtension>
            <ns3:atemp>28.0</ns3:atemp>
            <ns3:hr>85</ns3:hr>
          </ns3:TrackPointExtension>
        </extensions>
      </trkpt>
      <trkpt lat="36.79583315737545490264892578125" lon="-118.40734667144715785980224609375">
        <ele>3421.199951171875</ele>
        <time>2021-06-25T23:01:33.000Z</time>
        <extensions>
          <ns3:TrackPointExtension>
            <ns3:atemp>28.0</ns3:atemp>
            <ns3:hr>83</ns3:hr>
          </ns3:TrackPointExtension>
        </extensions>
      </trkpt>
      <trkpt lat="36.795857883989810943603515625" lon="-118.40736913494765758514404296875">
        <ele>3421</ele>
        <time>2021-06-25T23:01:36.000Z</time>
        <extensions>
          <ns3:TrackPointExtension>
            <ns3:atemp>28.0</ns3:atemp>
            <ns3:hr>82</ns3:hr>
          </ns3:TrackPointExtension>
        </extensions>
      </trkpt>
      <trkpt lat="36.79588948376476764678955078125" lon="-118.4073687158524990081787109375">
        <ele>3420.199951171875</ele>
        <time>2021-06-25T23:01:40.000Z</time>
        <extensions>
          <ns3:TrackPointExtension>
            <ns3:atemp>28.0</ns3:atemp>
            <ns3:hr>80</ns3:hr>
          </ns3:TrackPointExtension>
        </extensions>
      </trkpt>
      <trkpt lat="36.79592317901551723480224609375" lon="-118.4073724038898944854736328125">
        <ele>3419.199951171875</ele>
        <time>2021-06-25T23:01:45.000Z</time>
        <extensions>
          <ns3:TrackPointExtension>
            <ns3:atemp>28.0</ns3:atemp>
            <ns3:hr>81</ns3:hr>
          </ns3:TrackPointExtension>
        </extensions>
      </trkpt>
      <trkpt lat="36.79593239910900592803955078125" lon="-118.407380282878875732421875">
        <ele>3419</ele>
        <time>2021-06-25T23:01:47.000Z</time>
        <extensions>
          <ns3:TrackPointExtension>
            <ns3:atemp>28.0</ns3:atemp>
            <ns3:hr>80</ns3:hr>
          </ns3:TrackPointExtension>
        </extensions>
      </trkpt>
      <trkpt lat="36.79595067165791988372802734375" lon="-118.407395370304584503173828125">
        <ele>3418</ele>
        <time>2021-06-25T23:01:50.000Z</time>
        <extensions>
          <ns3:TrackPointExtension>
            <ns3:atemp>28.0</ns3:atemp>
            <ns3:hr>79</ns3:hr>
          </ns3:TrackPointExtension>
        </extensions>
      </trkpt>
      <trkpt lat="36.7959656752645969390869140625" lon="-118.4074082784354686737060546875">
        <ele>3416.800048828125</ele>
        <time>2021-06-25T23:01:53.000Z</time>
        <extensions>
          <ns3:TrackPointExtension>
            <ns3:atemp>28.0</ns3:atemp>
            <ns3:hr>79</ns3:hr>
          </ns3:TrackPointExtension>
        </extensions>
      </trkpt>
      <trkpt lat="36.79599476046860218048095703125" lon="-118.40741707943379878997802734375">
        <ele>3416.39990234375</ele>
        <time>2021-06-25T23:01:57.000Z</time>
        <extensions>
          <ns3:TrackPointExtension>
            <ns3:atemp>28.0</ns3:atemp>
            <ns3:hr>81</ns3:hr>
          </ns3:TrackPointExtension>
        </extensions>
      </trkpt>
      <trkpt lat="36.7960049025714397430419921875" lon="-118.40742143802344799041748046875">
        <ele>3415.199951171875</ele>
        <time>2021-06-25T23:01:59.000Z</time>
        <extensions>
          <ns3:TrackPointExtension>
            <ns3:atemp>28.0</ns3:atemp>
            <ns3:hr>79</ns3:hr>
          </ns3:TrackPointExtension>
        </extensions>
      </trkpt>
      <trkpt lat="36.79605259560048580169677734375" lon="-118.40743484906852245330810546875">
        <ele>3415</ele>
        <time>2021-06-25T23:02:06.000Z</time>
        <extensions>
          <ns3:TrackPointExtension>
            <ns3:atemp>28.0</ns3:atemp>
            <ns3:hr>78</ns3:hr>
          </ns3:TrackPointExtension>
        </extensions>
      </trkpt>
      <trkpt lat="36.7960950918495655059814453125" lon="-118.40747592039406299591064453125">
        <ele>3413.199951171875</ele>
        <time>2021-06-25T23:02:12.000Z</time>
        <extensions>
          <ns3:TrackPointExtension>
            <ns3:atemp>28.0</ns3:atemp>
            <ns3:hr>76</ns3:hr>
          </ns3:TrackPointExtension>
        </extensions>
      </trkpt>
      <trkpt lat="36.79609970189630985260009765625" lon="-118.40748178772628307342529296875">
        <ele>3413.199951171875</ele>
        <time>2021-06-25T23:02:13.000Z</time>
        <extensions>
          <ns3:TrackPointExtension>
            <ns3:atemp>28.0</ns3:atemp>
            <ns3:hr>75</ns3:hr>
          </ns3:TrackPointExtension>
        </extensions>
      </trkpt>
      <trkpt lat="36.79615133441984653472900390625" lon="-118.4075014851987361907958984375">
        <ele>3412.199951171875</ele>
        <time>2021-06-25T23:02:20.000Z</time>
        <extensions>
          <ns3:TrackPointExtension>
            <ns3:atemp>28.0</ns3:atemp>
            <ns3:hr>75</ns3:hr>
          </ns3:TrackPointExtension>
        </extensions>
      </trkpt>
      <trkpt lat="36.796188466250896453857421875" lon="-118.40750089846551418304443359375">
        <ele>3411.39990234375</ele>
        <time>2021-06-25T23:02:24.000Z</time>
        <extensions>
          <ns3:TrackPointExtension>
            <ns3:atemp>28.0</ns3:atemp>
            <ns3:hr>73</ns3:hr>
          </ns3:TrackPointExtension>
        </extensions>
      </trkpt>
      <trkpt lat="36.796238757669925689697265625" lon="-118.40750291012227535247802734375">
        <ele>3410.800048828125</ele>
        <time>2021-06-25T23:02:30.000Z</time>
        <extensions>
          <ns3:TrackPointExtension>
            <ns3:atemp>28.0</ns3:atemp>
            <ns3:hr>73</ns3:hr>
          </ns3:TrackPointExtension>
        </extensions>
      </trkpt>
      <trkpt lat="36.7962489835917949676513671875" lon="-118.4075081907212734222412109375">
        <ele>3410.39990234375</ele>
        <time>2021-06-25T23:02:32.000Z</time>
        <extensions>
          <ns3:TrackPointExtension>
            <ns3:atemp>28.0</ns3:atemp>
            <ns3:hr>71</ns3:hr>
          </ns3:TrackPointExtension>
        </extensions>
      </trkpt>
      <trkpt lat="36.796263568103313446044921875" lon="-118.40750760398805141448974609375">
        <ele>3409.199951171875</ele>
        <time>2021-06-25T23:02:34.000Z</time>
        <extensions>
          <ns3:TrackPointExtension>
            <ns3:atemp>28.0</ns3:atemp>
            <ns3:hr>75</ns3:hr>
          </ns3:TrackPointExtension>
        </extensions>
      </trkpt>
      <trkpt lat="36.79628997109830379486083984375" lon="-118.40750341303646564483642578125">
        <ele>3408</ele>
        <time>2021-06-25T23:02:37.000Z</time>
        <extensions>
          <ns3:TrackPointExtension>
            <ns3:atemp>28.0</ns3:atemp>
            <ns3:hr>75</ns3:hr>
          </ns3:TrackPointExtension>
        </extensions>
      </trkpt>
      <trkpt lat="36.796316541731357574462890625" lon="-118.4075091965496540069580078125">
        <ele>3407.800048828125</ele>
        <time>2021-06-25T23:02:40.000Z</time>
        <extensions>
          <ns3:TrackPointExtension>
            <ns3:atemp>28.0</ns3:atemp>
            <ns3:hr>77</ns3:hr>
          </ns3:TrackPointExtension>
        </extensions>
      </trkpt>
      <trkpt lat="36.79634026251733303070068359375" lon="-118.40750106610357761383056640625">
        <ele>3408.199951171875</ele>
        <time>2021-06-25T23:02:43.000Z</time>
        <extensions>
          <ns3:TrackPointExtension>
            <ns3:atemp>28.0</ns3:atemp>
            <ns3:hr>80</ns3:hr>
          </ns3:TrackPointExtension>
        </extensions>
      </trkpt>
      <trkpt lat="36.79639172740280628204345703125" lon="-118.407504670321941375732421875">
        <ele>3407.39990234375</ele>
        <time>2021-06-25T23:02:49.000Z</time>
        <extensions>
          <ns3:TrackPointExtension>
            <ns3:atemp>28.0</ns3:atemp>
            <ns3:hr>79</ns3:hr>
          </ns3:TrackPointExtension>
        </extensions>
      </trkpt>
      <trkpt lat="36.79642022587358951568603515625" lon="-118.4074915945529937744140625">
        <ele>3406.800048828125</ele>
        <time>2021-06-25T23:02:53.000Z</time>
        <extensions>
          <ns3:TrackPointExtension>
            <ns3:atemp>28.0</ns3:atemp>
            <ns3:hr>79</ns3:hr>
          </ns3:TrackPointExtension>
        </extensions>
      </trkpt>
      <trkpt lat="36.79645903408527374267578125" lon="-118.4074837155640125274658203125">
        <ele>3406.39990234375</ele>
        <time>2021-06-25T23:02:57.000Z</time>
        <extensions>
          <ns3:TrackPointExtension>
            <ns3:atemp>28.0</ns3:atemp>
            <ns3:hr>78</ns3:hr>
          </ns3:TrackPointExtension>
        </extensions>
      </trkpt>
      <trkpt lat="36.796466745436191558837890625" lon="-118.40747793205082416534423828125">
        <ele>3406.39990234375</ele>
        <time>2021-06-25T23:02:58.000Z</time>
        <extensions>
          <ns3:TrackPointExtension>
            <ns3:atemp>28.0</ns3:atemp>
            <ns3:hr>75</ns3:hr>
          </ns3:TrackPointExtension>
        </extensions>
      </trkpt>
      <trkpt lat="36.79647487588226795196533203125" lon="-118.40747256763279438018798828125">
        <ele>3406.199951171875</ele>
        <time>2021-06-25T23:02:59.000Z</time>
        <extensions>
          <ns3:TrackPointExtension>
            <ns3:atemp>28.0</ns3:atemp>
            <ns3:hr>77</ns3:hr>
          </ns3:TrackPointExtension>
        </extensions>
      </trkpt>
      <trkpt lat="36.7965058051049709320068359375" lon="-118.4074719808995723724365234375">
        <ele>3406.199951171875</ele>
        <time>2021-06-25T23:03:04.000Z</time>
        <extensions>
          <ns3:TrackPointExtension>
            <ns3:atemp>28.0</ns3:atemp>
            <ns3:hr>80</ns3:hr>
          </ns3:TrackPointExtension>
        </extensions>
      </trkpt>
      <trkpt lat="36.79651125334203243255615234375" lon="-118.40747407637536525726318359375">
        <ele>3406</ele>
        <time>2021-06-25T23:03:05.000Z</time>
        <extensions>
          <ns3:TrackPointExtension>
            <ns3:atemp>28.0</ns3:atemp>
            <ns3:hr>80</ns3:hr>
          </ns3:TrackPointExtension>
        </extensions>
      </trkpt>
      <trkpt lat="36.7965182103216648101806640625" lon="-118.407476507127285003662109375">
        <ele>3405.800048828125</ele>
        <time>2021-06-25T23:03:06.000Z</time>
        <extensions>
          <ns3:TrackPointExtension>
            <ns3:atemp>28.0</ns3:atemp>
            <ns3:hr>80</ns3:hr>
          </ns3:TrackPointExtension>
        </extensions>
      </trkpt>
      <trkpt lat="36.79655735380947589874267578125" lon="-118.40746452100574970245361328125">
        <ele>3404.800048828125</ele>
        <time>2021-06-25T23:03:12.000Z</time>
        <extensions>
          <ns3:TrackPointExtension>
            <ns3:atemp>28.0</ns3:atemp>
            <ns3:hr>81</ns3:hr>
          </ns3:TrackPointExtension>
        </extensions>
      </trkpt>
      <trkpt lat="36.79657780565321445465087890625" lon="-118.4074364416301250457763671875">
        <ele>3404</ele>
        <time>2021-06-25T23:03:16.000Z</time>
        <extensions>
          <ns3:TrackPointExtension>
            <ns3:atemp>28.0</ns3:atemp>
            <ns3:hr>80</ns3:hr>
          </ns3:TrackPointExtension>
        </extensions>
      </trkpt>
      <trkpt lat="36.79658643901348114013671875" lon="-118.40742613188922405242919921875">
        <ele>3403.60009765625</ele>
        <time>2021-06-25T23:03:18.000Z</time>
        <extensions>
          <ns3:TrackPointExtension>
            <ns3:atemp>28.0</ns3:atemp>
            <ns3:hr>80</ns3:hr>
          </ns3:TrackPointExtension>
        </extensions>
      </trkpt>
      <trkpt lat="36.7966013588011264801025390625" lon="-118.40742529369890689849853515625">
        <ele>3403.39990234375</ele>
        <time>2021-06-25T23:03:21.000Z</time>
        <extensions>
          <ns3:TrackPointExtension>
            <ns3:atemp>28.0</ns3:atemp>
            <ns3:hr>79</ns3:hr>
          </ns3:TrackPointExtension>
        </extensions>
      </trkpt>
      <trkpt lat="36.79661384783685207366943359375" lon="-118.407428897917270660400390625">
        <ele>3403</ele>
        <time>2021-06-25T23:03:23.000Z</time>
        <extensions>
          <ns3:TrackPointExtension>
            <ns3:atemp>28.0</ns3:atemp>
            <ns3:hr>80</ns3:hr>
          </ns3:TrackPointExtension>
        </extensions>
      </trkpt>
      <trkpt lat="36.7966231517493724822998046875" lon="-118.40742764063179492950439453125">
        <ele>3402.800048828125</ele>
        <time>2021-06-25T23:03:24.000Z</time>
        <extensions>
          <ns3:TrackPointExtension>
            <ns3:atemp>28.0</ns3:atemp>
            <ns3:hr>80</ns3:hr>
          </ns3:TrackPointExtension>
        </extensions>
      </trkpt>
      <trkpt lat="36.7966385744512081146240234375" lon="-118.40742386877536773681640625">
        <ele>3402.39990234375</ele>
        <time>2021-06-25T23:03:26.000Z</time>
        <extensions>
          <ns3:TrackPointExtension>
            <ns3:atemp>28.0</ns3:atemp>
            <ns3:hr>80</ns3:hr>
          </ns3:TrackPointExtension>
        </extensions>
      </trkpt>
      <trkpt lat="36.79667620919644832611083984375" lon="-118.40740978717803955078125">
        <ele>3401.60009765625</ele>
        <time>2021-06-25T23:03:31.000Z</time>
        <extensions>
          <ns3:TrackPointExtension>
            <ns3:atemp>28.0</ns3:atemp>
            <ns3:hr>82</ns3:hr>
          </ns3:TrackPointExtension>
        </extensions>
      </trkpt>
      <trkpt lat="36.79668442346155643463134765625" lon="-118.40740366838872432708740234375">
        <ele>3401.60009765625</ele>
        <time>2021-06-25T23:03:32.000Z</time>
        <extensions>
          <ns3:TrackPointExtension>
            <ns3:atemp>28.0</ns3:atemp>
            <ns3:hr>79</ns3:hr>
          </ns3:TrackPointExtension>
        </extensions>
      </trkpt>
      <trkpt lat="36.79671376012265682220458984375" lon="-118.4073864854872226715087890625">
        <ele>3401.199951171875</ele>
        <time>2021-06-25T23:03:35.000Z</time>
        <extensions>
          <ns3:TrackPointExtension>
            <ns3:atemp>28.0</ns3:atemp>
            <ns3:hr>78</ns3:hr>
          </ns3:TrackPointExtension>
        </extensions>
      </trkpt>
      <trkpt lat="36.79672197438776493072509765625" lon="-118.407379947602748870849609375">
        <ele>3401.199951171875</ele>
        <time>2021-06-25T23:03:36.000Z</time>
        <extensions>
          <ns3:TrackPointExtension>
            <ns3:atemp>28.0</ns3:atemp>
            <ns3:hr>81</ns3:hr>
          </ns3:TrackPointExtension>
        </extensions>
      </trkpt>
      <trkpt lat="36.7967606149613857269287109375" lon="-118.407356478273868560791015625">
        <ele>3400.800048828125</ele>
        <time>2021-06-25T23:03:41.000Z</time>
        <extensions>
          <ns3:TrackPointExtension>
            <ns3:atemp>28.0</ns3:atemp>
            <ns3:hr>82</ns3:hr>
          </ns3:TrackPointExtension>
        </extensions>
      </trkpt>
      <trkpt lat="36.79679255001246929168701171875" lon="-118.40734248049557209014892578125">
        <ele>3400.60009765625</ele>
        <time>2021-06-25T23:03:48.000Z</time>
        <extensions>
          <ns3:TrackPointExtension>
            <ns3:atemp>28.0</ns3:atemp>
            <ns3:hr>81</ns3:hr>
          </ns3:TrackPointExtension>
        </extensions>
      </trkpt>
      <trkpt lat="36.7968048714101314544677734375" lon="-118.40733191929757595062255859375">
        <ele>3400.60009765625</ele>
        <time>2021-06-25T23:03:54.000Z</time>
        <extensions>
          <ns3:TrackPointExtension>
            <ns3:atemp>28.0</ns3:atemp>
            <ns3:hr>80</ns3:hr>
          </ns3:TrackPointExtension>
        </extensions>
      </trkpt>
      <trkpt lat="36.79679858498275279998779296875" lon="-118.40731448493897914886474609375">
        <ele>3400.39990234375</ele>
        <time>2021-06-25T23:04:00.000Z</time>
        <extensions>
          <ns3:TrackPointExtension>
            <ns3:atemp>28.0</ns3:atemp>
            <ns3:hr>77</ns3:hr>
          </ns3:TrackPointExtension>
        </extensions>
      </trkpt>
      <trkpt lat="36.79679858498275279998779296875" lon="-118.40731448493897914886474609375">
        <ele>3400.39990234375</ele>
        <time>2021-06-25T23:04:06.000Z</time>
        <extensions>
          <ns3:TrackPointExtension>
            <ns3:atemp>28.0</ns3:atemp>
            <ns3:hr>78</ns3:hr>
          </ns3:TrackPointExtension>
        </extensions>
      </trkpt>
      <trkpt lat="36.7968303523957729339599609375" lon="-118.40732035227119922637939453125">
        <ele>3400.60009765625</ele>
        <time>2021-06-25T23:04:16.000Z</time>
        <extensions>
          <ns3:TrackPointExtension>
            <ns3:atemp>29.0</ns3:atemp>
            <ns3:hr>81</ns3:hr>
          </ns3:TrackPointExtension>
        </extensions>
      </trkpt>
      <trkpt lat="36.7968467809259891510009765625" lon="-118.40732219628989696502685546875">
        <ele>3400.199951171875</ele>
        <time>2021-06-25T23:04:17.000Z</time>
        <extensions>
          <ns3:TrackPointExtension>
            <ns3:atemp>29.0</ns3:atemp>
            <ns3:hr>81</ns3:hr>
          </ns3:TrackPointExtension>
        </extensions>
      </trkpt>
      <trkpt lat="36.79688156582415103912353515625" lon="-118.40733124874532222747802734375">
        <ele>3399.800048828125</ele>
        <time>2021-06-25T23:04:19.000Z</time>
        <extensions>
          <ns3:TrackPointExtension>
            <ns3:atemp>29.0</ns3:atemp>
            <ns3:hr>82</ns3:hr>
          </ns3:TrackPointExtension>
        </extensions>
      </trkpt>
      <trkpt lat="36.7968990840017795562744140625" lon="-118.407331667840480804443359375">
        <ele>3399.800048828125</ele>
        <time>2021-06-25T23:04:20.000Z</time>
        <extensions>
          <ns3:TrackPointExtension>
            <ns3:atemp>29.0</ns3:atemp>
            <ns3:hr>79</ns3:hr>
          </ns3:TrackPointExtension>
        </extensions>
      </trkpt>
      <trkpt lat="36.7969359643757343292236328125" lon="-118.4073304943740367889404296875">
        <ele>3399.800048828125</ele>
        <time>2021-06-25T23:04:22.000Z</time>
        <extensions>
          <ns3:TrackPointExtension>
            <ns3:atemp>29.0</ns3:atemp>
            <ns3:hr>83</ns3:hr>
          </ns3:TrackPointExtension>
        </extensions>
      </trkpt>
      <trkpt lat="36.79698742926120758056640625" lon="-118.40732856653630733489990234375">
        <ele>3400.60009765625</ele>
        <time>2021-06-25T23:04:27.000Z</time>
        <extensions>
          <ns3:TrackPointExtension>
            <ns3:atemp>29.0</ns3:atemp>
            <ns3:hr>89</ns3:hr>
          </ns3:TrackPointExtension>
        </extensions>
      </trkpt>
      <trkpt lat="36.7969907820224761962890625" lon="-118.40732487849891185760498046875">
        <ele>3400.60009765625</ele>
        <time>2021-06-25T23:04:28.000Z</time>
        <extensions>
          <ns3:TrackPointExtension>
            <ns3:atemp>29.0</ns3:atemp>
            <ns3:hr>83</ns3:hr>
          </ns3:TrackPointExtension>
        </extensions>
      </trkpt>
      <trkpt lat="36.7969953082501888275146484375" lon="-118.4073190949857234954833984375">
        <ele>3400.199951171875</ele>
        <time>2021-06-25T23:04:29.000Z</time>
        <extensions>
          <ns3:TrackPointExtension>
            <ns3:atemp>29.0</ns3:atemp>
            <ns3:hr>83</ns3:hr>
          </ns3:TrackPointExtension>
        </extensions>
      </trkpt>
      <trkpt lat="36.79701399989426136016845703125" lon="-118.4073107130825519561767578125">
        <ele>3399.800048828125</ele>
        <time>2021-06-25T23:04:32.000Z</time>
        <extensions>
          <ns3:TrackPointExtension>
            <ns3:atemp>29.0</ns3:atemp>
            <ns3:hr>82</ns3:hr>
          </ns3:TrackPointExtension>
        </extensions>
      </trkpt>
      <trkpt lat="36.797019951045513153076171875" lon="-118.4073053486645221710205078125">
        <ele>3399.60009765625</ele>
        <time>2021-06-25T23:04:33.000Z</time>
        <extensions>
          <ns3:TrackPointExtension>
            <ns3:atemp>29.0</ns3:atemp>
            <ns3:hr>82</ns3:hr>
          </ns3:TrackPointExtension>
        </extensions>
      </trkpt>
      <trkpt lat="36.797041408717632293701171875" lon="-118.40729386545717716217041015625">
        <ele>3399</ele>
        <time>2021-06-25T23:04:36.000Z</time>
        <extensions>
          <ns3:TrackPointExtension>
            <ns3:atemp>29.0</ns3:atemp>
            <ns3:hr>82</ns3:hr>
          </ns3:TrackPointExtension>
        </extensions>
      </trkpt>
      <trkpt lat="36.79707451723515987396240234375" lon="-118.407289423048496246337890625">
        <ele>3398.39990234375</ele>
        <time>2021-06-25T23:04:39.000Z</time>
        <extensions>
          <ns3:TrackPointExtension>
            <ns3:atemp>29.0</ns3:atemp>
            <ns3:hr>85</ns3:hr>
          </ns3:TrackPointExtension>
        </extensions>
      </trkpt>
      <trkpt lat="36.79708826355636119842529296875" lon="-118.40728917159140110015869140625">
        <ele>3398.199951171875</ele>
        <time>2021-06-25T23:04:40.000Z</time>
        <extensions>
          <ns3:TrackPointExtension>
            <ns3:atemp>29.0</ns3:atemp>
            <ns3:hr>86</ns3:hr>
          </ns3:TrackPointExtension>
        </extensions>
      </trkpt>
      <trkpt lat="36.7971116490662097930908203125" lon="-118.4072952903807163238525390625">
        <ele>3398</ele>
        <time>2021-06-25T23:04:43.000Z</time>
        <extensions>
          <ns3:TrackPointExtension>
            <ns3:atemp>29.0</ns3:atemp>
            <ns3:hr>88</ns3:hr>
          </ns3:TrackPointExtension>
        </extensions>
      </trkpt>
      <trkpt lat="36.797150708734989166259765625" lon="-118.40726025402545928955078125">
        <ele>3397.60009765625</ele>
        <time>2021-06-25T23:04:48.000Z</time>
        <extensions>
          <ns3:TrackPointExtension>
            <ns3:atemp>29.0</ns3:atemp>
            <ns3:hr>87</ns3:hr>
          </ns3:TrackPointExtension>
        </extensions>
      </trkpt>
      <trkpt lat="36.797156743705272674560546875" lon="-118.4072543866932392120361328125">
        <ele>3396.60009765625</ele>
        <time>2021-06-25T23:04:50.000Z</time>
        <extensions>
          <ns3:TrackPointExtension>
            <ns3:atemp>29.0</ns3:atemp>
            <ns3:hr>89</ns3:hr>
          </ns3:TrackPointExtension>
        </extensions>
      </trkpt>
      <trkpt lat="36.79716772399842739105224609375" lon="-118.40723318047821521759033203125">
        <ele>3396.199951171875</ele>
        <time>2021-06-25T23:04:53.000Z</time>
        <extensions>
          <ns3:TrackPointExtension>
            <ns3:atemp>29.0</ns3:atemp>
            <ns3:hr>90</ns3:hr>
          </ns3:TrackPointExtension>
        </extensions>
      </trkpt>
      <trkpt lat="36.79718817584216594696044921875" lon="-118.4071722440421581268310546875">
        <ele>3396</ele>
        <time>2021-06-25T23:05:01.000Z</time>
        <extensions>
          <ns3:TrackPointExtension>
            <ns3:atemp>28.0</ns3:atemp>
            <ns3:hr>89</ns3:hr>
          </ns3:TrackPointExtension>
        </extensions>
      </trkpt>
      <trkpt lat="36.7972078733146190643310546875" lon="-118.407150618731975555419921875">
        <ele>3395.800048828125</ele>
        <time>2021-06-25T23:05:06.000Z</time>
        <extensions>
          <ns3:TrackPointExtension>
            <ns3:atemp>28.0</ns3:atemp>
            <ns3:hr>89</ns3:hr>
          </ns3:TrackPointExtension>
        </extensions>
      </trkpt>
      <trkpt lat="36.7972115613520145416259765625" lon="-118.40714282356202602386474609375">
        <ele>3395.60009765625</ele>
        <time>2021-06-25T23:05:07.000Z</time>
        <extensions>
          <ns3:TrackPointExtension>
            <ns3:atemp>28.0</ns3:atemp>
            <ns3:hr>90</ns3:hr>
          </ns3:TrackPointExtension>
        </extensions>
      </trkpt>
      <trkpt lat="36.7972484417259693145751953125" lon="-118.4070813842117786407470703125">
        <ele>3394.60009765625</ele>
        <time>2021-06-25T23:05:14.000Z</time>
        <extensions>
          <ns3:TrackPointExtension>
            <ns3:atemp>28.0</ns3:atemp>
            <ns3:hr>91</ns3:hr>
          </ns3:TrackPointExtension>
        </extensions>
      </trkpt>
      <trkpt lat="36.7972536385059356689453125" lon="-118.40706939809024333953857421875">
        <ele>3394.199951171875</ele>
        <time>2021-06-25T23:05:15.000Z</time>
        <extensions>
          <ns3:TrackPointExtension>
            <ns3:atemp>28.0</ns3:atemp>
            <ns3:hr>92</ns3:hr>
          </ns3:TrackPointExtension>
        </extensions>
      </trkpt>
      <trkpt lat="36.79725221358239650726318359375" lon="-118.40706353075802326202392578125">
        <ele>3394</ele>
        <time>2021-06-25T23:05:21.000Z</time>
        <extensions>
          <ns3:TrackPointExtension>
            <ns3:atemp>28.0</ns3:atemp>
            <ns3:hr>93</ns3:hr>
          </ns3:TrackPointExtension>
        </extensions>
      </trkpt>
      <trkpt lat="36.79725606925785541534423828125" lon="-118.407061435282230377197265625">
        <ele>3393.800048828125</ele>
        <time>2021-06-25T23:05:24.000Z</time>
        <extensions>
          <ns3:TrackPointExtension>
            <ns3:atemp>28.0</ns3:atemp>
            <ns3:hr>90</ns3:hr>
          </ns3:TrackPointExtension>
        </extensions>
      </trkpt>
      <trkpt lat="36.79725673981010913848876953125" lon="-118.4070602618157863616943359375">
        <ele>3394</ele>
        <time>2021-06-25T23:05:28.000Z</time>
        <extensions>
          <ns3:TrackPointExtension>
            <ns3:atemp>28.0</ns3:atemp>
            <ns3:hr>87</ns3:hr>
          </ns3:TrackPointExtension>
        </extensions>
      </trkpt>
      <trkpt lat="36.79725673981010913848876953125" lon="-118.4070602618157863616943359375">
        <ele>3394.199951171875</ele>
        <time>2021-06-25T23:05:30.000Z</time>
        <extensions>
          <ns3:TrackPointExtension>
            <ns3:atemp>28.0</ns3:atemp>
            <ns3:hr>82</ns3:hr>
          </ns3:TrackPointExtension>
        </extensions>
      </trkpt>
      <trkpt lat="36.79725673981010913848876953125" lon="-118.4070602618157863616943359375">
        <ele>3394</ele>
        <time>2021-06-25T23:05:31.000Z</time>
        <extensions>
          <ns3:TrackPointExtension>
            <ns3:atemp>28.0</ns3:atemp>
            <ns3:hr>79</ns3:hr>
          </ns3:TrackPointExtension>
        </extensions>
      </trkpt>
      <trkpt lat="36.79725673981010913848876953125" lon="-118.4070602618157863616943359375">
        <ele>3394</ele>
        <time>2021-06-25T23:05:32.000Z</time>
        <extensions>
          <ns3:TrackPointExtension>
            <ns3:atemp>28.0</ns3:atemp>
            <ns3:hr>76</ns3:hr>
          </ns3:TrackPointExtension>
        </extensions>
      </trkpt>
      <trkpt lat="36.79725321941077709197998046875" lon="-118.407063446938991546630859375">
        <ele>3394</ele>
        <time>2021-06-25T23:05:41.000Z</time>
        <extensions>
          <ns3:TrackPointExtension>
            <ns3:atemp>28.0</ns3:atemp>
            <ns3:hr>81</ns3:hr>
          </ns3:TrackPointExtension>
        </extensions>
      </trkpt>
      <trkpt lat="36.79725229740142822265625" lon="-118.40706445276737213134765625">
        <ele>3394.199951171875</ele>
        <time>2021-06-25T23:05:43.000Z</time>
        <extensions>
          <ns3:TrackPointExtension>
            <ns3:atemp>28.0</ns3:atemp>
            <ns3:hr>85</ns3:hr>
          </ns3:TrackPointExtension>
        </extensions>
      </trkpt>
      <trkpt lat="36.797251962125301361083984375" lon="-118.407067470252513885498046875">
        <ele>3394.199951171875</ele>
        <time>2021-06-25T23:05:45.000Z</time>
        <extensions>
          <ns3:TrackPointExtension>
            <ns3:atemp>28.0</ns3:atemp>
            <ns3:hr>89</ns3:hr>
          </ns3:TrackPointExtension>
        </extensions>
      </trkpt>
      <trkpt lat="36.7972548119723796844482421875" lon="-118.40706571005284786224365234375">
        <ele>3394.199951171875</ele>
        <time>2021-06-25T23:05:49.000Z</time>
        <extensions>
          <ns3:TrackPointExtension>
            <ns3:atemp>28.0</ns3:atemp>
            <ns3:hr>90</ns3:hr>
          </ns3:TrackPointExtension>
        </extensions>
      </trkpt>
      <trkpt lat="36.797313652932643890380859375" lon="-118.40701692737638950347900390625">
        <ele>3393.39990234375</ele>
        <time>2021-06-25T23:05:54.000Z</time>
        <extensions>
          <ns3:TrackPointExtension>
            <ns3:atemp>28.0</ns3:atemp>
            <ns3:hr>89</ns3:hr>
          </ns3:TrackPointExtension>
        </extensions>
      </trkpt>
      <trkpt lat="36.79734592325985431671142578125" lon="-118.40697535313665866851806640625">
        <ele>3393.199951171875</ele>
        <time>2021-06-25T23:05:57.000Z</time>
        <extensions>
          <ns3:TrackPointExtension>
            <ns3:atemp>28.0</ns3:atemp>
            <ns3:hr>86</ns3:hr>
          </ns3:TrackPointExtension>
        </extensions>
      </trkpt>
      <trkpt lat="36.79737676866352558135986328125" lon="-118.40688331983983516693115234375">
        <ele>3392.800048828125</ele>
        <time>2021-06-25T23:06:04.000Z</time>
        <extensions>
          <ns3:TrackPointExtension>
            <ns3:atemp>28.0</ns3:atemp>
            <ns3:hr>83</ns3:hr>
          </ns3:TrackPointExtension>
        </extensions>
      </trkpt>
      <trkpt lat="36.7973835580050945281982421875" lon="-118.40686555020511150360107421875">
        <ele>3392.800048828125</ele>
        <time>2021-06-25T23:06:06.000Z</time>
        <extensions>
          <ns3:TrackPointExtension>
            <ns3:atemp>28.0</ns3:atemp>
            <ns3:hr>82</ns3:hr>
          </ns3:TrackPointExtension>
        </extensions>
      </trkpt>
      <trkpt lat="36.79738950915634632110595703125" lon="-118.4068644605576992034912109375">
        <ele>3392.60009765625</ele>
        <time>2021-06-25T23:06:07.000Z</time>
        <extensions>
          <ns3:TrackPointExtension>
            <ns3:atemp>28.0</ns3:atemp>
            <ns3:hr>82</ns3:hr>
          </ns3:TrackPointExtension>
        </extensions>
      </trkpt>
      <trkpt lat="36.7974214442074298858642578125" lon="-118.40685113333165645599365234375">
        <ele>3392.39990234375</ele>
        <time>2021-06-25T23:06:11.000Z</time>
        <extensions>
          <ns3:TrackPointExtension>
            <ns3:atemp>28.0</ns3:atemp>
            <ns3:hr>79</ns3:hr>
          </ns3:TrackPointExtension>
        </extensions>
      </trkpt>
      <trkpt lat="36.79746150970458984375" lon="-118.406808637082576751708984375">
        <ele>3392</ele>
        <time>2021-06-25T23:06:17.000Z</time>
        <extensions>
          <ns3:TrackPointExtension>
            <ns3:atemp>28.0</ns3:atemp>
            <ns3:hr>79</ns3:hr>
          </ns3:TrackPointExtension>
        </extensions>
      </trkpt>
      <trkpt lat="36.79749143309891223907470703125" lon="-118.40680737979710102081298828125">
        <ele>3392</ele>
        <time>2021-06-25T23:06:20.000Z</time>
        <extensions>
          <ns3:TrackPointExtension>
            <ns3:atemp>28.0</ns3:atemp>
            <ns3:hr>80</ns3:hr>
          </ns3:TrackPointExtension>
        </extensions>
      </trkpt>
      <trkpt lat="36.79750853218138217926025390625" lon="-118.40680235065519809722900390625">
        <ele>3392</ele>
        <time>2021-06-25T23:06:22.000Z</time>
        <extensions>
          <ns3:TrackPointExtension>
            <ns3:atemp>28.0</ns3:atemp>
            <ns3:hr>81</ns3:hr>
          </ns3:TrackPointExtension>
        </extensions>
      </trkpt>
      <trkpt lat="36.797525882720947265625" lon="-118.4067843295633792877197265625">
        <ele>3392</ele>
        <time>2021-06-25T23:06:24.000Z</time>
        <extensions>
          <ns3:TrackPointExtension>
            <ns3:atemp>28.0</ns3:atemp>
            <ns3:hr>84</ns3:hr>
          </ns3:TrackPointExtension>
        </extensions>
      </trkpt>
      <trkpt lat="36.79753057658672332763671875" lon="-118.40677075088024139404296875">
        <ele>3392</ele>
        <time>2021-06-25T23:06:25.000Z</time>
        <extensions>
          <ns3:TrackPointExtension>
            <ns3:atemp>28.0</ns3:atemp>
            <ns3:hr>81</ns3:hr>
          </ns3:TrackPointExtension>
        </extensions>
      </trkpt>
      <trkpt lat="36.79757474921643733978271484375" lon="-118.406716100871562957763671875">
        <ele>3391.60009765625</ele>
        <time>2021-06-25T23:06:31.000Z</time>
        <extensions>
          <ns3:TrackPointExtension>
            <ns3:atemp>28.0</ns3:atemp>
            <ns3:hr>82</ns3:hr>
          </ns3:TrackPointExtension>
        </extensions>
      </trkpt>
      <trkpt lat="36.79759469814598560333251953125" lon="-118.40669162571430206298828125">
        <ele>3391.39990234375</ele>
        <time>2021-06-25T23:06:34.000Z</time>
        <extensions>
          <ns3:TrackPointExtension>
            <ns3:atemp>28.0</ns3:atemp>
            <ns3:hr>83</ns3:hr>
          </ns3:TrackPointExtension>
        </extensions>
      </trkpt>
      <trkpt lat="36.7976179160177707672119140625" lon="-118.40666170231997966766357421875">
        <ele>3391.60009765625</ele>
        <time>2021-06-25T23:06:38.000Z</time>
        <extensions>
          <ns3:TrackPointExtension>
            <ns3:atemp>28.0</ns3:atemp>
            <ns3:hr>83</ns3:hr>
          </ns3:TrackPointExtension>
        </extensions>
      </trkpt>
      <trkpt lat="36.79766426794230937957763671875" lon="-118.4066106565296649932861328125">
        <ele>3391</ele>
        <time>2021-06-25T23:06:46.000Z</time>
        <extensions>
          <ns3:TrackPointExtension>
            <ns3:atemp>28.0</ns3:atemp>
            <ns3:hr>83</ns3:hr>
          </ns3:TrackPointExtension>
        </extensions>
      </trkpt>
      <trkpt lat="36.79771841503679752349853515625" lon="-118.406568579375743865966796875">
        <ele>3390.199951171875</ele>
        <time>2021-06-25T23:06:54.000Z</time>
        <extensions>
          <ns3:TrackPointExtension>
            <ns3:atemp>28.0</ns3:atemp>
            <ns3:hr>82</ns3:hr>
          </ns3:TrackPointExtension>
        </extensions>
      </trkpt>
      <trkpt lat="36.7977310717105865478515625" lon="-118.40653949417173862457275390625">
        <ele>3389.199951171875</ele>
        <time>2021-06-25T23:06:58.000Z</time>
        <extensions>
          <ns3:TrackPointExtension>
            <ns3:atemp>28.0</ns3:atemp>
            <ns3:hr>79</ns3:hr>
          </ns3:TrackPointExtension>
        </extensions>
      </trkpt>
      <trkpt lat="36.797722689807415008544921875" lon="-118.406528346240520477294921875">
        <ele>3389</ele>
        <time>2021-06-25T23:07:00.000Z</time>
        <extensions>
          <ns3:TrackPointExtension>
            <ns3:atemp>28.0</ns3:atemp>
            <ns3:hr>78</ns3:hr>
          </ns3:TrackPointExtension>
        </extensions>
      </trkpt>
      <trkpt lat="36.797755546867847442626953125" lon="-118.4065003506839275360107421875">
        <ele>3389</ele>
        <time>2021-06-25T23:07:08.000Z</time>
        <extensions>
          <ns3:TrackPointExtension>
            <ns3:atemp>28.0</ns3:atemp>
            <ns3:hr>76</ns3:hr>
          </ns3:TrackPointExtension>
        </extensions>
      </trkpt>
      <trkpt lat="36.79780323989689350128173828125" lon="-118.40646740980446338653564453125">
        <ele>3388.39990234375</ele>
        <time>2021-06-25T23:07:14.000Z</time>
        <extensions>
          <ns3:TrackPointExtension>
            <ns3:atemp>28.0</ns3:atemp>
            <ns3:hr>80</ns3:hr>
          </ns3:TrackPointExtension>
        </extensions>
      </trkpt>
      <trkpt lat="36.79780642502009868621826171875" lon="-118.40645785443484783172607421875">
        <ele>3388.199951171875</ele>
        <time>2021-06-25T23:07:15.000Z</time>
        <extensions>
          <ns3:TrackPointExtension>
            <ns3:atemp>28.0</ns3:atemp>
            <ns3:hr>78</ns3:hr>
          </ns3:TrackPointExtension>
        </extensions>
      </trkpt>
      <trkpt lat="36.7978088557720184326171875" lon="-118.4064540825784206390380859375">
        <ele>3388</ele>
        <time>2021-06-25T23:07:16.000Z</time>
        <extensions>
          <ns3:TrackPointExtension>
            <ns3:atemp>28.0</ns3:atemp>
            <ns3:hr>79</ns3:hr>
          </ns3:TrackPointExtension>
        </extensions>
      </trkpt>
      <trkpt lat="36.79784783162176609039306640625" lon="-118.40641343034803867340087890625">
        <ele>3387.199951171875</ele>
        <time>2021-06-25T23:07:22.000Z</time>
        <extensions>
          <ns3:TrackPointExtension>
            <ns3:atemp>28.0</ns3:atemp>
            <ns3:hr>77</ns3:hr>
          </ns3:TrackPointExtension>
        </extensions>
      </trkpt>
      <trkpt lat="36.79784866981208324432373046875" lon="-118.4063994325697422027587890625">
        <ele>3386.800048828125</ele>
        <time>2021-06-25T23:07:23.000Z</time>
        <extensions>
          <ns3:TrackPointExtension>
            <ns3:atemp>28.0</ns3:atemp>
            <ns3:hr>77</ns3:hr>
          </ns3:TrackPointExtension>
        </extensions>
      </trkpt>
      <trkpt lat="36.79784146137535572052001953125" lon="-118.4063548408448696136474609375">
        <ele>3386</ele>
        <time>2021-06-25T23:07:28.000Z</time>
        <extensions>
          <ns3:TrackPointExtension>
            <ns3:atemp>28.0</ns3:atemp>
            <ns3:hr>74</ns3:hr>
          </ns3:TrackPointExtension>
        </extensions>
      </trkpt>
      <trkpt lat="36.7978200875222682952880859375" lon="-118.406260795891284942626953125">
        <ele>3386</ele>
        <time>2021-06-25T23:07:39.000Z</time>
        <extensions>
          <ns3:TrackPointExtension>
            <ns3:atemp>28.0</ns3:atemp>
            <ns3:hr>77</ns3:hr>
          </ns3:TrackPointExtension>
        </extensions>
      </trkpt>
      <trkpt lat="36.79781698621809482574462890625" lon="-118.40623875148594379425048828125">
        <ele>3385.800048828125</ele>
        <time>2021-06-25T23:07:44.000Z</time>
        <extensions>
          <ns3:TrackPointExtension>
            <ns3:atemp>28.0</ns3:atemp>
            <ns3:hr>80</ns3:hr>
          </ns3:TrackPointExtension>
        </extensions>
      </trkpt>
      <trkpt lat="36.79780458100140094757080078125" lon="-118.4062230773270130157470703125">
        <ele>3385.800048828125</ele>
        <time>2021-06-25T23:07:47.000Z</time>
        <extensions>
          <ns3:TrackPointExtension>
            <ns3:atemp>28.0</ns3:atemp>
            <ns3:hr>84</ns3:hr>
          </ns3:TrackPointExtension>
        </extensions>
      </trkpt>
      <trkpt lat="36.79780558682978153228759765625" lon="-118.40621829964220523834228515625">
        <ele>3385.800048828125</ele>
        <time>2021-06-25T23:07:49.000Z</time>
        <extensions>
          <ns3:TrackPointExtension>
            <ns3:atemp>28.0</ns3:atemp>
            <ns3:hr>87</ns3:hr>
          </ns3:TrackPointExtension>
        </extensions>
      </trkpt>
      <trkpt lat="36.79780541919171810150146484375" lon="-118.40620405040681362152099609375">
        <ele>3385.800048828125</ele>
        <time>2021-06-25T23:07:50.000Z</time>
        <extensions>
          <ns3:TrackPointExtension>
            <ns3:atemp>28.0</ns3:atemp>
            <ns3:hr>88</ns3:hr>
          </ns3:TrackPointExtension>
        </extensions>
      </trkpt>
      <trkpt lat="36.797832660377025604248046875" lon="-118.40621461160480976104736328125">
        <ele>3385.60009765625</ele>
        <time>2021-06-25T23:07:53.000Z</time>
        <extensions>
          <ns3:TrackPointExtension>
            <ns3:atemp>28.0</ns3:atemp>
            <ns3:hr>91</ns3:hr>
          </ns3:TrackPointExtension>
        </extensions>
      </trkpt>
      <trkpt lat="36.797836013138294219970703125" lon="-118.406217880547046661376953125">
        <ele>3385.60009765625</ele>
        <time>2021-06-25T23:08:07.000Z</time>
        <extensions>
          <ns3:TrackPointExtension>
            <ns3:atemp>28.0</ns3:atemp>
            <ns3:hr>92</ns3:hr>
          </ns3:TrackPointExtension>
        </extensions>
      </trkpt>
      <trkpt lat="36.79779871366918087005615234375" lon="-118.4061650745570659637451171875">
        <ele>3384.60009765625</ele>
        <time>2021-06-25T23:08:13.000Z</time>
        <extensions>
          <ns3:TrackPointExtension>
            <ns3:atemp>28.0</ns3:atemp>
            <ns3:hr>91</ns3:hr>
          </ns3:TrackPointExtension>
        </extensions>
      </trkpt>
      <trkpt lat="36.7977594025433063507080078125" lon="-118.4061677567660808563232421875">
        <ele>3384</ele>
        <time>2021-06-25T23:08:17.000Z</time>
        <extensions>
          <ns3:TrackPointExtension>
            <ns3:atemp>28.0</ns3:atemp>
            <ns3:hr>91</ns3:hr>
          </ns3:TrackPointExtension>
        </extensions>
      </trkpt>
      <trkpt lat="36.79770483635365962982177734375" lon="-118.40616381727159023284912109375">
        <ele>3383.199951171875</ele>
        <time>2021-06-25T23:08:22.000Z</time>
        <extensions>
          <ns3:TrackPointExtension>
            <ns3:atemp>28.0</ns3:atemp>
            <ns3:hr>91</ns3:hr>
          </ns3:TrackPointExtension>
        </extensions>
      </trkpt>
      <trkpt lat="36.79767717607319355010986328125" lon="-118.40614135377109050750732421875">
        <ele>3382.60009765625</ele>
        <time>2021-06-25T23:08:27.000Z</time>
        <extensions>
          <ns3:TrackPointExtension>
            <ns3:atemp>28.0</ns3:atemp>
            <ns3:hr>91</ns3:hr>
          </ns3:TrackPointExtension>
        </extensions>
      </trkpt>
      <trkpt lat="36.797691844403743743896484375" lon="-118.40612777508795261383056640625">
        <ele>3382</ele>
        <time>2021-06-25T23:08:30.000Z</time>
        <extensions>
          <ns3:TrackPointExtension>
            <ns3:atemp>28.0</ns3:atemp>
            <ns3:hr>89</ns3:hr>
          </ns3:TrackPointExtension>
        </extensions>
      </trkpt>
      <trkpt lat="36.79769980721175670623779296875" lon="-118.406119979918003082275390625">
        <ele>3382</ele>
        <time>2021-06-25T23:08:32.000Z</time>
        <extensions>
          <ns3:TrackPointExtension>
            <ns3:atemp>28.0</ns3:atemp>
            <ns3:hr>88</ns3:hr>
          </ns3:TrackPointExtension>
        </extensions>
      </trkpt>
      <trkpt lat="36.79772495292127132415771484375" lon="-118.40609743259847164154052734375">
        <ele>3381.60009765625</ele>
        <time>2021-06-25T23:08:36.000Z</time>
        <extensions>
          <ns3:TrackPointExtension>
            <ns3:atemp>28.0</ns3:atemp>
            <ns3:hr>88</ns3:hr>
          </ns3:TrackPointExtension>
        </extensions>
      </trkpt>
      <trkpt lat="36.7977412976324558258056640625" lon="-118.40608502738177776336669921875">
        <ele>3381.60009765625</ele>
        <time>2021-06-25T23:08:39.000Z</time>
        <extensions>
          <ns3:TrackPointExtension>
            <ns3:atemp>28.0</ns3:atemp>
            <ns3:hr>89</ns3:hr>
          </ns3:TrackPointExtension>
        </extensions>
      </trkpt>
      <trkpt lat="36.79780860431492328643798828125" lon="-118.40603440068662166595458984375">
        <ele>3380.800048828125</ele>
        <time>2021-06-25T23:08:47.000Z</time>
        <extensions>
          <ns3:TrackPointExtension>
            <ns3:atemp>28.0</ns3:atemp>
            <ns3:hr>89</ns3:hr>
          </ns3:TrackPointExtension>
        </extensions>
      </trkpt>
      <trkpt lat="36.79783307947218418121337890625" lon="-118.40600506402552127838134765625">
        <ele>3380.39990234375</ele>
        <time>2021-06-25T23:08:50.000Z</time>
        <extensions>
          <ns3:TrackPointExtension>
            <ns3:atemp>28.0</ns3:atemp>
            <ns3:hr>91</ns3:hr>
          </ns3:TrackPointExtension>
        </extensions>
      </trkpt>
      <trkpt lat="36.79782486520707607269287109375" lon="-118.40594706125557422637939453125">
        <ele>3379.800048828125</ele>
        <time>2021-06-25T23:08:56.000Z</time>
        <extensions>
          <ns3:TrackPointExtension>
            <ns3:atemp>28.0</ns3:atemp>
            <ns3:hr>90</ns3:hr>
          </ns3:TrackPointExtension>
        </extensions>
      </trkpt>
      <trkpt lat="36.79781279526650905609130859375" lon="-118.40593733824789524078369140625">
        <ele>3379.39990234375</ele>
        <time>2021-06-25T23:08:57.000Z</time>
        <extensions>
          <ns3:TrackPointExtension>
            <ns3:atemp>28.0</ns3:atemp>
            <ns3:hr>92</ns3:hr>
          </ns3:TrackPointExtension>
        </extensions>
      </trkpt>
      <trkpt lat="36.79780424572527408599853515625" lon="-118.40593063272535800933837890625">
        <ele>3379.39990234375</ele>
        <time>2021-06-25T23:08:58.000Z</time>
        <extensions>
          <ns3:TrackPointExtension>
            <ns3:atemp>28.0</ns3:atemp>
            <ns3:hr>89</ns3:hr>
          </ns3:TrackPointExtension>
        </extensions>
      </trkpt>
      <trkpt lat="36.797793097794055938720703125" lon="-118.405912779271602630615234375">
        <ele>3378.39990234375</ele>
        <time>2021-06-25T23:09:01.000Z</time>
        <extensions>
          <ns3:TrackPointExtension>
            <ns3:atemp>28.0</ns3:atemp>
            <ns3:hr>90</ns3:hr>
          </ns3:TrackPointExtension>
        </extensions>
      </trkpt>
      <trkpt lat="36.79778044112026691436767578125" lon="-118.40589341707527637481689453125">
        <ele>3378.199951171875</ele>
        <time>2021-06-25T23:09:03.000Z</time>
        <extensions>
          <ns3:TrackPointExtension>
            <ns3:atemp>28.0</ns3:atemp>
            <ns3:hr>90</ns3:hr>
          </ns3:TrackPointExtension>
        </extensions>
      </trkpt>
      <trkpt lat="36.7977610789239406585693359375" lon="-118.4059109352529048919677734375">
        <ele>3378</ele>
        <time>2021-06-25T23:09:08.000Z</time>
        <extensions>
          <ns3:TrackPointExtension>
            <ns3:atemp>28.0</ns3:atemp>
            <ns3:hr>90</ns3:hr>
          </ns3:TrackPointExtension>
        </extensions>
      </trkpt>
      <trkpt lat="36.7977617494761943817138671875" lon="-118.4059240110218524932861328125">
        <ele>3377.800048828125</ele>
        <time>2021-06-25T23:09:11.000Z</time>
        <extensions>
          <ns3:TrackPointExtension>
            <ns3:atemp>28.0</ns3:atemp>
            <ns3:hr>90</ns3:hr>
          </ns3:TrackPointExtension>
        </extensions>
      </trkpt>
      <trkpt lat="36.7977708019316196441650390625" lon="-118.4059116058051586151123046875">
        <ele>3377.800048828125</ele>
        <time>2021-06-25T23:09:17.000Z</time>
        <extensions>
          <ns3:TrackPointExtension>
            <ns3:atemp>28.0</ns3:atemp>
            <ns3:hr>93</ns3:hr>
          </ns3:TrackPointExtension>
        </extensions>
      </trkpt>
      <trkpt lat="36.79775127209722995758056640625" lon="-118.4058837778866291046142578125">
        <ele>3377.60009765625</ele>
        <time>2021-06-25T23:09:21.000Z</time>
        <extensions>
          <ns3:TrackPointExtension>
            <ns3:atemp>28.0</ns3:atemp>
            <ns3:hr>93</ns3:hr>
          </ns3:TrackPointExtension>
        </extensions>
      </trkpt>
      <trkpt lat="36.7977082729339599609375" lon="-118.40587631799280643463134765625">
        <ele>3377.199951171875</ele>
        <time>2021-06-25T23:09:26.000Z</time>
        <extensions>
          <ns3:TrackPointExtension>
            <ns3:atemp>28.0</ns3:atemp>
            <ns3:hr>95</ns3:hr>
          </ns3:TrackPointExtension>
        </extensions>
      </trkpt>
      <trkpt lat="36.79770031012594699859619140625" lon="-118.405875228345394134521484375">
        <ele>3377.199951171875</ele>
        <time>2021-06-25T23:09:27.000Z</time>
        <extensions>
          <ns3:TrackPointExtension>
            <ns3:atemp>28.0</ns3:atemp>
            <ns3:hr>94</ns3:hr>
          </ns3:TrackPointExtension>
        </extensions>
      </trkpt>
      <trkpt lat="36.7976846359670162200927734375" lon="-118.40584195218980312347412109375">
        <ele>3376.60009765625</ele>
        <time>2021-06-25T23:09:34.000Z</time>
        <extensions>
          <ns3:TrackPointExtension>
            <ns3:atemp>28.0</ns3:atemp>
            <ns3:hr>93</ns3:hr>
          </ns3:TrackPointExtension>
        </extensions>
      </trkpt>
      <trkpt lat="36.7977158166468143463134765625" lon="-118.40583172626793384552001953125">
        <ele>3375.800048828125</ele>
        <time>2021-06-25T23:09:38.000Z</time>
        <extensions>
          <ns3:TrackPointExtension>
            <ns3:atemp>28.0</ns3:atemp>
            <ns3:hr>91</ns3:hr>
          </ns3:TrackPointExtension>
        </extensions>
      </trkpt>
      <trkpt lat="36.7977302335202693939208984375" lon="-118.4058254398405551910400390625">
        <ele>3375.800048828125</ele>
        <time>2021-06-25T23:09:40.000Z</time>
        <extensions>
          <ns3:TrackPointExtension>
            <ns3:atemp>28.0</ns3:atemp>
            <ns3:hr>89</ns3:hr>
          </ns3:TrackPointExtension>
        </extensions>
      </trkpt>
      <trkpt lat="36.797748170793056488037109375" lon="-118.40581999160349369049072265625">
        <ele>3375.800048828125</ele>
        <time>2021-06-25T23:09:42.000Z</time>
        <extensions>
          <ns3:TrackPointExtension>
            <ns3:atemp>28.0</ns3:atemp>
            <ns3:hr>89</ns3:hr>
          </ns3:TrackPointExtension>
        </extensions>
      </trkpt>
      <trkpt lat="36.7977610789239406585693359375" lon="-118.40580725111067295074462890625">
        <ele>3375.800048828125</ele>
        <time>2021-06-25T23:09:44.000Z</time>
        <extensions>
          <ns3:TrackPointExtension>
            <ns3:atemp>28.0</ns3:atemp>
            <ns3:hr>88</ns3:hr>
          </ns3:TrackPointExtension>
        </extensions>
      </trkpt>
      <trkpt lat="36.797781027853488922119140625" lon="-118.4057744778692722320556640625">
        <ele>3375.199951171875</ele>
        <time>2021-06-25T23:09:48.000Z</time>
        <extensions>
          <ns3:TrackPointExtension>
            <ns3:atemp>28.0</ns3:atemp>
            <ns3:hr>86</ns3:hr>
          </ns3:TrackPointExtension>
        </extensions>
      </trkpt>
      <trkpt lat="36.79779452271759510040283203125" lon="-118.4057610668241977691650390625">
        <ele>3374.800048828125</ele>
        <time>2021-06-25T23:09:50.000Z</time>
        <extensions>
          <ns3:TrackPointExtension>
            <ns3:atemp>28.0</ns3:atemp>
            <ns3:hr>86</ns3:hr>
          </ns3:TrackPointExtension>
        </extensions>
      </trkpt>
      <trkpt lat="36.79781011305749416351318359375" lon="-118.405749835073947906494140625">
        <ele>3374.60009765625</ele>
        <time>2021-06-25T23:09:52.000Z</time>
        <extensions>
          <ns3:TrackPointExtension>
            <ns3:atemp>28.0</ns3:atemp>
            <ns3:hr>89</ns3:hr>
          </ns3:TrackPointExtension>
        </extensions>
      </trkpt>
      <trkpt lat="36.79783626459538936614990234375" lon="-118.405726365745067596435546875">
        <ele>3373.60009765625</ele>
        <time>2021-06-25T23:09:56.000Z</time>
        <extensions>
          <ns3:TrackPointExtension>
            <ns3:atemp>28.0</ns3:atemp>
            <ns3:hr>90</ns3:hr>
          </ns3:TrackPointExtension>
        </extensions>
      </trkpt>
      <trkpt lat="36.7978370189666748046875" lon="-118.40571396052837371826171875">
        <ele>3373.60009765625</ele>
        <time>2021-06-25T23:09:57.000Z</time>
        <extensions>
          <ns3:TrackPointExtension>
            <ns3:atemp>28.0</ns3:atemp>
            <ns3:hr>91</ns3:hr>
          </ns3:TrackPointExtension>
        </extensions>
      </trkpt>
      <trkpt lat="36.79787247441709041595458984375" lon="-118.40569225139915943145751953125">
        <ele>3373</ele>
        <time>2021-06-25T23:10:01.000Z</time>
        <extensions>
          <ns3:TrackPointExtension>
            <ns3:atemp>28.0</ns3:atemp>
            <ns3:hr>88</ns3:hr>
          </ns3:TrackPointExtension>
        </extensions>
      </trkpt>
      <trkpt lat="36.79788890294730663299560546875" lon="-118.4056812711060047149658203125">
        <ele>3373</ele>
        <time>2021-06-25T23:10:03.000Z</time>
        <extensions>
          <ns3:TrackPointExtension>
            <ns3:atemp>28.0</ns3:atemp>
            <ns3:hr>88</ns3:hr>
          </ns3:TrackPointExtension>
        </extensions>
      </trkpt>
      <trkpt lat="36.79789803922176361083984375" lon="-118.40567649342119693756103515625">
        <ele>3372.39990234375</ele>
        <time>2021-06-25T23:10:04.000Z</time>
        <extensions>
          <ns3:TrackPointExtension>
            <ns3:atemp>28.0</ns3:atemp>
            <ns3:hr>87</ns3:hr>
          </ns3:TrackPointExtension>
        </extensions>
      </trkpt>
      <trkpt lat="36.79790734313428401947021484375" lon="-118.40567045845091342926025390625">
        <ele>3372.39990234375</ele>
        <time>2021-06-25T23:10:05.000Z</time>
        <extensions>
          <ns3:TrackPointExtension>
            <ns3:atemp>28.0</ns3:atemp>
            <ns3:hr>88</ns3:hr>
          </ns3:TrackPointExtension>
        </extensions>
      </trkpt>
      <trkpt lat="36.79795428179204463958740234375" lon="-118.40562343597412109375">
        <ele>3371.39990234375</ele>
        <time>2021-06-25T23:10:12.000Z</time>
        <extensions>
          <ns3:TrackPointExtension>
            <ns3:atemp>28.0</ns3:atemp>
            <ns3:hr>88</ns3:hr>
          </ns3:TrackPointExtension>
        </extensions>
      </trkpt>
      <trkpt lat="36.79797314107418060302734375" lon="-118.40559854172170162200927734375">
        <ele>3370.60009765625</ele>
        <time>2021-06-25T23:10:15.000Z</time>
        <extensions>
          <ns3:TrackPointExtension>
            <ns3:atemp>28.0</ns3:atemp>
            <ns3:hr>88</ns3:hr>
          </ns3:TrackPointExtension>
        </extensions>
      </trkpt>
      <trkpt lat="36.7979863844811916351318359375" lon="-118.405572138726711273193359375">
        <ele>3370.39990234375</ele>
        <time>2021-06-25T23:10:18.000Z</time>
        <extensions>
          <ns3:TrackPointExtension>
            <ns3:atemp>28.0</ns3:atemp>
            <ns3:hr>90</ns3:hr>
          </ns3:TrackPointExtension>
        </extensions>
      </trkpt>
      <trkpt lat="36.79800038225948810577392578125" lon="-118.40555344708263874053955078125">
        <ele>3370</ele>
        <time>2021-06-25T23:10:22.000Z</time>
        <extensions>
          <ns3:TrackPointExtension>
            <ns3:atemp>28.0</ns3:atemp>
            <ns3:hr>91</ns3:hr>
          </ns3:TrackPointExtension>
        </extensions>
      </trkpt>
      <trkpt lat="36.798004992306232452392578125" lon="-118.4055464901030063629150390625">
        <ele>3369.60009765625</ele>
        <time>2021-06-25T23:10:23.000Z</time>
        <extensions>
          <ns3:TrackPointExtension>
            <ns3:atemp>28.0</ns3:atemp>
            <ns3:hr>91</ns3:hr>
          </ns3:TrackPointExtension>
        </extensions>
      </trkpt>
      <trkpt lat="36.7980135418474674224853515625" lon="-118.4055340848863124847412109375">
        <ele>3369.199951171875</ele>
        <time>2021-06-25T23:10:25.000Z</time>
        <extensions>
          <ns3:TrackPointExtension>
            <ns3:atemp>28.0</ns3:atemp>
            <ns3:hr>91</ns3:hr>
          </ns3:TrackPointExtension>
        </extensions>
      </trkpt>
      <trkpt lat="36.79802485741674900054931640625" lon="-118.40552947483956813812255859375">
        <ele>3368.60009765625</ele>
        <time>2021-06-25T23:10:27.000Z</time>
        <extensions>
          <ns3:TrackPointExtension>
            <ns3:atemp>28.0</ns3:atemp>
            <ns3:hr>92</ns3:hr>
          </ns3:TrackPointExtension>
        </extensions>
      </trkpt>
      <trkpt lat="36.79803307168185710906982421875" lon="-118.40552151203155517578125">
        <ele>3368.60009765625</ele>
        <time>2021-06-25T23:10:29.000Z</time>
        <extensions>
          <ns3:TrackPointExtension>
            <ns3:atemp>28.0</ns3:atemp>
            <ns3:hr>92</ns3:hr>
          </ns3:TrackPointExtension>
        </extensions>
      </trkpt>
      <trkpt lat="36.79803726263344287872314453125" lon="-118.40551606379449367523193359375">
        <ele>3367.800048828125</ele>
        <time>2021-06-25T23:10:30.000Z</time>
        <extensions>
          <ns3:TrackPointExtension>
            <ns3:atemp>28.0</ns3:atemp>
            <ns3:hr>92</ns3:hr>
          </ns3:TrackPointExtension>
        </extensions>
      </trkpt>
      <trkpt lat="36.79805184714496135711669921875" lon="-118.4055032394826412200927734375">
        <ele>3367.60009765625</ele>
        <time>2021-06-25T23:10:33.000Z</time>
        <extensions>
          <ns3:TrackPointExtension>
            <ns3:atemp>28.0</ns3:atemp>
            <ns3:hr>93</ns3:hr>
          </ns3:TrackPointExtension>
        </extensions>
      </trkpt>
      <trkpt lat="36.7980879731476306915283203125" lon="-118.40547985397279262542724609375">
        <ele>3366.39990234375</ele>
        <time>2021-06-25T23:10:39.000Z</time>
        <extensions>
          <ns3:TrackPointExtension>
            <ns3:atemp>28.0</ns3:atemp>
            <ns3:hr>91</ns3:hr>
          </ns3:TrackPointExtension>
        </extensions>
      </trkpt>
      <trkpt lat="36.7980913259088993072509765625" lon="-118.40547717176377773284912109375">
        <ele>3365.60009765625</ele>
        <time>2021-06-25T23:10:40.000Z</time>
        <extensions>
          <ns3:TrackPointExtension>
            <ns3:atemp>28.0</ns3:atemp>
            <ns3:hr>91</ns3:hr>
          </ns3:TrackPointExtension>
        </extensions>
      </trkpt>
      <trkpt lat="36.798103563487529754638671875" lon="-118.4054609946906566619873046875">
        <ele>3365.39990234375</ele>
        <time>2021-06-25T23:10:43.000Z</time>
        <extensions>
          <ns3:TrackPointExtension>
            <ns3:atemp>28.0</ns3:atemp>
            <ns3:hr>92</ns3:hr>
          </ns3:TrackPointExtension>
        </extensions>
      </trkpt>
      <trkpt lat="36.7981080897152423858642578125" lon="-118.40545973740518093109130859375">
        <ele>3365.199951171875</ele>
        <time>2021-06-25T23:10:44.000Z</time>
        <extensions>
          <ns3:TrackPointExtension>
            <ns3:atemp>28.0</ns3:atemp>
            <ns3:hr>92</ns3:hr>
          </ns3:TrackPointExtension>
        </extensions>
      </trkpt>
      <trkpt lat="36.798114962875843048095703125" lon="-118.40545370243489742279052734375">
        <ele>3365.39990234375</ele>
        <time>2021-06-25T23:10:47.000Z</time>
        <extensions>
          <ns3:TrackPointExtension>
            <ns3:atemp>28.0</ns3:atemp>
            <ns3:hr>92</ns3:hr>
          </ns3:TrackPointExtension>
        </extensions>
      </trkpt>
      <trkpt lat="36.79813449271023273468017578125" lon="-118.40543040074408054351806640625">
        <ele>3364.800048828125</ele>
        <time>2021-06-25T23:10:54.000Z</time>
        <extensions>
          <ns3:TrackPointExtension>
            <ns3:atemp>28.0</ns3:atemp>
            <ns3:hr>91</ns3:hr>
          </ns3:TrackPointExtension>
        </extensions>
      </trkpt>
      <trkpt lat="36.7981345765292644500732421875" lon="-118.40543308295309543609619140625">
        <ele>3364.60009765625</ele>
        <time>2021-06-25T23:11:06.000Z</time>
        <extensions>
          <ns3:TrackPointExtension>
            <ns3:atemp>28.0</ns3:atemp>
            <ns3:hr>94</ns3:hr>
          </ns3:TrackPointExtension>
        </extensions>
      </trkpt>
      <trkpt lat="36.79811873473227024078369140625" lon="-118.4054428897798061370849609375">
        <ele>3364.199951171875</ele>
        <time>2021-06-25T23:11:10.000Z</time>
        <extensions>
          <ns3:TrackPointExtension>
            <ns3:atemp>28.0</ns3:atemp>
            <ns3:hr>92</ns3:hr>
          </ns3:TrackPointExtension>
        </extensions>
      </trkpt>
      <trkpt lat="36.79811529815196990966796875" lon="-118.4054492600262165069580078125">
        <ele>3364.199951171875</ele>
        <time>2021-06-25T23:11:13.000Z</time>
        <extensions>
          <ns3:TrackPointExtension>
            <ns3:atemp>28.0</ns3:atemp>
            <ns3:hr>89</ns3:hr>
          </ns3:TrackPointExtension>
        </extensions>
      </trkpt>
      <trkpt lat="36.7981087602674961090087890625" lon="-118.40545889921486377716064453125">
        <ele>3363.800048828125</ele>
        <time>2021-06-25T23:11:29.000Z</time>
        <extensions>
          <ns3:TrackPointExtension>
            <ns3:atemp>28.0</ns3:atemp>
            <ns3:hr>92</ns3:hr>
          </ns3:TrackPointExtension>
        </extensions>
      </trkpt>
      <trkpt lat="36.79810850881040096282958984375" lon="-118.40545839630067348480224609375">
        <ele>3363.800048828125</ele>
        <time>2021-06-25T23:11:31.000Z</time>
        <extensions>
          <ns3:TrackPointExtension>
            <ns3:atemp>28.0</ns3:atemp>
            <ns3:hr>93</ns3:hr>
          </ns3:TrackPointExtension>
        </extensions>
      </trkpt>
      <trkpt lat="36.798104234039783477783203125" lon="-118.40546057559549808502197265625">
        <ele>3364</ele>
        <time>2021-06-25T23:11:40.000Z</time>
        <extensions>
          <ns3:TrackPointExtension>
            <ns3:atemp>28.0</ns3:atemp>
            <ns3:hr>90</ns3:hr>
          </ns3:TrackPointExtension>
        </extensions>
      </trkpt>
      <trkpt lat="36.79810331203043460845947265625" lon="-118.40546191670000553131103515625">
        <ele>3363.800048828125</ele>
        <time>2021-06-25T23:11:43.000Z</time>
        <extensions>
          <ns3:TrackPointExtension>
            <ns3:atemp>28.0</ns3:atemp>
            <ns3:hr>87</ns3:hr>
          </ns3:TrackPointExtension>
        </extensions>
      </trkpt>
      <trkpt lat="36.7981030605733394622802734375" lon="-118.4054625034332275390625">
        <ele>3363.800048828125</ele>
        <time>2021-06-25T23:11:45.000Z</time>
        <extensions>
          <ns3:TrackPointExtension>
            <ns3:atemp>28.0</ns3:atemp>
            <ns3:hr>84</ns3:hr>
          </ns3:TrackPointExtension>
        </extensions>
      </trkpt>
      <trkpt lat="36.7980990372598171234130859375" lon="-118.40548119507730007171630859375">
        <ele>3363.800048828125</ele>
        <time>2021-06-25T23:11:50.000Z</time>
        <extensions>
          <ns3:TrackPointExtension>
            <ns3:atemp>28.0</ns3:atemp>
            <ns3:hr>81</ns3:hr>
          </ns3:TrackPointExtension>
        </extensions>
      </trkpt>
      <trkpt lat="36.7980990372598171234130859375" lon="-118.40548463165760040283203125">
        <ele>3363.199951171875</ele>
        <time>2021-06-25T23:11:53.000Z</time>
        <extensions>
          <ns3:TrackPointExtension>
            <ns3:atemp>28.0</ns3:atemp>
            <ns3:hr>82</ns3:hr>
          </ns3:TrackPointExtension>
        </extensions>
      </trkpt>
      <trkpt lat="36.7980990372598171234130859375" lon="-118.40548957698047161102294921875">
        <ele>3363.39990234375</ele>
        <time>2021-06-25T23:11:58.000Z</time>
        <extensions>
          <ns3:TrackPointExtension>
            <ns3:atemp>28.0</ns3:atemp>
            <ns3:hr>79</ns3:hr>
          </ns3:TrackPointExtension>
        </extensions>
      </trkpt>
      <trkpt lat="36.79810163564980030059814453125" lon="-118.405514471232891082763671875">
        <ele>3363.60009765625</ele>
        <time>2021-06-25T23:12:03.000Z</time>
        <extensions>
          <ns3:TrackPointExtension>
            <ns3:atemp>28.0</ns3:atemp>
            <ns3:hr>76</ns3:hr>
          </ns3:TrackPointExtension>
        </extensions>
      </trkpt>
      <trkpt lat="36.79810934700071811676025390625" lon="-118.4055119566619396209716796875">
        <ele>3363.199951171875</ele>
        <time>2021-06-25T23:12:23.000Z</time>
        <extensions>
          <ns3:TrackPointExtension>
            <ns3:atemp>28.0</ns3:atemp>
            <ns3:hr>79</ns3:hr>
          </ns3:TrackPointExtension>
        </extensions>
      </trkpt>
      <trkpt lat="36.7981374263763427734375" lon="-118.4054133854806423187255859375">
        <ele>3362</ele>
        <time>2021-06-25T23:12:44.000Z</time>
        <extensions>
          <ns3:TrackPointExtension>
            <ns3:atemp>28.0</ns3:atemp>
            <ns3:hr>78</ns3:hr>
          </ns3:TrackPointExtension>
        </extensions>
      </trkpt>
      <trkpt lat="36.7982006259262561798095703125" lon="-118.40533015318214893341064453125">
        <ele>3362.199951171875</ele>
        <time>2021-06-25T23:12:50.000Z</time>
        <extensions>
          <ns3:TrackPointExtension>
            <ns3:atemp>28.0</ns3:atemp>
            <ns3:hr>80</ns3:hr>
          </ns3:TrackPointExtension>
        </extensions>
      </trkpt>
      <trkpt lat="36.798218898475170135498046875" lon="-118.4053082764148712158203125">
        <ele>3362</ele>
        <time>2021-06-25T23:12:53.000Z</time>
        <extensions>
          <ns3:TrackPointExtension>
            <ns3:atemp>28.0</ns3:atemp>
            <ns3:hr>81</ns3:hr>
          </ns3:TrackPointExtension>
        </extensions>
      </trkpt>
      <trkpt lat="36.7982499115169048309326171875" lon="-118.40527349151670932769775390625">
        <ele>3361.60009765625</ele>
        <time>2021-06-25T23:12:57.000Z</time>
        <extensions>
          <ns3:TrackPointExtension>
            <ns3:atemp>28.0</ns3:atemp>
            <ns3:hr>79</ns3:hr>
          </ns3:TrackPointExtension>
        </extensions>
      </trkpt>
      <trkpt lat="36.79826340638101100921630859375" lon="-118.40526603162288665771484375">
        <ele>3360.800048828125</ele>
        <time>2021-06-25T23:12:58.000Z</time>
        <extensions>
          <ns3:TrackPointExtension>
            <ns3:atemp>28.0</ns3:atemp>
            <ns3:hr>78</ns3:hr>
          </ns3:TrackPointExtension>
        </extensions>
      </trkpt>
      <trkpt lat="36.798287294805049896240234375" lon="-118.40524331666529178619384765625">
        <ele>3360.199951171875</ele>
        <time>2021-06-25T23:13:01.000Z</time>
        <extensions>
          <ns3:TrackPointExtension>
            <ns3:atemp>28.0</ns3:atemp>
            <ns3:hr>76</ns3:hr>
          </ns3:TrackPointExtension>
        </extensions>
      </trkpt>
      <trkpt lat="36.7983551882207393646240234375" lon="-118.40518891811370849609375">
        <ele>3359.800048828125</ele>
        <time>2021-06-25T23:13:09.000Z</time>
        <extensions>
          <ns3:TrackPointExtension>
            <ns3:atemp>28.0</ns3:atemp>
            <ns3:hr>79</ns3:hr>
          </ns3:TrackPointExtension>
        </extensions>
      </trkpt>
      <trkpt lat="36.7983628995716571807861328125" lon="-118.405187241733074188232421875">
        <ele>3359.800048828125</ele>
        <time>2021-06-25T23:13:10.000Z</time>
        <extensions>
          <ns3:TrackPointExtension>
            <ns3:atemp>28.0</ns3:atemp>
            <ns3:hr>79</ns3:hr>
          </ns3:TrackPointExtension>
        </extensions>
      </trkpt>
      <trkpt lat="36.79837136529386043548583984375" lon="-118.40518430806696414947509765625">
        <ele>3358.60009765625</ele>
        <time>2021-06-25T23:13:11.000Z</time>
        <extensions>
          <ns3:TrackPointExtension>
            <ns3:atemp>28.0</ns3:atemp>
            <ns3:hr>79</ns3:hr>
          </ns3:TrackPointExtension>
        </extensions>
      </trkpt>
      <trkpt lat="36.79840564727783203125" lon="-118.40517492033541202545166015625">
        <ele>3357.39990234375</ele>
        <time>2021-06-25T23:13:15.000Z</time>
        <extensions>
          <ns3:TrackPointExtension>
            <ns3:atemp>27.0</ns3:atemp>
            <ns3:hr>81</ns3:hr>
          </ns3:TrackPointExtension>
        </extensions>
      </trkpt>
      <trkpt lat="36.79841578938066959381103515625" lon="-118.40517324395477771759033203125">
        <ele>3357.199951171875</ele>
        <time>2021-06-25T23:13:16.000Z</time>
        <extensions>
          <ns3:TrackPointExtension>
            <ns3:atemp>27.0</ns3:atemp>
            <ns3:hr>80</ns3:hr>
          </ns3:TrackPointExtension>
        </extensions>
      </trkpt>
      <trkpt lat="36.79843104444444179534912109375" lon="-118.4051666222512722015380859375">
        <ele>3356.800048828125</ele>
        <time>2021-06-25T23:13:18.000Z</time>
        <extensions>
          <ns3:TrackPointExtension>
            <ns3:atemp>27.0</ns3:atemp>
            <ns3:hr>79</ns3:hr>
          </ns3:TrackPointExtension>
        </extensions>
      </trkpt>
      <trkpt lat="36.79846758954226970672607421875" lon="-118.4051558934152126312255859375">
        <ele>3356.199951171875</ele>
        <time>2021-06-25T23:13:22.000Z</time>
        <extensions>
          <ns3:TrackPointExtension>
            <ns3:atemp>27.0</ns3:atemp>
            <ns3:hr>76</ns3:hr>
          </ns3:TrackPointExtension>
        </extensions>
      </trkpt>
      <trkpt lat="36.7984862811863422393798828125" lon="-118.4051414765417575836181640625">
        <ele>3355.199951171875</ele>
        <time>2021-06-25T23:13:25.000Z</time>
        <extensions>
          <ns3:TrackPointExtension>
            <ns3:atemp>27.0</ns3:atemp>
            <ns3:hr>74</ns3:hr>
          </ns3:TrackPointExtension>
        </extensions>
      </trkpt>
      <trkpt lat="36.7985436134040355682373046875" lon="-118.40509009547531604766845703125">
        <ele>3354.39990234375</ele>
        <time>2021-06-25T23:13:32.000Z</time>
        <extensions>
          <ns3:TrackPointExtension>
            <ns3:atemp>27.0</ns3:atemp>
            <ns3:hr>73</ns3:hr>
          </ns3:TrackPointExtension>
        </extensions>
      </trkpt>
      <trkpt lat="36.79853766225278377532958984375" lon="-118.4050677157938480377197265625">
        <ele>3354.39990234375</ele>
        <time>2021-06-25T23:13:34.000Z</time>
        <extensions>
          <ns3:TrackPointExtension>
            <ns3:atemp>27.0</ns3:atemp>
            <ns3:hr>72</ns3:hr>
          </ns3:TrackPointExtension>
        </extensions>
      </trkpt>
      <trkpt lat="36.79853028617799282073974609375" lon="-118.40505992062389850616455078125">
        <ele>3354</ele>
        <time>2021-06-25T23:13:35.000Z</time>
        <extensions>
          <ns3:TrackPointExtension>
            <ns3:atemp>27.0</ns3:atemp>
            <ns3:hr>71</ns3:hr>
          </ns3:TrackPointExtension>
        </extensions>
      </trkpt>
      <trkpt lat="36.798515617847442626953125" lon="-118.40505237691104412078857421875">
        <ele>3353.800048828125</ele>
        <time>2021-06-25T23:13:37.000Z</time>
        <extensions>
          <ns3:TrackPointExtension>
            <ns3:atemp>27.0</ns3:atemp>
            <ns3:hr>71</ns3:hr>
          </ns3:TrackPointExtension>
        </extensions>
      </trkpt>
      <trkpt lat="36.7984591238200664520263671875" lon="-118.40501750819385051727294921875">
        <ele>3353</ele>
        <time>2021-06-25T23:13:43.000Z</time>
        <extensions>
          <ns3:TrackPointExtension>
            <ns3:atemp>27.0</ns3:atemp>
            <ns3:hr>69</ns3:hr>
          </ns3:TrackPointExtension>
        </extensions>
      </trkpt>
      <trkpt lat="36.79844386875629425048828125" lon="-118.405006863176822662353515625">
        <ele>3352.60009765625</ele>
        <time>2021-06-25T23:13:45.000Z</time>
        <extensions>
          <ns3:TrackPointExtension>
            <ns3:atemp>27.0</ns3:atemp>
            <ns3:hr>73</ns3:hr>
          </ns3:TrackPointExtension>
        </extensions>
      </trkpt>
      <trkpt lat="36.798434816300868988037109375" lon="-118.4050013311207294464111328125">
        <ele>3352.39990234375</ele>
        <time>2021-06-25T23:13:46.000Z</time>
        <extensions>
          <ns3:TrackPointExtension>
            <ns3:atemp>27.0</ns3:atemp>
            <ns3:hr>73</ns3:hr>
          </ns3:TrackPointExtension>
        </extensions>
      </trkpt>
      <trkpt lat="36.7983846925199031829833984375" lon="-118.40498481877148151397705078125">
        <ele>3352</ele>
        <time>2021-06-25T23:13:51.000Z</time>
        <extensions>
          <ns3:TrackPointExtension>
            <ns3:atemp>27.0</ns3:atemp>
            <ns3:hr>73</ns3:hr>
          </ns3:TrackPointExtension>
        </extensions>
      </trkpt>
      <trkpt lat="36.798376142978668212890625" lon="-118.40497928671538829803466796875">
        <ele>3352</ele>
        <time>2021-06-25T23:13:52.000Z</time>
        <extensions>
          <ns3:TrackPointExtension>
            <ns3:atemp>27.0</ns3:atemp>
            <ns3:hr>76</ns3:hr>
          </ns3:TrackPointExtension>
        </extensions>
      </trkpt>
      <trkpt lat="36.79837086237967014312744140625" lon="-118.40497660450637340545654296875">
        <ele>3351.800048828125</ele>
        <time>2021-06-25T23:13:53.000Z</time>
        <extensions>
          <ns3:TrackPointExtension>
            <ns3:atemp>27.0</ns3:atemp>
            <ns3:hr>73</ns3:hr>
          </ns3:TrackPointExtension>
        </extensions>
      </trkpt>
      <trkpt lat="36.798355691134929656982421875" lon="-118.40496369637548923492431640625">
        <ele>3351</ele>
        <time>2021-06-25T23:13:55.000Z</time>
        <extensions>
          <ns3:TrackPointExtension>
            <ns3:atemp>27.0</ns3:atemp>
            <ns3:hr>74</ns3:hr>
          </ns3:TrackPointExtension>
        </extensions>
      </trkpt>
      <trkpt lat="36.798304058611392974853515625" lon="-118.404943831264972686767578125">
        <ele>3350</ele>
        <time>2021-06-25T23:14:00.000Z</time>
        <extensions>
          <ns3:TrackPointExtension>
            <ns3:atemp>27.0</ns3:atemp>
            <ns3:hr>72</ns3:hr>
          </ns3:TrackPointExtension>
        </extensions>
      </trkpt>
      <trkpt lat="36.79829458706080913543701171875" lon="-118.40494089759886264801025390625">
        <ele>3349.800048828125</ele>
        <time>2021-06-25T23:14:01.000Z</time>
        <extensions>
          <ns3:TrackPointExtension>
            <ns3:atemp>27.0</ns3:atemp>
            <ns3:hr>71</ns3:hr>
          </ns3:TrackPointExtension>
        </extensions>
      </trkpt>
      <trkpt lat="36.79827832616865634918212890625" lon="-118.40493343770503997802734375">
        <ele>3349.60009765625</ele>
        <time>2021-06-25T23:14:03.000Z</time>
        <extensions>
          <ns3:TrackPointExtension>
            <ns3:atemp>27.0</ns3:atemp>
            <ns3:hr>69</ns3:hr>
          </ns3:TrackPointExtension>
        </extensions>
      </trkpt>
      <trkpt lat="36.79827430285513401031494140625" lon="-118.40492631308734416961669921875">
        <ele>3348.800048828125</ele>
        <time>2021-06-25T23:14:04.000Z</time>
        <extensions>
          <ns3:TrackPointExtension>
            <ns3:atemp>27.0</ns3:atemp>
            <ns3:hr>68</ns3:hr>
          </ns3:TrackPointExtension>
        </extensions>
      </trkpt>
      <trkpt lat="36.798271872103214263916015625" lon="-118.40491943992674350738525390625">
        <ele>3348.60009765625</ele>
        <time>2021-06-25T23:14:05.000Z</time>
        <extensions>
          <ns3:TrackPointExtension>
            <ns3:atemp>27.0</ns3:atemp>
            <ns3:hr>67</ns3:hr>
          </ns3:TrackPointExtension>
        </extensions>
      </trkpt>
      <trkpt lat="36.79827623069286346435546875" lon="-118.4049151651561260223388671875">
        <ele>3348.199951171875</ele>
        <time>2021-06-25T23:14:06.000Z</time>
        <extensions>
          <ns3:TrackPointExtension>
            <ns3:atemp>27.0</ns3:atemp>
            <ns3:hr>66</ns3:hr>
          </ns3:TrackPointExtension>
        </extensions>
      </trkpt>
      <trkpt lat="36.79830372333526611328125" lon="-118.4049007482826709747314453125">
        <ele>3348</ele>
        <time>2021-06-25T23:14:09.000Z</time>
        <extensions>
          <ns3:TrackPointExtension>
            <ns3:atemp>27.0</ns3:atemp>
            <ns3:hr>63</ns3:hr>
          </ns3:TrackPointExtension>
        </extensions>
      </trkpt>
      <trkpt lat="36.79836968891322612762451171875" lon="-118.40487652458250522613525390625">
        <ele>3347.60009765625</ele>
        <time>2021-06-25T23:14:17.000Z</time>
        <extensions>
          <ns3:TrackPointExtension>
            <ns3:atemp>28.0</ns3:atemp>
            <ns3:hr>60</ns3:hr>
          </ns3:TrackPointExtension>
        </extensions>
      </trkpt>
      <trkpt lat="36.79838486015796661376953125" lon="-118.4048839844763278961181640625">
        <ele>3347.60009765625</ele>
        <time>2021-06-25T23:14:18.000Z</time>
        <extensions>
          <ns3:TrackPointExtension>
            <ns3:atemp>28.0</ns3:atemp>
            <ns3:hr>63</ns3:hr>
          </ns3:TrackPointExtension>
        </extensions>
      </trkpt>
      <trkpt lat="36.79840807802975177764892578125" lon="-118.40488574467599391937255859375">
        <ele>3347.199951171875</ele>
        <time>2021-06-25T23:14:20.000Z</time>
        <extensions>
          <ns3:TrackPointExtension>
            <ns3:atemp>28.0</ns3:atemp>
            <ns3:hr>64</ns3:hr>
          </ns3:TrackPointExtension>
        </extensions>
      </trkpt>
      <trkpt lat="36.7984299547970294952392578125" lon="-118.40487778186798095703125">
        <ele>3347.199951171875</ele>
        <time>2021-06-25T23:14:23.000Z</time>
        <extensions>
          <ns3:TrackPointExtension>
            <ns3:atemp>28.0</ns3:atemp>
            <ns3:hr>63</ns3:hr>
          </ns3:TrackPointExtension>
        </extensions>
      </trkpt>
      <trkpt lat="36.79845057427883148193359375" lon="-118.40486227534711360931396484375">
        <ele>3346.800048828125</ele>
        <time>2021-06-25T23:14:26.000Z</time>
        <extensions>
          <ns3:TrackPointExtension>
            <ns3:atemp>28.0</ns3:atemp>
            <ns3:hr>64</ns3:hr>
          </ns3:TrackPointExtension>
        </extensions>
      </trkpt>
      <trkpt lat="36.7984789051115512847900390625" lon="-118.4048521332442760467529296875">
        <ele>3346.199951171875</ele>
        <time>2021-06-25T23:14:29.000Z</time>
        <extensions>
          <ns3:TrackPointExtension>
            <ns3:atemp>28.0</ns3:atemp>
            <ns3:hr>64</ns3:hr>
          </ns3:TrackPointExtension>
        </extensions>
      </trkpt>
      <trkpt lat="36.79851000197231769561767578125" lon="-118.40482941828668117523193359375">
        <ele>3344.800048828125</ele>
        <time>2021-06-25T23:14:33.000Z</time>
        <extensions>
          <ns3:TrackPointExtension>
            <ns3:atemp>28.0</ns3:atemp>
            <ns3:hr>66</ns3:hr>
          </ns3:TrackPointExtension>
        </extensions>
      </trkpt>
      <trkpt lat="36.79853104054927825927734375" lon="-118.40481768362224102020263671875">
        <ele>3344.60009765625</ele>
        <time>2021-06-25T23:14:36.000Z</time>
        <extensions>
          <ns3:TrackPointExtension>
            <ns3:atemp>28.0</ns3:atemp>
            <ns3:hr>66</ns3:hr>
          </ns3:TrackPointExtension>
        </extensions>
      </trkpt>
      <trkpt lat="36.79857672192156314849853515625" lon="-118.40478851459920406341552734375">
        <ele>3343.60009765625</ele>
        <time>2021-06-25T23:14:42.000Z</time>
        <extensions>
          <ns3:TrackPointExtension>
            <ns3:atemp>28.0</ns3:atemp>
            <ns3:hr>67</ns3:hr>
          </ns3:TrackPointExtension>
        </extensions>
      </trkpt>
      <trkpt lat="36.7985831759870052337646484375" lon="-118.40478591620922088623046875">
        <ele>3343.60009765625</ele>
        <time>2021-06-25T23:14:43.000Z</time>
        <extensions>
          <ns3:TrackPointExtension>
            <ns3:atemp>28.0</ns3:atemp>
            <ns3:hr>67</ns3:hr>
          </ns3:TrackPointExtension>
        </extensions>
      </trkpt>
      <trkpt lat="36.79859834723174571990966796875" lon="-118.40478583239018917083740234375">
        <ele>3343.39990234375</ele>
        <time>2021-06-25T23:14:45.000Z</time>
        <extensions>
          <ns3:TrackPointExtension>
            <ns3:atemp>28.0</ns3:atemp>
            <ns3:hr>70</ns3:hr>
          </ns3:TrackPointExtension>
        </extensions>
      </trkpt>
      <trkpt lat="36.79862215183675289154052734375" lon="-118.40478457510471343994140625">
        <ele>3343.199951171875</ele>
        <time>2021-06-25T23:14:48.000Z</time>
        <extensions>
          <ns3:TrackPointExtension>
            <ns3:atemp>28.0</ns3:atemp>
            <ns3:hr>67</ns3:hr>
          </ns3:TrackPointExtension>
        </extensions>
      </trkpt>
      <trkpt lat="36.79866104386746883392333984375" lon="-118.40479052625596523284912109375">
        <ele>3342.800048828125</ele>
        <time>2021-06-25T23:14:52.000Z</time>
        <extensions>
          <ns3:TrackPointExtension>
            <ns3:atemp>28.0</ns3:atemp>
            <ns3:hr>67</ns3:hr>
          </ns3:TrackPointExtension>
        </extensions>
      </trkpt>
      <trkpt lat="36.79866850376129150390625" lon="-118.4047901071608066558837890625">
        <ele>3342.60009765625</ele>
        <time>2021-06-25T23:14:53.000Z</time>
        <extensions>
          <ns3:TrackPointExtension>
            <ns3:atemp>28.0</ns3:atemp>
            <ns3:hr>67</ns3:hr>
          </ns3:TrackPointExtension>
        </extensions>
      </trkpt>
      <trkpt lat="36.7987078987061977386474609375" lon="-118.4047854132950305938720703125">
        <ele>3341.60009765625</ele>
        <time>2021-06-25T23:14:59.000Z</time>
        <extensions>
          <ns3:TrackPointExtension>
            <ns3:atemp>28.0</ns3:atemp>
            <ns3:hr>65</ns3:hr>
          </ns3:TrackPointExtension>
        </extensions>
      </trkpt>
      <trkpt lat="36.7987127602100372314453125" lon="-118.4047803841531276702880859375">
        <ele>3341.39990234375</ele>
        <time>2021-06-25T23:15:00.000Z</time>
        <extensions>
          <ns3:TrackPointExtension>
            <ns3:atemp>28.0</ns3:atemp>
            <ns3:hr>65</ns3:hr>
          </ns3:TrackPointExtension>
        </extensions>
      </trkpt>
      <trkpt lat="36.79874637164175510406494140625" lon="-118.404790945351123809814453125">
        <ele>3340.60009765625</ele>
        <time>2021-06-25T23:15:05.000Z</time>
        <extensions>
          <ns3:TrackPointExtension>
            <ns3:atemp>28.0</ns3:atemp>
            <ns3:hr>66</ns3:hr>
          </ns3:TrackPointExtension>
        </extensions>
      </trkpt>
      <trkpt lat="36.79875366389751434326171875" lon="-118.404790945351123809814453125">
        <ele>3340.199951171875</ele>
        <time>2021-06-25T23:15:06.000Z</time>
        <extensions>
          <ns3:TrackPointExtension>
            <ns3:atemp>28.0</ns3:atemp>
            <ns3:hr>67</ns3:hr>
          </ns3:TrackPointExtension>
        </extensions>
      </trkpt>
      <trkpt lat="36.7987816594541072845458984375" lon="-118.404790945351123809814453125">
        <ele>3339.800048828125</ele>
        <time>2021-06-25T23:15:09.000Z</time>
        <extensions>
          <ns3:TrackPointExtension>
            <ns3:atemp>28.0</ns3:atemp>
            <ns3:hr>70</ns3:hr>
          </ns3:TrackPointExtension>
        </extensions>
      </trkpt>
      <trkpt lat="36.79879683069884777069091796875" lon="-118.40478566475212574005126953125">
        <ele>3339</ele>
        <time>2021-06-25T23:15:11.000Z</time>
        <extensions>
          <ns3:TrackPointExtension>
            <ns3:atemp>28.0</ns3:atemp>
            <ns3:hr>71</ns3:hr>
          </ns3:TrackPointExtension>
        </extensions>
      </trkpt>
      <trkpt lat="36.79882801137864589691162109375" lon="-118.404767476022243499755859375">
        <ele>3338.60009765625</ele>
        <time>2021-06-25T23:15:15.000Z</time>
        <extensions>
          <ns3:TrackPointExtension>
            <ns3:atemp>28.0</ns3:atemp>
            <ns3:hr>73</ns3:hr>
          </ns3:TrackPointExtension>
        </extensions>
      </trkpt>
      <trkpt lat="36.7988443560898303985595703125" lon="-118.40475314296782016754150390625">
        <ele>3338</ele>
        <time>2021-06-25T23:15:18.000Z</time>
        <extensions>
          <ns3:TrackPointExtension>
            <ns3:atemp>28.0</ns3:atemp>
            <ns3:hr>74</ns3:hr>
          </ns3:TrackPointExtension>
        </extensions>
      </trkpt>
      <trkpt lat="36.7988906241953372955322265625" lon="-118.40475817210972309112548828125">
        <ele>3336.800048828125</ele>
        <time>2021-06-25T23:15:23.000Z</time>
        <extensions>
          <ns3:TrackPointExtension>
            <ns3:atemp>28.0</ns3:atemp>
            <ns3:hr>75</ns3:hr>
          </ns3:TrackPointExtension>
        </extensions>
      </trkpt>
      <trkpt lat="36.79889984428882598876953125" lon="-118.4047599323093891143798828125">
        <ele>3336.60009765625</ele>
        <time>2021-06-25T23:15:24.000Z</time>
        <extensions>
          <ns3:TrackPointExtension>
            <ns3:atemp>28.0</ns3:atemp>
            <ns3:hr>75</ns3:hr>
          </ns3:TrackPointExtension>
        </extensions>
      </trkpt>
      <trkpt lat="36.7989633791148662567138671875" lon="-118.4047468565404415130615234375">
        <ele>3335.800048828125</ele>
        <time>2021-06-25T23:15:31.000Z</time>
        <extensions>
          <ns3:TrackPointExtension>
            <ns3:atemp>28.0</ns3:atemp>
            <ns3:hr>75</ns3:hr>
          </ns3:TrackPointExtension>
        </extensions>
      </trkpt>
      <trkpt lat="36.7989955656230449676513671875" lon="-118.404750712215900421142578125">
        <ele>3335.800048828125</ele>
        <time>2021-06-25T23:15:33.000Z</time>
        <extensions>
          <ns3:TrackPointExtension>
            <ns3:atemp>28.0</ns3:atemp>
            <ns3:hr>74</ns3:hr>
          </ns3:TrackPointExtension>
        </extensions>
      </trkpt>
      <trkpt lat="36.79903185926377773284912109375" lon="-118.4047465212643146514892578125">
        <ele>3335.39990234375</ele>
        <time>2021-06-25T23:15:36.000Z</time>
        <extensions>
          <ns3:TrackPointExtension>
            <ns3:atemp>28.0</ns3:atemp>
            <ns3:hr>73</ns3:hr>
          </ns3:TrackPointExtension>
        </extensions>
      </trkpt>
      <trkpt lat="36.79907913319766521453857421875" lon="-118.40473805554211139678955078125">
        <ele>3335.199951171875</ele>
        <time>2021-06-25T23:15:41.000Z</time>
        <extensions>
          <ns3:TrackPointExtension>
            <ns3:atemp>28.0</ns3:atemp>
            <ns3:hr>74</ns3:hr>
          </ns3:TrackPointExtension>
        </extensions>
      </trkpt>
      <trkpt lat="36.79912188090384006500244140625" lon="-118.40472548268735408782958984375">
        <ele>3335</ele>
        <time>2021-06-25T23:15:45.000Z</time>
        <extensions>
          <ns3:TrackPointExtension>
            <ns3:atemp>28.0</ns3:atemp>
            <ns3:hr>76</ns3:hr>
          </ns3:TrackPointExtension>
        </extensions>
      </trkpt>
      <trkpt lat="36.7991544865071773529052734375" lon="-118.4047155082225799560546875">
        <ele>3335</ele>
        <time>2021-06-25T23:15:49.000Z</time>
        <extensions>
          <ns3:TrackPointExtension>
            <ns3:atemp>28.0</ns3:atemp>
            <ns3:hr>77</ns3:hr>
          </ns3:TrackPointExtension>
        </extensions>
      </trkpt>
      <trkpt lat="36.79917653091251850128173828125" lon="-118.40470670722424983978271484375">
        <ele>3334.800048828125</ele>
        <time>2021-06-25T23:15:52.000Z</time>
        <extensions>
          <ns3:TrackPointExtension>
            <ns3:atemp>28.0</ns3:atemp>
            <ns3:hr>78</ns3:hr>
          </ns3:TrackPointExtension>
        </extensions>
      </trkpt>
      <trkpt lat="36.7991937138140201568603515625" lon="-118.404680974781513214111328125">
        <ele>3334.60009765625</ele>
        <time>2021-06-25T23:15:55.000Z</time>
        <extensions>
          <ns3:TrackPointExtension>
            <ns3:atemp>28.0</ns3:atemp>
            <ns3:hr>79</ns3:hr>
          </ns3:TrackPointExtension>
        </extensions>
      </trkpt>
      <trkpt lat="36.799203269183635711669921875" lon="-118.40467351488769054412841796875">
        <ele>3334.60009765625</ele>
        <time>2021-06-25T23:15:56.000Z</time>
        <extensions>
          <ns3:TrackPointExtension>
            <ns3:atemp>28.0</ns3:atemp>
            <ns3:hr>82</ns3:hr>
          </ns3:TrackPointExtension>
        </extensions>
      </trkpt>
      <trkpt lat="36.7992178536951541900634765625" lon="-118.40466781519353389739990234375">
        <ele>3334.60009765625</ele>
        <time>2021-06-25T23:15:57.000Z</time>
        <extensions>
          <ns3:TrackPointExtension>
            <ns3:atemp>28.0</ns3:atemp>
            <ns3:hr>80</ns3:hr>
          </ns3:TrackPointExtension>
        </extensions>
      </trkpt>
      <trkpt lat="36.79930024780333042144775390625" lon="-118.40462154708802700042724609375">
        <ele>3335.199951171875</ele>
        <time>2021-06-25T23:16:08.000Z</time>
        <extensions>
          <ns3:TrackPointExtension>
            <ns3:atemp>28.0</ns3:atemp>
            <ns3:hr>78</ns3:hr>
          </ns3:TrackPointExtension>
        </extensions>
      </trkpt>
      <trkpt lat="36.79931801743805408477783203125" lon="-118.404613919556140899658203125">
        <ele>3335.199951171875</ele>
        <time>2021-06-25T23:16:11.000Z</time>
        <extensions>
          <ns3:TrackPointExtension>
            <ns3:atemp>28.0</ns3:atemp>
            <ns3:hr>77</ns3:hr>
          </ns3:TrackPointExtension>
        </extensions>
      </trkpt>
      <trkpt lat="36.79934064857661724090576171875" lon="-118.4046238102018833160400390625">
        <ele>3335.39990234375</ele>
        <time>2021-06-25T23:16:13.000Z</time>
        <extensions>
          <ns3:TrackPointExtension>
            <ns3:atemp>28.0</ns3:atemp>
            <ns3:hr>74</ns3:hr>
          </ns3:TrackPointExtension>
        </extensions>
      </trkpt>
      <trkpt lat="36.79936923086643218994140625" lon="-118.40463546104729175567626953125">
        <ele>3335.39990234375</ele>
        <time>2021-06-25T23:16:15.000Z</time>
        <extensions>
          <ns3:TrackPointExtension>
            <ns3:atemp>28.0</ns3:atemp>
            <ns3:hr>72</ns3:hr>
          </ns3:TrackPointExtension>
        </extensions>
      </trkpt>
      <trkpt lat="36.79940133355557918548583984375" lon="-118.40457075275480747222900390625">
        <ele>3335.39990234375</ele>
        <time>2021-06-25T23:16:21.000Z</time>
        <extensions>
          <ns3:TrackPointExtension>
            <ns3:atemp>28.0</ns3:atemp>
            <ns3:hr>73</ns3:hr>
          </ns3:TrackPointExtension>
        </extensions>
      </trkpt>
      <trkpt lat="36.79941373877227306365966796875" lon="-118.40455113910138607025146484375">
        <ele>3335.199951171875</ele>
        <time>2021-06-25T23:16:23.000Z</time>
        <extensions>
          <ns3:TrackPointExtension>
            <ns3:atemp>28.0</ns3:atemp>
            <ns3:hr>76</ns3:hr>
          </ns3:TrackPointExtension>
        </extensions>
      </trkpt>
      <trkpt lat="36.79943561553955078125" lon="-118.40451526455581188201904296875">
        <ele>3334.800048828125</ele>
        <time>2021-06-25T23:16:27.000Z</time>
        <extensions>
          <ns3:TrackPointExtension>
            <ns3:atemp>28.0</ns3:atemp>
            <ns3:hr>79</ns3:hr>
          </ns3:TrackPointExtension>
        </extensions>
      </trkpt>
      <trkpt lat="36.79946855641901493072509765625" lon="-118.404479138553142547607421875">
        <ele>3334.199951171875</ele>
        <time>2021-06-25T23:16:32.000Z</time>
        <extensions>
          <ns3:TrackPointExtension>
            <ns3:atemp>28.0</ns3:atemp>
            <ns3:hr>81</ns3:hr>
          </ns3:TrackPointExtension>
        </extensions>
      </trkpt>
      <trkpt lat="36.7994745075702667236328125" lon="-118.40446530841290950775146484375">
        <ele>3333.800048828125</ele>
        <time>2021-06-25T23:16:33.000Z</time>
        <extensions>
          <ns3:TrackPointExtension>
            <ns3:atemp>28.0</ns3:atemp>
            <ns3:hr>84</ns3:hr>
          </ns3:TrackPointExtension>
        </extensions>
      </trkpt>
      <trkpt lat="36.7994810454547405242919921875" lon="-118.40445374138653278350830078125">
        <ele>3333.800048828125</ele>
        <time>2021-06-25T23:16:34.000Z</time>
        <extensions>
          <ns3:TrackPointExtension>
            <ns3:atemp>28.0</ns3:atemp>
            <ns3:hr>81</ns3:hr>
          </ns3:TrackPointExtension>
        </extensions>
      </trkpt>
      <trkpt lat="36.7994825541973114013671875" lon="-118.40442088432610034942626953125">
        <ele>3333.60009765625</ele>
        <time>2021-06-25T23:16:36.000Z</time>
        <extensions>
          <ns3:TrackPointExtension>
            <ns3:atemp>28.0</ns3:atemp>
            <ns3:hr>81</ns3:hr>
          </ns3:TrackPointExtension>
        </extensions>
      </trkpt>
      <trkpt lat="36.79947517812252044677734375" lon="-118.404377214610576629638671875">
        <ele>3333.199951171875</ele>
        <time>2021-06-25T23:16:39.000Z</time>
        <extensions>
          <ns3:TrackPointExtension>
            <ns3:atemp>28.0</ns3:atemp>
            <ns3:hr>80</ns3:hr>
          </ns3:TrackPointExtension>
        </extensions>
      </trkpt>
      <trkpt lat="36.7995189316570758819580078125" lon="-118.40435198508203029632568359375">
        <ele>3332.60009765625</ele>
        <time>2021-06-25T23:16:45.000Z</time>
        <extensions>
          <ns3:TrackPointExtension>
            <ns3:atemp>28.0</ns3:atemp>
            <ns3:hr>81</ns3:hr>
          </ns3:TrackPointExtension>
        </extensions>
      </trkpt>
      <trkpt lat="36.7995630204677581787109375" lon="-118.40434779413044452667236328125">
        <ele>3332.199951171875</ele>
        <time>2021-06-25T23:16:50.000Z</time>
        <extensions>
          <ns3:TrackPointExtension>
            <ns3:atemp>28.0</ns3:atemp>
            <ns3:hr>83</ns3:hr>
          </ns3:TrackPointExtension>
        </extensions>
      </trkpt>
      <trkpt lat="36.7995846457779407501220703125" lon="-118.404341675341129302978515625">
        <ele>3332.199951171875</ele>
        <time>2021-06-25T23:16:53.000Z</time>
        <extensions>
          <ns3:TrackPointExtension>
            <ns3:atemp>28.0</ns3:atemp>
            <ns3:hr>83</ns3:hr>
          </ns3:TrackPointExtension>
        </extensions>
      </trkpt>
      <trkpt lat="36.79961272515356540679931640625" lon="-118.40427721850574016571044921875">
        <ele>3332</ele>
        <time>2021-06-25T23:17:00.000Z</time>
        <extensions>
          <ns3:TrackPointExtension>
            <ns3:atemp>28.0</ns3:atemp>
            <ns3:hr>83</ns3:hr>
          </ns3:TrackPointExtension>
        </extensions>
      </trkpt>
      <trkpt lat="36.79961591027677059173583984375" lon="-118.404227681457996368408203125">
        <ele>3331.39990234375</ele>
        <time>2021-06-25T23:17:05.000Z</time>
        <extensions>
          <ns3:TrackPointExtension>
            <ns3:atemp>28.0</ns3:atemp>
            <ns3:hr>81</ns3:hr>
          </ns3:TrackPointExtension>
        </extensions>
      </trkpt>
      <trkpt lat="36.79961725138127803802490234375" lon="-118.4042063914239406585693359375">
        <ele>3331.199951171875</ele>
        <time>2021-06-25T23:17:07.000Z</time>
        <extensions>
          <ns3:TrackPointExtension>
            <ns3:atemp>28.0</ns3:atemp>
            <ns3:hr>80</ns3:hr>
          </ns3:TrackPointExtension>
        </extensions>
      </trkpt>
      <trkpt lat="36.79962680675089359283447265625" lon="-118.40417437255382537841796875">
        <ele>3330.199951171875</ele>
        <time>2021-06-25T23:17:11.000Z</time>
        <extensions>
          <ns3:TrackPointExtension>
            <ns3:atemp>29.0</ns3:atemp>
            <ns3:hr>81</ns3:hr>
          </ns3:TrackPointExtension>
        </extensions>
      </trkpt>
      <trkpt lat="36.7996205203235149383544921875" lon="-118.4041557647287845611572265625">
        <ele>3329.39990234375</ele>
        <time>2021-06-25T23:17:14.000Z</time>
        <extensions>
          <ns3:TrackPointExtension>
            <ns3:atemp>29.0</ns3:atemp>
            <ns3:hr>78</ns3:hr>
          </ns3:TrackPointExtension>
        </extensions>
      </trkpt>
      <trkpt lat="36.79961976595222949981689453125" lon="-118.40415232814848423004150390625">
        <ele>3329.199951171875</ele>
        <time>2021-06-25T23:17:15.000Z</time>
        <extensions>
          <ns3:TrackPointExtension>
            <ns3:atemp>29.0</ns3:atemp>
            <ns3:hr>81</ns3:hr>
          </ns3:TrackPointExtension>
        </extensions>
      </trkpt>
      <trkpt lat="36.7995953746140003204345703125" lon="-118.40411175973713397979736328125">
        <ele>3329</ele>
        <time>2021-06-25T23:17:20.000Z</time>
        <extensions>
          <ns3:TrackPointExtension>
            <ns3:atemp>29.0</ns3:atemp>
            <ns3:hr>78</ns3:hr>
          </ns3:TrackPointExtension>
        </extensions>
      </trkpt>
      <trkpt lat="36.79959780536592006683349609375" lon="-118.40407303534448146820068359375">
        <ele>3329</ele>
        <time>2021-06-25T23:17:23.000Z</time>
        <extensions>
          <ns3:TrackPointExtension>
            <ns3:atemp>29.0</ns3:atemp>
            <ns3:hr>79</ns3:hr>
          </ns3:TrackPointExtension>
        </extensions>
      </trkpt>
      <trkpt lat="36.79962412454187870025634765625" lon="-118.40405141003429889678955078125">
        <ele>3328.199951171875</ele>
        <time>2021-06-25T23:17:31.000Z</time>
        <extensions>
          <ns3:TrackPointExtension>
            <ns3:atemp>29.0</ns3:atemp>
            <ns3:hr>82</ns3:hr>
          </ns3:TrackPointExtension>
        </extensions>
      </trkpt>
      <trkpt lat="36.79962932132184505462646484375" lon="-118.40404428541660308837890625">
        <ele>3328</ele>
        <time>2021-06-25T23:17:32.000Z</time>
        <extensions>
          <ns3:TrackPointExtension>
            <ns3:atemp>29.0</ns3:atemp>
            <ns3:hr>82</ns3:hr>
          </ns3:TrackPointExtension>
        </extensions>
      </trkpt>
      <trkpt lat="36.79963502101600170135498046875" lon="-118.40403900481760501861572265625">
        <ele>3327.60009765625</ele>
        <time>2021-06-25T23:17:33.000Z</time>
        <extensions>
          <ns3:TrackPointExtension>
            <ns3:atemp>29.0</ns3:atemp>
            <ns3:hr>82</ns3:hr>
          </ns3:TrackPointExtension>
        </extensions>
      </trkpt>
      <trkpt lat="36.799651868641376495361328125" lon="-118.40402592904865741729736328125">
        <ele>3327.60009765625</ele>
        <time>2021-06-25T23:17:36.000Z</time>
        <extensions>
          <ns3:TrackPointExtension>
            <ns3:atemp>28.0</ns3:atemp>
            <ns3:hr>79</ns3:hr>
          </ns3:TrackPointExtension>
        </extensions>
      </trkpt>
      <trkpt lat="36.799656562507152557373046875" lon="-118.40400673449039459228515625">
        <ele>3327.199951171875</ele>
        <time>2021-06-25T23:17:39.000Z</time>
        <extensions>
          <ns3:TrackPointExtension>
            <ns3:atemp>29.0</ns3:atemp>
            <ns3:hr>75</ns3:hr>
          </ns3:TrackPointExtension>
        </extensions>
      </trkpt>
      <trkpt lat="36.7996557243168354034423828125" lon="-118.4040015377104282379150390625">
        <ele>3326.39990234375</ele>
        <time>2021-06-25T23:17:40.000Z</time>
        <extensions>
          <ns3:TrackPointExtension>
            <ns3:atemp>28.0</ns3:atemp>
            <ns3:hr>74</ns3:hr>
          </ns3:TrackPointExtension>
        </extensions>
      </trkpt>
      <trkpt lat="36.79965295828878879547119140625" lon="-118.403947390615940093994140625">
        <ele>3325.39990234375</ele>
        <time>2021-06-25T23:17:46.000Z</time>
        <extensions>
          <ns3:TrackPointExtension>
            <ns3:atemp>28.0</ns3:atemp>
            <ns3:hr>72</ns3:hr>
          </ns3:TrackPointExtension>
        </extensions>
      </trkpt>
      <trkpt lat="36.79965329356491565704345703125" lon="-118.40393255464732646942138671875">
        <ele>3324.800048828125</ele>
        <time>2021-06-25T23:17:48.000Z</time>
        <extensions>
          <ns3:TrackPointExtension>
            <ns3:atemp>28.0</ns3:atemp>
            <ns3:hr>72</ns3:hr>
          </ns3:TrackPointExtension>
        </extensions>
      </trkpt>
      <trkpt lat="36.79963611066341400146484375" lon="-118.40392618440091609954833984375">
        <ele>3324.800048828125</ele>
        <time>2021-06-25T23:18:03.000Z</time>
        <extensions>
          <ns3:TrackPointExtension>
            <ns3:atemp>28.0</ns3:atemp>
            <ns3:hr>72</ns3:hr>
          </ns3:TrackPointExtension>
        </extensions>
      </trkpt>
      <trkpt lat="36.79963611066341400146484375" lon="-118.40392618440091609954833984375">
        <ele>3325</ele>
        <time>2021-06-25T23:18:07.000Z</time>
        <extensions>
          <ns3:TrackPointExtension>
            <ns3:atemp>29.0</ns3:atemp>
            <ns3:hr>75</ns3:hr>
          </ns3:TrackPointExtension>
        </extensions>
      </trkpt>
      <trkpt lat="36.79963720031082630157470703125" lon="-118.40392618440091609954833984375">
        <ele>3325</ele>
        <time>2021-06-25T23:18:12.000Z</time>
        <extensions>
          <ns3:TrackPointExtension>
            <ns3:atemp>29.0</ns3:atemp>
            <ns3:hr>78</ns3:hr>
          </ns3:TrackPointExtension>
        </extensions>
      </trkpt>
      <trkpt lat="36.79964290000498294830322265625" lon="-118.40392618440091609954833984375">
        <ele>3324.60009765625</ele>
        <time>2021-06-25T23:18:17.000Z</time>
        <extensions>
          <ns3:TrackPointExtension>
            <ns3:atemp>29.0</ns3:atemp>
            <ns3:hr>81</ns3:hr>
          </ns3:TrackPointExtension>
        </extensions>
      </trkpt>
      <trkpt lat="36.79964943788945674896240234375" lon="-118.40391545556485652923583984375">
        <ele>3325</ele>
        <time>2021-06-25T23:18:32.000Z</time>
        <extensions>
          <ns3:TrackPointExtension>
            <ns3:atemp>29.0</ns3:atemp>
            <ns3:hr>78</ns3:hr>
          </ns3:TrackPointExtension>
        </extensions>
      </trkpt>
      <trkpt lat="36.79964943788945674896240234375" lon="-118.40391545556485652923583984375">
        <ele>3325</ele>
        <time>2021-06-25T23:18:33.000Z</time>
        <extensions>
          <ns3:TrackPointExtension>
            <ns3:atemp>29.0</ns3:atemp>
            <ns3:hr>82</ns3:hr>
          </ns3:TrackPointExtension>
        </extensions>
      </trkpt>
      <trkpt lat="36.7996453307569026947021484375" lon="-118.403915874660015106201171875">
        <ele>3324.60009765625</ele>
        <time>2021-06-25T23:18:40.000Z</time>
        <extensions>
          <ns3:TrackPointExtension>
            <ns3:atemp>29.0</ns3:atemp>
            <ns3:hr>85</ns3:hr>
          </ns3:TrackPointExtension>
        </extensions>
      </trkpt>
      <trkpt lat="36.79965094663202762603759765625" lon="-118.40390506200492382049560546875">
        <ele>3324.199951171875</ele>
        <time>2021-06-25T23:19:01.000Z</time>
        <extensions>
          <ns3:TrackPointExtension>
            <ns3:atemp>29.0</ns3:atemp>
            <ns3:hr>86</ns3:hr>
          </ns3:TrackPointExtension>
        </extensions>
      </trkpt>
      <trkpt lat="36.799659915268421173095703125" lon="-118.40388075448572635650634765625">
        <ele>3324</ele>
        <time>2021-06-25T23:19:03.000Z</time>
        <extensions>
          <ns3:TrackPointExtension>
            <ns3:atemp>29.0</ns3:atemp>
            <ns3:hr>87</ns3:hr>
          </ns3:TrackPointExtension>
        </extensions>
      </trkpt>
      <trkpt lat="36.79969168268144130706787109375" lon="-118.40378754772245883941650390625">
        <ele>3323.199951171875</ele>
        <time>2021-06-25T23:19:10.000Z</time>
        <extensions>
          <ns3:TrackPointExtension>
            <ns3:atemp>29.0</ns3:atemp>
            <ns3:hr>88</ns3:hr>
          </ns3:TrackPointExtension>
        </extensions>
      </trkpt>
      <trkpt lat="36.7996944487094879150390625" lon="-118.40378419496119022369384765625">
        <ele>3323.199951171875</ele>
        <time>2021-06-25T23:19:11.000Z</time>
        <extensions>
          <ns3:TrackPointExtension>
            <ns3:atemp>29.0</ns3:atemp>
            <ns3:hr>89</ns3:hr>
          </ns3:TrackPointExtension>
        </extensions>
      </trkpt>
      <trkpt lat="36.79972370155155658721923828125" lon="-118.4037034772336483001708984375">
        <ele>3322.39990234375</ele>
        <time>2021-06-25T23:19:19.000Z</time>
        <extensions>
          <ns3:TrackPointExtension>
            <ns3:atemp>29.0</ns3:atemp>
            <ns3:hr>88</ns3:hr>
          </ns3:TrackPointExtension>
        </extensions>
      </trkpt>
      <trkpt lat="36.79971666075289249420166015625" lon="-118.403679169714450836181640625">
        <ele>3322.199951171875</ele>
        <time>2021-06-25T23:19:22.000Z</time>
        <extensions>
          <ns3:TrackPointExtension>
            <ns3:atemp>29.0</ns3:atemp>
            <ns3:hr>88</ns3:hr>
          </ns3:TrackPointExtension>
        </extensions>
      </trkpt>
      <trkpt lat="36.7997137270867824554443359375" lon="-118.40364119969308376312255859375">
        <ele>3321.60009765625</ele>
        <time>2021-06-25T23:19:26.000Z</time>
        <extensions>
          <ns3:TrackPointExtension>
            <ns3:atemp>29.0</ns3:atemp>
            <ns3:hr>90</ns3:hr>
          </ns3:TrackPointExtension>
        </extensions>
      </trkpt>
      <trkpt lat="36.799714565277099609375" lon="-118.40362250804901123046875">
        <ele>3321.39990234375</ele>
        <time>2021-06-25T23:19:27.000Z</time>
        <extensions>
          <ns3:TrackPointExtension>
            <ns3:atemp>29.0</ns3:atemp>
            <ns3:hr>87</ns3:hr>
          </ns3:TrackPointExtension>
        </extensions>
      </trkpt>
      <trkpt lat="36.79972655139863491058349609375" lon="-118.403608761727809906005859375">
        <ele>3321.199951171875</ele>
        <time>2021-06-25T23:19:29.000Z</time>
        <extensions>
          <ns3:TrackPointExtension>
            <ns3:atemp>29.0</ns3:atemp>
            <ns3:hr>87</ns3:hr>
          </ns3:TrackPointExtension>
        </extensions>
      </trkpt>
      <trkpt lat="36.79974666796624660491943359375" lon="-118.40357489883899688720703125">
        <ele>3320.39990234375</ele>
        <time>2021-06-25T23:19:33.000Z</time>
        <extensions>
          <ns3:TrackPointExtension>
            <ns3:atemp>29.0</ns3:atemp>
            <ns3:hr>84</ns3:hr>
          </ns3:TrackPointExtension>
        </extensions>
      </trkpt>
      <trkpt lat="36.79975052364170551300048828125" lon="-118.40353734791278839111328125">
        <ele>3319.800048828125</ele>
        <time>2021-06-25T23:19:36.000Z</time>
        <extensions>
          <ns3:TrackPointExtension>
            <ns3:atemp>29.0</ns3:atemp>
            <ns3:hr>84</ns3:hr>
          </ns3:TrackPointExtension>
        </extensions>
      </trkpt>
      <trkpt lat="36.799755804240703582763671875" lon="-118.4034999646246433258056640625">
        <ele>3318.60009765625</ele>
        <time>2021-06-25T23:19:41.000Z</time>
        <extensions>
          <ns3:TrackPointExtension>
            <ns3:atemp>29.0</ns3:atemp>
            <ns3:hr>84</ns3:hr>
          </ns3:TrackPointExtension>
        </extensions>
      </trkpt>
      <trkpt lat="36.7997653596103191375732421875" lon="-118.403479345142841339111328125">
        <ele>3317.199951171875</ele>
        <time>2021-06-25T23:19:44.000Z</time>
        <extensions>
          <ns3:TrackPointExtension>
            <ns3:atemp>29.0</ns3:atemp>
            <ns3:hr>83</ns3:hr>
          </ns3:TrackPointExtension>
        </extensions>
      </trkpt>
      <trkpt lat="36.79976946674287319183349609375" lon="-118.403473310172557830810546875">
        <ele>3317.199951171875</ele>
        <time>2021-06-25T23:19:45.000Z</time>
        <extensions>
          <ns3:TrackPointExtension>
            <ns3:atemp>29.0</ns3:atemp>
            <ns3:hr>82</ns3:hr>
          </ns3:TrackPointExtension>
        </extensions>
      </trkpt>
      <trkpt lat="36.79980919696390628814697265625" lon="-118.40341287665069103240966796875">
        <ele>3316.199951171875</ele>
        <time>2021-06-25T23:19:53.000Z</time>
        <extensions>
          <ns3:TrackPointExtension>
            <ns3:atemp>29.0</ns3:atemp>
            <ns3:hr>80</ns3:hr>
          </ns3:TrackPointExtension>
        </extensions>
      </trkpt>
      <trkpt lat="36.7998592369258403778076171875" lon="-118.4033091925084590911865234375">
        <ele>3315.39990234375</ele>
        <time>2021-06-25T23:20:03.000Z</time>
        <extensions>
          <ns3:TrackPointExtension>
            <ns3:atemp>29.0</ns3:atemp>
            <ns3:hr>80</ns3:hr>
          </ns3:TrackPointExtension>
        </extensions>
      </trkpt>
      <trkpt lat="36.79988932795822620391845703125" lon="-118.40326300822198390960693359375">
        <ele>3315.199951171875</ele>
        <time>2021-06-25T23:20:07.000Z</time>
        <extensions>
          <ns3:TrackPointExtension>
            <ns3:atemp>29.0</ns3:atemp>
            <ns3:hr>81</ns3:hr>
          </ns3:TrackPointExtension>
        </extensions>
      </trkpt>
      <trkpt lat="36.79991883225739002227783203125" lon="-118.40321338735520839691162109375">
        <ele>3314.39990234375</ele>
        <time>2021-06-25T23:20:12.000Z</time>
        <extensions>
          <ns3:TrackPointExtension>
            <ns3:atemp>29.0</ns3:atemp>
            <ns3:hr>79</ns3:hr>
          </ns3:TrackPointExtension>
        </extensions>
      </trkpt>
      <trkpt lat="36.7999189160764217376708984375" lon="-118.40320609509944915771484375">
        <ele>3314.39990234375</ele>
        <time>2021-06-25T23:20:13.000Z</time>
        <extensions>
          <ns3:TrackPointExtension>
            <ns3:atemp>29.0</ns3:atemp>
            <ns3:hr>79</ns3:hr>
          </ns3:TrackPointExtension>
        </extensions>
      </trkpt>
      <trkpt lat="36.79989586584270000457763671875" lon="-118.40320182032883167266845703125">
        <ele>3313.60009765625</ele>
        <time>2021-06-25T23:20:15.000Z</time>
        <extensions>
          <ns3:TrackPointExtension>
            <ns3:atemp>29.0</ns3:atemp>
            <ns3:hr>81</ns3:hr>
          </ns3:TrackPointExtension>
        </extensions>
      </trkpt>
      <trkpt lat="36.79988086223602294921875" lon="-118.4031992219388484954833984375">
        <ele>3313.199951171875</ele>
        <time>2021-06-25T23:20:16.000Z</time>
        <extensions>
          <ns3:TrackPointExtension>
            <ns3:atemp>29.0</ns3:atemp>
            <ns3:hr>80</ns3:hr>
          </ns3:TrackPointExtension>
        </extensions>
      </trkpt>
      <trkpt lat="36.79986066184937953948974609375" lon="-118.4032042510807514190673828125">
        <ele>3312.39990234375</ele>
        <time>2021-06-25T23:20:18.000Z</time>
        <extensions>
          <ns3:TrackPointExtension>
            <ns3:atemp>29.0</ns3:atemp>
            <ns3:hr>80</ns3:hr>
          </ns3:TrackPointExtension>
        </extensions>
      </trkpt>
      <trkpt lat="36.7998444847762584686279296875" lon="-118.403209783136844635009765625">
        <ele>3312.199951171875</ele>
        <time>2021-06-25T23:20:20.000Z</time>
        <extensions>
          <ns3:TrackPointExtension>
            <ns3:atemp>28.0</ns3:atemp>
            <ns3:hr>80</ns3:hr>
          </ns3:TrackPointExtension>
        </extensions>
      </trkpt>
      <trkpt lat="36.79982277564704418182373046875" lon="-118.40321808122098445892333984375">
        <ele>3312</ele>
        <time>2021-06-25T23:20:23.000Z</time>
        <extensions>
          <ns3:TrackPointExtension>
            <ns3:atemp>29.0</ns3:atemp>
            <ns3:hr>79</ns3:hr>
          </ns3:TrackPointExtension>
        </extensions>
      </trkpt>
      <trkpt lat="36.7998002283275127410888671875" lon="-118.40322076342999935150146484375">
        <ele>3311.800048828125</ele>
        <time>2021-06-25T23:20:25.000Z</time>
        <extensions>
          <ns3:TrackPointExtension>
            <ns3:atemp>28.0</ns3:atemp>
            <ns3:hr>78</ns3:hr>
          </ns3:TrackPointExtension>
        </extensions>
      </trkpt>
      <trkpt lat="36.7997874878346920013427734375" lon="-118.403219841420650482177734375">
        <ele>3311.39990234375</ele>
        <time>2021-06-25T23:20:26.000Z</time>
        <extensions>
          <ns3:TrackPointExtension>
            <ns3:atemp>28.0</ns3:atemp>
            <ns3:hr>78</ns3:hr>
          </ns3:TrackPointExtension>
        </extensions>
      </trkpt>
      <trkpt lat="36.7997445724904537200927734375" lon="-118.40320852585136890411376953125">
        <ele>3310.60009765625</ele>
        <time>2021-06-25T23:20:29.000Z</time>
        <extensions>
          <ns3:TrackPointExtension>
            <ns3:atemp>28.0</ns3:atemp>
            <ns3:hr>79</ns3:hr>
          </ns3:TrackPointExtension>
        </extensions>
      </trkpt>
      <trkpt lat="36.79973225109279155731201171875" lon="-118.40320316143333911895751953125">
        <ele>3310.199951171875</ele>
        <time>2021-06-25T23:20:30.000Z</time>
        <extensions>
          <ns3:TrackPointExtension>
            <ns3:atemp>28.0</ns3:atemp>
            <ns3:hr>79</ns3:hr>
          </ns3:TrackPointExtension>
        </extensions>
      </trkpt>
      <trkpt lat="36.79964373819530010223388671875" lon="-118.403225876390933990478515625">
        <ele>3309.60009765625</ele>
        <time>2021-06-25T23:20:37.000Z</time>
        <extensions>
          <ns3:TrackPointExtension>
            <ns3:atemp>28.0</ns3:atemp>
            <ns3:hr>76</ns3:hr>
          </ns3:TrackPointExtension>
        </extensions>
      </trkpt>
      <trkpt lat="36.7996319197118282318115234375" lon="-118.403229229152202606201171875">
        <ele>3309.60009765625</ele>
        <time>2021-06-25T23:20:38.000Z</time>
        <extensions>
          <ns3:TrackPointExtension>
            <ns3:atemp>28.0</ns3:atemp>
            <ns3:hr>76</ns3:hr>
          </ns3:TrackPointExtension>
        </extensions>
      </trkpt>
      <trkpt lat="36.79962865076959133148193359375" lon="-118.4032220207154750823974609375">
        <ele>3309.60009765625</ele>
        <time>2021-06-25T23:20:40.000Z</time>
        <extensions>
          <ns3:TrackPointExtension>
            <ns3:atemp>28.0</ns3:atemp>
            <ns3:hr>78</ns3:hr>
          </ns3:TrackPointExtension>
        </extensions>
      </trkpt>
      <trkpt lat="36.7996443249285221099853515625" lon="-118.4032179974019527435302734375">
        <ele>3309.199951171875</ele>
        <time>2021-06-25T23:20:42.000Z</time>
        <extensions>
          <ns3:TrackPointExtension>
            <ns3:atemp>28.0</ns3:atemp>
            <ns3:hr>78</ns3:hr>
          </ns3:TrackPointExtension>
        </extensions>
      </trkpt>
      <trkpt lat="36.79967072792351245880126953125" lon="-118.40321355499327182769775390625">
        <ele>3309</ele>
        <time>2021-06-25T23:20:44.000Z</time>
        <extensions>
          <ns3:TrackPointExtension>
            <ns3:atemp>28.0</ns3:atemp>
            <ns3:hr>80</ns3:hr>
          </ns3:TrackPointExtension>
        </extensions>
      </trkpt>
      <trkpt lat="36.79968179203569889068603515625" lon="-118.4032082743942737579345703125">
        <ele>3308.800048828125</ele>
        <time>2021-06-25T23:20:45.000Z</time>
        <extensions>
          <ns3:TrackPointExtension>
            <ns3:atemp>28.0</ns3:atemp>
            <ns3:hr>81</ns3:hr>
          </ns3:TrackPointExtension>
        </extensions>
      </trkpt>
      <trkpt lat="36.7996892519295215606689453125" lon="-118.40320081450045108795166015625">
        <ele>3308.800048828125</ele>
        <time>2021-06-25T23:20:46.000Z</time>
        <extensions>
          <ns3:TrackPointExtension>
            <ns3:atemp>28.0</ns3:atemp>
            <ns3:hr>80</ns3:hr>
          </ns3:TrackPointExtension>
        </extensions>
      </trkpt>
      <trkpt lat="36.79971263743937015533447265625" lon="-118.4031732380390167236328125">
        <ele>3308.199951171875</ele>
        <time>2021-06-25T23:20:49.000Z</time>
        <extensions>
          <ns3:TrackPointExtension>
            <ns3:atemp>28.0</ns3:atemp>
            <ns3:hr>80</ns3:hr>
          </ns3:TrackPointExtension>
        </extensions>
      </trkpt>
      <trkpt lat="36.79972135461866855621337890625" lon="-118.40316225774586200714111328125">
        <ele>3308</ele>
        <time>2021-06-25T23:20:50.000Z</time>
        <extensions>
          <ns3:TrackPointExtension>
            <ns3:atemp>28.0</ns3:atemp>
            <ns3:hr>80</ns3:hr>
          </ns3:TrackPointExtension>
        </extensions>
      </trkpt>
      <trkpt lat="36.79972621612250804901123046875" lon="-118.403155803680419921875">
        <ele>3308</ele>
        <time>2021-06-25T23:20:51.000Z</time>
        <extensions>
          <ns3:TrackPointExtension>
            <ns3:atemp>28.0</ns3:atemp>
            <ns3:hr>80</ns3:hr>
          </ns3:TrackPointExtension>
        </extensions>
      </trkpt>
      <trkpt lat="36.7997428961098194122314453125" lon="-118.40314281173050403594970703125">
        <ele>3307.39990234375</ele>
        <time>2021-06-25T23:20:53.000Z</time>
        <extensions>
          <ns3:TrackPointExtension>
            <ns3:atemp>28.0</ns3:atemp>
            <ns3:hr>80</ns3:hr>
          </ns3:TrackPointExtension>
        </extensions>
      </trkpt>
      <trkpt lat="36.79974968545138835906982421875" lon="-118.40313442982733249664306640625">
        <ele>3307</ele>
        <time>2021-06-25T23:20:54.000Z</time>
        <extensions>
          <ns3:TrackPointExtension>
            <ns3:atemp>28.0</ns3:atemp>
            <ns3:hr>81</ns3:hr>
          </ns3:TrackPointExtension>
        </extensions>
      </trkpt>
      <trkpt lat="36.79977382533252239227294921875" lon="-118.403125964105129241943359375">
        <ele>3307</ele>
        <time>2021-06-25T23:20:56.000Z</time>
        <extensions>
          <ns3:TrackPointExtension>
            <ns3:atemp>28.0</ns3:atemp>
            <ns3:hr>81</ns3:hr>
          </ns3:TrackPointExtension>
        </extensions>
      </trkpt>
      <trkpt lat="36.7997858114540576934814453125" lon="-118.4031115472316741943359375">
        <ele>3306.60009765625</ele>
        <time>2021-06-25T23:20:58.000Z</time>
        <extensions>
          <ns3:TrackPointExtension>
            <ns3:atemp>28.0</ns3:atemp>
            <ns3:hr>81</ns3:hr>
          </ns3:TrackPointExtension>
        </extensions>
      </trkpt>
      <trkpt lat="36.7998290620744228363037109375" lon="-118.403046838939189910888671875">
        <ele>3305.800048828125</ele>
        <time>2021-06-25T23:21:05.000Z</time>
        <extensions>
          <ns3:TrackPointExtension>
            <ns3:atemp>28.0</ns3:atemp>
            <ns3:hr>82</ns3:hr>
          </ns3:TrackPointExtension>
        </extensions>
      </trkpt>
      <trkpt lat="36.79984398186206817626953125" lon="-118.40302060358226299285888671875">
        <ele>3305.800048828125</ele>
        <time>2021-06-25T23:21:08.000Z</time>
        <extensions>
          <ns3:TrackPointExtension>
            <ns3:atemp>28.0</ns3:atemp>
            <ns3:hr>81</ns3:hr>
          </ns3:TrackPointExtension>
        </extensions>
      </trkpt>
      <trkpt lat="36.79986502043902873992919921875" lon="-118.402948938310146331787109375">
        <ele>3304.800048828125</ele>
        <time>2021-06-25T23:21:15.000Z</time>
        <extensions>
          <ns3:TrackPointExtension>
            <ns3:atemp>28.0</ns3:atemp>
            <ns3:hr>80</ns3:hr>
          </ns3:TrackPointExtension>
        </extensions>
      </trkpt>
      <trkpt lat="36.799871809780597686767578125" lon="-118.4029367007315158843994140625">
        <ele>3304.60009765625</ele>
        <time>2021-06-25T23:21:16.000Z</time>
        <extensions>
          <ns3:TrackPointExtension>
            <ns3:atemp>28.0</ns3:atemp>
            <ns3:hr>80</ns3:hr>
          </ns3:TrackPointExtension>
        </extensions>
      </trkpt>
      <trkpt lat="36.7999169044196605682373046875" lon="-118.4028808772563934326171875">
        <ele>3303.60009765625</ele>
        <time>2021-06-25T23:21:22.000Z</time>
        <extensions>
          <ns3:TrackPointExtension>
            <ns3:atemp>28.0</ns3:atemp>
            <ns3:hr>80</ns3:hr>
          </ns3:TrackPointExtension>
        </extensions>
      </trkpt>
      <trkpt lat="36.79991682060062885284423828125" lon="-118.4028481878340244293212890625">
        <ele>3303.39990234375</ele>
        <time>2021-06-25T23:21:25.000Z</time>
        <extensions>
          <ns3:TrackPointExtension>
            <ns3:atemp>28.0</ns3:atemp>
            <ns3:hr>81</ns3:hr>
          </ns3:TrackPointExtension>
        </extensions>
      </trkpt>
      <trkpt lat="36.79990475066006183624267578125" lon="-118.40282949618995189666748046875">
        <ele>3303.199951171875</ele>
        <time>2021-06-25T23:21:30.000Z</time>
        <extensions>
          <ns3:TrackPointExtension>
            <ns3:atemp>28.0</ns3:atemp>
            <ns3:hr>79</ns3:hr>
          </ns3:TrackPointExtension>
        </extensions>
      </trkpt>
      <trkpt lat="36.7998991347849369049072265625" lon="-118.40282857418060302734375">
        <ele>3303.199951171875</ele>
        <time>2021-06-25T23:21:31.000Z</time>
        <extensions>
          <ns3:TrackPointExtension>
            <ns3:atemp>28.0</ns3:atemp>
            <ns3:hr>79</ns3:hr>
          </ns3:TrackPointExtension>
        </extensions>
      </trkpt>
      <trkpt lat="36.79989217780530452728271484375" lon="-118.402832932770252227783203125">
        <ele>3303.199951171875</ele>
        <time>2021-06-25T23:21:32.000Z</time>
        <extensions>
          <ns3:TrackPointExtension>
            <ns3:atemp>28.0</ns3:atemp>
            <ns3:hr>79</ns3:hr>
          </ns3:TrackPointExtension>
        </extensions>
      </trkpt>
      <trkpt lat="36.7998619191348552703857421875" lon="-118.402850367128849029541015625">
        <ele>3303</ele>
        <time>2021-06-25T23:21:35.000Z</time>
        <extensions>
          <ns3:TrackPointExtension>
            <ns3:atemp>28.0</ns3:atemp>
            <ns3:hr>80</ns3:hr>
          </ns3:TrackPointExtension>
        </extensions>
      </trkpt>
      <trkpt lat="36.7998401261866092681884765625" lon="-118.40286335907876491546630859375">
        <ele>3302.39990234375</ele>
        <time>2021-06-25T23:21:37.000Z</time>
        <extensions>
          <ns3:TrackPointExtension>
            <ns3:atemp>28.0</ns3:atemp>
            <ns3:hr>79</ns3:hr>
          </ns3:TrackPointExtension>
        </extensions>
      </trkpt>
      <trkpt lat="36.79983300156891345977783203125" lon="-118.4028661251068115234375">
        <ele>3302.39990234375</ele>
        <time>2021-06-25T23:21:38.000Z</time>
        <extensions>
          <ns3:TrackPointExtension>
            <ns3:atemp>28.0</ns3:atemp>
            <ns3:hr>79</ns3:hr>
          </ns3:TrackPointExtension>
        </extensions>
      </trkpt>
      <trkpt lat="36.799747087061405181884765625" lon="-118.402918763458728790283203125">
        <ele>3301.39990234375</ele>
        <time>2021-06-25T23:21:47.000Z</time>
        <extensions>
          <ns3:TrackPointExtension>
            <ns3:atemp>28.0</ns3:atemp>
            <ns3:hr>80</ns3:hr>
          </ns3:TrackPointExtension>
        </extensions>
      </trkpt>
      <trkpt lat="36.7997311614453792572021484375" lon="-118.40293477289378643035888671875">
        <ele>3301.39990234375</ele>
        <time>2021-06-25T23:21:49.000Z</time>
        <extensions>
          <ns3:TrackPointExtension>
            <ns3:atemp>28.0</ns3:atemp>
            <ns3:hr>77</ns3:hr>
          </ns3:TrackPointExtension>
        </extensions>
      </trkpt>
      <trkpt lat="36.79968304932117462158203125" lon="-118.40296176262199878692626953125">
        <ele>3300</ele>
        <time>2021-06-25T23:21:54.000Z</time>
        <extensions>
          <ns3:TrackPointExtension>
            <ns3:atemp>28.0</ns3:atemp>
            <ns3:hr>77</ns3:hr>
          </ns3:TrackPointExtension>
        </extensions>
      </trkpt>
      <trkpt lat="36.79967760108411312103271484375" lon="-118.40296075679361820220947265625">
        <ele>3300</ele>
        <time>2021-06-25T23:21:55.000Z</time>
        <extensions>
          <ns3:TrackPointExtension>
            <ns3:atemp>28.0</ns3:atemp>
            <ns3:hr>77</ns3:hr>
          </ns3:TrackPointExtension>
        </extensions>
      </trkpt>
      <trkpt lat="36.79969285614788532257080078125" lon="-118.4029479324817657470703125">
        <ele>3300</ele>
        <time>2021-06-25T23:21:59.000Z</time>
        <extensions>
          <ns3:TrackPointExtension>
            <ns3:atemp>28.0</ns3:atemp>
            <ns3:hr>77</ns3:hr>
          </ns3:TrackPointExtension>
        </extensions>
      </trkpt>
      <trkpt lat="36.7997519485652446746826171875" lon="-118.4029018320143222808837890625">
        <ele>3299</ele>
        <time>2021-06-25T23:22:06.000Z</time>
        <extensions>
          <ns3:TrackPointExtension>
            <ns3:atemp>28.0</ns3:atemp>
            <ns3:hr>74</ns3:hr>
          </ns3:TrackPointExtension>
        </extensions>
      </trkpt>
      <trkpt lat="36.7997613362967967987060546875" lon="-118.4028969705104827880859375">
        <ele>3299</ele>
        <time>2021-06-25T23:22:07.000Z</time>
        <extensions>
          <ns3:TrackPointExtension>
            <ns3:atemp>28.0</ns3:atemp>
            <ns3:hr>73</ns3:hr>
          </ns3:TrackPointExtension>
        </extensions>
      </trkpt>
      <trkpt lat="36.7997898347675800323486328125" lon="-118.40285564772784709930419921875">
        <ele>3298.199951171875</ele>
        <time>2021-06-25T23:22:11.000Z</time>
        <extensions>
          <ns3:TrackPointExtension>
            <ns3:atemp>28.0</ns3:atemp>
            <ns3:hr>73</ns3:hr>
          </ns3:TrackPointExtension>
        </extensions>
      </trkpt>
      <trkpt lat="36.7998042516410350799560546875" lon="-118.40283754281699657440185546875">
        <ele>3298</ele>
        <time>2021-06-25T23:22:13.000Z</time>
        <extensions>
          <ns3:TrackPointExtension>
            <ns3:atemp>28.0</ns3:atemp>
            <ns3:hr>70</ns3:hr>
          </ns3:TrackPointExtension>
        </extensions>
      </trkpt>
      <trkpt lat="36.79981456138193607330322265625" lon="-118.40282279066741466522216796875">
        <ele>3298.199951171875</ele>
        <time>2021-06-25T23:22:14.000Z</time>
        <extensions>
          <ns3:TrackPointExtension>
            <ns3:atemp>28.0</ns3:atemp>
            <ns3:hr>73</ns3:hr>
          </ns3:TrackPointExtension>
        </extensions>
      </trkpt>
      <trkpt lat="36.79982981644570827484130859375" lon="-118.40280401520431041717529296875">
        <ele>3298</ele>
        <time>2021-06-25T23:22:16.000Z</time>
        <extensions>
          <ns3:TrackPointExtension>
            <ns3:atemp>28.0</ns3:atemp>
            <ns3:hr>73</ns3:hr>
          </ns3:TrackPointExtension>
        </extensions>
      </trkpt>
      <trkpt lat="36.799872480332851409912109375" lon="-118.40272841043770313262939453125">
        <ele>3297.199951171875</ele>
        <time>2021-06-25T23:22:23.000Z</time>
        <extensions>
          <ns3:TrackPointExtension>
            <ns3:atemp>28.0</ns3:atemp>
            <ns3:hr>73</ns3:hr>
          </ns3:TrackPointExtension>
        </extensions>
      </trkpt>
      <trkpt lat="36.79987910203635692596435546875" lon="-118.40271835215389728546142578125">
        <ele>3297.199951171875</ele>
        <time>2021-06-25T23:22:24.000Z</time>
        <extensions>
          <ns3:TrackPointExtension>
            <ns3:atemp>28.0</ns3:atemp>
            <ns3:hr>73</ns3:hr>
          </ns3:TrackPointExtension>
        </extensions>
      </trkpt>
      <trkpt lat="36.79989150725305080413818359375" lon="-118.40270142070949077606201171875">
        <ele>3297</ele>
        <time>2021-06-25T23:22:26.000Z</time>
        <extensions>
          <ns3:TrackPointExtension>
            <ns3:atemp>28.0</ns3:atemp>
            <ns3:hr>73</ns3:hr>
          </ns3:TrackPointExtension>
        </extensions>
      </trkpt>
      <trkpt lat="36.79991078563034534454345703125" lon="-118.4026691503822803497314453125">
        <ele>3296.39990234375</ele>
        <time>2021-06-25T23:22:29.000Z</time>
        <extensions>
          <ns3:TrackPointExtension>
            <ns3:atemp>28.0</ns3:atemp>
            <ns3:hr>73</ns3:hr>
          </ns3:TrackPointExtension>
        </extensions>
      </trkpt>
      <trkpt lat="36.79995705373585224151611328125" lon="-118.40261257253587245941162109375">
        <ele>3296</ele>
        <time>2021-06-25T23:22:36.000Z</time>
        <extensions>
          <ns3:TrackPointExtension>
            <ns3:atemp>28.0</ns3:atemp>
            <ns3:hr>74</ns3:hr>
          </ns3:TrackPointExtension>
        </extensions>
      </trkpt>
      <trkpt lat="36.79996174760162830352783203125" lon="-118.40260368771851062774658203125">
        <ele>3295.800048828125</ele>
        <time>2021-06-25T23:22:37.000Z</time>
        <extensions>
          <ns3:TrackPointExtension>
            <ns3:atemp>28.0</ns3:atemp>
            <ns3:hr>74</ns3:hr>
          </ns3:TrackPointExtension>
        </extensions>
      </trkpt>
      <trkpt lat="36.79997138679027557373046875" lon="-118.4025655500590801239013671875">
        <ele>3295</ele>
        <time>2021-06-25T23:22:41.000Z</time>
        <extensions>
          <ns3:TrackPointExtension>
            <ns3:atemp>28.0</ns3:atemp>
            <ns3:hr>75</ns3:hr>
          </ns3:TrackPointExtension>
        </extensions>
      </trkpt>
      <trkpt lat="36.799967698752880096435546875" lon="-118.4025456011295318603515625">
        <ele>3294.60009765625</ele>
        <time>2021-06-25T23:22:42.000Z</time>
        <extensions>
          <ns3:TrackPointExtension>
            <ns3:atemp>28.0</ns3:atemp>
            <ns3:hr>76</ns3:hr>
          </ns3:TrackPointExtension>
        </extensions>
      </trkpt>
      <trkpt lat="36.79996610619127750396728515625" lon="-118.4025370515882968902587890625">
        <ele>3294.39990234375</ele>
        <time>2021-06-25T23:22:43.000Z</time>
        <extensions>
          <ns3:TrackPointExtension>
            <ns3:atemp>28.0</ns3:atemp>
            <ns3:hr>76</ns3:hr>
          </ns3:TrackPointExtension>
        </extensions>
      </trkpt>
      <trkpt lat="36.799964345991611480712890625" lon="-118.40252875350415706634521484375">
        <ele>3293.800048828125</ele>
        <time>2021-06-25T23:22:45.000Z</time>
        <extensions>
          <ns3:TrackPointExtension>
            <ns3:atemp>28.0</ns3:atemp>
            <ns3:hr>78</ns3:hr>
          </ns3:TrackPointExtension>
        </extensions>
      </trkpt>
      <trkpt lat="36.79995990358293056488037109375" lon="-118.40251567773520946502685546875">
        <ele>3293.60009765625</ele>
        <time>2021-06-25T23:22:48.000Z</time>
        <extensions>
          <ns3:TrackPointExtension>
            <ns3:atemp>28.0</ns3:atemp>
            <ns3:hr>81</ns3:hr>
          </ns3:TrackPointExtension>
        </extensions>
      </trkpt>
      <trkpt lat="36.79996040649712085723876953125" lon="-118.402509726583957672119140625">
        <ele>3293.60009765625</ele>
        <time>2021-06-25T23:22:49.000Z</time>
        <extensions>
          <ns3:TrackPointExtension>
            <ns3:atemp>28.0</ns3:atemp>
            <ns3:hr>81</ns3:hr>
          </ns3:TrackPointExtension>
        </extensions>
      </trkpt>
      <trkpt lat="36.79995286278426647186279296875" lon="-118.40250427834689617156982421875">
        <ele>3293.60009765625</ele>
        <time>2021-06-25T23:22:54.000Z</time>
        <extensions>
          <ns3:TrackPointExtension>
            <ns3:atemp>28.0</ns3:atemp>
            <ns3:hr>80</ns3:hr>
          </ns3:TrackPointExtension>
        </extensions>
      </trkpt>
      <trkpt lat="36.79994163103401660919189453125" lon="-118.4025005064904689788818359375">
        <ele>3293.60009765625</ele>
        <time>2021-06-25T23:23:05.000Z</time>
        <extensions>
          <ns3:TrackPointExtension>
            <ns3:atemp>28.0</ns3:atemp>
            <ns3:hr>79</ns3:hr>
          </ns3:TrackPointExtension>
        </extensions>
      </trkpt>
      <trkpt lat="36.79994900710880756378173828125" lon="-118.402501009404659271240234375">
        <ele>3293.39990234375</ele>
        <time>2021-06-25T23:23:15.000Z</time>
        <extensions>
          <ns3:TrackPointExtension>
            <ns3:atemp>28.0</ns3:atemp>
            <ns3:hr>82</ns3:hr>
          </ns3:TrackPointExtension>
        </extensions>
      </trkpt>
      <trkpt lat="36.79994582198560237884521484375" lon="-118.4024968184530735015869140625">
        <ele>3293.60009765625</ele>
        <time>2021-06-25T23:23:26.000Z</time>
        <extensions>
          <ns3:TrackPointExtension>
            <ns3:atemp>28.0</ns3:atemp>
            <ns3:hr>83</ns3:hr>
          </ns3:TrackPointExtension>
        </extensions>
      </trkpt>
      <trkpt lat="36.799908690154552459716796875" lon="-118.4024906158447265625">
        <ele>3292.60009765625</ele>
        <time>2021-06-25T23:23:36.000Z</time>
        <extensions>
          <ns3:TrackPointExtension>
            <ns3:atemp>27.0</ns3:atemp>
            <ns3:hr>82</ns3:hr>
          </ns3:TrackPointExtension>
        </extensions>
      </trkpt>
      <trkpt lat="36.7998656071722507476806640625" lon="-118.40249757282435894012451171875">
        <ele>3292.39990234375</ele>
        <time>2021-06-25T23:23:39.000Z</time>
        <extensions>
          <ns3:TrackPointExtension>
            <ns3:atemp>27.0</ns3:atemp>
            <ns3:hr>84</ns3:hr>
          </ns3:TrackPointExtension>
        </extensions>
      </trkpt>
      <trkpt lat="36.79982788860797882080078125" lon="-118.4025125764310359954833984375">
        <ele>3292</ele>
        <time>2021-06-25T23:23:42.000Z</time>
        <extensions>
          <ns3:TrackPointExtension>
            <ns3:atemp>27.0</ns3:atemp>
            <ns3:hr>81</ns3:hr>
          </ns3:TrackPointExtension>
        </extensions>
      </trkpt>
      <trkpt lat="36.79980450309813022613525390625" lon="-118.40252255089581012725830078125">
        <ele>3291.60009765625</ele>
        <time>2021-06-25T23:23:44.000Z</time>
        <extensions>
          <ns3:TrackPointExtension>
            <ns3:atemp>27.0</ns3:atemp>
            <ns3:hr>79</ns3:hr>
          </ns3:TrackPointExtension>
        </extensions>
      </trkpt>
      <trkpt lat="36.79978187195956707000732421875" lon="-118.40252749621868133544921875">
        <ele>3291.199951171875</ele>
        <time>2021-06-25T23:23:48.000Z</time>
        <extensions>
          <ns3:TrackPointExtension>
            <ns3:atemp>27.0</ns3:atemp>
            <ns3:hr>80</ns3:hr>
          </ns3:TrackPointExtension>
        </extensions>
      </trkpt>
      <trkpt lat="36.79975211620330810546875" lon="-118.40250461362302303314208984375">
        <ele>3290.60009765625</ele>
        <time>2021-06-25T23:23:52.000Z</time>
        <extensions>
          <ns3:TrackPointExtension>
            <ns3:atemp>27.0</ns3:atemp>
            <ns3:hr>83</ns3:hr>
          </ns3:TrackPointExtension>
        </extensions>
      </trkpt>
      <trkpt lat="36.7997408844530582427978515625" lon="-118.4024884365499019622802734375">
        <ele>3290</ele>
        <time>2021-06-25T23:23:54.000Z</time>
        <extensions>
          <ns3:TrackPointExtension>
            <ns3:atemp>27.0</ns3:atemp>
            <ns3:hr>84</ns3:hr>
          </ns3:TrackPointExtension>
        </extensions>
      </trkpt>
      <trkpt lat="36.79973526857793331146240234375" lon="-118.40246639214456081390380859375">
        <ele>3289.60009765625</ele>
        <time>2021-06-25T23:23:57.000Z</time>
        <extensions>
          <ns3:TrackPointExtension>
            <ns3:atemp>27.0</ns3:atemp>
            <ns3:hr>86</ns3:hr>
          </ns3:TrackPointExtension>
        </extensions>
      </trkpt>
      <trkpt lat="36.79971682839095592498779296875" lon="-118.402437977492809295654296875">
        <ele>3289.39990234375</ele>
        <time>2021-06-25T23:24:01.000Z</time>
        <extensions>
          <ns3:TrackPointExtension>
            <ns3:atemp>27.0</ns3:atemp>
            <ns3:hr>89</ns3:hr>
          </ns3:TrackPointExtension>
        </extensions>
      </trkpt>
      <trkpt lat="36.7997013218700885772705078125" lon="-118.4024190343916416168212890625">
        <ele>3289.199951171875</ele>
        <time>2021-06-25T23:24:05.000Z</time>
        <extensions>
          <ns3:TrackPointExtension>
            <ns3:atemp>27.0</ns3:atemp>
            <ns3:hr>88</ns3:hr>
          </ns3:TrackPointExtension>
        </extensions>
      </trkpt>
      <trkpt lat="36.799695454537868499755859375" lon="-118.40241526253521442413330078125">
        <ele>3289</ele>
        <time>2021-06-25T23:24:06.000Z</time>
        <extensions>
          <ns3:TrackPointExtension>
            <ns3:atemp>27.0</ns3:atemp>
            <ns3:hr>87</ns3:hr>
          </ns3:TrackPointExtension>
        </extensions>
      </trkpt>
      <trkpt lat="36.7996909283101558685302734375" lon="-118.40241241268813610076904296875">
        <ele>3289</ele>
        <time>2021-06-25T23:24:07.000Z</time>
        <extensions>
          <ns3:TrackPointExtension>
            <ns3:atemp>27.0</ns3:atemp>
            <ns3:hr>87</ns3:hr>
          </ns3:TrackPointExtension>
        </extensions>
      </trkpt>
      <trkpt lat="36.799665279686450958251953125" lon="-118.4023841656744480133056640625">
        <ele>3288.39990234375</ele>
        <time>2021-06-25T23:24:11.000Z</time>
        <extensions>
          <ns3:TrackPointExtension>
            <ns3:atemp>27.0</ns3:atemp>
            <ns3:hr>85</ns3:hr>
          </ns3:TrackPointExtension>
        </extensions>
      </trkpt>
      <trkpt lat="36.79963066242635250091552734375" lon="-118.40236949734389781951904296875">
        <ele>3287.60009765625</ele>
        <time>2021-06-25T23:24:16.000Z</time>
        <extensions>
          <ns3:TrackPointExtension>
            <ns3:atemp>27.0</ns3:atemp>
            <ns3:hr>83</ns3:hr>
          </ns3:TrackPointExtension>
        </extensions>
      </trkpt>
      <trkpt lat="36.79960836656391620635986328125" lon="-118.4023573435842990875244140625">
        <ele>3286.800048828125</ele>
        <time>2021-06-25T23:24:19.000Z</time>
        <extensions>
          <ns3:TrackPointExtension>
            <ns3:atemp>27.0</ns3:atemp>
            <ns3:hr>83</ns3:hr>
          </ns3:TrackPointExtension>
        </extensions>
      </trkpt>
      <trkpt lat="36.799599230289459228515625" lon="-118.4023417532444000244140625">
        <ele>3286.60009765625</ele>
        <time>2021-06-25T23:24:22.000Z</time>
        <extensions>
          <ns3:TrackPointExtension>
            <ns3:atemp>27.0</ns3:atemp>
            <ns3:hr>83</ns3:hr>
          </ns3:TrackPointExtension>
        </extensions>
      </trkpt>
      <trkpt lat="36.79959587752819061279296875" lon="-118.4023382328450679779052734375">
        <ele>3286.39990234375</ele>
        <time>2021-06-25T23:24:24.000Z</time>
        <extensions>
          <ns3:TrackPointExtension>
            <ns3:atemp>27.0</ns3:atemp>
            <ns3:hr>81</ns3:hr>
          </ns3:TrackPointExtension>
        </extensions>
      </trkpt>
      <trkpt lat="36.79959596134722232818603515625" lon="-118.402341417968273162841796875">
        <ele>3286.60009765625</ele>
        <time>2021-06-25T23:24:26.000Z</time>
        <extensions>
          <ns3:TrackPointExtension>
            <ns3:atemp>27.0</ns3:atemp>
            <ns3:hr>80</ns3:hr>
          </ns3:TrackPointExtension>
        </extensions>
      </trkpt>
      <trkpt lat="36.79957701824605464935302734375" lon="-118.40231669135391712188720703125">
        <ele>3286.39990234375</ele>
        <time>2021-06-25T23:24:30.000Z</time>
        <extensions>
          <ns3:TrackPointExtension>
            <ns3:atemp>27.0</ns3:atemp>
            <ns3:hr>83</ns3:hr>
          </ns3:TrackPointExtension>
        </extensions>
      </trkpt>
      <trkpt lat="36.79953644983470439910888671875" lon="-118.40229950845241546630859375">
        <ele>3285.39990234375</ele>
        <time>2021-06-25T23:24:34.000Z</time>
        <extensions>
          <ns3:TrackPointExtension>
            <ns3:atemp>27.0</ns3:atemp>
            <ns3:hr>85</ns3:hr>
          </ns3:TrackPointExtension>
        </extensions>
      </trkpt>
      <trkpt lat="36.7995162494480609893798828125" lon="-118.40228919871151447296142578125">
        <ele>3285</ele>
        <time>2021-06-25T23:24:36.000Z</time>
        <extensions>
          <ns3:TrackPointExtension>
            <ns3:atemp>27.0</ns3:atemp>
            <ns3:hr>87</ns3:hr>
          </ns3:TrackPointExtension>
        </extensions>
      </trkpt>
      <trkpt lat="36.79947040043771266937255859375" lon="-118.4022907912731170654296875">
        <ele>3284.60009765625</ele>
        <time>2021-06-25T23:24:41.000Z</time>
        <extensions>
          <ns3:TrackPointExtension>
            <ns3:atemp>27.0</ns3:atemp>
            <ns3:hr>90</ns3:hr>
          </ns3:TrackPointExtension>
        </extensions>
      </trkpt>
      <trkpt lat="36.79945103824138641357421875" lon="-118.40228207409381866455078125">
        <ele>3284.60009765625</ele>
        <time>2021-06-25T23:24:43.000Z</time>
        <extensions>
          <ns3:TrackPointExtension>
            <ns3:atemp>27.0</ns3:atemp>
            <ns3:hr>90</ns3:hr>
          </ns3:TrackPointExtension>
        </extensions>
      </trkpt>
      <trkpt lat="36.79939244873821735382080078125" lon="-118.40224510990083217620849609375">
        <ele>3283.60009765625</ele>
        <time>2021-06-25T23:24:48.000Z</time>
        <extensions>
          <ns3:TrackPointExtension>
            <ns3:atemp>27.0</ns3:atemp>
            <ns3:hr>91</ns3:hr>
          </ns3:TrackPointExtension>
        </extensions>
      </trkpt>
      <trkpt lat="36.7993496172130107879638671875" lon="-118.40221107937395572662353515625">
        <ele>3283.199951171875</ele>
        <time>2021-06-25T23:24:52.000Z</time>
        <extensions>
          <ns3:TrackPointExtension>
            <ns3:atemp>27.0</ns3:atemp>
            <ns3:hr>91</ns3:hr>
          </ns3:TrackPointExtension>
        </extensions>
      </trkpt>
      <trkpt lat="36.79936277680099010467529296875" lon="-118.40219079516828060150146484375">
        <ele>3283</ele>
        <time>2021-06-25T23:24:57.000Z</time>
        <extensions>
          <ns3:TrackPointExtension>
            <ns3:atemp>27.0</ns3:atemp>
            <ns3:hr>90</ns3:hr>
          </ns3:TrackPointExtension>
        </extensions>
      </trkpt>
      <trkpt lat="36.79936654865741729736328125" lon="-118.4021808207035064697265625">
        <ele>3282.60009765625</ele>
        <time>2021-06-25T23:25:00.000Z</time>
        <extensions>
          <ns3:TrackPointExtension>
            <ns3:atemp>27.0</ns3:atemp>
            <ns3:hr>88</ns3:hr>
          </ns3:TrackPointExtension>
        </extensions>
      </trkpt>
      <trkpt lat="36.79938071407377719879150390625" lon="-118.40216062031686305999755859375">
        <ele>3282.199951171875</ele>
        <time>2021-06-25T23:25:02.000Z</time>
        <extensions>
          <ns3:TrackPointExtension>
            <ns3:atemp>27.0</ns3:atemp>
            <ns3:hr>87</ns3:hr>
          </ns3:TrackPointExtension>
        </extensions>
      </trkpt>
      <trkpt lat="36.79939429275691509246826171875" lon="-118.40213614515960216522216796875">
        <ele>3281.39990234375</ele>
        <time>2021-06-25T23:25:05.000Z</time>
        <extensions>
          <ns3:TrackPointExtension>
            <ns3:atemp>27.0</ns3:atemp>
            <ns3:hr>88</ns3:hr>
          </ns3:TrackPointExtension>
        </extensions>
      </trkpt>
      <trkpt lat="36.7994217015802860260009765625" lon="-118.4021005220711231231689453125">
        <ele>3281.199951171875</ele>
        <time>2021-06-25T23:25:10.000Z</time>
        <extensions>
          <ns3:TrackPointExtension>
            <ns3:atemp>27.0</ns3:atemp>
            <ns3:hr>85</ns3:hr>
          </ns3:TrackPointExtension>
        </extensions>
      </trkpt>
      <trkpt lat="36.79943469353020191192626953125" lon="-118.4021011926233768463134765625">
        <ele>3280.800048828125</ele>
        <time>2021-06-25T23:25:12.000Z</time>
        <extensions>
          <ns3:TrackPointExtension>
            <ns3:atemp>27.0</ns3:atemp>
            <ns3:hr>84</ns3:hr>
          </ns3:TrackPointExtension>
        </extensions>
      </trkpt>
      <trkpt lat="36.799457408487796783447265625" lon="-118.40210127644240856170654296875">
        <ele>3280.800048828125</ele>
        <time>2021-06-25T23:25:14.000Z</time>
        <extensions>
          <ns3:TrackPointExtension>
            <ns3:atemp>27.0</ns3:atemp>
            <ns3:hr>86</ns3:hr>
          </ns3:TrackPointExtension>
        </extensions>
      </trkpt>
      <trkpt lat="36.799486242234706878662109375" lon="-118.4020854346454143524169921875">
        <ele>3280.199951171875</ele>
        <time>2021-06-25T23:25:17.000Z</time>
        <extensions>
          <ns3:TrackPointExtension>
            <ns3:atemp>27.0</ns3:atemp>
            <ns3:hr>89</ns3:hr>
          </ns3:TrackPointExtension>
        </extensions>
      </trkpt>
      <trkpt lat="36.79950677789747714996337890625" lon="-118.402055092155933380126953125">
        <ele>3279.800048828125</ele>
        <time>2021-06-25T23:25:20.000Z</time>
        <extensions>
          <ns3:TrackPointExtension>
            <ns3:atemp>27.0</ns3:atemp>
            <ns3:hr>91</ns3:hr>
          </ns3:TrackPointExtension>
        </extensions>
      </trkpt>
      <trkpt lat="36.79953410290181636810302734375" lon="-118.40205249376595020294189453125">
        <ele>3279.800048828125</ele>
        <time>2021-06-25T23:25:22.000Z</time>
        <extensions>
          <ns3:TrackPointExtension>
            <ns3:atemp>27.0</ns3:atemp>
            <ns3:hr>94</ns3:hr>
          </ns3:TrackPointExtension>
        </extensions>
      </trkpt>
      <trkpt lat="36.7995584942400455474853515625" lon="-118.4020413458347320556640625">
        <ele>3279.800048828125</ele>
        <time>2021-06-25T23:25:26.000Z</time>
        <extensions>
          <ns3:TrackPointExtension>
            <ns3:atemp>27.0</ns3:atemp>
            <ns3:hr>96</ns3:hr>
          </ns3:TrackPointExtension>
        </extensions>
      </trkpt>
      <trkpt lat="36.79957131855189800262451171875" lon="-118.40204310603439807891845703125">
        <ele>3279.39990234375</ele>
        <time>2021-06-25T23:25:28.000Z</time>
        <extensions>
          <ns3:TrackPointExtension>
            <ns3:atemp>27.0</ns3:atemp>
            <ns3:hr>99</ns3:hr>
          </ns3:TrackPointExtension>
        </extensions>
      </trkpt>
      <trkpt lat="36.79957819171249866485595703125" lon="-118.40204562060534954071044921875">
        <ele>3279.199951171875</ele>
        <time>2021-06-25T23:25:29.000Z</time>
        <extensions>
          <ns3:TrackPointExtension>
            <ns3:atemp>27.0</ns3:atemp>
            <ns3:hr>98</ns3:hr>
          </ns3:TrackPointExtension>
        </extensions>
      </trkpt>
      <trkpt lat="36.799633763730525970458984375" lon="-118.4020542539656162261962890625">
        <ele>3278.39990234375</ele>
        <time>2021-06-25T23:25:34.000Z</time>
        <extensions>
          <ns3:TrackPointExtension>
            <ns3:atemp>27.0</ns3:atemp>
            <ns3:hr>96</ns3:hr>
          </ns3:TrackPointExtension>
        </extensions>
      </trkpt>
      <trkpt lat="36.799646504223346710205078125" lon="-118.4020574390888214111328125">
        <ele>3278</ele>
        <time>2021-06-25T23:25:35.000Z</time>
        <extensions>
          <ns3:TrackPointExtension>
            <ns3:atemp>27.0</ns3:atemp>
            <ns3:hr>96</ns3:hr>
          </ns3:TrackPointExtension>
        </extensions>
      </trkpt>
      <trkpt lat="36.7996971309185028076171875" lon="-118.40207596309483051300048828125">
        <ele>3277</ele>
        <time>2021-06-25T23:25:41.000Z</time>
        <extensions>
          <ns3:TrackPointExtension>
            <ns3:atemp>27.0</ns3:atemp>
            <ns3:hr>95</ns3:hr>
          </ns3:TrackPointExtension>
        </extensions>
      </trkpt>
      <trkpt lat="36.79971816949546337127685546875" lon="-118.402087278664112091064453125">
        <ele>3277</ele>
        <time>2021-06-25T23:25:43.000Z</time>
        <extensions>
          <ns3:TrackPointExtension>
            <ns3:atemp>27.0</ns3:atemp>
            <ns3:hr>94</ns3:hr>
          </ns3:TrackPointExtension>
        </extensions>
      </trkpt>
      <trkpt lat="36.7997663654386997222900390625" lon="-118.4021055512130260467529296875">
        <ele>3276.60009765625</ele>
        <time>2021-06-25T23:25:50.000Z</time>
        <extensions>
          <ns3:TrackPointExtension>
            <ns3:atemp>27.0</ns3:atemp>
            <ns3:hr>93</ns3:hr>
          </ns3:TrackPointExtension>
        </extensions>
      </trkpt>
      <trkpt lat="36.7997727356851100921630859375" lon="-118.4021057188510894775390625">
        <ele>3276.60009765625</ele>
        <time>2021-06-25T23:25:51.000Z</time>
        <extensions>
          <ns3:TrackPointExtension>
            <ns3:atemp>27.0</ns3:atemp>
            <ns3:hr>93</ns3:hr>
          </ns3:TrackPointExtension>
        </extensions>
      </trkpt>
      <trkpt lat="36.79977684281766414642333984375" lon="-118.4021055512130260467529296875">
        <ele>3276.60009765625</ele>
        <time>2021-06-25T23:25:52.000Z</time>
        <extensions>
          <ns3:TrackPointExtension>
            <ns3:atemp>27.0</ns3:atemp>
            <ns3:hr>92</ns3:hr>
          </ns3:TrackPointExtension>
        </extensions>
      </trkpt>
      <trkpt lat="36.79976510815322399139404296875" lon="-118.40211435221135616302490234375">
        <ele>3276</ele>
        <time>2021-06-25T23:25:59.000Z</time>
        <extensions>
          <ns3:TrackPointExtension>
            <ns3:atemp>27.0</ns3:atemp>
            <ns3:hr>90</ns3:hr>
          </ns3:TrackPointExtension>
        </extensions>
      </trkpt>
      <trkpt lat="36.79975823499262332916259765625" lon="-118.4021058864891529083251953125">
        <ele>3276</ele>
        <time>2021-06-25T23:26:04.000Z</time>
        <extensions>
          <ns3:TrackPointExtension>
            <ns3:atemp>27.0</ns3:atemp>
            <ns3:hr>87</ns3:hr>
          </ns3:TrackPointExtension>
        </extensions>
      </trkpt>
      <trkpt lat="36.79975823499262332916259765625" lon="-118.4021058864891529083251953125">
        <ele>3276</ele>
        <time>2021-06-25T23:26:08.000Z</time>
        <extensions>
          <ns3:TrackPointExtension>
            <ns3:atemp>27.0</ns3:atemp>
            <ns3:hr>84</ns3:hr>
          </ns3:TrackPointExtension>
        </extensions>
      </trkpt>
      <trkpt lat="36.79974214173853397369384765625" lon="-118.40209624730050563812255859375">
        <ele>3275.39990234375</ele>
        <time>2021-06-25T23:26:26.000Z</time>
        <extensions>
          <ns3:TrackPointExtension>
            <ns3:atemp>27.0</ns3:atemp>
            <ns3:hr>85</ns3:hr>
          </ns3:TrackPointExtension>
        </extensions>
      </trkpt>
      <trkpt lat="36.79973677732050418853759765625" lon="-118.402085937559604644775390625">
        <ele>3275</ele>
        <time>2021-06-25T23:26:36.000Z</time>
        <extensions>
          <ns3:TrackPointExtension>
            <ns3:atemp>27.0</ns3:atemp>
            <ns3:hr>84</ns3:hr>
          </ns3:TrackPointExtension>
        </extensions>
      </trkpt>
      <trkpt lat="36.79977416060864925384521484375" lon="-118.4021347202360630035400390625">
        <ele>3274.60009765625</ele>
        <time>2021-06-25T23:26:41.000Z</time>
        <extensions>
          <ns3:TrackPointExtension>
            <ns3:atemp>27.0</ns3:atemp>
            <ns3:hr>84</ns3:hr>
          </ns3:TrackPointExtension>
        </extensions>
      </trkpt>
      <trkpt lat="36.79986200295388698577880859375" lon="-118.40215760283172130584716796875">
        <ele>3274</ele>
        <time>2021-06-25T23:26:48.000Z</time>
        <extensions>
          <ns3:TrackPointExtension>
            <ns3:atemp>27.0</ns3:atemp>
            <ns3:hr>85</ns3:hr>
          </ns3:TrackPointExtension>
        </extensions>
      </trkpt>
      <trkpt lat="36.7999259568750858306884765625" lon="-118.402153663337230682373046875">
        <ele>3273.800048828125</ele>
        <time>2021-06-25T23:26:55.000Z</time>
        <extensions>
          <ns3:TrackPointExtension>
            <ns3:atemp>27.0</ns3:atemp>
            <ns3:hr>87</ns3:hr>
          </ns3:TrackPointExtension>
        </extensions>
      </trkpt>
      <trkpt lat="36.7999296449124813079833984375" lon="-118.4021441079676151275634765625">
        <ele>3273.60009765625</ele>
        <time>2021-06-25T23:26:57.000Z</time>
        <extensions>
          <ns3:TrackPointExtension>
            <ns3:atemp>27.0</ns3:atemp>
            <ns3:hr>87</ns3:hr>
          </ns3:TrackPointExtension>
        </extensions>
      </trkpt>
      <trkpt lat="36.7999588139355182647705078125" lon="-118.4021333791315555572509765625">
        <ele>3273.199951171875</ele>
        <time>2021-06-25T23:27:01.000Z</time>
        <extensions>
          <ns3:TrackPointExtension>
            <ns3:atemp>27.0</ns3:atemp>
            <ns3:hr>85</ns3:hr>
          </ns3:TrackPointExtension>
        </extensions>
      </trkpt>
      <trkpt lat="36.799980439245700836181640625" lon="-118.40210798196494579315185546875">
        <ele>3272.60009765625</ele>
        <time>2021-06-25T23:27:05.000Z</time>
        <extensions>
          <ns3:TrackPointExtension>
            <ns3:atemp>27.0</ns3:atemp>
            <ns3:hr>85</ns3:hr>
          </ns3:TrackPointExtension>
        </extensions>
      </trkpt>
      <trkpt lat="36.80002771317958831787109375" lon="-118.40208317153155803680419921875">
        <ele>3271.39990234375</ele>
        <time>2021-06-25T23:27:10.000Z</time>
        <extensions>
          <ns3:TrackPointExtension>
            <ns3:atemp>27.0</ns3:atemp>
            <ns3:hr>84</ns3:hr>
          </ns3:TrackPointExtension>
        </extensions>
      </trkpt>
      <trkpt lat="36.800060905516147613525390625" lon="-118.4020958282053470611572265625">
        <ele>3271</ele>
        <time>2021-06-25T23:27:12.000Z</time>
        <extensions>
          <ns3:TrackPointExtension>
            <ns3:atemp>27.0</ns3:atemp>
            <ns3:hr>84</ns3:hr>
          </ns3:TrackPointExtension>
        </extensions>
      </trkpt>
      <trkpt lat="36.80009418167173862457275390625" lon="-118.4020747058093547821044921875">
        <ele>3271</ele>
        <time>2021-06-25T23:27:16.000Z</time>
        <extensions>
          <ns3:TrackPointExtension>
            <ns3:atemp>27.0</ns3:atemp>
            <ns3:hr>83</ns3:hr>
          </ns3:TrackPointExtension>
        </extensions>
      </trkpt>
      <trkpt lat="36.80009166710078716278076171875" lon="-118.40206808410584926605224609375">
        <ele>3271</ele>
        <time>2021-06-25T23:27:18.000Z</time>
        <extensions>
          <ns3:TrackPointExtension>
            <ns3:atemp>27.0</ns3:atemp>
            <ns3:hr>80</ns3:hr>
          </ns3:TrackPointExtension>
        </extensions>
      </trkpt>
      <trkpt lat="36.80008546449244022369384765625" lon="-118.40205433778464794158935546875">
        <ele>3271.199951171875</ele>
        <time>2021-06-25T23:27:19.000Z</time>
        <extensions>
          <ns3:TrackPointExtension>
            <ns3:atemp>27.0</ns3:atemp>
            <ns3:hr>82</ns3:hr>
          </ns3:TrackPointExtension>
        </extensions>
      </trkpt>
      <trkpt lat="36.8000728078186511993408203125" lon="-118.402026593685150146484375">
        <ele>3271.199951171875</ele>
        <time>2021-06-25T23:27:23.000Z</time>
        <extensions>
          <ns3:TrackPointExtension>
            <ns3:atemp>27.0</ns3:atemp>
            <ns3:hr>85</ns3:hr>
          </ns3:TrackPointExtension>
        </extensions>
      </trkpt>
      <trkpt lat="36.800083033740520477294921875" lon="-118.4020552597939968109130859375">
        <ele>3271</ele>
        <time>2021-06-25T23:27:30.000Z</time>
        <extensions>
          <ns3:TrackPointExtension>
            <ns3:atemp>27.0</ns3:atemp>
            <ns3:hr>88</ns3:hr>
          </ns3:TrackPointExtension>
        </extensions>
      </trkpt>
      <trkpt lat="36.80008144117891788482666015625" lon="-118.4020525775849819183349609375">
        <ele>3271</ele>
        <time>2021-06-25T23:27:31.000Z</time>
        <extensions>
          <ns3:TrackPointExtension>
            <ns3:atemp>27.0</ns3:atemp>
            <ns3:hr>88</ns3:hr>
          </ns3:TrackPointExtension>
        </extensions>
      </trkpt>
      <trkpt lat="36.80007758550345897674560546875" lon="-118.40205718763172626495361328125">
        <ele>3271</ele>
        <time>2021-06-25T23:27:37.000Z</time>
        <extensions>
          <ns3:TrackPointExtension>
            <ns3:atemp>27.0</ns3:atemp>
            <ns3:hr>91</ns3:hr>
          </ns3:TrackPointExtension>
        </extensions>
      </trkpt>
      <trkpt lat="36.80007758550345897674560546875" lon="-118.40205718763172626495361328125">
        <ele>3270.800048828125</ele>
        <time>2021-06-25T23:27:41.000Z</time>
        <extensions>
          <ns3:TrackPointExtension>
            <ns3:atemp>27.0</ns3:atemp>
            <ns3:hr>94</ns3:hr>
          </ns3:TrackPointExtension>
        </extensions>
      </trkpt>
      <trkpt lat="36.800094433128833770751953125" lon="-118.40206556953489780426025390625">
        <ele>3271.60009765625</ele>
        <time>2021-06-25T23:27:56.000Z</time>
        <extensions>
          <ns3:TrackPointExtension>
            <ns3:atemp>27.0</ns3:atemp>
            <ns3:hr>93</ns3:hr>
          </ns3:TrackPointExtension>
        </extensions>
      </trkpt>
      <trkpt lat="36.80009703151881694793701171875" lon="-118.4020887874066829681396484375">
        <ele>3272</ele>
        <time>2021-06-25T23:28:09.000Z</time>
        <extensions>
          <ns3:TrackPointExtension>
            <ns3:atemp>27.0</ns3:atemp>
            <ns3:hr>96</ns3:hr>
          </ns3:TrackPointExtension>
        </extensions>
      </trkpt>
      <trkpt lat="36.80008697323501110076904296875" lon="-118.4021038748323917388916015625">
        <ele>3272.199951171875</ele>
        <time>2021-06-25T23:28:20.000Z</time>
        <extensions>
          <ns3:TrackPointExtension>
            <ns3:atemp>26.0</ns3:atemp>
            <ns3:hr>94</ns3:hr>
          </ns3:TrackPointExtension>
        </extensions>
      </trkpt>
      <trkpt lat="36.8000868894159793853759765625" lon="-118.40210680849850177764892578125">
        <ele>3272.39990234375</ele>
        <time>2021-06-25T23:28:23.000Z</time>
        <extensions>
          <ns3:TrackPointExtension>
            <ns3:atemp>26.0</ns3:atemp>
            <ns3:hr>91</ns3:hr>
          </ns3:TrackPointExtension>
        </extensions>
      </trkpt>
      <trkpt lat="36.8000868894159793853759765625" lon="-118.4021085686981678009033203125">
        <ele>3272.39990234375</ele>
        <time>2021-06-25T23:28:25.000Z</time>
        <extensions>
          <ns3:TrackPointExtension>
            <ns3:atemp>26.0</ns3:atemp>
            <ns3:hr>89</ns3:hr>
          </ns3:TrackPointExtension>
        </extensions>
      </trkpt>
      <trkpt lat="36.80013759993016719818115234375" lon="-118.402071185410022735595703125">
        <ele>3271.39990234375</ele>
        <time>2021-06-25T23:28:35.000Z</time>
        <extensions>
          <ns3:TrackPointExtension>
            <ns3:atemp>26.0</ns3:atemp>
            <ns3:hr>88</ns3:hr>
          </ns3:TrackPointExtension>
        </extensions>
      </trkpt>
      <trkpt lat="36.80017649196088314056396484375" lon="-118.40204360894858837127685546875">
        <ele>3270.39990234375</ele>
        <time>2021-06-25T23:28:38.000Z</time>
        <extensions>
          <ns3:TrackPointExtension>
            <ns3:atemp>26.0</ns3:atemp>
            <ns3:hr>85</ns3:hr>
          </ns3:TrackPointExtension>
        </extensions>
      </trkpt>
      <trkpt lat="36.80020079948008060455322265625" lon="-118.402026593685150146484375">
        <ele>3270.39990234375</ele>
        <time>2021-06-25T23:28:40.000Z</time>
        <extensions>
          <ns3:TrackPointExtension>
            <ns3:atemp>26.0</ns3:atemp>
            <ns3:hr>87</ns3:hr>
          </ns3:TrackPointExtension>
        </extensions>
      </trkpt>
      <trkpt lat="36.8002377636730670928955078125" lon="-118.40198124758899211883544921875">
        <ele>3269.60009765625</ele>
        <time>2021-06-25T23:28:47.000Z</time>
        <extensions>
          <ns3:TrackPointExtension>
            <ns3:atemp>26.0</ns3:atemp>
            <ns3:hr>85</ns3:hr>
          </ns3:TrackPointExtension>
        </extensions>
      </trkpt>
      <trkpt lat="36.80024958215653896331787109375" lon="-118.401965238153934478759765625">
        <ele>3269.199951171875</ele>
        <time>2021-06-25T23:28:49.000Z</time>
        <extensions>
          <ns3:TrackPointExtension>
            <ns3:atemp>26.0</ns3:atemp>
            <ns3:hr>85</ns3:hr>
          </ns3:TrackPointExtension>
        </extensions>
      </trkpt>
      <trkpt lat="36.80029702372848987579345703125" lon="-118.401938416063785552978515625">
        <ele>3268.39990234375</ele>
        <time>2021-06-25T23:28:55.000Z</time>
        <extensions>
          <ns3:TrackPointExtension>
            <ns3:atemp>26.0</ns3:atemp>
            <ns3:hr>88</ns3:hr>
          </ns3:TrackPointExtension>
        </extensions>
      </trkpt>
      <trkpt lat="36.80030255578458309173583984375" lon="-118.4019308723509311676025390625">
        <ele>3268.60009765625</ele>
        <time>2021-06-25T23:28:56.000Z</time>
        <extensions>
          <ns3:TrackPointExtension>
            <ns3:atemp>26.0</ns3:atemp>
            <ns3:hr>87</ns3:hr>
          </ns3:TrackPointExtension>
        </extensions>
      </trkpt>
      <trkpt lat="36.8003199063241481781005859375" lon="-118.40191318653523921966552734375">
        <ele>3268</ele>
        <time>2021-06-25T23:28:59.000Z</time>
        <extensions>
          <ns3:TrackPointExtension>
            <ns3:atemp>26.0</ns3:atemp>
            <ns3:hr>88</ns3:hr>
          </ns3:TrackPointExtension>
        </extensions>
      </trkpt>
      <trkpt lat="36.80033088661730289459228515625" lon="-118.4018990211188793182373046875">
        <ele>3267</ele>
        <time>2021-06-25T23:29:02.000Z</time>
        <extensions>
          <ns3:TrackPointExtension>
            <ns3:atemp>26.0</ns3:atemp>
            <ns3:hr>88</ns3:hr>
          </ns3:TrackPointExtension>
        </extensions>
      </trkpt>
      <trkpt lat="36.80033004842698574066162109375" lon="-118.40188837610185146331787109375">
        <ele>3266.800048828125</ele>
        <time>2021-06-25T23:29:03.000Z</time>
        <extensions>
          <ns3:TrackPointExtension>
            <ns3:atemp>26.0</ns3:atemp>
            <ns3:hr>89</ns3:hr>
          </ns3:TrackPointExtension>
        </extensions>
      </trkpt>
      <trkpt lat="36.8003489077091217041015625" lon="-118.4018457122147083282470703125">
        <ele>3265.60009765625</ele>
        <time>2021-06-25T23:29:08.000Z</time>
        <extensions>
          <ns3:TrackPointExtension>
            <ns3:atemp>26.0</ns3:atemp>
            <ns3:hr>91</ns3:hr>
          </ns3:TrackPointExtension>
        </extensions>
      </trkpt>
      <trkpt lat="36.8003547750413417816162109375" lon="-118.40183825232088565826416015625">
        <ele>3265.39990234375</ele>
        <time>2021-06-25T23:29:09.000Z</time>
        <extensions>
          <ns3:TrackPointExtension>
            <ns3:atemp>26.0</ns3:atemp>
            <ns3:hr>91</ns3:hr>
          </ns3:TrackPointExtension>
        </extensions>
      </trkpt>
      <trkpt lat="36.80036433041095733642578125" lon="-118.401816375553607940673828125">
        <ele>3264.60009765625</ele>
        <time>2021-06-25T23:29:11.000Z</time>
        <extensions>
          <ns3:TrackPointExtension>
            <ns3:atemp>26.0</ns3:atemp>
            <ns3:hr>90</ns3:hr>
          </ns3:TrackPointExtension>
        </extensions>
      </trkpt>
      <trkpt lat="36.8003698624670505523681640625" lon="-118.4018078260123729705810546875">
        <ele>3264.60009765625</ele>
        <time>2021-06-25T23:29:12.000Z</time>
        <extensions>
          <ns3:TrackPointExtension>
            <ns3:atemp>26.0</ns3:atemp>
            <ns3:hr>91</ns3:hr>
          </ns3:TrackPointExtension>
        </extensions>
      </trkpt>
      <trkpt lat="36.800411604344844818115234375" lon="-118.40177304111421108245849609375">
        <ele>3263.60009765625</ele>
        <time>2021-06-25T23:29:17.000Z</time>
        <extensions>
          <ns3:TrackPointExtension>
            <ns3:atemp>26.0</ns3:atemp>
            <ns3:hr>88</ns3:hr>
          </ns3:TrackPointExtension>
        </extensions>
      </trkpt>
      <trkpt lat="36.80043901316821575164794921875" lon="-118.40175409801304340362548828125">
        <ele>3263</ele>
        <time>2021-06-25T23:29:20.000Z</time>
        <extensions>
          <ns3:TrackPointExtension>
            <ns3:atemp>26.0</ns3:atemp>
            <ns3:hr>85</ns3:hr>
          </ns3:TrackPointExtension>
        </extensions>
      </trkpt>
      <trkpt lat="36.80045627988874912261962890625" lon="-118.40174202807247638702392578125">
        <ele>3262.800048828125</ele>
        <time>2021-06-25T23:29:23.000Z</time>
        <extensions>
          <ns3:TrackPointExtension>
            <ns3:atemp>26.0</ns3:atemp>
            <ns3:hr>82</ns3:hr>
          </ns3:TrackPointExtension>
        </extensions>
      </trkpt>
      <trkpt lat="36.80046265013515949249267578125" lon="-118.4017333947122097015380859375">
        <ele>3262.39990234375</ele>
        <time>2021-06-25T23:29:25.000Z</time>
        <extensions>
          <ns3:TrackPointExtension>
            <ns3:atemp>26.0</ns3:atemp>
            <ns3:hr>82</ns3:hr>
          </ns3:TrackPointExtension>
        </extensions>
      </trkpt>
      <trkpt lat="36.8004929088056087493896484375" lon="-118.40172844938933849334716796875">
        <ele>3262</ele>
        <time>2021-06-25T23:29:29.000Z</time>
        <extensions>
          <ns3:TrackPointExtension>
            <ns3:atemp>26.0</ns3:atemp>
            <ns3:hr>85</ns3:hr>
          </ns3:TrackPointExtension>
        </extensions>
      </trkpt>
      <trkpt lat="36.800509504973888397216796875" lon="-118.401728533208370208740234375">
        <ele>3261.199951171875</ele>
        <time>2021-06-25T23:29:31.000Z</time>
        <extensions>
          <ns3:TrackPointExtension>
            <ns3:atemp>26.0</ns3:atemp>
            <ns3:hr>81</ns3:hr>
          </ns3:TrackPointExtension>
        </extensions>
      </trkpt>
      <trkpt lat="36.80052333511412143707275390625" lon="-118.4017280302941799163818359375">
        <ele>3261.199951171875</ele>
        <time>2021-06-25T23:29:33.000Z</time>
        <extensions>
          <ns3:TrackPointExtension>
            <ns3:atemp>26.0</ns3:atemp>
            <ns3:hr>82</ns3:hr>
          </ns3:TrackPointExtension>
        </extensions>
      </trkpt>
      <trkpt lat="36.80054730735719203948974609375" lon="-118.401733897626399993896484375">
        <ele>3260.60009765625</ele>
        <time>2021-06-25T23:29:36.000Z</time>
        <extensions>
          <ns3:TrackPointExtension>
            <ns3:atemp>26.0</ns3:atemp>
            <ns3:hr>85</ns3:hr>
          </ns3:TrackPointExtension>
        </extensions>
      </trkpt>
      <trkpt lat="36.80055367760360240936279296875" lon="-118.40173062868416309356689453125">
        <ele>3260</ele>
        <time>2021-06-25T23:29:37.000Z</time>
        <extensions>
          <ns3:TrackPointExtension>
            <ns3:atemp>26.0</ns3:atemp>
            <ns3:hr>86</ns3:hr>
          </ns3:TrackPointExtension>
        </extensions>
      </trkpt>
      <trkpt lat="36.8005814217031002044677734375" lon="-118.401727192103862762451171875">
        <ele>3259.199951171875</ele>
        <time>2021-06-25T23:29:41.000Z</time>
        <extensions>
          <ns3:TrackPointExtension>
            <ns3:atemp>26.0</ns3:atemp>
            <ns3:hr>84</ns3:hr>
          </ns3:TrackPointExtension>
        </extensions>
      </trkpt>
      <trkpt lat="36.80060162208974361419677734375" lon="-118.4017333947122097015380859375">
        <ele>3259</ele>
        <time>2021-06-25T23:29:43.000Z</time>
        <extensions>
          <ns3:TrackPointExtension>
            <ns3:atemp>26.0</ns3:atemp>
            <ns3:hr>84</ns3:hr>
          </ns3:TrackPointExtension>
        </extensions>
      </trkpt>
      <trkpt lat="36.80062316358089447021484375" lon="-118.4017275273799896240234375">
        <ele>3258</ele>
        <time>2021-06-25T23:29:46.000Z</time>
        <extensions>
          <ns3:TrackPointExtension>
            <ns3:atemp>26.0</ns3:atemp>
            <ns3:hr>84</ns3:hr>
          </ns3:TrackPointExtension>
        </extensions>
      </trkpt>
      <trkpt lat="36.800644956529140472412109375" lon="-118.401719145476818084716796875">
        <ele>3257.60009765625</ele>
        <time>2021-06-25T23:29:48.000Z</time>
        <extensions>
          <ns3:TrackPointExtension>
            <ns3:atemp>26.0</ns3:atemp>
            <ns3:hr>85</ns3:hr>
          </ns3:TrackPointExtension>
        </extensions>
      </trkpt>
      <trkpt lat="36.800688542425632476806640625" lon="-118.4017132781445980072021484375">
        <ele>3256.199951171875</ele>
        <time>2021-06-25T23:29:51.000Z</time>
        <extensions>
          <ns3:TrackPointExtension>
            <ns3:atemp>26.0</ns3:atemp>
            <ns3:hr>86</ns3:hr>
          </ns3:TrackPointExtension>
        </extensions>
      </trkpt>
      <trkpt lat="36.8007239140570163726806640625" lon="-118.401717133820056915283203125">
        <ele>3256</ele>
        <time>2021-06-25T23:29:54.000Z</time>
        <extensions>
          <ns3:TrackPointExtension>
            <ns3:atemp>26.0</ns3:atemp>
            <ns3:hr>86</ns3:hr>
          </ns3:TrackPointExtension>
        </extensions>
      </trkpt>
      <trkpt lat="36.80077646858990192413330078125" lon="-118.4017219953238964080810546875">
        <ele>3256.199951171875</ele>
        <time>2021-06-25T23:29:59.000Z</time>
        <extensions>
          <ns3:TrackPointExtension>
            <ns3:atemp>26.0</ns3:atemp>
            <ns3:hr>89</ns3:hr>
          </ns3:TrackPointExtension>
        </extensions>
      </trkpt>
      <trkpt lat="36.80079281330108642578125" lon="-118.40173046104609966278076171875">
        <ele>3257.199951171875</ele>
        <time>2021-06-25T23:30:01.000Z</time>
        <extensions>
          <ns3:TrackPointExtension>
            <ns3:atemp>26.0</ns3:atemp>
            <ns3:hr>88</ns3:hr>
          </ns3:TrackPointExtension>
        </extensions>
      </trkpt>
      <trkpt lat="36.8008070625364780426025390625" lon="-118.40173046104609966278076171875">
        <ele>3257.39990234375</ele>
        <time>2021-06-25T23:30:03.000Z</time>
        <extensions>
          <ns3:TrackPointExtension>
            <ns3:atemp>26.0</ns3:atemp>
            <ns3:hr>89</ns3:hr>
          </ns3:TrackPointExtension>
        </extensions>
      </trkpt>
      <trkpt lat="36.80082290433347225189208984375" lon="-118.40174789540469646453857421875">
        <ele>3258.60009765625</ele>
        <time>2021-06-25T23:30:07.000Z</time>
        <extensions>
          <ns3:TrackPointExtension>
            <ns3:atemp>26.0</ns3:atemp>
            <ns3:hr>88</ns3:hr>
          </ns3:TrackPointExtension>
        </extensions>
      </trkpt>
      <trkpt lat="36.80083849467337131500244140625" lon="-118.4017585404217243194580078125">
        <ele>3258.800048828125</ele>
        <time>2021-06-25T23:30:09.000Z</time>
        <extensions>
          <ns3:TrackPointExtension>
            <ns3:atemp>26.0</ns3:atemp>
            <ns3:hr>89</ns3:hr>
          </ns3:TrackPointExtension>
        </extensions>
      </trkpt>
      <trkpt lat="36.800856851041316986083984375" lon="-118.40177739970386028289794921875">
        <ele>3259.199951171875</ele>
        <time>2021-06-25T23:30:12.000Z</time>
        <extensions>
          <ns3:TrackPointExtension>
            <ns3:atemp>26.0</ns3:atemp>
            <ns3:hr>92</ns3:hr>
          </ns3:TrackPointExtension>
        </extensions>
      </trkpt>
      <trkpt lat="36.80086179636418819427490234375" lon="-118.401782177388668060302734375">
        <ele>3259.39990234375</ele>
        <time>2021-06-25T23:30:13.000Z</time>
        <extensions>
          <ns3:TrackPointExtension>
            <ns3:atemp>26.0</ns3:atemp>
            <ns3:hr>93</ns3:hr>
          </ns3:TrackPointExtension>
        </extensions>
      </trkpt>
      <trkpt lat="36.80087386630475521087646484375" lon="-118.40179164893925189971923828125">
        <ele>3259.60009765625</ele>
        <time>2021-06-25T23:30:15.000Z</time>
        <extensions>
          <ns3:TrackPointExtension>
            <ns3:atemp>26.0</ns3:atemp>
            <ns3:hr>96</ns3:hr>
          </ns3:TrackPointExtension>
        </extensions>
      </trkpt>
      <trkpt lat="36.80088141001760959625244140625" lon="-118.40180573053658008575439453125">
        <ele>3260.199951171875</ele>
        <time>2021-06-25T23:30:17.000Z</time>
        <extensions>
          <ns3:TrackPointExtension>
            <ns3:atemp>26.0</ns3:atemp>
            <ns3:hr>98</ns3:hr>
          </ns3:TrackPointExtension>
        </extensions>
      </trkpt>
      <trkpt lat="36.800880990922451019287109375" lon="-118.40181536972522735595703125">
        <ele>3260.60009765625</ele>
        <time>2021-06-25T23:30:19.000Z</time>
        <extensions>
          <ns3:TrackPointExtension>
            <ns3:atemp>26.0</ns3:atemp>
            <ns3:hr>101</ns3:hr>
          </ns3:TrackPointExtension>
        </extensions>
      </trkpt>
      <trkpt lat="36.800875626504421234130859375" lon="-118.40182601474225521087646484375">
        <ele>3260.800048828125</ele>
        <time>2021-06-25T23:30:21.000Z</time>
        <extensions>
          <ns3:TrackPointExtension>
            <ns3:atemp>26.0</ns3:atemp>
            <ns3:hr>102</ns3:hr>
          </ns3:TrackPointExtension>
        </extensions>
      </trkpt>
      <trkpt lat="36.8008684180676937103271484375" lon="-118.40183037333190441131591796875">
        <ele>3260.800048828125</ele>
        <time>2021-06-25T23:30:23.000Z</time>
        <extensions>
          <ns3:TrackPointExtension>
            <ns3:atemp>26.0</ns3:atemp>
            <ns3:hr>103</ns3:hr>
          </ns3:TrackPointExtension>
        </extensions>
      </trkpt>
      <trkpt lat="36.8008637242019176483154296875" lon="-118.40183305554091930389404296875">
        <ele>3261.60009765625</ele>
        <time>2021-06-25T23:30:24.000Z</time>
        <extensions>
          <ns3:TrackPointExtension>
            <ns3:atemp>26.0</ns3:atemp>
            <ns3:hr>106</ns3:hr>
          </ns3:TrackPointExtension>
        </extensions>
      </trkpt>
      <trkpt lat="36.800851486623287200927734375" lon="-118.4018943272531032562255859375">
        <ele>3261.60009765625</ele>
        <time>2021-06-25T23:30:31.000Z</time>
        <extensions>
          <ns3:TrackPointExtension>
            <ns3:atemp>26.0</ns3:atemp>
            <ns3:hr>109</ns3:hr>
          </ns3:TrackPointExtension>
        </extensions>
      </trkpt>
      <trkpt lat="36.80084838531911373138427734375" lon="-118.4019045531749725341796875">
        <ele>3261.60009765625</ele>
        <time>2021-06-25T23:30:32.000Z</time>
        <extensions>
          <ns3:TrackPointExtension>
            <ns3:atemp>26.0</ns3:atemp>
            <ns3:hr>109</ns3:hr>
          </ns3:TrackPointExtension>
        </extensions>
      </trkpt>
      <trkpt lat="36.80085022933781147003173828125" lon="-118.40191905386745929718017578125">
        <ele>3261.60009765625</ele>
        <time>2021-06-25T23:30:34.000Z</time>
        <extensions>
          <ns3:TrackPointExtension>
            <ns3:atemp>26.0</ns3:atemp>
            <ns3:hr>112</ns3:hr>
          </ns3:TrackPointExtension>
        </extensions>
      </trkpt>
      <trkpt lat="36.80085944943130016326904296875" lon="-118.401975296437740325927734375">
        <ele>3261.199951171875</ele>
        <time>2021-06-25T23:30:39.000Z</time>
        <extensions>
          <ns3:TrackPointExtension>
            <ns3:atemp>26.0</ns3:atemp>
            <ns3:hr>111</ns3:hr>
          </ns3:TrackPointExtension>
        </extensions>
      </trkpt>
      <trkpt lat="36.80087822489440441131591796875" lon="-118.40200002305209636688232421875">
        <ele>3260.800048828125</ele>
        <time>2021-06-25T23:30:43.000Z</time>
        <extensions>
          <ns3:TrackPointExtension>
            <ns3:atemp>26.0</ns3:atemp>
            <ns3:hr>106</ns3:hr>
          </ns3:TrackPointExtension>
        </extensions>
      </trkpt>
      <trkpt lat="36.8008880317211151123046875" lon="-118.402010165154933929443359375">
        <ele>3260.60009765625</ele>
        <time>2021-06-25T23:30:45.000Z</time>
        <extensions>
          <ns3:TrackPointExtension>
            <ns3:atemp>26.0</ns3:atemp>
            <ns3:hr>106</ns3:hr>
          </ns3:TrackPointExtension>
        </extensions>
      </trkpt>
      <trkpt lat="36.8008915521204471588134765625" lon="-118.4020187146961688995361328125">
        <ele>3260.199951171875</ele>
        <time>2021-06-25T23:30:46.000Z</time>
        <extensions>
          <ns3:TrackPointExtension>
            <ns3:atemp>26.0</ns3:atemp>
            <ns3:hr>110</ns3:hr>
          </ns3:TrackPointExtension>
        </extensions>
      </trkpt>
      <trkpt lat="36.8008942343294620513916015625" lon="-118.4020440280437469482421875">
        <ele>3260</ele>
        <time>2021-06-25T23:30:48.000Z</time>
        <extensions>
          <ns3:TrackPointExtension>
            <ns3:atemp>26.0</ns3:atemp>
            <ns3:hr>106</ns3:hr>
          </ns3:TrackPointExtension>
        </extensions>
      </trkpt>
      <trkpt lat="36.80090010166168212890625" lon="-118.40205215848982334136962890625">
        <ele>3259.39990234375</ele>
        <time>2021-06-25T23:30:49.000Z</time>
        <extensions>
          <ns3:TrackPointExtension>
            <ns3:atemp>26.0</ns3:atemp>
            <ns3:hr>109</ns3:hr>
          </ns3:TrackPointExtension>
        </extensions>
      </trkpt>
      <trkpt lat="36.80090454407036304473876953125" lon="-118.40206255204975605010986328125">
        <ele>3259.39990234375</ele>
        <time>2021-06-25T23:30:50.000Z</time>
        <extensions>
          <ns3:TrackPointExtension>
            <ns3:atemp>26.0</ns3:atemp>
            <ns3:hr>105</ns3:hr>
          </ns3:TrackPointExtension>
        </extensions>
      </trkpt>
      <trkpt lat="36.80091124959290027618408203125" lon="-118.402069173753261566162109375">
        <ele>3259.199951171875</ele>
        <time>2021-06-25T23:30:51.000Z</time>
        <extensions>
          <ns3:TrackPointExtension>
            <ns3:atemp>26.0</ns3:atemp>
            <ns3:hr>109</ns3:hr>
          </ns3:TrackPointExtension>
        </extensions>
      </trkpt>
      <trkpt lat="36.80091644637286663055419921875" lon="-118.4020706824958324432373046875">
        <ele>3258.800048828125</ele>
        <time>2021-06-25T23:30:52.000Z</time>
        <extensions>
          <ns3:TrackPointExtension>
            <ns3:atemp>26.0</ns3:atemp>
            <ns3:hr>106</ns3:hr>
          </ns3:TrackPointExtension>
        </extensions>
      </trkpt>
      <trkpt lat="36.80092097260057926177978515625" lon="-118.402069509029388427734375">
        <ele>3258.39990234375</ele>
        <time>2021-06-25T23:30:53.000Z</time>
        <extensions>
          <ns3:TrackPointExtension>
            <ns3:atemp>26.0</ns3:atemp>
            <ns3:hr>106</ns3:hr>
          </ns3:TrackPointExtension>
        </extensions>
      </trkpt>
      <trkpt lat="36.80095114745199680328369140625" lon="-118.4020787291228771209716796875">
        <ele>3257.199951171875</ele>
        <time>2021-06-25T23:30:57.000Z</time>
        <extensions>
          <ns3:TrackPointExtension>
            <ns3:atemp>26.0</ns3:atemp>
            <ns3:hr>106</ns3:hr>
          </ns3:TrackPointExtension>
        </extensions>
      </trkpt>
      <trkpt lat="36.80097847245633602142333984375" lon="-118.402081914246082305908203125">
        <ele>3256.60009765625</ele>
        <time>2021-06-25T23:31:01.000Z</time>
        <extensions>
          <ns3:TrackPointExtension>
            <ns3:atemp>26.0</ns3:atemp>
            <ns3:hr>105</ns3:hr>
          </ns3:TrackPointExtension>
        </extensions>
      </trkpt>
      <trkpt lat="36.800999678671360015869140625" lon="-118.40208635665476322174072265625">
        <ele>3256.199951171875</ele>
        <time>2021-06-25T23:31:04.000Z</time>
        <extensions>
          <ns3:TrackPointExtension>
            <ns3:atemp>26.0</ns3:atemp>
            <ns3:hr>103</ns3:hr>
          </ns3:TrackPointExtension>
        </extensions>
      </trkpt>
      <trkpt lat="36.8010182864964008331298828125" lon="-118.402090966701507568359375">
        <ele>3255.60009765625</ele>
        <time>2021-06-25T23:31:07.000Z</time>
        <extensions>
          <ns3:TrackPointExtension>
            <ns3:atemp>26.0</ns3:atemp>
            <ns3:hr>100</ns3:hr>
          </ns3:TrackPointExtension>
        </extensions>
      </trkpt>
      <trkpt lat="36.80103111080825328826904296875" lon="-118.4020985104143619537353515625">
        <ele>3255.199951171875</ele>
        <time>2021-06-25T23:31:10.000Z</time>
        <extensions>
          <ns3:TrackPointExtension>
            <ns3:atemp>26.0</ns3:atemp>
            <ns3:hr>97</ns3:hr>
          </ns3:TrackPointExtension>
        </extensions>
      </trkpt>
      <trkpt lat="36.80103178136050701141357421875" lon="-118.4020988456904888153076171875">
        <ele>3254.60009765625</ele>
        <time>2021-06-25T23:31:11.000Z</time>
        <extensions>
          <ns3:TrackPointExtension>
            <ns3:atemp>26.0</ns3:atemp>
            <ns3:hr>96</ns3:hr>
          </ns3:TrackPointExtension>
        </extensions>
      </trkpt>
      <trkpt lat="36.8010846711695194244384765625" lon="-118.40213228948414325714111328125">
        <ele>3253.60009765625</ele>
        <time>2021-06-25T23:31:18.000Z</time>
        <extensions>
          <ns3:TrackPointExtension>
            <ns3:atemp>26.0</ns3:atemp>
            <ns3:hr>95</ns3:hr>
          </ns3:TrackPointExtension>
        </extensions>
      </trkpt>
      <trkpt lat="36.80109925568103790283203125" lon="-118.4021379053592681884765625">
        <ele>3253.39990234375</ele>
        <time>2021-06-25T23:31:19.000Z</time>
        <extensions>
          <ns3:TrackPointExtension>
            <ns3:atemp>26.0</ns3:atemp>
            <ns3:hr>95</ns3:hr>
          </ns3:TrackPointExtension>
        </extensions>
      </trkpt>
      <trkpt lat="36.80112046189606189727783203125" lon="-118.40214234776794910430908203125">
        <ele>3252.60009765625</ele>
        <time>2021-06-25T23:31:21.000Z</time>
        <extensions>
          <ns3:TrackPointExtension>
            <ns3:atemp>26.0</ns3:atemp>
            <ns3:hr>94</ns3:hr>
          </ns3:TrackPointExtension>
        </extensions>
      </trkpt>
      <trkpt lat="36.80115885101258754730224609375" lon="-118.4021514840424060821533203125">
        <ele>3252.199951171875</ele>
        <time>2021-06-25T23:31:25.000Z</time>
        <extensions>
          <ns3:TrackPointExtension>
            <ns3:atemp>27.0</ns3:atemp>
            <ns3:hr>91</ns3:hr>
          </ns3:TrackPointExtension>
        </extensions>
      </trkpt>
      <trkpt lat="36.80118718184530735015869140625" lon="-118.40216112323105335235595703125">
        <ele>3252</ele>
        <time>2021-06-25T23:31:28.000Z</time>
        <extensions>
          <ns3:TrackPointExtension>
            <ns3:atemp>27.0</ns3:atemp>
            <ns3:hr>89</ns3:hr>
          </ns3:TrackPointExtension>
        </extensions>
      </trkpt>
      <trkpt lat="36.80121232755482196807861328125" lon="-118.40218283236026763916015625">
        <ele>3251.39990234375</ele>
        <time>2021-06-25T23:31:31.000Z</time>
        <extensions>
          <ns3:TrackPointExtension>
            <ns3:atemp>27.0</ns3:atemp>
            <ns3:hr>89</ns3:hr>
          </ns3:TrackPointExtension>
        </extensions>
      </trkpt>
      <trkpt lat="36.8012315221130847930908203125" lon="-118.4022198803722858428955078125">
        <ele>3250.800048828125</ele>
        <time>2021-06-25T23:31:35.000Z</time>
        <extensions>
          <ns3:TrackPointExtension>
            <ns3:atemp>27.0</ns3:atemp>
            <ns3:hr>92</ns3:hr>
          </ns3:TrackPointExtension>
        </extensions>
      </trkpt>
      <trkpt lat="36.8012405745685100555419921875" lon="-118.4022467024624347686767578125">
        <ele>3250.60009765625</ele>
        <time>2021-06-25T23:31:37.000Z</time>
        <extensions>
          <ns3:TrackPointExtension>
            <ns3:atemp>27.0</ns3:atemp>
            <ns3:hr>91</ns3:hr>
          </ns3:TrackPointExtension>
        </extensions>
      </trkpt>
      <trkpt lat="36.80123680271208286285400390625" lon="-118.40226371772587299346923828125">
        <ele>3250.199951171875</ele>
        <time>2021-06-25T23:31:38.000Z</time>
        <extensions>
          <ns3:TrackPointExtension>
            <ns3:atemp>27.0</ns3:atemp>
            <ns3:hr>91</ns3:hr>
          </ns3:TrackPointExtension>
        </extensions>
      </trkpt>
      <trkpt lat="36.8012707494199275970458984375" lon="-118.402292467653751373291015625">
        <ele>3249.60009765625</ele>
        <time>2021-06-25T23:31:44.000Z</time>
        <extensions>
          <ns3:TrackPointExtension>
            <ns3:atemp>27.0</ns3:atemp>
            <ns3:hr>89</ns3:hr>
          </ns3:TrackPointExtension>
        </extensions>
      </trkpt>
      <trkpt lat="36.80125943385064601898193359375" lon="-118.40229540131986141204833984375">
        <ele>3249.60009765625</ele>
        <time>2021-06-25T23:31:51.000Z</time>
        <extensions>
          <ns3:TrackPointExtension>
            <ns3:atemp>27.0</ns3:atemp>
            <ns3:hr>89</ns3:hr>
          </ns3:TrackPointExtension>
        </extensions>
      </trkpt>
      <trkpt lat="36.80125909857451915740966796875" lon="-118.4023077227175235748291015625">
        <ele>3248.800048828125</ele>
        <time>2021-06-25T23:31:54.000Z</time>
        <extensions>
          <ns3:TrackPointExtension>
            <ns3:atemp>27.0</ns3:atemp>
            <ns3:hr>88</ns3:hr>
          </ns3:TrackPointExtension>
        </extensions>
      </trkpt>
      <trkpt lat="36.801263205707073211669921875" lon="-118.40230755507946014404296875">
        <ele>3248.800048828125</ele>
        <time>2021-06-25T23:31:55.000Z</time>
        <extensions>
          <ns3:TrackPointExtension>
            <ns3:atemp>27.0</ns3:atemp>
            <ns3:hr>88</ns3:hr>
          </ns3:TrackPointExtension>
        </extensions>
      </trkpt>
      <trkpt lat="36.8012771196663379669189453125" lon="-118.4023256599903106689453125">
        <ele>3248.800048828125</ele>
        <time>2021-06-25T23:31:58.000Z</time>
        <extensions>
          <ns3:TrackPointExtension>
            <ns3:atemp>27.0</ns3:atemp>
            <ns3:hr>88</ns3:hr>
          </ns3:TrackPointExtension>
        </extensions>
      </trkpt>
      <trkpt lat="36.80130268447101116180419921875" lon="-118.40238575823605060577392578125">
        <ele>3249.199951171875</ele>
        <time>2021-06-25T23:32:05.000Z</time>
        <extensions>
          <ns3:TrackPointExtension>
            <ns3:atemp>27.0</ns3:atemp>
            <ns3:hr>88</ns3:hr>
          </ns3:TrackPointExtension>
        </extensions>
      </trkpt>
      <trkpt lat="36.8013252317905426025390625" lon="-118.40241752564907073974609375">
        <ele>3249</ele>
        <time>2021-06-25T23:32:11.000Z</time>
        <extensions>
          <ns3:TrackPointExtension>
            <ns3:atemp>27.0</ns3:atemp>
            <ns3:hr>90</ns3:hr>
          </ns3:TrackPointExtension>
        </extensions>
      </trkpt>
      <trkpt lat="36.80140142329037189483642578125" lon="-118.40242289006710052490234375">
        <ele>3248</ele>
        <time>2021-06-25T23:32:18.000Z</time>
        <extensions>
          <ns3:TrackPointExtension>
            <ns3:atemp>27.0</ns3:atemp>
            <ns3:hr>91</ns3:hr>
          </ns3:TrackPointExtension>
        </extensions>
      </trkpt>
      <trkpt lat="36.801404021680355072021484375" lon="-118.40243588201701641082763671875">
        <ele>3247.60009765625</ele>
        <time>2021-06-25T23:32:20.000Z</time>
        <extensions>
          <ns3:TrackPointExtension>
            <ns3:atemp>27.0</ns3:atemp>
            <ns3:hr>91</ns3:hr>
          </ns3:TrackPointExtension>
        </extensions>
      </trkpt>
      <trkpt lat="36.8014380522072315216064453125" lon="-118.4024646319448947906494140625">
        <ele>3246.60009765625</ele>
        <time>2021-06-25T23:32:26.000Z</time>
        <extensions>
          <ns3:TrackPointExtension>
            <ns3:atemp>27.0</ns3:atemp>
            <ns3:hr>89</ns3:hr>
          </ns3:TrackPointExtension>
        </extensions>
      </trkpt>
      <trkpt lat="36.80144391953945159912109375" lon="-118.40246714651584625244140625">
        <ele>3246.60009765625</ele>
        <time>2021-06-25T23:32:27.000Z</time>
        <extensions>
          <ns3:TrackPointExtension>
            <ns3:atemp>27.0</ns3:atemp>
            <ns3:hr>89</ns3:hr>
          </ns3:TrackPointExtension>
        </extensions>
      </trkpt>
      <trkpt lat="36.8014474399387836456298828125" lon="-118.40246655978262424468994140625">
        <ele>3246.60009765625</ele>
        <time>2021-06-25T23:32:28.000Z</time>
        <extensions>
          <ns3:TrackPointExtension>
            <ns3:atemp>27.0</ns3:atemp>
            <ns3:hr>89</ns3:hr>
          </ns3:TrackPointExtension>
        </extensions>
      </trkpt>
      <trkpt lat="36.80147702805697917938232421875" lon="-118.4024659730494022369384765625">
        <ele>3246.199951171875</ele>
        <time>2021-06-25T23:32:31.000Z</time>
        <extensions>
          <ns3:TrackPointExtension>
            <ns3:atemp>27.0</ns3:atemp>
            <ns3:hr>91</ns3:hr>
          </ns3:TrackPointExtension>
        </extensions>
      </trkpt>
      <trkpt lat="36.801481805741786956787109375" lon="-118.402462787926197052001953125">
        <ele>3246.199951171875</ele>
        <time>2021-06-25T23:32:32.000Z</time>
        <extensions>
          <ns3:TrackPointExtension>
            <ns3:atemp>27.0</ns3:atemp>
            <ns3:hr>92</ns3:hr>
          </ns3:TrackPointExtension>
        </extensions>
      </trkpt>
      <trkpt lat="36.80148909799754619598388671875" lon="-118.4024549089372158050537109375">
        <ele>3246</ele>
        <time>2021-06-25T23:32:34.000Z</time>
        <extensions>
          <ns3:TrackPointExtension>
            <ns3:atemp>27.0</ns3:atemp>
            <ns3:hr>95</ns3:hr>
          </ns3:TrackPointExtension>
        </extensions>
      </trkpt>
      <trkpt lat="36.80150049738585948944091796875" lon="-118.402450047433376312255859375">
        <ele>3245.60009765625</ele>
        <time>2021-06-25T23:32:40.000Z</time>
        <extensions>
          <ns3:TrackPointExtension>
            <ns3:atemp>27.0</ns3:atemp>
            <ns3:hr>98</ns3:hr>
          </ns3:TrackPointExtension>
        </extensions>
      </trkpt>
      <trkpt lat="36.80150435306131839752197265625" lon="-118.40244292281568050384521484375">
        <ele>3245.60009765625</ele>
        <time>2021-06-25T23:32:41.000Z</time>
        <extensions>
          <ns3:TrackPointExtension>
            <ns3:atemp>27.0</ns3:atemp>
            <ns3:hr>98</ns3:hr>
          </ns3:TrackPointExtension>
        </extensions>
      </trkpt>
      <trkpt lat="36.801519691944122314453125" lon="-118.4024250693619251251220703125">
        <ele>3245.199951171875</ele>
        <time>2021-06-25T23:32:44.000Z</time>
        <extensions>
          <ns3:TrackPointExtension>
            <ns3:atemp>27.0</ns3:atemp>
            <ns3:hr>98</ns3:hr>
          </ns3:TrackPointExtension>
        </extensions>
      </trkpt>
      <trkpt lat="36.801526732742786407470703125" lon="-118.402387686073780059814453125">
        <ele>3244.60009765625</ele>
        <time>2021-06-25T23:32:47.000Z</time>
        <extensions>
          <ns3:TrackPointExtension>
            <ns3:atemp>27.0</ns3:atemp>
            <ns3:hr>96</ns3:hr>
          </ns3:TrackPointExtension>
        </extensions>
      </trkpt>
      <trkpt lat="36.80154961533844470977783203125" lon="-118.40238693170249462127685546875">
        <ele>3244.39990234375</ele>
        <time>2021-06-25T23:32:51.000Z</time>
        <extensions>
          <ns3:TrackPointExtension>
            <ns3:atemp>27.0</ns3:atemp>
            <ns3:hr>94</ns3:hr>
          </ns3:TrackPointExtension>
        </extensions>
      </trkpt>
      <trkpt lat="36.80158339440822601318359375" lon="-118.40243169106543064117431640625">
        <ele>3244.199951171875</ele>
        <time>2021-06-25T23:32:59.000Z</time>
        <extensions>
          <ns3:TrackPointExtension>
            <ns3:atemp>27.0</ns3:atemp>
            <ns3:hr>93</ns3:hr>
          </ns3:TrackPointExtension>
        </extensions>
      </trkpt>
      <trkpt lat="36.801623962819576263427734375" lon="-118.40249128639698028564453125">
        <ele>3243.800048828125</ele>
        <time>2021-06-25T23:33:07.000Z</time>
        <extensions>
          <ns3:TrackPointExtension>
            <ns3:atemp>27.0</ns3:atemp>
            <ns3:hr>93</ns3:hr>
          </ns3:TrackPointExtension>
        </extensions>
      </trkpt>
      <trkpt lat="36.80163594894111156463623046875" lon="-118.40249941684305667877197265625">
        <ele>3243.800048828125</ele>
        <time>2021-06-25T23:33:10.000Z</time>
        <extensions>
          <ns3:TrackPointExtension>
            <ns3:atemp>27.0</ns3:atemp>
            <ns3:hr>95</ns3:hr>
          </ns3:TrackPointExtension>
        </extensions>
      </trkpt>
      <trkpt lat="36.80164181627333164215087890625" lon="-118.40249790810048580169677734375">
        <ele>3243.60009765625</ele>
        <time>2021-06-25T23:33:12.000Z</time>
        <extensions>
          <ns3:TrackPointExtension>
            <ns3:atemp>27.0</ns3:atemp>
            <ns3:hr>96</ns3:hr>
          </ns3:TrackPointExtension>
        </extensions>
      </trkpt>
      <trkpt lat="36.80164852179586887359619140625" lon="-118.4025005064904689788818359375">
        <ele>3243.39990234375</ele>
        <time>2021-06-25T23:33:14.000Z</time>
        <extensions>
          <ns3:TrackPointExtension>
            <ns3:atemp>27.0</ns3:atemp>
            <ns3:hr>97</ns3:hr>
          </ns3:TrackPointExtension>
        </extensions>
      </trkpt>
      <trkpt lat="36.80169311352074146270751953125" lon="-118.40251676738262176513671875">
        <ele>3242.39990234375</ele>
        <time>2021-06-25T23:33:19.000Z</time>
        <extensions>
          <ns3:TrackPointExtension>
            <ns3:atemp>27.0</ns3:atemp>
            <ns3:hr>97</ns3:hr>
          </ns3:TrackPointExtension>
        </extensions>
      </trkpt>
      <trkpt lat="36.80170233361423015594482421875" lon="-118.40251852758228778839111328125">
        <ele>3242.39990234375</ele>
        <time>2021-06-25T23:33:20.000Z</time>
        <extensions>
          <ns3:TrackPointExtension>
            <ns3:atemp>27.0</ns3:atemp>
            <ns3:hr>97</ns3:hr>
          </ns3:TrackPointExtension>
        </extensions>
      </trkpt>
      <trkpt lat="36.8017409741878509521484375" lon="-118.4024810604751110076904296875">
        <ele>3241.60009765625</ele>
        <time>2021-06-25T23:33:25.000Z</time>
        <extensions>
          <ns3:TrackPointExtension>
            <ns3:atemp>27.0</ns3:atemp>
            <ns3:hr>94</ns3:hr>
          </ns3:TrackPointExtension>
        </extensions>
      </trkpt>
      <trkpt lat="36.8017490208148956298828125" lon="-118.40247762389481067657470703125">
        <ele>3241.39990234375</ele>
        <time>2021-06-25T23:33:26.000Z</time>
        <extensions>
          <ns3:TrackPointExtension>
            <ns3:atemp>27.0</ns3:atemp>
            <ns3:hr>94</ns3:hr>
          </ns3:TrackPointExtension>
        </extensions>
      </trkpt>
      <trkpt lat="36.80178858339786529541015625" lon="-118.40248147957026958465576171875">
        <ele>3241.199951171875</ele>
        <time>2021-06-25T23:33:31.000Z</time>
        <extensions>
          <ns3:TrackPointExtension>
            <ns3:atemp>27.0</ns3:atemp>
            <ns3:hr>93</ns3:hr>
          </ns3:TrackPointExtension>
        </extensions>
      </trkpt>
      <trkpt lat="36.80184331722557544708251953125" lon="-118.4025189466774463653564453125">
        <ele>3240.60009765625</ele>
        <time>2021-06-25T23:33:36.000Z</time>
        <extensions>
          <ns3:TrackPointExtension>
            <ns3:atemp>27.0</ns3:atemp>
            <ns3:hr>89</ns3:hr>
          </ns3:TrackPointExtension>
        </extensions>
      </trkpt>
      <trkpt lat="36.80186343379318714141845703125" lon="-118.4025259874761104583740234375">
        <ele>3240</ele>
        <time>2021-06-25T23:33:38.000Z</time>
        <extensions>
          <ns3:TrackPointExtension>
            <ns3:atemp>27.0</ns3:atemp>
            <ns3:hr>87</ns3:hr>
          </ns3:TrackPointExtension>
        </extensions>
      </trkpt>
      <trkpt lat="36.80191808380186557769775390625" lon="-118.40250075794756412506103515625">
        <ele>3239.199951171875</ele>
        <time>2021-06-25T23:33:45.000Z</time>
        <extensions>
          <ns3:TrackPointExtension>
            <ns3:atemp>27.0</ns3:atemp>
            <ns3:hr>92</ns3:hr>
          </ns3:TrackPointExtension>
        </extensions>
      </trkpt>
      <trkpt lat="36.8019248731434345245361328125" lon="-118.4024964831769466400146484375">
        <ele>3238.800048828125</ele>
        <time>2021-06-25T23:33:46.000Z</time>
        <extensions>
          <ns3:TrackPointExtension>
            <ns3:atemp>27.0</ns3:atemp>
            <ns3:hr>93</ns3:hr>
          </ns3:TrackPointExtension>
        </extensions>
      </trkpt>
      <trkpt lat="36.8019634298980236053466796875" lon="-118.40247519314289093017578125">
        <ele>3238.39990234375</ele>
        <time>2021-06-25T23:33:50.000Z</time>
        <extensions>
          <ns3:TrackPointExtension>
            <ns3:atemp>27.0</ns3:atemp>
            <ns3:hr>92</ns3:hr>
          </ns3:TrackPointExtension>
        </extensions>
      </trkpt>
      <trkpt lat="36.801973991096019744873046875" lon="-118.40247293002903461456298828125">
        <ele>3238</ele>
        <time>2021-06-25T23:33:52.000Z</time>
        <extensions>
          <ns3:TrackPointExtension>
            <ns3:atemp>27.0</ns3:atemp>
            <ns3:hr>94</ns3:hr>
          </ns3:TrackPointExtension>
        </extensions>
      </trkpt>
      <trkpt lat="36.80199285037815570831298828125" lon="-118.40246253646910190582275390625">
        <ele>3238</ele>
        <time>2021-06-25T23:33:54.000Z</time>
        <extensions>
          <ns3:TrackPointExtension>
            <ns3:atemp>27.0</ns3:atemp>
            <ns3:hr>93</ns3:hr>
          </ns3:TrackPointExtension>
        </extensions>
      </trkpt>
      <trkpt lat="36.8020013161003589630126953125" lon="-118.4024609439074993133544921875">
        <ele>3237.800048828125</ele>
        <time>2021-06-25T23:33:55.000Z</time>
        <extensions>
          <ns3:TrackPointExtension>
            <ns3:atemp>27.0</ns3:atemp>
            <ns3:hr>94</ns3:hr>
          </ns3:TrackPointExtension>
        </extensions>
      </trkpt>
      <trkpt lat="36.802016906440258026123046875" lon="-118.40245909988880157470703125">
        <ele>3237.199951171875</ele>
        <time>2021-06-25T23:33:57.000Z</time>
        <extensions>
          <ns3:TrackPointExtension>
            <ns3:atemp>27.0</ns3:atemp>
            <ns3:hr>93</ns3:hr>
          </ns3:TrackPointExtension>
        </extensions>
      </trkpt>
      <trkpt lat="36.8020294792950153350830078125" lon="-118.40245516039431095123291015625">
        <ele>3236.800048828125</ele>
        <time>2021-06-25T23:33:59.000Z</time>
        <extensions>
          <ns3:TrackPointExtension>
            <ns3:atemp>27.0</ns3:atemp>
            <ns3:hr>93</ns3:hr>
          </ns3:TrackPointExtension>
        </extensions>
      </trkpt>
      <trkpt lat="36.80204817093908786773681640625" lon="-118.40246320702135562896728515625">
        <ele>3236.39990234375</ele>
        <time>2021-06-25T23:34:02.000Z</time>
        <extensions>
          <ns3:TrackPointExtension>
            <ns3:atemp>27.0</ns3:atemp>
            <ns3:hr>92</ns3:hr>
          </ns3:TrackPointExtension>
        </extensions>
      </trkpt>
      <trkpt lat="36.80206711404025554656982421875" lon="-118.402470164000988006591796875">
        <ele>3235.60009765625</ele>
        <time>2021-06-25T23:34:04.000Z</time>
        <extensions>
          <ns3:TrackPointExtension>
            <ns3:atemp>27.0</ns3:atemp>
            <ns3:hr>92</ns3:hr>
          </ns3:TrackPointExtension>
        </extensions>
      </trkpt>
      <trkpt lat="36.8021099455654621124267578125" lon="-118.40246991254389286041259765625">
        <ele>3235</ele>
        <time>2021-06-25T23:34:10.000Z</time>
        <extensions>
          <ns3:TrackPointExtension>
            <ns3:atemp>27.0</ns3:atemp>
            <ns3:hr>90</ns3:hr>
          </ns3:TrackPointExtension>
        </extensions>
      </trkpt>
      <trkpt lat="36.8021270446479320526123046875" lon="-118.4024785459041595458984375">
        <ele>3234.800048828125</ele>
        <time>2021-06-25T23:34:12.000Z</time>
        <extensions>
          <ns3:TrackPointExtension>
            <ns3:atemp>27.0</ns3:atemp>
            <ns3:hr>89</ns3:hr>
          </ns3:TrackPointExtension>
        </extensions>
      </trkpt>
      <trkpt lat="36.8021786771714687347412109375" lon="-118.40248969383537769317626953125">
        <ele>3234.800048828125</ele>
        <time>2021-06-25T23:34:18.000Z</time>
        <extensions>
          <ns3:TrackPointExtension>
            <ns3:atemp>27.0</ns3:atemp>
            <ns3:hr>91</ns3:hr>
          </ns3:TrackPointExtension>
        </extensions>
      </trkpt>
      <trkpt lat="36.802255623042583465576171875" lon="-118.40249656699597835540771484375">
        <ele>3235.199951171875</ele>
        <time>2021-06-25T23:34:26.000Z</time>
        <extensions>
          <ns3:TrackPointExtension>
            <ns3:atemp>26.0</ns3:atemp>
            <ns3:hr>91</ns3:hr>
          </ns3:TrackPointExtension>
        </extensions>
      </trkpt>
      <trkpt lat="36.80227247066795825958251953125" lon="-118.40250712819397449493408203125">
        <ele>3235.199951171875</ele>
        <time>2021-06-25T23:34:28.000Z</time>
        <extensions>
          <ns3:TrackPointExtension>
            <ns3:atemp>26.0</ns3:atemp>
            <ns3:hr>93</ns3:hr>
          </ns3:TrackPointExtension>
        </extensions>
      </trkpt>
      <trkpt lat="36.8023191578686237335205078125" lon="-118.4025216288864612579345703125">
        <ele>3235.199951171875</ele>
        <time>2021-06-25T23:34:33.000Z</time>
        <extensions>
          <ns3:TrackPointExtension>
            <ns3:atemp>26.0</ns3:atemp>
            <ns3:hr>96</ns3:hr>
          </ns3:TrackPointExtension>
        </extensions>
      </trkpt>
      <trkpt lat="36.802315972745418548583984375" lon="-118.4025125764310359954833984375">
        <ele>3235</ele>
        <time>2021-06-25T23:34:35.000Z</time>
        <extensions>
          <ns3:TrackPointExtension>
            <ns3:atemp>26.0</ns3:atemp>
            <ns3:hr>93</ns3:hr>
          </ns3:TrackPointExtension>
        </extensions>
      </trkpt>
      <trkpt lat="36.8023255281150341033935546875" lon="-118.40249556116759777069091796875">
        <ele>3235</ele>
        <time>2021-06-25T23:34:38.000Z</time>
        <extensions>
          <ns3:TrackPointExtension>
            <ns3:atemp>26.0</ns3:atemp>
            <ns3:hr>92</ns3:hr>
          </ns3:TrackPointExtension>
        </extensions>
      </trkpt>
      <trkpt lat="36.80232779122889041900634765625" lon="-118.40249153785407543182373046875">
        <ele>3235</ele>
        <time>2021-06-25T23:34:44.000Z</time>
        <extensions>
          <ns3:TrackPointExtension>
            <ns3:atemp>26.0</ns3:atemp>
            <ns3:hr>95</ns3:hr>
          </ns3:TrackPointExtension>
        </extensions>
      </trkpt>
      <trkpt lat="36.802335418760776519775390625" lon="-118.4025072120130062103271484375">
        <ele>3235.39990234375</ele>
        <time>2021-06-25T23:34:46.000Z</time>
        <extensions>
          <ns3:TrackPointExtension>
            <ns3:atemp>26.0</ns3:atemp>
            <ns3:hr>94</ns3:hr>
          </ns3:TrackPointExtension>
        </extensions>
      </trkpt>
      <trkpt lat="36.80237439461052417755126953125" lon="-118.4025507979094982147216796875">
        <ele>3235.60009765625</ele>
        <time>2021-06-25T23:34:50.000Z</time>
        <extensions>
          <ns3:TrackPointExtension>
            <ns3:atemp>26.0</ns3:atemp>
            <ns3:hr>97</ns3:hr>
          </ns3:TrackPointExtension>
        </extensions>
      </trkpt>
      <trkpt lat="36.80240012705326080322265625" lon="-118.40256412513554096221923828125">
        <ele>3235.60009765625</ele>
        <time>2021-06-25T23:34:52.000Z</time>
        <extensions>
          <ns3:TrackPointExtension>
            <ns3:atemp>26.0</ns3:atemp>
            <ns3:hr>100</ns3:hr>
          </ns3:TrackPointExtension>
        </extensions>
      </trkpt>
      <trkpt lat="36.80241194553673267364501953125" lon="-118.40256772935390472412109375">
        <ele>3236</ele>
        <time>2021-06-25T23:34:53.000Z</time>
        <extensions>
          <ns3:TrackPointExtension>
            <ns3:atemp>27.0</ns3:atemp>
            <ns3:hr>102</ns3:hr>
          </ns3:TrackPointExtension>
        </extensions>
      </trkpt>
      <trkpt lat="36.80245754308998584747314453125" lon="-118.4025705792009830474853515625">
        <ele>3236</ele>
        <time>2021-06-25T23:34:57.000Z</time>
        <extensions>
          <ns3:TrackPointExtension>
            <ns3:atemp>27.0</ns3:atemp>
            <ns3:hr>104</ns3:hr>
          </ns3:TrackPointExtension>
        </extensions>
      </trkpt>
      <trkpt lat="36.802484951913356781005859375" lon="-118.40259321033954620361328125">
        <ele>3236.39990234375</ele>
        <time>2021-06-25T23:35:01.000Z</time>
        <extensions>
          <ns3:TrackPointExtension>
            <ns3:atemp>27.0</ns3:atemp>
            <ns3:hr>106</ns3:hr>
          </ns3:TrackPointExtension>
        </extensions>
      </trkpt>
      <trkpt lat="36.802522838115692138671875" lon="-118.4025960601866245269775390625">
        <ele>3237.199951171875</ele>
        <time>2021-06-25T23:35:06.000Z</time>
        <extensions>
          <ns3:TrackPointExtension>
            <ns3:atemp>27.0</ns3:atemp>
            <ns3:hr>108</ns3:hr>
          </ns3:TrackPointExtension>
        </extensions>
      </trkpt>
      <trkpt lat="36.80254840292036533355712890625" lon="-118.40258440934121608734130859375">
        <ele>3237.39990234375</ele>
        <time>2021-06-25T23:35:09.000Z</time>
        <extensions>
          <ns3:TrackPointExtension>
            <ns3:atemp>27.0</ns3:atemp>
            <ns3:hr>109</ns3:hr>
          </ns3:TrackPointExtension>
        </extensions>
      </trkpt>
      <trkpt lat="36.8026125244796276092529296875" lon="-118.40258038602769374847412109375">
        <ele>3238.60009765625</ele>
        <time>2021-06-25T23:35:17.000Z</time>
        <extensions>
          <ns3:TrackPointExtension>
            <ns3:atemp>27.0</ns3:atemp>
            <ns3:hr>108</ns3:hr>
          </ns3:TrackPointExtension>
        </extensions>
      </trkpt>
      <trkpt lat="36.8026202358305454254150390625" lon="-118.4025739319622516632080078125">
        <ele>3238.60009765625</ele>
        <time>2021-06-25T23:35:18.000Z</time>
        <extensions>
          <ns3:TrackPointExtension>
            <ns3:atemp>27.0</ns3:atemp>
            <ns3:hr>109</ns3:hr>
          </ns3:TrackPointExtension>
        </extensions>
      </trkpt>
      <trkpt lat="36.80265250615775585174560546875" lon="-118.40255725197494029998779296875">
        <ele>3238.800048828125</ele>
        <time>2021-06-25T23:35:22.000Z</time>
        <extensions>
          <ns3:TrackPointExtension>
            <ns3:atemp>27.0</ns3:atemp>
            <ns3:hr>115</ns3:hr>
          </ns3:TrackPointExtension>
        </extensions>
      </trkpt>
      <trkpt lat="36.80265770293772220611572265625" lon="-118.40252892114222049713134765625">
        <ele>3238.800048828125</ele>
        <time>2021-06-25T23:35:24.000Z</time>
        <extensions>
          <ns3:TrackPointExtension>
            <ns3:atemp>27.0</ns3:atemp>
            <ns3:hr>115</ns3:hr>
          </ns3:TrackPointExtension>
        </extensions>
      </trkpt>
      <trkpt lat="36.802662312984466552734375" lon="-118.4025052003562450408935546875">
        <ele>3238.800048828125</ele>
        <time>2021-06-25T23:35:27.000Z</time>
        <extensions>
          <ns3:TrackPointExtension>
            <ns3:atemp>27.0</ns3:atemp>
            <ns3:hr>113</ns3:hr>
          </ns3:TrackPointExtension>
        </extensions>
      </trkpt>
      <trkpt lat="36.80265937931835651397705078125" lon="-118.402502350509166717529296875">
        <ele>3238.800048828125</ele>
        <time>2021-06-25T23:35:28.000Z</time>
        <extensions>
          <ns3:TrackPointExtension>
            <ns3:atemp>27.0</ns3:atemp>
            <ns3:hr>112</ns3:hr>
          </ns3:TrackPointExtension>
        </extensions>
      </trkpt>
      <trkpt lat="36.80265854112803936004638671875" lon="-118.40249539352953433990478515625">
        <ele>3238.39990234375</ele>
        <time>2021-06-25T23:35:31.000Z</time>
        <extensions>
          <ns3:TrackPointExtension>
            <ns3:atemp>27.0</ns3:atemp>
            <ns3:hr>114</ns3:hr>
          </ns3:TrackPointExtension>
        </extensions>
      </trkpt>
      <trkpt lat="36.80265971459448337554931640625" lon="-118.40249321423470973968505859375">
        <ele>3238.39990234375</ele>
        <time>2021-06-25T23:35:32.000Z</time>
        <extensions>
          <ns3:TrackPointExtension>
            <ns3:atemp>27.0</ns3:atemp>
            <ns3:hr>116</ns3:hr>
          </ns3:TrackPointExtension>
        </extensions>
      </trkpt>
      <trkpt lat="36.80265133269131183624267578125" lon="-118.4024865925312042236328125">
        <ele>3238.39990234375</ele>
        <time>2021-06-25T23:35:38.000Z</time>
        <extensions>
          <ns3:TrackPointExtension>
            <ns3:atemp>27.0</ns3:atemp>
            <ns3:hr>119</ns3:hr>
          </ns3:TrackPointExtension>
        </extensions>
      </trkpt>
      <trkpt lat="36.802652589976787567138671875" lon="-118.40248533524572849273681640625">
        <ele>3238.39990234375</ele>
        <time>2021-06-25T23:35:39.000Z</time>
        <extensions>
          <ns3:TrackPointExtension>
            <ns3:atemp>27.0</ns3:atemp>
            <ns3:hr>118</ns3:hr>
          </ns3:TrackPointExtension>
        </extensions>
      </trkpt>
      <trkpt lat="36.802652589976787567138671875" lon="-118.40248382650315761566162109375">
        <ele>3238.39990234375</ele>
        <time>2021-06-25T23:35:40.000Z</time>
        <extensions>
          <ns3:TrackPointExtension>
            <ns3:atemp>27.0</ns3:atemp>
            <ns3:hr>115</ns3:hr>
          </ns3:TrackPointExtension>
        </extensions>
      </trkpt>
      <trkpt lat="36.802652589976787567138671875" lon="-118.40248382650315761566162109375">
        <ele>3238</ele>
        <time>2021-06-25T23:35:44.000Z</time>
        <extensions>
          <ns3:TrackPointExtension>
            <ns3:atemp>27.0</ns3:atemp>
            <ns3:hr>118</ns3:hr>
          </ns3:TrackPointExtension>
        </extensions>
      </trkpt>
      <trkpt lat="36.802652589976787567138671875" lon="-118.40248382650315761566162109375">
        <ele>3238</ele>
        <time>2021-06-25T23:35:50.000Z</time>
        <extensions>
          <ns3:TrackPointExtension>
            <ns3:atemp>27.0</ns3:atemp>
            <ns3:hr>115</ns3:hr>
          </ns3:TrackPointExtension>
        </extensions>
      </trkpt>
      <trkpt lat="36.8026524223387241363525390625" lon="-118.40248382650315761566162109375">
        <ele>3237.60009765625</ele>
        <time>2021-06-25T23:35:54.000Z</time>
        <extensions>
          <ns3:TrackPointExtension>
            <ns3:atemp>27.0</ns3:atemp>
            <ns3:hr>115</ns3:hr>
          </ns3:TrackPointExtension>
        </extensions>
      </trkpt>
      <trkpt lat="36.802651248872280120849609375" lon="-118.40248315595090389251708984375">
        <ele>3237.60009765625</ele>
        <time>2021-06-25T23:35:57.000Z</time>
        <extensions>
          <ns3:TrackPointExtension>
            <ns3:atemp>28.0</ns3:atemp>
            <ns3:hr>112</ns3:hr>
          </ns3:TrackPointExtension>
        </extensions>
      </trkpt>
      <trkpt lat="36.802650578320026397705078125" lon="-118.40248131193220615386962890625">
        <ele>3237.39990234375</ele>
        <time>2021-06-25T23:36:00.000Z</time>
        <extensions>
          <ns3:TrackPointExtension>
            <ns3:atemp>28.0</ns3:atemp>
            <ns3:hr>110</ns3:hr>
          </ns3:TrackPointExtension>
        </extensions>
      </trkpt>
      <trkpt lat="36.80265451781451702117919921875" lon="-118.40252674184739589691162109375">
        <ele>3237</ele>
        <time>2021-06-25T23:36:24.000Z</time>
        <extensions>
          <ns3:TrackPointExtension>
            <ns3:atemp>28.0</ns3:atemp>
            <ns3:hr>107</ns3:hr>
          </ns3:TrackPointExtension>
        </extensions>
      </trkpt>
      <trkpt lat="36.80266323499381542205810546875" lon="-118.4025333635509014129638671875">
        <ele>3237</ele>
        <time>2021-06-25T23:36:41.000Z</time>
        <extensions>
          <ns3:TrackPointExtension>
            <ns3:atemp>28.0</ns3:atemp>
            <ns3:hr>103</ns3:hr>
          </ns3:TrackPointExtension>
        </extensions>
      </trkpt>
      <trkpt lat="36.8026651628315448760986328125" lon="-118.4025233052670955657958984375">
        <ele>3236.800048828125</ele>
        <time>2021-06-25T23:36:47.000Z</time>
        <extensions>
          <ns3:TrackPointExtension>
            <ns3:atemp>28.0</ns3:atemp>
            <ns3:hr>100</ns3:hr>
          </ns3:TrackPointExtension>
        </extensions>
      </trkpt>
      <trkpt lat="36.8026745505630970001220703125" lon="-118.402492292225360870361328125">
        <ele>3236.800048828125</ele>
        <time>2021-06-25T23:36:51.000Z</time>
        <extensions>
          <ns3:TrackPointExtension>
            <ns3:atemp>28.0</ns3:atemp>
            <ns3:hr>95</ns3:hr>
          </ns3:TrackPointExtension>
        </extensions>
      </trkpt>
      <trkpt lat="36.80267505347728729248046875" lon="-118.40249086730182170867919921875">
        <ele>3237</ele>
        <time>2021-06-25T23:36:54.000Z</time>
        <extensions>
          <ns3:TrackPointExtension>
            <ns3:atemp>28.0</ns3:atemp>
            <ns3:hr>92</ns3:hr>
          </ns3:TrackPointExtension>
        </extensions>
      </trkpt>
      <trkpt lat="36.80267505347728729248046875" lon="-118.4024907834827899932861328125">
        <ele>3237.199951171875</ele>
        <time>2021-06-25T23:36:55.000Z</time>
        <extensions>
          <ns3:TrackPointExtension>
            <ns3:atemp>28.0</ns3:atemp>
            <ns3:hr>89</ns3:hr>
          </ns3:TrackPointExtension>
        </extensions>
      </trkpt>
      <trkpt lat="36.80267547257244586944580078125" lon="-118.4024907834827899932861328125">
        <ele>3237.39990234375</ele>
        <time>2021-06-25T23:36:59.000Z</time>
        <extensions>
          <ns3:TrackPointExtension>
            <ns3:atemp>28.0</ns3:atemp>
            <ns3:hr>86</ns3:hr>
          </ns3:TrackPointExtension>
        </extensions>
      </trkpt>
      <trkpt lat="36.8026762269437313079833984375" lon="-118.4024907834827899932861328125">
        <ele>3237.39990234375</ele>
        <time>2021-06-25T23:37:03.000Z</time>
        <extensions>
          <ns3:TrackPointExtension>
            <ns3:atemp>28.0</ns3:atemp>
            <ns3:hr>83</ns3:hr>
          </ns3:TrackPointExtension>
        </extensions>
      </trkpt>
      <trkpt lat="36.80268988944590091705322265625" lon="-118.402518443763256072998046875">
        <ele>3237.39990234375</ele>
        <time>2021-06-25T23:37:33.000Z</time>
        <extensions>
          <ns3:TrackPointExtension>
            <ns3:atemp>27.0</ns3:atemp>
            <ns3:hr>86</ns3:hr>
          </ns3:TrackPointExtension>
        </extensions>
      </trkpt>
      <trkpt lat="36.8026913143694400787353515625" lon="-118.402519784867763519287109375">
        <ele>3237.39990234375</ele>
        <time>2021-06-25T23:37:45.000Z</time>
        <extensions>
          <ns3:TrackPointExtension>
            <ns3:atemp>27.0</ns3:atemp>
            <ns3:hr>89</ns3:hr>
          </ns3:TrackPointExtension>
        </extensions>
      </trkpt>
      <trkpt lat="36.80270723998546600341796875" lon="-118.402511738240718841552734375">
        <ele>3236.800048828125</ele>
        <time>2021-06-25T23:37:52.000Z</time>
        <extensions>
          <ns3:TrackPointExtension>
            <ns3:atemp>27.0</ns3:atemp>
            <ns3:hr>92</ns3:hr>
          </ns3:TrackPointExtension>
        </extensions>
      </trkpt>
      <trkpt lat="36.802712269127368927001953125" lon="-118.40251014567911624908447265625">
        <ele>3236.800048828125</ele>
        <time>2021-06-25T23:37:59.000Z</time>
        <extensions>
          <ns3:TrackPointExtension>
            <ns3:atemp>27.0</ns3:atemp>
            <ns3:hr>88</ns3:hr>
          </ns3:TrackPointExtension>
        </extensions>
      </trkpt>
      <trkpt lat="36.80271252058446407318115234375" lon="-118.40251006186008453369140625">
        <ele>3236.800048828125</ele>
        <time>2021-06-25T23:38:02.000Z</time>
        <extensions>
          <ns3:TrackPointExtension>
            <ns3:atemp>27.0</ns3:atemp>
            <ns3:hr>85</ns3:hr>
          </ns3:TrackPointExtension>
        </extensions>
      </trkpt>
      <trkpt lat="36.80271201767027378082275390625" lon="-118.4025107324123382568359375">
        <ele>3236.800048828125</ele>
        <time>2021-06-25T23:38:07.000Z</time>
        <extensions>
          <ns3:TrackPointExtension>
            <ns3:atemp>27.0</ns3:atemp>
            <ns3:hr>82</ns3:hr>
          </ns3:TrackPointExtension>
        </extensions>
      </trkpt>
      <trkpt lat="36.80277622304856777191162109375" lon="-118.40252213180065155029296875">
        <ele>3236.800048828125</ele>
        <time>2021-06-25T23:38:25.000Z</time>
        <extensions>
          <ns3:TrackPointExtension>
            <ns3:atemp>27.0</ns3:atemp>
            <ns3:hr>81</ns3:hr>
          </ns3:TrackPointExtension>
        </extensions>
      </trkpt>
      <trkpt lat="36.80285920388996601104736328125" lon="-118.4025149233639240264892578125">
        <ele>3236.800048828125</ele>
        <time>2021-06-25T23:38:33.000Z</time>
        <extensions>
          <ns3:TrackPointExtension>
            <ns3:atemp>27.0</ns3:atemp>
            <ns3:hr>79</ns3:hr>
          </ns3:TrackPointExtension>
        </extensions>
      </trkpt>
      <trkpt lat="36.802891977131366729736328125" lon="-118.40251500718295574188232421875">
        <ele>3236.800048828125</ele>
        <time>2021-06-25T23:38:37.000Z</time>
        <extensions>
          <ns3:TrackPointExtension>
            <ns3:atemp>27.0</ns3:atemp>
            <ns3:hr>83</ns3:hr>
          </ns3:TrackPointExtension>
        </extensions>
      </trkpt>
      <trkpt lat="36.80294084362685680389404296875" lon="-118.402506373822689056396484375">
        <ele>3236.800048828125</ele>
        <time>2021-06-25T23:38:42.000Z</time>
        <extensions>
          <ns3:TrackPointExtension>
            <ns3:atemp>27.0</ns3:atemp>
            <ns3:hr>83</ns3:hr>
          </ns3:TrackPointExtension>
        </extensions>
      </trkpt>
      <trkpt lat="36.80294805206358432769775390625" lon="-118.40250461362302303314208984375">
        <ele>3237.199951171875</ele>
        <time>2021-06-25T23:38:43.000Z</time>
        <extensions>
          <ns3:TrackPointExtension>
            <ns3:atemp>27.0</ns3:atemp>
            <ns3:hr>86</ns3:hr>
          </ns3:TrackPointExtension>
        </extensions>
      </trkpt>
      <trkpt lat="36.8029648996889591217041015625" lon="-118.40250578708946704864501953125">
        <ele>3237.199951171875</ele>
        <time>2021-06-25T23:38:45.000Z</time>
        <extensions>
          <ns3:TrackPointExtension>
            <ns3:atemp>27.0</ns3:atemp>
            <ns3:hr>89</ns3:hr>
          </ns3:TrackPointExtension>
        </extensions>
      </trkpt>
      <trkpt lat="36.80302516557276248931884765625" lon="-118.40248332358896732330322265625">
        <ele>3237</ele>
        <time>2021-06-25T23:38:51.000Z</time>
        <extensions>
          <ns3:TrackPointExtension>
            <ns3:atemp>27.0</ns3:atemp>
            <ns3:hr>95</ns3:hr>
          </ns3:TrackPointExtension>
        </extensions>
      </trkpt>
      <trkpt lat="36.80303354747593402862548828125" lon="-118.402479551732540130615234375">
        <ele>3236.800048828125</ele>
        <time>2021-06-25T23:38:52.000Z</time>
        <extensions>
          <ns3:TrackPointExtension>
            <ns3:atemp>27.0</ns3:atemp>
            <ns3:hr>91</ns3:hr>
          </ns3:TrackPointExtension>
        </extensions>
      </trkpt>
      <trkpt lat="36.80304729379713535308837890625" lon="-118.40247577987611293792724609375">
        <ele>3236.800048828125</ele>
        <time>2021-06-25T23:38:53.000Z</time>
        <extensions>
          <ns3:TrackPointExtension>
            <ns3:atemp>27.0</ns3:atemp>
            <ns3:hr>91</ns3:hr>
          </ns3:TrackPointExtension>
        </extensions>
      </trkpt>
      <trkpt lat="36.80306724272668361663818359375" lon="-118.40247728861868381500244140625">
        <ele>3236.199951171875</ele>
        <time>2021-06-25T23:38:55.000Z</time>
        <extensions>
          <ns3:TrackPointExtension>
            <ns3:atemp>27.0</ns3:atemp>
            <ns3:hr>91</ns3:hr>
          </ns3:TrackPointExtension>
        </extensions>
      </trkpt>
      <trkpt lat="36.80310018360614776611328125" lon="-118.402471840381622314453125">
        <ele>3235.800048828125</ele>
        <time>2021-06-25T23:38:58.000Z</time>
        <extensions>
          <ns3:TrackPointExtension>
            <ns3:atemp>27.0</ns3:atemp>
            <ns3:hr>91</ns3:hr>
          </ns3:TrackPointExtension>
        </extensions>
      </trkpt>
      <trkpt lat="36.80313010700047016143798828125" lon="-118.40245834551751613616943359375">
        <ele>3235.800048828125</ele>
        <time>2021-06-25T23:39:01.000Z</time>
        <extensions>
          <ns3:TrackPointExtension>
            <ns3:atemp>27.0</ns3:atemp>
            <ns3:hr>95</ns3:hr>
          </ns3:TrackPointExtension>
        </extensions>
      </trkpt>
      <trkpt lat="36.80313848890364170074462890625" lon="-118.4024606086313724517822265625">
        <ele>3235.800048828125</ele>
        <time>2021-06-25T23:39:02.000Z</time>
        <extensions>
          <ns3:TrackPointExtension>
            <ns3:atemp>27.0</ns3:atemp>
            <ns3:hr>96</ns3:hr>
          </ns3:TrackPointExtension>
        </extensions>
      </trkpt>
      <trkpt lat="36.80315248668193817138671875" lon="-118.40245985426008701324462890625">
        <ele>3235.39990234375</ele>
        <time>2021-06-25T23:39:03.000Z</time>
        <extensions>
          <ns3:TrackPointExtension>
            <ns3:atemp>27.0</ns3:atemp>
            <ns3:hr>91</ns3:hr>
          </ns3:TrackPointExtension>
        </extensions>
      </trkpt>
      <trkpt lat="36.80317486636340618133544921875" lon="-118.4024535678327083587646484375">
        <ele>3236</ele>
        <time>2021-06-25T23:39:05.000Z</time>
        <extensions>
          <ns3:TrackPointExtension>
            <ns3:atemp>27.0</ns3:atemp>
            <ns3:hr>94</ns3:hr>
          </ns3:TrackPointExtension>
        </extensions>
      </trkpt>
      <trkpt lat="36.80320939980447292327880859375" lon="-118.40243722312152385711669921875">
        <ele>3235.60009765625</ele>
        <time>2021-06-25T23:39:09.000Z</time>
        <extensions>
          <ns3:TrackPointExtension>
            <ns3:atemp>27.0</ns3:atemp>
            <ns3:hr>91</ns3:hr>
          </ns3:TrackPointExtension>
        </extensions>
      </trkpt>
      <trkpt lat="36.80327058769762516021728515625" lon="-118.4024096466600894927978515625">
        <ele>3235.39990234375</ele>
        <time>2021-06-25T23:39:15.000Z</time>
        <extensions>
          <ns3:TrackPointExtension>
            <ns3:atemp>27.0</ns3:atemp>
            <ns3:hr>89</ns3:hr>
          </ns3:TrackPointExtension>
        </extensions>
      </trkpt>
      <trkpt lat="36.80330310948193073272705078125" lon="-118.40242632664740085601806640625">
        <ele>3234.60009765625</ele>
        <time>2021-06-25T23:39:19.000Z</time>
        <extensions>
          <ns3:TrackPointExtension>
            <ns3:atemp>27.0</ns3:atemp>
            <ns3:hr>89</ns3:hr>
          </ns3:TrackPointExtension>
        </extensions>
      </trkpt>
      <trkpt lat="36.80334116332232952117919921875" lon="-118.40245499275624752044677734375">
        <ele>3233.60009765625</ele>
        <time>2021-06-25T23:39:24.000Z</time>
        <extensions>
          <ns3:TrackPointExtension>
            <ns3:atemp>27.0</ns3:atemp>
            <ns3:hr>90</ns3:hr>
          </ns3:TrackPointExtension>
        </extensions>
      </trkpt>
      <trkpt lat="36.8033771216869354248046875" lon="-118.402450047433376312255859375">
        <ele>3232.800048828125</ele>
        <time>2021-06-25T23:39:28.000Z</time>
        <extensions>
          <ns3:TrackPointExtension>
            <ns3:atemp>27.0</ns3:atemp>
            <ns3:hr>92</ns3:hr>
          </ns3:TrackPointExtension>
        </extensions>
      </trkpt>
      <trkpt lat="36.803389526903629302978515625" lon="-118.40243957005441188812255859375">
        <ele>3232.800048828125</ele>
        <time>2021-06-25T23:39:31.000Z</time>
        <extensions>
          <ns3:TrackPointExtension>
            <ns3:atemp>28.0</ns3:atemp>
            <ns3:hr>91</ns3:hr>
          </ns3:TrackPointExtension>
        </extensions>
      </trkpt>
      <trkpt lat="36.80338541977107524871826171875" lon="-118.40244191698729991912841796875">
        <ele>3232.800048828125</ele>
        <time>2021-06-25T23:39:32.000Z</time>
        <extensions>
          <ns3:TrackPointExtension>
            <ns3:atemp>27.0</ns3:atemp>
            <ns3:hr>91</ns3:hr>
          </ns3:TrackPointExtension>
        </extensions>
      </trkpt>
      <trkpt lat="36.8033771216869354248046875" lon="-118.4024195373058319091796875">
        <ele>3232.60009765625</ele>
        <time>2021-06-25T23:39:44.000Z</time>
        <extensions>
          <ns3:TrackPointExtension>
            <ns3:atemp>28.0</ns3:atemp>
            <ns3:hr>93</ns3:hr>
          </ns3:TrackPointExtension>
        </extensions>
      </trkpt>
      <trkpt lat="36.8033913709223270416259765625" lon="-118.40238190256059169769287109375">
        <ele>3232.199951171875</ele>
        <time>2021-06-25T23:39:47.000Z</time>
        <extensions>
          <ns3:TrackPointExtension>
            <ns3:atemp>28.0</ns3:atemp>
            <ns3:hr>95</ns3:hr>
          </ns3:TrackPointExtension>
        </extensions>
      </trkpt>
      <trkpt lat="36.80339866317808628082275390625" lon="-118.40236932970583438873291015625">
        <ele>3231.800048828125</ele>
        <time>2021-06-25T23:39:50.000Z</time>
        <extensions>
          <ns3:TrackPointExtension>
            <ns3:atemp>28.0</ns3:atemp>
            <ns3:hr>97</ns3:hr>
          </ns3:TrackPointExtension>
        </extensions>
      </trkpt>
      <trkpt lat="36.80339866317808628082275390625" lon="-118.40236932970583438873291015625">
        <ele>3231.800048828125</ele>
        <time>2021-06-25T23:39:53.000Z</time>
        <extensions>
          <ns3:TrackPointExtension>
            <ns3:atemp>28.0</ns3:atemp>
            <ns3:hr>100</ns3:hr>
          </ns3:TrackPointExtension>
        </extensions>
      </trkpt>
      <trkpt lat="36.80340000428259372711181640625" lon="-118.40236388146877288818359375">
        <ele>3231.800048828125</ele>
        <time>2021-06-25T23:39:55.000Z</time>
        <extensions>
          <ns3:TrackPointExtension>
            <ns3:atemp>28.0</ns3:atemp>
            <ns3:hr>97</ns3:hr>
          </ns3:TrackPointExtension>
        </extensions>
      </trkpt>
      <trkpt lat="36.8033977411687374114990234375" lon="-118.4023482911288738250732421875">
        <ele>3231.800048828125</ele>
        <time>2021-06-25T23:39:56.000Z</time>
        <extensions>
          <ns3:TrackPointExtension>
            <ns3:atemp>28.0</ns3:atemp>
            <ns3:hr>100</ns3:hr>
          </ns3:TrackPointExtension>
        </extensions>
      </trkpt>
      <trkpt lat="36.80339916609227657318115234375" lon="-118.40231484733521938323974609375">
        <ele>3230.800048828125</ele>
        <time>2021-06-25T23:39:58.000Z</time>
        <extensions>
          <ns3:TrackPointExtension>
            <ns3:atemp>28.0</ns3:atemp>
            <ns3:hr>99</ns3:hr>
          </ns3:TrackPointExtension>
        </extensions>
      </trkpt>
      <trkpt lat="36.80340084247291088104248046875" lon="-118.4023015201091766357421875">
        <ele>3230.800048828125</ele>
        <time>2021-06-25T23:39:59.000Z</time>
        <extensions>
          <ns3:TrackPointExtension>
            <ns3:atemp>28.0</ns3:atemp>
            <ns3:hr>100</ns3:hr>
          </ns3:TrackPointExtension>
        </extensions>
      </trkpt>
      <trkpt lat="36.80340067483484745025634765625" lon="-118.402246199548244476318359375">
        <ele>3230.60009765625</ele>
        <time>2021-06-25T23:40:05.000Z</time>
        <extensions>
          <ns3:TrackPointExtension>
            <ns3:atemp>28.0</ns3:atemp>
            <ns3:hr>102</ns3:hr>
          </ns3:TrackPointExtension>
        </extensions>
      </trkpt>
      <trkpt lat="36.80339246056973934173583984375" lon="-118.402143605053424835205078125">
        <ele>3231.800048828125</ele>
        <time>2021-06-25T23:40:13.000Z</time>
        <extensions>
          <ns3:TrackPointExtension>
            <ns3:atemp>28.0</ns3:atemp>
            <ns3:hr>103</ns3:hr>
          </ns3:TrackPointExtension>
        </extensions>
      </trkpt>
      <trkpt lat="36.80338491685688495635986328125" lon="-118.4021370671689510345458984375">
        <ele>3229.199951171875</ele>
        <time>2021-06-25T23:40:15.000Z</time>
        <extensions>
          <ns3:TrackPointExtension>
            <ns3:atemp>28.0</ns3:atemp>
            <ns3:hr>106</ns3:hr>
          </ns3:TrackPointExtension>
        </extensions>
      </trkpt>
      <trkpt lat="36.80338692851364612579345703125" lon="-118.40212960727512836456298828125">
        <ele>3229</ele>
        <time>2021-06-25T23:40:18.000Z</time>
        <extensions>
          <ns3:TrackPointExtension>
            <ns3:atemp>28.0</ns3:atemp>
            <ns3:hr>108</ns3:hr>
          </ns3:TrackPointExtension>
        </extensions>
      </trkpt>
      <trkpt lat="36.803381145000457763671875" lon="-118.402128182351589202880859375">
        <ele>3230.39990234375</ele>
        <time>2021-06-25T23:40:25.000Z</time>
        <extensions>
          <ns3:TrackPointExtension>
            <ns3:atemp>28.0</ns3:atemp>
            <ns3:hr>111</ns3:hr>
          </ns3:TrackPointExtension>
        </extensions>
      </trkpt>
      <trkpt lat="36.8033736012876033782958984375" lon="-118.40211904607713222503662109375">
        <ele>3231</ele>
        <time>2021-06-25T23:40:30.000Z</time>
        <extensions>
          <ns3:TrackPointExtension>
            <ns3:atemp>28.0</ns3:atemp>
            <ns3:hr>111</ns3:hr>
          </ns3:TrackPointExtension>
        </extensions>
      </trkpt>
      <trkpt lat="36.8033736012876033782958984375" lon="-118.40211904607713222503662109375">
        <ele>3231.39990234375</ele>
        <time>2021-06-25T23:40:38.000Z</time>
        <extensions>
          <ns3:TrackPointExtension>
            <ns3:atemp>28.0</ns3:atemp>
            <ns3:hr>108</ns3:hr>
          </ns3:TrackPointExtension>
        </extensions>
      </trkpt>
      <trkpt lat="36.8033736012876033782958984375" lon="-118.40211904607713222503662109375">
        <ele>3231.39990234375</ele>
        <time>2021-06-25T23:40:41.000Z</time>
        <extensions>
          <ns3:TrackPointExtension>
            <ns3:atemp>27.0</ns3:atemp>
            <ns3:hr>108</ns3:hr>
          </ns3:TrackPointExtension>
        </extensions>
      </trkpt>
      <trkpt lat="36.8033736012876033782958984375" lon="-118.40212323702871799468994140625">
        <ele>3231.199951171875</ele>
        <time>2021-06-25T23:40:46.000Z</time>
        <extensions>
          <ns3:TrackPointExtension>
            <ns3:atemp>27.0</ns3:atemp>
            <ns3:hr>105</ns3:hr>
          </ns3:TrackPointExtension>
        </extensions>
      </trkpt>
      <trkpt lat="36.80337485857307910919189453125" lon="-118.40212558396160602569580078125">
        <ele>3231</ele>
        <time>2021-06-25T23:40:49.000Z</time>
        <extensions>
          <ns3:TrackPointExtension>
            <ns3:atemp>27.0</ns3:atemp>
            <ns3:hr>101</ns3:hr>
          </ns3:TrackPointExtension>
        </extensions>
      </trkpt>
      <trkpt lat="36.803378127515316009521484375" lon="-118.40213128365576267242431640625">
        <ele>3231</ele>
        <time>2021-06-25T23:40:52.000Z</time>
        <extensions>
          <ns3:TrackPointExtension>
            <ns3:atemp>27.0</ns3:atemp>
            <ns3:hr>98</ns3:hr>
          </ns3:TrackPointExtension>
        </extensions>
      </trkpt>
      <trkpt lat="36.803378127515316009521484375" lon="-118.40213614515960216522216796875">
        <ele>3231.60009765625</ele>
        <time>2021-06-25T23:40:54.000Z</time>
        <extensions>
          <ns3:TrackPointExtension>
            <ns3:atemp>27.0</ns3:atemp>
            <ns3:hr>97</ns3:hr>
          </ns3:TrackPointExtension>
        </extensions>
      </trkpt>
      <trkpt lat="36.80347745306789875030517578125" lon="-118.4021216444671154022216796875">
        <ele>3231.60009765625</ele>
        <time>2021-06-25T23:41:03.000Z</time>
        <extensions>
          <ns3:TrackPointExtension>
            <ns3:atemp>27.0</ns3:atemp>
            <ns3:hr>96</ns3:hr>
          </ns3:TrackPointExtension>
        </extensions>
      </trkpt>
      <trkpt lat="36.80352590046823024749755859375" lon="-118.4021300263702869415283203125">
        <ele>3230.39990234375</ele>
        <time>2021-06-25T23:41:06.000Z</time>
        <extensions>
          <ns3:TrackPointExtension>
            <ns3:atemp>27.0</ns3:atemp>
            <ns3:hr>95</ns3:hr>
          </ns3:TrackPointExtension>
        </extensions>
      </trkpt>
      <trkpt lat="36.8035777844488620758056640625" lon="-118.40211845934391021728515625">
        <ele>3230</ele>
        <time>2021-06-25T23:41:11.000Z</time>
        <extensions>
          <ns3:TrackPointExtension>
            <ns3:atemp>27.0</ns3:atemp>
            <ns3:hr>99</ns3:hr>
          </ns3:TrackPointExtension>
        </extensions>
      </trkpt>
      <trkpt lat="36.8035818077623844146728515625" lon="-118.40211116708815097808837890625">
        <ele>3229.800048828125</ele>
        <time>2021-06-25T23:41:12.000Z</time>
        <extensions>
          <ns3:TrackPointExtension>
            <ns3:atemp>27.0</ns3:atemp>
            <ns3:hr>96</ns3:hr>
          </ns3:TrackPointExtension>
        </extensions>
      </trkpt>
      <trkpt lat="36.8036015890538692474365234375" lon="-118.4020975045859813690185546875">
        <ele>3229.199951171875</ele>
        <time>2021-06-25T23:41:15.000Z</time>
        <extensions>
          <ns3:TrackPointExtension>
            <ns3:atemp>27.0</ns3:atemp>
            <ns3:hr>98</ns3:hr>
          </ns3:TrackPointExtension>
        </extensions>
      </trkpt>
      <trkpt lat="36.8036253936588764190673828125" lon="-118.402085267007350921630859375">
        <ele>3229.199951171875</ele>
        <time>2021-06-25T23:41:18.000Z</time>
        <extensions>
          <ns3:TrackPointExtension>
            <ns3:atemp>27.0</ns3:atemp>
            <ns3:hr>101</ns3:hr>
          </ns3:TrackPointExtension>
        </extensions>
      </trkpt>
      <trkpt lat="36.8036310933530330657958984375" lon="-118.40208132751286029815673828125">
        <ele>3229.199951171875</ele>
        <time>2021-06-25T23:41:19.000Z</time>
        <extensions>
          <ns3:TrackPointExtension>
            <ns3:atemp>27.0</ns3:atemp>
            <ns3:hr>101</ns3:hr>
          </ns3:TrackPointExtension>
        </extensions>
      </trkpt>
      <trkpt lat="36.80364425294101238250732421875" lon="-118.40206070803105831146240234375">
        <ele>3228.800048828125</ele>
        <time>2021-06-25T23:41:23.000Z</time>
        <extensions>
          <ns3:TrackPointExtension>
            <ns3:atemp>27.0</ns3:atemp>
            <ns3:hr>101</ns3:hr>
          </ns3:TrackPointExtension>
        </extensions>
      </trkpt>
      <trkpt lat="36.8036515451967716217041015625" lon="-118.4020623005926609039306640625">
        <ele>3228.800048828125</ele>
        <time>2021-06-25T23:41:25.000Z</time>
        <extensions>
          <ns3:TrackPointExtension>
            <ns3:atemp>27.0</ns3:atemp>
            <ns3:hr>100</ns3:hr>
          </ns3:TrackPointExtension>
        </extensions>
      </trkpt>
      <trkpt lat="36.8036740086972713470458984375" lon="-118.40207420289516448974609375">
        <ele>3228.39990234375</ele>
        <time>2021-06-25T23:41:29.000Z</time>
        <extensions>
          <ns3:TrackPointExtension>
            <ns3:atemp>28.0</ns3:atemp>
            <ns3:hr>97</ns3:hr>
          </ns3:TrackPointExtension>
        </extensions>
      </trkpt>
      <trkpt lat="36.8036773614585399627685546875" lon="-118.402074538171291351318359375">
        <ele>3228.199951171875</ele>
        <time>2021-06-25T23:41:33.000Z</time>
        <extensions>
          <ns3:TrackPointExtension>
            <ns3:atemp>28.0</ns3:atemp>
            <ns3:hr>94</ns3:hr>
          </ns3:TrackPointExtension>
        </extensions>
      </trkpt>
      <trkpt lat="36.8036773614585399627685546875" lon="-118.40207411907613277435302734375">
        <ele>3228.199951171875</ele>
        <time>2021-06-25T23:41:34.000Z</time>
        <extensions>
          <ns3:TrackPointExtension>
            <ns3:atemp>28.0</ns3:atemp>
            <ns3:hr>94</ns3:hr>
          </ns3:TrackPointExtension>
        </extensions>
      </trkpt>
      <trkpt lat="36.803676523268222808837890625" lon="-118.40207193978130817413330078125">
        <ele>3228.60009765625</ele>
        <time>2021-06-25T23:41:39.000Z</time>
        <extensions>
          <ns3:TrackPointExtension>
            <ns3:atemp>28.0</ns3:atemp>
            <ns3:hr>91</ns3:hr>
          </ns3:TrackPointExtension>
        </extensions>
      </trkpt>
      <trkpt lat="36.8036984838545322418212890625" lon="-118.402084596455097198486328125">
        <ele>3228.60009765625</ele>
        <time>2021-06-25T23:41:44.000Z</time>
        <extensions>
          <ns3:TrackPointExtension>
            <ns3:atemp>28.0</ns3:atemp>
            <ns3:hr>93</ns3:hr>
          </ns3:TrackPointExtension>
        </extensions>
      </trkpt>
      <trkpt lat="36.8037082068622112274169921875" lon="-118.4020918048918247222900390625">
        <ele>3228.199951171875</ele>
        <time>2021-06-25T23:41:54.000Z</time>
        <extensions>
          <ns3:TrackPointExtension>
            <ns3:atemp>28.0</ns3:atemp>
            <ns3:hr>92</ns3:hr>
          </ns3:TrackPointExtension>
        </extensions>
      </trkpt>
      <trkpt lat="36.8037082068622112274169921875" lon="-118.4020918048918247222900390625">
        <ele>3228.199951171875</ele>
        <time>2021-06-25T23:41:56.000Z</time>
        <extensions>
          <ns3:TrackPointExtension>
            <ns3:atemp>28.0</ns3:atemp>
            <ns3:hr>95</ns3:hr>
          </ns3:TrackPointExtension>
        </extensions>
      </trkpt>
      <trkpt lat="36.8037082068622112274169921875" lon="-118.4020918048918247222900390625">
        <ele>3228.199951171875</ele>
        <time>2021-06-25T23:41:57.000Z</time>
        <extensions>
          <ns3:TrackPointExtension>
            <ns3:atemp>28.0</ns3:atemp>
            <ns3:hr>92</ns3:hr>
          </ns3:TrackPointExtension>
        </extensions>
      </trkpt>
      <trkpt lat="36.8037082068622112274169921875" lon="-118.4020918048918247222900390625">
        <ele>3228</ele>
        <time>2021-06-25T23:41:58.000Z</time>
        <extensions>
          <ns3:TrackPointExtension>
            <ns3:atemp>28.0</ns3:atemp>
            <ns3:hr>92</ns3:hr>
          </ns3:TrackPointExtension>
        </extensions>
      </trkpt>
      <trkpt lat="36.8037070333957672119140625" lon="-118.4020924754440784454345703125">
        <ele>3227.800048828125</ele>
        <time>2021-06-25T23:42:03.000Z</time>
        <extensions>
          <ns3:TrackPointExtension>
            <ns3:atemp>28.0</ns3:atemp>
            <ns3:hr>95</ns3:hr>
          </ns3:TrackPointExtension>
        </extensions>
      </trkpt>
      <trkpt lat="36.8037058599293231964111328125" lon="-118.402093984186649322509765625">
        <ele>3227.60009765625</ele>
        <time>2021-06-25T23:42:09.000Z</time>
        <extensions>
          <ns3:TrackPointExtension>
            <ns3:atemp>29.0</ns3:atemp>
            <ns3:hr>97</ns3:hr>
          </ns3:TrackPointExtension>
        </extensions>
      </trkpt>
      <trkpt lat="36.803709380328655242919921875" lon="-118.40209809131920337677001953125">
        <ele>3227.800048828125</ele>
        <time>2021-06-25T23:42:23.000Z</time>
        <extensions>
          <ns3:TrackPointExtension>
            <ns3:atemp>29.0</ns3:atemp>
            <ns3:hr>95</ns3:hr>
          </ns3:TrackPointExtension>
        </extensions>
      </trkpt>
      <trkpt lat="36.8037311732769012451171875" lon="-118.4020867757499217987060546875">
        <ele>3227.800048828125</ele>
        <time>2021-06-25T23:42:25.000Z</time>
        <extensions>
          <ns3:TrackPointExtension>
            <ns3:atemp>29.0</ns3:atemp>
            <ns3:hr>96</ns3:hr>
          </ns3:TrackPointExtension>
        </extensions>
      </trkpt>
      <trkpt lat="36.8037660419940948486328125" lon="-118.40207378380000591278076171875">
        <ele>3228.39990234375</ele>
        <time>2021-06-25T23:42:28.000Z</time>
        <extensions>
          <ns3:TrackPointExtension>
            <ns3:atemp>29.0</ns3:atemp>
            <ns3:hr>101</ns3:hr>
          </ns3:TrackPointExtension>
        </extensions>
      </trkpt>
      <trkpt lat="36.803821362555027008056640625" lon="-118.40205408632755279541015625">
        <ele>3228.60009765625</ele>
        <time>2021-06-25T23:42:32.000Z</time>
        <extensions>
          <ns3:TrackPointExtension>
            <ns3:atemp>29.0</ns3:atemp>
            <ns3:hr>103</ns3:hr>
          </ns3:TrackPointExtension>
        </extensions>
      </trkpt>
      <trkpt lat="36.803844161331653594970703125" lon="-118.4020505659282207489013671875">
        <ele>3228.199951171875</ele>
        <time>2021-06-25T23:42:34.000Z</time>
        <extensions>
          <ns3:TrackPointExtension>
            <ns3:atemp>29.0</ns3:atemp>
            <ns3:hr>101</ns3:hr>
          </ns3:TrackPointExtension>
        </extensions>
      </trkpt>
      <trkpt lat="36.8038651160895824432373046875" lon="-118.40204712934792041778564453125">
        <ele>3228</ele>
        <time>2021-06-25T23:42:36.000Z</time>
        <extensions>
          <ns3:TrackPointExtension>
            <ns3:atemp>29.0</ns3:atemp>
            <ns3:hr>100</ns3:hr>
          </ns3:TrackPointExtension>
        </extensions>
      </trkpt>
      <trkpt lat="36.8038812093436717987060546875" lon="-118.40204997919499874114990234375">
        <ele>3227.800048828125</ele>
        <time>2021-06-25T23:42:38.000Z</time>
        <extensions>
          <ns3:TrackPointExtension>
            <ns3:atemp>29.0</ns3:atemp>
            <ns3:hr>100</ns3:hr>
          </ns3:TrackPointExtension>
        </extensions>
      </trkpt>
      <trkpt lat="36.80393141694366931915283203125" lon="-118.40204997919499874114990234375">
        <ele>3227</ele>
        <time>2021-06-25T23:42:42.000Z</time>
        <extensions>
          <ns3:TrackPointExtension>
            <ns3:atemp>29.0</ns3:atemp>
            <ns3:hr>99</ns3:hr>
          </ns3:TrackPointExtension>
        </extensions>
      </trkpt>
      <trkpt lat="36.8039435707032680511474609375" lon="-118.402045704424381256103515625">
        <ele>3226.800048828125</ele>
        <time>2021-06-25T23:42:43.000Z</time>
        <extensions>
          <ns3:TrackPointExtension>
            <ns3:atemp>29.0</ns3:atemp>
            <ns3:hr>98</ns3:hr>
          </ns3:TrackPointExtension>
        </extensions>
      </trkpt>
      <trkpt lat="36.80401607416570186614990234375" lon="-118.40196934528648853302001953125">
        <ele>3226.800048828125</ele>
        <time>2021-06-25T23:42:51.000Z</time>
        <extensions>
          <ns3:TrackPointExtension>
            <ns3:atemp>29.0</ns3:atemp>
            <ns3:hr>96</ns3:hr>
          </ns3:TrackPointExtension>
        </extensions>
      </trkpt>
      <trkpt lat="36.80401590652763843536376953125" lon="-118.4019570238888263702392578125">
        <ele>3227</ele>
        <time>2021-06-25T23:42:52.000Z</time>
        <extensions>
          <ns3:TrackPointExtension>
            <ns3:atemp>29.0</ns3:atemp>
            <ns3:hr>96</ns3:hr>
          </ns3:TrackPointExtension>
        </extensions>
      </trkpt>
      <trkpt lat="36.8040022440254688262939453125" lon="-118.40190731920301914215087890625">
        <ele>3228.199951171875</ele>
        <time>2021-06-25T23:42:57.000Z</time>
        <extensions>
          <ns3:TrackPointExtension>
            <ns3:atemp>29.0</ns3:atemp>
            <ns3:hr>95</ns3:hr>
          </ns3:TrackPointExtension>
        </extensions>
      </trkpt>
      <trkpt lat="36.80398455820977687835693359375" lon="-118.4018832631409168243408203125">
        <ele>3228.800048828125</ele>
        <time>2021-06-25T23:43:00.000Z</time>
        <extensions>
          <ns3:TrackPointExtension>
            <ns3:atemp>29.0</ns3:atemp>
            <ns3:hr>95</ns3:hr>
          </ns3:TrackPointExtension>
        </extensions>
      </trkpt>
      <trkpt lat="36.8039781041443347930908203125" lon="-118.40185970999300479888916015625">
        <ele>3229.199951171875</ele>
        <time>2021-06-25T23:43:02.000Z</time>
        <extensions>
          <ns3:TrackPointExtension>
            <ns3:atemp>29.0</ns3:atemp>
            <ns3:hr>95</ns3:hr>
          </ns3:TrackPointExtension>
        </extensions>
      </trkpt>
      <trkpt lat="36.8039697222411632537841796875" lon="-118.4018403477966785430908203125">
        <ele>3229.39990234375</ele>
        <time>2021-06-25T23:43:04.000Z</time>
        <extensions>
          <ns3:TrackPointExtension>
            <ns3:atemp>29.0</ns3:atemp>
            <ns3:hr>99</ns3:hr>
          </ns3:TrackPointExtension>
        </extensions>
      </trkpt>
      <trkpt lat="36.8039613403379917144775390625" lon="-118.40182148851454257965087890625">
        <ele>3229.800048828125</ele>
        <time>2021-06-25T23:43:06.000Z</time>
        <extensions>
          <ns3:TrackPointExtension>
            <ns3:atemp>29.0</ns3:atemp>
            <ns3:hr>102</ns3:hr>
          </ns3:TrackPointExtension>
        </extensions>
      </trkpt>
      <trkpt lat="36.8039522878825664520263671875" lon="-118.4018053114414215087890625">
        <ele>3229.800048828125</ele>
        <time>2021-06-25T23:43:08.000Z</time>
        <extensions>
          <ns3:TrackPointExtension>
            <ns3:atemp>29.0</ns3:atemp>
            <ns3:hr>105</ns3:hr>
          </ns3:TrackPointExtension>
        </extensions>
      </trkpt>
      <trkpt lat="36.80392705835402011871337890625" lon="-118.40178879909217357635498046875">
        <ele>3229.39990234375</ele>
        <time>2021-06-25T23:43:11.000Z</time>
        <extensions>
          <ns3:TrackPointExtension>
            <ns3:atemp>29.0</ns3:atemp>
            <ns3:hr>108</ns3:hr>
          </ns3:TrackPointExtension>
        </extensions>
      </trkpt>
      <trkpt lat="36.8039097078144550323486328125" lon="-118.401774466037750244140625">
        <ele>3229</ele>
        <time>2021-06-25T23:43:14.000Z</time>
        <extensions>
          <ns3:TrackPointExtension>
            <ns3:atemp>29.0</ns3:atemp>
            <ns3:hr>113</ns3:hr>
          </ns3:TrackPointExtension>
        </extensions>
      </trkpt>
      <trkpt lat="36.803905181586742401123046875" lon="-118.40176306664943695068359375">
        <ele>3229</ele>
        <time>2021-06-25T23:43:16.000Z</time>
        <extensions>
          <ns3:TrackPointExtension>
            <ns3:atemp>29.0</ns3:atemp>
            <ns3:hr>110</ns3:hr>
          </ns3:TrackPointExtension>
        </extensions>
      </trkpt>
      <trkpt lat="36.80390057153999805450439453125" lon="-118.40174370445311069488525390625">
        <ele>3229</ele>
        <time>2021-06-25T23:43:21.000Z</time>
        <extensions>
          <ns3:TrackPointExtension>
            <ns3:atemp>29.0</ns3:atemp>
            <ns3:hr>112</ns3:hr>
          </ns3:TrackPointExtension>
        </extensions>
      </trkpt>
      <trkpt lat="36.8039003200829029083251953125" lon="-118.401731215417385101318359375">
        <ele>3228.39990234375</ele>
        <time>2021-06-25T23:43:29.000Z</time>
        <extensions>
          <ns3:TrackPointExtension>
            <ns3:atemp>29.0</ns3:atemp>
            <ns3:hr>113</ns3:hr>
          </ns3:TrackPointExtension>
        </extensions>
      </trkpt>
      <trkpt lat="36.8039001524448394775390625" lon="-118.40173079632222652435302734375">
        <ele>3228.199951171875</ele>
        <time>2021-06-25T23:43:30.000Z</time>
        <extensions>
          <ns3:TrackPointExtension>
            <ns3:atemp>29.0</ns3:atemp>
            <ns3:hr>113</ns3:hr>
          </ns3:TrackPointExtension>
        </extensions>
      </trkpt>
      <trkpt lat="36.8039003200829029083251953125" lon="-118.40170942246913909912109375">
        <ele>3228.39990234375</ele>
        <time>2021-06-25T23:43:37.000Z</time>
        <extensions>
          <ns3:TrackPointExtension>
            <ns3:atemp>29.0</ns3:atemp>
            <ns3:hr>112</ns3:hr>
          </ns3:TrackPointExtension>
        </extensions>
      </trkpt>
      <trkpt lat="36.80389805696904659271240234375" lon="-118.401707075536251068115234375">
        <ele>3228.800048828125</ele>
        <time>2021-06-25T23:43:46.000Z</time>
        <extensions>
          <ns3:TrackPointExtension>
            <ns3:atemp>29.0</ns3:atemp>
            <ns3:hr>109</ns3:hr>
          </ns3:TrackPointExtension>
        </extensions>
      </trkpt>
      <trkpt lat="36.80389688350260257720947265625" lon="-118.40167379938066005706787109375">
        <ele>3228.39990234375</ele>
        <time>2021-06-25T23:43:59.000Z</time>
        <extensions>
          <ns3:TrackPointExtension>
            <ns3:atemp>29.0</ns3:atemp>
            <ns3:hr>109</ns3:hr>
          </ns3:TrackPointExtension>
        </extensions>
      </trkpt>
      <trkpt lat="36.80389721877872943878173828125" lon="-118.40163608081638813018798828125">
        <ele>3228.39990234375</ele>
        <time>2021-06-25T23:44:01.000Z</time>
        <extensions>
          <ns3:TrackPointExtension>
            <ns3:atemp>29.0</ns3:atemp>
            <ns3:hr>108</ns3:hr>
          </ns3:TrackPointExtension>
        </extensions>
      </trkpt>
      <trkpt lat="36.80388095788657665252685546875" lon="-118.40153030119836330413818359375">
        <ele>3228</ele>
        <time>2021-06-25T23:44:08.000Z</time>
        <extensions>
          <ns3:TrackPointExtension>
            <ns3:atemp>29.0</ns3:atemp>
            <ns3:hr>105</ns3:hr>
          </ns3:TrackPointExtension>
        </extensions>
      </trkpt>
      <trkpt lat="36.8038486875593662261962890625" lon="-118.40148679912090301513671875">
        <ele>3228.199951171875</ele>
        <time>2021-06-25T23:44:13.000Z</time>
        <extensions>
          <ns3:TrackPointExtension>
            <ns3:atemp>29.0</ns3:atemp>
            <ns3:hr>106</ns3:hr>
          </ns3:TrackPointExtension>
        </extensions>
      </trkpt>
      <trkpt lat="36.80384223349392414093017578125" lon="-118.4014779143035411834716796875">
        <ele>3228.199951171875</ele>
        <time>2021-06-25T23:44:14.000Z</time>
        <extensions>
          <ns3:TrackPointExtension>
            <ns3:atemp>29.0</ns3:atemp>
            <ns3:hr>106</ns3:hr>
          </ns3:TrackPointExtension>
        </extensions>
      </trkpt>
      <trkpt lat="36.8038062751293182373046875" lon="-118.40140105225145816802978515625">
        <ele>3227.800048828125</ele>
        <time>2021-06-25T23:44:21.000Z</time>
        <extensions>
          <ns3:TrackPointExtension>
            <ns3:atemp>29.0</ns3:atemp>
            <ns3:hr>103</ns3:hr>
          </ns3:TrackPointExtension>
        </extensions>
      </trkpt>
      <trkpt lat="36.8037807941436767578125" lon="-118.40134137310087680816650390625">
        <ele>3227.199951171875</ele>
        <time>2021-06-25T23:44:27.000Z</time>
        <extensions>
          <ns3:TrackPointExtension>
            <ns3:atemp>29.0</ns3:atemp>
            <ns3:hr>101</ns3:hr>
          </ns3:TrackPointExtension>
        </extensions>
      </trkpt>
      <trkpt lat="36.80377366952598094940185546875" lon="-118.40130507946014404296875">
        <ele>3227.199951171875</ele>
        <time>2021-06-25T23:44:30.000Z</time>
        <extensions>
          <ns3:TrackPointExtension>
            <ns3:atemp>29.0</ns3:atemp>
            <ns3:hr>100</ns3:hr>
          </ns3:TrackPointExtension>
        </extensions>
      </trkpt>
      <trkpt lat="36.8037715740501880645751953125" lon="-118.40129259042441844940185546875">
        <ele>3226.800048828125</ele>
        <time>2021-06-25T23:44:33.000Z</time>
        <extensions>
          <ns3:TrackPointExtension>
            <ns3:atemp>29.0</ns3:atemp>
            <ns3:hr>99</ns3:hr>
          </ns3:TrackPointExtension>
        </extensions>
      </trkpt>
      <trkpt lat="36.80376864038407802581787109375" lon="-118.40128504671156406402587890625">
        <ele>3226.800048828125</ele>
        <time>2021-06-25T23:44:35.000Z</time>
        <extensions>
          <ns3:TrackPointExtension>
            <ns3:atemp>29.0</ns3:atemp>
            <ns3:hr>98</ns3:hr>
          </ns3:TrackPointExtension>
        </extensions>
      </trkpt>
      <trkpt lat="36.80376662872731685638427734375" lon="-118.40127482078969478607177734375">
        <ele>3227</ele>
        <time>2021-06-25T23:44:36.000Z</time>
        <extensions>
          <ns3:TrackPointExtension>
            <ns3:atemp>29.0</ns3:atemp>
            <ns3:hr>98</ns3:hr>
          </ns3:TrackPointExtension>
        </extensions>
      </trkpt>
      <trkpt lat="36.803766377270221710205078125" lon="-118.4012688696384429931640625">
        <ele>3227</ele>
        <time>2021-06-25T23:44:37.000Z</time>
        <extensions>
          <ns3:TrackPointExtension>
            <ns3:atemp>29.0</ns3:atemp>
            <ns3:hr>99</ns3:hr>
          </ns3:TrackPointExtension>
        </extensions>
      </trkpt>
      <trkpt lat="36.80376537144184112548828125" lon="-118.4012348391115665435791015625">
        <ele>3227.800048828125</ele>
        <time>2021-06-25T23:44:40.000Z</time>
        <extensions>
          <ns3:TrackPointExtension>
            <ns3:atemp>28.0</ns3:atemp>
            <ns3:hr>97</ns3:hr>
          </ns3:TrackPointExtension>
        </extensions>
      </trkpt>
      <trkpt lat="36.8037591688334941864013671875" lon="-118.40119753964245319366455078125">
        <ele>3227.800048828125</ele>
        <time>2021-06-25T23:44:43.000Z</time>
        <extensions>
          <ns3:TrackPointExtension>
            <ns3:atemp>28.0</ns3:atemp>
            <ns3:hr>94</ns3:hr>
          </ns3:TrackPointExtension>
        </extensions>
      </trkpt>
      <trkpt lat="36.803758330643177032470703125" lon="-118.4011758305132389068603515625">
        <ele>3227.800048828125</ele>
        <time>2021-06-25T23:44:45.000Z</time>
        <extensions>
          <ns3:TrackPointExtension>
            <ns3:atemp>28.0</ns3:atemp>
            <ns3:hr>94</ns3:hr>
          </ns3:TrackPointExtension>
        </extensions>
      </trkpt>
      <trkpt lat="36.80374600924551486968994140625" lon="-118.40108002535998821258544921875">
        <ele>3228</ele>
        <time>2021-06-25T23:44:54.000Z</time>
        <extensions>
          <ns3:TrackPointExtension>
            <ns3:atemp>28.0</ns3:atemp>
            <ns3:hr>93</ns3:hr>
          </ns3:TrackPointExtension>
        </extensions>
      </trkpt>
      <trkpt lat="36.80373494513332843780517578125" lon="-118.40098111890256404876708984375">
        <ele>3227.800048828125</ele>
        <time>2021-06-25T23:45:04.000Z</time>
        <extensions>
          <ns3:TrackPointExtension>
            <ns3:atemp>28.0</ns3:atemp>
            <ns3:hr>90</ns3:hr>
          </ns3:TrackPointExtension>
        </extensions>
      </trkpt>
      <trkpt lat="36.80373293347656726837158203125" lon="-118.40098463930189609527587890625">
        <ele>3227.199951171875</ele>
        <time>2021-06-25T23:45:06.000Z</time>
        <extensions>
          <ns3:TrackPointExtension>
            <ns3:atemp>28.0</ns3:atemp>
            <ns3:hr>92</ns3:hr>
          </ns3:TrackPointExtension>
        </extensions>
      </trkpt>
      <trkpt lat="36.803750284016132354736328125" lon="-118.40098321437835693359375">
        <ele>3227.39990234375</ele>
        <time>2021-06-25T23:45:09.000Z</time>
        <extensions>
          <ns3:TrackPointExtension>
            <ns3:atemp>28.0</ns3:atemp>
            <ns3:hr>94</ns3:hr>
          </ns3:TrackPointExtension>
        </extensions>
      </trkpt>
      <trkpt lat="36.80375372059643268585205078125" lon="-118.4009904228150844573974609375">
        <ele>3227.39990234375</ele>
        <time>2021-06-25T23:45:10.000Z</time>
        <extensions>
          <ns3:TrackPointExtension>
            <ns3:atemp>28.0</ns3:atemp>
            <ns3:hr>94</ns3:hr>
          </ns3:TrackPointExtension>
        </extensions>
      </trkpt>
      <trkpt lat="36.80375472642481327056884765625" lon="-118.40099318884313106536865234375">
        <ele>3227.39990234375</ele>
        <time>2021-06-25T23:45:11.000Z</time>
        <extensions>
          <ns3:TrackPointExtension>
            <ns3:atemp>28.0</ns3:atemp>
            <ns3:hr>91</ns3:hr>
          </ns3:TrackPointExtension>
        </extensions>
      </trkpt>
      <trkpt lat="36.803749613463878631591796875" lon="-118.4009974636137485504150390625">
        <ele>3227.60009765625</ele>
        <time>2021-06-25T23:45:17.000Z</time>
        <extensions>
          <ns3:TrackPointExtension>
            <ns3:atemp>28.0</ns3:atemp>
            <ns3:hr>88</ns3:hr>
          </ns3:TrackPointExtension>
        </extensions>
      </trkpt>
      <trkpt lat="36.803749613463878631591796875" lon="-118.4009974636137485504150390625">
        <ele>3227.60009765625</ele>
        <time>2021-06-25T23:45:18.000Z</time>
        <extensions>
          <ns3:TrackPointExtension>
            <ns3:atemp>28.0</ns3:atemp>
            <ns3:hr>91</ns3:hr>
          </ns3:TrackPointExtension>
        </extensions>
      </trkpt>
      <trkpt lat="36.80374324321746826171875" lon="-118.401001654565334320068359375">
        <ele>3227.60009765625</ele>
        <time>2021-06-25T23:45:53.000Z</time>
        <extensions>
          <ns3:TrackPointExtension>
            <ns3:atemp>29.0</ns3:atemp>
            <ns3:hr>94</ns3:hr>
          </ns3:TrackPointExtension>
        </extensions>
      </trkpt>
      <trkpt lat="36.8037323467433452606201171875" lon="-118.401002325117588043212890625">
        <ele>3227.60009765625</ele>
        <time>2021-06-25T23:46:07.000Z</time>
        <extensions>
          <ns3:TrackPointExtension>
            <ns3:atemp>29.0</ns3:atemp>
            <ns3:hr>97</ns3:hr>
          </ns3:TrackPointExtension>
        </extensions>
      </trkpt>
      <trkpt lat="36.80372438393533229827880859375" lon="-118.4009979665279388427734375">
        <ele>3227.60009765625</ele>
        <time>2021-06-25T23:46:14.000Z</time>
        <extensions>
          <ns3:TrackPointExtension>
            <ns3:atemp>29.0</ns3:atemp>
            <ns3:hr>100</ns3:hr>
          </ns3:TrackPointExtension>
        </extensions>
      </trkpt>
      <trkpt lat="36.80371885187923908233642578125" lon="-118.4009897522628307342529296875">
        <ele>3227.60009765625</ele>
        <time>2021-06-25T23:46:22.000Z</time>
        <extensions>
          <ns3:TrackPointExtension>
            <ns3:atemp>29.0</ns3:atemp>
            <ns3:hr>103</ns3:hr>
          </ns3:TrackPointExtension>
        </extensions>
      </trkpt>
      <trkpt lat="36.803718768060207366943359375" lon="-118.400988914072513580322265625">
        <ele>3227.60009765625</ele>
        <time>2021-06-25T23:46:32.000Z</time>
        <extensions>
          <ns3:TrackPointExtension>
            <ns3:atemp>29.0</ns3:atemp>
            <ns3:hr>100</ns3:hr>
          </ns3:TrackPointExtension>
        </extensions>
      </trkpt>
      <trkpt lat="36.80371885187923908233642578125" lon="-118.40098916552960872650146484375">
        <ele>3227.60009765625</ele>
        <time>2021-06-25T23:46:35.000Z</time>
        <extensions>
          <ns3:TrackPointExtension>
            <ns3:atemp>29.0</ns3:atemp>
            <ns3:hr>105</ns3:hr>
          </ns3:TrackPointExtension>
        </extensions>
      </trkpt>
      <trkpt lat="36.8037457577884197235107421875" lon="-118.40100274421274662017822265625">
        <ele>3227.60009765625</ele>
        <time>2021-06-25T23:46:59.000Z</time>
        <extensions>
          <ns3:TrackPointExtension>
            <ns3:atemp>29.0</ns3:atemp>
            <ns3:hr>106</ns3:hr>
          </ns3:TrackPointExtension>
        </extensions>
      </trkpt>
      <trkpt lat="36.80373913608491420745849609375" lon="-118.40099905617535114288330078125">
        <ele>3227.60009765625</ele>
        <time>2021-06-25T23:47:20.000Z</time>
        <extensions>
          <ns3:TrackPointExtension>
            <ns3:atemp>29.0</ns3:atemp>
            <ns3:hr>103</ns3:hr>
          </ns3:TrackPointExtension>
        </extensions>
      </trkpt>
      <trkpt lat="36.8037387169897556304931640625" lon="-118.40099788270890712738037109375">
        <ele>3227.60009765625</ele>
        <time>2021-06-25T23:47:26.000Z</time>
        <extensions>
          <ns3:TrackPointExtension>
            <ns3:atemp>29.0</ns3:atemp>
            <ns3:hr>106</ns3:hr>
          </ns3:TrackPointExtension>
        </extensions>
      </trkpt>
      <trkpt lat="36.80373863317072391510009765625" lon="-118.4009977988898754119873046875">
        <ele>3227.60009765625</ele>
        <time>2021-06-25T23:47:27.000Z</time>
        <extensions>
          <ns3:TrackPointExtension>
            <ns3:atemp>29.0</ns3:atemp>
            <ns3:hr>103</ns3:hr>
          </ns3:TrackPointExtension>
        </extensions>
      </trkpt>
      <trkpt lat="36.80373762734234333038330078125" lon="-118.4009971283376216888427734375">
        <ele>3227.60009765625</ele>
        <time>2021-06-25T23:47:35.000Z</time>
        <extensions>
          <ns3:TrackPointExtension>
            <ns3:atemp>29.0</ns3:atemp>
            <ns3:hr>100</ns3:hr>
          </ns3:TrackPointExtension>
        </extensions>
      </trkpt>
      <trkpt lat="36.8037378787994384765625" lon="-118.4009971283376216888427734375">
        <ele>3227.60009765625</ele>
        <time>2021-06-25T23:47:39.000Z</time>
        <extensions>
          <ns3:TrackPointExtension>
            <ns3:atemp>29.0</ns3:atemp>
            <ns3:hr>97</ns3:hr>
          </ns3:TrackPointExtension>
        </extensions>
      </trkpt>
      <trkpt lat="36.8037403933703899383544921875" lon="-118.40100006200373172760009765625">
        <ele>3227.60009765625</ele>
        <time>2021-06-25T23:47:56.000Z</time>
        <extensions>
          <ns3:TrackPointExtension>
            <ns3:atemp>29.0</ns3:atemp>
            <ns3:hr>94</ns3:hr>
          </ns3:TrackPointExtension>
        </extensions>
      </trkpt>
      <trkpt lat="36.8037410639226436614990234375" lon="-118.4010004810988903045654296875">
        <ele>3227.60009765625</ele>
        <time>2021-06-25T23:47:59.000Z</time>
        <extensions>
          <ns3:TrackPointExtension>
            <ns3:atemp>29.0</ns3:atemp>
            <ns3:hr>97</ns3:hr>
          </ns3:TrackPointExtension>
        </extensions>
      </trkpt>
      <trkpt lat="36.80374667979776859283447265625" lon="-118.4010038338601589202880859375">
        <ele>3227.60009765625</ele>
        <time>2021-06-25T23:48:25.000Z</time>
        <extensions>
          <ns3:TrackPointExtension>
            <ns3:atemp>29.0</ns3:atemp>
            <ns3:hr>94</ns3:hr>
          </ns3:TrackPointExtension>
        </extensions>
      </trkpt>
      <trkpt lat="36.80374651215970516204833984375" lon="-118.40100391767919063568115234375">
        <ele>3227.60009765625</ele>
        <time>2021-06-25T23:48:26.000Z</time>
        <extensions>
          <ns3:TrackPointExtension>
            <ns3:atemp>29.0</ns3:atemp>
            <ns3:hr>91</ns3:hr>
          </ns3:TrackPointExtension>
        </extensions>
      </trkpt>
      <trkpt lat="36.803746260702610015869140625" lon="-118.40100408531725406646728515625">
        <ele>3227.60009765625</ele>
        <time>2021-06-25T23:48:28.000Z</time>
        <extensions>
          <ns3:TrackPointExtension>
            <ns3:atemp>29.0</ns3:atemp>
            <ns3:hr>88</ns3:hr>
          </ns3:TrackPointExtension>
        </extensions>
      </trkpt>
      <trkpt lat="36.8037460930645465850830078125" lon="-118.4010041691362857818603515625">
        <ele>3227.60009765625</ele>
        <time>2021-06-25T23:48:30.000Z</time>
        <extensions>
          <ns3:TrackPointExtension>
            <ns3:atemp>29.0</ns3:atemp>
            <ns3:hr>85</ns3:hr>
          </ns3:TrackPointExtension>
        </extensions>
      </trkpt>
      <trkpt lat="36.803745925426483154296875" lon="-118.40100425295531749725341796875">
        <ele>3227.60009765625</ele>
        <time>2021-06-25T23:48:34.000Z</time>
        <extensions>
          <ns3:TrackPointExtension>
            <ns3:atemp>28.0</ns3:atemp>
            <ns3:hr>86</ns3:hr>
          </ns3:TrackPointExtension>
        </extensions>
      </trkpt>
      <trkpt lat="36.803745925426483154296875" lon="-118.40100425295531749725341796875">
        <ele>3227.60009765625</ele>
        <time>2021-06-25T23:48:37.000Z</time>
        <extensions>
          <ns3:TrackPointExtension>
            <ns3:atemp>28.0</ns3:atemp>
            <ns3:hr>89</ns3:hr>
          </ns3:TrackPointExtension>
        </extensions>
      </trkpt>
      <trkpt lat="36.803745925426483154296875" lon="-118.40100425295531749725341796875">
        <ele>3227.60009765625</ele>
        <time>2021-06-25T23:48:39.000Z</time>
        <extensions>
          <ns3:TrackPointExtension>
            <ns3:atemp>28.0</ns3:atemp>
            <ns3:hr>92</ns3:hr>
          </ns3:TrackPointExtension>
        </extensions>
      </trkpt>
      <trkpt lat="36.8037457577884197235107421875" lon="-118.401004336774349212646484375">
        <ele>3227.60009765625</ele>
        <time>2021-06-25T23:48:55.000Z</time>
        <extensions>
          <ns3:TrackPointExtension>
            <ns3:atemp>28.0</ns3:atemp>
            <ns3:hr>95</ns3:hr>
          </ns3:TrackPointExtension>
        </extensions>
      </trkpt>
      <trkpt lat="36.8037457577884197235107421875" lon="-118.401004336774349212646484375">
        <ele>3227.60009765625</ele>
        <time>2021-06-25T23:48:57.000Z</time>
        <extensions>
          <ns3:TrackPointExtension>
            <ns3:atemp>28.0</ns3:atemp>
            <ns3:hr>92</ns3:hr>
          </ns3:TrackPointExtension>
        </extensions>
      </trkpt>
      <trkpt lat="36.80374483577907085418701171875" lon="-118.4010045044124126434326171875">
        <ele>3227.60009765625</ele>
        <time>2021-06-25T23:49:25.000Z</time>
        <extensions>
          <ns3:TrackPointExtension>
            <ns3:atemp>29.0</ns3:atemp>
            <ns3:hr>89</ns3:hr>
          </ns3:TrackPointExtension>
        </extensions>
      </trkpt>
      <trkpt lat="36.8037447519600391387939453125" lon="-118.4010045044124126434326171875">
        <ele>3227.60009765625</ele>
        <time>2021-06-25T23:49:30.000Z</time>
        <extensions>
          <ns3:TrackPointExtension>
            <ns3:atemp>29.0</ns3:atemp>
            <ns3:hr>86</ns3:hr>
          </ns3:TrackPointExtension>
        </extensions>
      </trkpt>
      <trkpt lat="36.80374466814100742340087890625" lon="-118.40100458823144435882568359375">
        <ele>3227.60009765625</ele>
        <time>2021-06-25T23:49:31.000Z</time>
        <extensions>
          <ns3:TrackPointExtension>
            <ns3:atemp>29.0</ns3:atemp>
            <ns3:hr>88</ns3:hr>
          </ns3:TrackPointExtension>
        </extensions>
      </trkpt>
      <trkpt lat="36.8037445843219757080078125" lon="-118.40100458823144435882568359375">
        <ele>3227.60009765625</ele>
        <time>2021-06-25T23:49:36.000Z</time>
        <extensions>
          <ns3:TrackPointExtension>
            <ns3:atemp>29.0</ns3:atemp>
            <ns3:hr>91</ns3:hr>
          </ns3:TrackPointExtension>
        </extensions>
      </trkpt>
      <trkpt lat="36.8037445843219757080078125" lon="-118.40100458823144435882568359375">
        <ele>3227.60009765625</ele>
        <time>2021-06-25T23:49:39.000Z</time>
        <extensions>
          <ns3:TrackPointExtension>
            <ns3:atemp>29.0</ns3:atemp>
            <ns3:hr>94</ns3:hr>
          </ns3:TrackPointExtension>
        </extensions>
      </trkpt>
      <trkpt lat="36.803735196590423583984375" lon="-118.4009776823222637176513671875">
        <ele>3227.60009765625</ele>
        <time>2021-06-25T23:49:48.000Z</time>
        <extensions>
          <ns3:TrackPointExtension>
            <ns3:atemp>29.0</ns3:atemp>
            <ns3:hr>97</ns3:hr>
          </ns3:TrackPointExtension>
        </extensions>
      </trkpt>
      <trkpt lat="36.8037284910678863525390625" lon="-118.40095966123044490814208984375">
        <ele>3227.60009765625</ele>
        <time>2021-06-25T23:49:49.000Z</time>
        <extensions>
          <ns3:TrackPointExtension>
            <ns3:atemp>29.0</ns3:atemp>
            <ns3:hr>100</ns3:hr>
          </ns3:TrackPointExtension>
        </extensions>
      </trkpt>
      <trkpt lat="36.80371348746120929718017578125" lon="-118.400923199951648712158203125">
        <ele>3227.60009765625</ele>
        <time>2021-06-25T23:49:51.000Z</time>
        <extensions>
          <ns3:TrackPointExtension>
            <ns3:atemp>29.0</ns3:atemp>
            <ns3:hr>102</ns3:hr>
          </ns3:TrackPointExtension>
        </extensions>
      </trkpt>
      <trkpt lat="36.80369965732097625732421875" lon="-118.40081012807786464691162109375">
        <ele>3227.60009765625</ele>
        <time>2021-06-25T23:49:58.000Z</time>
        <extensions>
          <ns3:TrackPointExtension>
            <ns3:atemp>29.0</ns3:atemp>
            <ns3:hr>101</ns3:hr>
          </ns3:TrackPointExtension>
        </extensions>
      </trkpt>
      <trkpt lat="36.8036949634552001953125" lon="-118.4007198549807071685791015625">
        <ele>3226.39990234375</ele>
        <time>2021-06-25T23:50:06.000Z</time>
        <extensions>
          <ns3:TrackPointExtension>
            <ns3:atemp>29.0</ns3:atemp>
            <ns3:hr>102</ns3:hr>
          </ns3:TrackPointExtension>
        </extensions>
      </trkpt>
      <trkpt lat="36.803675852715969085693359375" lon="-118.40067551471292972564697265625">
        <ele>3226</ele>
        <time>2021-06-25T23:50:10.000Z</time>
        <extensions>
          <ns3:TrackPointExtension>
            <ns3:atemp>29.0</ns3:atemp>
            <ns3:hr>102</ns3:hr>
          </ns3:TrackPointExtension>
        </extensions>
      </trkpt>
      <trkpt lat="36.80365414358675479888916015625" lon="-118.400629498064517974853515625">
        <ele>3226</ele>
        <time>2021-06-25T23:50:14.000Z</time>
        <extensions>
          <ns3:TrackPointExtension>
            <ns3:atemp>29.0</ns3:atemp>
            <ns3:hr>103</ns3:hr>
          </ns3:TrackPointExtension>
        </extensions>
      </trkpt>
      <trkpt lat="36.80358893238008022308349609375" lon="-118.40049932710826396942138671875">
        <ele>3225.800048828125</ele>
        <time>2021-06-25T23:50:26.000Z</time>
        <extensions>
          <ns3:TrackPointExtension>
            <ns3:atemp>29.0</ns3:atemp>
            <ns3:hr>104</ns3:hr>
          </ns3:TrackPointExtension>
        </extensions>
      </trkpt>
      <trkpt lat="36.80357803590595722198486328125" lon="-118.4004734270274639129638671875">
        <ele>3225.60009765625</ele>
        <time>2021-06-25T23:50:28.000Z</time>
        <extensions>
          <ns3:TrackPointExtension>
            <ns3:atemp>29.0</ns3:atemp>
            <ns3:hr>103</ns3:hr>
          </ns3:TrackPointExtension>
        </extensions>
      </trkpt>
      <trkpt lat="36.80354450829327106475830078125" lon="-118.40041299350559711456298828125">
        <ele>3225.39990234375</ele>
        <time>2021-06-25T23:50:33.000Z</time>
        <extensions>
          <ns3:TrackPointExtension>
            <ns3:atemp>28.0</ns3:atemp>
            <ns3:hr>100</ns3:hr>
          </ns3:TrackPointExtension>
        </extensions>
      </trkpt>
      <trkpt lat="36.80353277362883090972900390625" lon="-118.4003906138241291046142578125">
        <ele>3225.39990234375</ele>
        <time>2021-06-25T23:50:35.000Z</time>
        <extensions>
          <ns3:TrackPointExtension>
            <ns3:atemp>28.0</ns3:atemp>
            <ns3:hr>102</ns3:hr>
          </ns3:TrackPointExtension>
        </extensions>
      </trkpt>
      <trkpt lat="36.8035000003874301910400390625" lon="-118.4003124944865703582763671875">
        <ele>3225.60009765625</ele>
        <time>2021-06-25T23:50:42.000Z</time>
        <extensions>
          <ns3:TrackPointExtension>
            <ns3:atemp>28.0</ns3:atemp>
            <ns3:hr>99</ns3:hr>
          </ns3:TrackPointExtension>
        </extensions>
      </trkpt>
      <trkpt lat="36.8034953065216541290283203125" lon="-118.40030084364116191864013671875">
        <ele>3225.60009765625</ele>
        <time>2021-06-25T23:50:43.000Z</time>
        <extensions>
          <ns3:TrackPointExtension>
            <ns3:atemp>28.0</ns3:atemp>
            <ns3:hr>99</ns3:hr>
          </ns3:TrackPointExtension>
        </extensions>
      </trkpt>
      <trkpt lat="36.8034637905657291412353515625" lon="-118.40026396326720714569091796875">
        <ele>3225.39990234375</ele>
        <time>2021-06-25T23:50:49.000Z</time>
        <extensions>
          <ns3:TrackPointExtension>
            <ns3:atemp>28.0</ns3:atemp>
            <ns3:hr>100</ns3:hr>
          </ns3:TrackPointExtension>
        </extensions>
      </trkpt>
      <trkpt lat="36.80347443558275699615478515625" lon="-118.40026681311428546905517578125">
        <ele>3225.39990234375</ele>
        <time>2021-06-25T23:51:00.000Z</time>
        <extensions>
          <ns3:TrackPointExtension>
            <ns3:atemp>28.0</ns3:atemp>
            <ns3:hr>101</ns3:hr>
          </ns3:TrackPointExtension>
        </extensions>
      </trkpt>
      <trkpt lat="36.80347627960145473480224609375" lon="-118.40026144869625568389892578125">
        <ele>3225.39990234375</ele>
        <time>2021-06-25T23:51:09.000Z</time>
        <extensions>
          <ns3:TrackPointExtension>
            <ns3:atemp>28.0</ns3:atemp>
            <ns3:hr>98</ns3:hr>
          </ns3:TrackPointExtension>
        </extensions>
      </trkpt>
      <trkpt lat="36.80347443558275699615478515625" lon="-118.40026144869625568389892578125">
        <ele>3225.39990234375</ele>
        <time>2021-06-25T23:51:12.000Z</time>
        <extensions>
          <ns3:TrackPointExtension>
            <ns3:atemp>28.0</ns3:atemp>
            <ns3:hr>97</ns3:hr>
          </ns3:TrackPointExtension>
        </extensions>
      </trkpt>
      <trkpt lat="36.803467981517314910888671875" lon="-118.40025424025952816009521484375">
        <ele>3225.60009765625</ele>
        <time>2021-06-25T23:51:24.000Z</time>
        <extensions>
          <ns3:TrackPointExtension>
            <ns3:atemp>28.0</ns3:atemp>
            <ns3:hr>94</ns3:hr>
          </ns3:TrackPointExtension>
        </extensions>
      </trkpt>
      <trkpt lat="36.80346840061247348785400390625" lon="-118.40025407262146472930908203125">
        <ele>3225.800048828125</ele>
        <time>2021-06-25T23:51:25.000Z</time>
        <extensions>
          <ns3:TrackPointExtension>
            <ns3:atemp>28.0</ns3:atemp>
            <ns3:hr>94</ns3:hr>
          </ns3:TrackPointExtension>
        </extensions>
      </trkpt>
      <trkpt lat="36.8034684844315052032470703125" lon="-118.4002518095076084136962890625">
        <ele>3225.800048828125</ele>
        <time>2021-06-25T23:51:36.000Z</time>
        <extensions>
          <ns3:TrackPointExtension>
            <ns3:atemp>28.0</ns3:atemp>
            <ns3:hr>97</ns3:hr>
          </ns3:TrackPointExtension>
        </extensions>
      </trkpt>
      <trkpt lat="36.80346840061247348785400390625" lon="-118.40025206096470355987548828125">
        <ele>3226</ele>
        <time>2021-06-25T23:51:38.000Z</time>
        <extensions>
          <ns3:TrackPointExtension>
            <ns3:atemp>28.0</ns3:atemp>
            <ns3:hr>94</ns3:hr>
          </ns3:TrackPointExtension>
        </extensions>
      </trkpt>
      <trkpt lat="36.80346965789794921875" lon="-118.4002541564404964447021484375">
        <ele>3225.800048828125</ele>
        <time>2021-06-25T23:51:44.000Z</time>
        <extensions>
          <ns3:TrackPointExtension>
            <ns3:atemp>28.0</ns3:atemp>
            <ns3:hr>91</ns3:hr>
          </ns3:TrackPointExtension>
        </extensions>
      </trkpt>
      <trkpt lat="36.803461611270904541015625" lon="-118.40026631020009517669677734375">
        <ele>3226</ele>
        <time>2021-06-25T23:52:09.000Z</time>
        <extensions>
          <ns3:TrackPointExtension>
            <ns3:atemp>28.0</ns3:atemp>
            <ns3:hr>88</ns3:hr>
          </ns3:TrackPointExtension>
        </extensions>
      </trkpt>
      <trkpt lat="36.80345566011965274810791015625" lon="-118.40021274983882904052734375">
        <ele>3226.39990234375</ele>
        <time>2021-06-25T23:52:13.000Z</time>
        <extensions>
          <ns3:TrackPointExtension>
            <ns3:atemp>28.0</ns3:atemp>
            <ns3:hr>86</ns3:hr>
          </ns3:TrackPointExtension>
        </extensions>
      </trkpt>
      <trkpt lat="36.803461611270904541015625" lon="-118.400071598589420318603515625">
        <ele>3227</ele>
        <time>2021-06-25T23:52:22.000Z</time>
        <extensions>
          <ns3:TrackPointExtension>
            <ns3:atemp>28.0</ns3:atemp>
            <ns3:hr>89</ns3:hr>
          </ns3:TrackPointExtension>
        </extensions>
      </trkpt>
      <trkpt lat="36.80346555076539516448974609375" lon="-118.4000580199062824249267578125">
        <ele>3227</ele>
        <time>2021-06-25T23:52:23.000Z</time>
        <extensions>
          <ns3:TrackPointExtension>
            <ns3:atemp>28.0</ns3:atemp>
            <ns3:hr>90</ns3:hr>
          </ns3:TrackPointExtension>
        </extensions>
      </trkpt>
      <trkpt lat="36.803470663726329803466796875" lon="-118.400044776499271392822265625">
        <ele>3227.199951171875</ele>
        <time>2021-06-25T23:52:24.000Z</time>
        <extensions>
          <ns3:TrackPointExtension>
            <ns3:atemp>28.0</ns3:atemp>
            <ns3:hr>90</ns3:hr>
          </ns3:TrackPointExtension>
        </extensions>
      </trkpt>
      <trkpt lat="36.80346898734569549560546875" lon="-118.39996489696204662322998046875">
        <ele>3227.39990234375</ele>
        <time>2021-06-25T23:52:30.000Z</time>
        <extensions>
          <ns3:TrackPointExtension>
            <ns3:atemp>28.0</ns3:atemp>
            <ns3:hr>93</ns3:hr>
          </ns3:TrackPointExtension>
        </extensions>
      </trkpt>
      <trkpt lat="36.803460605442523956298828125" lon="-118.39995450340211391448974609375">
        <ele>3227.39990234375</ele>
        <time>2021-06-25T23:52:31.000Z</time>
        <extensions>
          <ns3:TrackPointExtension>
            <ns3:atemp>28.0</ns3:atemp>
            <ns3:hr>94</ns3:hr>
          </ns3:TrackPointExtension>
        </extensions>
      </trkpt>
      <trkpt lat="36.80341802537441253662109375" lon="-118.3998997695744037628173828125">
        <ele>3227.199951171875</ele>
        <time>2021-06-25T23:52:37.000Z</time>
        <extensions>
          <ns3:TrackPointExtension>
            <ns3:atemp>28.0</ns3:atemp>
            <ns3:hr>96</ns3:hr>
          </ns3:TrackPointExtension>
        </extensions>
      </trkpt>
      <trkpt lat="36.80341173894703388214111328125" lon="-118.3998907171189785003662109375">
        <ele>3227.199951171875</ele>
        <time>2021-06-25T23:52:38.000Z</time>
        <extensions>
          <ns3:TrackPointExtension>
            <ns3:atemp>28.0</ns3:atemp>
            <ns3:hr>95</ns3:hr>
          </ns3:TrackPointExtension>
        </extensions>
      </trkpt>
      <trkpt lat="36.80335633456707000732421875" lon="-118.39979155920445919036865234375">
        <ele>3228</ele>
        <time>2021-06-25T23:52:46.000Z</time>
        <extensions>
          <ns3:TrackPointExtension>
            <ns3:atemp>28.0</ns3:atemp>
            <ns3:hr>96</ns3:hr>
          </ns3:TrackPointExtension>
        </extensions>
      </trkpt>
      <trkpt lat="36.80331165902316570281982421875" lon="-118.3997140266001224517822265625">
        <ele>3227.60009765625</ele>
        <time>2021-06-25T23:52:53.000Z</time>
        <extensions>
          <ns3:TrackPointExtension>
            <ns3:atemp>28.0</ns3:atemp>
            <ns3:hr>99</ns3:hr>
          </ns3:TrackPointExtension>
        </extensions>
      </trkpt>
      <trkpt lat="36.80330403149127960205078125" lon="-118.39970044791698455810546875">
        <ele>3227.60009765625</ele>
        <time>2021-06-25T23:52:54.000Z</time>
        <extensions>
          <ns3:TrackPointExtension>
            <ns3:atemp>28.0</ns3:atemp>
            <ns3:hr>100</ns3:hr>
          </ns3:TrackPointExtension>
        </extensions>
      </trkpt>
      <trkpt lat="36.80324099957942962646484375" lon="-118.39961671270430088043212890625">
        <ele>3227.39990234375</ele>
        <time>2021-06-25T23:53:02.000Z</time>
        <extensions>
          <ns3:TrackPointExtension>
            <ns3:atemp>28.0</ns3:atemp>
            <ns3:hr>102</ns3:hr>
          </ns3:TrackPointExtension>
        </extensions>
      </trkpt>
      <trkpt lat="36.80322616361081600189208984375" lon="-118.39957245625555515289306640625">
        <ele>3227.199951171875</ele>
        <time>2021-06-25T23:53:05.000Z</time>
        <extensions>
          <ns3:TrackPointExtension>
            <ns3:atemp>28.0</ns3:atemp>
            <ns3:hr>99</ns3:hr>
          </ns3:TrackPointExtension>
        </extensions>
      </trkpt>
      <trkpt lat="36.80321124382317066192626953125" lon="-118.39947522617876529693603515625">
        <ele>3227.199951171875</ele>
        <time>2021-06-25T23:53:12.000Z</time>
        <extensions>
          <ns3:TrackPointExtension>
            <ns3:atemp>28.0</ns3:atemp>
            <ns3:hr>101</ns3:hr>
          </ns3:TrackPointExtension>
        </extensions>
      </trkpt>
      <trkpt lat="36.80317184887826442718505859375" lon="-118.3993002958595752716064453125">
        <ele>3227.60009765625</ele>
        <time>2021-06-25T23:53:24.000Z</time>
        <extensions>
          <ns3:TrackPointExtension>
            <ns3:atemp>28.0</ns3:atemp>
            <ns3:hr>100</ns3:hr>
          </ns3:TrackPointExtension>
        </extensions>
      </trkpt>
      <trkpt lat="36.80314905010163784027099609375" lon="-118.3992717973887920379638671875">
        <ele>3227.60009765625</ele>
        <time>2021-06-25T23:53:27.000Z</time>
        <extensions>
          <ns3:TrackPointExtension>
            <ns3:atemp>28.0</ns3:atemp>
            <ns3:hr>97</ns3:hr>
          </ns3:TrackPointExtension>
        </extensions>
      </trkpt>
      <trkpt lat="36.8031167797744274139404296875" lon="-118.399213962256908416748046875">
        <ele>3226.800048828125</ele>
        <time>2021-06-25T23:53:32.000Z</time>
        <extensions>
          <ns3:TrackPointExtension>
            <ns3:atemp>28.0</ns3:atemp>
            <ns3:hr>99</ns3:hr>
          </ns3:TrackPointExtension>
        </extensions>
      </trkpt>
      <trkpt lat="36.80307160131633281707763671875" lon="-118.39914179407060146331787109375">
        <ele>3226.800048828125</ele>
        <time>2021-06-25T23:53:39.000Z</time>
        <extensions>
          <ns3:TrackPointExtension>
            <ns3:atemp>28.0</ns3:atemp>
            <ns3:hr>101</ns3:hr>
          </ns3:TrackPointExtension>
        </extensions>
      </trkpt>
      <trkpt lat="36.80305617861449718475341796875" lon="-118.39907138608396053314208984375">
        <ele>3226.60009765625</ele>
        <time>2021-06-25T23:53:44.000Z</time>
        <extensions>
          <ns3:TrackPointExtension>
            <ns3:atemp>28.0</ns3:atemp>
            <ns3:hr>98</ns3:hr>
          </ns3:TrackPointExtension>
        </extensions>
      </trkpt>
      <trkpt lat="36.80305433459579944610595703125" lon="-118.39906216599047183990478515625">
        <ele>3226.60009765625</ele>
        <time>2021-06-25T23:53:45.000Z</time>
        <extensions>
          <ns3:TrackPointExtension>
            <ns3:atemp>28.0</ns3:atemp>
            <ns3:hr>101</ns3:hr>
          </ns3:TrackPointExtension>
        </extensions>
      </trkpt>
      <trkpt lat="36.80304595269262790679931640625" lon="-118.39904339052736759185791015625">
        <ele>3226.39990234375</ele>
        <time>2021-06-25T23:53:48.000Z</time>
        <extensions>
          <ns3:TrackPointExtension>
            <ns3:atemp>28.0</ns3:atemp>
            <ns3:hr>100</ns3:hr>
          </ns3:TrackPointExtension>
        </extensions>
      </trkpt>
      <trkpt lat="36.80302985943853855133056640625" lon="-118.39900483377277851104736328125">
        <ele>3226.60009765625</ele>
        <time>2021-06-25T23:53:55.000Z</time>
        <extensions>
          <ns3:TrackPointExtension>
            <ns3:atemp>28.0</ns3:atemp>
            <ns3:hr>96</ns3:hr>
          </ns3:TrackPointExtension>
        </extensions>
      </trkpt>
      <trkpt lat="36.8030265904963016510009765625" lon="-118.39899544604122638702392578125">
        <ele>3226.60009765625</ele>
        <time>2021-06-25T23:53:57.000Z</time>
        <extensions>
          <ns3:TrackPointExtension>
            <ns3:atemp>28.0</ns3:atemp>
            <ns3:hr>93</ns3:hr>
          </ns3:TrackPointExtension>
        </extensions>
      </trkpt>
      <trkpt lat="36.80302441120147705078125" lon="-118.3989827893674373626708984375">
        <ele>3226.800048828125</ele>
        <time>2021-06-25T23:54:00.000Z</time>
        <extensions>
          <ns3:TrackPointExtension>
            <ns3:atemp>28.0</ns3:atemp>
            <ns3:hr>90</ns3:hr>
          </ns3:TrackPointExtension>
        </extensions>
      </trkpt>
      <trkpt lat="36.803024746477603912353515625" lon="-118.398973233997821807861328125">
        <ele>3227.199951171875</ele>
        <time>2021-06-25T23:54:01.000Z</time>
        <extensions>
          <ns3:TrackPointExtension>
            <ns3:atemp>28.0</ns3:atemp>
            <ns3:hr>90</ns3:hr>
          </ns3:TrackPointExtension>
        </extensions>
      </trkpt>
      <trkpt lat="36.80302868597209453582763671875" lon="-118.39888866059482097625732421875">
        <ele>3228.39990234375</ele>
        <time>2021-06-25T23:54:09.000Z</time>
        <extensions>
          <ns3:TrackPointExtension>
            <ns3:atemp>28.0</ns3:atemp>
            <ns3:hr>91</ns3:hr>
          </ns3:TrackPointExtension>
        </extensions>
      </trkpt>
      <trkpt lat="36.80302801541984081268310546875" lon="-118.39886552654206752777099609375">
        <ele>3228.39990234375</ele>
        <time>2021-06-25T23:54:11.000Z</time>
        <extensions>
          <ns3:TrackPointExtension>
            <ns3:atemp>28.0</ns3:atemp>
            <ns3:hr>92</ns3:hr>
          </ns3:TrackPointExtension>
        </extensions>
      </trkpt>
      <trkpt lat="36.80304528214037418365478515625" lon="-118.39877533726394176483154296875">
        <ele>3228.800048828125</ele>
        <time>2021-06-25T23:54:18.000Z</time>
        <extensions>
          <ns3:TrackPointExtension>
            <ns3:atemp>27.0</ns3:atemp>
            <ns3:hr>95</ns3:hr>
          </ns3:TrackPointExtension>
        </extensions>
      </trkpt>
      <trkpt lat="36.803046204149723052978515625" lon="-118.39876142330467700958251953125">
        <ele>3228.800048828125</ele>
        <time>2021-06-25T23:54:19.000Z</time>
        <extensions>
          <ns3:TrackPointExtension>
            <ns3:atemp>28.0</ns3:atemp>
            <ns3:hr>94</ns3:hr>
          </ns3:TrackPointExtension>
        </extensions>
      </trkpt>
      <trkpt lat="36.803060956299304962158203125" lon="-118.3987206034362316131591796875">
        <ele>3228.60009765625</ele>
        <time>2021-06-25T23:54:22.000Z</time>
        <extensions>
          <ns3:TrackPointExtension>
            <ns3:atemp>27.0</ns3:atemp>
            <ns3:hr>98</ns3:hr>
          </ns3:TrackPointExtension>
        </extensions>
      </trkpt>
      <trkpt lat="36.80310797877609729766845703125" lon="-118.3986796997487545013427734375">
        <ele>3228.39990234375</ele>
        <time>2021-06-25T23:54:27.000Z</time>
        <extensions>
          <ns3:TrackPointExtension>
            <ns3:atemp>28.0</ns3:atemp>
            <ns3:hr>96</ns3:hr>
          </ns3:TrackPointExtension>
        </extensions>
      </trkpt>
      <trkpt lat="36.8031278438866138458251953125" lon="-118.3986622653901576995849609375">
        <ele>3228.39990234375</ele>
        <time>2021-06-25T23:54:29.000Z</time>
        <extensions>
          <ns3:TrackPointExtension>
            <ns3:atemp>28.0</ns3:atemp>
            <ns3:hr>100</ns3:hr>
          </ns3:TrackPointExtension>
        </extensions>
      </trkpt>
      <trkpt lat="36.80313630960881710052490234375" lon="-118.39865111745893955230712890625">
        <ele>3228.39990234375</ele>
        <time>2021-06-25T23:54:30.000Z</time>
        <extensions>
          <ns3:TrackPointExtension>
            <ns3:atemp>28.0</ns3:atemp>
            <ns3:hr>97</ns3:hr>
          </ns3:TrackPointExtension>
        </extensions>
      </trkpt>
      <trkpt lat="36.80314217694103717803955078125" lon="-118.3986391313374042510986328125">
        <ele>3228</ele>
        <time>2021-06-25T23:54:31.000Z</time>
        <extensions>
          <ns3:TrackPointExtension>
            <ns3:atemp>28.0</ns3:atemp>
            <ns3:hr>97</ns3:hr>
          </ns3:TrackPointExtension>
        </extensions>
      </trkpt>
      <trkpt lat="36.80315843783318996429443359375" lon="-118.39861893095076084136962890625">
        <ele>3228</ele>
        <time>2021-06-25T23:54:33.000Z</time>
        <extensions>
          <ns3:TrackPointExtension>
            <ns3:atemp>28.0</ns3:atemp>
            <ns3:hr>100</ns3:hr>
          </ns3:TrackPointExtension>
        </extensions>
      </trkpt>
      <trkpt lat="36.8031657300889492034912109375" lon="-118.3986099623143672943115234375">
        <ele>3227.60009765625</ele>
        <time>2021-06-25T23:54:34.000Z</time>
        <extensions>
          <ns3:TrackPointExtension>
            <ns3:atemp>28.0</ns3:atemp>
            <ns3:hr>100</ns3:hr>
          </ns3:TrackPointExtension>
        </extensions>
      </trkpt>
      <trkpt lat="36.80317603982985019683837890625" lon="-118.3985938690602779388427734375">
        <ele>3227.60009765625</ele>
        <time>2021-06-25T23:54:36.000Z</time>
        <extensions>
          <ns3:TrackPointExtension>
            <ns3:atemp>28.0</ns3:atemp>
            <ns3:hr>103</ns3:hr>
          </ns3:TrackPointExtension>
        </extensions>
      </trkpt>
      <trkpt lat="36.803178302943706512451171875" lon="-118.39858188293874263763427734375">
        <ele>3227.60009765625</ele>
        <time>2021-06-25T23:54:37.000Z</time>
        <extensions>
          <ns3:TrackPointExtension>
            <ns3:atemp>28.0</ns3:atemp>
            <ns3:hr>103</ns3:hr>
          </ns3:TrackPointExtension>
        </extensions>
      </trkpt>
      <trkpt lat="36.80317922495305538177490234375" lon="-118.3985660411417484283447265625">
        <ele>3227.39990234375</ele>
        <time>2021-06-25T23:54:38.000Z</time>
        <extensions>
          <ns3:TrackPointExtension>
            <ns3:atemp>28.0</ns3:atemp>
            <ns3:hr>103</ns3:hr>
          </ns3:TrackPointExtension>
        </extensions>
      </trkpt>
      <trkpt lat="36.8031845055520534515380859375" lon="-118.39853360317647457122802734375">
        <ele>3227.199951171875</ele>
        <time>2021-06-25T23:54:40.000Z</time>
        <extensions>
          <ns3:TrackPointExtension>
            <ns3:atemp>28.0</ns3:atemp>
            <ns3:hr>101</ns3:hr>
          </ns3:TrackPointExtension>
        </extensions>
      </trkpt>
      <trkpt lat="36.803193390369415283203125" lon="-118.39852170087397098541259765625">
        <ele>3227.199951171875</ele>
        <time>2021-06-25T23:54:41.000Z</time>
        <extensions>
          <ns3:TrackPointExtension>
            <ns3:atemp>28.0</ns3:atemp>
            <ns3:hr>101</ns3:hr>
          </ns3:TrackPointExtension>
        </extensions>
      </trkpt>
      <trkpt lat="36.80327863432466983795166015625" lon="-118.39849823154509067535400390625">
        <ele>3226.800048828125</ele>
        <time>2021-06-25T23:54:47.000Z</time>
        <extensions>
          <ns3:TrackPointExtension>
            <ns3:atemp>28.0</ns3:atemp>
            <ns3:hr>99</ns3:hr>
          </ns3:TrackPointExtension>
        </extensions>
      </trkpt>
      <trkpt lat="36.803317777812480926513671875" lon="-118.39847425930202007293701171875">
        <ele>3226.800048828125</ele>
        <time>2021-06-25T23:54:50.000Z</time>
        <extensions>
          <ns3:TrackPointExtension>
            <ns3:atemp>28.0</ns3:atemp>
            <ns3:hr>95</ns3:hr>
          </ns3:TrackPointExtension>
        </extensions>
      </trkpt>
      <trkpt lat="36.80334015749394893646240234375" lon="-118.3984326012432575225830078125">
        <ele>3227.39990234375</ele>
        <time>2021-06-25T23:54:53.000Z</time>
        <extensions>
          <ns3:TrackPointExtension>
            <ns3:atemp>28.0</ns3:atemp>
            <ns3:hr>91</ns3:hr>
          </ns3:TrackPointExtension>
        </extensions>
      </trkpt>
      <trkpt lat="36.80334283970296382904052734375" lon="-118.3984181843698024749755859375">
        <ele>3227.39990234375</ele>
        <time>2021-06-25T23:54:54.000Z</time>
        <extensions>
          <ns3:TrackPointExtension>
            <ns3:atemp>27.0</ns3:atemp>
            <ns3:hr>94</ns3:hr>
          </ns3:TrackPointExtension>
        </extensions>
      </trkpt>
      <trkpt lat="36.80334560573101043701171875" lon="-118.39839245192706584930419921875">
        <ele>3227.60009765625</ele>
        <time>2021-06-25T23:54:56.000Z</time>
        <extensions>
          <ns3:TrackPointExtension>
            <ns3:atemp>28.0</ns3:atemp>
            <ns3:hr>94</ns3:hr>
          </ns3:TrackPointExtension>
        </extensions>
      </trkpt>
      <trkpt lat="36.803345270454883575439453125" lon="-118.398381806910037994384765625">
        <ele>3227.60009765625</ele>
        <time>2021-06-25T23:54:57.000Z</time>
        <extensions>
          <ns3:TrackPointExtension>
            <ns3:atemp>28.0</ns3:atemp>
            <ns3:hr>97</ns3:hr>
          </ns3:TrackPointExtension>
        </extensions>
      </trkpt>
      <trkpt lat="36.80335759185254573822021484375" lon="-118.39835037477314472198486328125">
        <ele>3228</ele>
        <time>2021-06-25T23:55:00.000Z</time>
        <extensions>
          <ns3:TrackPointExtension>
            <ns3:atemp>28.0</ns3:atemp>
            <ns3:hr>97</ns3:hr>
          </ns3:TrackPointExtension>
        </extensions>
      </trkpt>
      <trkpt lat="36.80336697958409786224365234375" lon="-118.39834115467965602874755859375">
        <ele>3228.199951171875</ele>
        <time>2021-06-25T23:55:01.000Z</time>
        <extensions>
          <ns3:TrackPointExtension>
            <ns3:atemp>28.0</ns3:atemp>
            <ns3:hr>97</ns3:hr>
          </ns3:TrackPointExtension>
        </extensions>
      </trkpt>
      <trkpt lat="36.8033739365637302398681640625" lon="-118.39833260513842105865478515625">
        <ele>3228.39990234375</ele>
        <time>2021-06-25T23:55:02.000Z</time>
        <extensions>
          <ns3:TrackPointExtension>
            <ns3:atemp>27.0</ns3:atemp>
            <ns3:hr>98</ns3:hr>
          </ns3:TrackPointExtension>
        </extensions>
      </trkpt>
      <trkpt lat="36.80339246056973934173583984375" lon="-118.398303352296352386474609375">
        <ele>3228.60009765625</ele>
        <time>2021-06-25T23:55:05.000Z</time>
        <extensions>
          <ns3:TrackPointExtension>
            <ns3:atemp>28.0</ns3:atemp>
            <ns3:hr>99</ns3:hr>
          </ns3:TrackPointExtension>
        </extensions>
      </trkpt>
      <trkpt lat="36.8033985793590545654296875" lon="-118.39828968979418277740478515625">
        <ele>3229.199951171875</ele>
        <time>2021-06-25T23:55:08.000Z</time>
        <extensions>
          <ns3:TrackPointExtension>
            <ns3:atemp>28.0</ns3:atemp>
            <ns3:hr>102</ns3:hr>
          </ns3:TrackPointExtension>
        </extensions>
      </trkpt>
      <trkpt lat="36.8033960647881031036376953125" lon="-118.39828432537615299224853515625">
        <ele>3229.39990234375</ele>
        <time>2021-06-25T23:55:09.000Z</time>
        <extensions>
          <ns3:TrackPointExtension>
            <ns3:atemp>28.0</ns3:atemp>
            <ns3:hr>102</ns3:hr>
          </ns3:TrackPointExtension>
        </extensions>
      </trkpt>
      <trkpt lat="36.80339480750262737274169921875" lon="-118.3982783742249011993408203125">
        <ele>3229.39990234375</ele>
        <time>2021-06-25T23:55:10.000Z</time>
        <extensions>
          <ns3:TrackPointExtension>
            <ns3:atemp>28.0</ns3:atemp>
            <ns3:hr>102</ns3:hr>
          </ns3:TrackPointExtension>
        </extensions>
      </trkpt>
      <trkpt lat="36.80339388549327850341796875" lon="-118.39827460236847400665283203125">
        <ele>3229.60009765625</ele>
        <time>2021-06-25T23:55:11.000Z</time>
        <extensions>
          <ns3:TrackPointExtension>
            <ns3:atemp>28.0</ns3:atemp>
            <ns3:hr>103</ns3:hr>
          </ns3:TrackPointExtension>
        </extensions>
      </trkpt>
      <trkpt lat="36.80339522659778594970703125" lon="-118.3982513844966888427734375">
        <ele>3229.60009765625</ele>
        <time>2021-06-25T23:55:14.000Z</time>
        <extensions>
          <ns3:TrackPointExtension>
            <ns3:atemp>28.0</ns3:atemp>
            <ns3:hr>106</ns3:hr>
          </ns3:TrackPointExtension>
        </extensions>
      </trkpt>
      <trkpt lat="36.80339832790195941925048828125" lon="-118.3982441760599613189697265625">
        <ele>3229.60009765625</ele>
        <time>2021-06-25T23:55:16.000Z</time>
        <extensions>
          <ns3:TrackPointExtension>
            <ns3:atemp>28.0</ns3:atemp>
            <ns3:hr>106</ns3:hr>
          </ns3:TrackPointExtension>
        </extensions>
      </trkpt>
      <trkpt lat="36.80339698679745197296142578125" lon="-118.398246355354785919189453125">
        <ele>3229.60009765625</ele>
        <time>2021-06-25T23:55:20.000Z</time>
        <extensions>
          <ns3:TrackPointExtension>
            <ns3:atemp>28.0</ns3:atemp>
            <ns3:hr>108</ns3:hr>
          </ns3:TrackPointExtension>
        </extensions>
      </trkpt>
      <trkpt lat="36.80341023020446300506591796875" lon="-118.398255743086338043212890625">
        <ele>3229.800048828125</ele>
        <time>2021-06-25T23:55:23.000Z</time>
        <extensions>
          <ns3:TrackPointExtension>
            <ns3:atemp>28.0</ns3:atemp>
            <ns3:hr>111</ns3:hr>
          </ns3:TrackPointExtension>
        </extensions>
      </trkpt>
      <trkpt lat="36.80342816747725009918212890625" lon="-118.39823353104293346405029296875">
        <ele>3230.39990234375</ele>
        <time>2021-06-25T23:55:26.000Z</time>
        <extensions>
          <ns3:TrackPointExtension>
            <ns3:atemp>28.0</ns3:atemp>
            <ns3:hr>114</ns3:hr>
          </ns3:TrackPointExtension>
        </extensions>
      </trkpt>
      <trkpt lat="36.80349555797874927520751953125" lon="-118.3981734327971935272216796875">
        <ele>3230.60009765625</ele>
        <time>2021-06-25T23:55:33.000Z</time>
        <extensions>
          <ns3:TrackPointExtension>
            <ns3:atemp>28.0</ns3:atemp>
            <ns3:hr>117</ns3:hr>
          </ns3:TrackPointExtension>
        </extensions>
      </trkpt>
      <trkpt lat="36.803590022027492523193359375" lon="-118.39814208447933197021484375">
        <ele>3231.199951171875</ele>
        <time>2021-06-25T23:55:41.000Z</time>
        <extensions>
          <ns3:TrackPointExtension>
            <ns3:atemp>28.0</ns3:atemp>
            <ns3:hr>118</ns3:hr>
          </ns3:TrackPointExtension>
        </extensions>
      </trkpt>
      <trkpt lat="36.80365682579576969146728515625" lon="-118.39810327626764774322509765625">
        <ele>3230.199951171875</ele>
        <time>2021-06-25T23:55:49.000Z</time>
        <extensions>
          <ns3:TrackPointExtension>
            <ns3:atemp>28.0</ns3:atemp>
            <ns3:hr>118</ns3:hr>
          </ns3:TrackPointExtension>
        </extensions>
      </trkpt>
      <trkpt lat="36.8036860786378383636474609375" lon="-118.398103527724742889404296875">
        <ele>3230</ele>
        <time>2021-06-25T23:55:51.000Z</time>
        <extensions>
          <ns3:TrackPointExtension>
            <ns3:atemp>28.0</ns3:atemp>
            <ns3:hr>119</ns3:hr>
          </ns3:TrackPointExtension>
        </extensions>
      </trkpt>
      <trkpt lat="36.80381943471729755401611328125" lon="-118.39812607504427433013916015625">
        <ele>3229.60009765625</ele>
        <time>2021-06-25T23:56:03.000Z</time>
        <extensions>
          <ns3:TrackPointExtension>
            <ns3:atemp>28.0</ns3:atemp>
            <ns3:hr>119</ns3:hr>
          </ns3:TrackPointExtension>
        </extensions>
      </trkpt>
      <trkpt lat="36.80383150465786457061767578125" lon="-118.39812942780554294586181640625">
        <ele>3229.60009765625</ele>
        <time>2021-06-25T23:56:04.000Z</time>
        <extensions>
          <ns3:TrackPointExtension>
            <ns3:atemp>28.0</ns3:atemp>
            <ns3:hr>116</ns3:hr>
          </ns3:TrackPointExtension>
        </extensions>
      </trkpt>
      <trkpt lat="36.803884394466876983642578125" lon="-118.398130349814891815185546875">
        <ele>3229.199951171875</ele>
        <time>2021-06-25T23:56:09.000Z</time>
        <extensions>
          <ns3:TrackPointExtension>
            <ns3:atemp>28.0</ns3:atemp>
            <ns3:hr>114</ns3:hr>
          </ns3:TrackPointExtension>
        </extensions>
      </trkpt>
      <trkpt lat="36.8039643578231334686279296875" lon="-118.398132026195526123046875">
        <ele>3229.199951171875</ele>
        <time>2021-06-25T23:56:15.000Z</time>
        <extensions>
          <ns3:TrackPointExtension>
            <ns3:atemp>28.0</ns3:atemp>
            <ns3:hr>113</ns3:hr>
          </ns3:TrackPointExtension>
        </extensions>
      </trkpt>
      <trkpt lat="36.80408480577170848846435546875" lon="-118.39814744889736175537109375">
        <ele>3229</ele>
        <time>2021-06-25T23:56:25.000Z</time>
        <extensions>
          <ns3:TrackPointExtension>
            <ns3:atemp>28.0</ns3:atemp>
            <ns3:hr>111</ns3:hr>
          </ns3:TrackPointExtension>
        </extensions>
      </trkpt>
      <trkpt lat="36.804110370576381683349609375" lon="-118.39815725572407245635986328125">
        <ele>3228</ele>
        <time>2021-06-25T23:56:29.000Z</time>
        <extensions>
          <ns3:TrackPointExtension>
            <ns3:atemp>28.0</ns3:atemp>
            <ns3:hr>110</ns3:hr>
          </ns3:TrackPointExtension>
        </extensions>
      </trkpt>
      <trkpt lat="36.80412218905985355377197265625" lon="-118.3981600217521190643310546875">
        <ele>3228</ele>
        <time>2021-06-25T23:56:30.000Z</time>
        <extensions>
          <ns3:TrackPointExtension>
            <ns3:atemp>28.0</ns3:atemp>
            <ns3:hr>110</ns3:hr>
          </ns3:TrackPointExtension>
        </extensions>
      </trkpt>
      <trkpt lat="36.804164014756679534912109375" lon="-118.398177959024906158447265625">
        <ele>3227.60009765625</ele>
        <time>2021-06-25T23:56:34.000Z</time>
        <extensions>
          <ns3:TrackPointExtension>
            <ns3:atemp>28.0</ns3:atemp>
            <ns3:hr>107</ns3:hr>
          </ns3:TrackPointExtension>
        </extensions>
      </trkpt>
      <trkpt lat="36.80418505333364009857177734375" lon="-118.39817888103425502777099609375">
        <ele>3227.39990234375</ele>
        <time>2021-06-25T23:56:36.000Z</time>
        <extensions>
          <ns3:TrackPointExtension>
            <ns3:atemp>28.0</ns3:atemp>
            <ns3:hr>104</ns3:hr>
          </ns3:TrackPointExtension>
        </extensions>
      </trkpt>
      <trkpt lat="36.804205588996410369873046875" lon="-118.39818407781422138214111328125">
        <ele>3227</ele>
        <time>2021-06-25T23:56:38.000Z</time>
        <extensions>
          <ns3:TrackPointExtension>
            <ns3:atemp>28.0</ns3:atemp>
            <ns3:hr>102</ns3:hr>
          </ns3:TrackPointExtension>
        </extensions>
      </trkpt>
      <trkpt lat="36.80421908386051654815673828125" lon="-118.3981855027377605438232421875">
        <ele>3227</ele>
        <time>2021-06-25T23:56:39.000Z</time>
        <extensions>
          <ns3:TrackPointExtension>
            <ns3:atemp>28.0</ns3:atemp>
            <ns3:hr>102</ns3:hr>
          </ns3:TrackPointExtension>
        </extensions>
      </trkpt>
      <trkpt lat="36.804271303117275238037109375" lon="-118.39819396845996379852294921875">
        <ele>3226</ele>
        <time>2021-06-25T23:56:43.000Z</time>
        <extensions>
          <ns3:TrackPointExtension>
            <ns3:atemp>28.0</ns3:atemp>
            <ns3:hr>102</ns3:hr>
          </ns3:TrackPointExtension>
        </extensions>
      </trkpt>
      <trkpt lat="36.804332323372364044189453125" lon="-118.3981714211404323577880859375">
        <ele>3226.199951171875</ele>
        <time>2021-06-25T23:56:48.000Z</time>
        <extensions>
          <ns3:TrackPointExtension>
            <ns3:atemp>28.0</ns3:atemp>
            <ns3:hr>102</ns3:hr>
          </ns3:TrackPointExtension>
        </extensions>
      </trkpt>
      <trkpt lat="36.80434145964682102203369140625" lon="-118.39816563762724399566650390625">
        <ele>3226.199951171875</ele>
        <time>2021-06-25T23:56:49.000Z</time>
        <extensions>
          <ns3:TrackPointExtension>
            <ns3:atemp>28.0</ns3:atemp>
            <ns3:hr>103</ns3:hr>
          </ns3:TrackPointExtension>
        </extensions>
      </trkpt>
      <trkpt lat="36.804391331970691680908203125" lon="-118.398131020367145538330078125">
        <ele>3226.60009765625</ele>
        <time>2021-06-25T23:56:54.000Z</time>
        <extensions>
          <ns3:TrackPointExtension>
            <ns3:atemp>28.0</ns3:atemp>
            <ns3:hr>105</ns3:hr>
          </ns3:TrackPointExtension>
        </extensions>
      </trkpt>
      <trkpt lat="36.80440365336835384368896484375" lon="-118.39812406338751316070556640625">
        <ele>3227</ele>
        <time>2021-06-25T23:56:55.000Z</time>
        <extensions>
          <ns3:TrackPointExtension>
            <ns3:atemp>28.0</ns3:atemp>
            <ns3:hr>104</ns3:hr>
          </ns3:TrackPointExtension>
        </extensions>
      </trkpt>
      <trkpt lat="36.8044662661850452423095703125" lon="-118.39808517135679721832275390625">
        <ele>3227.199951171875</ele>
        <time>2021-06-25T23:57:01.000Z</time>
        <extensions>
          <ns3:TrackPointExtension>
            <ns3:atemp>28.0</ns3:atemp>
            <ns3:hr>103</ns3:hr>
          </ns3:TrackPointExtension>
        </extensions>
      </trkpt>
      <trkpt lat="36.80451949127018451690673828125" lon="-118.39806019328534603118896484375">
        <ele>3228.199951171875</ele>
        <time>2021-06-25T23:57:07.000Z</time>
        <extensions>
          <ns3:TrackPointExtension>
            <ns3:atemp>28.0</ns3:atemp>
            <ns3:hr>104</ns3:hr>
          </ns3:TrackPointExtension>
        </extensions>
      </trkpt>
      <trkpt lat="36.80454564280807971954345703125" lon="-118.398042507469654083251953125">
        <ele>3229</ele>
        <time>2021-06-25T23:57:11.000Z</time>
        <extensions>
          <ns3:TrackPointExtension>
            <ns3:atemp>28.0</ns3:atemp>
            <ns3:hr>107</ns3:hr>
          </ns3:TrackPointExtension>
        </extensions>
      </trkpt>
      <trkpt lat="36.80455469526350498199462890625" lon="-118.3980356343090534210205078125">
        <ele>3229.39990234375</ele>
        <time>2021-06-25T23:57:12.000Z</time>
        <extensions>
          <ns3:TrackPointExtension>
            <ns3:atemp>28.0</ns3:atemp>
            <ns3:hr>108</ns3:hr>
          </ns3:TrackPointExtension>
        </extensions>
      </trkpt>
      <trkpt lat="36.8045822717249393463134765625" lon="-118.3980205468833446502685546875">
        <ele>3229.60009765625</ele>
        <time>2021-06-25T23:57:14.000Z</time>
        <extensions>
          <ns3:TrackPointExtension>
            <ns3:atemp>28.0</ns3:atemp>
            <ns3:hr>111</ns3:hr>
          </ns3:TrackPointExtension>
        </extensions>
      </trkpt>
      <trkpt lat="36.80461856536567211151123046875" lon="-118.39799749664962291717529296875">
        <ele>3230.39990234375</ele>
        <time>2021-06-25T23:57:18.000Z</time>
        <extensions>
          <ns3:TrackPointExtension>
            <ns3:atemp>28.0</ns3:atemp>
            <ns3:hr>111</ns3:hr>
          </ns3:TrackPointExtension>
        </extensions>
      </trkpt>
      <trkpt lat="36.8046308867633342742919921875" lon="-118.39799481444060802459716796875">
        <ele>3230.60009765625</ele>
        <time>2021-06-25T23:57:19.000Z</time>
        <extensions>
          <ns3:TrackPointExtension>
            <ns3:atemp>28.0</ns3:atemp>
            <ns3:hr>115</ns3:hr>
          </ns3:TrackPointExtension>
        </extensions>
      </trkpt>
      <trkpt lat="36.80465058423578739166259765625" lon="-118.3979885280132293701171875">
        <ele>3230.60009765625</ele>
        <time>2021-06-25T23:57:21.000Z</time>
        <extensions>
          <ns3:TrackPointExtension>
            <ns3:atemp>28.0</ns3:atemp>
            <ns3:hr>115</ns3:hr>
          </ns3:TrackPointExtension>
        </extensions>
      </trkpt>
      <trkpt lat="36.80472426116466522216796875" lon="-118.39797033928334712982177734375">
        <ele>3231</ele>
        <time>2021-06-25T23:57:28.000Z</time>
        <extensions>
          <ns3:TrackPointExtension>
            <ns3:atemp>28.0</ns3:atemp>
            <ns3:hr>118</ns3:hr>
          </ns3:TrackPointExtension>
        </extensions>
      </trkpt>
      <trkpt lat="36.8047660030424594879150390625" lon="-118.39794301427900791168212890625">
        <ele>3230.39990234375</ele>
        <time>2021-06-25T23:57:32.000Z</time>
        <extensions>
          <ns3:TrackPointExtension>
            <ns3:atemp>28.0</ns3:atemp>
            <ns3:hr>120</ns3:hr>
          </ns3:TrackPointExtension>
        </extensions>
      </trkpt>
      <trkpt lat="36.8047928251326084136962890625" lon="-118.397911079227924346923828125">
        <ele>3230</ele>
        <time>2021-06-25T23:57:35.000Z</time>
        <extensions>
          <ns3:TrackPointExtension>
            <ns3:atemp>28.0</ns3:atemp>
            <ns3:hr>123</ns3:hr>
          </ns3:TrackPointExtension>
        </extensions>
      </trkpt>
      <trkpt lat="36.80483431555330753326416015625" lon="-118.397871516644954681396484375">
        <ele>3229.60009765625</ele>
        <time>2021-06-25T23:57:39.000Z</time>
        <extensions>
          <ns3:TrackPointExtension>
            <ns3:atemp>28.0</ns3:atemp>
            <ns3:hr>126</ns3:hr>
          </ns3:TrackPointExtension>
        </extensions>
      </trkpt>
      <trkpt lat="36.8048551864922046661376953125" lon="-118.397863805294036865234375">
        <ele>3229.39990234375</ele>
        <time>2021-06-25T23:57:41.000Z</time>
        <extensions>
          <ns3:TrackPointExtension>
            <ns3:atemp>28.0</ns3:atemp>
            <ns3:hr>126</ns3:hr>
          </ns3:TrackPointExtension>
        </extensions>
      </trkpt>
      <trkpt lat="36.80486373603343963623046875" lon="-118.39786422438919544219970703125">
        <ele>3229.39990234375</ele>
        <time>2021-06-25T23:57:42.000Z</time>
        <extensions>
          <ns3:TrackPointExtension>
            <ns3:atemp>28.0</ns3:atemp>
            <ns3:hr>126</ns3:hr>
          </ns3:TrackPointExtension>
        </extensions>
      </trkpt>
      <trkpt lat="36.804893910884857177734375" lon="-118.39786020107567310333251953125">
        <ele>3229.39990234375</ele>
        <time>2021-06-25T23:57:45.000Z</time>
        <extensions>
          <ns3:TrackPointExtension>
            <ns3:atemp>28.0</ns3:atemp>
            <ns3:hr>121</ns3:hr>
          </ns3:TrackPointExtension>
        </extensions>
      </trkpt>
      <trkpt lat="36.80490992031991481781005859375" lon="-118.39786238037049770355224609375">
        <ele>3229.39990234375</ele>
        <time>2021-06-25T23:57:47.000Z</time>
        <extensions>
          <ns3:TrackPointExtension>
            <ns3:atemp>28.0</ns3:atemp>
            <ns3:hr>124</ns3:hr>
          </ns3:TrackPointExtension>
        </extensions>
      </trkpt>
      <trkpt lat="36.80496976710855960845947265625" lon="-118.39784746058285236358642578125">
        <ele>3229.60009765625</ele>
        <time>2021-06-25T23:57:52.000Z</time>
        <extensions>
          <ns3:TrackPointExtension>
            <ns3:atemp>28.0</ns3:atemp>
            <ns3:hr>124</ns3:hr>
          </ns3:TrackPointExtension>
        </extensions>
      </trkpt>
      <trkpt lat="36.8050737865269184112548828125" lon="-118.39781493879854679107666015625">
        <ele>3229.800048828125</ele>
        <time>2021-06-25T23:58:01.000Z</time>
        <extensions>
          <ns3:TrackPointExtension>
            <ns3:atemp>28.0</ns3:atemp>
            <ns3:hr>122</ns3:hr>
          </ns3:TrackPointExtension>
        </extensions>
      </trkpt>
      <trkpt lat="36.80513975210487842559814453125" lon="-118.397817872464656829833984375">
        <ele>3230</ele>
        <time>2021-06-25T23:58:07.000Z</time>
        <extensions>
          <ns3:TrackPointExtension>
            <ns3:atemp>28.0</ns3:atemp>
            <ns3:hr>119</ns3:hr>
          </ns3:TrackPointExtension>
        </extensions>
      </trkpt>
      <trkpt lat="36.8051666580140590667724609375" lon="-118.39783036150038242340087890625">
        <ele>3230.199951171875</ele>
        <time>2021-06-25T23:58:11.000Z</time>
        <extensions>
          <ns3:TrackPointExtension>
            <ns3:atemp>28.0</ns3:atemp>
            <ns3:hr>117</ns3:hr>
          </ns3:TrackPointExtension>
        </extensions>
      </trkpt>
      <trkpt lat="36.80516456253826618194580078125" lon="-118.3978301100432872772216796875">
        <ele>3230.199951171875</ele>
        <time>2021-06-25T23:58:12.000Z</time>
        <extensions>
          <ns3:TrackPointExtension>
            <ns3:atemp>28.0</ns3:atemp>
            <ns3:hr>117</ns3:hr>
          </ns3:TrackPointExtension>
        </extensions>
      </trkpt>
      <trkpt lat="36.805153749883174896240234375" lon="-118.39782617054879665374755859375">
        <ele>3229.800048828125</ele>
        <time>2021-06-25T23:58:17.000Z</time>
        <extensions>
          <ns3:TrackPointExtension>
            <ns3:atemp>28.0</ns3:atemp>
            <ns3:hr>114</ns3:hr>
          </ns3:TrackPointExtension>
        </extensions>
      </trkpt>
      <trkpt lat="36.80516053922474384307861328125" lon="-118.39781493879854679107666015625">
        <ele>3229.199951171875</ele>
        <time>2021-06-25T23:58:21.000Z</time>
        <extensions>
          <ns3:TrackPointExtension>
            <ns3:atemp>28.0</ns3:atemp>
            <ns3:hr>112</ns3:hr>
          </ns3:TrackPointExtension>
        </extensions>
      </trkpt>
      <trkpt lat="36.80517562665045261383056640625" lon="-118.397815525531768798828125">
        <ele>3229.199951171875</ele>
        <time>2021-06-25T23:58:25.000Z</time>
        <extensions>
          <ns3:TrackPointExtension>
            <ns3:atemp>28.0</ns3:atemp>
            <ns3:hr>109</ns3:hr>
          </ns3:TrackPointExtension>
        </extensions>
      </trkpt>
      <trkpt lat="36.8051964975893497467041015625" lon="-118.39781980030238628387451171875">
        <ele>3229.199951171875</ele>
        <time>2021-06-25T23:58:29.000Z</time>
        <extensions>
          <ns3:TrackPointExtension>
            <ns3:atemp>28.0</ns3:atemp>
            <ns3:hr>109</ns3:hr>
          </ns3:TrackPointExtension>
        </extensions>
      </trkpt>
      <trkpt lat="36.8052021972835063934326171875" lon="-118.39783170260488986968994140625">
        <ele>3229.199951171875</ele>
        <time>2021-06-25T23:58:35.000Z</time>
        <extensions>
          <ns3:TrackPointExtension>
            <ns3:atemp>29.0</ns3:atemp>
            <ns3:hr>108</ns3:hr>
          </ns3:TrackPointExtension>
        </extensions>
      </trkpt>
      <trkpt lat="36.8052037060260772705078125" lon="-118.39781912975013256072998046875">
        <ele>3229.199951171875</ele>
        <time>2021-06-25T23:58:41.000Z</time>
        <extensions>
          <ns3:TrackPointExtension>
            <ns3:atemp>29.0</ns3:atemp>
            <ns3:hr>108</ns3:hr>
          </ns3:TrackPointExtension>
        </extensions>
      </trkpt>
      <trkpt lat="36.8052037060260772705078125" lon="-118.39781912975013256072998046875">
        <ele>3229.199951171875</ele>
        <time>2021-06-25T23:58:51.000Z</time>
        <extensions>
          <ns3:TrackPointExtension>
            <ns3:atemp>29.0</ns3:atemp>
            <ns3:hr>105</ns3:hr>
          </ns3:TrackPointExtension>
        </extensions>
      </trkpt>
      <trkpt lat="36.8052037060260772705078125" lon="-118.39781912975013256072998046875">
        <ele>3229.199951171875</ele>
        <time>2021-06-25T23:58:55.000Z</time>
        <extensions>
          <ns3:TrackPointExtension>
            <ns3:atemp>29.0</ns3:atemp>
            <ns3:hr>102</ns3:hr>
          </ns3:TrackPointExtension>
        </extensions>
      </trkpt>
      <trkpt lat="36.80520378984510898590087890625" lon="-118.3978116698563098907470703125">
        <ele>3229.199951171875</ele>
        <time>2021-06-25T23:58:58.000Z</time>
        <extensions>
          <ns3:TrackPointExtension>
            <ns3:atemp>29.0</ns3:atemp>
            <ns3:hr>99</ns3:hr>
          </ns3:TrackPointExtension>
        </extensions>
      </trkpt>
      <trkpt lat="36.8052063882350921630859375" lon="-118.39780387468636035919189453125">
        <ele>3229.199951171875</ele>
        <time>2021-06-25T23:59:06.000Z</time>
        <extensions>
          <ns3:TrackPointExtension>
            <ns3:atemp>29.0</ns3:atemp>
            <ns3:hr>102</ns3:hr>
          </ns3:TrackPointExtension>
        </extensions>
      </trkpt>
      <trkpt lat="36.80520546622574329376220703125" lon="-118.397801779210567474365234375">
        <ele>3229.199951171875</ele>
        <time>2021-06-25T23:59:13.000Z</time>
        <extensions>
          <ns3:TrackPointExtension>
            <ns3:atemp>29.0</ns3:atemp>
            <ns3:hr>99</ns3:hr>
          </ns3:TrackPointExtension>
        </extensions>
      </trkpt>
      <trkpt lat="36.80519104935228824615478515625" lon="-118.397801779210567474365234375">
        <ele>3229.199951171875</ele>
        <time>2021-06-25T23:59:28.000Z</time>
        <extensions>
          <ns3:TrackPointExtension>
            <ns3:atemp>28.0</ns3:atemp>
            <ns3:hr>96</ns3:hr>
          </ns3:TrackPointExtension>
        </extensions>
      </trkpt>
      <trkpt lat="36.80518903769552707672119140625" lon="-118.3978032879531383514404296875">
        <ele>3229.199951171875</ele>
        <time>2021-06-25T23:59:32.000Z</time>
        <extensions>
          <ns3:TrackPointExtension>
            <ns3:atemp>28.0</ns3:atemp>
            <ns3:hr>93</ns3:hr>
          </ns3:TrackPointExtension>
        </extensions>
      </trkpt>
      <trkpt lat="36.8051874451339244842529296875" lon="-118.39780437760055065155029296875">
        <ele>3229.199951171875</ele>
        <time>2021-06-25T23:59:36.000Z</time>
        <extensions>
          <ns3:TrackPointExtension>
            <ns3:atemp>28.0</ns3:atemp>
            <ns3:hr>90</ns3:hr>
          </ns3:TrackPointExtension>
        </extensions>
      </trkpt>
      <trkpt lat="36.80518736131489276885986328125" lon="-118.39781711809337139129638671875">
        <ele>3229.199951171875</ele>
        <time>2021-06-25T23:59:52.000Z</time>
        <extensions>
          <ns3:TrackPointExtension>
            <ns3:atemp>28.0</ns3:atemp>
            <ns3:hr>92</ns3:hr>
          </ns3:TrackPointExtension>
        </extensions>
      </trkpt>
      <trkpt lat="36.80518249981105327606201171875" lon="-118.39782197959721088409423828125">
        <ele>3229.199951171875</ele>
        <time>2021-06-26T00:00:06.000Z</time>
        <extensions>
          <ns3:TrackPointExtension>
            <ns3:atemp>28.0</ns3:atemp>
            <ns3:hr>96</ns3:hr>
          </ns3:TrackPointExtension>
        </extensions>
      </trkpt>
      <trkpt lat="36.8051787279546260833740234375" lon="-118.39782332070171833038330078125">
        <ele>3229.199951171875</ele>
        <time>2021-06-26T00:00:11.000Z</time>
        <extensions>
          <ns3:TrackPointExtension>
            <ns3:atemp>28.0</ns3:atemp>
            <ns3:hr>93</ns3:hr>
          </ns3:TrackPointExtension>
        </extensions>
      </trkpt>
      <trkpt lat="36.80517680011689662933349609375" lon="-118.39782516472041606903076171875">
        <ele>3229.199951171875</ele>
        <time>2021-06-26T00:00:13.000Z</time>
        <extensions>
          <ns3:TrackPointExtension>
            <ns3:atemp>28.0</ns3:atemp>
            <ns3:hr>89</ns3:hr>
          </ns3:TrackPointExtension>
        </extensions>
      </trkpt>
      <trkpt lat="36.8051736988127231597900390625" lon="-118.39782826602458953857421875">
        <ele>3229.199951171875</ele>
        <time>2021-06-26T00:00:15.000Z</time>
        <extensions>
          <ns3:TrackPointExtension>
            <ns3:atemp>28.0</ns3:atemp>
            <ns3:hr>85</ns3:hr>
          </ns3:TrackPointExtension>
        </extensions>
      </trkpt>
      <trkpt lat="36.80517294444143772125244140625" lon="-118.39783304370939731597900390625">
        <ele>3229.199951171875</ele>
        <time>2021-06-26T00:00:17.000Z</time>
        <extensions>
          <ns3:TrackPointExtension>
            <ns3:atemp>28.0</ns3:atemp>
            <ns3:hr>82</ns3:hr>
          </ns3:TrackPointExtension>
        </extensions>
      </trkpt>
      <trkpt lat="36.80517277680337429046630859375" lon="-118.397847712039947509765625">
        <ele>3229.199951171875</ele>
        <time>2021-06-26T00:00:23.000Z</time>
        <extensions>
          <ns3:TrackPointExtension>
            <ns3:atemp>28.0</ns3:atemp>
            <ns3:hr>79</ns3:hr>
          </ns3:TrackPointExtension>
        </extensions>
      </trkpt>
      <trkpt lat="36.80524729192256927490234375" lon="-118.3978596143424510955810546875">
        <ele>3229.199951171875</ele>
        <time>2021-06-26T00:00:29.000Z</time>
        <extensions>
          <ns3:TrackPointExtension>
            <ns3:atemp>28.0</ns3:atemp>
            <ns3:hr>79</ns3:hr>
          </ns3:TrackPointExtension>
        </extensions>
      </trkpt>
      <trkpt lat="36.8053524009883403778076171875" lon="-118.39788015000522136688232421875">
        <ele>3229.199951171875</ele>
        <time>2021-06-26T00:00:35.000Z</time>
        <extensions>
          <ns3:TrackPointExtension>
            <ns3:atemp>28.0</ns3:atemp>
            <ns3:hr>82</ns3:hr>
          </ns3:TrackPointExtension>
        </extensions>
      </trkpt>
      <trkpt lat="36.8053765408694744110107421875" lon="-118.39788769371807575225830078125">
        <ele>3229.199951171875</ele>
        <time>2021-06-26T00:00:37.000Z</time>
        <extensions>
          <ns3:TrackPointExtension>
            <ns3:atemp>28.0</ns3:atemp>
            <ns3:hr>82</ns3:hr>
          </ns3:TrackPointExtension>
        </extensions>
      </trkpt>
      <trkpt lat="36.80541970767080783843994140625" lon="-118.39790529571473598480224609375">
        <ele>3229.39990234375</ele>
        <time>2021-06-26T00:00:40.000Z</time>
        <extensions>
          <ns3:TrackPointExtension>
            <ns3:atemp>28.0</ns3:atemp>
            <ns3:hr>85</ns3:hr>
          </ns3:TrackPointExtension>
        </extensions>
      </trkpt>
      <trkpt lat="36.80543228052556514739990234375" lon="-118.3979058824479579925537109375">
        <ele>3229.39990234375</ele>
        <time>2021-06-26T00:00:41.000Z</time>
        <extensions>
          <ns3:TrackPointExtension>
            <ns3:atemp>28.0</ns3:atemp>
            <ns3:hr>85</ns3:hr>
          </ns3:TrackPointExtension>
        </extensions>
      </trkpt>
      <trkpt lat="36.80548341013491153717041015625" lon="-118.39790202677249908447265625">
        <ele>3230</ele>
        <time>2021-06-26T00:00:45.000Z</time>
        <extensions>
          <ns3:TrackPointExtension>
            <ns3:atemp>28.0</ns3:atemp>
            <ns3:hr>89</ns3:hr>
          </ns3:TrackPointExtension>
        </extensions>
      </trkpt>
      <trkpt lat="36.805493719875812530517578125" lon="-118.39790060184895992279052734375">
        <ele>3230.60009765625</ele>
        <time>2021-06-26T00:00:46.000Z</time>
        <extensions>
          <ns3:TrackPointExtension>
            <ns3:atemp>28.0</ns3:atemp>
            <ns3:hr>90</ns3:hr>
          </ns3:TrackPointExtension>
        </extensions>
      </trkpt>
      <trkpt lat="36.80550880730152130126953125" lon="-118.397890627384185791015625">
        <ele>3231</ele>
        <time>2021-06-26T00:00:48.000Z</time>
        <extensions>
          <ns3:TrackPointExtension>
            <ns3:atemp>28.0</ns3:atemp>
            <ns3:hr>94</ns3:hr>
          </ns3:TrackPointExtension>
        </extensions>
      </trkpt>
      <trkpt lat="36.80553101934492588043212890625" lon="-118.3978839218616485595703125">
        <ele>3231.199951171875</ele>
        <time>2021-06-26T00:00:50.000Z</time>
        <extensions>
          <ns3:TrackPointExtension>
            <ns3:atemp>28.0</ns3:atemp>
            <ns3:hr>97</ns3:hr>
          </ns3:TrackPointExtension>
        </extensions>
      </trkpt>
      <trkpt lat="36.805550046265125274658203125" lon="-118.39786975644528865814208984375">
        <ele>3231.800048828125</ele>
        <time>2021-06-26T00:00:52.000Z</time>
        <extensions>
          <ns3:TrackPointExtension>
            <ns3:atemp>28.0</ns3:atemp>
            <ns3:hr>101</ns3:hr>
          </ns3:TrackPointExtension>
        </extensions>
      </trkpt>
      <trkpt lat="36.80555985309183597564697265625" lon="-118.39786506257951259613037109375">
        <ele>3232.39990234375</ele>
        <time>2021-06-26T00:00:53.000Z</time>
        <extensions>
          <ns3:TrackPointExtension>
            <ns3:atemp>28.0</ns3:atemp>
            <ns3:hr>101</ns3:hr>
          </ns3:TrackPointExtension>
        </extensions>
      </trkpt>
      <trkpt lat="36.80557494051754474639892578125" lon="-118.39783136732876300811767578125">
        <ele>3232.60009765625</ele>
        <time>2021-06-26T00:00:56.000Z</time>
        <extensions>
          <ns3:TrackPointExtension>
            <ns3:atemp>28.0</ns3:atemp>
            <ns3:hr>105</ns3:hr>
          </ns3:TrackPointExtension>
        </extensions>
      </trkpt>
      <trkpt lat="36.80559807457029819488525390625" lon="-118.39781611226499080657958984375">
        <ele>3232.60009765625</ele>
        <time>2021-06-26T00:00:58.000Z</time>
        <extensions>
          <ns3:TrackPointExtension>
            <ns3:atemp>28.0</ns3:atemp>
            <ns3:hr>108</ns3:hr>
          </ns3:TrackPointExtension>
        </extensions>
      </trkpt>
      <trkpt lat="36.8056140840053558349609375" lon="-118.3978143520653247833251953125">
        <ele>3232.800048828125</ele>
        <time>2021-06-26T00:00:59.000Z</time>
        <extensions>
          <ns3:TrackPointExtension>
            <ns3:atemp>28.0</ns3:atemp>
            <ns3:hr>109</ns3:hr>
          </ns3:TrackPointExtension>
        </extensions>
      </trkpt>
      <trkpt lat="36.8056261539459228515625" lon="-118.39781376533210277557373046875">
        <ele>3233</ele>
        <time>2021-06-26T00:01:00.000Z</time>
        <extensions>
          <ns3:TrackPointExtension>
            <ns3:atemp>28.0</ns3:atemp>
            <ns3:hr>111</ns3:hr>
          </ns3:TrackPointExtension>
        </extensions>
      </trkpt>
      <trkpt lat="36.8056715838611125946044921875" lon="-118.3978260867297649383544921875">
        <ele>3233.39990234375</ele>
        <time>2021-06-26T00:01:04.000Z</time>
        <extensions>
          <ns3:TrackPointExtension>
            <ns3:atemp>28.0</ns3:atemp>
            <ns3:hr>114</ns3:hr>
          </ns3:TrackPointExtension>
        </extensions>
      </trkpt>
      <trkpt lat="36.80571206845343112945556640625" lon="-118.39781627990305423736572265625">
        <ele>3233.800048828125</ele>
        <time>2021-06-26T00:01:08.000Z</time>
        <extensions>
          <ns3:TrackPointExtension>
            <ns3:atemp>28.0</ns3:atemp>
            <ns3:hr>116</ns3:hr>
          </ns3:TrackPointExtension>
        </extensions>
      </trkpt>
      <trkpt lat="36.80573469959199428558349609375" lon="-118.3977992646396160125732421875">
        <ele>3234</ele>
        <time>2021-06-26T00:01:10.000Z</time>
        <extensions>
          <ns3:TrackPointExtension>
            <ns3:atemp>28.0</ns3:atemp>
            <ns3:hr>116</ns3:hr>
          </ns3:TrackPointExtension>
        </extensions>
      </trkpt>
      <trkpt lat="36.80578666739165782928466796875" lon="-118.39777118526399135589599609375">
        <ele>3234.60009765625</ele>
        <time>2021-06-26T00:01:14.000Z</time>
        <extensions>
          <ns3:TrackPointExtension>
            <ns3:atemp>28.0</ns3:atemp>
            <ns3:hr>119</ns3:hr>
          </ns3:TrackPointExtension>
        </extensions>
      </trkpt>
      <trkpt lat="36.8058080412447452545166015625" lon="-118.3977674134075641632080078125">
        <ele>3234.800048828125</ele>
        <time>2021-06-26T00:01:16.000Z</time>
        <extensions>
          <ns3:TrackPointExtension>
            <ns3:atemp>28.0</ns3:atemp>
            <ns3:hr>120</ns3:hr>
          </ns3:TrackPointExtension>
        </extensions>
      </trkpt>
      <trkpt lat="36.805851794779300689697265625" lon="-118.3977506496012210845947265625">
        <ele>3235</ele>
        <time>2021-06-26T00:01:20.000Z</time>
        <extensions>
          <ns3:TrackPointExtension>
            <ns3:atemp>28.0</ns3:atemp>
            <ns3:hr>121</ns3:hr>
          </ns3:TrackPointExtension>
        </extensions>
      </trkpt>
      <trkpt lat="36.8058915250003337860107421875" lon="-118.397740423679351806640625">
        <ele>3235</ele>
        <time>2021-06-26T00:01:23.000Z</time>
        <extensions>
          <ns3:TrackPointExtension>
            <ns3:atemp>28.0</ns3:atemp>
            <ns3:hr>125</ns3:hr>
          </ns3:TrackPointExtension>
        </extensions>
      </trkpt>
      <trkpt lat="36.805938296020030975341796875" lon="-118.39773413725197315216064453125">
        <ele>3234.800048828125</ele>
        <time>2021-06-26T00:01:26.000Z</time>
        <extensions>
          <ns3:TrackPointExtension>
            <ns3:atemp>28.0</ns3:atemp>
            <ns3:hr>121</ns3:hr>
          </ns3:TrackPointExtension>
        </extensions>
      </trkpt>
      <trkpt lat="36.8060558103024959564208984375" lon="-118.3977496437728404998779296875">
        <ele>3234.199951171875</ele>
        <time>2021-06-26T00:01:35.000Z</time>
        <extensions>
          <ns3:TrackPointExtension>
            <ns3:atemp>28.0</ns3:atemp>
            <ns3:hr>124</ns3:hr>
          </ns3:TrackPointExtension>
        </extensions>
      </trkpt>
      <trkpt lat="36.80607634596526622772216796875" lon="-118.39775056578218936920166015625">
        <ele>3234.60009765625</ele>
        <time>2021-06-26T00:01:37.000Z</time>
        <extensions>
          <ns3:TrackPointExtension>
            <ns3:atemp>28.0</ns3:atemp>
            <ns3:hr>118</ns3:hr>
          </ns3:TrackPointExtension>
        </extensions>
      </trkpt>
      <trkpt lat="36.80612395517528057098388671875" lon="-118.39777193963527679443359375">
        <ele>3234.60009765625</ele>
        <time>2021-06-26T00:01:41.000Z</time>
        <extensions>
          <ns3:TrackPointExtension>
            <ns3:atemp>28.0</ns3:atemp>
            <ns3:hr>115</ns3:hr>
          </ns3:TrackPointExtension>
        </extensions>
      </trkpt>
      <trkpt lat="36.80618296377360820770263671875" lon="-118.39781728573143482208251953125">
        <ele>3234.60009765625</ele>
        <time>2021-06-26T00:01:47.000Z</time>
        <extensions>
          <ns3:TrackPointExtension>
            <ns3:atemp>28.0</ns3:atemp>
            <ns3:hr>112</ns3:hr>
          </ns3:TrackPointExtension>
        </extensions>
      </trkpt>
      <trkpt lat="36.80620106868445873260498046875" lon="-118.39782885275781154632568359375">
        <ele>3234.60009765625</ele>
        <time>2021-06-26T00:01:49.000Z</time>
        <extensions>
          <ns3:TrackPointExtension>
            <ns3:atemp>28.0</ns3:atemp>
            <ns3:hr>115</ns3:hr>
          </ns3:TrackPointExtension>
        </extensions>
      </trkpt>
      <trkpt lat="36.80622152052819728851318359375" lon="-118.3978383243083953857421875">
        <ele>3234.60009765625</ele>
        <time>2021-06-26T00:01:51.000Z</time>
        <extensions>
          <ns3:TrackPointExtension>
            <ns3:atemp>29.0</ns3:atemp>
            <ns3:hr>118</ns3:hr>
          </ns3:TrackPointExtension>
        </extensions>
      </trkpt>
      <trkpt lat="36.8062415532767772674560546875" lon="-118.3978495560586452484130859375">
        <ele>3234.39990234375</ele>
        <time>2021-06-26T00:01:53.000Z</time>
        <extensions>
          <ns3:TrackPointExtension>
            <ns3:atemp>29.0</ns3:atemp>
            <ns3:hr>121</ns3:hr>
          </ns3:TrackPointExtension>
        </extensions>
      </trkpt>
      <trkpt lat="36.80626451969146728515625" lon="-118.39786070398986339569091796875">
        <ele>3234.39990234375</ele>
        <time>2021-06-26T00:01:55.000Z</time>
        <extensions>
          <ns3:TrackPointExtension>
            <ns3:atemp>29.0</ns3:atemp>
            <ns3:hr>124</ns3:hr>
          </ns3:TrackPointExtension>
        </extensions>
      </trkpt>
      <trkpt lat="36.8062757514417171478271484375" lon="-118.39786489494144916534423828125">
        <ele>3234.39990234375</ele>
        <time>2021-06-26T00:01:56.000Z</time>
        <extensions>
          <ns3:TrackPointExtension>
            <ns3:atemp>29.0</ns3:atemp>
            <ns3:hr>124</ns3:hr>
          </ns3:TrackPointExtension>
        </extensions>
      </trkpt>
      <trkpt lat="36.8063414655625820159912109375" lon="-118.39791937731206417083740234375">
        <ele>3234.199951171875</ele>
        <time>2021-06-26T00:02:02.000Z</time>
        <extensions>
          <ns3:TrackPointExtension>
            <ns3:atemp>29.0</ns3:atemp>
            <ns3:hr>125</ns3:hr>
          </ns3:TrackPointExtension>
        </extensions>
      </trkpt>
      <trkpt lat="36.80635579861700534820556640625" lon="-118.39795441366732120513916015625">
        <ele>3234.199951171875</ele>
        <time>2021-06-26T00:02:04.000Z</time>
        <extensions>
          <ns3:TrackPointExtension>
            <ns3:atemp>29.0</ns3:atemp>
            <ns3:hr>125</ns3:hr>
          </ns3:TrackPointExtension>
        </extensions>
      </trkpt>
      <trkpt lat="36.8063813634216785430908203125" lon="-118.3979863487184047698974609375">
        <ele>3234.199951171875</ele>
        <time>2021-06-26T00:02:07.000Z</time>
        <extensions>
          <ns3:TrackPointExtension>
            <ns3:atemp>29.0</ns3:atemp>
            <ns3:hr>128</ns3:hr>
          </ns3:TrackPointExtension>
        </extensions>
      </trkpt>
      <trkpt lat="36.8064521066844463348388671875" lon="-118.398035466670989990234375">
        <ele>3234.199951171875</ele>
        <time>2021-06-26T00:02:13.000Z</time>
        <extensions>
          <ns3:TrackPointExtension>
            <ns3:atemp>29.0</ns3:atemp>
            <ns3:hr>127</ns3:hr>
          </ns3:TrackPointExtension>
        </extensions>
      </trkpt>
      <trkpt lat="36.80649979971349239349365234375" lon="-118.3980530686676502227783203125">
        <ele>3234.199951171875</ele>
        <time>2021-06-26T00:02:17.000Z</time>
        <extensions>
          <ns3:TrackPointExtension>
            <ns3:atemp>29.0</ns3:atemp>
            <ns3:hr>124</ns3:hr>
          </ns3:TrackPointExtension>
        </extensions>
      </trkpt>
      <trkpt lat="36.8065597303211688995361328125" lon="-118.398057259619235992431640625">
        <ele>3235</ele>
        <time>2021-06-26T00:02:22.000Z</time>
        <extensions>
          <ns3:TrackPointExtension>
            <ns3:atemp>29.0</ns3:atemp>
            <ns3:hr>121</ns3:hr>
          </ns3:TrackPointExtension>
        </extensions>
      </trkpt>
      <trkpt lat="36.8065989576280117034912109375" lon="-118.39805332012474536895751953125">
        <ele>3235.39990234375</ele>
        <time>2021-06-26T00:02:25.000Z</time>
        <extensions>
          <ns3:TrackPointExtension>
            <ns3:atemp>29.0</ns3:atemp>
            <ns3:hr>121</ns3:hr>
          </ns3:TrackPointExtension>
        </extensions>
      </trkpt>
      <trkpt lat="36.8066609837114810943603515625" lon="-118.39807645417749881744384765625">
        <ele>3235.800048828125</ele>
        <time>2021-06-26T00:02:31.000Z</time>
        <extensions>
          <ns3:TrackPointExtension>
            <ns3:atemp>29.0</ns3:atemp>
            <ns3:hr>118</ns3:hr>
          </ns3:TrackPointExtension>
        </extensions>
      </trkpt>
      <trkpt lat="36.80667565204203128814697265625" lon="-118.39809606783092021942138671875">
        <ele>3235.800048828125</ele>
        <time>2021-06-26T00:02:33.000Z</time>
        <extensions>
          <ns3:TrackPointExtension>
            <ns3:atemp>29.0</ns3:atemp>
            <ns3:hr>116</ns3:hr>
          </ns3:TrackPointExtension>
        </extensions>
      </trkpt>
      <trkpt lat="36.8066968582570552825927734375" lon="-118.39813697151839733123779296875">
        <ele>3236.199951171875</ele>
        <time>2021-06-26T00:02:38.000Z</time>
        <extensions>
          <ns3:TrackPointExtension>
            <ns3:atemp>29.0</ns3:atemp>
            <ns3:hr>114</ns3:hr>
          </ns3:TrackPointExtension>
        </extensions>
      </trkpt>
      <trkpt lat="36.806712113320827484130859375" lon="-118.39821659959852695465087890625">
        <ele>3236.199951171875</ele>
        <time>2021-06-26T00:02:43.000Z</time>
        <extensions>
          <ns3:TrackPointExtension>
            <ns3:atemp>29.0</ns3:atemp>
            <ns3:hr>113</ns3:hr>
          </ns3:TrackPointExtension>
        </extensions>
      </trkpt>
      <trkpt lat="36.80670985020697116851806640625" lon="-118.39829069562256336212158203125">
        <ele>3237.39990234375</ele>
        <time>2021-06-26T00:02:50.000Z</time>
        <extensions>
          <ns3:TrackPointExtension>
            <ns3:atemp>29.0</ns3:atemp>
            <ns3:hr>111</ns3:hr>
          </ns3:TrackPointExtension>
        </extensions>
      </trkpt>
      <trkpt lat="36.80670532397925853729248046875" lon="-118.398301340639591217041015625">
        <ele>3237.60009765625</ele>
        <time>2021-06-26T00:02:51.000Z</time>
        <extensions>
          <ns3:TrackPointExtension>
            <ns3:atemp>29.0</ns3:atemp>
            <ns3:hr>113</ns3:hr>
          </ns3:TrackPointExtension>
        </extensions>
      </trkpt>
      <trkpt lat="36.80670440196990966796875" lon="-118.39834819547832012176513671875">
        <ele>3237.60009765625</ele>
        <time>2021-06-26T00:02:55.000Z</time>
        <extensions>
          <ns3:TrackPointExtension>
            <ns3:atemp>29.0</ns3:atemp>
            <ns3:hr>115</ns3:hr>
          </ns3:TrackPointExtension>
        </extensions>
      </trkpt>
      <trkpt lat="36.806723177433013916015625" lon="-118.3983829803764820098876953125">
        <ele>3237</ele>
        <time>2021-06-26T00:02:58.000Z</time>
        <extensions>
          <ns3:TrackPointExtension>
            <ns3:atemp>29.0</ns3:atemp>
            <ns3:hr>115</ns3:hr>
          </ns3:TrackPointExtension>
        </extensions>
      </trkpt>
      <trkpt lat="36.80672250688076019287109375" lon="-118.39839647524058818817138671875">
        <ele>3236.800048828125</ele>
        <time>2021-06-26T00:02:59.000Z</time>
        <extensions>
          <ns3:TrackPointExtension>
            <ns3:atemp>29.0</ns3:atemp>
            <ns3:hr>111</ns3:hr>
          </ns3:TrackPointExtension>
        </extensions>
      </trkpt>
      <trkpt lat="36.80671320296823978424072265625" lon="-118.39842547662556171417236328125">
        <ele>3236.800048828125</ele>
        <time>2021-06-26T00:03:01.000Z</time>
        <extensions>
          <ns3:TrackPointExtension>
            <ns3:atemp>29.0</ns3:atemp>
            <ns3:hr>114</ns3:hr>
          </ns3:TrackPointExtension>
        </extensions>
      </trkpt>
      <trkpt lat="36.80670783855020999908447265625" lon="-118.39847677387297153472900390625">
        <ele>3236.39990234375</ele>
        <time>2021-06-26T00:03:05.000Z</time>
        <extensions>
          <ns3:TrackPointExtension>
            <ns3:atemp>29.0</ns3:atemp>
            <ns3:hr>115</ns3:hr>
          </ns3:TrackPointExtension>
        </extensions>
      </trkpt>
      <trkpt lat="36.80666618049144744873046875" lon="-118.398511894047260284423828125">
        <ele>3235.39990234375</ele>
        <time>2021-06-26T00:03:10.000Z</time>
        <extensions>
          <ns3:TrackPointExtension>
            <ns3:atemp>29.0</ns3:atemp>
            <ns3:hr>113</ns3:hr>
          </ns3:TrackPointExtension>
        </extensions>
      </trkpt>
      <trkpt lat="36.80664966814219951629638671875" lon="-118.3985392190515995025634765625">
        <ele>3235.60009765625</ele>
        <time>2021-06-26T00:03:12.000Z</time>
        <extensions>
          <ns3:TrackPointExtension>
            <ns3:atemp>29.0</ns3:atemp>
            <ns3:hr>114</ns3:hr>
          </ns3:TrackPointExtension>
        </extensions>
      </trkpt>
      <trkpt lat="36.8066217564046382904052734375" lon="-118.39858573861420154571533203125">
        <ele>3235.199951171875</ele>
        <time>2021-06-26T00:03:19.000Z</time>
        <extensions>
          <ns3:TrackPointExtension>
            <ns3:atemp>29.0</ns3:atemp>
            <ns3:hr>112</ns3:hr>
          </ns3:TrackPointExtension>
        </extensions>
      </trkpt>
      <trkpt lat="36.80660893209278583526611328125" lon="-118.39864240027964115142822265625">
        <ele>3234.39990234375</ele>
        <time>2021-06-26T00:03:25.000Z</time>
        <extensions>
          <ns3:TrackPointExtension>
            <ns3:atemp>29.0</ns3:atemp>
            <ns3:hr>111</ns3:hr>
          </ns3:TrackPointExtension>
        </extensions>
      </trkpt>
      <trkpt lat="36.8066070042550563812255859375" lon="-118.39865715242922306060791015625">
        <ele>3234.199951171875</ele>
        <time>2021-06-26T00:03:26.000Z</time>
        <extensions>
          <ns3:TrackPointExtension>
            <ns3:atemp>29.0</ns3:atemp>
            <ns3:hr>110</ns3:hr>
          </ns3:TrackPointExtension>
        </extensions>
      </trkpt>
      <trkpt lat="36.80660448968410491943359375" lon="-118.3986778557300567626953125">
        <ele>3234</ele>
        <time>2021-06-26T00:03:28.000Z</time>
        <extensions>
          <ns3:TrackPointExtension>
            <ns3:atemp>29.0</ns3:atemp>
            <ns3:hr>108</ns3:hr>
          </ns3:TrackPointExtension>
        </extensions>
      </trkpt>
      <trkpt lat="36.806601472198963165283203125" lon="-118.39871666394174098968505859375">
        <ele>3233.39990234375</ele>
        <time>2021-06-26T00:03:31.000Z</time>
        <extensions>
          <ns3:TrackPointExtension>
            <ns3:atemp>29.0</ns3:atemp>
            <ns3:hr>105</ns3:hr>
          </ns3:TrackPointExtension>
        </extensions>
      </trkpt>
      <trkpt lat="36.806612201035022735595703125" lon="-118.3988074399530887603759765625">
        <ele>3233.39990234375</ele>
        <time>2021-06-26T00:03:37.000Z</time>
        <extensions>
          <ns3:TrackPointExtension>
            <ns3:atemp>29.0</ns3:atemp>
            <ns3:hr>102</ns3:hr>
          </ns3:TrackPointExtension>
        </extensions>
      </trkpt>
      <trkpt lat="36.80662821047008037567138671875" lon="-118.39883082546293735504150390625">
        <ele>3233.199951171875</ele>
        <time>2021-06-26T00:03:39.000Z</time>
        <extensions>
          <ns3:TrackPointExtension>
            <ns3:atemp>29.0</ns3:atemp>
            <ns3:hr>101</ns3:hr>
          </ns3:TrackPointExtension>
        </extensions>
      </trkpt>
      <trkpt lat="36.8066398613154888153076171875" lon="-118.3988577313721179962158203125">
        <ele>3233</ele>
        <time>2021-06-26T00:03:42.000Z</time>
        <extensions>
          <ns3:TrackPointExtension>
            <ns3:atemp>29.0</ns3:atemp>
            <ns3:hr>98</ns3:hr>
          </ns3:TrackPointExtension>
        </extensions>
      </trkpt>
      <trkpt lat="36.80664598010480403900146484375" lon="-118.3988785184919834136962890625">
        <ele>3232.800048828125</ele>
        <time>2021-06-26T00:03:44.000Z</time>
        <extensions>
          <ns3:TrackPointExtension>
            <ns3:atemp>29.0</ns3:atemp>
            <ns3:hr>98</ns3:hr>
          </ns3:TrackPointExtension>
        </extensions>
      </trkpt>
      <trkpt lat="36.80667112581431865692138671875" lon="-118.39890140108764171600341796875">
        <ele>3232</ele>
        <time>2021-06-26T00:03:47.000Z</time>
        <extensions>
          <ns3:TrackPointExtension>
            <ns3:atemp>29.0</ns3:atemp>
            <ns3:hr>100</ns3:hr>
          </ns3:TrackPointExtension>
        </extensions>
      </trkpt>
      <trkpt lat="36.806701719760894775390625" lon="-118.39895018376410007476806640625">
        <ele>3231.199951171875</ele>
        <time>2021-06-26T00:03:52.000Z</time>
        <extensions>
          <ns3:TrackPointExtension>
            <ns3:atemp>29.0</ns3:atemp>
            <ns3:hr>101</ns3:hr>
          </ns3:TrackPointExtension>
        </extensions>
      </trkpt>
      <trkpt lat="36.806704737246036529541015625" lon="-118.39896175079047679901123046875">
        <ele>3231.199951171875</ele>
        <time>2021-06-26T00:03:53.000Z</time>
        <extensions>
          <ns3:TrackPointExtension>
            <ns3:atemp>29.0</ns3:atemp>
            <ns3:hr>104</ns3:hr>
          </ns3:TrackPointExtension>
        </extensions>
      </trkpt>
      <trkpt lat="36.80670565925538539886474609375" lon="-118.39896677993237972259521484375">
        <ele>3231</ele>
        <time>2021-06-26T00:03:54.000Z</time>
        <extensions>
          <ns3:TrackPointExtension>
            <ns3:atemp>29.0</ns3:atemp>
            <ns3:hr>102</ns3:hr>
          </ns3:TrackPointExtension>
        </extensions>
      </trkpt>
      <trkpt lat="36.80672074668109416961669921875" lon="-118.39902545325458049774169921875">
        <ele>3230.60009765625</ele>
        <time>2021-06-26T00:04:00.000Z</time>
        <extensions>
          <ns3:TrackPointExtension>
            <ns3:atemp>29.0</ns3:atemp>
            <ns3:hr>105</ns3:hr>
          </ns3:TrackPointExtension>
        </extensions>
      </trkpt>
      <trkpt lat="36.80670817382633686065673828125" lon="-118.39905126951634883880615234375">
        <ele>3230</ele>
        <time>2021-06-26T00:04:03.000Z</time>
        <extensions>
          <ns3:TrackPointExtension>
            <ns3:atemp>29.0</ns3:atemp>
            <ns3:hr>104</ns3:hr>
          </ns3:TrackPointExtension>
        </extensions>
      </trkpt>
      <trkpt lat="36.80669291876256465911865234375" lon="-118.39907960034906864166259765625">
        <ele>3229.800048828125</ele>
        <time>2021-06-26T00:04:07.000Z</time>
        <extensions>
          <ns3:TrackPointExtension>
            <ns3:atemp>29.0</ns3:atemp>
            <ns3:hr>102</ns3:hr>
          </ns3:TrackPointExtension>
        </extensions>
      </trkpt>
      <trkpt lat="36.80667917244136333465576171875" lon="-118.39911078102886676788330078125">
        <ele>3229</ele>
        <time>2021-06-26T00:04:11.000Z</time>
        <extensions>
          <ns3:TrackPointExtension>
            <ns3:atemp>29.0</ns3:atemp>
            <ns3:hr>100</ns3:hr>
          </ns3:TrackPointExtension>
        </extensions>
      </trkpt>
      <trkpt lat="36.806676574051380157470703125" lon="-118.399126119911670684814453125">
        <ele>3228.60009765625</ele>
        <time>2021-06-26T00:04:14.000Z</time>
        <extensions>
          <ns3:TrackPointExtension>
            <ns3:atemp>29.0</ns3:atemp>
            <ns3:hr>98</ns3:hr>
          </ns3:TrackPointExtension>
        </extensions>
      </trkpt>
      <trkpt lat="36.8066284619271755218505859375" lon="-118.39918085373938083648681640625">
        <ele>3228.60009765625</ele>
        <time>2021-06-26T00:04:21.000Z</time>
        <extensions>
          <ns3:TrackPointExtension>
            <ns3:atemp>29.0</ns3:atemp>
            <ns3:hr>96</ns3:hr>
          </ns3:TrackPointExtension>
        </extensions>
      </trkpt>
      <trkpt lat="36.80657607503235340118408203125" lon="-118.39921337552368640899658203125">
        <ele>3228.39990234375</ele>
        <time>2021-06-26T00:04:30.000Z</time>
        <extensions>
          <ns3:TrackPointExtension>
            <ns3:atemp>29.0</ns3:atemp>
            <ns3:hr>93</ns3:hr>
          </ns3:TrackPointExtension>
        </extensions>
      </trkpt>
      <trkpt lat="36.8065610714256763458251953125" lon="-118.39922125451266765594482421875">
        <ele>3228.39990234375</ele>
        <time>2021-06-26T00:04:32.000Z</time>
        <extensions>
          <ns3:TrackPointExtension>
            <ns3:atemp>29.0</ns3:atemp>
            <ns3:hr>93</ns3:hr>
          </ns3:TrackPointExtension>
        </extensions>
      </trkpt>
      <trkpt lat="36.8065308965742588043212890625" lon="-118.3992453105747699737548828125">
        <ele>3227.800048828125</ele>
        <time>2021-06-26T00:04:36.000Z</time>
        <extensions>
          <ns3:TrackPointExtension>
            <ns3:atemp>29.0</ns3:atemp>
            <ns3:hr>94</ns3:hr>
          </ns3:TrackPointExtension>
        </extensions>
      </trkpt>
      <trkpt lat="36.80649694986641407012939453125" lon="-118.39927238412201404571533203125">
        <ele>3227.199951171875</ele>
        <time>2021-06-26T00:04:40.000Z</time>
        <extensions>
          <ns3:TrackPointExtension>
            <ns3:atemp>29.0</ns3:atemp>
            <ns3:hr>96</ns3:hr>
          </ns3:TrackPointExtension>
        </extensions>
      </trkpt>
      <trkpt lat="36.80648186244070529937744140625" lon="-118.39930557645857334136962890625">
        <ele>3226.800048828125</ele>
        <time>2021-06-26T00:04:43.000Z</time>
        <extensions>
          <ns3:TrackPointExtension>
            <ns3:atemp>29.0</ns3:atemp>
            <ns3:hr>96</ns3:hr>
          </ns3:TrackPointExtension>
        </extensions>
      </trkpt>
      <trkpt lat="36.80647247470915317535400390625" lon="-118.39933097362518310546875">
        <ele>3227</ele>
        <time>2021-06-26T00:04:45.000Z</time>
        <extensions>
          <ns3:TrackPointExtension>
            <ns3:atemp>29.0</ns3:atemp>
            <ns3:hr>96</ns3:hr>
          </ns3:TrackPointExtension>
        </extensions>
      </trkpt>
      <trkpt lat="36.8064413778483867645263671875" lon="-118.3993509225547313690185546875">
        <ele>3227.199951171875</ele>
        <time>2021-06-26T00:04:49.000Z</time>
        <extensions>
          <ns3:TrackPointExtension>
            <ns3:atemp>29.0</ns3:atemp>
            <ns3:hr>99</ns3:hr>
          </ns3:TrackPointExtension>
        </extensions>
      </trkpt>
      <trkpt lat="36.80640474893152713775634765625" lon="-118.399377577006816864013671875">
        <ele>3227.199951171875</ele>
        <time>2021-06-26T00:04:53.000Z</time>
        <extensions>
          <ns3:TrackPointExtension>
            <ns3:atemp>29.0</ns3:atemp>
            <ns3:hr>100</ns3:hr>
          </ns3:TrackPointExtension>
        </extensions>
      </trkpt>
      <trkpt lat="36.80638563819229602813720703125" lon="-118.3993908204138278961181640625">
        <ele>3227.199951171875</ele>
        <time>2021-06-26T00:04:56.000Z</time>
        <extensions>
          <ns3:TrackPointExtension>
            <ns3:atemp>29.0</ns3:atemp>
            <ns3:hr>97</ns3:hr>
          </ns3:TrackPointExtension>
        </extensions>
      </trkpt>
      <trkpt lat="36.80635563097894191741943359375" lon="-118.39942242018878459930419921875">
        <ele>3227.60009765625</ele>
        <time>2021-06-26T00:05:01.000Z</time>
        <extensions>
          <ns3:TrackPointExtension>
            <ns3:atemp>29.0</ns3:atemp>
            <ns3:hr>97</ns3:hr>
          </ns3:TrackPointExtension>
        </extensions>
      </trkpt>
      <trkpt lat="36.8063355982303619384765625" lon="-118.39945846237242221832275390625">
        <ele>3227.39990234375</ele>
        <time>2021-06-26T00:05:06.000Z</time>
        <extensions>
          <ns3:TrackPointExtension>
            <ns3:atemp>29.0</ns3:atemp>
            <ns3:hr>94</ns3:hr>
          </ns3:TrackPointExtension>
        </extensions>
      </trkpt>
      <trkpt lat="36.80632914416491985321044921875" lon="-118.39945745654404163360595703125">
        <ele>3227.199951171875</ele>
        <time>2021-06-26T00:05:07.000Z</time>
        <extensions>
          <ns3:TrackPointExtension>
            <ns3:atemp>29.0</ns3:atemp>
            <ns3:hr>95</ns3:hr>
          </ns3:TrackPointExtension>
        </extensions>
      </trkpt>
      <trkpt lat="36.80632419884204864501953125" lon="-118.39945494197309017181396484375">
        <ele>3227.199951171875</ele>
        <time>2021-06-26T00:05:08.000Z</time>
        <extensions>
          <ns3:TrackPointExtension>
            <ns3:atemp>29.0</ns3:atemp>
            <ns3:hr>95</ns3:hr>
          </ns3:TrackPointExtension>
        </extensions>
      </trkpt>
      <trkpt lat="36.806337945163249969482421875" lon="-118.39947002939879894256591796875">
        <ele>3226.800048828125</ele>
        <time>2021-06-26T00:05:12.000Z</time>
        <extensions>
          <ns3:TrackPointExtension>
            <ns3:atemp>29.0</ns3:atemp>
            <ns3:hr>93</ns3:hr>
          </ns3:TrackPointExtension>
        </extensions>
      </trkpt>
      <trkpt lat="36.80634875781834125518798828125" lon="-118.39949601329863071441650390625">
        <ele>3226.199951171875</ele>
        <time>2021-06-26T00:05:16.000Z</time>
        <extensions>
          <ns3:TrackPointExtension>
            <ns3:atemp>29.0</ns3:atemp>
            <ns3:hr>95</ns3:hr>
          </ns3:TrackPointExtension>
        </extensions>
      </trkpt>
      <trkpt lat="36.806359402835369110107421875" lon="-118.3994843624532222747802734375">
        <ele>3225.800048828125</ele>
        <time>2021-06-26T00:05:23.000Z</time>
        <extensions>
          <ns3:TrackPointExtension>
            <ns3:atemp>29.0</ns3:atemp>
            <ns3:hr>95</ns3:hr>
          </ns3:TrackPointExtension>
        </extensions>
      </trkpt>
      <trkpt lat="36.806359402835369110107421875" lon="-118.3994843624532222747802734375">
        <ele>3226</ele>
        <time>2021-06-26T00:05:27.000Z</time>
        <extensions>
          <ns3:TrackPointExtension>
            <ns3:atemp>29.0</ns3:atemp>
            <ns3:hr>96</ns3:hr>
          </ns3:TrackPointExtension>
        </extensions>
      </trkpt>
      <trkpt lat="36.806359402835369110107421875" lon="-118.3994843624532222747802734375">
        <ele>3226.39990234375</ele>
        <time>2021-06-26T00:05:36.000Z</time>
        <extensions>
          <ns3:TrackPointExtension>
            <ns3:atemp>29.0</ns3:atemp>
            <ns3:hr>93</ns3:hr>
          </ns3:TrackPointExtension>
        </extensions>
      </trkpt>
      <trkpt lat="36.80637490935623645782470703125" lon="-118.39947992004454135894775390625">
        <ele>3226.60009765625</ele>
        <time>2021-06-26T00:05:40.000Z</time>
        <extensions>
          <ns3:TrackPointExtension>
            <ns3:atemp>29.0</ns3:atemp>
            <ns3:hr>90</ns3:hr>
          </ns3:TrackPointExtension>
        </extensions>
      </trkpt>
      <trkpt lat="36.8064044974744319915771484375" lon="-118.3994786627590656280517578125">
        <ele>3226.800048828125</ele>
        <time>2021-06-26T00:05:42.000Z</time>
        <extensions>
          <ns3:TrackPointExtension>
            <ns3:atemp>29.0</ns3:atemp>
            <ns3:hr>89</ns3:hr>
          </ns3:TrackPointExtension>
        </extensions>
      </trkpt>
      <trkpt lat="36.806472055613994598388671875" lon="-118.399529121816158294677734375">
        <ele>3226.39990234375</ele>
        <time>2021-06-26T00:05:49.000Z</time>
        <extensions>
          <ns3:TrackPointExtension>
            <ns3:atemp>29.0</ns3:atemp>
            <ns3:hr>92</ns3:hr>
          </ns3:TrackPointExtension>
        </extensions>
      </trkpt>
      <trkpt lat="36.8064789287745952606201171875" lon="-118.39953825809061527252197265625">
        <ele>3226.39990234375</ele>
        <time>2021-06-26T00:05:50.000Z</time>
        <extensions>
          <ns3:TrackPointExtension>
            <ns3:atemp>29.0</ns3:atemp>
            <ns3:hr>92</ns3:hr>
          </ns3:TrackPointExtension>
        </extensions>
      </trkpt>
      <trkpt lat="36.80652402341365814208984375" lon="-118.3996124379336833953857421875">
        <ele>3226.60009765625</ele>
        <time>2021-06-26T00:05:57.000Z</time>
        <extensions>
          <ns3:TrackPointExtension>
            <ns3:atemp>29.0</ns3:atemp>
            <ns3:hr>94</ns3:hr>
          </ns3:TrackPointExtension>
        </extensions>
      </trkpt>
      <trkpt lat="36.80654053576290607452392578125" lon="-118.39962811209261417388916015625">
        <ele>3226.60009765625</ele>
        <time>2021-06-26T00:06:00.000Z</time>
        <extensions>
          <ns3:TrackPointExtension>
            <ns3:atemp>29.0</ns3:atemp>
            <ns3:hr>95</ns3:hr>
          </ns3:TrackPointExtension>
        </extensions>
      </trkpt>
      <trkpt lat="36.8065721355378627777099609375" lon="-118.39962190948426723480224609375">
        <ele>3226.800048828125</ele>
        <time>2021-06-26T00:06:03.000Z</time>
        <extensions>
          <ns3:TrackPointExtension>
            <ns3:atemp>29.0</ns3:atemp>
            <ns3:hr>95</ns3:hr>
          </ns3:TrackPointExtension>
        </extensions>
      </trkpt>
      <trkpt lat="36.8066002987325191497802734375" lon="-118.39962040074169635772705078125">
        <ele>3227.199951171875</ele>
        <time>2021-06-26T00:06:06.000Z</time>
        <extensions>
          <ns3:TrackPointExtension>
            <ns3:atemp>29.0</ns3:atemp>
            <ns3:hr>90</ns3:hr>
          </ns3:TrackPointExtension>
        </extensions>
      </trkpt>
      <trkpt lat="36.80660809390246868133544921875" lon="-118.3996194787323474884033203125">
        <ele>3227.60009765625</ele>
        <time>2021-06-26T00:06:08.000Z</time>
        <extensions>
          <ns3:TrackPointExtension>
            <ns3:atemp>29.0</ns3:atemp>
            <ns3:hr>93</ns3:hr>
          </ns3:TrackPointExtension>
        </extensions>
      </trkpt>
      <trkpt lat="36.80660876445472240447998046875" lon="-118.3996198140084743499755859375">
        <ele>3227.60009765625</ele>
        <time>2021-06-26T00:06:09.000Z</time>
        <extensions>
          <ns3:TrackPointExtension>
            <ns3:atemp>29.0</ns3:atemp>
            <ns3:hr>92</ns3:hr>
          </ns3:TrackPointExtension>
        </extensions>
      </trkpt>
      <trkpt lat="36.80661496706306934356689453125" lon="-118.3996134437620639801025390625">
        <ele>3227.800048828125</ele>
        <time>2021-06-26T00:06:14.000Z</time>
        <extensions>
          <ns3:TrackPointExtension>
            <ns3:atemp>29.0</ns3:atemp>
            <ns3:hr>89</ns3:hr>
          </ns3:TrackPointExtension>
        </extensions>
      </trkpt>
      <trkpt lat="36.80660507641732692718505859375" lon="-118.3996154554188251495361328125">
        <ele>3227.800048828125</ele>
        <time>2021-06-26T00:06:17.000Z</time>
        <extensions>
          <ns3:TrackPointExtension>
            <ns3:atemp>29.0</ns3:atemp>
            <ns3:hr>86</ns3:hr>
          </ns3:TrackPointExtension>
        </extensions>
      </trkpt>
      <trkpt lat="36.8066016398370265960693359375" lon="-118.3996141143143177032470703125">
        <ele>3227.60009765625</ele>
        <time>2021-06-26T00:06:18.000Z</time>
        <extensions>
          <ns3:TrackPointExtension>
            <ns3:atemp>29.0</ns3:atemp>
            <ns3:hr>87</ns3:hr>
          </ns3:TrackPointExtension>
        </extensions>
      </trkpt>
      <trkpt lat="36.8066016398370265960693359375" lon="-118.3996141143143177032470703125">
        <ele>3227.60009765625</ele>
        <time>2021-06-26T00:06:24.000Z</time>
        <extensions>
          <ns3:TrackPointExtension>
            <ns3:atemp>29.0</ns3:atemp>
            <ns3:hr>90</ns3:hr>
          </ns3:TrackPointExtension>
        </extensions>
      </trkpt>
      <trkpt lat="36.8066016398370265960693359375" lon="-118.3996141143143177032470703125">
        <ele>3228</ele>
        <time>2021-06-26T00:06:25.000Z</time>
        <extensions>
          <ns3:TrackPointExtension>
            <ns3:atemp>29.0</ns3:atemp>
            <ns3:hr>91</ns3:hr>
          </ns3:TrackPointExtension>
        </extensions>
      </trkpt>
      <trkpt lat="36.80660189129412174224853515625" lon="-118.3996141143143177032470703125">
        <ele>3227.800048828125</ele>
        <time>2021-06-26T00:06:28.000Z</time>
        <extensions>
          <ns3:TrackPointExtension>
            <ns3:atemp>29.0</ns3:atemp>
            <ns3:hr>95</ns3:hr>
          </ns3:TrackPointExtension>
        </extensions>
      </trkpt>
      <trkpt lat="36.80659535340964794158935546875" lon="-118.3995831012725830078125">
        <ele>3227</ele>
        <time>2021-06-26T00:06:31.000Z</time>
        <extensions>
          <ns3:TrackPointExtension>
            <ns3:atemp>29.0</ns3:atemp>
            <ns3:hr>92</ns3:hr>
          </ns3:TrackPointExtension>
        </extensions>
      </trkpt>
      <trkpt lat="36.8065878935158252716064453125" lon="-118.39957195334136486053466796875">
        <ele>3227</ele>
        <time>2021-06-26T00:06:32.000Z</time>
        <extensions>
          <ns3:TrackPointExtension>
            <ns3:atemp>29.0</ns3:atemp>
            <ns3:hr>95</ns3:hr>
          </ns3:TrackPointExtension>
        </extensions>
      </trkpt>
      <trkpt lat="36.806581355631351470947265625" lon="-118.39956206269562244415283203125">
        <ele>3227</ele>
        <time>2021-06-26T00:06:33.000Z</time>
        <extensions>
          <ns3:TrackPointExtension>
            <ns3:atemp>29.0</ns3:atemp>
            <ns3:hr>93</ns3:hr>
          </ns3:TrackPointExtension>
        </extensions>
      </trkpt>
      <trkpt lat="36.8065664358437061309814453125" lon="-118.399545885622501373291015625">
        <ele>3226.800048828125</ele>
        <time>2021-06-26T00:06:35.000Z</time>
        <extensions>
          <ns3:TrackPointExtension>
            <ns3:atemp>29.0</ns3:atemp>
            <ns3:hr>90</ns3:hr>
          </ns3:TrackPointExtension>
        </extensions>
      </trkpt>
      <trkpt lat="36.80655780248343944549560546875" lon="-118.3995128609240055084228515625">
        <ele>3226.800048828125</ele>
        <time>2021-06-26T00:06:37.000Z</time>
        <extensions>
          <ns3:TrackPointExtension>
            <ns3:atemp>29.0</ns3:atemp>
            <ns3:hr>93</ns3:hr>
          </ns3:TrackPointExtension>
        </extensions>
      </trkpt>
      <trkpt lat="36.80653718300163745880126953125" lon="-118.39948059059679508209228515625">
        <ele>3227.199951171875</ele>
        <time>2021-06-26T00:06:40.000Z</time>
        <extensions>
          <ns3:TrackPointExtension>
            <ns3:atemp>29.0</ns3:atemp>
            <ns3:hr>92</ns3:hr>
          </ns3:TrackPointExtension>
        </extensions>
      </trkpt>
      <trkpt lat="36.80652276612818241119384765625" lon="-118.39944563806056976318359375">
        <ele>3227.199951171875</ele>
        <time>2021-06-26T00:06:44.000Z</time>
        <extensions>
          <ns3:TrackPointExtension>
            <ns3:atemp>29.0</ns3:atemp>
            <ns3:hr>93</ns3:hr>
          </ns3:TrackPointExtension>
        </extensions>
      </trkpt>
      <trkpt lat="36.8065379373729228973388671875" lon="-118.39941252954304218292236328125">
        <ele>3227</ele>
        <time>2021-06-26T00:06:47.000Z</time>
        <extensions>
          <ns3:TrackPointExtension>
            <ns3:atemp>29.0</ns3:atemp>
            <ns3:hr>94</ns3:hr>
          </ns3:TrackPointExtension>
        </extensions>
      </trkpt>
      <trkpt lat="36.806548498570919036865234375" lon="-118.3993244357407093048095703125">
        <ele>3227</ele>
        <time>2021-06-26T00:06:54.000Z</time>
        <extensions>
          <ns3:TrackPointExtension>
            <ns3:atemp>29.0</ns3:atemp>
            <ns3:hr>95</ns3:hr>
          </ns3:TrackPointExtension>
        </extensions>
      </trkpt>
      <trkpt lat="36.80655377916991710662841796875" lon="-118.3993026427924633026123046875">
        <ele>3227</ele>
        <time>2021-06-26T00:06:56.000Z</time>
        <extensions>
          <ns3:TrackPointExtension>
            <ns3:atemp>29.0</ns3:atemp>
            <ns3:hr>94</ns3:hr>
          </ns3:TrackPointExtension>
        </extensions>
      </trkpt>
      <trkpt lat="36.80655495263636112213134765625" lon="-118.39929233305156230926513671875">
        <ele>3227</ele>
        <time>2021-06-26T00:06:57.000Z</time>
        <extensions>
          <ns3:TrackPointExtension>
            <ns3:atemp>29.0</ns3:atemp>
            <ns3:hr>94</ns3:hr>
          </ns3:TrackPointExtension>
        </extensions>
      </trkpt>
      <trkpt lat="36.80653751827776432037353515625" lon="-118.39925997890532016754150390625">
        <ele>3227.199951171875</ele>
        <time>2021-06-26T00:07:01.000Z</time>
        <extensions>
          <ns3:TrackPointExtension>
            <ns3:atemp>29.0</ns3:atemp>
            <ns3:hr>94</ns3:hr>
          </ns3:TrackPointExtension>
        </extensions>
      </trkpt>
      <trkpt lat="36.80654489435255527496337890625" lon="-118.39919493533670902252197265625">
        <ele>3228.39990234375</ele>
        <time>2021-06-26T00:07:07.000Z</time>
        <extensions>
          <ns3:TrackPointExtension>
            <ns3:atemp>29.0</ns3:atemp>
            <ns3:hr>94</ns3:hr>
          </ns3:TrackPointExtension>
        </extensions>
      </trkpt>
      <trkpt lat="36.80651421658694744110107421875" lon="-118.39915872551500797271728515625">
        <ele>3229.199951171875</ele>
        <time>2021-06-26T00:07:12.000Z</time>
        <extensions>
          <ns3:TrackPointExtension>
            <ns3:atemp>29.0</ns3:atemp>
            <ns3:hr>97</ns3:hr>
          </ns3:TrackPointExtension>
        </extensions>
      </trkpt>
      <trkpt lat="36.80648622103035449981689453125" lon="-118.39915193617343902587890625">
        <ele>3230</ele>
        <time>2021-06-26T00:07:15.000Z</time>
        <extensions>
          <ns3:TrackPointExtension>
            <ns3:atemp>29.0</ns3:atemp>
            <ns3:hr>99</ns3:hr>
          </ns3:TrackPointExtension>
        </extensions>
      </trkpt>
      <trkpt lat="36.806466020643711090087890625" lon="-118.39914632029831409454345703125">
        <ele>3230.199951171875</ele>
        <time>2021-06-26T00:07:18.000Z</time>
        <extensions>
          <ns3:TrackPointExtension>
            <ns3:atemp>29.0</ns3:atemp>
            <ns3:hr>100</ns3:hr>
          </ns3:TrackPointExtension>
        </extensions>
      </trkpt>
      <trkpt lat="36.8064450658857822418212890625" lon="-118.399140872061252593994140625">
        <ele>3230.199951171875</ele>
        <time>2021-06-26T00:07:21.000Z</time>
        <extensions>
          <ns3:TrackPointExtension>
            <ns3:atemp>29.0</ns3:atemp>
            <ns3:hr>103</ns3:hr>
          </ns3:TrackPointExtension>
        </extensions>
      </trkpt>
      <trkpt lat="36.8064122088253498077392578125" lon="-118.39914732612669467926025390625">
        <ele>3230.199951171875</ele>
        <time>2021-06-26T00:07:25.000Z</time>
        <extensions>
          <ns3:TrackPointExtension>
            <ns3:atemp>29.0</ns3:atemp>
            <ns3:hr>104</ns3:hr>
          </ns3:TrackPointExtension>
        </extensions>
      </trkpt>
      <trkpt lat="36.80639259517192840576171875" lon="-118.39913575910031795501708984375">
        <ele>3230</ele>
        <time>2021-06-26T00:07:29.000Z</time>
        <extensions>
          <ns3:TrackPointExtension>
            <ns3:atemp>29.0</ns3:atemp>
            <ns3:hr>106</ns3:hr>
          </ns3:TrackPointExtension>
        </extensions>
      </trkpt>
      <trkpt lat="36.80639368481934070587158203125" lon="-118.39913357980549335479736328125">
        <ele>3230.199951171875</ele>
        <time>2021-06-26T00:07:31.000Z</time>
        <extensions>
          <ns3:TrackPointExtension>
            <ns3:atemp>29.0</ns3:atemp>
            <ns3:hr>107</ns3:hr>
          </ns3:TrackPointExtension>
        </extensions>
      </trkpt>
      <trkpt lat="36.8063920922577381134033203125" lon="-118.3991324901580810546875">
        <ele>3230.199951171875</ele>
        <time>2021-06-26T00:07:32.000Z</time>
        <extensions>
          <ns3:TrackPointExtension>
            <ns3:atemp>29.0</ns3:atemp>
            <ns3:hr>107</ns3:hr>
          </ns3:TrackPointExtension>
        </extensions>
      </trkpt>
      <trkpt lat="36.80634791962802410125732421875" lon="-118.39915051124989986419677734375">
        <ele>3229</ele>
        <time>2021-06-26T00:07:38.000Z</time>
        <extensions>
          <ns3:TrackPointExtension>
            <ns3:atemp>29.0</ns3:atemp>
            <ns3:hr>106</ns3:hr>
          </ns3:TrackPointExtension>
        </extensions>
      </trkpt>
      <trkpt lat="36.80634490214288234710693359375" lon="-118.39915621094405651092529296875">
        <ele>3229</ele>
        <time>2021-06-26T00:07:39.000Z</time>
        <extensions>
          <ns3:TrackPointExtension>
            <ns3:atemp>29.0</ns3:atemp>
            <ns3:hr>105</ns3:hr>
          </ns3:TrackPointExtension>
        </extensions>
      </trkpt>
      <trkpt lat="36.80632285773754119873046875" lon="-118.39916425757110118865966796875">
        <ele>3228.60009765625</ele>
        <time>2021-06-26T00:07:44.000Z</time>
        <extensions>
          <ns3:TrackPointExtension>
            <ns3:atemp>29.0</ns3:atemp>
            <ns3:hr>102</ns3:hr>
          </ns3:TrackPointExtension>
        </extensions>
      </trkpt>
      <trkpt lat="36.80631824769079685211181640625" lon="-118.39915822260081768035888671875">
        <ele>3228.800048828125</ele>
        <time>2021-06-26T00:07:45.000Z</time>
        <extensions>
          <ns3:TrackPointExtension>
            <ns3:atemp>29.0</ns3:atemp>
            <ns3:hr>104</ns3:hr>
          </ns3:TrackPointExtension>
        </extensions>
      </trkpt>
      <trkpt lat="36.806278936564922332763671875" lon="-118.39916802942752838134765625">
        <ele>3228.800048828125</ele>
        <time>2021-06-26T00:07:49.000Z</time>
        <extensions>
          <ns3:TrackPointExtension>
            <ns3:atemp>29.0</ns3:atemp>
            <ns3:hr>107</ns3:hr>
          </ns3:TrackPointExtension>
        </extensions>
      </trkpt>
      <trkpt lat="36.80628622882068157196044921875" lon="-118.39919191785156726837158203125">
        <ele>3229</ele>
        <time>2021-06-26T00:07:51.000Z</time>
        <extensions>
          <ns3:TrackPointExtension>
            <ns3:atemp>29.0</ns3:atemp>
            <ns3:hr>108</ns3:hr>
          </ns3:TrackPointExtension>
        </extensions>
      </trkpt>
      <trkpt lat="36.80629444308578968048095703125" lon="-118.39922108687460422515869140625">
        <ele>3229</ele>
        <time>2021-06-26T00:07:57.000Z</time>
        <extensions>
          <ns3:TrackPointExtension>
            <ns3:atemp>29.0</ns3:atemp>
            <ns3:hr>107</ns3:hr>
          </ns3:TrackPointExtension>
        </extensions>
      </trkpt>
    </trkseg>
  </trk>
</gpx>
